<?xml version='1.0' encoding='UTF-8'?><gpx version="1.1" creator="JPX - https://github.com/jenetics/jpx" xmlns="http://www.topografix.com/GPX/1/1"><trk><trkseg><trkpt lat="44.2824933" lon="8.433425"><ele>8.0</ele><time>2026-05-01T08:15:19.964Z</time></trkpt><trkpt lat="44.2825817" lon="8.4333367"><ele>8.0</ele><time>2026-05-01T08:15:21.964Z</time></trkpt><trkpt lat="44.2826317" lon="8.4332583"><ele>8.0</ele><time>2026-05-01T08:15:25.965Z</time></trkpt><trkpt lat="44.2825817" lon="8.43316"><ele>8.0</ele><time>2026-05-01T08:15:27.965Z</time></trkpt><trkpt lat="44.2825033" lon="8.4330583"><ele>8.0</ele><time>2026-05-01T08:15:29.965Z</time></trkpt><trkpt lat="44.2824217" lon="8.4329383"><ele>7.833333333333333</ele><time>2026-05-01T08:15:31.964Z</time></trkpt><trkpt lat="44.2823717" lon="8.4328583"><ele>7.666666666666666</ele><time>2026-05-01T08:15:32.964Z</time></trkpt><trkpt lat="44.282335" lon="8.432715"><ele>7.5</ele><time>2026-05-01T08:15:34.964Z</time></trkpt><trkpt lat="44.2823583" lon="8.43261"><ele>7.333333333333334</ele><time>2026-05-01T08:15:37.964Z</time></trkpt><trkpt lat="44.2824117" lon="8.4325217"><ele>7.166666666666667</ele><time>2026-05-01T08:15:39.964Z</time></trkpt><trkpt lat="44.2824717" lon="8.43247"><ele>7.0</ele><time>2026-05-01T08:15:40.964Z</time></trkpt><trkpt lat="44.2825467" lon="8.43242"><ele>7.0</ele><time>2026-05-01T08:15:41.964Z</time></trkpt><trkpt lat="44.2826317" lon="8.4323667"><ele>6.999999999999999</ele><time>2026-05-01T08:15:42.964Z</time></trkpt><trkpt lat="44.2827217" lon="8.4323083"><ele>6.999999999999999</ele><time>2026-05-01T08:15:43.964Z</time></trkpt><trkpt lat="44.2828133" lon="8.432245"><ele>7.0</ele><time>2026-05-01T08:15:44.964Z</time></trkpt><trkpt lat="44.2829067" lon="8.4321783"><ele>7.0</ele><time>2026-05-01T08:15:45.964Z</time></trkpt><trkpt lat="44.2829983" lon="8.4321183"><ele>7.0</ele><time>2026-05-01T08:15:46.964Z</time></trkpt><trkpt lat="44.2830883" lon="8.4320567"><ele>6.999999999999999</ele><time>2026-05-01T08:15:47.964Z</time></trkpt><trkpt lat="44.283175" lon="8.4319867"><ele>6.999999999999999</ele><time>2026-05-01T08:15:48.964Z</time></trkpt><trkpt lat="44.2832633" lon="8.4318933"><ele>7.0</ele><time>2026-05-01T08:15:49.964Z</time></trkpt><trkpt lat="44.283355" lon="8.431815"><ele>7.0</ele><time>2026-05-01T08:15:50.964Z</time></trkpt><trkpt lat="44.2834633" lon="8.4317383"><ele>7.0</ele><time>2026-05-01T08:15:51.965Z</time></trkpt><trkpt lat="44.2835633" lon="8.4316583"><ele>6.999999999999999</ele><time>2026-05-01T08:15:52.964Z</time></trkpt><trkpt lat="44.2836533" lon="8.43157"><ele>6.999999999999999</ele><time>2026-05-01T08:15:53.964Z</time></trkpt><trkpt lat="44.2837383" lon="8.431475"><ele>7.0</ele><time>2026-05-01T08:15:54.964Z</time></trkpt><trkpt lat="44.28381" lon="8.4313833"><ele>7.0</ele><time>2026-05-01T08:15:55.964Z</time></trkpt><trkpt lat="44.283875" lon="8.4312917"><ele>7.500000000000001</ele><time>2026-05-01T08:15:56.965Z</time></trkpt><trkpt lat="44.283935" lon="8.4311967"><ele>8.0</ele><time>2026-05-01T08:15:57.965Z</time></trkpt><trkpt lat="44.2839817" lon="8.43111"><ele>8.5</ele><time>2026-05-01T08:15:58.964Z</time></trkpt><trkpt lat="44.28403" lon="8.431025"><ele>9.0</ele><time>2026-05-01T08:15:59.964Z</time></trkpt><trkpt lat="44.2840783" lon="8.430945"><ele>9.5</ele><time>2026-05-01T08:16:00.964Z</time></trkpt><trkpt lat="44.2841217" lon="8.430865"><ele>10.0</ele><time>2026-05-01T08:16:01.964Z</time></trkpt><trkpt lat="44.28418" lon="8.430745"><ele>10.0</ele><time>2026-05-01T08:16:03.964Z</time></trkpt><trkpt lat="44.2842333" lon="8.4306417"><ele>10.0</ele><time>2026-05-01T08:16:05.965Z</time></trkpt><trkpt lat="44.2842733" lon="8.43057"><ele>10.0</ele><time>2026-05-01T08:16:07.965Z</time></trkpt><trkpt lat="44.2843367" lon="8.43053"><ele>10.0</ele><time>2026-05-01T08:16:09.964Z</time></trkpt><trkpt lat="44.284435" lon="8.4305983"><ele>10.0</ele><time>2026-05-01T08:16:11.964Z</time></trkpt><trkpt lat="44.2845033" lon="8.4306983"><ele>10.0</ele><time>2026-05-01T08:16:12.964Z</time></trkpt><trkpt lat="44.28459" lon="8.4308117"><ele>10.0</ele><time>2026-05-01T08:16:13.964Z</time></trkpt><trkpt lat="44.2846767" lon="8.430925"><ele>10.0</ele><time>2026-05-01T08:16:14.964Z</time></trkpt><trkpt lat="44.28476" lon="8.43105"><ele>10.0</ele><time>2026-05-01T08:16:15.964Z</time></trkpt><trkpt lat="44.2848383" lon="8.4311683"><ele>10.0</ele><time>2026-05-01T08:16:16.965Z</time></trkpt><trkpt lat="44.2849083" lon="8.4312833"><ele>9.4</ele><time>2026-05-01T08:16:17.965Z</time></trkpt><trkpt lat="44.2849767" lon="8.431395"><ele>8.8</ele><time>2026-05-01T08:16:18.965Z</time></trkpt><trkpt lat="44.28504" lon="8.43149"><ele>8.2</ele><time>2026-05-01T08:16:19.964Z</time></trkpt><trkpt lat="44.2850983" lon="8.4315767"><ele>7.6</ele><time>2026-05-01T08:16:20.965Z</time></trkpt><trkpt lat="44.2851517" lon="8.4316617"><ele>7.0</ele><time>2026-05-01T08:16:21.964Z</time></trkpt><trkpt lat="44.2852067" lon="8.4317567"><ele>7.0</ele><time>2026-05-01T08:16:22.964Z</time></trkpt><trkpt lat="44.2852583" lon="8.431855"><ele>6.999999999999999</ele><time>2026-05-01T08:16:23.964Z</time></trkpt><trkpt lat="44.28532" lon="8.4319417"><ele>6.999999999999999</ele><time>2026-05-01T08:16:24.964Z</time></trkpt><trkpt lat="44.285375" lon="8.4320333"><ele>7.0</ele><time>2026-05-01T08:16:25.964Z</time></trkpt><trkpt lat="44.28544" lon="8.4321333"><ele>7.0</ele><time>2026-05-01T08:16:26.965Z</time></trkpt><trkpt lat="44.2855117" lon="8.4322317"><ele>7.166666666666667</ele><time>2026-05-01T08:16:27.964Z</time></trkpt><trkpt lat="44.285575" lon="8.4323267"><ele>7.333333333333334</ele><time>2026-05-01T08:16:28.964Z</time></trkpt><trkpt lat="44.2856333" lon="8.4324117"><ele>7.5</ele><time>2026-05-01T08:16:29.965Z</time></trkpt><trkpt lat="44.285685" lon="8.4324933"><ele>7.666666666666666</ele><time>2026-05-01T08:16:30.964Z</time></trkpt><trkpt lat="44.2857333" lon="8.4325817"><ele>7.833333333333333</ele><time>2026-05-01T08:16:31.964Z</time></trkpt><trkpt lat="44.2857817" lon="8.4326717"><ele>8.0</ele><time>2026-05-01T08:16:32.965Z</time></trkpt><trkpt lat="44.2858233" lon="8.43275"><ele>7.999999999999999</ele><time>2026-05-01T08:16:33.964Z</time></trkpt><trkpt lat="44.2858617" lon="8.4328233"><ele>8.0</ele><time>2026-05-01T08:16:34.965Z</time></trkpt><trkpt lat="44.2859283" lon="8.43294"><ele>8.0</ele><time>2026-05-01T08:16:36.964Z</time></trkpt><trkpt lat="44.28596" lon="8.4330233"><ele>8.0</ele><time>2026-05-01T08:16:40.964Z</time></trkpt><trkpt lat="44.2859617" lon="8.43313"><ele>7.999999999999999</ele><time>2026-05-01T08:16:48.965Z</time></trkpt><trkpt lat="44.2859367" lon="8.4332183"><ele>8.0</ele><time>2026-05-01T08:16:49.964Z</time></trkpt><trkpt lat="44.2858817" lon="8.4333083"><ele>8.0</ele><time>2026-05-01T08:16:50.964Z</time></trkpt><trkpt lat="44.2858117" lon="8.4333933"><ele>8.0</ele><time>2026-05-01T08:16:51.964Z</time></trkpt><trkpt lat="44.2857233" lon="8.4334783"><ele>8.0</ele><time>2026-05-01T08:16:52.965Z</time></trkpt><trkpt lat="44.2856333" lon="8.4335633"><ele>8.0</ele><time>2026-05-01T08:16:53.964Z</time></trkpt><trkpt lat="44.285545" lon="8.433655"><ele>8.0</ele><time>2026-05-01T08:16:54.964Z</time></trkpt><trkpt lat="44.2854583" lon="8.4337483"><ele>8.25</ele><time>2026-05-01T08:16:55.964Z</time></trkpt><trkpt lat="44.2853683" lon="8.4338433"><ele>8.5</ele><time>2026-05-01T08:16:56.964Z</time></trkpt><trkpt lat="44.2852833" lon="8.4339517"><ele>8.75</ele><time>2026-05-01T08:16:57.965Z</time></trkpt><trkpt lat="44.2852" lon="8.4340667"><ele>9.0</ele><time>2026-05-01T08:16:58.964Z</time></trkpt><trkpt lat="44.2851167" lon="8.4341867"><ele>9.0</ele><time>2026-05-01T08:16:59.965Z</time></trkpt><trkpt lat="44.2850233" lon="8.4343117"><ele>9.0</ele><time>2026-05-01T08:17:00.965Z</time></trkpt><trkpt lat="44.2849267" lon="8.4344233"><ele>9.0</ele><time>2026-05-01T08:17:01.964Z</time></trkpt><trkpt lat="44.2848467" lon="8.4345517"><ele>9.0</ele><time>2026-05-01T08:17:02.964Z</time></trkpt><trkpt lat="44.2848" lon="8.434645"><ele>8.333333333333334</ele><time>2026-05-01T08:17:03.964Z</time></trkpt><trkpt lat="44.284755" lon="8.4347533"><ele>7.666666666666667</ele><time>2026-05-01T08:17:04.964Z</time></trkpt><trkpt lat="44.284715" lon="8.4348633"><ele>7.0</ele><time>2026-05-01T08:17:05.965Z</time></trkpt><trkpt lat="44.2846783" lon="8.4349617"><ele>6.333333333333334</ele><time>2026-05-01T08:17:06.964Z</time></trkpt><trkpt lat="44.284645" lon="8.435045"><ele>5.666666666666667</ele><time>2026-05-01T08:17:07.964Z</time></trkpt><trkpt lat="44.2846133" lon="8.4351267"><ele>5.0</ele><time>2026-05-01T08:17:08.964Z</time></trkpt><trkpt lat="44.284575" lon="8.4352783"><ele>5.0</ele><time>2026-05-01T08:17:10.965Z</time></trkpt><trkpt lat="44.28462" lon="8.435395"><ele>5.0</ele><time>2026-05-01T08:17:12.965Z</time></trkpt><trkpt lat="44.2846817" lon="8.4354367"><ele>5.0</ele><time>2026-05-01T08:17:13.965Z</time></trkpt><trkpt lat="44.2847633" lon="8.435485"><ele>5.0</ele><time>2026-05-01T08:17:14.965Z</time></trkpt><trkpt lat="44.28486" lon="8.43554"><ele>5.0</ele><time>2026-05-01T08:17:15.964Z</time></trkpt><trkpt lat="44.2849517" lon="8.4355983"><ele>6.0</ele><time>2026-05-01T08:17:16.965Z</time></trkpt><trkpt lat="44.2850467" lon="8.4356717"><ele>7.0</ele><time>2026-05-01T08:17:17.965Z</time></trkpt><trkpt lat="44.2851467" lon="8.435755"><ele>8.0</ele><time>2026-05-01T08:17:18.964Z</time></trkpt><trkpt lat="44.2852483" lon="8.4358383"><ele>9.0</ele><time>2026-05-01T08:17:19.964Z</time></trkpt><trkpt lat="44.2853483" lon="8.4359283"><ele>9.0</ele><time>2026-05-01T08:17:20.964Z</time></trkpt><trkpt lat="44.2854483" lon="8.4360183"><ele>9.0</ele><time>2026-05-01T08:17:21.965Z</time></trkpt><trkpt lat="44.2855567" lon="8.43612"><ele>9.0</ele><time>2026-05-01T08:17:22.965Z</time></trkpt><trkpt lat="44.2856633" lon="8.43623"><ele>9.0</ele><time>2026-05-01T08:17:23.964Z</time></trkpt><trkpt lat="44.28577" lon="8.4363517"><ele>9.5</ele><time>2026-05-01T08:17:24.964Z</time></trkpt><trkpt lat="44.28587" lon="8.436465"><ele>10.0</ele><time>2026-05-01T08:17:25.964Z</time></trkpt><trkpt lat="44.2859767" lon="8.4366017"><ele>10.5</ele><time>2026-05-01T08:17:26.964Z</time></trkpt><trkpt lat="44.2860867" lon="8.43674"><ele>11.0</ele><time>2026-05-01T08:17:27.965Z</time></trkpt><trkpt lat="44.2861917" lon="8.43687"><ele>11.0</ele><time>2026-05-01T08:17:28.965Z</time></trkpt><trkpt lat="44.2862983" lon="8.4370167"><ele>11.0</ele><time>2026-05-01T08:17:29.964Z</time></trkpt><trkpt lat="44.2864083" lon="8.437175"><ele>11.0</ele><time>2026-05-01T08:17:30.965Z</time></trkpt><trkpt lat="44.2865067" lon="8.4373317"><ele>12.666666666666666</ele><time>2026-05-01T08:17:31.964Z</time></trkpt><trkpt lat="44.2866133" lon="8.437495"><ele>14.333333333333332</ele><time>2026-05-01T08:17:32.964Z</time></trkpt><trkpt lat="44.2867083" lon="8.4376617"><ele>16.0</ele><time>2026-05-01T08:17:33.964Z</time></trkpt><trkpt lat="44.2868083" lon="8.437825"><ele>15.75</ele><time>2026-05-01T08:17:34.964Z</time></trkpt><trkpt lat="44.286895" lon="8.4379933"><ele>15.5</ele><time>2026-05-01T08:17:35.964Z</time></trkpt><trkpt lat="44.28697" lon="8.4381783"><ele>15.25</ele><time>2026-05-01T08:17:36.965Z</time></trkpt><trkpt lat="44.2870483" lon="8.4383517"><ele>15.0</ele><time>2026-05-01T08:17:37.964Z</time></trkpt><trkpt lat="44.2871217" lon="8.4385433"><ele>15.0</ele><time>2026-05-01T08:17:38.964Z</time></trkpt><trkpt lat="44.287205" lon="8.43873"><ele>15.0</ele><time>2026-05-01T08:17:39.965Z</time></trkpt><trkpt lat="44.287285" lon="8.4389217"><ele>15.0</ele><time>2026-05-01T08:17:40.964Z</time></trkpt><trkpt lat="44.2873633" lon="8.4391083"><ele>17.333333333333332</ele><time>2026-05-01T08:17:41.964Z</time></trkpt><trkpt lat="44.2874283" lon="8.4393167"><ele>19.666666666666664</ele><time>2026-05-01T08:17:42.964Z</time></trkpt><trkpt lat="44.28749" lon="8.4395117"><ele>22.0</ele><time>2026-05-01T08:17:43.964Z</time></trkpt><trkpt lat="44.2875683" lon="8.439705"><ele>22.0</ele><time>2026-05-01T08:17:44.965Z</time></trkpt><trkpt lat="44.2876467" lon="8.43988"><ele>22.0</ele><time>2026-05-01T08:17:45.964Z</time></trkpt><trkpt lat="44.28772" lon="8.4400517"><ele>22.0</ele><time>2026-05-01T08:17:46.964Z</time></trkpt><trkpt lat="44.287785" lon="8.4402467"><ele>22.0</ele><time>2026-05-01T08:17:47.964Z</time></trkpt><trkpt lat="44.287845" lon="8.4404383"><ele>22.25</ele><time>2026-05-01T08:17:48.964Z</time></trkpt><trkpt lat="44.2878767" lon="8.4406367"><ele>22.5</ele><time>2026-05-01T08:17:49.964Z</time></trkpt><trkpt lat="44.2879283" lon="8.4408267"><ele>22.75</ele><time>2026-05-01T08:17:50.964Z</time></trkpt><trkpt lat="44.2879917" lon="8.4409933"><ele>23.0</ele><time>2026-05-01T08:17:51.964Z</time></trkpt><trkpt lat="44.2880483" lon="8.44117"><ele>23.25</ele><time>2026-05-01T08:17:52.964Z</time></trkpt><trkpt lat="44.2881067" lon="8.441335"><ele>23.5</ele><time>2026-05-01T08:17:53.964Z</time></trkpt><trkpt lat="44.28817" lon="8.4415167"><ele>23.75</ele><time>2026-05-01T08:17:54.965Z</time></trkpt><trkpt lat="44.2882133" lon="8.4416883"><ele>24.0</ele><time>2026-05-01T08:17:55.964Z</time></trkpt><trkpt lat="44.28827" lon="8.4418383"><ele>24.0</ele><time>2026-05-01T08:17:56.964Z</time></trkpt><trkpt lat="44.2883283" lon="8.4419933"><ele>24.0</ele><time>2026-05-01T08:17:57.965Z</time></trkpt><trkpt lat="44.288385" lon="8.4421517"><ele>24.0</ele><time>2026-05-01T08:17:58.964Z</time></trkpt><trkpt lat="44.28844" lon="8.4422983"><ele>24.0</ele><time>2026-05-01T08:17:59.964Z</time></trkpt><trkpt lat="44.2884783" lon="8.4424383"><ele>24.0</ele><time>2026-05-01T08:18:00.964Z</time></trkpt><trkpt lat="44.288495" lon="8.44258"><ele>24.0</ele><time>2026-05-01T08:18:01.965Z</time></trkpt><trkpt lat="44.2884933" lon="8.4427383"><ele>24.0</ele><time>2026-05-01T08:18:02.965Z</time></trkpt><trkpt lat="44.2884617" lon="8.4429083"><ele>24.0</ele><time>2026-05-01T08:18:03.964Z</time></trkpt><trkpt lat="44.2884233" lon="8.443075"><ele>25.0</ele><time>2026-05-01T08:18:04.964Z</time></trkpt><trkpt lat="44.28839" lon="8.44325"><ele>26.0</ele><time>2026-05-01T08:18:05.964Z</time></trkpt><trkpt lat="44.2883467" lon="8.44341"><ele>27.0</ele><time>2026-05-01T08:18:06.964Z</time></trkpt><trkpt lat="44.288295" lon="8.44358"><ele>28.0</ele><time>2026-05-01T08:18:07.964Z</time></trkpt><trkpt lat="44.288245" lon="8.4437383"><ele>27.5</ele><time>2026-05-01T08:18:08.964Z</time></trkpt><trkpt lat="44.2881933" lon="8.443885"><ele>27.0</ele><time>2026-05-01T08:18:09.965Z</time></trkpt><trkpt lat="44.2881267" lon="8.4440317"><ele>26.5</ele><time>2026-05-01T08:18:10.965Z</time></trkpt><trkpt lat="44.2880717" lon="8.4441733"><ele>26.0</ele><time>2026-05-01T08:18:11.964Z</time></trkpt><trkpt lat="44.2880083" lon="8.44431"><ele>26.0</ele><time>2026-05-01T08:18:12.964Z</time></trkpt><trkpt lat="44.287945" lon="8.4444367"><ele>26.0</ele><time>2026-05-01T08:18:13.963Z</time></trkpt><trkpt lat="44.287885" lon="8.44456"><ele>26.0</ele><time>2026-05-01T08:18:14.964Z</time></trkpt><trkpt lat="44.2878267" lon="8.44467"><ele>26.0</ele><time>2026-05-01T08:18:15.963Z</time></trkpt><trkpt lat="44.2877717" lon="8.444755"><ele>26.0</ele><time>2026-05-01T08:18:16.963Z</time></trkpt><trkpt lat="44.28773" lon="8.4448217"><ele>25.6</ele><time>2026-05-01T08:18:17.963Z</time></trkpt><trkpt lat="44.287685" lon="8.4449533"><ele>25.200000000000003</ele><time>2026-05-01T08:18:19.963Z</time></trkpt><trkpt lat="44.2876933" lon="8.4451117"><ele>24.799999999999997</ele><time>2026-05-01T08:18:21.964Z</time></trkpt><trkpt lat="44.2876967" lon="8.445205"><ele>24.4</ele><time>2026-05-01T08:18:22.963Z</time></trkpt><trkpt lat="44.287705" lon="8.445335"><ele>24.0</ele><time>2026-05-01T08:18:23.963Z</time></trkpt><trkpt lat="44.2877133" lon="8.4454767"><ele>23.666666666666668</ele><time>2026-05-01T08:18:24.963Z</time></trkpt><trkpt lat="44.28771" lon="8.4456183"><ele>23.333333333333332</ele><time>2026-05-01T08:18:25.964Z</time></trkpt><trkpt lat="44.2876983" lon="8.4457667"><ele>23.0</ele><time>2026-05-01T08:18:26.963Z</time></trkpt><trkpt lat="44.287685" lon="8.4459017"><ele>22.666666666666664</ele><time>2026-05-01T08:18:27.963Z</time></trkpt><trkpt lat="44.2876867" lon="8.4460067"><ele>22.333333333333332</ele><time>2026-05-01T08:18:28.964Z</time></trkpt><trkpt lat="44.28771" lon="8.4460917"><ele>22.0</ele><time>2026-05-01T08:18:29.963Z</time></trkpt><trkpt lat="44.2878167" lon="8.4461617"><ele>22.0</ele><time>2026-05-01T08:18:31.963Z</time></trkpt><trkpt lat="44.2878883" lon="8.44615"><ele>22.0</ele><time>2026-05-01T08:18:32.963Z</time></trkpt><trkpt lat="44.2879683" lon="8.4460767"><ele>22.0</ele><time>2026-05-01T08:18:33.963Z</time></trkpt><trkpt lat="44.2880633" lon="8.4459817"><ele>22.0</ele><time>2026-05-01T08:18:34.964Z</time></trkpt><trkpt lat="44.2881583" lon="8.445905"><ele>22.0</ele><time>2026-05-01T08:18:35.964Z</time></trkpt><trkpt lat="44.288255" lon="8.4458717"><ele>24.200000000000003</ele><time>2026-05-01T08:18:36.963Z</time></trkpt><trkpt lat="44.2883517" lon="8.4458533"><ele>26.4</ele><time>2026-05-01T08:18:37.963Z</time></trkpt><trkpt lat="44.288455" lon="8.44585"><ele>28.599999999999998</ele><time>2026-05-01T08:18:38.963Z</time></trkpt><trkpt lat="44.2885533" lon="8.4458433"><ele>30.799999999999997</ele><time>2026-05-01T08:18:39.964Z</time></trkpt><trkpt lat="44.28865" lon="8.4458"><ele>33.0</ele><time>2026-05-01T08:18:40.964Z</time></trkpt><trkpt lat="44.2887583" lon="8.4457483"><ele>33.0</ele><time>2026-05-01T08:18:41.963Z</time></trkpt><trkpt lat="44.2888383" lon="8.4456533"><ele>33.0</ele><time>2026-05-01T08:18:42.963Z</time></trkpt><trkpt lat="44.28891" lon="8.44555"><ele>33.0</ele><time>2026-05-01T08:18:43.964Z</time></trkpt><trkpt lat="44.28898" lon="8.445455"><ele>33.0</ele><time>2026-05-01T08:18:44.963Z</time></trkpt><trkpt lat="44.2890567" lon="8.4453683"><ele>33.0</ele><time>2026-05-01T08:18:45.963Z</time></trkpt><trkpt lat="44.2891333" lon="8.4452783"><ele>34.8</ele><time>2026-05-01T08:18:46.963Z</time></trkpt><trkpt lat="44.2892067" lon="8.4451867"><ele>36.599999999999994</ele><time>2026-05-01T08:18:47.963Z</time></trkpt><trkpt lat="44.2892729" lon="8.4450872"><ele>38.400000000000006</ele><time>2026-05-01T08:18:48.963Z</time></trkpt><trkpt lat="44.2893309" lon="8.4449805"><ele>40.2</ele><time>2026-05-01T08:18:49.963Z</time></trkpt><trkpt lat="44.2893895" lon="8.4448774"><ele>42.0</ele><time>2026-05-01T08:18:50.964Z</time></trkpt><trkpt lat="44.2894474" lon="8.4447953"><ele>42.0</ele><time>2026-05-01T08:18:51.964Z</time></trkpt><trkpt lat="44.2895084" lon="8.444739"><ele>42.0</ele><time>2026-05-01T08:18:52.963Z</time></trkpt><trkpt lat="44.2895728" lon="8.4447188"><ele>42.0</ele><time>2026-05-01T08:18:53.964Z</time></trkpt><trkpt lat="44.2896484" lon="8.4447489"><ele>42.0</ele><time>2026-05-01T08:18:54.964Z</time></trkpt><trkpt lat="44.2897341" lon="8.4448154"><ele>42.0</ele><time>2026-05-01T08:18:55.963Z</time></trkpt><trkpt lat="44.289831" lon="8.4449268"><ele>42.0</ele><time>2026-05-01T08:18:56.963Z</time></trkpt><trkpt lat="44.2899352" lon="8.4450438"><ele>42.0</ele><time>2026-05-01T08:18:57.963Z</time></trkpt><trkpt lat="44.2900373" lon="8.4451602"><ele>42.0</ele><time>2026-05-01T08:18:58.963Z</time></trkpt><trkpt lat="44.2901413" lon="8.4452752"><ele>42.0</ele><time>2026-05-01T08:18:59.963Z</time></trkpt><trkpt lat="44.2902431" lon="8.4453922"><ele>42.0</ele><time>2026-05-01T08:19:00.964Z</time></trkpt><trkpt lat="44.2903471" lon="8.4455018"><ele>41.75</ele><time>2026-05-01T08:19:01.964Z</time></trkpt><trkpt lat="44.2904554" lon="8.4456166"><ele>41.5</ele><time>2026-05-01T08:19:02.963Z</time></trkpt><trkpt lat="44.2905584" lon="8.4457101"><ele>41.25</ele><time>2026-05-01T08:19:03.963Z</time></trkpt><trkpt lat="44.2906622" lon="8.4458095"><ele>41.0</ele><time>2026-05-01T08:19:04.963Z</time></trkpt><trkpt lat="44.2907632" lon="8.4459083"><ele>40.666666666666664</ele><time>2026-05-01T08:19:05.964Z</time></trkpt><trkpt lat="44.2908533" lon="8.4459946"><ele>40.33333333333333</ele><time>2026-05-01T08:19:06.964Z</time></trkpt><trkpt lat="44.2909342" lon="8.4460704"><ele>40.0</ele><time>2026-05-01T08:19:07.963Z</time></trkpt><trkpt lat="44.2910068" lon="8.4461388"><ele>39.666666666666664</ele><time>2026-05-01T08:19:08.963Z</time></trkpt><trkpt lat="44.2910741" lon="8.4462023"><ele>39.333333333333336</ele><time>2026-05-01T08:19:09.963Z</time></trkpt><trkpt lat="44.2911335" lon="8.4462634"><ele>39.0</ele><time>2026-05-01T08:19:10.963Z</time></trkpt><trkpt lat="44.291198" lon="8.4463828"><ele>38.6</ele><time>2026-05-01T08:19:12.963Z</time></trkpt><trkpt lat="44.2911506" lon="8.4465401"><ele>38.2</ele><time>2026-05-01T08:19:14.964Z</time></trkpt><trkpt lat="44.2910945" lon="8.4466467"><ele>37.800000000000004</ele><time>2026-05-01T08:19:15.964Z</time></trkpt><trkpt lat="44.2910552" lon="8.4467716"><ele>37.4</ele><time>2026-05-01T08:19:16.963Z</time></trkpt><trkpt lat="44.2910362" lon="8.4468884"><ele>37.0</ele><time>2026-05-01T08:19:17.963Z</time></trkpt><trkpt lat="44.2910327" lon="8.4470227"><ele>36.4</ele><time>2026-05-01T08:19:18.963Z</time></trkpt><trkpt lat="44.2910465" lon="8.447158"><ele>35.800000000000004</ele><time>2026-05-01T08:19:19.963Z</time></trkpt><trkpt lat="44.291069" lon="8.447286"><ele>35.2</ele><time>2026-05-01T08:19:20.963Z</time></trkpt><trkpt lat="44.2910944" lon="8.4474107"><ele>34.6</ele><time>2026-05-01T08:19:21.963Z</time></trkpt><trkpt lat="44.2911137" lon="8.447533"><ele>34.0</ele><time>2026-05-01T08:19:22.963Z</time></trkpt><trkpt lat="44.2911315" lon="8.4476485"><ele>34.0</ele><time>2026-05-01T08:19:23.964Z</time></trkpt><trkpt lat="44.2911454" lon="8.4477623"><ele>34.0</ele><time>2026-05-01T08:19:24.963Z</time></trkpt><trkpt lat="44.2911529" lon="8.4478689"><ele>34.0</ele><time>2026-05-01T08:19:25.963Z</time></trkpt><trkpt lat="44.2911506" lon="8.4479681"><ele>34.0</ele><time>2026-05-01T08:19:26.963Z</time></trkpt><trkpt lat="44.2911387" lon="8.4480602"><ele>34.0</ele><time>2026-05-01T08:19:27.963Z</time></trkpt><trkpt lat="44.291117" lon="8.4481532"><ele>34.0</ele><time>2026-05-01T08:19:28.963Z</time></trkpt><trkpt lat="44.2910648" lon="8.4483033"><ele>34.0</ele><time>2026-05-01T08:19:30.963Z</time></trkpt><trkpt lat="44.2910098" lon="8.4484683"><ele>34.0</ele><time>2026-05-01T08:19:32.964Z</time></trkpt><trkpt lat="44.290977" lon="8.4485577"><ele>34.0</ele><time>2026-05-01T08:19:33.964Z</time></trkpt><trkpt lat="44.290946" lon="8.4486433"><ele>34.0</ele><time>2026-05-01T08:19:34.963Z</time></trkpt><trkpt lat="44.2909194" lon="8.4487308"><ele>34.0</ele><time>2026-05-01T08:19:35.963Z</time></trkpt><trkpt lat="44.2908905" lon="8.4488317"><ele>34.0</ele><time>2026-05-01T08:19:36.963Z</time></trkpt><trkpt lat="44.2908576" lon="8.448927"><ele>33.99999999999999</ele><time>2026-05-01T08:19:37.963Z</time></trkpt><trkpt lat="44.2908331" lon="8.4490364"><ele>34.0</ele><time>2026-05-01T08:19:38.963Z</time></trkpt><trkpt lat="44.2908132" lon="8.4491301"><ele>34.0</ele><time>2026-05-01T08:19:39.963Z</time></trkpt><trkpt lat="44.290798" lon="8.4492222"><ele>34.0</ele><time>2026-05-01T08:19:40.963Z</time></trkpt><trkpt lat="44.2907843" lon="8.4493146"><ele>34.0</ele><time>2026-05-01T08:19:41.964Z</time></trkpt><trkpt lat="44.2907738" lon="8.4494134"><ele>33.99999999999999</ele><time>2026-05-01T08:19:42.964Z</time></trkpt><trkpt lat="44.2907754" lon="8.4495118"><ele>34.0</ele><time>2026-05-01T08:19:43.963Z</time></trkpt><trkpt lat="44.2908034" lon="8.4496021"><ele>32.16666666666667</ele><time>2026-05-01T08:19:44.963Z</time></trkpt><trkpt lat="44.2908499" lon="8.4496845"><ele>30.333333333333336</ele><time>2026-05-01T08:19:45.964Z</time></trkpt><trkpt lat="44.2909134" lon="8.4497591"><ele>28.5</ele><time>2026-05-01T08:19:46.964Z</time></trkpt><trkpt lat="44.2909901" lon="8.4498165"><ele>26.666666666666668</ele><time>2026-05-01T08:19:47.963Z</time></trkpt><trkpt lat="44.291073" lon="8.4498552"><ele>24.833333333333336</ele><time>2026-05-01T08:19:48.963Z</time></trkpt><trkpt lat="44.2911525" lon="8.4498853"><ele>23.0</ele><time>2026-05-01T08:19:49.964Z</time></trkpt><trkpt lat="44.2912277" lon="8.4499092"><ele>23.0</ele><time>2026-05-01T08:19:50.964Z</time></trkpt><trkpt lat="44.2912961" lon="8.4499267"><ele>23.0</ele><time>2026-05-01T08:19:51.963Z</time></trkpt><trkpt lat="44.2913889" lon="8.4499754"><ele>23.0</ele><time>2026-05-01T08:19:53.964Z</time></trkpt><trkpt lat="44.2914731" lon="8.4500862"><ele>23.0</ele><time>2026-05-01T08:19:55.964Z</time></trkpt><trkpt lat="44.2914819" lon="8.4502539"><ele>23.0</ele><time>2026-05-01T08:19:57.963Z</time></trkpt><trkpt lat="44.2914144" lon="8.4503848"><ele>23.0</ele><time>2026-05-01T08:19:59.963Z</time></trkpt><trkpt lat="44.2913502" lon="8.4504127"><ele>23.0</ele><time>2026-05-01T08:20:00.964Z</time></trkpt><trkpt lat="44.2912759" lon="8.4504154"><ele>23.0</ele><time>2026-05-01T08:20:01.963Z</time></trkpt><trkpt lat="44.291189" lon="8.4503869"><ele>23.0</ele><time>2026-05-01T08:20:02.963Z</time></trkpt><trkpt lat="44.2910983" lon="8.450366"><ele>23.0</ele><time>2026-05-01T08:20:03.963Z</time></trkpt><trkpt lat="44.2910032" lon="8.4503459"><ele>23.0</ele><time>2026-05-01T08:20:04.964Z</time></trkpt><trkpt lat="44.2909022" lon="8.4503125"><ele>23.0</ele><time>2026-05-01T08:20:05.963Z</time></trkpt><trkpt lat="44.2907935" lon="8.4502625"><ele>23.0</ele><time>2026-05-01T08:20:06.963Z</time></trkpt><trkpt lat="44.2906845" lon="8.450202"><ele>23.0</ele><time>2026-05-01T08:20:07.963Z</time></trkpt><trkpt lat="44.2905723" lon="8.4501343"><ele>23.0</ele><time>2026-05-01T08:20:08.963Z</time></trkpt><trkpt lat="44.2904616" lon="8.4500642"><ele>20.799999999999997</ele><time>2026-05-01T08:20:09.963Z</time></trkpt><trkpt lat="44.2903602" lon="8.4499929"><ele>18.599999999999998</ele><time>2026-05-01T08:20:10.964Z</time></trkpt><trkpt lat="44.2902616" lon="8.4499282"><ele>16.4</ele><time>2026-05-01T08:20:11.964Z</time></trkpt><trkpt lat="44.2901718" lon="8.4498625"><ele>14.2</ele><time>2026-05-01T08:20:12.963Z</time></trkpt><trkpt lat="44.2900871" lon="8.4497966"><ele>12.0</ele><time>2026-05-01T08:20:13.963Z</time></trkpt><trkpt lat="44.2900183" lon="8.4497281"><ele>12.0</ele><time>2026-05-01T08:20:14.963Z</time></trkpt><trkpt lat="44.2899548" lon="8.4496598"><ele>12.0</ele><time>2026-05-01T08:20:15.963Z</time></trkpt><trkpt lat="44.2898947" lon="8.4495969"><ele>12.0</ele><time>2026-05-01T08:20:16.964Z</time></trkpt><trkpt lat="44.2898037" lon="8.4494868"><ele>12.0</ele><time>2026-05-01T08:20:18.964Z</time></trkpt><trkpt lat="44.289732" lon="8.4493708"><ele>12.0</ele><time>2026-05-01T08:20:20.964Z</time></trkpt><trkpt lat="44.2896963" lon="8.4492606"><ele>12.166666666666666</ele><time>2026-05-01T08:20:22.963Z</time></trkpt><trkpt lat="44.2896242" lon="8.449218"><ele>12.333333333333332</ele><time>2026-05-01T08:25:06.962Z</time></trkpt><trkpt lat="44.2895848" lon="8.44914"><ele>12.5</ele><time>2026-05-01T08:25:09.963Z</time></trkpt><trkpt lat="44.2895367" lon="8.4490533"><ele>12.666666666666666</ele><time>2026-05-01T08:25:37.961Z</time></trkpt><trkpt lat="44.2894817" lon="8.4490083"><ele>12.833333333333332</ele><time>2026-05-01T08:26:25.962Z</time></trkpt><trkpt lat="44.2894083" lon="8.4490317"><ele>13.0</ele><time>2026-05-01T08:26:40.961Z</time></trkpt><trkpt lat="44.289315" lon="8.4490033"><ele>13.0</ele><time>2026-05-01T08:26:46.962Z</time></trkpt><trkpt lat="44.289225" lon="8.4488967"><ele>13.0</ele><time>2026-05-01T08:26:48.962Z</time></trkpt><trkpt lat="44.2891667" lon="8.448815"><ele>13.0</ele><time>2026-05-01T08:26:49.961Z</time></trkpt><trkpt lat="44.2890983" lon="8.44874"><ele>13.0</ele><time>2026-05-01T08:26:50.962Z</time></trkpt><trkpt lat="44.28902" lon="8.4486517"><ele>13.0</ele><time>2026-05-01T08:26:51.961Z</time></trkpt><trkpt lat="44.2889417" lon="8.4485583"><ele>13.5</ele><time>2026-05-01T08:26:52.961Z</time></trkpt><trkpt lat="44.288865" lon="8.4484383"><ele>14.0</ele><time>2026-05-01T08:26:53.962Z</time></trkpt><trkpt lat="44.28878" lon="8.448325"><ele>14.5</ele><time>2026-05-01T08:26:54.961Z</time></trkpt><trkpt lat="44.2886917" lon="8.4482133"><ele>15.0</ele><time>2026-05-01T08:26:55.962Z</time></trkpt><trkpt lat="44.2886033" lon="8.4481"><ele>15.0</ele><time>2026-05-01T08:26:56.961Z</time></trkpt><trkpt lat="44.2885133" lon="8.44798"><ele>15.0</ele><time>2026-05-01T08:26:57.962Z</time></trkpt><trkpt lat="44.288425" lon="8.4478533"><ele>15.0</ele><time>2026-05-01T08:26:58.961Z</time></trkpt><trkpt lat="44.288345" lon="8.44773"><ele>15.0</ele><time>2026-05-01T08:26:59.961Z</time></trkpt><trkpt lat="44.288275" lon="8.44762"><ele>14.6</ele><time>2026-05-01T08:27:00.961Z</time></trkpt><trkpt lat="44.2882117" lon="8.44752"><ele>14.2</ele><time>2026-05-01T08:27:01.961Z</time></trkpt><trkpt lat="44.2881483" lon="8.4474233"><ele>13.8</ele><time>2026-05-01T08:27:02.961Z</time></trkpt><trkpt lat="44.2880833" lon="8.447315"><ele>13.4</ele><time>2026-05-01T08:27:03.962Z</time></trkpt><trkpt lat="44.2880183" lon="8.4472033"><ele>13.0</ele><time>2026-05-01T08:27:04.962Z</time></trkpt><trkpt lat="44.287945" lon="8.4470867"><ele>14.0</ele><time>2026-05-01T08:27:05.962Z</time></trkpt><trkpt lat="44.287875" lon="8.44696"><ele>15.0</ele><time>2026-05-01T08:27:06.961Z</time></trkpt><trkpt lat="44.287815" lon="8.44683"><ele>16.0</ele><time>2026-05-01T08:27:07.961Z</time></trkpt><trkpt lat="44.2877583" lon="8.4467017"><ele>17.0</ele><time>2026-05-01T08:27:08.962Z</time></trkpt><trkpt lat="44.2877167" lon="8.4465817"><ele>18.0</ele><time>2026-05-01T08:27:09.962Z</time></trkpt><trkpt lat="44.2876767" lon="8.4464667"><ele>18.0</ele><time>2026-05-01T08:27:10.961Z</time></trkpt><trkpt lat="44.2876417" lon="8.4463517"><ele>18.0</ele><time>2026-05-01T08:27:11.962Z</time></trkpt><trkpt lat="44.287605" lon="8.446235"><ele>18.0</ele><time>2026-05-01T08:27:12.961Z</time></trkpt><trkpt lat="44.2875717" lon="8.4461333"><ele>18.0</ele><time>2026-05-01T08:27:13.961Z</time></trkpt><trkpt lat="44.2875383" lon="8.4460483"><ele>18.0</ele><time>2026-05-01T08:27:14.961Z</time></trkpt><trkpt lat="44.2874933" lon="8.4459467"><ele>18.0</ele><time>2026-05-01T08:27:16.962Z</time></trkpt><trkpt lat="44.28746" lon="8.445865"><ele>18.166666666666668</ele><time>2026-05-01T08:27:18.962Z</time></trkpt><trkpt lat="44.2874133" lon="8.4457833"><ele>18.333333333333332</ele><time>2026-05-01T08:27:21.961Z</time></trkpt><trkpt lat="44.2873717" lon="8.4456567"><ele>18.5</ele><time>2026-05-01T08:27:24.962Z</time></trkpt><trkpt lat="44.2873117" lon="8.44551"><ele>18.666666666666664</ele><time>2026-05-01T08:27:26.961Z</time></trkpt><trkpt lat="44.2872717" lon="8.44544"><ele>18.833333333333332</ele><time>2026-05-01T08:27:27.962Z</time></trkpt><trkpt lat="44.2871833" lon="8.4454317"><ele>19.0</ele><time>2026-05-01T08:27:29.961Z</time></trkpt><trkpt lat="44.2871183" lon="8.4455383"><ele>19.0</ele><time>2026-05-01T08:27:31.961Z</time></trkpt><trkpt lat="44.2871483" lon="8.4456983"><ele>19.0</ele><time>2026-05-01T08:27:33.961Z</time></trkpt><trkpt lat="44.2872017" lon="8.4458017"><ele>19.0</ele><time>2026-05-01T08:27:34.961Z</time></trkpt><trkpt lat="44.2872633" lon="8.4459217"><ele>19.0</ele><time>2026-05-01T08:27:35.961Z</time></trkpt><trkpt lat="44.28734" lon="8.4460617"><ele>19.0</ele><time>2026-05-01T08:27:36.962Z</time></trkpt><trkpt lat="44.2874233" lon="8.446205"><ele>18.75</ele><time>2026-05-01T08:27:37.961Z</time></trkpt><trkpt lat="44.2875033" lon="8.44635"><ele>18.5</ele><time>2026-05-01T08:27:38.961Z</time></trkpt><trkpt lat="44.2875733" lon="8.4464967"><ele>18.25</ele><time>2026-05-01T08:27:39.961Z</time></trkpt><trkpt lat="44.2876483" lon="8.4466517"><ele>18.0</ele><time>2026-05-01T08:27:40.961Z</time></trkpt><trkpt lat="44.2877317" lon="8.4468067"><ele>18.0</ele><time>2026-05-01T08:27:41.962Z</time></trkpt><trkpt lat="44.287815" lon="8.446955"><ele>18.0</ele><time>2026-05-01T08:27:42.961Z</time></trkpt><trkpt lat="44.2879017" lon="8.447105"><ele>18.0</ele><time>2026-05-01T08:27:43.962Z</time></trkpt><trkpt lat="44.2879883" lon="8.44725"><ele>18.0</ele><time>2026-05-01T08:27:44.962Z</time></trkpt><trkpt lat="44.2880717" lon="8.4473883"><ele>17.25</ele><time>2026-05-01T08:27:45.961Z</time></trkpt><trkpt lat="44.2881583" lon="8.4475433"><ele>16.5</ele><time>2026-05-01T08:27:46.961Z</time></trkpt><trkpt lat="44.2882467" lon="8.4477"><ele>15.75</ele><time>2026-05-01T08:27:47.961Z</time></trkpt><trkpt lat="44.288335" lon="8.4478483"><ele>15.0</ele><time>2026-05-01T08:27:48.961Z</time></trkpt><trkpt lat="44.2884317" lon="8.447985"><ele>15.0</ele><time>2026-05-01T08:27:49.962Z</time></trkpt><trkpt lat="44.2885267" lon="8.4481283"><ele>15.0</ele><time>2026-05-01T08:27:50.962Z</time></trkpt><trkpt lat="44.2886083" lon="8.4482733"><ele>15.0</ele><time>2026-05-01T08:27:51.961Z</time></trkpt><trkpt lat="44.2887005" lon="8.4484053"><ele>15.0</ele><time>2026-05-01T08:27:52.961Z</time></trkpt><trkpt lat="44.2887929" lon="8.4485442"><ele>15.0</ele><time>2026-05-01T08:27:53.961Z</time></trkpt><trkpt lat="44.2888842" lon="8.4486809"><ele>15.0</ele><time>2026-05-01T08:27:54.961Z</time></trkpt><trkpt lat="44.2889769" lon="8.4488163"><ele>15.0</ele><time>2026-05-01T08:27:55.961Z</time></trkpt><trkpt lat="44.2890747" lon="8.4489448"><ele>15.0</ele><time>2026-05-01T08:27:56.961Z</time></trkpt><trkpt lat="44.2891796" lon="8.4490658"><ele>14.5</ele><time>2026-05-01T08:27:57.961Z</time></trkpt><trkpt lat="44.2892878" lon="8.4491831"><ele>14.0</ele><time>2026-05-01T08:27:58.961Z</time></trkpt><trkpt lat="44.2893974" lon="8.4492994"><ele>13.5</ele><time>2026-05-01T08:27:59.962Z</time></trkpt><trkpt lat="44.2895119" lon="8.4494088"><ele>13.0</ele><time>2026-05-01T08:28:00.961Z</time></trkpt><trkpt lat="44.2896235" lon="8.4495152"><ele>12.75</ele><time>2026-05-01T08:28:01.962Z</time></trkpt><trkpt lat="44.2897349" lon="8.4496256"><ele>12.5</ele><time>2026-05-01T08:28:02.961Z</time></trkpt><trkpt lat="44.2898497" lon="8.449724"><ele>12.25</ele><time>2026-05-01T08:28:03.961Z</time></trkpt><trkpt lat="44.289964" lon="8.449815"><ele>12.0</ele><time>2026-05-01T08:28:04.962Z</time></trkpt><trkpt lat="44.2900752" lon="8.4498934"><ele>12.0</ele><time>2026-05-01T08:28:05.961Z</time></trkpt><trkpt lat="44.2901803" lon="8.4499704"><ele>12.0</ele><time>2026-05-01T08:28:06.962Z</time></trkpt><trkpt lat="44.2902859" lon="8.4500511"><ele>12.0</ele><time>2026-05-01T08:28:07.962Z</time></trkpt><trkpt lat="44.2903949" lon="8.4501406"><ele>12.0</ele><time>2026-05-01T08:28:08.962Z</time></trkpt><trkpt lat="44.2905083" lon="8.450223"><ele>12.25</ele><time>2026-05-01T08:28:09.962Z</time></trkpt><trkpt lat="44.2906239" lon="8.4502979"><ele>12.5</ele><time>2026-05-01T08:28:10.961Z</time></trkpt><trkpt lat="44.2907446" lon="8.4503656"><ele>12.75</ele><time>2026-05-01T08:28:11.961Z</time></trkpt><trkpt lat="44.2908722" lon="8.450426"><ele>13.0</ele><time>2026-05-01T08:28:12.961Z</time></trkpt><trkpt lat="44.2910107" lon="8.4504641"><ele>13.0</ele><time>2026-05-01T08:28:13.962Z</time></trkpt><trkpt lat="44.2911497" lon="8.4504856"><ele>13.0</ele><time>2026-05-01T08:28:14.961Z</time></trkpt><trkpt lat="44.2912818" lon="8.4504982"><ele>13.0</ele><time>2026-05-01T08:28:15.961Z</time></trkpt><trkpt lat="44.2914171" lon="8.4505075"><ele>13.0</ele><time>2026-05-01T08:28:16.962Z</time></trkpt><trkpt lat="44.2915482" lon="8.4505117"><ele>13.0</ele><time>2026-05-01T08:28:17.962Z</time></trkpt><trkpt lat="44.2916934" lon="8.4505293"><ele>13.0</ele><time>2026-05-01T08:28:18.962Z</time></trkpt><trkpt lat="44.2918234" lon="8.4505498"><ele>13.0</ele><time>2026-05-01T08:28:19.961Z</time></trkpt><trkpt lat="44.2919585" lon="8.4505678"><ele>13.0</ele><time>2026-05-01T08:28:20.961Z</time></trkpt><trkpt lat="44.2920939" lon="8.4505932"><ele>13.0</ele><time>2026-05-01T08:28:21.962Z</time></trkpt><trkpt lat="44.2922338" lon="8.4506293"><ele>13.0</ele><time>2026-05-01T08:28:22.962Z</time></trkpt><trkpt lat="44.2923778" lon="8.4506879"><ele>13.0</ele><time>2026-05-01T08:28:23.962Z</time></trkpt><trkpt lat="44.2925161" lon="8.450759"><ele>13.0</ele><time>2026-05-01T08:28:24.962Z</time></trkpt><trkpt lat="44.2926557" lon="8.4508406"><ele>12.5</ele><time>2026-05-01T08:28:25.961Z</time></trkpt><trkpt lat="44.2927883" lon="8.4509385"><ele>12.0</ele><time>2026-05-01T08:28:26.961Z</time></trkpt><trkpt lat="44.2929041" lon="8.4510499"><ele>11.5</ele><time>2026-05-01T08:28:27.961Z</time></trkpt><trkpt lat="44.2930184" lon="8.4511658"><ele>11.0</ele><time>2026-05-01T08:28:28.961Z</time></trkpt><trkpt lat="44.2931214" lon="8.4512915"><ele>10.5</ele><time>2026-05-01T08:28:29.961Z</time></trkpt><trkpt lat="44.2932229" lon="8.4514223"><ele>10.0</ele><time>2026-05-01T08:28:30.961Z</time></trkpt><trkpt lat="44.2933089" lon="8.4515529"><ele>9.5</ele><time>2026-05-01T08:28:31.962Z</time></trkpt><trkpt lat="44.2933861" lon="8.4516903"><ele>9.0</ele><time>2026-05-01T08:28:32.961Z</time></trkpt><trkpt lat="44.2934601" lon="8.4518184"><ele>9.0</ele><time>2026-05-01T08:28:33.961Z</time></trkpt><trkpt lat="44.2935225" lon="8.4519389"><ele>9.0</ele><time>2026-05-01T08:28:34.962Z</time></trkpt><trkpt lat="44.2935846" lon="8.452048"><ele>9.0</ele><time>2026-05-01T08:28:35.961Z</time></trkpt><trkpt lat="44.2936415" lon="8.4521468"><ele>9.0</ele><time>2026-05-01T08:28:36.961Z</time></trkpt><trkpt lat="44.2936857" lon="8.4522406"><ele>9.0</ele><time>2026-05-01T08:28:37.961Z</time></trkpt><trkpt lat="44.2937151" lon="8.4523379"><ele>9.0</ele><time>2026-05-01T08:28:38.961Z</time></trkpt><trkpt lat="44.2937053" lon="8.4524386"><ele>9.0</ele><time>2026-05-01T08:28:39.961Z</time></trkpt><trkpt lat="44.2936696" lon="8.4525276"><ele>9.0</ele><time>2026-05-01T08:28:40.962Z</time></trkpt><trkpt lat="44.2936246" lon="8.4526192"><ele>9.0</ele><time>2026-05-01T08:28:41.962Z</time></trkpt><trkpt lat="44.2935703" lon="8.4527066"><ele>9.0</ele><time>2026-05-01T08:28:42.96Z</time></trkpt><trkpt lat="44.2935081" lon="8.4527916"><ele>9.0</ele><time>2026-05-01T08:28:43.961Z</time></trkpt><trkpt lat="44.2934632" lon="8.4528796"><ele>8.666666666666666</ele><time>2026-05-01T08:28:44.96Z</time></trkpt><trkpt lat="44.293449" lon="8.4529804"><ele>8.333333333333334</ele><time>2026-05-01T08:28:45.961Z</time></trkpt><trkpt lat="44.2934727" lon="8.4530798"><ele>8.0</ele><time>2026-05-01T08:28:46.96Z</time></trkpt><trkpt lat="44.2935309" lon="8.4531713"><ele>7.666666666666667</ele><time>2026-05-01T08:28:47.96Z</time></trkpt><trkpt lat="44.2936111" lon="8.4532614"><ele>7.333333333333334</ele><time>2026-05-01T08:28:48.96Z</time></trkpt><trkpt lat="44.2937007" lon="8.4533459"><ele>7.0</ele><time>2026-05-01T08:28:49.96Z</time></trkpt><trkpt lat="44.2937902" lon="8.4534325"><ele>7.0</ele><time>2026-05-01T08:28:50.961Z</time></trkpt><trkpt lat="44.2938719" lon="8.453522"><ele>6.999999999999999</ele><time>2026-05-01T08:28:51.96Z</time></trkpt><trkpt lat="44.2939518" lon="8.4536192"><ele>6.999999999999999</ele><time>2026-05-01T08:28:52.96Z</time></trkpt><trkpt lat="44.2940294" lon="8.4537311"><ele>7.0</ele><time>2026-05-01T08:28:53.96Z</time></trkpt><trkpt lat="44.294104" lon="8.453841"><ele>7.0</ele><time>2026-05-01T08:28:54.96Z</time></trkpt><trkpt lat="44.294177" lon="8.4539332"><ele>7.6</ele><time>2026-05-01T08:28:55.96Z</time></trkpt><trkpt lat="44.2942505" lon="8.4540172"><ele>8.2</ele><time>2026-05-01T08:28:56.96Z</time></trkpt><trkpt lat="44.2943244" lon="8.4541083"><ele>8.8</ele><time>2026-05-01T08:28:57.96Z</time></trkpt><trkpt lat="44.2943993" lon="8.4542019"><ele>9.4</ele><time>2026-05-01T08:28:58.96Z</time></trkpt><trkpt lat="44.2944686" lon="8.4542958"><ele>10.0</ele><time>2026-05-01T08:28:59.96Z</time></trkpt><trkpt lat="44.2945301" lon="8.454394"><ele>10.0</ele><time>2026-05-01T08:29:00.961Z</time></trkpt><trkpt lat="44.2945863" lon="8.4544887"><ele>10.0</ele><time>2026-05-01T08:29:01.96Z</time></trkpt><trkpt lat="44.2946315" lon="8.454582"><ele>10.0</ele><time>2026-05-01T08:29:02.96Z</time></trkpt><trkpt lat="44.2946761" lon="8.4546849"><ele>10.0</ele><time>2026-05-01T08:29:03.96Z</time></trkpt><trkpt lat="44.2947316" lon="8.4547814"><ele>10.0</ele><time>2026-05-01T08:29:04.961Z</time></trkpt><trkpt lat="44.2947977" lon="8.454878"><ele>10.0</ele><time>2026-05-01T08:29:05.96Z</time></trkpt><trkpt lat="44.2948625" lon="8.4549767"><ele>9.8</ele><time>2026-05-01T08:29:06.96Z</time></trkpt><trkpt lat="44.2949254" lon="8.4550709"><ele>9.6</ele><time>2026-05-01T08:29:07.96Z</time></trkpt><trkpt lat="44.2949878" lon="8.4551642"><ele>9.4</ele><time>2026-05-01T08:29:08.96Z</time></trkpt><trkpt lat="44.2950513" lon="8.4552595"><ele>9.2</ele><time>2026-05-01T08:29:09.96Z</time></trkpt><trkpt lat="44.2951212" lon="8.4553517"><ele>9.0</ele><time>2026-05-01T08:29:10.96Z</time></trkpt><trkpt lat="44.2951896" lon="8.4554239"><ele>8.8</ele><time>2026-05-01T08:29:11.96Z</time></trkpt><trkpt lat="44.2952633" lon="8.4554874"><ele>8.600000000000001</ele><time>2026-05-01T08:29:12.961Z</time></trkpt><trkpt lat="44.2953367" lon="8.4555656"><ele>8.4</ele><time>2026-05-01T08:29:13.961Z</time></trkpt><trkpt lat="44.2953993" lon="8.4556562"><ele>8.200000000000001</ele><time>2026-05-01T08:29:14.96Z</time></trkpt><trkpt lat="44.2954581" lon="8.4557528"><ele>8.0</ele><time>2026-05-01T08:29:15.961Z</time></trkpt><trkpt lat="44.2955273" lon="8.455852"><ele>8.0</ele><time>2026-05-01T08:29:16.961Z</time></trkpt><trkpt lat="44.2955975" lon="8.4559575"><ele>8.0</ele><time>2026-05-01T08:29:17.96Z</time></trkpt><trkpt lat="44.2956634" lon="8.4560814"><ele>8.0</ele><time>2026-05-01T08:29:18.96Z</time></trkpt><trkpt lat="44.29573" lon="8.4562098"><ele>8.0</ele><time>2026-05-01T08:29:19.96Z</time></trkpt><trkpt lat="44.2957981" lon="8.4563371"><ele>8.0</ele><time>2026-05-01T08:29:20.961Z</time></trkpt><trkpt lat="44.2958721" lon="8.4564647"><ele>8.0</ele><time>2026-05-01T08:29:21.96Z</time></trkpt><trkpt lat="44.2959391" lon="8.4565836"><ele>8.0</ele><time>2026-05-01T08:29:22.961Z</time></trkpt><trkpt lat="44.2959991" lon="8.4566986"><ele>8.0</ele><time>2026-05-01T08:29:23.961Z</time></trkpt><trkpt lat="44.2960607" lon="8.4568075"><ele>8.0</ele><time>2026-05-01T08:29:24.96Z</time></trkpt><trkpt lat="44.2961236" lon="8.4569116"><ele>8.0</ele><time>2026-05-01T08:29:25.961Z</time></trkpt><trkpt lat="44.29619" lon="8.4570194"><ele>8.0</ele><time>2026-05-01T08:29:26.96Z</time></trkpt><trkpt lat="44.2962622" lon="8.457131"><ele>8.0</ele><time>2026-05-01T08:29:27.961Z</time></trkpt><trkpt lat="44.2963322" lon="8.45725"><ele>8.0</ele><time>2026-05-01T08:29:28.961Z</time></trkpt><trkpt lat="44.2964013" lon="8.4573697"><ele>8.0</ele><time>2026-05-01T08:29:29.96Z</time></trkpt><trkpt lat="44.2964751" lon="8.4574959"><ele>8.0</ele><time>2026-05-01T08:29:30.961Z</time></trkpt><trkpt lat="44.2965625" lon="8.4576226"><ele>8.0</ele><time>2026-05-01T08:29:31.96Z</time></trkpt><trkpt lat="44.296645" lon="8.4577482"><ele>8.0</ele><time>2026-05-01T08:29:32.96Z</time></trkpt><trkpt lat="44.2967262" lon="8.4578756"><ele>8.0</ele><time>2026-05-01T08:29:33.961Z</time></trkpt><trkpt lat="44.2968133" lon="8.4580051"><ele>8.0</ele><time>2026-05-01T08:29:34.96Z</time></trkpt><trkpt lat="44.2968896" lon="8.4581466"><ele>8.5</ele><time>2026-05-01T08:29:35.96Z</time></trkpt><trkpt lat="44.2969663" lon="8.4582928"><ele>9.0</ele><time>2026-05-01T08:29:36.961Z</time></trkpt><trkpt lat="44.2970421" lon="8.4584476"><ele>9.5</ele><time>2026-05-01T08:29:37.961Z</time></trkpt><trkpt lat="44.297119" lon="8.4586022"><ele>10.0</ele><time>2026-05-01T08:29:38.961Z</time></trkpt><trkpt lat="44.2972082" lon="8.4587518"><ele>9.75</ele><time>2026-05-01T08:29:39.961Z</time></trkpt><trkpt lat="44.2972934" lon="8.4589035"><ele>9.5</ele><time>2026-05-01T08:29:40.96Z</time></trkpt><trkpt lat="44.2973879" lon="8.459052"><ele>9.25</ele><time>2026-05-01T08:29:41.96Z</time></trkpt><trkpt lat="44.297473" lon="8.4592043"><ele>9.0</ele><time>2026-05-01T08:29:42.96Z</time></trkpt><trkpt lat="44.2975529" lon="8.4593576"><ele>9.0</ele><time>2026-05-01T08:29:43.96Z</time></trkpt><trkpt lat="44.2976335" lon="8.4595147"><ele>9.0</ele><time>2026-05-01T08:29:44.96Z</time></trkpt><trkpt lat="44.2977115" lon="8.4596778"><ele>9.0</ele><time>2026-05-01T08:29:45.961Z</time></trkpt><trkpt lat="44.2977843" lon="8.4598384"><ele>9.0</ele><time>2026-05-01T08:29:46.96Z</time></trkpt><trkpt lat="44.2978642" lon="8.4599955"><ele>9.0</ele><time>2026-05-01T08:29:47.961Z</time></trkpt><trkpt lat="44.2979416" lon="8.4601524"><ele>9.0</ele><time>2026-05-01T08:29:48.961Z</time></trkpt><trkpt lat="44.2980182" lon="8.4603129"><ele>9.0</ele><time>2026-05-01T08:29:49.96Z</time></trkpt><trkpt lat="44.2980967" lon="8.4604771"><ele>9.0</ele><time>2026-05-01T08:29:50.96Z</time></trkpt><trkpt lat="44.2981633" lon="8.4606389"><ele>9.0</ele><time>2026-05-01T08:29:51.961Z</time></trkpt><trkpt lat="44.2982215" lon="8.4608108"><ele>9.0</ele><time>2026-05-01T08:29:52.96Z</time></trkpt><trkpt lat="44.2982764" lon="8.4609778"><ele>9.0</ele><time>2026-05-01T08:29:53.96Z</time></trkpt><trkpt lat="44.2983322" lon="8.4611457"><ele>9.0</ele><time>2026-05-01T08:29:54.961Z</time></trkpt><trkpt lat="44.2983921" lon="8.4613082"><ele>9.0</ele><time>2026-05-01T08:29:55.961Z</time></trkpt><trkpt lat="44.2984461" lon="8.4614579"><ele>9.0</ele><time>2026-05-01T08:29:56.961Z</time></trkpt><trkpt lat="44.2984914" lon="8.4615987"><ele>9.0</ele><time>2026-05-01T08:29:57.961Z</time></trkpt><trkpt lat="44.298538" lon="8.4617379"><ele>9.0</ele><time>2026-05-01T08:29:58.96Z</time></trkpt><trkpt lat="44.2985813" lon="8.4618627"><ele>9.0</ele><time>2026-05-01T08:29:59.961Z</time></trkpt><trkpt lat="44.2986161" lon="8.4619788"><ele>9.0</ele><time>2026-05-01T08:30:00.96Z</time></trkpt><trkpt lat="44.2986473" lon="8.4620788"><ele>9.0</ele><time>2026-05-01T08:30:01.961Z</time></trkpt><trkpt lat="44.2986767" lon="8.462164"><ele>9.0</ele><time>2026-05-01T08:30:02.96Z</time></trkpt><trkpt lat="44.2987251" lon="8.4623137"><ele>9.0</ele><time>2026-05-01T08:30:04.96Z</time></trkpt><trkpt lat="44.2987717" lon="8.4624408"><ele>9.0</ele><time>2026-05-01T08:30:06.961Z</time></trkpt><trkpt lat="44.2988089" lon="8.4626036"><ele>9.0</ele><time>2026-05-01T08:30:08.96Z</time></trkpt><trkpt lat="44.2988658" lon="8.4627353"><ele>9.0</ele><time>2026-05-01T08:30:10.96Z</time></trkpt><trkpt lat="44.2989536" lon="8.4628416"><ele>9.0</ele><time>2026-05-01T08:30:12.961Z</time></trkpt><trkpt lat="44.2990319" lon="8.4629833"><ele>9.0</ele><time>2026-05-01T08:30:14.96Z</time></trkpt><trkpt lat="44.2990743" lon="8.4630753"><ele>9.0</ele><time>2026-05-01T08:30:15.961Z</time></trkpt><trkpt lat="44.2991122" lon="8.463174"><ele>8.833333333333334</ele><time>2026-05-01T08:30:16.96Z</time></trkpt><trkpt lat="44.2991459" lon="8.4632839"><ele>8.666666666666666</ele><time>2026-05-01T08:30:17.961Z</time></trkpt><trkpt lat="44.2991848" lon="8.4633875"><ele>8.5</ele><time>2026-05-01T08:30:18.96Z</time></trkpt><trkpt lat="44.2992281" lon="8.4634949"><ele>8.333333333333332</ele><time>2026-05-01T08:30:19.961Z</time></trkpt><trkpt lat="44.2992802" lon="8.4635949"><ele>8.166666666666666</ele><time>2026-05-01T08:30:20.96Z</time></trkpt><trkpt lat="44.2993424" lon="8.4637032"><ele>8.0</ele><time>2026-05-01T08:30:21.96Z</time></trkpt><trkpt lat="44.2994085" lon="8.4638103"><ele>8.0</ele><time>2026-05-01T08:30:22.96Z</time></trkpt><trkpt lat="44.2994827" lon="8.4639261"><ele>8.0</ele><time>2026-05-01T08:30:23.961Z</time></trkpt><trkpt lat="44.2995704" lon="8.4640381"><ele>8.0</ele><time>2026-05-01T08:30:24.961Z</time></trkpt><trkpt lat="44.299663" lon="8.4641526"><ele>8.0</ele><time>2026-05-01T08:30:25.96Z</time></trkpt><trkpt lat="44.2997602" lon="8.4642674"><ele>8.25</ele><time>2026-05-01T08:30:26.96Z</time></trkpt><trkpt lat="44.299866" lon="8.4643796"><ele>8.5</ele><time>2026-05-01T08:30:27.961Z</time></trkpt><trkpt lat="44.2999667" lon="8.464486"><ele>8.75</ele><time>2026-05-01T08:30:28.961Z</time></trkpt><trkpt lat="44.3000717" lon="8.4645901"><ele>9.0</ele><time>2026-05-01T08:30:29.961Z</time></trkpt><trkpt lat="44.3001838" lon="8.4646836"><ele>9.0</ele><time>2026-05-01T08:30:30.961Z</time></trkpt><trkpt lat="44.3002913" lon="8.4647726"><ele>9.0</ele><time>2026-05-01T08:30:31.96Z</time></trkpt><trkpt lat="44.3003957" lon="8.4648539"><ele>9.0</ele><time>2026-05-01T08:30:32.96Z</time></trkpt><trkpt lat="44.3005024" lon="8.464925"><ele>9.0</ele><time>2026-05-01T08:30:33.96Z</time></trkpt><trkpt lat="44.3006072" lon="8.4649839"><ele>11.4</ele><time>2026-05-01T08:30:34.961Z</time></trkpt><trkpt lat="44.3007076" lon="8.4650433"><ele>13.8</ele><time>2026-05-01T08:30:35.96Z</time></trkpt><trkpt lat="44.3008001" lon="8.4650971"><ele>16.200000000000003</ele><time>2026-05-01T08:30:36.96Z</time></trkpt><trkpt lat="44.3008844" lon="8.4651434"><ele>18.6</ele><time>2026-05-01T08:30:37.961Z</time></trkpt><trkpt lat="44.3009655" lon="8.4651771"><ele>21.0</ele><time>2026-05-01T08:30:38.96Z</time></trkpt><trkpt lat="44.3010438" lon="8.4652282"><ele>21.0</ele><time>2026-05-01T08:30:39.961Z</time></trkpt><trkpt lat="44.3011306" lon="8.4652819"><ele>21.0</ele><time>2026-05-01T08:30:40.961Z</time></trkpt><trkpt lat="44.301219" lon="8.4653433"><ele>21.0</ele><time>2026-05-01T08:30:41.96Z</time></trkpt><trkpt lat="44.3013133" lon="8.4654018"><ele>21.0</ele><time>2026-05-01T08:30:42.96Z</time></trkpt><trkpt lat="44.3014111" lon="8.4654568"><ele>21.0</ele><time>2026-05-01T08:30:43.96Z</time></trkpt><trkpt lat="44.3015138" lon="8.4655101"><ele>20.2</ele><time>2026-05-01T08:30:44.96Z</time></trkpt><trkpt lat="44.3016125" lon="8.4655697"><ele>19.400000000000002</ele><time>2026-05-01T08:30:45.961Z</time></trkpt><trkpt lat="44.3017098" lon="8.4656284"><ele>18.6</ele><time>2026-05-01T08:30:46.96Z</time></trkpt><trkpt lat="44.3018095" lon="8.4656916"><ele>17.8</ele><time>2026-05-01T08:30:47.961Z</time></trkpt><trkpt lat="44.3019075" lon="8.465756"><ele>17.0</ele><time>2026-05-01T08:30:48.96Z</time></trkpt><trkpt lat="44.302009" lon="8.4658162"><ele>17.0</ele><time>2026-05-01T08:30:49.961Z</time></trkpt><trkpt lat="44.3021074" lon="8.4658843"><ele>17.0</ele><time>2026-05-01T08:30:50.961Z</time></trkpt><trkpt lat="44.3022064" lon="8.4659515"><ele>17.0</ele><time>2026-05-01T08:30:51.96Z</time></trkpt><trkpt lat="44.3022944" lon="8.4660075"><ele>17.0</ele><time>2026-05-01T08:30:52.961Z</time></trkpt><trkpt lat="44.3023803" lon="8.4660663"><ele>17.0</ele><time>2026-05-01T08:30:53.96Z</time></trkpt><trkpt lat="44.3024563" lon="8.4661563"><ele>18.2</ele><time>2026-05-01T08:30:54.961Z</time></trkpt><trkpt lat="44.3025251" lon="8.4662479"><ele>19.4</ele><time>2026-05-01T08:30:55.96Z</time></trkpt><trkpt lat="44.3025935" lon="8.4663417"><ele>20.599999999999998</ele><time>2026-05-01T08:30:56.96Z</time></trkpt><trkpt lat="44.3026501" lon="8.4664498"><ele>21.799999999999997</ele><time>2026-05-01T08:30:57.961Z</time></trkpt><trkpt lat="44.3026982" lon="8.4665541"><ele>23.0</ele><time>2026-05-01T08:30:58.961Z</time></trkpt><trkpt lat="44.3027357" lon="8.4666527"><ele>23.0</ele><time>2026-05-01T08:30:59.96Z</time></trkpt><trkpt lat="44.3027659" lon="8.4667455"><ele>23.0</ele><time>2026-05-01T08:31:00.96Z</time></trkpt><trkpt lat="44.3027892" lon="8.4668378"><ele>23.0</ele><time>2026-05-01T08:31:01.96Z</time></trkpt><trkpt lat="44.3028049" lon="8.4669431"><ele>23.0</ele><time>2026-05-01T08:31:02.961Z</time></trkpt><trkpt lat="44.3028177" lon="8.4670645"><ele>23.0</ele><time>2026-05-01T08:31:03.96Z</time></trkpt><trkpt lat="44.3028266" lon="8.467198"><ele>23.0</ele><time>2026-05-01T08:31:04.961Z</time></trkpt><trkpt lat="44.3028308" lon="8.467345"><ele>21.5</ele><time>2026-05-01T08:31:05.961Z</time></trkpt><trkpt lat="44.3028235" lon="8.4675038"><ele>20.0</ele><time>2026-05-01T08:31:06.96Z</time></trkpt><trkpt lat="44.3028121" lon="8.4676685"><ele>18.5</ele><time>2026-05-01T08:31:07.96Z</time></trkpt><trkpt lat="44.3028035" lon="8.4678422"><ele>17.0</ele><time>2026-05-01T08:31:08.96Z</time></trkpt><trkpt lat="44.3027929" lon="8.4680134"><ele>16.2</ele><time>2026-05-01T08:31:09.96Z</time></trkpt><trkpt lat="44.3027819" lon="8.4681643"><ele>15.399999999999999</ele><time>2026-05-01T08:31:10.961Z</time></trkpt><trkpt lat="44.3027634" lon="8.4682918"><ele>14.600000000000001</ele><time>2026-05-01T08:31:11.96Z</time></trkpt><trkpt lat="44.3027508" lon="8.4683988"><ele>13.8</ele><time>2026-05-01T08:31:12.961Z</time></trkpt><trkpt lat="44.3027393" lon="8.4684891"><ele>13.0</ele><time>2026-05-01T08:31:13.961Z</time></trkpt><trkpt lat="44.3026997" lon="8.468643"><ele>12.999999999999998</ele><time>2026-05-01T08:31:15.96Z</time></trkpt><trkpt lat="44.3026685" lon="8.4687563"><ele>13.0</ele><time>2026-05-01T08:31:17.96Z</time></trkpt><trkpt lat="44.3026422" lon="8.4688666"><ele>13.0</ele><time>2026-05-01T08:31:21.96Z</time></trkpt><trkpt lat="44.3026196" lon="8.4689653"><ele>13.0</ele><time>2026-05-01T08:31:23.961Z</time></trkpt><trkpt lat="44.3026368" lon="8.4690704"><ele>12.999999999999998</ele><time>2026-05-01T08:31:25.96Z</time></trkpt><trkpt lat="44.3027131" lon="8.4690843"><ele>13.0</ele><time>2026-05-01T08:31:27.96Z</time></trkpt><trkpt lat="44.3028387" lon="8.4690725"><ele>12.600000000000001</ele><time>2026-05-01T08:31:29.96Z</time></trkpt><trkpt lat="44.3029181" lon="8.4690777"><ele>12.200000000000001</ele><time>2026-05-01T08:31:30.96Z</time></trkpt><trkpt lat="44.3030028" lon="8.4690898"><ele>11.8</ele><time>2026-05-01T08:31:31.96Z</time></trkpt><trkpt lat="44.3030934" lon="8.4691125"><ele>11.4</ele><time>2026-05-01T08:31:32.96Z</time></trkpt><trkpt lat="44.3031888" lon="8.4691366"><ele>11.0</ele><time>2026-05-01T08:31:33.96Z</time></trkpt><trkpt lat="44.3032867" lon="8.4691652"><ele>13.25</ele><time>2026-05-01T08:31:34.96Z</time></trkpt><trkpt lat="44.3033953" lon="8.4691887"><ele>15.5</ele><time>2026-05-01T08:31:35.96Z</time></trkpt><trkpt lat="44.3035093" lon="8.4692092"><ele>17.75</ele><time>2026-05-01T08:31:36.96Z</time></trkpt><trkpt lat="44.3036256" lon="8.4692243"><ele>20.0</ele><time>2026-05-01T08:31:37.961Z</time></trkpt><trkpt lat="44.3037484" lon="8.4692341"><ele>20.0</ele><time>2026-05-01T08:31:38.96Z</time></trkpt><trkpt lat="44.303868" lon="8.469245"><ele>20.0</ele><time>2026-05-01T08:31:39.96Z</time></trkpt><trkpt lat="44.3039925" lon="8.4692611"><ele>20.0</ele><time>2026-05-01T08:31:40.96Z</time></trkpt><trkpt lat="44.3041129" lon="8.4692641"><ele>20.0</ele><time>2026-05-01T08:31:41.961Z</time></trkpt><trkpt lat="44.3042383" lon="8.4692665"><ele>20.0</ele><time>2026-05-01T08:31:42.961Z</time></trkpt><trkpt lat="44.3043614" lon="8.4692687"><ele>20.0</ele><time>2026-05-01T08:31:43.96Z</time></trkpt><trkpt lat="44.3044851" lon="8.4692695"><ele>20.0</ele><time>2026-05-01T08:31:44.961Z</time></trkpt><trkpt lat="44.3046004" lon="8.4692715"><ele>20.0</ele><time>2026-05-01T08:31:45.96Z</time></trkpt><trkpt lat="44.3047169" lon="8.4692748"><ele>21.5</ele><time>2026-05-01T08:31:46.961Z</time></trkpt><trkpt lat="44.3048359" lon="8.469271"><ele>23.0</ele><time>2026-05-01T08:31:47.961Z</time></trkpt><trkpt lat="44.3049534" lon="8.4692692"><ele>24.5</ele><time>2026-05-01T08:31:48.96Z</time></trkpt><trkpt lat="44.3050788" lon="8.4692515"><ele>26.0</ele><time>2026-05-01T08:31:49.96Z</time></trkpt><trkpt lat="44.3052102" lon="8.4692383"><ele>26.0</ele><time>2026-05-01T08:31:50.96Z</time></trkpt><trkpt lat="44.3053424" lon="8.4692241"><ele>26.0</ele><time>2026-05-01T08:31:51.96Z</time></trkpt><trkpt lat="44.3054752" lon="8.4692115"><ele>26.0</ele><time>2026-05-01T08:31:52.961Z</time></trkpt><trkpt lat="44.3056075" lon="8.469202"><ele>26.0</ele><time>2026-05-01T08:31:53.96Z</time></trkpt><trkpt lat="44.3057502" lon="8.4691878"><ele>26.75</ele><time>2026-05-01T08:31:54.96Z</time></trkpt><trkpt lat="44.3058914" lon="8.4691631"><ele>27.5</ele><time>2026-05-01T08:31:55.961Z</time></trkpt><trkpt lat="44.3060211" lon="8.4691488"><ele>28.25</ele><time>2026-05-01T08:31:56.96Z</time></trkpt><trkpt lat="44.3061594" lon="8.4691494"><ele>29.0</ele><time>2026-05-01T08:31:57.961Z</time></trkpt><trkpt lat="44.306294" lon="8.4691443"><ele>28.0</ele><time>2026-05-01T08:31:58.96Z</time></trkpt><trkpt lat="44.3064523" lon="8.4691418"><ele>27.0</ele><time>2026-05-01T08:31:59.961Z</time></trkpt><trkpt lat="44.3065979" lon="8.4691469"><ele>26.0</ele><time>2026-05-01T08:32:00.96Z</time></trkpt><trkpt lat="44.3067206" lon="8.4691413"><ele>25.0</ele><time>2026-05-01T08:32:01.96Z</time></trkpt><trkpt lat="44.3068612" lon="8.4691294"><ele>25.0</ele><time>2026-05-01T08:32:02.961Z</time></trkpt><trkpt lat="44.3070027" lon="8.4691271"><ele>25.0</ele><time>2026-05-01T08:32:03.96Z</time></trkpt><trkpt lat="44.3071539" lon="8.469145"><ele>25.0</ele><time>2026-05-01T08:32:04.961Z</time></trkpt><trkpt lat="44.307306" lon="8.4691518"><ele>25.0</ele><time>2026-05-01T08:32:05.961Z</time></trkpt><trkpt lat="44.3074599" lon="8.4691582"><ele>24.75</ele><time>2026-05-01T08:32:06.96Z</time></trkpt><trkpt lat="44.3076025" lon="8.4691698"><ele>24.5</ele><time>2026-05-01T08:32:07.96Z</time></trkpt><trkpt lat="44.3077494" lon="8.4691879"><ele>24.25</ele><time>2026-05-01T08:32:08.961Z</time></trkpt><trkpt lat="44.3078987" lon="8.4692133"><ele>24.0</ele><time>2026-05-01T08:32:09.961Z</time></trkpt><trkpt lat="44.3080391" lon="8.4692301"><ele>23.25</ele><time>2026-05-01T08:32:10.96Z</time></trkpt><trkpt lat="44.3081849" lon="8.4692486"><ele>22.5</ele><time>2026-05-01T08:32:11.96Z</time></trkpt><trkpt lat="44.3083385" lon="8.4692478"><ele>21.75</ele><time>2026-05-01T08:32:12.96Z</time></trkpt><trkpt lat="44.3084877" lon="8.4692488"><ele>21.0</ele><time>2026-05-01T08:32:13.96Z</time></trkpt><trkpt lat="44.3086337" lon="8.4692523"><ele>21.0</ele><time>2026-05-01T08:32:14.96Z</time></trkpt><trkpt lat="44.3087856" lon="8.4692536"><ele>21.0</ele><time>2026-05-01T08:32:15.96Z</time></trkpt><trkpt lat="44.3089265" lon="8.4692481"><ele>21.0</ele><time>2026-05-01T08:32:16.961Z</time></trkpt><trkpt lat="44.3090711" lon="8.4692564"><ele>21.0</ele><time>2026-05-01T08:32:17.961Z</time></trkpt><trkpt lat="44.3092139" lon="8.4692643"><ele>20.25</ele><time>2026-05-01T08:32:18.961Z</time></trkpt><trkpt lat="44.3093641" lon="8.4692702"><ele>19.5</ele><time>2026-05-01T08:32:19.961Z</time></trkpt><trkpt lat="44.3095108" lon="8.4692797"><ele>18.75</ele><time>2026-05-01T08:32:20.96Z</time></trkpt><trkpt lat="44.3096565" lon="8.4692866"><ele>18.0</ele><time>2026-05-01T08:32:21.961Z</time></trkpt><trkpt lat="44.3097968" lon="8.4692978"><ele>18.0</ele><time>2026-05-01T08:32:22.961Z</time></trkpt><trkpt lat="44.309932" lon="8.4693043"><ele>18.0</ele><time>2026-05-01T08:32:23.96Z</time></trkpt><trkpt lat="44.310061" lon="8.4693053"><ele>18.0</ele><time>2026-05-01T08:32:24.961Z</time></trkpt><trkpt lat="44.3101892" lon="8.4693029"><ele>18.0</ele><time>2026-05-01T08:32:25.96Z</time></trkpt><trkpt lat="44.3103224" lon="8.4692994"><ele>18.0</ele><time>2026-05-01T08:32:26.961Z</time></trkpt><trkpt lat="44.3104547" lon="8.4693008"><ele>18.0</ele><time>2026-05-01T08:32:27.96Z</time></trkpt><trkpt lat="44.3105815" lon="8.4693008"><ele>18.0</ele><time>2026-05-01T08:32:28.959Z</time></trkpt><trkpt lat="44.3107046" lon="8.4692966"><ele>18.0</ele><time>2026-05-01T08:32:29.959Z</time></trkpt><trkpt lat="44.3108208" lon="8.4692985"><ele>18.5</ele><time>2026-05-01T08:32:30.96Z</time></trkpt><trkpt lat="44.3109351" lon="8.4692969"><ele>19.0</ele><time>2026-05-01T08:32:31.959Z</time></trkpt><trkpt lat="44.3110468" lon="8.4692924"><ele>19.5</ele><time>2026-05-01T08:32:32.959Z</time></trkpt><trkpt lat="44.3111626" lon="8.4692895"><ele>20.0</ele><time>2026-05-01T08:32:33.959Z</time></trkpt><trkpt lat="44.3112735" lon="8.4692862"><ele>20.0</ele><time>2026-05-01T08:32:34.959Z</time></trkpt><trkpt lat="44.3113617" lon="8.4692713"><ele>20.0</ele><time>2026-05-01T08:32:35.959Z</time></trkpt><trkpt lat="44.3114623" lon="8.4692836"><ele>20.0</ele><time>2026-05-01T08:32:36.959Z</time></trkpt><trkpt lat="44.311573" lon="8.469329"><ele>20.0</ele><time>2026-05-01T08:32:37.959Z</time></trkpt><trkpt lat="44.3116881" lon="8.4693865"><ele>20.0</ele><time>2026-05-01T08:32:38.959Z</time></trkpt><trkpt lat="44.3118034" lon="8.469434"><ele>21.25</ele><time>2026-05-01T08:32:39.959Z</time></trkpt><trkpt lat="44.3119213" lon="8.4694754"><ele>22.5</ele><time>2026-05-01T08:32:40.959Z</time></trkpt><trkpt lat="44.3120374" lon="8.4695112"><ele>23.75</ele><time>2026-05-01T08:32:41.959Z</time></trkpt><trkpt lat="44.3121503" lon="8.4695453"><ele>25.0</ele><time>2026-05-01T08:32:42.959Z</time></trkpt><trkpt lat="44.3122661" lon="8.4695826"><ele>23.5</ele><time>2026-05-01T08:32:43.959Z</time></trkpt><trkpt lat="44.3126606" lon="8.4696913"><ele>22.0</ele><time>2026-05-01T08:32:47.969Z</time></trkpt><trkpt lat="44.3126608" lon="8.4697867"><ele>22.0</ele><time>2026-05-01T08:32:48.968Z</time></trkpt><trkpt lat="44.3125195" lon="8.4699897"><ele>22.0</ele><time>2026-05-01T08:32:49.968Z</time></trkpt><trkpt lat="44.3124015" lon="8.4701232"><ele>22.0</ele><time>2026-05-01T08:32:50.969Z</time></trkpt><trkpt lat="44.3123027" lon="8.4703032"><ele>22.0</ele><time>2026-05-01T08:32:51.968Z</time></trkpt><trkpt lat="44.3122729" lon="8.4704405"><ele>22.0</ele><time>2026-05-01T08:32:52.968Z</time></trkpt><trkpt lat="44.3122621" lon="8.4705517"><ele>22.0</ele><time>2026-05-01T08:32:53.969Z</time></trkpt><trkpt lat="44.3122827" lon="8.4706353"><ele>22.0</ele><time>2026-05-01T08:32:54.968Z</time></trkpt><trkpt lat="44.3123333" lon="8.4706906"><ele>22.0</ele><time>2026-05-01T08:32:55.969Z</time></trkpt><trkpt lat="44.3124063" lon="8.4707307"><ele>22.0</ele><time>2026-05-01T08:32:56.968Z</time></trkpt><trkpt lat="44.3124923" lon="8.4707662"><ele>20.6</ele><time>2026-05-01T08:32:57.969Z</time></trkpt><trkpt lat="44.3125934" lon="8.470795"><ele>19.200000000000003</ele><time>2026-05-01T08:32:58.969Z</time></trkpt><trkpt lat="44.3127033" lon="8.4708107"><ele>17.8</ele><time>2026-05-01T08:32:59.968Z</time></trkpt><trkpt lat="44.3128116" lon="8.4708214"><ele>16.4</ele><time>2026-05-01T08:33:00.968Z</time></trkpt><trkpt lat="44.31292" lon="8.4708267"><ele>15.0</ele><time>2026-05-01T08:33:01.968Z</time></trkpt><trkpt lat="44.313028" lon="8.4708361"><ele>15.4</ele><time>2026-05-01T08:33:02.969Z</time></trkpt><trkpt lat="44.3131344" lon="8.4708436"><ele>15.8</ele><time>2026-05-01T08:33:03.969Z</time></trkpt><trkpt lat="44.3132449" lon="8.4708503"><ele>16.2</ele><time>2026-05-01T08:33:04.968Z</time></trkpt><trkpt lat="44.3133535" lon="8.4708605"><ele>16.6</ele><time>2026-05-01T08:33:05.968Z</time></trkpt><trkpt lat="44.3134593" lon="8.4708668"><ele>17.0</ele><time>2026-05-01T08:33:06.969Z</time></trkpt><trkpt lat="44.3135503" lon="8.4708739"><ele>17.0</ele><time>2026-05-01T08:33:07.968Z</time></trkpt><trkpt lat="44.3136392" lon="8.4709107"><ele>17.0</ele><time>2026-05-01T08:33:08.968Z</time></trkpt><trkpt lat="44.313727" lon="8.4709761"><ele>17.0</ele><time>2026-05-01T08:33:09.968Z</time></trkpt><trkpt lat="44.3137977" lon="8.4710691"><ele>17.0</ele><time>2026-05-01T08:33:10.969Z</time></trkpt><trkpt lat="44.3138363" lon="8.4711977"><ele>17.0</ele><time>2026-05-01T08:33:11.968Z</time></trkpt><trkpt lat="44.3138558" lon="8.4713463"><ele>17.333333333333336</ele><time>2026-05-01T08:33:12.968Z</time></trkpt><trkpt lat="44.3138695" lon="8.4714945"><ele>17.666666666666668</ele><time>2026-05-01T08:33:13.968Z</time></trkpt><trkpt lat="44.3138911" lon="8.4716278"><ele>18.0</ele><time>2026-05-01T08:33:14.968Z</time></trkpt><trkpt lat="44.3139093" lon="8.4717448"><ele>18.333333333333332</ele><time>2026-05-01T08:33:15.968Z</time></trkpt><trkpt lat="44.3139291" lon="8.4718401"><ele>18.666666666666664</ele><time>2026-05-01T08:33:16.968Z</time></trkpt><trkpt lat="44.3139507" lon="8.4719229"><ele>19.0</ele><time>2026-05-01T08:33:17.968Z</time></trkpt><trkpt lat="44.3139804" lon="8.4720564"><ele>18.0</ele><time>2026-05-01T08:33:19.969Z</time></trkpt><trkpt lat="44.314" lon="8.4721967"><ele>17.0</ele><time>2026-05-01T08:34:19.969Z</time></trkpt><trkpt lat="44.31404" lon="8.4722933"><ele>15.999999999999998</ele><time>2026-05-01T08:34:21.968Z</time></trkpt><trkpt lat="44.314115" lon="8.472375"><ele>15.0</ele><time>2026-05-01T08:34:23.969Z</time></trkpt><trkpt lat="44.3142083" lon="8.47236"><ele>14.0</ele><time>2026-05-01T08:34:25.968Z</time></trkpt><trkpt lat="44.3143383" lon="8.4722783"><ele>14.0</ele><time>2026-05-01T08:34:27.968Z</time></trkpt><trkpt lat="44.3144283" lon="8.4722233"><ele>13.999999999999998</ele><time>2026-05-01T08:34:28.968Z</time></trkpt><trkpt lat="44.31452" lon="8.4721683"><ele>13.999999999999998</ele><time>2026-05-01T08:34:29.969Z</time></trkpt><trkpt lat="44.31462" lon="8.472105"><ele>14.0</ele><time>2026-05-01T08:34:30.969Z</time></trkpt><trkpt lat="44.3147233" lon="8.4720467"><ele>14.0</ele><time>2026-05-01T08:34:31.969Z</time></trkpt><trkpt lat="44.3148233" lon="8.4719817"><ele>14.75</ele><time>2026-05-01T08:34:32.968Z</time></trkpt><trkpt lat="44.3149283" lon="8.4719133"><ele>15.5</ele><time>2026-05-01T08:34:33.968Z</time></trkpt><trkpt lat="44.3150417" lon="8.4718483"><ele>16.25</ele><time>2026-05-01T08:34:34.969Z</time></trkpt><trkpt lat="44.3151567" lon="8.471785"><ele>17.0</ele><time>2026-05-01T08:34:35.968Z</time></trkpt><trkpt lat="44.3152717" lon="8.4717233"><ele>17.0</ele><time>2026-05-01T08:34:36.968Z</time></trkpt><trkpt lat="44.3153767" lon="8.4716533"><ele>17.0</ele><time>2026-05-01T08:34:37.968Z</time></trkpt><trkpt lat="44.315485" lon="8.4715883"><ele>17.0</ele><time>2026-05-01T08:34:38.969Z</time></trkpt><trkpt lat="44.3155933" lon="8.4715183"><ele>17.0</ele><time>2026-05-01T08:34:39.968Z</time></trkpt><trkpt lat="44.3156983" lon="8.4714333"><ele>17.0</ele><time>2026-05-01T08:34:40.968Z</time></trkpt><trkpt lat="44.3157967" lon="8.471355"><ele>17.0</ele><time>2026-05-01T08:34:41.968Z</time></trkpt><trkpt lat="44.3159" lon="8.47128"><ele>17.0</ele><time>2026-05-01T08:34:42.969Z</time></trkpt><trkpt lat="44.3159933" lon="8.4712167"><ele>17.0</ele><time>2026-05-01T08:34:43.968Z</time></trkpt><trkpt lat="44.3161033" lon="8.4711483"><ele>17.75</ele><time>2026-05-01T08:34:44.968Z</time></trkpt><trkpt lat="44.31621" lon="8.4710683"><ele>18.5</ele><time>2026-05-01T08:34:45.968Z</time></trkpt><trkpt lat="44.3163167" lon="8.4709917"><ele>19.25</ele><time>2026-05-01T08:34:46.968Z</time></trkpt><trkpt lat="44.316415" lon="8.4709"><ele>20.0</ele><time>2026-05-01T08:34:47.968Z</time></trkpt><trkpt lat="44.3164983" lon="8.470805"><ele>20.0</ele><time>2026-05-01T08:34:48.969Z</time></trkpt><trkpt lat="44.31661" lon="8.4706917"><ele>20.0</ele><time>2026-05-01T08:34:49.968Z</time></trkpt><trkpt lat="44.3167283" lon="8.4705817"><ele>20.0</ele><time>2026-05-01T08:34:50.968Z</time></trkpt><trkpt lat="44.3168467" lon="8.47049"><ele>20.0</ele><time>2026-05-01T08:34:51.968Z</time></trkpt><trkpt lat="44.3169617" lon="8.470405"><ele>19.5</ele><time>2026-05-01T08:34:52.968Z</time></trkpt><trkpt lat="44.3170683" lon="8.470325"><ele>19.0</ele><time>2026-05-01T08:34:53.969Z</time></trkpt><trkpt lat="44.317165" lon="8.4702433"><ele>18.5</ele><time>2026-05-01T08:34:54.968Z</time></trkpt><trkpt lat="44.3172767" lon="8.4701983"><ele>18.0</ele><time>2026-05-01T08:34:55.969Z</time></trkpt><trkpt lat="44.3173783" lon="8.470105"><ele>18.0</ele><time>2026-05-01T08:34:56.968Z</time></trkpt><trkpt lat="44.31749" lon="8.47001"><ele>18.0</ele><time>2026-05-01T08:34:57.969Z</time></trkpt><trkpt lat="44.3175917" lon="8.4699233"><ele>18.0</ele><time>2026-05-01T08:34:58.969Z</time></trkpt><trkpt lat="44.3176933" lon="8.4698267"><ele>18.0</ele><time>2026-05-01T08:34:59.968Z</time></trkpt><trkpt lat="44.3178" lon="8.4697383"><ele>18.0</ele><time>2026-05-01T08:35:00.968Z</time></trkpt><trkpt lat="44.31789" lon="8.4696517"><ele>18.0</ele><time>2026-05-01T08:35:01.968Z</time></trkpt><trkpt lat="44.3179817" lon="8.4695583"><ele>18.0</ele><time>2026-05-01T08:35:02.968Z</time></trkpt><trkpt lat="44.318085" lon="8.4694717"><ele>18.0</ele><time>2026-05-01T08:35:03.968Z</time></trkpt><trkpt lat="44.3181883" lon="8.46939"><ele>17.75</ele><time>2026-05-01T08:35:04.968Z</time></trkpt><trkpt lat="44.3182833" lon="8.46931"><ele>17.5</ele><time>2026-05-01T08:35:05.968Z</time></trkpt><trkpt lat="44.31838" lon="8.4692283"><ele>17.25</ele><time>2026-05-01T08:35:06.969Z</time></trkpt><trkpt lat="44.318485" lon="8.4691367"><ele>17.0</ele><time>2026-05-01T08:35:07.968Z</time></trkpt><trkpt lat="44.31859" lon="8.4690567"><ele>17.0</ele><time>2026-05-01T08:35:08.968Z</time></trkpt><trkpt lat="44.3186883" lon="8.4689683"><ele>17.0</ele><time>2026-05-01T08:35:09.969Z</time></trkpt><trkpt lat="44.3187933" lon="8.4688867"><ele>17.0</ele><time>2026-05-01T08:35:10.968Z</time></trkpt><trkpt lat="44.3189" lon="8.4688017"><ele>17.0</ele><time>2026-05-01T08:35:11.968Z</time></trkpt><trkpt lat="44.3190067" lon="8.4687233"><ele>17.25</ele><time>2026-05-01T08:35:12.969Z</time></trkpt><trkpt lat="44.31911" lon="8.46864"><ele>17.5</ele><time>2026-05-01T08:35:13.969Z</time></trkpt><trkpt lat="44.3192067" lon="8.4685567"><ele>17.75</ele><time>2026-05-01T08:35:14.968Z</time></trkpt><trkpt lat="44.3192967" lon="8.4684617"><ele>18.0</ele><time>2026-05-01T08:35:15.969Z</time></trkpt><trkpt lat="44.3193983" lon="8.4683767"><ele>18.0</ele><time>2026-05-01T08:35:16.968Z</time></trkpt><trkpt lat="44.319495" lon="8.4682883"><ele>18.0</ele><time>2026-05-01T08:35:17.969Z</time></trkpt><trkpt lat="44.319595" lon="8.468215"><ele>18.0</ele><time>2026-05-01T08:35:18.969Z</time></trkpt><trkpt lat="44.3196833" lon="8.468135"><ele>18.0</ele><time>2026-05-01T08:35:19.968Z</time></trkpt><trkpt lat="44.319775" lon="8.4680617"><ele>18.0</ele><time>2026-05-01T08:35:20.969Z</time></trkpt><trkpt lat="44.3198733" lon="8.4679783"><ele>18.6</ele><time>2026-05-01T08:35:21.968Z</time></trkpt><trkpt lat="44.3199667" lon="8.4679133"><ele>19.200000000000003</ele><time>2026-05-01T08:35:22.968Z</time></trkpt><trkpt lat="44.3200533" lon="8.467855"><ele>19.8</ele><time>2026-05-01T08:35:23.968Z</time></trkpt><trkpt lat="44.3201383" lon="8.4677867"><ele>20.400000000000002</ele><time>2026-05-01T08:35:24.968Z</time></trkpt><trkpt lat="44.3202217" lon="8.4677267"><ele>21.0</ele><time>2026-05-01T08:35:25.969Z</time></trkpt><trkpt lat="44.3202967" lon="8.467655"><ele>21.0</ele><time>2026-05-01T08:35:26.968Z</time></trkpt><trkpt lat="44.3203717" lon="8.4675767"><ele>21.0</ele><time>2026-05-01T08:35:27.969Z</time></trkpt><trkpt lat="44.3204483" lon="8.467515"><ele>21.0</ele><time>2026-05-01T08:35:28.968Z</time></trkpt><trkpt lat="44.320505" lon="8.4674617"><ele>21.0</ele><time>2026-05-01T08:35:29.968Z</time></trkpt><trkpt lat="44.320595" lon="8.4673733"><ele>21.0</ele><time>2026-05-01T08:35:31.968Z</time></trkpt><trkpt lat="44.3206867" lon="8.4673017"><ele>21.200000000000003</ele><time>2026-05-01T08:35:33.969Z</time></trkpt><trkpt lat="44.3207567" lon="8.4672367"><ele>21.400000000000002</ele><time>2026-05-01T08:35:35.969Z</time></trkpt><trkpt lat="44.3208433" lon="8.467165"><ele>21.6</ele><time>2026-05-01T08:35:37.968Z</time></trkpt><trkpt lat="44.3209533" lon="8.4671067"><ele>21.8</ele><time>2026-05-01T08:35:39.969Z</time></trkpt><trkpt lat="44.3210283" lon="8.4670683"><ele>22.0</ele><time>2026-05-01T08:35:40.968Z</time></trkpt><trkpt lat="44.3211167" lon="8.4670233"><ele>21.8</ele><time>2026-05-01T08:35:41.968Z</time></trkpt><trkpt lat="44.3211917" lon="8.466955"><ele>21.6</ele><time>2026-05-01T08:35:42.968Z</time></trkpt><trkpt lat="44.3212833" lon="8.4668733"><ele>21.400000000000002</ele><time>2026-05-01T08:35:43.968Z</time></trkpt><trkpt lat="44.3213567" lon="8.4667767"><ele>21.200000000000003</ele><time>2026-05-01T08:35:44.969Z</time></trkpt><trkpt lat="44.32143" lon="8.46667"><ele>21.0</ele><time>2026-05-01T08:35:45.969Z</time></trkpt><trkpt lat="44.3215017" lon="8.4665617"><ele>21.0</ele><time>2026-05-01T08:35:46.968Z</time></trkpt><trkpt lat="44.3215733" lon="8.4664483"><ele>21.0</ele><time>2026-05-01T08:35:47.968Z</time></trkpt><trkpt lat="44.321645" lon="8.4663317"><ele>21.0</ele><time>2026-05-01T08:35:48.969Z</time></trkpt><trkpt lat="44.3217183" lon="8.46622"><ele>21.0</ele><time>2026-05-01T08:35:49.968Z</time></trkpt><trkpt lat="44.3217867" lon="8.4661083"><ele>21.0</ele><time>2026-05-01T08:35:50.969Z</time></trkpt><trkpt lat="44.321855" lon="8.4659867"><ele>22.0</ele><time>2026-05-01T08:35:51.969Z</time></trkpt><trkpt lat="44.3219117" lon="8.4658567"><ele>23.0</ele><time>2026-05-01T08:35:52.968Z</time></trkpt><trkpt lat="44.3219567" lon="8.4657217"><ele>24.0</ele><time>2026-05-01T08:35:53.968Z</time></trkpt><trkpt lat="44.3219933" lon="8.46558"><ele>25.0</ele><time>2026-05-01T08:35:54.968Z</time></trkpt><trkpt lat="44.3220333" lon="8.4654367"><ele>26.0</ele><time>2026-05-01T08:35:55.968Z</time></trkpt><trkpt lat="44.3220783" lon="8.46529"><ele>27.25</ele><time>2026-05-01T08:35:56.968Z</time></trkpt><trkpt lat="44.3221467" lon="8.46515"><ele>28.5</ele><time>2026-05-01T08:35:57.968Z</time></trkpt><trkpt lat="44.32222" lon="8.4650133"><ele>29.75</ele><time>2026-05-01T08:35:58.968Z</time></trkpt><trkpt lat="44.3222933" lon="8.4648967"><ele>31.0</ele><time>2026-05-01T08:35:59.968Z</time></trkpt><trkpt lat="44.32235" lon="8.46478"><ele>31.0</ele><time>2026-05-01T08:36:00.968Z</time></trkpt><trkpt lat="44.3223967" lon="8.4646433"><ele>31.0</ele><time>2026-05-01T08:36:01.969Z</time></trkpt><trkpt lat="44.3224717" lon="8.464495"><ele>31.0</ele><time>2026-05-01T08:36:02.969Z</time></trkpt><trkpt lat="44.3225583" lon="8.46435"><ele>31.0</ele><time>2026-05-01T08:36:03.968Z</time></trkpt><trkpt lat="44.3226617" lon="8.46421"><ele>31.25</ele><time>2026-05-01T08:36:04.968Z</time></trkpt><trkpt lat="44.3227617" lon="8.4640733"><ele>31.5</ele><time>2026-05-01T08:36:05.969Z</time></trkpt><trkpt lat="44.322865" lon="8.4639367"><ele>31.75</ele><time>2026-05-01T08:36:06.968Z</time></trkpt><trkpt lat="44.32297" lon="8.4638333"><ele>32.0</ele><time>2026-05-01T08:36:07.968Z</time></trkpt><trkpt lat="44.3230717" lon="8.46375"><ele>32.0</ele><time>2026-05-01T08:36:08.968Z</time></trkpt><trkpt lat="44.32319" lon="8.4636767"><ele>32.0</ele><time>2026-05-01T08:36:09.968Z</time></trkpt><trkpt lat="44.323315" lon="8.4636167"><ele>32.0</ele><time>2026-05-01T08:36:10.969Z</time></trkpt><trkpt lat="44.3234433" lon="8.463575"><ele>32.0</ele><time>2026-05-01T08:36:11.969Z</time></trkpt><trkpt lat="44.3235767" lon="8.46354"><ele>32.0</ele><time>2026-05-01T08:36:12.968Z</time></trkpt><trkpt lat="44.3237183" lon="8.463505"><ele>32.0</ele><time>2026-05-01T08:36:13.968Z</time></trkpt><trkpt lat="44.3238517" lon="8.46348"><ele>32.0</ele><time>2026-05-01T08:36:14.968Z</time></trkpt><trkpt lat="44.32398" lon="8.4634533"><ele>32.0</ele><time>2026-05-01T08:36:15.968Z</time></trkpt><trkpt lat="44.3241017" lon="8.4634367"><ele>30.5</ele><time>2026-05-01T08:36:16.968Z</time></trkpt><trkpt lat="44.3242267" lon="8.4634183"><ele>29.0</ele><time>2026-05-01T08:36:17.969Z</time></trkpt><trkpt lat="44.3243467" lon="8.46339"><ele>27.5</ele><time>2026-05-01T08:36:18.968Z</time></trkpt><trkpt lat="44.3244583" lon="8.4633583"><ele>26.0</ele><time>2026-05-01T08:36:19.968Z</time></trkpt><trkpt lat="44.3245617" lon="8.4633283"><ele>25.999999999999996</ele><time>2026-05-01T08:36:20.968Z</time></trkpt><trkpt lat="44.32466" lon="8.4633117"><ele>26.0</ele><time>2026-05-01T08:36:21.968Z</time></trkpt><trkpt lat="44.32475" lon="8.4633117"><ele>26.0</ele><time>2026-05-01T08:36:22.968Z</time></trkpt><trkpt lat="44.3248329" lon="8.4633373"><ele>26.0</ele><time>2026-05-01T08:36:23.968Z</time></trkpt><trkpt lat="44.3249097" lon="8.4633967"><ele>25.999999999999996</ele><time>2026-05-01T08:36:24.968Z</time></trkpt><trkpt lat="44.3249712" lon="8.4634822"><ele>26.0</ele><time>2026-05-01T08:36:25.969Z</time></trkpt><trkpt lat="44.3250194" lon="8.463576"><ele>26.857142857142854</ele><time>2026-05-01T08:36:26.969Z</time></trkpt><trkpt lat="44.3250573" lon="8.46367"><ele>27.714285714285715</ele><time>2026-05-01T08:36:27.969Z</time></trkpt><trkpt lat="44.3250985" lon="8.4637469"><ele>28.57142857142857</ele><time>2026-05-01T08:36:28.969Z</time></trkpt><trkpt lat="44.3251478" lon="8.4638239"><ele>29.428571428571427</ele><time>2026-05-01T08:36:29.968Z</time></trkpt><trkpt lat="44.3252002" lon="8.4638749"><ele>30.285714285714285</ele><time>2026-05-01T08:36:30.969Z</time></trkpt><trkpt lat="44.3252621" lon="8.4639042"><ele>31.142857142857142</ele><time>2026-05-01T08:36:31.969Z</time></trkpt><trkpt lat="44.3253398" lon="8.4639258"><ele>32.0</ele><time>2026-05-01T08:36:32.969Z</time></trkpt><trkpt lat="44.3254321" lon="8.4639363"><ele>33.5</ele><time>2026-05-01T08:36:33.968Z</time></trkpt><trkpt lat="44.3255261" lon="8.4639333"><ele>35.0</ele><time>2026-05-01T08:36:34.968Z</time></trkpt><trkpt lat="44.3256352" lon="8.463913"><ele>36.5</ele><time>2026-05-01T08:36:35.968Z</time></trkpt><trkpt lat="44.3257771" lon="8.4638679"><ele>38.0</ele><time>2026-05-01T08:36:36.968Z</time></trkpt><trkpt lat="44.3259218" lon="8.4637927"><ele>37.75</ele><time>2026-05-01T08:36:37.968Z</time></trkpt><trkpt lat="44.3260554" lon="8.4637249"><ele>37.5</ele><time>2026-05-01T08:36:38.968Z</time></trkpt><trkpt lat="44.3261958" lon="8.4636681"><ele>37.25</ele><time>2026-05-01T08:36:39.969Z</time></trkpt><trkpt lat="44.326336" lon="8.4636251"><ele>37.0</ele><time>2026-05-01T08:36:40.969Z</time></trkpt><trkpt lat="44.326451" lon="8.463599"><ele>37.0</ele><time>2026-05-01T08:36:41.968Z</time></trkpt><trkpt lat="44.3265702" lon="8.4636029"><ele>37.0</ele><time>2026-05-01T08:36:42.968Z</time></trkpt><trkpt lat="44.3266896" lon="8.4636334"><ele>37.0</ele><time>2026-05-01T08:36:43.968Z</time></trkpt><trkpt lat="44.3267938" lon="8.4636666"><ele>37.0</ele><time>2026-05-01T08:36:44.969Z</time></trkpt><trkpt lat="44.3268877" lon="8.463714"><ele>37.0</ele><time>2026-05-01T08:36:45.969Z</time></trkpt><trkpt lat="44.3269678" lon="8.4637736"><ele>36.6</ele><time>2026-05-01T08:36:46.968Z</time></trkpt><trkpt lat="44.3270195" lon="8.4638808"><ele>36.2</ele><time>2026-05-01T08:36:47.967Z</time></trkpt><trkpt lat="44.3270592" lon="8.4640042"><ele>35.8</ele><time>2026-05-01T08:36:48.967Z</time></trkpt><trkpt lat="44.3270837" lon="8.4641545"><ele>35.4</ele><time>2026-05-01T08:36:49.967Z</time></trkpt><trkpt lat="44.3270868" lon="8.4643317"><ele>35.0</ele><time>2026-05-01T08:36:50.968Z</time></trkpt><trkpt lat="44.3270752" lon="8.4645194"><ele>39.5</ele><time>2026-05-01T08:36:51.968Z</time></trkpt><trkpt lat="44.3270543" lon="8.4647145"><ele>44.0</ele><time>2026-05-01T08:36:52.968Z</time></trkpt><trkpt lat="44.3270343" lon="8.4649063"><ele>48.5</ele><time>2026-05-01T08:36:53.967Z</time></trkpt><trkpt lat="44.3270166" lon="8.4650888"><ele>53.0</ele><time>2026-05-01T08:36:54.968Z</time></trkpt><trkpt lat="44.3270032" lon="8.4652618"><ele>53.0</ele><time>2026-05-01T08:36:55.967Z</time></trkpt><trkpt lat="44.3270083" lon="8.4654192"><ele>53.0</ele><time>2026-05-01T08:36:56.967Z</time></trkpt><trkpt lat="44.3270333" lon="8.4655674"><ele>53.0</ele><time>2026-05-01T08:36:57.967Z</time></trkpt><trkpt lat="44.3270748" lon="8.4656915"><ele>53.0</ele><time>2026-05-01T08:36:58.967Z</time></trkpt><trkpt lat="44.3271265" lon="8.4657923"><ele>53.0</ele><time>2026-05-01T08:36:59.968Z</time></trkpt><trkpt lat="44.3271804" lon="8.4658748"><ele>49.6</ele><time>2026-05-01T08:37:00.967Z</time></trkpt><trkpt lat="44.3272476" lon="8.4659414"><ele>46.199999999999996</ele><time>2026-05-01T08:37:01.967Z</time></trkpt><trkpt lat="44.327328" lon="8.4659893"><ele>42.8</ele><time>2026-05-01T08:37:02.967Z</time></trkpt><trkpt lat="44.3274131" lon="8.4660185"><ele>39.4</ele><time>2026-05-01T08:37:03.967Z</time></trkpt><trkpt lat="44.3275169" lon="8.4660081"><ele>36.0</ele><time>2026-05-01T08:37:04.968Z</time></trkpt><trkpt lat="44.327621" lon="8.4659555"><ele>36.0</ele><time>2026-05-01T08:37:05.967Z</time></trkpt><trkpt lat="44.3277417" lon="8.4658614"><ele>36.0</ele><time>2026-05-01T08:37:06.967Z</time></trkpt><trkpt lat="44.327848" lon="8.4657879"><ele>36.0</ele><time>2026-05-01T08:37:07.967Z</time></trkpt><trkpt lat="44.3279592" lon="8.4657022"><ele>36.0</ele><time>2026-05-01T08:37:08.967Z</time></trkpt><trkpt lat="44.3280649" lon="8.4656295"><ele>36.5</ele><time>2026-05-01T08:37:09.968Z</time></trkpt><trkpt lat="44.3281685" lon="8.4655706"><ele>37.0</ele><time>2026-05-01T08:37:10.968Z</time></trkpt><trkpt lat="44.3282766" lon="8.4655112"><ele>37.5</ele><time>2026-05-01T08:37:11.967Z</time></trkpt><trkpt lat="44.328386" lon="8.4654443"><ele>38.0</ele><time>2026-05-01T08:37:12.968Z</time></trkpt><trkpt lat="44.3284999" lon="8.46538"><ele>38.0</ele><time>2026-05-01T08:37:13.967Z</time></trkpt><trkpt lat="44.3286215" lon="8.465308"><ele>38.0</ele><time>2026-05-01T08:37:14.968Z</time></trkpt><trkpt lat="44.3287376" lon="8.4652266"><ele>38.0</ele><time>2026-05-01T08:37:15.967Z</time></trkpt><trkpt lat="44.3288593" lon="8.4651304"><ele>38.0</ele><time>2026-05-01T08:37:16.968Z</time></trkpt><trkpt lat="44.328974" lon="8.4650401"><ele>38.75</ele><time>2026-05-01T08:37:17.967Z</time></trkpt><trkpt lat="44.3290952" lon="8.4649528"><ele>39.5</ele><time>2026-05-01T08:37:18.967Z</time></trkpt><trkpt lat="44.3292167" lon="8.464869"><ele>40.25</ele><time>2026-05-01T08:37:19.967Z</time></trkpt><trkpt lat="44.3293361" lon="8.4647829"><ele>41.0</ele><time>2026-05-01T08:37:20.967Z</time></trkpt><trkpt lat="44.3294569" lon="8.4646982"><ele>41.0</ele><time>2026-05-01T08:37:21.968Z</time></trkpt><trkpt lat="44.3295733" lon="8.4646187"><ele>41.0</ele><time>2026-05-01T08:37:22.967Z</time></trkpt><trkpt lat="44.3296915" lon="8.4645355"><ele>41.0</ele><time>2026-05-01T08:37:23.967Z</time></trkpt><trkpt lat="44.3297992" lon="8.4644481"><ele>41.0</ele><time>2026-05-01T08:37:24.968Z</time></trkpt><trkpt lat="44.329895" lon="8.4643622"><ele>40.5</ele><time>2026-05-01T08:37:25.967Z</time></trkpt><trkpt lat="44.3299706" lon="8.4642591"><ele>40.0</ele><time>2026-05-01T08:37:26.967Z</time></trkpt><trkpt lat="44.3300589" lon="8.4641548"><ele>39.5</ele><time>2026-05-01T08:37:27.967Z</time></trkpt><trkpt lat="44.3301447" lon="8.4640457"><ele>39.0</ele><time>2026-05-01T08:37:28.968Z</time></trkpt><trkpt lat="44.3302341" lon="8.4639301"><ele>39.0</ele><time>2026-05-01T08:37:29.968Z</time></trkpt><trkpt lat="44.3303226" lon="8.4638113"><ele>39.0</ele><time>2026-05-01T08:37:30.968Z</time></trkpt><trkpt lat="44.3304086" lon="8.4636853"><ele>39.0</ele><time>2026-05-01T08:37:31.967Z</time></trkpt><trkpt lat="44.330489" lon="8.4635539"><ele>39.0</ele><time>2026-05-01T08:37:32.967Z</time></trkpt><trkpt lat="44.3305556" lon="8.463416"><ele>42.75</ele><time>2026-05-01T08:37:33.967Z</time></trkpt><trkpt lat="44.3306057" lon="8.4632709"><ele>46.5</ele><time>2026-05-01T08:37:34.968Z</time></trkpt><trkpt lat="44.3306547" lon="8.4631172"><ele>50.25</ele><time>2026-05-01T08:37:35.968Z</time></trkpt><trkpt lat="44.3306936" lon="8.4629432"><ele>54.0</ele><time>2026-05-01T08:37:36.968Z</time></trkpt><trkpt lat="44.3307377" lon="8.4627617"><ele>54.0</ele><time>2026-05-01T08:37:37.967Z</time></trkpt><trkpt lat="44.3307906" lon="8.462589"><ele>54.0</ele><time>2026-05-01T08:37:38.967Z</time></trkpt><trkpt lat="44.330848" lon="8.4624319"><ele>54.0</ele><time>2026-05-01T08:37:39.967Z</time></trkpt><trkpt lat="44.3309059" lon="8.4622695"><ele>54.0</ele><time>2026-05-01T08:37:40.967Z</time></trkpt><trkpt lat="44.3309724" lon="8.4621126"><ele>54.5</ele><time>2026-05-01T08:37:41.968Z</time></trkpt><trkpt lat="44.3310453" lon="8.4619485"><ele>55.0</ele><time>2026-05-01T08:37:42.967Z</time></trkpt><trkpt lat="44.331121" lon="8.4617857"><ele>55.5</ele><time>2026-05-01T08:37:43.968Z</time></trkpt><trkpt lat="44.3311967" lon="8.4616229"><ele>56.0</ele><time>2026-05-01T08:37:44.967Z</time></trkpt><trkpt lat="44.331272" lon="8.4614502"><ele>55.25</ele><time>2026-05-01T08:37:45.967Z</time></trkpt><trkpt lat="44.3313421" lon="8.4612813"><ele>54.5</ele><time>2026-05-01T08:37:46.968Z</time></trkpt><trkpt lat="44.3314147" lon="8.4611079"><ele>53.75</ele><time>2026-05-01T08:37:47.967Z</time></trkpt><trkpt lat="44.3314957" lon="8.4609433"><ele>53.0</ele><time>2026-05-01T08:37:48.967Z</time></trkpt><trkpt lat="44.331589" lon="8.460789"><ele>53.0</ele><time>2026-05-01T08:37:49.968Z</time></trkpt><trkpt lat="44.3316961" lon="8.4606446"><ele>53.0</ele><time>2026-05-01T08:37:50.968Z</time></trkpt><trkpt lat="44.3318068" lon="8.4605075"><ele>53.0</ele><time>2026-05-01T08:37:51.967Z</time></trkpt><trkpt lat="44.3319184" lon="8.4603814"><ele>53.0</ele><time>2026-05-01T08:37:52.967Z</time></trkpt><trkpt lat="44.3320323" lon="8.4602588"><ele>52.5</ele><time>2026-05-01T08:37:53.967Z</time></trkpt><trkpt lat="44.3321544" lon="8.4601511"><ele>52.0</ele><time>2026-05-01T08:37:54.967Z</time></trkpt><trkpt lat="44.3322706" lon="8.4600644"><ele>51.5</ele><time>2026-05-01T08:37:55.967Z</time></trkpt><trkpt lat="44.3323875" lon="8.4599784"><ele>51.0</ele><time>2026-05-01T08:37:56.967Z</time></trkpt><trkpt lat="44.3325056" lon="8.4598972"><ele>51.0</ele><time>2026-05-01T08:37:57.967Z</time></trkpt><trkpt lat="44.3326173" lon="8.4598097"><ele>51.0</ele><time>2026-05-01T08:37:58.968Z</time></trkpt><trkpt lat="44.3327217" lon="8.4597083"><ele>51.0</ele><time>2026-05-01T08:37:59.967Z</time></trkpt><trkpt lat="44.3328162" lon="8.4595743"><ele>51.0</ele><time>2026-05-01T08:38:00.967Z</time></trkpt><trkpt lat="44.3328853" lon="8.45942"><ele>52.0</ele><time>2026-05-01T08:38:01.967Z</time></trkpt><trkpt lat="44.3329362" lon="8.4592577"><ele>53.0</ele><time>2026-05-01T08:38:02.967Z</time></trkpt><trkpt lat="44.3329835" lon="8.4590942"><ele>54.0</ele><time>2026-05-01T08:38:03.967Z</time></trkpt><trkpt lat="44.3330333" lon="8.45893"><ele>55.0</ele><time>2026-05-01T08:38:04.967Z</time></trkpt><trkpt lat="44.3330821" lon="8.4587671"><ele>55.25</ele><time>2026-05-01T08:38:05.968Z</time></trkpt><trkpt lat="44.3331256" lon="8.4586043"><ele>55.5</ele><time>2026-05-01T08:38:06.967Z</time></trkpt><trkpt lat="44.3331625" lon="8.458448"><ele>55.75</ele><time>2026-05-01T08:38:07.967Z</time></trkpt><trkpt lat="44.333208" lon="8.4582977"><ele>56.0</ele><time>2026-05-01T08:38:08.968Z</time></trkpt><trkpt lat="44.3332839" lon="8.4581732"><ele>56.0</ele><time>2026-05-01T08:38:09.967Z</time></trkpt><trkpt lat="44.333389" lon="8.4580891"><ele>56.0</ele><time>2026-05-01T08:38:10.967Z</time></trkpt><trkpt lat="44.333519" lon="8.4580411"><ele>56.0</ele><time>2026-05-01T08:38:11.968Z</time></trkpt><trkpt lat="44.3336655" lon="8.4580143"><ele>56.0</ele><time>2026-05-01T08:38:12.967Z</time></trkpt><trkpt lat="44.3338093" lon="8.4580014"><ele>58.75</ele><time>2026-05-01T08:38:13.968Z</time></trkpt><trkpt lat="44.3339469" lon="8.4579839"><ele>61.5</ele><time>2026-05-01T08:38:14.967Z</time></trkpt><trkpt lat="44.334079" lon="8.4579635"><ele>64.25</ele><time>2026-05-01T08:38:15.967Z</time></trkpt><trkpt lat="44.3342078" lon="8.457941"><ele>67.0</ele><time>2026-05-01T08:38:16.968Z</time></trkpt><trkpt lat="44.3343269" lon="8.4579148"><ele>67.0</ele><time>2026-05-01T08:38:17.968Z</time></trkpt><trkpt lat="44.3344396" lon="8.4578886"><ele>67.0</ele><time>2026-05-01T08:38:18.967Z</time></trkpt><trkpt lat="44.3345447" lon="8.4578369"><ele>67.0</ele><time>2026-05-01T08:38:19.967Z</time></trkpt><trkpt lat="44.3346427" lon="8.4577536"><ele>67.0</ele><time>2026-05-01T08:38:20.968Z</time></trkpt><trkpt lat="44.3347345" lon="8.4576632"><ele>67.4</ele><time>2026-05-01T08:38:21.967Z</time></trkpt><trkpt lat="44.3348294" lon="8.4575937"><ele>67.80000000000001</ele><time>2026-05-01T08:38:22.967Z</time></trkpt><trkpt lat="44.3349239" lon="8.4575575"><ele>68.2</ele><time>2026-05-01T08:38:23.968Z</time></trkpt><trkpt lat="44.3350263" lon="8.457539"><ele>68.60000000000001</ele><time>2026-05-01T08:38:24.968Z</time></trkpt><trkpt lat="44.335131" lon="8.4575477"><ele>69.0</ele><time>2026-05-01T08:38:25.968Z</time></trkpt><trkpt lat="44.3352375" lon="8.4575836"><ele>69.0</ele><time>2026-05-01T08:38:26.967Z</time></trkpt><trkpt lat="44.3353496" lon="8.4576238"><ele>69.0</ele><time>2026-05-01T08:38:27.967Z</time></trkpt><trkpt lat="44.3354653" lon="8.4576595"><ele>69.0</ele><time>2026-05-01T08:38:28.968Z</time></trkpt><trkpt lat="44.3355738" lon="8.4576888"><ele>69.0</ele><time>2026-05-01T08:38:29.967Z</time></trkpt><trkpt lat="44.335686" lon="8.4577121"><ele>69.5</ele><time>2026-05-01T08:38:30.967Z</time></trkpt><trkpt lat="44.3357982" lon="8.4577117"><ele>70.0</ele><time>2026-05-01T08:38:31.968Z</time></trkpt><trkpt lat="44.3359149" lon="8.4576781"><ele>70.5</ele><time>2026-05-01T08:38:32.967Z</time></trkpt><trkpt lat="44.3360368" lon="8.4576179"><ele>71.0</ele><time>2026-05-01T08:38:33.967Z</time></trkpt><trkpt lat="44.3361506" lon="8.4575306"><ele>71.0</ele><time>2026-05-01T08:38:34.967Z</time></trkpt><trkpt lat="44.3362553" lon="8.4574255"><ele>71.0</ele><time>2026-05-01T08:38:35.967Z</time></trkpt><trkpt lat="44.3363616" lon="8.4573064"><ele>71.0</ele><time>2026-05-01T08:38:36.967Z</time></trkpt><trkpt lat="44.3364587" lon="8.45718"><ele>71.0</ele><time>2026-05-01T08:38:37.968Z</time></trkpt><trkpt lat="44.3365517" lon="8.4570513"><ele>73.5</ele><time>2026-05-01T08:38:38.968Z</time></trkpt><trkpt lat="44.3366401" lon="8.456916"><ele>76.0</ele><time>2026-05-01T08:38:39.967Z</time></trkpt><trkpt lat="44.3367285" lon="8.4567817"><ele>78.5</ele><time>2026-05-01T08:38:40.967Z</time></trkpt><trkpt lat="44.3368155" lon="8.4566369"><ele>81.0</ele><time>2026-05-01T08:38:41.967Z</time></trkpt><trkpt lat="44.336895" lon="8.4564837"><ele>81.0</ele><time>2026-05-01T08:38:42.967Z</time></trkpt><trkpt lat="44.3369688" lon="8.4563216"><ele>81.0</ele><time>2026-05-01T08:38:43.968Z</time></trkpt><trkpt lat="44.3370411" lon="8.4561574"><ele>81.0</ele><time>2026-05-01T08:38:44.967Z</time></trkpt><trkpt lat="44.3371054" lon="8.4560026"><ele>81.0</ele><time>2026-05-01T08:38:45.968Z</time></trkpt><trkpt lat="44.3371645" lon="8.4558418"><ele>81.75</ele><time>2026-05-01T08:38:46.967Z</time></trkpt><trkpt lat="44.3372108" lon="8.4556752"><ele>82.5</ele><time>2026-05-01T08:38:47.967Z</time></trkpt><trkpt lat="44.3372346" lon="8.4555074"><ele>83.25</ele><time>2026-05-01T08:38:48.967Z</time></trkpt><trkpt lat="44.3372401" lon="8.455327"><ele>84.0</ele><time>2026-05-01T08:38:49.967Z</time></trkpt><trkpt lat="44.3372377" lon="8.4551508"><ele>84.2</ele><time>2026-05-01T08:38:50.967Z</time></trkpt><trkpt lat="44.3372299" lon="8.454981"><ele>84.4</ele><time>2026-05-01T08:38:51.967Z</time></trkpt><trkpt lat="44.3372349" lon="8.4548214"><ele>84.6</ele><time>2026-05-01T08:38:52.967Z</time></trkpt><trkpt lat="44.3372431" lon="8.4546831"><ele>84.8</ele><time>2026-05-01T08:38:53.967Z</time></trkpt><trkpt lat="44.3372818" lon="8.4545597"><ele>85.0</ele><time>2026-05-01T08:38:54.967Z</time></trkpt><trkpt lat="44.3373438" lon="8.4544732"><ele>84.0</ele><time>2026-05-01T08:38:55.968Z</time></trkpt><trkpt lat="44.3374302" lon="8.4544471"><ele>83.0</ele><time>2026-05-01T08:38:56.968Z</time></trkpt><trkpt lat="44.3375328" lon="8.4544668"><ele>82.0</ele><time>2026-05-01T08:38:57.967Z</time></trkpt><trkpt lat="44.3376475" lon="8.4545091"><ele>81.0</ele><time>2026-05-01T08:38:58.967Z</time></trkpt><trkpt lat="44.337762" lon="8.4545531"><ele>80.0</ele><time>2026-05-01T08:38:59.967Z</time></trkpt><trkpt lat="44.337874" lon="8.4545965"><ele>79.5</ele><time>2026-05-01T08:39:00.967Z</time></trkpt><trkpt lat="44.337987" lon="8.4546269"><ele>79.0</ele><time>2026-05-01T08:39:01.968Z</time></trkpt><trkpt lat="44.3381023" lon="8.454643"><ele>78.5</ele><time>2026-05-01T08:39:02.967Z</time></trkpt><trkpt lat="44.3382234" lon="8.4546182"><ele>78.0</ele><time>2026-05-01T08:39:03.968Z</time></trkpt><trkpt lat="44.3383351" lon="8.4545702"><ele>78.0</ele><time>2026-05-01T08:39:04.967Z</time></trkpt><trkpt lat="44.3384411" lon="8.4544889"><ele>78.0</ele><time>2026-05-01T08:39:05.967Z</time></trkpt><trkpt lat="44.3385348" lon="8.4543722"><ele>78.0</ele><time>2026-05-01T08:39:06.968Z</time></trkpt><trkpt lat="44.3386223" lon="8.4542429"><ele>78.0</ele><time>2026-05-01T08:39:07.967Z</time></trkpt><trkpt lat="44.3387069" lon="8.4540995"><ele>78.0</ele><time>2026-05-01T08:39:08.967Z</time></trkpt><trkpt lat="44.3388047" lon="8.4539558"><ele>78.0</ele><time>2026-05-01T08:39:09.967Z</time></trkpt><trkpt lat="44.3389028" lon="8.453834"><ele>78.0</ele><time>2026-05-01T08:39:10.967Z</time></trkpt><trkpt lat="44.3390105" lon="8.4537157"><ele>78.0</ele><time>2026-05-01T08:39:11.968Z</time></trkpt><trkpt lat="44.3391195" lon="8.4536038"><ele>78.25</ele><time>2026-05-01T08:39:12.968Z</time></trkpt><trkpt lat="44.3392268" lon="8.4534944"><ele>78.5</ele><time>2026-05-01T08:39:13.967Z</time></trkpt><trkpt lat="44.3393305" lon="8.4533904"><ele>78.75</ele><time>2026-05-01T08:39:14.968Z</time></trkpt><trkpt lat="44.3394217" lon="8.4532625"><ele>79.0</ele><time>2026-05-01T08:39:15.967Z</time></trkpt><trkpt lat="44.3395059" lon="8.4531215"><ele>79.0</ele><time>2026-05-01T08:39:16.967Z</time></trkpt><trkpt lat="44.3395541" lon="8.4529593"><ele>79.0</ele><time>2026-05-01T08:39:17.968Z</time></trkpt><trkpt lat="44.3395976" lon="8.4527771"><ele>79.0</ele><time>2026-05-01T08:39:18.967Z</time></trkpt><trkpt lat="44.3396424" lon="8.4525899"><ele>79.0</ele><time>2026-05-01T08:39:19.968Z</time></trkpt><trkpt lat="44.339688" lon="8.4524059"><ele>80.0</ele><time>2026-05-01T08:39:20.967Z</time></trkpt><trkpt lat="44.3397336" lon="8.4522202"><ele>81.0</ele><time>2026-05-01T08:39:21.967Z</time></trkpt><trkpt lat="44.3397837" lon="8.4520353"><ele>82.0</ele><time>2026-05-01T08:39:22.968Z</time></trkpt><trkpt lat="44.3398262" lon="8.4518494"><ele>83.0</ele><time>2026-05-01T08:39:23.967Z</time></trkpt><trkpt lat="44.3398549" lon="8.4516628"><ele>83.0</ele><time>2026-05-01T08:39:24.967Z</time></trkpt><trkpt lat="44.3398775" lon="8.4514767"><ele>83.0</ele><time>2026-05-01T08:39:25.967Z</time></trkpt><trkpt lat="44.3398918" lon="8.4512839"><ele>83.0</ele><time>2026-05-01T08:39:26.968Z</time></trkpt><trkpt lat="44.339919" lon="8.4511303"><ele>83.0</ele><time>2026-05-01T08:39:27.967Z</time></trkpt><trkpt lat="44.3399501" lon="8.4509769"><ele>82.2</ele><time>2026-05-01T08:39:28.967Z</time></trkpt><trkpt lat="44.3399792" lon="8.4508312"><ele>81.4</ele><time>2026-05-01T08:39:29.967Z</time></trkpt><trkpt lat="44.340012" lon="8.4506874"><ele>80.60000000000001</ele><time>2026-05-01T08:39:30.968Z</time></trkpt><trkpt lat="44.3400579" lon="8.4505576"><ele>79.80000000000001</ele><time>2026-05-01T08:39:31.967Z</time></trkpt><trkpt lat="44.3401121" lon="8.4504441"><ele>79.0</ele><time>2026-05-01T08:39:32.968Z</time></trkpt><trkpt lat="44.3401996" lon="8.4503517"><ele>78.60000000000001</ele><time>2026-05-01T08:39:33.967Z</time></trkpt><trkpt lat="44.3402958" lon="8.450309"><ele>78.2</ele><time>2026-05-01T08:39:34.967Z</time></trkpt><trkpt lat="44.3403894" lon="8.4503116"><ele>77.80000000000001</ele><time>2026-05-01T08:39:35.968Z</time></trkpt><trkpt lat="44.3404838" lon="8.450342"><ele>77.4</ele><time>2026-05-01T08:39:36.968Z</time></trkpt><trkpt lat="44.3405707" lon="8.4504082"><ele>77.0</ele><time>2026-05-01T08:39:37.968Z</time></trkpt><trkpt lat="44.3406389" lon="8.4505245"><ele>77.0</ele><time>2026-05-01T08:39:38.967Z</time></trkpt><trkpt lat="44.3406983" lon="8.4506662"><ele>77.0</ele><time>2026-05-01T08:39:39.967Z</time></trkpt><trkpt lat="44.3407597" lon="8.450796"><ele>77.0</ele><time>2026-05-01T08:39:40.967Z</time></trkpt><trkpt lat="44.3408248" lon="8.4509104"><ele>77.0</ele><time>2026-05-01T08:39:41.968Z</time></trkpt><trkpt lat="44.3409001" lon="8.4509966"><ele>77.0</ele><time>2026-05-01T08:39:42.967Z</time></trkpt><trkpt lat="44.3409744" lon="8.4510471"><ele>77.0</ele><time>2026-05-01T08:39:43.967Z</time></trkpt><trkpt lat="44.3410495" lon="8.451058"><ele>77.0</ele><time>2026-05-01T08:39:44.967Z</time></trkpt><trkpt lat="44.3411408" lon="8.4510083"><ele>77.0</ele><time>2026-05-01T08:39:45.967Z</time></trkpt><trkpt lat="44.3412462" lon="8.4509558"><ele>77.0</ele><time>2026-05-01T08:39:46.968Z</time></trkpt><trkpt lat="44.3413727" lon="8.4508759"><ele>77.0</ele><time>2026-05-01T08:39:47.967Z</time></trkpt><trkpt lat="44.3414964" lon="8.450799"><ele>77.75</ele><time>2026-05-01T08:39:48.967Z</time></trkpt><trkpt lat="44.3416236" lon="8.4507069"><ele>78.5</ele><time>2026-05-01T08:39:49.967Z</time></trkpt><trkpt lat="44.341738" lon="8.4506068"><ele>79.25</ele><time>2026-05-01T08:39:50.967Z</time></trkpt><trkpt lat="44.34185" lon="8.4504889"><ele>80.0</ele><time>2026-05-01T08:39:51.967Z</time></trkpt><trkpt lat="44.3419563" lon="8.4503598"><ele>80.0</ele><time>2026-05-01T08:39:52.967Z</time></trkpt><trkpt lat="44.3420494" lon="8.450238"><ele>80.0</ele><time>2026-05-01T08:39:53.967Z</time></trkpt><trkpt lat="44.3421254" lon="8.4501279"><ele>80.0</ele><time>2026-05-01T08:39:54.968Z</time></trkpt><trkpt lat="44.3421945" lon="8.4500158"><ele>80.0</ele><time>2026-05-01T08:39:55.967Z</time></trkpt><trkpt lat="44.3422511" lon="8.4499038"><ele>80.0</ele><time>2026-05-01T08:39:56.967Z</time></trkpt><trkpt lat="44.3423011" lon="8.4497945"><ele>80.0</ele><time>2026-05-01T08:39:57.967Z</time></trkpt><trkpt lat="44.3423471" lon="8.4496803"><ele>80.0</ele><time>2026-05-01T08:39:58.968Z</time></trkpt><trkpt lat="44.3423877" lon="8.4495639"><ele>80.0</ele><time>2026-05-01T08:39:59.968Z</time></trkpt><trkpt lat="44.3424238" lon="8.4494442"><ele>80.0</ele><time>2026-05-01T08:40:00.967Z</time></trkpt><trkpt lat="44.3424661" lon="8.4493181"><ele>80.0</ele><time>2026-05-01T08:40:01.967Z</time></trkpt><trkpt lat="44.3425147" lon="8.4492081"><ele>81.6</ele><time>2026-05-01T08:40:02.967Z</time></trkpt><trkpt lat="44.3425712" lon="8.4490949"><ele>83.2</ele><time>2026-05-01T08:40:03.967Z</time></trkpt><trkpt lat="44.3426312" lon="8.4489748"><ele>84.80000000000001</ele><time>2026-05-01T08:40:04.967Z</time></trkpt><trkpt lat="44.3426899" lon="8.4488468"><ele>86.4</ele><time>2026-05-01T08:40:05.967Z</time></trkpt><trkpt lat="44.3427613" lon="8.4487058"><ele>88.0</ele><time>2026-05-01T08:40:06.968Z</time></trkpt><trkpt lat="44.3428188" lon="8.4485547"><ele>91.0</ele><time>2026-05-01T08:40:07.967Z</time></trkpt><trkpt lat="44.3428703" lon="8.4483876"><ele>94.0</ele><time>2026-05-01T08:40:08.967Z</time></trkpt><trkpt lat="44.342925" lon="8.4482166"><ele>97.0</ele><time>2026-05-01T08:40:09.967Z</time></trkpt><trkpt lat="44.3429725" lon="8.4480498"><ele>100.0</ele><time>2026-05-01T08:40:10.967Z</time></trkpt><trkpt lat="44.3430152" lon="8.4478832"><ele>96.5</ele><time>2026-05-01T08:40:11.967Z</time></trkpt><trkpt lat="44.3430603" lon="8.4477326"><ele>93.0</ele><time>2026-05-01T08:40:12.967Z</time></trkpt><trkpt lat="44.3431201" lon="8.4475985"><ele>89.5</ele><time>2026-05-01T08:40:13.968Z</time></trkpt><trkpt lat="44.3431986" lon="8.4474813"><ele>86.0</ele><time>2026-05-01T08:40:14.967Z</time></trkpt><trkpt lat="44.3432993" lon="8.4473931"><ele>86.0</ele><time>2026-05-01T08:40:15.967Z</time></trkpt><trkpt lat="44.3434166" lon="8.4473107"><ele>86.0</ele><time>2026-05-01T08:40:16.967Z</time></trkpt><trkpt lat="44.3435376" lon="8.4472354"><ele>86.0</ele><time>2026-05-01T08:40:17.967Z</time></trkpt><trkpt lat="44.3436614" lon="8.4471535"><ele>86.0</ele><time>2026-05-01T08:40:18.967Z</time></trkpt><trkpt lat="44.3437828" lon="8.4470744"><ele>87.5</ele><time>2026-05-01T08:40:19.967Z</time></trkpt><trkpt lat="44.3439013" lon="8.4470015"><ele>89.0</ele><time>2026-05-01T08:40:20.967Z</time></trkpt><trkpt lat="44.3440203" lon="8.4469284"><ele>90.5</ele><time>2026-05-01T08:40:21.967Z</time></trkpt><trkpt lat="44.3441323" lon="8.4468564"><ele>92.0</ele><time>2026-05-01T08:40:22.968Z</time></trkpt><trkpt lat="44.3442459" lon="8.4467866"><ele>92.0</ele><time>2026-05-01T08:40:23.968Z</time></trkpt><trkpt lat="44.3443522" lon="8.4466964"><ele>92.0</ele><time>2026-05-01T08:40:24.967Z</time></trkpt><trkpt lat="44.3444409" lon="8.4465931"><ele>92.0</ele><time>2026-05-01T08:40:25.967Z</time></trkpt><trkpt lat="44.3445081" lon="8.4464871"><ele>92.0</ele><time>2026-05-01T08:40:26.967Z</time></trkpt><trkpt lat="44.3445853" lon="8.4463716"><ele>91.5</ele><time>2026-05-01T08:40:27.967Z</time></trkpt><trkpt lat="44.3446609" lon="8.4462476"><ele>91.0</ele><time>2026-05-01T08:40:28.968Z</time></trkpt><trkpt lat="44.3447333" lon="8.446121"><ele>90.5</ele><time>2026-05-01T08:40:29.967Z</time></trkpt><trkpt lat="44.3448039" lon="8.445986"><ele>90.0</ele><time>2026-05-01T08:40:30.968Z</time></trkpt><trkpt lat="44.3448798" lon="8.4458489"><ele>90.0</ele><time>2026-05-01T08:40:31.967Z</time></trkpt><trkpt lat="44.3449535" lon="8.4457098"><ele>90.0</ele><time>2026-05-01T08:40:32.967Z</time></trkpt><trkpt lat="44.345027" lon="8.4455777"><ele>90.0</ele><time>2026-05-01T08:40:33.967Z</time></trkpt><trkpt lat="44.3450885" lon="8.445432"><ele>90.0</ele><time>2026-05-01T08:40:34.967Z</time></trkpt><trkpt lat="44.345144" lon="8.4452778"><ele>91.5</ele><time>2026-05-01T08:40:35.968Z</time></trkpt><trkpt lat="44.3451964" lon="8.4451213"><ele>93.0</ele><time>2026-05-01T08:40:36.968Z</time></trkpt><trkpt lat="44.345232" lon="8.4449626"><ele>94.5</ele><time>2026-05-01T08:40:37.968Z</time></trkpt><trkpt lat="44.3452632" lon="8.444804"><ele>96.0</ele><time>2026-05-01T08:40:38.967Z</time></trkpt><trkpt lat="44.345294" lon="8.4446447"><ele>95.0</ele><time>2026-05-01T08:40:39.968Z</time></trkpt><trkpt lat="44.3453244" lon="8.4444913"><ele>94.0</ele><time>2026-05-01T08:40:40.968Z</time></trkpt><trkpt lat="44.3453542" lon="8.4443401"><ele>93.0</ele><time>2026-05-01T08:40:41.968Z</time></trkpt><trkpt lat="44.3453751" lon="8.44419"><ele>92.0</ele><time>2026-05-01T08:40:42.967Z</time></trkpt><trkpt lat="44.3453602" lon="8.4440303"><ele>92.0</ele><time>2026-05-01T08:40:43.967Z</time></trkpt><trkpt lat="44.3453195" lon="8.4438771"><ele>92.0</ele><time>2026-05-01T08:40:44.967Z</time></trkpt><trkpt lat="44.3452694" lon="8.4437328"><ele>92.0</ele><time>2026-05-01T08:40:45.967Z</time></trkpt><trkpt lat="44.3452022" lon="8.4436039"><ele>92.0</ele><time>2026-05-01T08:40:46.968Z</time></trkpt><trkpt lat="44.3451305" lon="8.443472"><ele>91.75</ele><time>2026-05-01T08:40:47.967Z</time></trkpt><trkpt lat="44.3450593" lon="8.4433375"><ele>91.5</ele><time>2026-05-01T08:40:48.968Z</time></trkpt><trkpt lat="44.3449832" lon="8.443199"><ele>91.25</ele><time>2026-05-01T08:40:49.967Z</time></trkpt><trkpt lat="44.3449101" lon="8.4430543"><ele>91.0</ele><time>2026-05-01T08:40:50.967Z</time></trkpt><trkpt lat="44.3448459" lon="8.4429086"><ele>90.5</ele><time>2026-05-01T08:40:51.967Z</time></trkpt><trkpt lat="44.3448198" lon="8.4427387"><ele>90.0</ele><time>2026-05-01T08:40:52.968Z</time></trkpt><trkpt lat="44.3447707" lon="8.4425704"><ele>89.5</ele><time>2026-05-01T08:40:53.968Z</time></trkpt><trkpt lat="44.3446961" lon="8.4424041"><ele>89.0</ele><time>2026-05-01T08:40:54.967Z</time></trkpt><trkpt lat="44.344609" lon="8.442246"><ele>95.25</ele><time>2026-05-01T08:40:55.968Z</time></trkpt><trkpt lat="44.3445284" lon="8.4420914"><ele>101.5</ele><time>2026-05-01T08:40:56.967Z</time></trkpt><trkpt lat="44.344438" lon="8.441929"><ele>107.75</ele><time>2026-05-01T08:40:57.967Z</time></trkpt><trkpt lat="44.3443632" lon="8.4417683"><ele>114.0</ele><time>2026-05-01T08:40:58.967Z</time></trkpt><trkpt lat="44.3443065" lon="8.4416051"><ele>114.0</ele><time>2026-05-01T08:40:59.967Z</time></trkpt><trkpt lat="44.3442758" lon="8.4414457"><ele>114.0</ele><time>2026-05-01T08:41:00.967Z</time></trkpt><trkpt lat="44.3442765" lon="8.4412709"><ele>114.0</ele><time>2026-05-01T08:41:01.967Z</time></trkpt><trkpt lat="44.3442831" lon="8.4411009"><ele>114.0</ele><time>2026-05-01T08:41:02.968Z</time></trkpt><trkpt lat="44.3442917" lon="8.4409324"><ele>114.75</ele><time>2026-05-01T08:41:03.967Z</time></trkpt><trkpt lat="44.3442867" lon="8.4407627"><ele>115.5</ele><time>2026-05-01T08:41:04.967Z</time></trkpt><trkpt lat="44.34427" lon="8.4405954"><ele>116.25</ele><time>2026-05-01T08:41:05.968Z</time></trkpt><trkpt lat="44.3442739" lon="8.4404182"><ele>117.0</ele><time>2026-05-01T08:41:06.967Z</time></trkpt><trkpt lat="44.3442761" lon="8.4402307"><ele>117.75</ele><time>2026-05-01T08:41:07.967Z</time></trkpt><trkpt lat="44.3442837" lon="8.4400459"><ele>118.5</ele><time>2026-05-01T08:41:08.967Z</time></trkpt><trkpt lat="44.344304" lon="8.4398646"><ele>119.25</ele><time>2026-05-01T08:41:09.967Z</time></trkpt><trkpt lat="44.3443334" lon="8.4396912"><ele>120.0</ele><time>2026-05-01T08:41:10.967Z</time></trkpt><trkpt lat="44.3443557" lon="8.4395247"><ele>122.0</ele><time>2026-05-01T08:41:11.968Z</time></trkpt><trkpt lat="44.3443795" lon="8.4393597"><ele>124.0</ele><time>2026-05-01T08:41:12.967Z</time></trkpt><trkpt lat="44.3444318" lon="8.4391684"><ele>126.0</ele><time>2026-05-01T08:41:13.968Z</time></trkpt><trkpt lat="44.3444671" lon="8.4390224"><ele>128.0</ele><time>2026-05-01T08:41:14.967Z</time></trkpt><trkpt lat="44.3445438" lon="8.438877"><ele>130.25</ele><time>2026-05-01T08:41:15.968Z</time></trkpt><trkpt lat="44.3446413" lon="8.4387521"><ele>132.5</ele><time>2026-05-01T08:41:16.967Z</time></trkpt><trkpt lat="44.34475" lon="8.4386403"><ele>134.75</ele><time>2026-05-01T08:41:17.967Z</time></trkpt><trkpt lat="44.3448716" lon="8.4385393"><ele>137.0</ele><time>2026-05-01T08:41:18.968Z</time></trkpt><trkpt lat="44.34498" lon="8.4384517"><ele>130.6</ele><time>2026-05-01T08:41:19.967Z</time></trkpt><trkpt lat="44.3450889" lon="8.4383668"><ele>124.19999999999999</ele><time>2026-05-01T08:41:20.967Z</time></trkpt><trkpt lat="44.3451839" lon="8.438284"><ele>117.8</ele><time>2026-05-01T08:41:21.967Z</time></trkpt><trkpt lat="44.345259" lon="8.4381872"><ele>111.4</ele><time>2026-05-01T08:41:22.967Z</time></trkpt><trkpt lat="44.3452845" lon="8.4380576"><ele>105.0</ele><time>2026-05-01T08:41:23.967Z</time></trkpt><trkpt lat="44.3452779" lon="8.4379132"><ele>103.6</ele><time>2026-05-01T08:41:24.967Z</time></trkpt><trkpt lat="44.345259" lon="8.4377704"><ele>102.2</ele><time>2026-05-01T08:41:25.967Z</time></trkpt><trkpt lat="44.3452389" lon="8.437622"><ele>100.80000000000001</ele><time>2026-05-01T08:41:26.967Z</time></trkpt><trkpt lat="44.3452207" lon="8.4374703"><ele>99.4</ele><time>2026-05-01T08:41:27.967Z</time></trkpt><trkpt lat="44.3452025" lon="8.4373187"><ele>98.0</ele><time>2026-05-01T08:41:28.968Z</time></trkpt><trkpt lat="44.3451738" lon="8.437161"><ele>97.0</ele><time>2026-05-01T08:41:29.967Z</time></trkpt><trkpt lat="44.3451403" lon="8.4369969"><ele>96.0</ele><time>2026-05-01T08:41:30.968Z</time></trkpt><trkpt lat="44.3451195" lon="8.436826"><ele>95.0</ele><time>2026-05-01T08:41:31.967Z</time></trkpt><trkpt lat="44.3450886" lon="8.4366546"><ele>94.0</ele><time>2026-05-01T08:41:32.967Z</time></trkpt><trkpt lat="44.3450568" lon="8.436482"><ele>94.0</ele><time>2026-05-01T08:41:33.968Z</time></trkpt><trkpt lat="44.3450218" lon="8.4363059"><ele>94.0</ele><time>2026-05-01T08:41:34.968Z</time></trkpt><trkpt lat="44.3449874" lon="8.4361327"><ele>94.0</ele><time>2026-05-01T08:41:35.967Z</time></trkpt><trkpt lat="44.3449538" lon="8.4359656"><ele>94.0</ele><time>2026-05-01T08:41:36.967Z</time></trkpt><trkpt lat="44.3449231" lon="8.4357987"><ele>95.0</ele><time>2026-05-01T08:41:37.967Z</time></trkpt><trkpt lat="44.344897" lon="8.4356322"><ele>96.0</ele><time>2026-05-01T08:41:38.967Z</time></trkpt><trkpt lat="44.3448663" lon="8.4354725"><ele>97.0</ele><time>2026-05-01T08:41:39.967Z</time></trkpt><trkpt lat="44.3448247" lon="8.435317"><ele>98.0</ele><time>2026-05-01T08:41:40.967Z</time></trkpt><trkpt lat="44.3447469" lon="8.4352027"><ele>98.2</ele><time>2026-05-01T08:41:41.967Z</time></trkpt><trkpt lat="44.3446611" lon="8.4351071"><ele>98.4</ele><time>2026-05-01T08:41:42.967Z</time></trkpt><trkpt lat="44.3445957" lon="8.4350014"><ele>98.60000000000001</ele><time>2026-05-01T08:41:43.967Z</time></trkpt><trkpt lat="44.3445699" lon="8.4348686"><ele>98.80000000000001</ele><time>2026-05-01T08:41:44.967Z</time></trkpt><trkpt lat="44.3445804" lon="8.434734"><ele>99.0</ele><time>2026-05-01T08:41:45.968Z</time></trkpt><trkpt lat="44.3446" lon="8.4346058"><ele>99.2</ele><time>2026-05-01T08:41:46.967Z</time></trkpt><trkpt lat="44.344614" lon="8.4344562"><ele>99.4</ele><time>2026-05-01T08:41:47.967Z</time></trkpt><trkpt lat="44.3446149" lon="8.4343069"><ele>99.6</ele><time>2026-05-01T08:41:48.968Z</time></trkpt><trkpt lat="44.3445988" lon="8.4341616"><ele>99.8</ele><time>2026-05-01T08:41:49.967Z</time></trkpt><trkpt lat="44.3445653" lon="8.4340215"><ele>100.0</ele><time>2026-05-01T08:41:50.967Z</time></trkpt><trkpt lat="44.3445262" lon="8.4338826"><ele>101.25</ele><time>2026-05-01T08:41:51.968Z</time></trkpt><trkpt lat="44.3444784" lon="8.4337389"><ele>102.5</ele><time>2026-05-01T08:41:52.967Z</time></trkpt><trkpt lat="44.344423" lon="8.4335925"><ele>103.75</ele><time>2026-05-01T08:41:53.967Z</time></trkpt><trkpt lat="44.3443721" lon="8.4334493"><ele>105.0</ele><time>2026-05-01T08:41:54.967Z</time></trkpt><trkpt lat="44.3443242" lon="8.4333115"><ele>105.0</ele><time>2026-05-01T08:41:55.967Z</time></trkpt><trkpt lat="44.3442784" lon="8.4331761"><ele>105.0</ele><time>2026-05-01T08:41:56.968Z</time></trkpt><trkpt lat="44.3442333" lon="8.4330433"><ele>105.0</ele><time>2026-05-01T08:41:57.967Z</time></trkpt><trkpt lat="44.3441822" lon="8.4329099"><ele>105.0</ele><time>2026-05-01T08:41:58.967Z</time></trkpt><trkpt lat="44.3441303" lon="8.43277"><ele>105.0</ele><time>2026-05-01T08:41:59.967Z</time></trkpt><trkpt lat="44.3440741" lon="8.4326334"><ele>104.75</ele><time>2026-05-01T08:42:00.967Z</time></trkpt><trkpt lat="44.3440113" lon="8.432497"><ele>104.5</ele><time>2026-05-01T08:42:01.968Z</time></trkpt><trkpt lat="44.3439343" lon="8.4323729"><ele>104.25</ele><time>2026-05-01T08:42:02.967Z</time></trkpt><trkpt lat="44.3438417" lon="8.4322628"><ele>104.0</ele><time>2026-05-01T08:42:03.967Z</time></trkpt><trkpt lat="44.343741" lon="8.4321589"><ele>106.0</ele><time>2026-05-01T08:42:04.967Z</time></trkpt><trkpt lat="44.3436391" lon="8.4320505"><ele>108.0</ele><time>2026-05-01T08:42:05.968Z</time></trkpt><trkpt lat="44.3435431" lon="8.4319345"><ele>110.0</ele><time>2026-05-01T08:42:06.967Z</time></trkpt><trkpt lat="44.3434563" lon="8.4318206"><ele>112.0</ele><time>2026-05-01T08:42:07.967Z</time></trkpt><trkpt lat="44.3433807" lon="8.4317149"><ele>112.0</ele><time>2026-05-01T08:42:08.967Z</time></trkpt><trkpt lat="44.3433074" lon="8.4316101"><ele>111.99999999999999</ele><time>2026-05-01T08:42:09.966Z</time></trkpt><trkpt lat="44.3432266" lon="8.4315141"><ele>111.99999999999999</ele><time>2026-05-01T08:42:10.966Z</time></trkpt><trkpt lat="44.3431349" lon="8.4314262"><ele>112.0</ele><time>2026-05-01T08:42:11.967Z</time></trkpt><trkpt lat="44.3430339" lon="8.4313395"><ele>112.0</ele><time>2026-05-01T08:42:12.967Z</time></trkpt><trkpt lat="44.3429198" lon="8.4312674"><ele>114.25</ele><time>2026-05-01T08:42:13.966Z</time></trkpt><trkpt lat="44.3427947" lon="8.4312047"><ele>116.5</ele><time>2026-05-01T08:42:14.966Z</time></trkpt><trkpt lat="44.342668" lon="8.4311525"><ele>118.75</ele><time>2026-05-01T08:42:15.967Z</time></trkpt><trkpt lat="44.3425426" lon="8.4311076"><ele>121.0</ele><time>2026-05-01T08:42:16.967Z</time></trkpt><trkpt lat="44.3424169" lon="8.4310634"><ele>121.0</ele><time>2026-05-01T08:42:17.967Z</time></trkpt><trkpt lat="44.3423023" lon="8.4310113"><ele>121.0</ele><time>2026-05-01T08:42:18.966Z</time></trkpt><trkpt lat="44.3421871" lon="8.4309522"><ele>121.0</ele><time>2026-05-01T08:42:19.966Z</time></trkpt><trkpt lat="44.3420761" lon="8.4308895"><ele>121.0</ele><time>2026-05-01T08:42:20.966Z</time></trkpt><trkpt lat="44.3419676" lon="8.4308259"><ele>122.6</ele><time>2026-05-01T08:42:21.967Z</time></trkpt><trkpt lat="44.3418675" lon="8.4307606"><ele>124.19999999999999</ele><time>2026-05-01T08:42:22.966Z</time></trkpt><trkpt lat="44.3417698" lon="8.4306937"><ele>125.80000000000001</ele><time>2026-05-01T08:42:23.966Z</time></trkpt><trkpt lat="44.3416734" lon="8.4306232"><ele>127.4</ele><time>2026-05-01T08:42:24.966Z</time></trkpt><trkpt lat="44.3415813" lon="8.4305438"><ele>129.0</ele><time>2026-05-01T08:42:25.966Z</time></trkpt><trkpt lat="44.3414994" lon="8.4304501"><ele>129.0</ele><time>2026-05-01T08:42:26.966Z</time></trkpt><trkpt lat="44.3414261" lon="8.4303509"><ele>129.0</ele><time>2026-05-01T08:42:27.967Z</time></trkpt><trkpt lat="44.3413611" lon="8.4302587"><ele>129.0</ele><time>2026-05-01T08:42:28.966Z</time></trkpt><trkpt lat="44.3413096" lon="8.4301653"><ele>129.0</ele><time>2026-05-01T08:42:29.966Z</time></trkpt><trkpt lat="44.3412797" lon="8.4300593"><ele>129.0</ele><time>2026-05-01T08:42:30.966Z</time></trkpt><trkpt lat="44.3412623" lon="8.4299555"><ele>129.0</ele><time>2026-05-01T08:42:31.966Z</time></trkpt><trkpt lat="44.3412637" lon="8.4298421"><ele>129.4</ele><time>2026-05-01T08:42:32.966Z</time></trkpt><trkpt lat="44.3412784" lon="8.429729"><ele>129.8</ele><time>2026-05-01T08:42:33.966Z</time></trkpt><trkpt lat="44.3413113" lon="8.4296155"><ele>130.2</ele><time>2026-05-01T08:42:34.967Z</time></trkpt><trkpt lat="44.341351" lon="8.4295067"><ele>130.6</ele><time>2026-05-01T08:42:35.966Z</time></trkpt><trkpt lat="44.3413889" lon="8.4293791"><ele>131.0</ele><time>2026-05-01T08:42:36.966Z</time></trkpt><trkpt lat="44.341416" lon="8.4292484"><ele>131.0</ele><time>2026-05-01T08:42:37.967Z</time></trkpt><trkpt lat="44.3414292" lon="8.4290985"><ele>131.0</ele><time>2026-05-01T08:42:38.966Z</time></trkpt><trkpt lat="44.341414" lon="8.4289366"><ele>131.0</ele><time>2026-05-01T08:42:39.966Z</time></trkpt><trkpt lat="44.3413988" lon="8.428774"><ele>131.0</ele><time>2026-05-01T08:42:40.966Z</time></trkpt><trkpt lat="44.3413616" lon="8.4286161"><ele>127.0</ele><time>2026-05-01T08:42:41.967Z</time></trkpt><trkpt lat="44.3413127" lon="8.4284621"><ele>123.0</ele><time>2026-05-01T08:42:42.966Z</time></trkpt><trkpt lat="44.3412685" lon="8.4282993"><ele>119.0</ele><time>2026-05-01T08:42:43.966Z</time></trkpt><trkpt lat="44.3412111" lon="8.4281413"><ele>115.0</ele><time>2026-05-01T08:42:44.966Z</time></trkpt><trkpt lat="44.3411553" lon="8.4279813"><ele>115.5</ele><time>2026-05-01T08:42:45.966Z</time></trkpt><trkpt lat="44.3410963" lon="8.4278232"><ele>116.0</ele><time>2026-05-01T08:42:46.967Z</time></trkpt><trkpt lat="44.3410367" lon="8.4276568"><ele>116.5</ele><time>2026-05-01T08:42:47.967Z</time></trkpt><trkpt lat="44.3409689" lon="8.4274842"><ele>117.0</ele><time>2026-05-01T08:42:48.966Z</time></trkpt><trkpt lat="44.3409064" lon="8.4273054"><ele>119.5</ele><time>2026-05-01T08:42:49.966Z</time></trkpt><trkpt lat="44.340842" lon="8.4271253"><ele>122.0</ele><time>2026-05-01T08:42:50.966Z</time></trkpt><trkpt lat="44.3407807" lon="8.4269522"><ele>124.5</ele><time>2026-05-01T08:42:51.967Z</time></trkpt><trkpt lat="44.340722" lon="8.4267825"><ele>127.0</ele><time>2026-05-01T08:42:52.966Z</time></trkpt><trkpt lat="44.3406655" lon="8.4266251"><ele>127.0</ele><time>2026-05-01T08:42:53.966Z</time></trkpt><trkpt lat="44.3406108" lon="8.4264848"><ele>126.99999999999999</ele><time>2026-05-01T08:42:54.966Z</time></trkpt><trkpt lat="44.3405523" lon="8.4263454"><ele>126.99999999999999</ele><time>2026-05-01T08:42:55.967Z</time></trkpt><trkpt lat="44.3404902" lon="8.4262191"><ele>127.0</ele><time>2026-05-01T08:42:56.966Z</time></trkpt><trkpt lat="44.3404309" lon="8.4261098"><ele>127.0</ele><time>2026-05-01T08:42:57.966Z</time></trkpt><trkpt lat="44.3403759" lon="8.4260042"><ele>126.19999999999999</ele><time>2026-05-01T08:42:58.966Z</time></trkpt><trkpt lat="44.3403228" lon="8.4258846"><ele>125.39999999999999</ele><time>2026-05-01T08:42:59.967Z</time></trkpt><trkpt lat="44.3402733" lon="8.425763"><ele>124.60000000000001</ele><time>2026-05-01T08:43:00.966Z</time></trkpt><trkpt lat="44.3402309" lon="8.4256407"><ele>123.80000000000001</ele><time>2026-05-01T08:43:01.966Z</time></trkpt><trkpt lat="44.3402045" lon="8.4255084"><ele>123.0</ele><time>2026-05-01T08:43:02.966Z</time></trkpt><trkpt lat="44.340184" lon="8.4253655"><ele>123.0</ele><time>2026-05-01T08:43:03.966Z</time></trkpt><trkpt lat="44.3401704" lon="8.4252257"><ele>123.00000000000001</ele><time>2026-05-01T08:43:04.967Z</time></trkpt><trkpt lat="44.3401676" lon="8.4250788"><ele>123.00000000000001</ele><time>2026-05-01T08:43:05.966Z</time></trkpt><trkpt lat="44.3401625" lon="8.4249277"><ele>123.0</ele><time>2026-05-01T08:43:06.966Z</time></trkpt><trkpt lat="44.3401509" lon="8.4247848"><ele>123.0</ele><time>2026-05-01T08:43:07.966Z</time></trkpt><trkpt lat="44.3401298" lon="8.4246536"><ele>124.60000000000001</ele><time>2026-05-01T08:43:08.967Z</time></trkpt><trkpt lat="44.3401027" lon="8.4245252"><ele>126.20000000000002</ele><time>2026-05-01T08:43:09.966Z</time></trkpt><trkpt lat="44.3400755" lon="8.4243982"><ele>127.8</ele><time>2026-05-01T08:43:10.967Z</time></trkpt><trkpt lat="44.3400464" lon="8.4242684"><ele>129.4</ele><time>2026-05-01T08:43:11.966Z</time></trkpt><trkpt lat="44.3400127" lon="8.4241392"><ele>131.0</ele><time>2026-05-01T08:43:12.967Z</time></trkpt><trkpt lat="44.3399806" lon="8.424013"><ele>131.0</ele><time>2026-05-01T08:43:13.967Z</time></trkpt><trkpt lat="44.3399508" lon="8.4238926"><ele>131.0</ele><time>2026-05-01T08:43:14.966Z</time></trkpt><trkpt lat="44.3399181" lon="8.4237772"><ele>131.0</ele><time>2026-05-01T08:43:15.966Z</time></trkpt><trkpt lat="44.3398882" lon="8.4236533"><ele>131.0</ele><time>2026-05-01T08:43:16.967Z</time></trkpt><trkpt lat="44.3398502" lon="8.4235328"><ele>131.0</ele><time>2026-05-01T08:43:17.966Z</time></trkpt><trkpt lat="44.3398211" lon="8.4234011"><ele>132.0</ele><time>2026-05-01T08:43:18.966Z</time></trkpt><trkpt lat="44.3397945" lon="8.4232631"><ele>133.0</ele><time>2026-05-01T08:43:19.966Z</time></trkpt><trkpt lat="44.3397651" lon="8.4231318"><ele>134.0</ele><time>2026-05-01T08:43:20.966Z</time></trkpt><trkpt lat="44.3397274" lon="8.4230102"><ele>135.0</ele><time>2026-05-01T08:43:21.967Z</time></trkpt><trkpt lat="44.3396798" lon="8.4228915"><ele>136.0</ele><time>2026-05-01T08:43:22.966Z</time></trkpt><trkpt lat="44.3396252" lon="8.42278"><ele>133.6</ele><time>2026-05-01T08:43:23.966Z</time></trkpt><trkpt lat="44.3395633" lon="8.422673"><ele>131.2</ele><time>2026-05-01T08:43:24.966Z</time></trkpt><trkpt lat="44.3395018" lon="8.4225609"><ele>128.8</ele><time>2026-05-01T08:43:25.966Z</time></trkpt><trkpt lat="44.3394456" lon="8.4224419"><ele>126.4</ele><time>2026-05-01T08:43:26.966Z</time></trkpt><trkpt lat="44.3393824" lon="8.4223378"><ele>124.0</ele><time>2026-05-01T08:43:27.966Z</time></trkpt><trkpt lat="44.3393135" lon="8.4222371"><ele>124.4</ele><time>2026-05-01T08:43:28.966Z</time></trkpt><trkpt lat="44.3392363" lon="8.4221373"><ele>124.80000000000001</ele><time>2026-05-01T08:43:29.966Z</time></trkpt><trkpt lat="44.3391596" lon="8.422045"><ele>125.19999999999999</ele><time>2026-05-01T08:43:30.967Z</time></trkpt><trkpt lat="44.3390888" lon="8.4219525"><ele>125.6</ele><time>2026-05-01T08:43:31.967Z</time></trkpt><trkpt lat="44.3390248" lon="8.4218579"><ele>126.0</ele><time>2026-05-01T08:43:32.966Z</time></trkpt><trkpt lat="44.3389653" lon="8.4217608"><ele>126.0</ele><time>2026-05-01T08:43:33.967Z</time></trkpt><trkpt lat="44.3389014" lon="8.4216544"><ele>126.0</ele><time>2026-05-01T08:43:34.966Z</time></trkpt><trkpt lat="44.3388272" lon="8.4215407"><ele>126.0</ele><time>2026-05-01T08:43:35.966Z</time></trkpt><trkpt lat="44.3387544" lon="8.4214326"><ele>126.0</ele><time>2026-05-01T08:43:36.966Z</time></trkpt><trkpt lat="44.3386858" lon="8.4213166"><ele>126.0</ele><time>2026-05-01T08:43:37.966Z</time></trkpt><trkpt lat="44.338625" lon="8.4211873"><ele>125.4</ele><time>2026-05-01T08:43:38.967Z</time></trkpt><trkpt lat="44.3385799" lon="8.421052"><ele>124.8</ele><time>2026-05-01T08:43:39.967Z</time></trkpt><trkpt lat="44.3385641" lon="8.4209209"><ele>124.20000000000002</ele><time>2026-05-01T08:43:40.966Z</time></trkpt><trkpt lat="44.3385705" lon="8.4207975"><ele>123.60000000000001</ele><time>2026-05-01T08:43:41.966Z</time></trkpt><trkpt lat="44.3385975" lon="8.4206864"><ele>123.0</ele><time>2026-05-01T08:43:42.966Z</time></trkpt><trkpt lat="44.3386464" lon="8.4205896"><ele>123.0</ele><time>2026-05-01T08:43:43.966Z</time></trkpt><trkpt lat="44.3387264" lon="8.4204881"><ele>123.00000000000001</ele><time>2026-05-01T08:43:44.967Z</time></trkpt><trkpt lat="44.3388151" lon="8.4203998"><ele>123.00000000000001</ele><time>2026-05-01T08:43:45.966Z</time></trkpt><trkpt lat="44.3389152" lon="8.4203543"><ele>123.0</ele><time>2026-05-01T08:43:46.966Z</time></trkpt><trkpt lat="44.3390276" lon="8.4203326"><ele>123.0</ele><time>2026-05-01T08:43:47.966Z</time></trkpt><trkpt lat="44.3391571" lon="8.4203278"><ele>122.75</ele><time>2026-05-01T08:43:48.967Z</time></trkpt><trkpt lat="44.3392861" lon="8.4203232"><ele>122.5</ele><time>2026-05-01T08:43:49.966Z</time></trkpt><trkpt lat="44.3394141" lon="8.4203204"><ele>122.25</ele><time>2026-05-01T08:43:50.966Z</time></trkpt><trkpt lat="44.3395293" lon="8.4203007"><ele>122.0</ele><time>2026-05-01T08:43:51.967Z</time></trkpt><trkpt lat="44.3396405" lon="8.4202491"><ele>124.8</ele><time>2026-05-01T08:43:52.966Z</time></trkpt><trkpt lat="44.3397407" lon="8.4201744"><ele>127.6</ele><time>2026-05-01T08:43:53.967Z</time></trkpt><trkpt lat="44.339831" lon="8.4200774"><ele>130.39999999999998</ele><time>2026-05-01T08:43:54.966Z</time></trkpt><trkpt lat="44.3399172" lon="8.419973"><ele>133.2</ele><time>2026-05-01T08:43:55.967Z</time></trkpt><trkpt lat="44.3399975" lon="8.4198807"><ele>136.0</ele><time>2026-05-01T08:43:56.966Z</time></trkpt><trkpt lat="44.3400782" lon="8.4197887"><ele>136.0</ele><time>2026-05-01T08:43:57.966Z</time></trkpt><trkpt lat="44.3401639" lon="8.4197084"><ele>136.0</ele><time>2026-05-01T08:43:58.966Z</time></trkpt><trkpt lat="44.3402477" lon="8.4196303"><ele>136.0</ele><time>2026-05-01T08:43:59.967Z</time></trkpt><trkpt lat="44.340324" lon="8.4195709"><ele>136.0</ele><time>2026-05-01T08:44:00.966Z</time></trkpt><trkpt lat="44.3404105" lon="8.4195411"><ele>136.0</ele><time>2026-05-01T08:44:01.966Z</time></trkpt><trkpt lat="44.3404988" lon="8.4195426"><ele>134.4</ele><time>2026-05-01T08:44:02.966Z</time></trkpt><trkpt lat="44.3405901" lon="8.4195652"><ele>132.8</ele><time>2026-05-01T08:44:03.966Z</time></trkpt><trkpt lat="44.3406757" lon="8.4196084"><ele>131.20000000000002</ele><time>2026-05-01T08:44:04.966Z</time></trkpt><trkpt lat="44.3407633" lon="8.4196434"><ele>129.6</ele><time>2026-05-01T08:44:05.966Z</time></trkpt><trkpt lat="44.3408516" lon="8.4196697"><ele>128.0</ele><time>2026-05-01T08:44:06.967Z</time></trkpt><trkpt lat="44.3409375" lon="8.4196728"><ele>128.0</ele><time>2026-05-01T08:44:07.966Z</time></trkpt><trkpt lat="44.3410242" lon="8.4196655"><ele>128.0</ele><time>2026-05-01T08:44:08.966Z</time></trkpt><trkpt lat="44.3411148" lon="8.4196206"><ele>128.0</ele><time>2026-05-01T08:44:09.966Z</time></trkpt><trkpt lat="44.3412065" lon="8.4195557"><ele>128.0</ele><time>2026-05-01T08:44:10.967Z</time></trkpt><trkpt lat="44.3412959" lon="8.4194883"><ele>128.0</ele><time>2026-05-01T08:44:11.967Z</time></trkpt><trkpt lat="44.3413931" lon="8.4194226"><ele>129.6</ele><time>2026-05-01T08:44:12.967Z</time></trkpt><trkpt lat="44.3414865" lon="8.4193612"><ele>131.20000000000002</ele><time>2026-05-01T08:44:13.966Z</time></trkpt><trkpt lat="44.3415764" lon="8.4193022"><ele>132.8</ele><time>2026-05-01T08:44:14.966Z</time></trkpt><trkpt lat="44.341664" lon="8.4192395"><ele>134.4</ele><time>2026-05-01T08:44:15.966Z</time></trkpt><trkpt lat="44.3417559" lon="8.4191695"><ele>136.0</ele><time>2026-05-01T08:44:16.966Z</time></trkpt><trkpt lat="44.3418488" lon="8.4190961"><ele>136.0</ele><time>2026-05-01T08:44:17.966Z</time></trkpt><trkpt lat="44.3419421" lon="8.4190226"><ele>136.0</ele><time>2026-05-01T08:44:18.966Z</time></trkpt><trkpt lat="44.34204" lon="8.4189488"><ele>136.0</ele><time>2026-05-01T08:44:19.967Z</time></trkpt><trkpt lat="44.3421415" lon="8.4188759"><ele>136.0</ele><time>2026-05-01T08:44:20.966Z</time></trkpt><trkpt lat="44.3422394" lon="8.418819"><ele>136.0</ele><time>2026-05-01T08:44:21.967Z</time></trkpt><trkpt lat="44.3423352" lon="8.4187641"><ele>135.6</ele><time>2026-05-01T08:44:22.967Z</time></trkpt><trkpt lat="44.3424366" lon="8.4187134"><ele>135.2</ele><time>2026-05-01T08:44:23.966Z</time></trkpt><trkpt lat="44.34253" lon="8.4186461"><ele>134.8</ele><time>2026-05-01T08:44:24.966Z</time></trkpt><trkpt lat="44.3426237" lon="8.418569"><ele>134.4</ele><time>2026-05-01T08:44:25.967Z</time></trkpt><trkpt lat="44.3427194" lon="8.4184865"><ele>134.0</ele><time>2026-05-01T08:44:26.966Z</time></trkpt><trkpt lat="44.3428161" lon="8.4184026"><ele>134.0</ele><time>2026-05-01T08:44:27.966Z</time></trkpt><trkpt lat="44.3429083" lon="8.4183218"><ele>134.0</ele><time>2026-05-01T08:44:28.966Z</time></trkpt><trkpt lat="44.342994" lon="8.4182275"><ele>134.0</ele><time>2026-05-01T08:44:29.966Z</time></trkpt><trkpt lat="44.343076" lon="8.4181418"><ele>134.0</ele><time>2026-05-01T08:44:30.966Z</time></trkpt><trkpt lat="44.3431521" lon="8.4180573"><ele>134.0</ele><time>2026-05-01T08:44:31.966Z</time></trkpt><trkpt lat="44.3432364" lon="8.4179684"><ele>134.4</ele><time>2026-05-01T08:44:32.966Z</time></trkpt><trkpt lat="44.3433234" lon="8.4178828"><ele>134.8</ele><time>2026-05-01T08:44:33.966Z</time></trkpt><trkpt lat="44.3434137" lon="8.4178027"><ele>135.2</ele><time>2026-05-01T08:44:34.967Z</time></trkpt><trkpt lat="44.3434993" lon="8.4177169"><ele>135.6</ele><time>2026-05-01T08:44:35.966Z</time></trkpt><trkpt lat="44.3435864" lon="8.4176334"><ele>136.0</ele><time>2026-05-01T08:44:36.967Z</time></trkpt><trkpt lat="44.3436779" lon="8.4175595"><ele>136.0</ele><time>2026-05-01T08:44:37.966Z</time></trkpt><trkpt lat="44.3437685" lon="8.4174808"><ele>136.0</ele><time>2026-05-01T08:44:38.966Z</time></trkpt><trkpt lat="44.3438517" lon="8.4174022"><ele>136.0</ele><time>2026-05-01T08:44:39.966Z</time></trkpt><trkpt lat="44.343926" lon="8.4173112"><ele>136.0</ele><time>2026-05-01T08:44:40.966Z</time></trkpt><trkpt lat="44.3440017" lon="8.4172198"><ele>136.0</ele><time>2026-05-01T08:44:41.967Z</time></trkpt><trkpt lat="44.3440748" lon="8.4171333"><ele>135.6</ele><time>2026-05-01T08:44:42.966Z</time></trkpt><trkpt lat="44.3441541" lon="8.4170543"><ele>135.2</ele><time>2026-05-01T08:44:43.966Z</time></trkpt><trkpt lat="44.3442486" lon="8.41699"><ele>134.8</ele><time>2026-05-01T08:44:44.967Z</time></trkpt><trkpt lat="44.3443439" lon="8.4169394"><ele>134.4</ele><time>2026-05-01T08:44:45.967Z</time></trkpt><trkpt lat="44.3444431" lon="8.4169076"><ele>134.0</ele><time>2026-05-01T08:44:46.966Z</time></trkpt><trkpt lat="44.3445465" lon="8.416881"><ele>134.0</ele><time>2026-05-01T08:44:47.967Z</time></trkpt><trkpt lat="44.344656" lon="8.4168643"><ele>134.0</ele><time>2026-05-01T08:44:48.967Z</time></trkpt><trkpt lat="44.3447622" lon="8.4168557"><ele>134.0</ele><time>2026-05-01T08:44:49.967Z</time></trkpt><trkpt lat="44.3448643" lon="8.4168449"><ele>134.0</ele><time>2026-05-01T08:44:50.966Z</time></trkpt><trkpt lat="44.3449678" lon="8.4168319"><ele>134.0</ele><time>2026-05-01T08:44:51.966Z</time></trkpt><trkpt lat="44.345075" lon="8.416821"><ele>134.6</ele><time>2026-05-01T08:44:52.966Z</time></trkpt><trkpt lat="44.345183" lon="8.4168075"><ele>135.2</ele><time>2026-05-01T08:44:53.966Z</time></trkpt><trkpt lat="44.3452958" lon="8.4167945"><ele>135.79999999999998</ele><time>2026-05-01T08:44:54.966Z</time></trkpt><trkpt lat="44.3454091" lon="8.4167809"><ele>136.4</ele><time>2026-05-01T08:44:55.966Z</time></trkpt><trkpt lat="44.3455159" lon="8.4167662"><ele>137.0</ele><time>2026-05-01T08:44:56.966Z</time></trkpt><trkpt lat="44.3456231" lon="8.4167416"><ele>138.5</ele><time>2026-05-01T08:44:57.966Z</time></trkpt><trkpt lat="44.3457378" lon="8.4167171"><ele>140.0</ele><time>2026-05-01T08:44:58.966Z</time></trkpt><trkpt lat="44.3458577" lon="8.4166821"><ele>141.5</ele><time>2026-05-01T08:44:59.966Z</time></trkpt><trkpt lat="44.3459764" lon="8.4166105"><ele>143.0</ele><time>2026-05-01T08:45:00.966Z</time></trkpt><trkpt lat="44.3460884" lon="8.4165356"><ele>143.0</ele><time>2026-05-01T08:45:01.966Z</time></trkpt><trkpt lat="44.3461954" lon="8.4164557"><ele>143.0</ele><time>2026-05-01T08:45:02.966Z</time></trkpt><trkpt lat="44.3462967" lon="8.4163754"><ele>143.0</ele><time>2026-05-01T08:45:03.966Z</time></trkpt><trkpt lat="44.3463934" lon="8.4163006"><ele>143.0</ele><time>2026-05-01T08:45:04.966Z</time></trkpt><trkpt lat="44.3464816" lon="8.4162054"><ele>143.5</ele><time>2026-05-01T08:45:05.966Z</time></trkpt><trkpt lat="44.3465635" lon="8.416096"><ele>144.0</ele><time>2026-05-01T08:45:06.966Z</time></trkpt><trkpt lat="44.3466347" lon="8.4159627"><ele>144.5</ele><time>2026-05-01T08:45:07.967Z</time></trkpt><trkpt lat="44.3466932" lon="8.4158257"><ele>145.0</ele><time>2026-05-01T08:45:08.966Z</time></trkpt><trkpt lat="44.3467329" lon="8.4156848"><ele>145.0</ele><time>2026-05-01T08:45:09.966Z</time></trkpt><trkpt lat="44.3467573" lon="8.4155502"><ele>145.0</ele><time>2026-05-01T08:45:10.966Z</time></trkpt><trkpt lat="44.3467707" lon="8.4154133"><ele>145.0</ele><time>2026-05-01T08:45:11.967Z</time></trkpt><trkpt lat="44.3467822" lon="8.4152733"><ele>145.0</ele><time>2026-05-01T08:45:12.967Z</time></trkpt><trkpt lat="44.3467962" lon="8.4151303"><ele>145.0</ele><time>2026-05-01T08:45:13.966Z</time></trkpt><trkpt lat="44.3468171" lon="8.4149963"><ele>143.8</ele><time>2026-05-01T08:45:14.966Z</time></trkpt><trkpt lat="44.3468417" lon="8.41486"><ele>142.6</ele><time>2026-05-01T08:45:15.966Z</time></trkpt><trkpt lat="44.3468783" lon="8.4147178"><ele>141.4</ele><time>2026-05-01T08:45:16.966Z</time></trkpt><trkpt lat="44.3469232" lon="8.4145855"><ele>140.2</ele><time>2026-05-01T08:45:17.966Z</time></trkpt><trkpt lat="44.3469759" lon="8.4144685"><ele>139.0</ele><time>2026-05-01T08:45:18.967Z</time></trkpt><trkpt lat="44.3470235" lon="8.4143674"><ele>138.85714285714286</ele><time>2026-05-01T08:45:19.966Z</time></trkpt><trkpt lat="44.3470731" lon="8.4142874"><ele>138.71428571428572</ele><time>2026-05-01T08:45:20.967Z</time></trkpt><trkpt lat="44.3471222" lon="8.4142203"><ele>138.57142857142858</ele><time>2026-05-01T08:45:21.966Z</time></trkpt><trkpt lat="44.3471733" lon="8.4141598"><ele>138.42857142857144</ele><time>2026-05-01T08:45:22.966Z</time></trkpt><trkpt lat="44.3472279" lon="8.4141075"><ele>138.2857142857143</ele><time>2026-05-01T08:45:23.967Z</time></trkpt><trkpt lat="44.3472849" lon="8.4140574"><ele>138.14285714285714</ele><time>2026-05-01T08:45:24.966Z</time></trkpt><trkpt lat="44.3473463" lon="8.4140283"><ele>138.0</ele><time>2026-05-01T08:45:25.966Z</time></trkpt><trkpt lat="44.3474636" lon="8.4139883"><ele>139.6</ele><time>2026-05-01T08:45:27.966Z</time></trkpt><trkpt lat="44.3475856" lon="8.4139729"><ele>141.20000000000002</ele><time>2026-05-01T08:45:29.966Z</time></trkpt><trkpt lat="44.3476645" lon="8.4139597"><ele>142.8</ele><time>2026-05-01T08:45:30.967Z</time></trkpt><trkpt lat="44.3477494" lon="8.4139477"><ele>144.4</ele><time>2026-05-01T08:45:31.967Z</time></trkpt><trkpt lat="44.347844" lon="8.4139435"><ele>146.0</ele><time>2026-05-01T08:45:32.966Z</time></trkpt><trkpt lat="44.3479483" lon="8.4139394"><ele>150.0</ele><time>2026-05-01T08:45:33.967Z</time></trkpt><trkpt lat="44.3480733" lon="8.41394"><ele>154.0</ele><time>2026-05-01T08:45:34.966Z</time></trkpt><trkpt lat="44.3481939" lon="8.4139532"><ele>158.0</ele><time>2026-05-01T08:45:35.966Z</time></trkpt><trkpt lat="44.3483094" lon="8.4139658"><ele>162.0</ele><time>2026-05-01T08:45:36.967Z</time></trkpt><trkpt lat="44.3484228" lon="8.4139773"><ele>162.0</ele><time>2026-05-01T08:45:37.966Z</time></trkpt><trkpt lat="44.3485255" lon="8.4139855"><ele>162.0</ele><time>2026-05-01T08:45:38.967Z</time></trkpt><trkpt lat="44.3486325" lon="8.4139961"><ele>162.0</ele><time>2026-05-01T08:45:39.966Z</time></trkpt><trkpt lat="44.3487407" lon="8.4140148"><ele>162.0</ele><time>2026-05-01T08:45:40.967Z</time></trkpt><trkpt lat="44.3488478" lon="8.4140068"><ele>162.0</ele><time>2026-05-01T08:45:41.967Z</time></trkpt><trkpt lat="44.3489508" lon="8.4140052"><ele>163.39999999999998</ele><time>2026-05-01T08:45:42.967Z</time></trkpt><trkpt lat="44.3490589" lon="8.4140261"><ele>164.79999999999998</ele><time>2026-05-01T08:45:43.966Z</time></trkpt><trkpt lat="44.3491605" lon="8.4140636"><ele>166.2</ele><time>2026-05-01T08:45:44.966Z</time></trkpt><trkpt lat="44.34925" lon="8.4141211"><ele>167.6</ele><time>2026-05-01T08:45:45.967Z</time></trkpt><trkpt lat="44.3493246" lon="8.4142051"><ele>169.0</ele><time>2026-05-01T08:45:46.966Z</time></trkpt><trkpt lat="44.3493895" lon="8.4143254"><ele>169.0</ele><time>2026-05-01T08:45:47.966Z</time></trkpt><trkpt lat="44.3494487" lon="8.41447"><ele>169.0</ele><time>2026-05-01T08:45:48.967Z</time></trkpt><trkpt lat="44.3495125" lon="8.4146084"><ele>169.0</ele><time>2026-05-01T08:45:49.966Z</time></trkpt><trkpt lat="44.3495824" lon="8.4147439"><ele>169.0</ele><time>2026-05-01T08:45:50.967Z</time></trkpt><trkpt lat="44.3496658" lon="8.4148707"><ele>171.75</ele><time>2026-05-01T08:45:51.967Z</time></trkpt><trkpt lat="44.3497636" lon="8.4149894"><ele>174.5</ele><time>2026-05-01T08:45:52.966Z</time></trkpt><trkpt lat="44.349878" lon="8.4151001"><ele>177.25</ele><time>2026-05-01T08:45:53.966Z</time></trkpt><trkpt lat="44.3500076" lon="8.4152063"><ele>180.0</ele><time>2026-05-01T08:45:54.966Z</time></trkpt><trkpt lat="44.3501367" lon="8.4153148"><ele>180.0</ele><time>2026-05-01T08:45:55.966Z</time></trkpt><trkpt lat="44.3502705" lon="8.4154273"><ele>180.0</ele><time>2026-05-01T08:45:56.966Z</time></trkpt><trkpt lat="44.3504076" lon="8.4155453"><ele>180.0</ele><time>2026-05-01T08:45:57.966Z</time></trkpt><trkpt lat="44.3505501" lon="8.415666"><ele>183.33333333333334</ele><time>2026-05-01T08:45:58.967Z</time></trkpt><trkpt lat="44.3507003" lon="8.4157839"><ele>186.66666666666669</ele><time>2026-05-01T08:45:59.967Z</time></trkpt><trkpt lat="44.3508389" lon="8.4158864"><ele>190.0</ele><time>2026-05-01T08:46:00.966Z</time></trkpt><trkpt lat="44.3510004" lon="8.4159559"><ele>190.0</ele><time>2026-05-01T08:46:01.966Z</time></trkpt><trkpt lat="44.351171" lon="8.4160222"><ele>190.0</ele><time>2026-05-01T08:46:02.966Z</time></trkpt><trkpt lat="44.3513274" lon="8.4160833"><ele>190.0</ele><time>2026-05-01T08:46:03.966Z</time></trkpt><trkpt lat="44.3514659" lon="8.4161411"><ele>190.4</ele><time>2026-05-01T08:46:04.966Z</time></trkpt><trkpt lat="44.3515905" lon="8.4161885"><ele>190.8</ele><time>2026-05-01T08:46:05.967Z</time></trkpt><trkpt lat="44.3517008" lon="8.4162287"><ele>191.2</ele><time>2026-05-01T08:46:06.967Z</time></trkpt><trkpt lat="44.3518005" lon="8.4162541"><ele>191.6</ele><time>2026-05-01T08:46:07.966Z</time></trkpt><trkpt lat="44.3518947" lon="8.4162596"><ele>192.0</ele><time>2026-05-01T08:46:08.966Z</time></trkpt><trkpt lat="44.3519859" lon="8.4162367"><ele>192.0</ele><time>2026-05-01T08:46:09.966Z</time></trkpt><trkpt lat="44.3520627" lon="8.4161903"><ele>192.0</ele><time>2026-05-01T08:46:10.966Z</time></trkpt><trkpt lat="44.3521162" lon="8.4160729"><ele>192.0</ele><time>2026-05-01T08:46:11.966Z</time></trkpt><trkpt lat="44.3521447" lon="8.4159143"><ele>192.0</ele><time>2026-05-01T08:46:12.966Z</time></trkpt><trkpt lat="44.3521462" lon="8.4157548"><ele>192.0</ele><time>2026-05-01T08:46:13.966Z</time></trkpt><trkpt lat="44.3521266" lon="8.4155983"><ele>198.25</ele><time>2026-05-01T08:46:14.966Z</time></trkpt><trkpt lat="44.3520824" lon="8.4154303"><ele>204.5</ele><time>2026-05-01T08:46:15.966Z</time></trkpt><trkpt lat="44.35198" lon="8.4153078"><ele>210.75</ele><time>2026-05-01T08:46:16.966Z</time></trkpt><trkpt lat="44.3518645" lon="8.4152133"><ele>217.0</ele><time>2026-05-01T08:46:17.966Z</time></trkpt><trkpt lat="44.3517331" lon="8.4151557"><ele>217.0</ele><time>2026-05-01T08:46:18.966Z</time></trkpt><trkpt lat="44.3516073" lon="8.4151125"><ele>217.0</ele><time>2026-05-01T08:46:19.966Z</time></trkpt><trkpt lat="44.3514938" lon="8.415082"><ele>217.0</ele><time>2026-05-01T08:46:20.966Z</time></trkpt><trkpt lat="44.3513859" lon="8.4150365"><ele>217.0</ele><time>2026-05-01T08:46:21.966Z</time></trkpt><trkpt lat="44.3512726" lon="8.4149581"><ele>215.5</ele><time>2026-05-01T08:46:22.966Z</time></trkpt><trkpt lat="44.3511832" lon="8.4148672"><ele>214.0</ele><time>2026-05-01T08:46:23.967Z</time></trkpt><trkpt lat="44.351117" lon="8.4147437"><ele>212.5</ele><time>2026-05-01T08:46:24.967Z</time></trkpt><trkpt lat="44.3510663" lon="8.4145956"><ele>211.0</ele><time>2026-05-01T08:46:25.966Z</time></trkpt><trkpt lat="44.351016" lon="8.4144374"><ele>211.0</ele><time>2026-05-01T08:46:26.966Z</time></trkpt><trkpt lat="44.3509603" lon="8.4142861"><ele>211.0</ele><time>2026-05-01T08:46:27.966Z</time></trkpt><trkpt lat="44.3509016" lon="8.4141517"><ele>211.0</ele><time>2026-05-01T08:46:28.967Z</time></trkpt><trkpt lat="44.3508264" lon="8.4140361"><ele>211.0</ele><time>2026-05-01T08:46:29.967Z</time></trkpt><trkpt lat="44.3507256" lon="8.4139424"><ele>211.0</ele><time>2026-05-01T08:46:30.966Z</time></trkpt><trkpt lat="44.3506138" lon="8.4138549"><ele>211.0</ele><time>2026-05-01T08:46:31.967Z</time></trkpt><trkpt lat="44.3505074" lon="8.4137716"><ele>211.0</ele><time>2026-05-01T08:46:32.966Z</time></trkpt><trkpt lat="44.3504142" lon="8.4136829"><ele>211.0</ele><time>2026-05-01T08:46:33.967Z</time></trkpt><trkpt lat="44.3503367" lon="8.4135789"><ele>209.25</ele><time>2026-05-01T08:46:34.966Z</time></trkpt><trkpt lat="44.3502759" lon="8.4134458"><ele>207.5</ele><time>2026-05-01T08:46:35.966Z</time></trkpt><trkpt lat="44.3502211" lon="8.4133046"><ele>205.75</ele><time>2026-05-01T08:46:36.966Z</time></trkpt><trkpt lat="44.3501599" lon="8.4131644"><ele>204.0</ele><time>2026-05-01T08:46:37.966Z</time></trkpt><trkpt lat="44.3500869" lon="8.4130305"><ele>207.75</ele><time>2026-05-01T08:46:38.967Z</time></trkpt><trkpt lat="44.3500153" lon="8.4128973"><ele>211.5</ele><time>2026-05-01T08:46:39.967Z</time></trkpt><trkpt lat="44.3499384" lon="8.4127774"><ele>215.25</ele><time>2026-05-01T08:46:40.966Z</time></trkpt><trkpt lat="44.3498595" lon="8.412669"><ele>219.0</ele><time>2026-05-01T08:46:41.967Z</time></trkpt><trkpt lat="44.3497746" lon="8.4125653"><ele>215.16666666666666</ele><time>2026-05-01T08:46:42.967Z</time></trkpt><trkpt lat="44.3497042" lon="8.4124705"><ele>211.33333333333331</ele><time>2026-05-01T08:46:43.967Z</time></trkpt><trkpt lat="44.3496561" lon="8.4123806"><ele>207.5</ele><time>2026-05-01T08:46:44.966Z</time></trkpt><trkpt lat="44.3496355" lon="8.4122768"><ele>203.66666666666666</ele><time>2026-05-01T08:46:45.967Z</time></trkpt><trkpt lat="44.349641" lon="8.4121821"><ele>199.83333333333331</ele><time>2026-05-01T08:46:46.967Z</time></trkpt><trkpt lat="44.3496685" lon="8.4120891"><ele>196.0</ele><time>2026-05-01T08:46:47.966Z</time></trkpt><trkpt lat="44.3497187" lon="8.412023"><ele>196.0</ele><time>2026-05-01T08:46:48.967Z</time></trkpt><trkpt lat="44.3497785" lon="8.4119927"><ele>196.0</ele><time>2026-05-01T08:46:49.967Z</time></trkpt><trkpt lat="44.3498624" lon="8.4120063"><ele>196.0</ele><time>2026-05-01T08:46:50.967Z</time></trkpt><trkpt lat="44.3499742" lon="8.412065"><ele>196.0</ele><time>2026-05-01T08:46:51.967Z</time></trkpt><trkpt lat="44.3501082" lon="8.4121982"><ele>196.0</ele><time>2026-05-01T08:46:52.967Z</time></trkpt><trkpt lat="44.3502239" lon="8.4123413"><ele>200.75</ele><time>2026-05-01T08:46:53.966Z</time></trkpt><trkpt lat="44.3503305" lon="8.4124898"><ele>205.5</ele><time>2026-05-01T08:46:54.967Z</time></trkpt><trkpt lat="44.3504278" lon="8.4126207"><ele>210.25</ele><time>2026-05-01T08:46:55.966Z</time></trkpt><trkpt lat="44.3505223" lon="8.412753"><ele>215.0</ele><time>2026-05-01T08:46:56.966Z</time></trkpt><trkpt lat="44.3506159" lon="8.412875"><ele>215.0</ele><time>2026-05-01T08:46:57.966Z</time></trkpt><trkpt lat="44.3507109" lon="8.4129884"><ele>215.0</ele><time>2026-05-01T08:46:58.967Z</time></trkpt><trkpt lat="44.3508023" lon="8.4130845"><ele>215.0</ele><time>2026-05-01T08:46:59.967Z</time></trkpt><trkpt lat="44.3509001" lon="8.4131654"><ele>215.0</ele><time>2026-05-01T08:47:00.966Z</time></trkpt><trkpt lat="44.3509991" lon="8.4132248"><ele>219.0</ele><time>2026-05-01T08:47:01.966Z</time></trkpt><trkpt lat="44.3511104" lon="8.4132508"><ele>223.0</ele><time>2026-05-01T08:47:02.966Z</time></trkpt><trkpt lat="44.3512295" lon="8.4132468"><ele>227.0</ele><time>2026-05-01T08:47:03.966Z</time></trkpt><trkpt lat="44.3513518" lon="8.4132095"><ele>231.0</ele><time>2026-05-01T08:47:04.967Z</time></trkpt><trkpt lat="44.3514668" lon="8.4131768"><ele>233.60000000000002</ele><time>2026-05-01T08:47:05.966Z</time></trkpt><trkpt lat="44.3515694" lon="8.4131487"><ele>236.20000000000002</ele><time>2026-05-01T08:47:06.967Z</time></trkpt><trkpt lat="44.3516667" lon="8.4131226"><ele>238.79999999999998</ele><time>2026-05-01T08:47:07.966Z</time></trkpt><trkpt lat="44.3517741" lon="8.4131068"><ele>241.39999999999998</ele><time>2026-05-01T08:47:08.966Z</time></trkpt><trkpt lat="44.3518886" lon="8.4131129"><ele>244.0</ele><time>2026-05-01T08:47:09.967Z</time></trkpt><trkpt lat="44.3520016" lon="8.4131393"><ele>244.0</ele><time>2026-05-01T08:47:10.966Z</time></trkpt><trkpt lat="44.3521201" lon="8.4131812"><ele>244.0</ele><time>2026-05-01T08:47:11.966Z</time></trkpt><trkpt lat="44.3522291" lon="8.413235"><ele>244.0</ele><time>2026-05-01T08:47:12.966Z</time></trkpt><trkpt lat="44.3523402" lon="8.4132819"><ele>244.0</ele><time>2026-05-01T08:47:13.967Z</time></trkpt><trkpt lat="44.352457" lon="8.4133109"><ele>247.0</ele><time>2026-05-01T08:47:14.966Z</time></trkpt><trkpt lat="44.3525819" lon="8.4133351"><ele>250.0</ele><time>2026-05-01T08:47:15.966Z</time></trkpt><trkpt lat="44.3527061" lon="8.4133621"><ele>253.0</ele><time>2026-05-01T08:47:16.966Z</time></trkpt><trkpt lat="44.3528263" lon="8.4133885"><ele>256.0</ele><time>2026-05-01T08:47:17.967Z</time></trkpt><trkpt lat="44.3529449" lon="8.4134278"><ele>254.60000000000002</ele><time>2026-05-01T08:47:18.967Z</time></trkpt><trkpt lat="44.3530568" lon="8.4134807"><ele>253.20000000000002</ele><time>2026-05-01T08:47:19.966Z</time></trkpt><trkpt lat="44.3531628" lon="8.4135394"><ele>251.79999999999998</ele><time>2026-05-01T08:47:20.966Z</time></trkpt><trkpt lat="44.3532609" lon="8.413609"><ele>250.39999999999998</ele><time>2026-05-01T08:47:21.966Z</time></trkpt><trkpt lat="44.3533544" lon="8.4136797"><ele>249.0</ele><time>2026-05-01T08:47:22.966Z</time></trkpt><trkpt lat="44.3534481" lon="8.4137369"><ele>249.0</ele><time>2026-05-01T08:47:23.966Z</time></trkpt><trkpt lat="44.3535396" lon="8.4137604"><ele>249.0</ele><time>2026-05-01T08:47:24.966Z</time></trkpt><trkpt lat="44.3536429" lon="8.4137345"><ele>249.0</ele><time>2026-05-01T08:47:25.966Z</time></trkpt><trkpt lat="44.3537666" lon="8.413665"><ele>249.0</ele><time>2026-05-01T08:47:26.966Z</time></trkpt><trkpt lat="44.3538832" lon="8.4135892"><ele>253.75</ele><time>2026-05-01T08:47:27.966Z</time></trkpt><trkpt lat="44.3539912" lon="8.4134885"><ele>258.5</ele><time>2026-05-01T08:47:28.966Z</time></trkpt><trkpt lat="44.3540994" lon="8.4133937"><ele>263.25</ele><time>2026-05-01T08:47:29.967Z</time></trkpt><trkpt lat="44.3542013" lon="8.4133036"><ele>268.0</ele><time>2026-05-01T08:47:30.966Z</time></trkpt><trkpt lat="44.354298" lon="8.4132178"><ele>268.0</ele><time>2026-05-01T08:47:31.966Z</time></trkpt><trkpt lat="44.3543873" lon="8.4131022"><ele>268.0</ele><time>2026-05-01T08:47:32.966Z</time></trkpt><trkpt lat="44.3544817" lon="8.4129936"><ele>268.0</ele><time>2026-05-01T08:47:33.966Z</time></trkpt><trkpt lat="44.3545709" lon="8.4128726"><ele>268.0</ele><time>2026-05-01T08:47:34.966Z</time></trkpt><trkpt lat="44.3546437" lon="8.4127407"><ele>271.5</ele><time>2026-05-01T08:47:35.966Z</time></trkpt><trkpt lat="44.3547234" lon="8.4125986"><ele>275.0</ele><time>2026-05-01T08:47:36.966Z</time></trkpt><trkpt lat="44.3548024" lon="8.4124602"><ele>278.5</ele><time>2026-05-01T08:47:37.966Z</time></trkpt><trkpt lat="44.3548819" lon="8.4123224"><ele>282.0</ele><time>2026-05-01T08:47:38.967Z</time></trkpt><trkpt lat="44.3549639" lon="8.4121811"><ele>280.25</ele><time>2026-05-01T08:47:39.966Z</time></trkpt><trkpt lat="44.355042" lon="8.4120308"><ele>278.5</ele><time>2026-05-01T08:47:40.966Z</time></trkpt><trkpt lat="44.3551282" lon="8.4118853"><ele>276.75</ele><time>2026-05-01T08:47:41.967Z</time></trkpt><trkpt lat="44.3552236" lon="8.4117399"><ele>275.0</ele><time>2026-05-01T08:47:42.966Z</time></trkpt><trkpt lat="44.355324" lon="8.4116102"><ele>275.0</ele><time>2026-05-01T08:47:43.966Z</time></trkpt><trkpt lat="44.355417" lon="8.4114973"><ele>275.0</ele><time>2026-05-01T08:47:44.966Z</time></trkpt><trkpt lat="44.3555116" lon="8.4114103"><ele>275.0</ele><time>2026-05-01T08:47:45.966Z</time></trkpt><trkpt lat="44.3556008" lon="8.4113376"><ele>275.0</ele><time>2026-05-01T08:47:46.966Z</time></trkpt><trkpt lat="44.3556758" lon="8.4112665"><ele>275.0</ele><time>2026-05-01T08:47:47.967Z</time></trkpt><trkpt lat="44.3557386" lon="8.4111809"><ele>279.83333333333337</ele><time>2026-05-01T08:47:48.967Z</time></trkpt><trkpt lat="44.3557898" lon="8.4110881"><ele>284.6666666666667</ele><time>2026-05-01T08:47:49.966Z</time></trkpt><trkpt lat="44.3558163" lon="8.4109681"><ele>289.5</ele><time>2026-05-01T08:47:50.967Z</time></trkpt><trkpt lat="44.3558147" lon="8.4108343"><ele>294.3333333333333</ele><time>2026-05-01T08:47:51.967Z</time></trkpt><trkpt lat="44.3557955" lon="8.4107095"><ele>299.16666666666663</ele><time>2026-05-01T08:47:52.966Z</time></trkpt><trkpt lat="44.3557373" lon="8.4106274"><ele>304.0</ele><time>2026-05-01T08:47:53.967Z</time></trkpt><trkpt lat="44.3556762" lon="8.4105668"><ele>300.5</ele><time>2026-05-01T08:47:54.967Z</time></trkpt><trkpt lat="44.3555355" lon="8.4105162"><ele>297.0</ele><time>2026-05-01T08:47:56.966Z</time></trkpt><trkpt lat="44.355416" lon="8.4105284"><ele>293.5</ele><time>2026-05-01T08:47:57.967Z</time></trkpt><trkpt lat="44.3552482" lon="8.4105562"><ele>290.0</ele><time>2026-05-01T08:47:58.967Z</time></trkpt><trkpt lat="44.3550748" lon="8.4105766"><ele>290.0</ele><time>2026-05-01T08:47:59.966Z</time></trkpt><trkpt lat="44.3549201" lon="8.4105699"><ele>290.0</ele><time>2026-05-01T08:48:00.966Z</time></trkpt><trkpt lat="44.3547751" lon="8.4105805"><ele>290.0</ele><time>2026-05-01T08:48:01.966Z</time></trkpt><trkpt lat="44.3546413" lon="8.4105563"><ele>290.0</ele><time>2026-05-01T08:48:02.966Z</time></trkpt><trkpt lat="44.3545199" lon="8.4105043"><ele>289.0</ele><time>2026-05-01T08:48:03.966Z</time></trkpt><trkpt lat="44.3544281" lon="8.4104148"><ele>288.0</ele><time>2026-05-01T08:48:04.966Z</time></trkpt><trkpt lat="44.3543672" lon="8.4102885"><ele>287.0</ele><time>2026-05-01T08:48:05.966Z</time></trkpt><trkpt lat="44.3543212" lon="8.4101392"><ele>286.0</ele><time>2026-05-01T08:48:06.966Z</time></trkpt><trkpt lat="44.3543068" lon="8.4099994"><ele>285.0</ele><time>2026-05-01T08:48:07.967Z</time></trkpt><trkpt lat="44.3543218" lon="8.4098578"><ele>285.0</ele><time>2026-05-01T08:48:08.966Z</time></trkpt><trkpt lat="44.3543661" lon="8.4097393"><ele>285.0</ele><time>2026-05-01T08:48:09.966Z</time></trkpt><trkpt lat="44.3544628" lon="8.4096226"><ele>285.0</ele><time>2026-05-01T08:48:10.966Z</time></trkpt><trkpt lat="44.3545789" lon="8.4095025"><ele>285.0</ele><time>2026-05-01T08:48:11.966Z</time></trkpt><trkpt lat="44.3547086" lon="8.4093635"><ele>289.5</ele><time>2026-05-01T08:48:12.967Z</time></trkpt><trkpt lat="44.3548194" lon="8.4092263"><ele>294.0</ele><time>2026-05-01T08:48:13.966Z</time></trkpt><trkpt lat="44.3549152" lon="8.4090975"><ele>298.5</ele><time>2026-05-01T08:48:14.966Z</time></trkpt><trkpt lat="44.3549882" lon="8.4089764"><ele>303.0</ele><time>2026-05-01T08:48:15.966Z</time></trkpt><trkpt lat="44.3550581" lon="8.4088611"><ele>301.6</ele><time>2026-05-01T08:48:16.966Z</time></trkpt><trkpt lat="44.3551156" lon="8.4087467"><ele>300.20000000000005</ele><time>2026-05-01T08:48:17.966Z</time></trkpt><trkpt lat="44.3551584" lon="8.4086256"><ele>298.8</ele><time>2026-05-01T08:48:18.966Z</time></trkpt><trkpt lat="44.3551966" lon="8.4084992"><ele>297.40000000000003</ele><time>2026-05-01T08:48:19.966Z</time></trkpt><trkpt lat="44.3552274" lon="8.4083585"><ele>296.0</ele><time>2026-05-01T08:48:20.966Z</time></trkpt><trkpt lat="44.3552506" lon="8.4082165"><ele>296.0</ele><time>2026-05-01T08:48:21.966Z</time></trkpt><trkpt lat="44.3552737" lon="8.4080741"><ele>296.0</ele><time>2026-05-01T08:48:22.967Z</time></trkpt><trkpt lat="44.3553047" lon="8.4079329"><ele>296.0</ele><time>2026-05-01T08:48:23.966Z</time></trkpt><trkpt lat="44.3553453" lon="8.4078028"><ele>296.0</ele><time>2026-05-01T08:48:24.967Z</time></trkpt><trkpt lat="44.3553892" lon="8.4076807"><ele>296.0</ele><time>2026-05-01T08:48:25.966Z</time></trkpt><trkpt lat="44.3554422" lon="8.4075657"><ele>295.0</ele><time>2026-05-01T08:48:26.966Z</time></trkpt><trkpt lat="44.3555003" lon="8.4074415"><ele>294.0</ele><time>2026-05-01T08:48:27.966Z</time></trkpt><trkpt lat="44.3555559" lon="8.4073043"><ele>293.0</ele><time>2026-05-01T08:48:28.966Z</time></trkpt><trkpt lat="44.3556105" lon="8.4071641"><ele>292.0</ele><time>2026-05-01T08:48:29.966Z</time></trkpt><trkpt lat="44.3556694" lon="8.4070206"><ele>298.75</ele><time>2026-05-01T08:48:30.967Z</time></trkpt><trkpt lat="44.3557337" lon="8.4068817"><ele>305.5</ele><time>2026-05-01T08:48:31.966Z</time></trkpt><trkpt lat="44.3558051" lon="8.4067486"><ele>312.25</ele><time>2026-05-01T08:48:32.965Z</time></trkpt><trkpt lat="44.3558773" lon="8.4066223"><ele>319.0</ele><time>2026-05-01T08:48:33.965Z</time></trkpt><trkpt lat="44.3559415" lon="8.406508"><ele>319.0</ele><time>2026-05-01T08:48:34.965Z</time></trkpt><trkpt lat="44.355991" lon="8.4063977"><ele>319.0</ele><time>2026-05-01T08:48:35.965Z</time></trkpt><trkpt lat="44.3560223" lon="8.4062869"><ele>319.0</ele><time>2026-05-01T08:48:36.965Z</time></trkpt><trkpt lat="44.3560402" lon="8.4061645"><ele>319.0</ele><time>2026-05-01T08:48:37.965Z</time></trkpt><trkpt lat="44.3560403" lon="8.4060313"><ele>319.0</ele><time>2026-05-01T08:48:38.965Z</time></trkpt><trkpt lat="44.3560143" lon="8.4059083"><ele>321.4</ele><time>2026-05-01T08:48:39.965Z</time></trkpt><trkpt lat="44.3559844" lon="8.4057977"><ele>323.79999999999995</ele><time>2026-05-01T08:48:40.966Z</time></trkpt><trkpt lat="44.3559253" lon="8.4057147"><ele>326.20000000000005</ele><time>2026-05-01T08:48:41.965Z</time></trkpt><trkpt lat="44.3558333" lon="8.4056553"><ele>328.6</ele><time>2026-05-01T08:48:42.965Z</time></trkpt><trkpt lat="44.3557143" lon="8.4056107"><ele>331.0</ele><time>2026-05-01T08:48:43.966Z</time></trkpt><trkpt lat="44.3555756" lon="8.4055565"><ele>335.0</ele><time>2026-05-01T08:48:44.965Z</time></trkpt><trkpt lat="44.3554426" lon="8.4054823"><ele>339.0</ele><time>2026-05-01T08:48:45.965Z</time></trkpt><trkpt lat="44.3553071" lon="8.405398"><ele>343.0</ele><time>2026-05-01T08:48:46.965Z</time></trkpt><trkpt lat="44.3551832" lon="8.4052988"><ele>347.0</ele><time>2026-05-01T08:48:47.965Z</time></trkpt><trkpt lat="44.3550642" lon="8.4052033"><ele>347.0</ele><time>2026-05-01T08:48:48.965Z</time></trkpt><trkpt lat="44.3549471" lon="8.4051135"><ele>347.0</ele><time>2026-05-01T08:48:49.965Z</time></trkpt><trkpt lat="44.354832" lon="8.4050288"><ele>347.0</ele><time>2026-05-01T08:48:50.965Z</time></trkpt><trkpt lat="44.3547184" lon="8.4049349"><ele>347.0</ele><time>2026-05-01T08:48:51.965Z</time></trkpt><trkpt lat="44.3546169" lon="8.4048449"><ele>346.75</ele><time>2026-05-01T08:48:52.965Z</time></trkpt><trkpt lat="44.3545213" lon="8.4047442"><ele>346.5</ele><time>2026-05-01T08:48:53.965Z</time></trkpt><trkpt lat="44.3544348" lon="8.4046436"><ele>346.25</ele><time>2026-05-01T08:48:54.965Z</time></trkpt><trkpt lat="44.3543617" lon="8.4045364"><ele>346.0</ele><time>2026-05-01T08:48:55.965Z</time></trkpt><trkpt lat="44.3543116" lon="8.4043956"><ele>346.0</ele><time>2026-05-01T08:48:56.965Z</time></trkpt><trkpt lat="44.3542735" lon="8.4042363"><ele>346.0</ele><time>2026-05-01T08:48:57.965Z</time></trkpt><trkpt lat="44.3542482" lon="8.4040572"><ele>346.0</ele><time>2026-05-01T08:48:58.966Z</time></trkpt><trkpt lat="44.3542216" lon="8.4038781"><ele>346.0</ele><time>2026-05-01T08:48:59.965Z</time></trkpt><trkpt lat="44.3542195" lon="8.4036993"><ele>347.5</ele><time>2026-05-01T08:49:00.966Z</time></trkpt><trkpt lat="44.354218" lon="8.4035389"><ele>349.0</ele><time>2026-05-01T08:49:01.965Z</time></trkpt><trkpt lat="44.3542091" lon="8.4033704"><ele>350.5</ele><time>2026-05-01T08:49:02.965Z</time></trkpt><trkpt lat="44.3541976" lon="8.4031994"><ele>352.0</ele><time>2026-05-01T08:49:03.966Z</time></trkpt><trkpt lat="44.3541669" lon="8.4030319"><ele>354.6</ele><time>2026-05-01T08:49:04.965Z</time></trkpt><trkpt lat="44.3541283" lon="8.4028693"><ele>357.20000000000005</ele><time>2026-05-01T08:49:05.966Z</time></trkpt><trkpt lat="44.3540905" lon="8.4027265"><ele>359.8</ele><time>2026-05-01T08:49:06.966Z</time></trkpt><trkpt lat="44.354056" lon="8.4026049"><ele>362.4</ele><time>2026-05-01T08:49:07.965Z</time></trkpt><trkpt lat="44.3540193" lon="8.402465"><ele>365.0</ele><time>2026-05-01T08:49:08.965Z</time></trkpt><trkpt lat="44.3539879" lon="8.4023231"><ele>365.0</ele><time>2026-05-01T08:49:09.965Z</time></trkpt><trkpt lat="44.3539551" lon="8.4021866"><ele>365.0</ele><time>2026-05-01T08:49:10.966Z</time></trkpt><trkpt lat="44.3539248" lon="8.4020488"><ele>365.0</ele><time>2026-05-01T08:49:11.965Z</time></trkpt><trkpt lat="44.3538921" lon="8.4019174"><ele>365.0</ele><time>2026-05-01T08:49:12.965Z</time></trkpt><trkpt lat="44.3538584" lon="8.4017865"><ele>365.0</ele><time>2026-05-01T08:49:13.965Z</time></trkpt><trkpt lat="44.3538323" lon="8.401654"><ele>363.6</ele><time>2026-05-01T08:49:14.965Z</time></trkpt><trkpt lat="44.3538025" lon="8.4015223"><ele>362.2</ele><time>2026-05-01T08:49:15.965Z</time></trkpt><trkpt lat="44.3537712" lon="8.4013853"><ele>360.79999999999995</ele><time>2026-05-01T08:49:16.965Z</time></trkpt><trkpt lat="44.3537363" lon="8.4012426"><ele>359.4</ele><time>2026-05-01T08:49:17.965Z</time></trkpt><trkpt lat="44.3536972" lon="8.4010931"><ele>358.0</ele><time>2026-05-01T08:49:18.965Z</time></trkpt><trkpt lat="44.3536519" lon="8.400941"><ele>358.0</ele><time>2026-05-01T08:49:19.965Z</time></trkpt><trkpt lat="44.3536044" lon="8.4007833"><ele>358.0</ele><time>2026-05-01T08:49:20.966Z</time></trkpt><trkpt lat="44.3535893" lon="8.4006238"><ele>358.0</ele><time>2026-05-01T08:49:21.965Z</time></trkpt><trkpt lat="44.3535752" lon="8.4004917"><ele>358.0</ele><time>2026-05-01T08:49:22.965Z</time></trkpt><trkpt lat="44.3535703" lon="8.4003693"><ele>358.0</ele><time>2026-05-01T08:49:23.966Z</time></trkpt><trkpt lat="44.3535847" lon="8.4002522"><ele>357.4</ele><time>2026-05-01T08:49:24.966Z</time></trkpt><trkpt lat="44.3536196" lon="8.4001323"><ele>356.79999999999995</ele><time>2026-05-01T08:49:25.965Z</time></trkpt><trkpt lat="44.3536783" lon="8.4000189"><ele>356.2</ele><time>2026-05-01T08:49:26.965Z</time></trkpt><trkpt lat="44.3537504" lon="8.3999137"><ele>355.6</ele><time>2026-05-01T08:49:27.965Z</time></trkpt><trkpt lat="44.3538223" lon="8.3998033"><ele>355.0</ele><time>2026-05-01T08:49:28.965Z</time></trkpt><trkpt lat="44.3538879" lon="8.3996889"><ele>360.6</ele><time>2026-05-01T08:49:29.965Z</time></trkpt><trkpt lat="44.3539477" lon="8.3995663"><ele>366.2</ele><time>2026-05-01T08:49:30.965Z</time></trkpt><trkpt lat="44.3539873" lon="8.3994315"><ele>371.79999999999995</ele><time>2026-05-01T08:49:31.965Z</time></trkpt><trkpt lat="44.3539967" lon="8.3992915"><ele>377.4</ele><time>2026-05-01T08:49:32.966Z</time></trkpt><trkpt lat="44.3539682" lon="8.3991534"><ele>383.0</ele><time>2026-05-01T08:49:33.966Z</time></trkpt><trkpt lat="44.3539286" lon="8.3990106"><ele>383.0</ele><time>2026-05-01T08:49:34.965Z</time></trkpt><trkpt lat="44.3539113" lon="8.3988806"><ele>383.0</ele><time>2026-05-01T08:49:35.966Z</time></trkpt><trkpt lat="44.3539222" lon="8.3987629"><ele>383.0</ele><time>2026-05-01T08:49:36.965Z</time></trkpt><trkpt lat="44.3539578" lon="8.3986514"><ele>383.0</ele><time>2026-05-01T08:49:37.965Z</time></trkpt><trkpt lat="44.3540089" lon="8.3985532"><ele>383.0</ele><time>2026-05-01T08:49:38.966Z</time></trkpt><trkpt lat="44.3540554" lon="8.3984702"><ele>383.0</ele><time>2026-05-01T08:49:39.965Z</time></trkpt><trkpt lat="44.3541694" lon="8.3984096"><ele>383.0</ele><time>2026-05-01T08:49:41.966Z</time></trkpt><trkpt lat="44.3542472" lon="8.3984472"><ele>383.0</ele><time>2026-05-01T08:49:42.965Z</time></trkpt><trkpt lat="44.3543492" lon="8.3985571"><ele>383.0</ele><time>2026-05-01T08:49:43.966Z</time></trkpt><trkpt lat="44.3544306" lon="8.3987027"><ele>383.0</ele><time>2026-05-01T08:49:44.965Z</time></trkpt><trkpt lat="44.354523" lon="8.3989264"><ele>383.0</ele><time>2026-05-01T08:49:45.965Z</time></trkpt><trkpt lat="44.3546114" lon="8.3991411"><ele>383.0</ele><time>2026-05-01T08:49:46.966Z</time></trkpt><trkpt lat="44.3546959" lon="8.3993327"><ele>383.0</ele><time>2026-05-01T08:49:47.965Z</time></trkpt><trkpt lat="44.35478" lon="8.399492"><ele>382.4</ele><time>2026-05-01T08:49:48.965Z</time></trkpt><trkpt lat="44.3548692" lon="8.3996102"><ele>381.79999999999995</ele><time>2026-05-01T08:49:49.965Z</time></trkpt><trkpt lat="44.3549551" lon="8.3997053"><ele>381.2</ele><time>2026-05-01T08:49:50.966Z</time></trkpt><trkpt lat="44.3550436" lon="8.3997856"><ele>380.6</ele><time>2026-05-01T08:49:51.965Z</time></trkpt><trkpt lat="44.3551291" lon="8.3998596"><ele>380.0</ele><time>2026-05-01T08:49:52.965Z</time></trkpt><trkpt lat="44.355223" lon="8.3999194"><ele>384.8</ele><time>2026-05-01T08:49:53.965Z</time></trkpt><trkpt lat="44.3553264" lon="8.3999633"><ele>389.6</ele><time>2026-05-01T08:49:54.966Z</time></trkpt><trkpt lat="44.3554359" lon="8.399985"><ele>394.4</ele><time>2026-05-01T08:49:55.965Z</time></trkpt><trkpt lat="44.3555386" lon="8.3999861"><ele>399.2</ele><time>2026-05-01T08:49:56.965Z</time></trkpt><trkpt lat="44.3556383" lon="8.3999696"><ele>404.0</ele><time>2026-05-01T08:49:57.965Z</time></trkpt><trkpt lat="44.3557418" lon="8.3999337"><ele>406.75</ele><time>2026-05-01T08:49:58.966Z</time></trkpt><trkpt lat="44.3558483" lon="8.3998704"><ele>409.5</ele><time>2026-05-01T08:49:59.965Z</time></trkpt><trkpt lat="44.3559399" lon="8.3997452"><ele>412.25</ele><time>2026-05-01T08:50:00.965Z</time></trkpt><trkpt lat="44.3560056" lon="8.3995982"><ele>415.0</ele><time>2026-05-01T08:50:01.965Z</time></trkpt><trkpt lat="44.3560597" lon="8.3994592"><ele>414.50000000000006</ele><time>2026-05-01T08:50:02.965Z</time></trkpt><trkpt lat="44.3561114" lon="8.3993474"><ele>414.0</ele><time>2026-05-01T08:50:03.966Z</time></trkpt><trkpt lat="44.356175" lon="8.3992687"><ele>413.5</ele><time>2026-05-01T08:50:04.966Z</time></trkpt><trkpt lat="44.3562491" lon="8.3992243"><ele>413.0</ele><time>2026-05-01T08:50:05.965Z</time></trkpt><trkpt lat="44.3563343" lon="8.3992197"><ele>412.50000000000006</ele><time>2026-05-01T08:50:06.965Z</time></trkpt><trkpt lat="44.3564326" lon="8.3992581"><ele>412.0</ele><time>2026-05-01T08:50:07.966Z</time></trkpt><trkpt lat="44.3565443" lon="8.3993223"><ele>412.0</ele><time>2026-05-01T08:50:08.965Z</time></trkpt><trkpt lat="44.3566612" lon="8.3993902"><ele>412.0</ele><time>2026-05-01T08:50:09.965Z</time></trkpt><trkpt lat="44.3567752" lon="8.3994284"><ele>412.0</ele><time>2026-05-01T08:50:10.965Z</time></trkpt><trkpt lat="44.3568914" lon="8.3994387"><ele>412.0</ele><time>2026-05-01T08:50:11.965Z</time></trkpt><trkpt lat="44.3569968" lon="8.3994107"><ele>412.0</ele><time>2026-05-01T08:50:12.965Z</time></trkpt><trkpt lat="44.3570951" lon="8.3993422"><ele>412.0</ele><time>2026-05-01T08:50:13.965Z</time></trkpt><trkpt lat="44.3571896" lon="8.3992637"><ele>412.0</ele><time>2026-05-01T08:50:14.965Z</time></trkpt><trkpt lat="44.3572834" lon="8.399191"><ele>412.0</ele><time>2026-05-01T08:50:15.965Z</time></trkpt><trkpt lat="44.3573751" lon="8.3991135"><ele>412.0</ele><time>2026-05-01T08:50:16.965Z</time></trkpt><trkpt lat="44.357461" lon="8.3990651"><ele>415.20000000000005</ele><time>2026-05-01T08:50:17.965Z</time></trkpt><trkpt lat="44.3575586" lon="8.3990272"><ele>418.4</ele><time>2026-05-01T08:50:18.966Z</time></trkpt><trkpt lat="44.3576621" lon="8.3990217"><ele>421.59999999999997</ele><time>2026-05-01T08:50:19.965Z</time></trkpt><trkpt lat="44.3577703" lon="8.3990411"><ele>424.79999999999995</ele><time>2026-05-01T08:50:20.965Z</time></trkpt><trkpt lat="44.3578761" lon="8.3990929"><ele>428.0</ele><time>2026-05-01T08:50:21.965Z</time></trkpt><trkpt lat="44.3579755" lon="8.399158"><ele>428.59999999999997</ele><time>2026-05-01T08:50:22.965Z</time></trkpt><trkpt lat="44.358077" lon="8.3992211"><ele>429.19999999999993</ele><time>2026-05-01T08:50:23.965Z</time></trkpt><trkpt lat="44.3581807" lon="8.399263"><ele>429.8</ele><time>2026-05-01T08:50:24.966Z</time></trkpt><trkpt lat="44.3582885" lon="8.3992885"><ele>430.4</ele><time>2026-05-01T08:50:25.965Z</time></trkpt><trkpt lat="44.3583986" lon="8.3992861"><ele>431.0</ele><time>2026-05-01T08:50:26.966Z</time></trkpt><trkpt lat="44.3585128" lon="8.3992695"><ele>431.0</ele><time>2026-05-01T08:50:27.966Z</time></trkpt><trkpt lat="44.3586227" lon="8.3992505"><ele>431.0</ele><time>2026-05-01T08:50:28.965Z</time></trkpt><trkpt lat="44.358725" lon="8.3992494"><ele>431.0</ele><time>2026-05-01T08:50:29.965Z</time></trkpt><trkpt lat="44.3588251" lon="8.3992541"><ele>431.0</ele><time>2026-05-01T08:50:30.965Z</time></trkpt><trkpt lat="44.3589189" lon="8.3992925"><ele>431.0</ele><time>2026-05-01T08:50:31.965Z</time></trkpt><trkpt lat="44.3590213" lon="8.3993491"><ele>431.20000000000005</ele><time>2026-05-01T08:50:32.965Z</time></trkpt><trkpt lat="44.3591218" lon="8.3994153"><ele>431.40000000000003</ele><time>2026-05-01T08:50:33.966Z</time></trkpt><trkpt lat="44.3592184" lon="8.3994878"><ele>431.6</ele><time>2026-05-01T08:50:34.966Z</time></trkpt><trkpt lat="44.3593161" lon="8.3995559"><ele>431.8</ele><time>2026-05-01T08:50:35.965Z</time></trkpt><trkpt lat="44.3594141" lon="8.399626"><ele>432.0</ele><time>2026-05-01T08:50:36.966Z</time></trkpt><trkpt lat="44.359506" lon="8.3996975"><ele>435.75</ele><time>2026-05-01T08:50:37.965Z</time></trkpt><trkpt lat="44.3595953" lon="8.3997861"><ele>439.5</ele><time>2026-05-01T08:50:38.966Z</time></trkpt><trkpt lat="44.3596779" lon="8.3998858"><ele>443.25</ele><time>2026-05-01T08:50:39.965Z</time></trkpt><trkpt lat="44.3597549" lon="8.4000091"><ele>447.0</ele><time>2026-05-01T08:50:40.966Z</time></trkpt><trkpt lat="44.3598281" lon="8.4001338"><ele>447.0</ele><time>2026-05-01T08:50:41.965Z</time></trkpt><trkpt lat="44.3598924" lon="8.4002555"><ele>447.0</ele><time>2026-05-01T08:50:42.966Z</time></trkpt><trkpt lat="44.3599601" lon="8.4003917"><ele>447.0</ele><time>2026-05-01T08:50:43.966Z</time></trkpt><trkpt lat="44.360033" lon="8.4005267"><ele>447.0</ele><time>2026-05-01T08:50:44.966Z</time></trkpt><trkpt lat="44.3601034" lon="8.4006601"><ele>451.75</ele><time>2026-05-01T08:50:45.966Z</time></trkpt><trkpt lat="44.3601729" lon="8.4008005"><ele>456.5</ele><time>2026-05-01T08:50:46.965Z</time></trkpt><trkpt lat="44.3602322" lon="8.4009577"><ele>461.25</ele><time>2026-05-01T08:50:47.965Z</time></trkpt><trkpt lat="44.3602894" lon="8.401113"><ele>466.0</ele><time>2026-05-01T08:50:48.965Z</time></trkpt><trkpt lat="44.3603364" lon="8.4012778"><ele>469.5</ele><time>2026-05-01T08:50:49.965Z</time></trkpt><trkpt lat="44.3603712" lon="8.4014494"><ele>473.0</ele><time>2026-05-01T08:50:50.966Z</time></trkpt><trkpt lat="44.360387" lon="8.4016315"><ele>476.5</ele><time>2026-05-01T08:50:51.965Z</time></trkpt><trkpt lat="44.3604037" lon="8.40183"><ele>480.0</ele><time>2026-05-01T08:50:52.965Z</time></trkpt><trkpt lat="44.3604258" lon="8.4020285"><ele>479.5</ele><time>2026-05-01T08:50:53.965Z</time></trkpt><trkpt lat="44.3604454" lon="8.4022215"><ele>479.0</ele><time>2026-05-01T08:50:54.965Z</time></trkpt><trkpt lat="44.3604664" lon="8.4024127"><ele>478.5</ele><time>2026-05-01T08:50:55.965Z</time></trkpt><trkpt lat="44.3604829" lon="8.4026071"><ele>478.0</ele><time>2026-05-01T08:50:56.965Z</time></trkpt><trkpt lat="44.3605048" lon="8.4028296"><ele>479.75</ele><time>2026-05-01T08:50:57.966Z</time></trkpt><trkpt lat="44.3605164" lon="8.4030344"><ele>481.5</ele><time>2026-05-01T08:50:58.965Z</time></trkpt><trkpt lat="44.3605305" lon="8.403235"><ele>483.25</ele><time>2026-05-01T08:50:59.965Z</time></trkpt><trkpt lat="44.3605502" lon="8.4034244"><ele>485.0</ele><time>2026-05-01T08:51:00.965Z</time></trkpt><trkpt lat="44.360562" lon="8.4036096"><ele>485.0</ele><time>2026-05-01T08:51:01.966Z</time></trkpt><trkpt lat="44.3605705" lon="8.4037689"><ele>485.0</ele><time>2026-05-01T08:51:02.965Z</time></trkpt><trkpt lat="44.3605838" lon="8.403923"><ele>485.0</ele><time>2026-05-01T08:51:03.965Z</time></trkpt><trkpt lat="44.3606034" lon="8.4040765"><ele>485.0</ele><time>2026-05-01T08:51:04.965Z</time></trkpt><trkpt lat="44.3606329" lon="8.4042247"><ele>485.0</ele><time>2026-05-01T08:51:05.965Z</time></trkpt><trkpt lat="44.3606699" lon="8.4043683"><ele>485.4</ele><time>2026-05-01T08:51:06.965Z</time></trkpt><trkpt lat="44.3607182" lon="8.4045029"><ele>485.8</ele><time>2026-05-01T08:51:07.966Z</time></trkpt><trkpt lat="44.3607709" lon="8.4046392"><ele>486.20000000000005</ele><time>2026-05-01T08:51:08.965Z</time></trkpt><trkpt lat="44.3608284" lon="8.4047676"><ele>486.6</ele><time>2026-05-01T08:51:09.966Z</time></trkpt><trkpt lat="44.3608916" lon="8.4048944"><ele>487.0</ele><time>2026-05-01T08:51:10.965Z</time></trkpt><trkpt lat="44.360959" lon="8.4050321"><ele>487.0</ele><time>2026-05-01T08:51:11.965Z</time></trkpt><trkpt lat="44.3610396" lon="8.4051688"><ele>487.0</ele><time>2026-05-01T08:51:12.965Z</time></trkpt><trkpt lat="44.3611362" lon="8.4053044"><ele>487.0</ele><time>2026-05-01T08:51:13.965Z</time></trkpt><trkpt lat="44.3612341" lon="8.4054194"><ele>487.0</ele><time>2026-05-01T08:51:14.965Z</time></trkpt><trkpt lat="44.3613427" lon="8.4054935"><ele>490.0</ele><time>2026-05-01T08:51:15.965Z</time></trkpt><trkpt lat="44.36146" lon="8.4055266"><ele>493.0</ele><time>2026-05-01T08:51:16.966Z</time></trkpt><trkpt lat="44.361572" lon="8.4055106"><ele>496.0</ele><time>2026-05-01T08:51:17.965Z</time></trkpt><trkpt lat="44.3616819" lon="8.4054629"><ele>499.0</ele><time>2026-05-01T08:51:18.965Z</time></trkpt><trkpt lat="44.3617946" lon="8.4054069"><ele>501.5</ele><time>2026-05-01T08:51:19.966Z</time></trkpt><trkpt lat="44.3619067" lon="8.4053488"><ele>504.0</ele><time>2026-05-01T08:51:20.965Z</time></trkpt><trkpt lat="44.3620235" lon="8.4052933"><ele>506.5</ele><time>2026-05-01T08:51:21.965Z</time></trkpt><trkpt lat="44.3621359" lon="8.4052385"><ele>509.0</ele><time>2026-05-01T08:51:22.966Z</time></trkpt><trkpt lat="44.3622557" lon="8.4051868"><ele>509.0</ele><time>2026-05-01T08:51:23.965Z</time></trkpt><trkpt lat="44.3623774" lon="8.4051344"><ele>509.0</ele><time>2026-05-01T08:51:24.965Z</time></trkpt><trkpt lat="44.3624958" lon="8.4050865"><ele>509.0</ele><time>2026-05-01T08:51:25.966Z</time></trkpt><trkpt lat="44.3626179" lon="8.4050677"><ele>509.0</ele><time>2026-05-01T08:51:26.965Z</time></trkpt><trkpt lat="44.3627386" lon="8.4050841"><ele>509.0</ele><time>2026-05-01T08:51:27.965Z</time></trkpt><trkpt lat="44.3628575" lon="8.4051402"><ele>509.0</ele><time>2026-05-01T08:51:28.965Z</time></trkpt><trkpt lat="44.3629857" lon="8.4052274"><ele>509.0</ele><time>2026-05-01T08:51:29.965Z</time></trkpt><trkpt lat="44.3631" lon="8.4053151"><ele>509.0</ele><time>2026-05-01T08:51:30.965Z</time></trkpt><trkpt lat="44.3632077" lon="8.4053889"><ele>510.6</ele><time>2026-05-01T08:51:31.965Z</time></trkpt><trkpt lat="44.3633109" lon="8.405456"><ele>512.2</ele><time>2026-05-01T08:51:32.966Z</time></trkpt><trkpt lat="44.3634103" lon="8.4055221"><ele>513.8000000000001</ele><time>2026-05-01T08:51:33.965Z</time></trkpt><trkpt lat="44.3634987" lon="8.4055804"><ele>515.4</ele><time>2026-05-01T08:51:34.966Z</time></trkpt><trkpt lat="44.3635783" lon="8.4056117"><ele>517.0</ele><time>2026-05-01T08:51:35.965Z</time></trkpt><trkpt lat="44.3636489" lon="8.4056117"><ele>517.0</ele><time>2026-05-01T08:51:36.965Z</time></trkpt><trkpt lat="44.363716" lon="8.4055876"><ele>517.0</ele><time>2026-05-01T08:51:37.965Z</time></trkpt><trkpt lat="44.3637671" lon="8.4055333"><ele>517.0</ele><time>2026-05-01T08:51:38.965Z</time></trkpt><trkpt lat="44.3638057" lon="8.4054442"><ele>517.0</ele><time>2026-05-01T08:51:39.966Z</time></trkpt><trkpt lat="44.3638214" lon="8.4052923"><ele>517.0</ele><time>2026-05-01T08:51:40.966Z</time></trkpt><trkpt lat="44.3638236" lon="8.4051154"><ele>517.0</ele><time>2026-05-01T08:51:41.965Z</time></trkpt><trkpt lat="44.3638263" lon="8.404926"><ele>517.0</ele><time>2026-05-01T08:51:42.965Z</time></trkpt><trkpt lat="44.3638369" lon="8.4047583"><ele>517.0</ele><time>2026-05-01T08:51:43.965Z</time></trkpt><trkpt lat="44.3638601" lon="8.4046092"><ele>517.0</ele><time>2026-05-01T08:51:44.966Z</time></trkpt><trkpt lat="44.363905" lon="8.4044711"><ele>517.0</ele><time>2026-05-01T08:51:45.965Z</time></trkpt><trkpt lat="44.3639667" lon="8.4043269"><ele>520.25</ele><time>2026-05-01T08:51:46.965Z</time></trkpt><trkpt lat="44.3640332" lon="8.4041782"><ele>523.5</ele><time>2026-05-01T08:51:47.966Z</time></trkpt><trkpt lat="44.3640916" lon="8.4040269"><ele>526.75</ele><time>2026-05-01T08:51:48.966Z</time></trkpt><trkpt lat="44.3641539" lon="8.4038764"><ele>530.0</ele><time>2026-05-01T08:51:49.965Z</time></trkpt><trkpt lat="44.3642133" lon="8.403719"><ele>530.0</ele><time>2026-05-01T08:51:50.965Z</time></trkpt><trkpt lat="44.3642697" lon="8.4035629"><ele>530.0</ele><time>2026-05-01T08:51:51.965Z</time></trkpt><trkpt lat="44.3643288" lon="8.4033974"><ele>530.0</ele><time>2026-05-01T08:51:52.965Z</time></trkpt><trkpt lat="44.3643913" lon="8.4032343"><ele>530.0</ele><time>2026-05-01T08:51:53.965Z</time></trkpt><trkpt lat="44.3644539" lon="8.4030697"><ele>527.75</ele><time>2026-05-01T08:51:54.966Z</time></trkpt><trkpt lat="44.3645215" lon="8.4029156"><ele>525.5</ele><time>2026-05-01T08:51:55.965Z</time></trkpt><trkpt lat="44.3646029" lon="8.4027552"><ele>523.25</ele><time>2026-05-01T08:51:56.966Z</time></trkpt><trkpt lat="44.3646732" lon="8.4025908"><ele>521.0</ele><time>2026-05-01T08:51:57.965Z</time></trkpt><trkpt lat="44.3647045" lon="8.4024186"><ele>527.25</ele><time>2026-05-01T08:51:58.966Z</time></trkpt><trkpt lat="44.3647272" lon="8.4022478"><ele>533.5</ele><time>2026-05-01T08:51:59.965Z</time></trkpt><trkpt lat="44.3647419" lon="8.4020788"><ele>539.75</ele><time>2026-05-01T08:52:00.965Z</time></trkpt><trkpt lat="44.3647793" lon="8.4019404"><ele>546.0</ele><time>2026-05-01T08:52:01.965Z</time></trkpt><trkpt lat="44.3648016" lon="8.4017992"><ele>546.0</ele><time>2026-05-01T08:52:02.965Z</time></trkpt><trkpt lat="44.3648215" lon="8.4016785"><ele>546.0</ele><time>2026-05-01T08:52:03.965Z</time></trkpt><trkpt lat="44.3648582" lon="8.4015827"><ele>546.0</ele><time>2026-05-01T08:52:04.966Z</time></trkpt><trkpt lat="44.3649153" lon="8.4014973"><ele>546.0</ele><time>2026-05-01T08:52:05.965Z</time></trkpt><trkpt lat="44.3650328" lon="8.4014832"><ele>546.0</ele><time>2026-05-01T08:52:07.965Z</time></trkpt><trkpt lat="44.3651091" lon="8.4016407"><ele>546.0</ele><time>2026-05-01T08:52:09.966Z</time></trkpt><trkpt lat="44.3651056" lon="8.4017844"><ele>546.0</ele><time>2026-05-01T08:52:10.965Z</time></trkpt><trkpt lat="44.3650869" lon="8.4019469"><ele>546.0</ele><time>2026-05-01T08:52:11.965Z</time></trkpt><trkpt lat="44.3650454" lon="8.4021207"><ele>546.0</ele><time>2026-05-01T08:52:12.965Z</time></trkpt><trkpt lat="44.3650019" lon="8.402288"><ele>548.75</ele><time>2026-05-01T08:52:13.966Z</time></trkpt><trkpt lat="44.3649596" lon="8.4024532"><ele>551.5</ele><time>2026-05-01T08:52:14.965Z</time></trkpt><trkpt lat="44.364906" lon="8.402617"><ele>554.25</ele><time>2026-05-01T08:52:15.966Z</time></trkpt><trkpt lat="44.3648531" lon="8.4027725"><ele>557.0</ele><time>2026-05-01T08:52:16.965Z</time></trkpt><trkpt lat="44.3648099" lon="8.4029247"><ele>560.0</ele><time>2026-05-01T08:52:17.965Z</time></trkpt><trkpt lat="44.36477" lon="8.403082"><ele>563.0</ele><time>2026-05-01T08:52:18.966Z</time></trkpt><trkpt lat="44.3647304" lon="8.4032495"><ele>566.0</ele><time>2026-05-01T08:52:19.965Z</time></trkpt><trkpt lat="44.3647026" lon="8.4034243"><ele>569.0</ele><time>2026-05-01T08:52:20.965Z</time></trkpt><trkpt lat="44.3646845" lon="8.4036006"><ele>569.75</ele><time>2026-05-01T08:52:21.965Z</time></trkpt><trkpt lat="44.3646715" lon="8.4037704"><ele>570.5</ele><time>2026-05-01T08:52:22.965Z</time></trkpt><trkpt lat="44.3646709" lon="8.4039409"><ele>571.25</ele><time>2026-05-01T08:52:23.965Z</time></trkpt><trkpt lat="44.3646875" lon="8.4041123"><ele>572.0</ele><time>2026-05-01T08:52:24.965Z</time></trkpt><trkpt lat="44.3647085" lon="8.40428"><ele>572.0</ele><time>2026-05-01T08:52:25.965Z</time></trkpt><trkpt lat="44.3647379" lon="8.4044426"><ele>572.0</ele><time>2026-05-01T08:52:26.966Z</time></trkpt><trkpt lat="44.3647695" lon="8.4045978"><ele>572.0</ele><time>2026-05-01T08:52:27.965Z</time></trkpt><trkpt lat="44.3648062" lon="8.4047492"><ele>572.0</ele><time>2026-05-01T08:52:28.965Z</time></trkpt><trkpt lat="44.3648386" lon="8.4049013"><ele>572.2</ele><time>2026-05-01T08:52:29.965Z</time></trkpt><trkpt lat="44.3648637" lon="8.4050545"><ele>572.4000000000001</ele><time>2026-05-01T08:52:30.965Z</time></trkpt><trkpt lat="44.3648953" lon="8.4051952"><ele>572.5999999999999</ele><time>2026-05-01T08:52:31.966Z</time></trkpt><trkpt lat="44.3649281" lon="8.4053174"><ele>572.8</ele><time>2026-05-01T08:52:32.965Z</time></trkpt><trkpt lat="44.3649551" lon="8.4054287"><ele>573.0</ele><time>2026-05-01T08:52:33.966Z</time></trkpt><trkpt lat="44.3649865" lon="8.4055299"><ele>572.3333333333334</ele><time>2026-05-01T08:52:34.966Z</time></trkpt><trkpt lat="44.365015" lon="8.4056244"><ele>571.6666666666666</ele><time>2026-05-01T08:52:35.965Z</time></trkpt><trkpt lat="44.3650543" lon="8.405702"><ele>571.0</ele><time>2026-05-01T08:52:36.965Z</time></trkpt><trkpt lat="44.3651026" lon="8.4057683"><ele>570.3333333333333</ele><time>2026-05-01T08:52:37.965Z</time></trkpt><trkpt lat="44.3651658" lon="8.4058063"><ele>569.6666666666666</ele><time>2026-05-01T08:52:38.966Z</time></trkpt><trkpt lat="44.3652826" lon="8.4058069"><ele>569.0</ele><time>2026-05-01T08:52:40.966Z</time></trkpt><trkpt lat="44.3653337" lon="8.4057422"><ele>569.0</ele><time>2026-05-01T08:52:41.966Z</time></trkpt><trkpt lat="44.3653677" lon="8.4056344"><ele>569.0</ele><time>2026-05-01T08:52:42.965Z</time></trkpt><trkpt lat="44.3653834" lon="8.4055119"><ele>569.0</ele><time>2026-05-01T08:52:43.966Z</time></trkpt><trkpt lat="44.365384" lon="8.4053684"><ele>569.0</ele><time>2026-05-01T08:52:44.966Z</time></trkpt><trkpt lat="44.3653756" lon="8.4052149"><ele>569.0</ele><time>2026-05-01T08:52:45.965Z</time></trkpt><trkpt lat="44.3653584" lon="8.4050515"><ele>569.6</ele><time>2026-05-01T08:52:46.965Z</time></trkpt><trkpt lat="44.3653427" lon="8.4049091"><ele>570.2</ele><time>2026-05-01T08:52:47.965Z</time></trkpt><trkpt lat="44.3653289" lon="8.4048041"><ele>570.8000000000001</ele><time>2026-05-01T08:52:48.966Z</time></trkpt><trkpt lat="44.3653784" lon="8.404648"><ele>571.4</ele><time>2026-05-01T08:52:50.966Z</time></trkpt><trkpt lat="44.3654848" lon="8.4046053"><ele>572.0</ele><time>2026-05-01T08:52:52.965Z</time></trkpt><trkpt lat="44.365552" lon="8.4046445"><ele>576.8000000000001</ele><time>2026-05-01T08:52:53.966Z</time></trkpt><trkpt lat="44.3656293" lon="8.4047331"><ele>581.6</ele><time>2026-05-01T08:52:54.966Z</time></trkpt><trkpt lat="44.3657104" lon="8.4048329"><ele>586.4000000000001</ele><time>2026-05-01T08:52:55.965Z</time></trkpt><trkpt lat="44.3658007" lon="8.4049398"><ele>591.2</ele><time>2026-05-01T08:52:56.965Z</time></trkpt><trkpt lat="44.3658957" lon="8.4050405"><ele>596.0</ele><time>2026-05-01T08:52:57.965Z</time></trkpt><trkpt lat="44.3659914" lon="8.4051443"><ele>596.0</ele><time>2026-05-01T08:52:58.965Z</time></trkpt><trkpt lat="44.3660852" lon="8.4052391"><ele>596.0</ele><time>2026-05-01T08:52:59.965Z</time></trkpt><trkpt lat="44.3661781" lon="8.4053417"><ele>596.0</ele><time>2026-05-01T08:53:00.965Z</time></trkpt><trkpt lat="44.3662741" lon="8.4054538"><ele>596.0</ele><time>2026-05-01T08:53:01.965Z</time></trkpt><trkpt lat="44.3663597" lon="8.405576"><ele>598.25</ele><time>2026-05-01T08:53:02.965Z</time></trkpt><trkpt lat="44.3664383" lon="8.4056966"><ele>600.5</ele><time>2026-05-01T08:53:03.966Z</time></trkpt><trkpt lat="44.366515" lon="8.4058221"><ele>602.75</ele><time>2026-05-01T08:53:04.965Z</time></trkpt><trkpt lat="44.3665851" lon="8.4059439"><ele>605.0</ele><time>2026-05-01T08:53:05.966Z</time></trkpt><trkpt lat="44.366662" lon="8.4060709"><ele>605.0</ele><time>2026-05-01T08:53:06.965Z</time></trkpt><trkpt lat="44.3667425" lon="8.4061953"><ele>605.0</ele><time>2026-05-01T08:53:07.966Z</time></trkpt><trkpt lat="44.3668237" lon="8.4063169"><ele>605.0</ele><time>2026-05-01T08:53:08.965Z</time></trkpt><trkpt lat="44.3669061" lon="8.406435"><ele>605.0</ele><time>2026-05-01T08:53:09.965Z</time></trkpt><trkpt lat="44.3669857" lon="8.4065585"><ele>604.2</ele><time>2026-05-01T08:53:10.965Z</time></trkpt><trkpt lat="44.3670605" lon="8.4066774"><ele>603.4</ele><time>2026-05-01T08:53:11.965Z</time></trkpt><trkpt lat="44.3671288" lon="8.4067938"><ele>602.6</ele><time>2026-05-01T08:53:12.965Z</time></trkpt><trkpt lat="44.3671915" lon="8.406898"><ele>601.8</ele><time>2026-05-01T08:53:13.965Z</time></trkpt><trkpt lat="44.3672468" lon="8.4070021"><ele>601.0</ele><time>2026-05-01T08:53:14.965Z</time></trkpt><trkpt lat="44.3673089" lon="8.4071079"><ele>603.8</ele><time>2026-05-01T08:53:15.965Z</time></trkpt><trkpt lat="44.3673752" lon="8.4072098"><ele>606.6</ele><time>2026-05-01T08:53:16.966Z</time></trkpt><trkpt lat="44.3674417" lon="8.4073092"><ele>609.4</ele><time>2026-05-01T08:53:17.965Z</time></trkpt><trkpt lat="44.3675122" lon="8.4073905"><ele>612.2</ele><time>2026-05-01T08:53:18.965Z</time></trkpt><trkpt lat="44.3675854" lon="8.4074505"><ele>615.0</ele><time>2026-05-01T08:53:19.965Z</time></trkpt><trkpt lat="44.3676729" lon="8.4074791"><ele>615.0</ele><time>2026-05-01T08:53:20.965Z</time></trkpt><trkpt lat="44.367757" lon="8.4074707"><ele>615.0</ele><time>2026-05-01T08:53:21.965Z</time></trkpt><trkpt lat="44.3678323" lon="8.4074439"><ele>615.0</ele><time>2026-05-01T08:53:22.965Z</time></trkpt><trkpt lat="44.3679012" lon="8.4074036"><ele>615.0</ele><time>2026-05-01T08:53:23.966Z</time></trkpt><trkpt lat="44.3679736" lon="8.4073319"><ele>615.0</ele><time>2026-05-01T08:53:24.965Z</time></trkpt><trkpt lat="44.3680524" lon="8.4072499"><ele>615.0</ele><time>2026-05-01T08:53:25.966Z</time></trkpt><trkpt lat="44.3681287" lon="8.4071874"><ele>614.8333333333334</ele><time>2026-05-01T08:53:26.965Z</time></trkpt><trkpt lat="44.3682031" lon="8.4071578"><ele>614.6666666666666</ele><time>2026-05-01T08:53:27.965Z</time></trkpt><trkpt lat="44.3682852" lon="8.4071695"><ele>614.5</ele><time>2026-05-01T08:53:28.965Z</time></trkpt><trkpt lat="44.3683585" lon="8.4072113"><ele>614.3333333333333</ele><time>2026-05-01T08:53:29.966Z</time></trkpt><trkpt lat="44.3684238" lon="8.4072866"><ele>614.1666666666666</ele><time>2026-05-01T08:53:30.965Z</time></trkpt><trkpt lat="44.3684767" lon="8.407383"><ele>614.0</ele><time>2026-05-01T08:53:31.965Z</time></trkpt><trkpt lat="44.3685184" lon="8.4074908"><ele>616.8</ele><time>2026-05-01T08:53:32.965Z</time></trkpt><trkpt lat="44.3685388" lon="8.4076159"><ele>619.5999999999999</ele><time>2026-05-01T08:53:33.965Z</time></trkpt><trkpt lat="44.3685373" lon="8.4077629"><ele>622.4</ele><time>2026-05-01T08:53:34.966Z</time></trkpt><trkpt lat="44.368513" lon="8.4079227"><ele>625.1999999999999</ele><time>2026-05-01T08:53:35.965Z</time></trkpt><trkpt lat="44.3684845" lon="8.4080895"><ele>628.0</ele><time>2026-05-01T08:53:36.966Z</time></trkpt><trkpt lat="44.3684565" lon="8.4082603"><ele>629.75</ele><time>2026-05-01T08:53:37.965Z</time></trkpt><trkpt lat="44.3684368" lon="8.4084334"><ele>631.5</ele><time>2026-05-01T08:53:38.966Z</time></trkpt><trkpt lat="44.36842" lon="8.4085945"><ele>633.25</ele><time>2026-05-01T08:53:39.965Z</time></trkpt><trkpt lat="44.3684041" lon="8.4087505"><ele>635.0</ele><time>2026-05-01T08:53:40.965Z</time></trkpt><trkpt lat="44.3683826" lon="8.4089096"><ele>636.75</ele><time>2026-05-01T08:53:41.966Z</time></trkpt><trkpt lat="44.36837" lon="8.4090687"><ele>638.5</ele><time>2026-05-01T08:53:42.965Z</time></trkpt><trkpt lat="44.3683548" lon="8.4092304"><ele>640.25</ele><time>2026-05-01T08:53:43.966Z</time></trkpt><trkpt lat="44.368338" lon="8.4093886"><ele>642.0</ele><time>2026-05-01T08:53:44.966Z</time></trkpt><trkpt lat="44.368318" lon="8.4095567"><ele>642.8</ele><time>2026-05-01T08:53:45.965Z</time></trkpt><trkpt lat="44.3683003" lon="8.4097206"><ele>643.6</ele><time>2026-05-01T08:53:46.965Z</time></trkpt><trkpt lat="44.3682918" lon="8.4098584"><ele>644.4</ele><time>2026-05-01T08:53:47.965Z</time></trkpt><trkpt lat="44.368291" lon="8.4099782"><ele>645.1999999999999</ele><time>2026-05-01T08:53:48.965Z</time></trkpt><trkpt lat="44.3682985" lon="8.4100925"><ele>646.0</ele><time>2026-05-01T08:53:49.965Z</time></trkpt><trkpt lat="44.3683218" lon="8.4102068"><ele>646.0</ele><time>2026-05-01T08:53:50.965Z</time></trkpt><trkpt lat="44.3683667" lon="8.4103197"><ele>646.0</ele><time>2026-05-01T08:53:51.966Z</time></trkpt><trkpt lat="44.3684311" lon="8.4104226"><ele>646.0</ele><time>2026-05-01T08:53:52.965Z</time></trkpt><trkpt lat="44.3685095" lon="8.4105095"><ele>646.0</ele><time>2026-05-01T08:53:53.965Z</time></trkpt><trkpt lat="44.3686011" lon="8.4106018"><ele>646.0</ele><time>2026-05-01T08:53:54.965Z</time></trkpt><trkpt lat="44.3686874" lon="8.4107049"><ele>645.0</ele><time>2026-05-01T08:53:55.966Z</time></trkpt><trkpt lat="44.3687637" lon="8.4108199"><ele>644.0</ele><time>2026-05-01T08:53:56.966Z</time></trkpt><trkpt lat="44.3688229" lon="8.4109636"><ele>643.0</ele><time>2026-05-01T08:53:57.965Z</time></trkpt><trkpt lat="44.3688658" lon="8.4111286"><ele>642.0</ele><time>2026-05-01T08:53:58.965Z</time></trkpt><trkpt lat="44.368904" lon="8.4112974"><ele>650.0</ele><time>2026-05-01T08:53:59.965Z</time></trkpt><trkpt lat="44.3689259" lon="8.4114669"><ele>658.0</ele><time>2026-05-01T08:54:00.965Z</time></trkpt><trkpt lat="44.3689436" lon="8.411642"><ele>666.0</ele><time>2026-05-01T08:54:01.965Z</time></trkpt><trkpt lat="44.3689743" lon="8.4118091"><ele>674.0</ele><time>2026-05-01T08:54:02.966Z</time></trkpt><trkpt lat="44.3690247" lon="8.4119749"><ele>674.0</ele><time>2026-05-01T08:54:03.965Z</time></trkpt><trkpt lat="44.3690899" lon="8.4121427"><ele>674.0</ele><time>2026-05-01T08:54:04.966Z</time></trkpt><trkpt lat="44.3691661" lon="8.4123036"><ele>674.0</ele><time>2026-05-01T08:54:05.965Z</time></trkpt><trkpt lat="44.3692465" lon="8.4124614"><ele>674.0</ele><time>2026-05-01T08:54:06.965Z</time></trkpt><trkpt lat="44.3693164" lon="8.4126162"><ele>672.25</ele><time>2026-05-01T08:54:07.965Z</time></trkpt><trkpt lat="44.3693837" lon="8.4127663"><ele>670.5</ele><time>2026-05-01T08:54:08.965Z</time></trkpt><trkpt lat="44.3694478" lon="8.4129017"><ele>668.75</ele><time>2026-05-01T08:54:09.966Z</time></trkpt><trkpt lat="44.3695156" lon="8.4130385"><ele>667.0</ele><time>2026-05-01T08:54:10.965Z</time></trkpt><trkpt lat="44.369586" lon="8.4131667"><ele>667.0</ele><time>2026-05-01T08:54:11.966Z</time></trkpt><trkpt lat="44.3696328" lon="8.4132651"><ele>667.0</ele><time>2026-05-01T08:54:12.966Z</time></trkpt><trkpt lat="44.369676" lon="8.4133302"><ele>667.0</ele><time>2026-05-01T08:54:13.965Z</time></trkpt><trkpt lat="44.3697518" lon="8.413395"><ele>667.0</ele><time>2026-05-01T08:54:15.965Z</time></trkpt><trkpt lat="44.3698452" lon="8.4133312"><ele>667.0</ele><time>2026-05-01T08:54:17.965Z</time></trkpt><trkpt lat="44.3698763" lon="8.4132533"><ele>667.0</ele><time>2026-05-01T08:54:18.966Z</time></trkpt><trkpt lat="44.3698782" lon="8.4131508"><ele>666.75</ele><time>2026-05-01T08:54:19.965Z</time></trkpt><trkpt lat="44.3698374" lon="8.4130103"><ele>666.5</ele><time>2026-05-01T08:54:20.965Z</time></trkpt><trkpt lat="44.3697741" lon="8.4128482"><ele>666.25</ele><time>2026-05-01T08:54:21.965Z</time></trkpt><trkpt lat="44.3696916" lon="8.4126847"><ele>666.0</ele><time>2026-05-01T08:54:22.965Z</time></trkpt><trkpt lat="44.3696183" lon="8.4125139"><ele>666.0</ele><time>2026-05-01T08:54:23.965Z</time></trkpt><trkpt lat="44.369567" lon="8.4123499"><ele>666.0</ele><time>2026-05-01T08:54:24.966Z</time></trkpt><trkpt lat="44.3695264" lon="8.4121776"><ele>666.0</ele><time>2026-05-01T08:54:25.965Z</time></trkpt><trkpt lat="44.3695041" lon="8.4119925"><ele>666.0</ele><time>2026-05-01T08:54:26.966Z</time></trkpt><trkpt lat="44.3694859" lon="8.4118238"><ele>667.5999999999999</ele><time>2026-05-01T08:54:27.965Z</time></trkpt><trkpt lat="44.369479" lon="8.4116603"><ele>669.2</ele><time>2026-05-01T08:54:28.965Z</time></trkpt><trkpt lat="44.3694841" lon="8.4115077"><ele>670.8</ele><time>2026-05-01T08:54:29.966Z</time></trkpt><trkpt lat="44.3695005" lon="8.4113597"><ele>672.4000000000001</ele><time>2026-05-01T08:54:30.965Z</time></trkpt><trkpt lat="44.3695132" lon="8.4112207"><ele>674.0</ele><time>2026-05-01T08:54:31.966Z</time></trkpt><trkpt lat="44.3695273" lon="8.4110983"><ele>674.8333333333333</ele><time>2026-05-01T08:54:32.966Z</time></trkpt><trkpt lat="44.3695454" lon="8.4110078"><ele>675.6666666666666</ele><time>2026-05-01T08:54:33.965Z</time></trkpt><trkpt lat="44.3695755" lon="8.4109259"><ele>676.5</ele><time>2026-05-01T08:54:34.965Z</time></trkpt><trkpt lat="44.3696181" lon="8.4108605"><ele>677.3333333333334</ele><time>2026-05-01T08:54:35.965Z</time></trkpt><trkpt lat="44.3697209" lon="8.4108328"><ele>678.1666666666667</ele><time>2026-05-01T08:54:37.965Z</time></trkpt><trkpt lat="44.3697926" lon="8.410966"><ele>679.0</ele><time>2026-05-01T08:54:39.965Z</time></trkpt><trkpt lat="44.3698138" lon="8.4110743"><ele>685.0</ele><time>2026-05-01T08:54:40.965Z</time></trkpt><trkpt lat="44.3698303" lon="8.4112006"><ele>691.0</ele><time>2026-05-01T08:54:41.966Z</time></trkpt><trkpt lat="44.3698493" lon="8.4113302"><ele>697.0</ele><time>2026-05-01T08:54:42.965Z</time></trkpt><trkpt lat="44.3698605" lon="8.4115047"><ele>703.0</ele><time>2026-05-01T08:54:43.966Z</time></trkpt><trkpt lat="44.3698667" lon="8.4117057"><ele>703.25</ele><time>2026-05-01T08:54:44.965Z</time></trkpt><trkpt lat="44.3698914" lon="8.4119085"><ele>703.5</ele><time>2026-05-01T08:54:45.966Z</time></trkpt><trkpt lat="44.3699429" lon="8.4121012"><ele>703.75</ele><time>2026-05-01T08:54:46.965Z</time></trkpt><trkpt lat="44.3700132" lon="8.4122899"><ele>704.0</ele><time>2026-05-01T08:54:47.965Z</time></trkpt><trkpt lat="44.3700895" lon="8.4124574"><ele>704.0</ele><time>2026-05-01T08:54:48.965Z</time></trkpt><trkpt lat="44.3701624" lon="8.4126054"><ele>704.0</ele><time>2026-05-01T08:54:49.965Z</time></trkpt><trkpt lat="44.3702326" lon="8.4127252"><ele>704.0</ele><time>2026-05-01T08:54:50.966Z</time></trkpt><trkpt lat="44.3703188" lon="8.4128172"><ele>704.0</ele><time>2026-05-01T08:54:51.966Z</time></trkpt><trkpt lat="44.3703986" lon="8.4128829"><ele>704.0</ele><time>2026-05-01T08:54:52.965Z</time></trkpt><trkpt lat="44.3704842" lon="8.4129189"><ele>706.8000000000001</ele><time>2026-05-01T08:54:53.965Z</time></trkpt><trkpt lat="44.3705716" lon="8.4129389"><ele>709.6</ele><time>2026-05-01T08:54:54.965Z</time></trkpt><trkpt lat="44.3706667" lon="8.4129379"><ele>712.4</ele><time>2026-05-01T08:54:55.966Z</time></trkpt><trkpt lat="44.370778" lon="8.4129121"><ele>715.2</ele><time>2026-05-01T08:54:56.965Z</time></trkpt><trkpt lat="44.3708966" lon="8.4128591"><ele>718.0</ele><time>2026-05-01T08:54:57.965Z</time></trkpt><trkpt lat="44.371018" lon="8.4128247"><ele>718.0</ele><time>2026-05-01T08:54:58.965Z</time></trkpt><trkpt lat="44.3711353" lon="8.4127789"><ele>718.0</ele><time>2026-05-01T08:54:59.965Z</time></trkpt><trkpt lat="44.3712474" lon="8.4127322"><ele>718.0</ele><time>2026-05-01T08:55:00.965Z</time></trkpt><trkpt lat="44.3713567" lon="8.4126849"><ele>718.0</ele><time>2026-05-01T08:55:01.966Z</time></trkpt><trkpt lat="44.3714738" lon="8.4126587"><ele>717.75</ele><time>2026-05-01T08:55:02.965Z</time></trkpt><trkpt lat="44.3715892" lon="8.4126269"><ele>717.5</ele><time>2026-05-01T08:55:03.965Z</time></trkpt><trkpt lat="44.371692" lon="8.4125623"><ele>717.25</ele><time>2026-05-01T08:55:04.966Z</time></trkpt><trkpt lat="44.371781" lon="8.4124682"><ele>717.0</ele><time>2026-05-01T08:55:05.966Z</time></trkpt><trkpt lat="44.371859" lon="8.4123553"><ele>717.0</ele><time>2026-05-01T08:55:06.966Z</time></trkpt><trkpt lat="44.3719283" lon="8.4122235"><ele>717.0</ele><time>2026-05-01T08:55:07.965Z</time></trkpt><trkpt lat="44.3719862" lon="8.4120822"><ele>717.0</ele><time>2026-05-01T08:55:08.965Z</time></trkpt><trkpt lat="44.3720475" lon="8.4119482"><ele>717.0</ele><time>2026-05-01T08:55:09.965Z</time></trkpt><trkpt lat="44.3721123" lon="8.4118181"><ele>719.25</ele><time>2026-05-01T08:55:10.965Z</time></trkpt><trkpt lat="44.3721968" lon="8.4116853"><ele>721.5</ele><time>2026-05-01T08:55:11.966Z</time></trkpt><trkpt lat="44.3722924" lon="8.4115627"><ele>723.75</ele><time>2026-05-01T08:55:12.966Z</time></trkpt><trkpt lat="44.3724032" lon="8.4114511"><ele>726.0</ele><time>2026-05-01T08:55:13.965Z</time></trkpt><trkpt lat="44.3725231" lon="8.4113536"><ele>726.25</ele><time>2026-05-01T08:55:14.965Z</time></trkpt><trkpt lat="44.3726553" lon="8.4112674"><ele>726.5</ele><time>2026-05-01T08:55:15.966Z</time></trkpt><trkpt lat="44.3727862" lon="8.4111804"><ele>726.75</ele><time>2026-05-01T08:55:16.965Z</time></trkpt><trkpt lat="44.3729153" lon="8.4110915"><ele>727.0</ele><time>2026-05-01T08:55:17.965Z</time></trkpt><trkpt lat="44.3730363" lon="8.4109893"><ele>727.0</ele><time>2026-05-01T08:55:18.965Z</time></trkpt><trkpt lat="44.3731484" lon="8.4108667"><ele>727.0</ele><time>2026-05-01T08:55:19.965Z</time></trkpt><trkpt lat="44.3732421" lon="8.4107484"><ele>727.0</ele><time>2026-05-01T08:55:20.966Z</time></trkpt><trkpt lat="44.3733374" lon="8.4106497"><ele>727.0</ele><time>2026-05-01T08:55:21.965Z</time></trkpt><trkpt lat="44.3734422" lon="8.410568"><ele>727.0</ele><time>2026-05-01T08:55:22.966Z</time></trkpt><trkpt lat="44.3735586" lon="8.4104987"><ele>727.0</ele><time>2026-05-01T08:55:23.965Z</time></trkpt><trkpt lat="44.3736833" lon="8.4104538"><ele>727.0</ele><time>2026-05-01T08:55:24.965Z</time></trkpt><trkpt lat="44.3738122" lon="8.4104284"><ele>727.0</ele><time>2026-05-01T08:55:25.965Z</time></trkpt><trkpt lat="44.3739433" lon="8.4104208"><ele>726.5</ele><time>2026-05-01T08:55:26.966Z</time></trkpt><trkpt lat="44.374081" lon="8.4104162"><ele>726.0</ele><time>2026-05-01T08:55:27.965Z</time></trkpt><trkpt lat="44.3742235" lon="8.410409"><ele>725.5</ele><time>2026-05-01T08:55:28.965Z</time></trkpt><trkpt lat="44.3743625" lon="8.4103979"><ele>725.0</ele><time>2026-05-01T08:55:29.966Z</time></trkpt><trkpt lat="44.3744993" lon="8.4103898"><ele>725.0</ele><time>2026-05-01T08:55:30.966Z</time></trkpt><trkpt lat="44.3746346" lon="8.4103705"><ele>725.0</ele><time>2026-05-01T08:55:31.965Z</time></trkpt><trkpt lat="44.3747631" lon="8.4103414"><ele>725.0</ele><time>2026-05-01T08:55:32.966Z</time></trkpt><trkpt lat="44.3748848" lon="8.4102798"><ele>725.0</ele><time>2026-05-01T08:55:33.966Z</time></trkpt><trkpt lat="44.3750021" lon="8.410199"><ele>727.5</ele><time>2026-05-01T08:55:34.966Z</time></trkpt><trkpt lat="44.3751176" lon="8.4101175"><ele>730.0</ele><time>2026-05-01T08:55:35.966Z</time></trkpt><trkpt lat="44.3752279" lon="8.410046"><ele>732.5</ele><time>2026-05-01T08:55:36.965Z</time></trkpt><trkpt lat="44.3753395" lon="8.4099629"><ele>735.0</ele><time>2026-05-01T08:55:37.965Z</time></trkpt><trkpt lat="44.3754494" lon="8.4098972"><ele>737.5</ele><time>2026-05-01T08:55:38.965Z</time></trkpt><trkpt lat="44.3755635" lon="8.4098465"><ele>740.0</ele><time>2026-05-01T08:55:39.965Z</time></trkpt><trkpt lat="44.3756848" lon="8.4097984"><ele>742.5</ele><time>2026-05-01T08:55:40.965Z</time></trkpt><trkpt lat="44.3758143" lon="8.4097501"><ele>745.0</ele><time>2026-05-01T08:55:41.965Z</time></trkpt><trkpt lat="44.3759523" lon="8.4097078"><ele>745.0</ele><time>2026-05-01T08:55:42.965Z</time></trkpt><trkpt lat="44.3760909" lon="8.4096753"><ele>745.0</ele><time>2026-05-01T08:55:43.965Z</time></trkpt><trkpt lat="44.3762218" lon="8.4096602"><ele>745.0</ele><time>2026-05-01T08:55:44.966Z</time></trkpt><trkpt lat="44.3763476" lon="8.4096495"><ele>745.0</ele><time>2026-05-01T08:55:45.965Z</time></trkpt><trkpt lat="44.3764577" lon="8.4096378"><ele>742.8</ele><time>2026-05-01T08:55:46.965Z</time></trkpt><trkpt lat="44.3765572" lon="8.4096177"><ele>740.6</ele><time>2026-05-01T08:55:47.965Z</time></trkpt><trkpt lat="44.3766503" lon="8.4095853"><ele>738.4000000000001</ele><time>2026-05-01T08:55:48.965Z</time></trkpt><trkpt lat="44.376741" lon="8.4095226"><ele>736.2</ele><time>2026-05-01T08:55:49.965Z</time></trkpt><trkpt lat="44.3768211" lon="8.4094489"><ele>734.0</ele><time>2026-05-01T08:55:50.965Z</time></trkpt><trkpt lat="44.3768915" lon="8.4093448"><ele>734.0</ele><time>2026-05-01T08:55:51.966Z</time></trkpt><trkpt lat="44.3769484" lon="8.4092129"><ele>734.0</ele><time>2026-05-01T08:55:52.965Z</time></trkpt><trkpt lat="44.3769854" lon="8.4090491"><ele>734.0</ele><time>2026-05-01T08:55:53.965Z</time></trkpt><trkpt lat="44.3770149" lon="8.4088604"><ele>734.0</ele><time>2026-05-01T08:55:54.965Z</time></trkpt><trkpt lat="44.3770457" lon="8.4086694"><ele>731.5</ele><time>2026-05-01T08:55:55.966Z</time></trkpt><trkpt lat="44.3770626" lon="8.4084751"><ele>729.0</ele><time>2026-05-01T08:55:56.965Z</time></trkpt><trkpt lat="44.3770812" lon="8.408284"><ele>726.5</ele><time>2026-05-01T08:55:57.965Z</time></trkpt><trkpt lat="44.3771156" lon="8.4080937"><ele>724.0</ele><time>2026-05-01T08:55:58.966Z</time></trkpt><trkpt lat="44.3771644" lon="8.407906"><ele>729.25</ele><time>2026-05-01T08:55:59.965Z</time></trkpt><trkpt lat="44.3772317" lon="8.4077283"><ele>734.5</ele><time>2026-05-01T08:56:00.965Z</time></trkpt><trkpt lat="44.3772973" lon="8.4075506"><ele>739.75</ele><time>2026-05-01T08:56:01.965Z</time></trkpt><trkpt lat="44.3773744" lon="8.4073759"><ele>745.0</ele><time>2026-05-01T08:56:02.965Z</time></trkpt><trkpt lat="44.377459" lon="8.4072082"><ele>740.25</ele><time>2026-05-01T08:56:03.965Z</time></trkpt><trkpt lat="44.3775408" lon="8.4070729"><ele>735.5</ele><time>2026-05-01T08:56:04.965Z</time></trkpt><trkpt lat="44.3776427" lon="8.4069665"><ele>730.75</ele><time>2026-05-01T08:56:05.965Z</time></trkpt><trkpt lat="44.3777517" lon="8.4069"><ele>726.0</ele><time>2026-05-01T08:56:06.965Z</time></trkpt><trkpt lat="44.3778593" lon="8.4068601"><ele>726.0</ele><time>2026-05-01T08:56:07.965Z</time></trkpt><trkpt lat="44.3779637" lon="8.4068577"><ele>726.0</ele><time>2026-05-01T08:56:08.965Z</time></trkpt><trkpt lat="44.3780806" lon="8.4068947"><ele>726.0</ele><time>2026-05-01T08:56:09.965Z</time></trkpt><trkpt lat="44.3781957" lon="8.4069615"><ele>726.0</ele><time>2026-05-01T08:56:10.965Z</time></trkpt><trkpt lat="44.3783108" lon="8.4070509"><ele>731.5</ele><time>2026-05-01T08:56:11.966Z</time></trkpt><trkpt lat="44.3784179" lon="8.4071668"><ele>737.0</ele><time>2026-05-01T08:56:12.965Z</time></trkpt><trkpt lat="44.3785202" lon="8.4073188"><ele>742.5</ele><time>2026-05-01T08:56:13.965Z</time></trkpt><trkpt lat="44.378608" lon="8.4074713"><ele>748.0</ele><time>2026-05-01T08:56:14.966Z</time></trkpt><trkpt lat="44.3786763" lon="8.4076177"><ele>748.0</ele><time>2026-05-01T08:56:15.965Z</time></trkpt><trkpt lat="44.3787253" lon="8.407758"><ele>748.0</ele><time>2026-05-01T08:56:16.966Z</time></trkpt><trkpt lat="44.378769" lon="8.4078963"><ele>748.0</ele><time>2026-05-01T08:56:17.965Z</time></trkpt><trkpt lat="44.3788072" lon="8.4080302"><ele>748.0</ele><time>2026-05-01T08:56:18.966Z</time></trkpt><trkpt lat="44.3788483" lon="8.4081401"><ele>748.0</ele><time>2026-05-01T08:56:19.966Z</time></trkpt><trkpt lat="44.3789019" lon="8.4082228"><ele>748.0</ele><time>2026-05-01T08:56:20.965Z</time></trkpt><trkpt lat="44.3789532" lon="8.408286"><ele>748.0</ele><time>2026-05-01T08:56:21.965Z</time></trkpt><trkpt lat="44.3790604" lon="8.4083179"><ele>748.0</ele><time>2026-05-01T08:56:23.966Z</time></trkpt><trkpt lat="44.3791581" lon="8.408187"><ele>748.0</ele><time>2026-05-01T08:56:25.966Z</time></trkpt><trkpt lat="44.3791863" lon="8.4080346"><ele>748.0</ele><time>2026-05-01T08:56:26.965Z</time></trkpt><trkpt lat="44.3791846" lon="8.4078276"><ele>745.6666666666667</ele><time>2026-05-01T08:56:27.965Z</time></trkpt><trkpt lat="44.3791625" lon="8.4075448"><ele>743.3333333333334</ele><time>2026-05-01T08:56:28.965Z</time></trkpt><trkpt lat="44.3791203" lon="8.4072706"><ele>741.0</ele><time>2026-05-01T08:56:29.965Z</time></trkpt><trkpt lat="44.3791084" lon="8.4070211"><ele>738.5</ele><time>2026-05-01T08:56:30.966Z</time></trkpt><trkpt lat="44.3791189" lon="8.406795"><ele>736.0</ele><time>2026-05-01T08:56:31.965Z</time></trkpt><trkpt lat="44.3791387" lon="8.4065964"><ele>733.5</ele><time>2026-05-01T08:56:32.965Z</time></trkpt><trkpt lat="44.3791744" lon="8.4064066"><ele>731.0</ele><time>2026-05-01T08:56:33.965Z</time></trkpt><trkpt lat="44.3792235" lon="8.4062273"><ele>726.0</ele><time>2026-05-01T08:56:34.966Z</time></trkpt><trkpt lat="44.3792783" lon="8.4060494"><ele>721.0</ele><time>2026-05-01T08:56:35.965Z</time></trkpt><trkpt lat="44.3793339" lon="8.4058779"><ele>716.0</ele><time>2026-05-01T08:56:36.965Z</time></trkpt><trkpt lat="44.3793941" lon="8.4057352"><ele>711.0</ele><time>2026-05-01T08:56:37.965Z</time></trkpt><trkpt lat="44.3794576" lon="8.405593"><ele>713.25</ele><time>2026-05-01T08:56:38.965Z</time></trkpt><trkpt lat="44.3795293" lon="8.4054578"><ele>715.5</ele><time>2026-05-01T08:56:39.965Z</time></trkpt><trkpt lat="44.3796066" lon="8.4053337"><ele>717.75</ele><time>2026-05-01T08:56:40.965Z</time></trkpt><trkpt lat="44.3797006" lon="8.4052241"><ele>720.0</ele><time>2026-05-01T08:56:41.965Z</time></trkpt><trkpt lat="44.3798044" lon="8.4051267"><ele>720.0</ele><time>2026-05-01T08:56:42.965Z</time></trkpt><trkpt lat="44.3799263" lon="8.4050572"><ele>720.0</ele><time>2026-05-01T08:56:43.965Z</time></trkpt><trkpt lat="44.3800584" lon="8.40502"><ele>720.0</ele><time>2026-05-01T08:56:44.965Z</time></trkpt><trkpt lat="44.3801898" lon="8.4049819"><ele>720.0</ele><time>2026-05-01T08:56:45.965Z</time></trkpt><trkpt lat="44.3803231" lon="8.4049465"><ele>720.0</ele><time>2026-05-01T08:56:46.964Z</time></trkpt><trkpt lat="44.3804567" lon="8.4049087"><ele>720.0</ele><time>2026-05-01T08:56:47.964Z</time></trkpt><trkpt lat="44.3805882" lon="8.4048686"><ele>720.0</ele><time>2026-05-01T08:56:48.964Z</time></trkpt><trkpt lat="44.380715" lon="8.4048362"><ele>720.0</ele><time>2026-05-01T08:56:49.964Z</time></trkpt><trkpt lat="44.3808405" lon="8.404805"><ele>720.0</ele><time>2026-05-01T08:56:50.964Z</time></trkpt><trkpt lat="44.380959" lon="8.4047667"><ele>720.0</ele><time>2026-05-01T08:56:51.965Z</time></trkpt><trkpt lat="44.3810845" lon="8.4047351"><ele>720.0</ele><time>2026-05-01T08:56:52.965Z</time></trkpt><trkpt lat="44.381206" lon="8.4047173"><ele>720.0</ele><time>2026-05-01T08:56:53.964Z</time></trkpt><trkpt lat="44.3813285" lon="8.4047097"><ele>720.25</ele><time>2026-05-01T08:56:54.964Z</time></trkpt><trkpt lat="44.3814565" lon="8.4046908"><ele>720.5</ele><time>2026-05-01T08:56:55.964Z</time></trkpt><trkpt lat="44.3815926" lon="8.4046784"><ele>720.75</ele><time>2026-05-01T08:56:56.965Z</time></trkpt><trkpt lat="44.3817311" lon="8.4046544"><ele>721.0</ele><time>2026-05-01T08:56:57.965Z</time></trkpt><trkpt lat="44.3818688" lon="8.4046337"><ele>718.25</ele><time>2026-05-01T08:56:58.965Z</time></trkpt><trkpt lat="44.3820023" lon="8.404603"><ele>715.5</ele><time>2026-05-01T08:56:59.964Z</time></trkpt><trkpt lat="44.382132" lon="8.4045584"><ele>712.75</ele><time>2026-05-01T08:57:00.965Z</time></trkpt><trkpt lat="44.3822606" lon="8.4045008"><ele>710.0</ele><time>2026-05-01T08:57:01.964Z</time></trkpt><trkpt lat="44.3823886" lon="8.4044341"><ele>709.5</ele><time>2026-05-01T08:57:02.964Z</time></trkpt><trkpt lat="44.3825175" lon="8.4043513"><ele>709.0</ele><time>2026-05-01T08:57:03.964Z</time></trkpt><trkpt lat="44.3826346" lon="8.4042519"><ele>708.5</ele><time>2026-05-01T08:57:04.965Z</time></trkpt><trkpt lat="44.3827466" lon="8.4041377"><ele>708.0</ele><time>2026-05-01T08:57:05.965Z</time></trkpt><trkpt lat="44.382863" lon="8.4040316"><ele>708.0</ele><time>2026-05-01T08:57:06.965Z</time></trkpt><trkpt lat="44.3829785" lon="8.4039447"><ele>708.0</ele><time>2026-05-01T08:57:07.964Z</time></trkpt><trkpt lat="44.3831022" lon="8.4038641"><ele>708.0</ele><time>2026-05-01T08:57:08.965Z</time></trkpt><trkpt lat="44.3832248" lon="8.4038022"><ele>708.0</ele><time>2026-05-01T08:57:09.964Z</time></trkpt><trkpt lat="44.3833536" lon="8.4037447"><ele>705.75</ele><time>2026-05-01T08:57:10.964Z</time></trkpt><trkpt lat="44.3834887" lon="8.4036915"><ele>703.5</ele><time>2026-05-01T08:57:11.964Z</time></trkpt><trkpt lat="44.3836321" lon="8.403647"><ele>701.25</ele><time>2026-05-01T08:57:12.964Z</time></trkpt><trkpt lat="44.3837596" lon="8.4036168"><ele>699.0</ele><time>2026-05-01T08:57:13.964Z</time></trkpt><trkpt lat="44.383923" lon="8.4035672"><ele>699.0</ele><time>2026-05-01T08:57:14.964Z</time></trkpt><trkpt lat="44.3840834" lon="8.4035236"><ele>699.0</ele><time>2026-05-01T08:57:15.965Z</time></trkpt><trkpt lat="44.384239" lon="8.4034733"><ele>699.0</ele><time>2026-05-01T08:57:16.964Z</time></trkpt><trkpt lat="44.3843861" lon="8.4034213"><ele>699.0</ele><time>2026-05-01T08:57:17.964Z</time></trkpt><trkpt lat="44.3845329" lon="8.4033627"><ele>699.0</ele><time>2026-05-01T08:57:18.965Z</time></trkpt><trkpt lat="44.3846796" lon="8.4033048"><ele>699.0</ele><time>2026-05-01T08:57:19.964Z</time></trkpt><trkpt lat="44.3848223" lon="8.4032453"><ele>701.0</ele><time>2026-05-01T08:57:20.965Z</time></trkpt><trkpt lat="44.3849686" lon="8.4031715"><ele>703.0</ele><time>2026-05-01T08:57:21.964Z</time></trkpt><trkpt lat="44.3851004" lon="8.4030645"><ele>705.0</ele><time>2026-05-01T08:57:22.964Z</time></trkpt><trkpt lat="44.385221" lon="8.4029534"><ele>704.5</ele><time>2026-05-01T08:57:23.965Z</time></trkpt><trkpt lat="44.3853425" lon="8.4028496"><ele>704.0</ele><time>2026-05-01T08:57:24.965Z</time></trkpt><trkpt lat="44.3854483" lon="8.4027533"><ele>703.5</ele><time>2026-05-01T08:57:25.965Z</time></trkpt><trkpt lat="44.3855352" lon="8.4026735"><ele>703.0</ele><time>2026-05-01T08:57:26.964Z</time></trkpt><trkpt lat="44.3856156" lon="8.4025982"><ele>703.0</ele><time>2026-05-01T08:57:27.965Z</time></trkpt><trkpt lat="44.3856829" lon="8.4024993"><ele>703.0</ele><time>2026-05-01T08:57:28.964Z</time></trkpt><trkpt lat="44.3857374" lon="8.402377"><ele>703.0</ele><time>2026-05-01T08:57:29.965Z</time></trkpt><trkpt lat="44.3857771" lon="8.4022419"><ele>703.0</ele><time>2026-05-01T08:57:30.965Z</time></trkpt><trkpt lat="44.3858102" lon="8.4020762"><ele>703.0</ele><time>2026-05-01T08:57:31.964Z</time></trkpt><trkpt lat="44.3858383" lon="8.4019153"><ele>700.4</ele><time>2026-05-01T08:57:32.964Z</time></trkpt><trkpt lat="44.3858708" lon="8.4017892"><ele>697.8</ele><time>2026-05-01T08:57:33.964Z</time></trkpt><trkpt lat="44.3859251" lon="8.4016963"><ele>695.2</ele><time>2026-05-01T08:57:34.964Z</time></trkpt><trkpt lat="44.3860096" lon="8.4016414"><ele>692.6</ele><time>2026-05-01T08:57:35.965Z</time></trkpt><trkpt lat="44.3861099" lon="8.4016117"><ele>690.0</ele><time>2026-05-01T08:57:36.964Z</time></trkpt><trkpt lat="44.3862008" lon="8.4015845"><ele>690.0</ele><time>2026-05-01T08:57:37.964Z</time></trkpt><trkpt lat="44.3862811" lon="8.4015435"><ele>690.0</ele><time>2026-05-01T08:57:38.965Z</time></trkpt><trkpt lat="44.386349" lon="8.4014686"><ele>690.0</ele><time>2026-05-01T08:57:39.965Z</time></trkpt><trkpt lat="44.3864167" lon="8.4013741"><ele>690.0</ele><time>2026-05-01T08:57:40.965Z</time></trkpt><trkpt lat="44.3864926" lon="8.4012895"><ele>690.0</ele><time>2026-05-01T08:57:41.965Z</time></trkpt><trkpt lat="44.3865823" lon="8.401238"><ele>690.0</ele><time>2026-05-01T08:57:42.964Z</time></trkpt><trkpt lat="44.3866887" lon="8.4012302"><ele>690.0</ele><time>2026-05-01T08:57:43.964Z</time></trkpt><trkpt lat="44.3868047" lon="8.4012557"><ele>690.0</ele><time>2026-05-01T08:57:44.965Z</time></trkpt><trkpt lat="44.3869245" lon="8.4013169"><ele>690.0</ele><time>2026-05-01T08:57:45.964Z</time></trkpt><trkpt lat="44.3870444" lon="8.4014101"><ele>690.0</ele><time>2026-05-01T08:57:46.964Z</time></trkpt><trkpt lat="44.3871561" lon="8.4015324"><ele>690.0</ele><time>2026-05-01T08:57:47.965Z</time></trkpt><trkpt lat="44.3872586" lon="8.4016629"><ele>690.0</ele><time>2026-05-01T08:57:48.964Z</time></trkpt><trkpt lat="44.387358" lon="8.401812"><ele>690.0</ele><time>2026-05-01T08:57:49.964Z</time></trkpt><trkpt lat="44.3874428" lon="8.4019548"><ele>688.75</ele><time>2026-05-01T08:57:50.965Z</time></trkpt><trkpt lat="44.387511" lon="8.4021112"><ele>687.5</ele><time>2026-05-01T08:57:51.964Z</time></trkpt><trkpt lat="44.3875572" lon="8.4022711"><ele>686.25</ele><time>2026-05-01T08:57:52.964Z</time></trkpt><trkpt lat="44.3875869" lon="8.4024133"><ele>685.0</ele><time>2026-05-01T08:57:53.965Z</time></trkpt><trkpt lat="44.387614" lon="8.402534"><ele>685.0</ele><time>2026-05-01T08:57:54.964Z</time></trkpt><trkpt lat="44.3876528" lon="8.402635"><ele>685.0</ele><time>2026-05-01T08:57:55.964Z</time></trkpt><trkpt lat="44.3877062" lon="8.4027114"><ele>685.0</ele><time>2026-05-01T08:57:56.965Z</time></trkpt><trkpt lat="44.3877699" lon="8.4027561"><ele>685.0</ele><time>2026-05-01T08:57:57.964Z</time></trkpt><trkpt lat="44.387835" lon="8.4027721"><ele>685.0</ele><time>2026-05-01T08:57:58.964Z</time></trkpt><trkpt lat="44.3879056" lon="8.4027171"><ele>685.0</ele><time>2026-05-01T08:57:59.964Z</time></trkpt><trkpt lat="44.3879892" lon="8.4026192"><ele>682.0</ele><time>2026-05-01T08:58:00.964Z</time></trkpt><trkpt lat="44.3880821" lon="8.4024981"><ele>679.0</ele><time>2026-05-01T08:58:01.964Z</time></trkpt><trkpt lat="44.3881778" lon="8.4024082"><ele>676.0</ele><time>2026-05-01T08:58:02.964Z</time></trkpt><trkpt lat="44.3882809" lon="8.4023514"><ele>673.0</ele><time>2026-05-01T08:58:03.964Z</time></trkpt><trkpt lat="44.3883932" lon="8.4023313"><ele>673.0</ele><time>2026-05-01T08:58:04.964Z</time></trkpt><trkpt lat="44.3885056" lon="8.4023404"><ele>673.0</ele><time>2026-05-01T08:58:05.965Z</time></trkpt><trkpt lat="44.388617" lon="8.4023651"><ele>673.0</ele><time>2026-05-01T08:58:06.964Z</time></trkpt><trkpt lat="44.3887153" lon="8.402409"><ele>673.0</ele><time>2026-05-01T08:58:07.965Z</time></trkpt><trkpt lat="44.388812" lon="8.4024618"><ele>673.0</ele><time>2026-05-01T08:58:08.964Z</time></trkpt><trkpt lat="44.3889021" lon="8.4025083"><ele>670.8</ele><time>2026-05-01T08:58:09.964Z</time></trkpt><trkpt lat="44.3889944" lon="8.4025415"><ele>668.5999999999999</ele><time>2026-05-01T08:58:10.964Z</time></trkpt><trkpt lat="44.3890962" lon="8.4025685"><ele>666.4000000000001</ele><time>2026-05-01T08:58:11.964Z</time></trkpt><trkpt lat="44.389197" lon="8.4025885"><ele>664.2</ele><time>2026-05-01T08:58:12.965Z</time></trkpt><trkpt lat="44.3892984" lon="8.4026095"><ele>662.0</ele><time>2026-05-01T08:58:13.964Z</time></trkpt><trkpt lat="44.3893948" lon="8.4026321"><ele>662.0</ele><time>2026-05-01T08:58:14.964Z</time></trkpt><trkpt lat="44.389487" lon="8.4026532"><ele>662.0</ele><time>2026-05-01T08:58:15.964Z</time></trkpt><trkpt lat="44.3895719" lon="8.4026944"><ele>662.0</ele><time>2026-05-01T08:58:16.964Z</time></trkpt><trkpt lat="44.3896497" lon="8.4027543"><ele>662.0</ele><time>2026-05-01T08:58:17.964Z</time></trkpt><trkpt lat="44.3897269" lon="8.4028125"><ele>662.0</ele><time>2026-05-01T08:58:18.965Z</time></trkpt><trkpt lat="44.3898015" lon="8.4028716"><ele>662.0</ele><time>2026-05-01T08:58:19.964Z</time></trkpt><trkpt lat="44.389867" lon="8.4029287"><ele>661.8333333333333</ele><time>2026-05-01T08:58:20.965Z</time></trkpt><trkpt lat="44.3899374" lon="8.4029763"><ele>661.6666666666666</ele><time>2026-05-01T08:58:21.965Z</time></trkpt><trkpt lat="44.3900063" lon="8.4030203"><ele>661.5</ele><time>2026-05-01T08:58:22.964Z</time></trkpt><trkpt lat="44.3900775" lon="8.4030654"><ele>661.3333333333334</ele><time>2026-05-01T08:58:23.964Z</time></trkpt><trkpt lat="44.3901484" lon="8.4031098"><ele>661.1666666666667</ele><time>2026-05-01T08:58:24.964Z</time></trkpt><trkpt lat="44.390228" lon="8.4031542"><ele>661.0</ele><time>2026-05-01T08:58:25.964Z</time></trkpt><trkpt lat="44.3903202" lon="8.4032134"><ele>661.0</ele><time>2026-05-01T08:58:26.964Z</time></trkpt><trkpt lat="44.3904249" lon="8.4032775"><ele>661.0</ele><time>2026-05-01T08:58:27.964Z</time></trkpt><trkpt lat="44.3905345" lon="8.403353"><ele>661.0</ele><time>2026-05-01T08:58:28.964Z</time></trkpt><trkpt lat="44.3906494" lon="8.4034351"><ele>661.0</ele><time>2026-05-01T08:58:29.964Z</time></trkpt><trkpt lat="44.3907709" lon="8.4035165"><ele>660.25</ele><time>2026-05-01T08:58:30.965Z</time></trkpt><trkpt lat="44.3908983" lon="8.4036107"><ele>659.5</ele><time>2026-05-01T08:58:31.965Z</time></trkpt><trkpt lat="44.3910221" lon="8.4037142"><ele>658.75</ele><time>2026-05-01T08:58:32.964Z</time></trkpt><trkpt lat="44.3911419" lon="8.4038186"><ele>658.0</ele><time>2026-05-01T08:58:33.964Z</time></trkpt><trkpt lat="44.3912574" lon="8.4039219"><ele>656.5</ele><time>2026-05-01T08:58:34.965Z</time></trkpt><trkpt lat="44.3913662" lon="8.4040376"><ele>655.0</ele><time>2026-05-01T08:58:35.964Z</time></trkpt><trkpt lat="44.3914608" lon="8.4041535"><ele>653.5</ele><time>2026-05-01T08:58:36.965Z</time></trkpt><trkpt lat="44.3915499" lon="8.4042673"><ele>652.0</ele><time>2026-05-01T08:58:37.964Z</time></trkpt><trkpt lat="44.3916397" lon="8.4043823"><ele>652.0</ele><time>2026-05-01T08:58:38.964Z</time></trkpt><trkpt lat="44.3917243" lon="8.4045082"><ele>652.0</ele><time>2026-05-01T08:58:39.964Z</time></trkpt><trkpt lat="44.3918023" lon="8.4046451"><ele>652.0</ele><time>2026-05-01T08:58:40.964Z</time></trkpt><trkpt lat="44.3918716" lon="8.4047919"><ele>652.0</ele><time>2026-05-01T08:58:41.964Z</time></trkpt><trkpt lat="44.391948" lon="8.4049396"><ele>650.5</ele><time>2026-05-01T08:58:42.964Z</time></trkpt><trkpt lat="44.3920173" lon="8.4050882"><ele>649.0</ele><time>2026-05-01T08:58:43.964Z</time></trkpt><trkpt lat="44.3921017" lon="8.4052391"><ele>647.5</ele><time>2026-05-01T08:58:44.964Z</time></trkpt><trkpt lat="44.3921955" lon="8.4053732"><ele>646.0</ele><time>2026-05-01T08:58:45.965Z</time></trkpt><trkpt lat="44.3923007" lon="8.4054934"><ele>648.25</ele><time>2026-05-01T08:58:46.965Z</time></trkpt><trkpt lat="44.3924153" lon="8.4056077"><ele>650.5</ele><time>2026-05-01T08:58:47.965Z</time></trkpt><trkpt lat="44.3925312" lon="8.4057178"><ele>652.75</ele><time>2026-05-01T08:58:48.964Z</time></trkpt><trkpt lat="44.3926584" lon="8.4058245"><ele>655.0</ele><time>2026-05-01T08:58:49.964Z</time></trkpt><trkpt lat="44.3927924" lon="8.4059304"><ele>655.0</ele><time>2026-05-01T08:58:50.965Z</time></trkpt><trkpt lat="44.3929372" lon="8.4060234"><ele>655.0</ele><time>2026-05-01T08:58:51.964Z</time></trkpt><trkpt lat="44.3930804" lon="8.4061166"><ele>655.0</ele><time>2026-05-01T08:58:52.964Z</time></trkpt><trkpt lat="44.3932204" lon="8.4061962"><ele>656.75</ele><time>2026-05-01T08:58:53.964Z</time></trkpt><trkpt lat="44.3933589" lon="8.4062695"><ele>658.5</ele><time>2026-05-01T08:58:54.964Z</time></trkpt><trkpt lat="44.3934907" lon="8.4063326"><ele>660.25</ele><time>2026-05-01T08:58:55.964Z</time></trkpt><trkpt lat="44.3936185" lon="8.4063819"><ele>662.0</ele><time>2026-05-01T08:58:56.965Z</time></trkpt><trkpt lat="44.3937542" lon="8.4064154"><ele>660.0</ele><time>2026-05-01T08:58:57.965Z</time></trkpt><trkpt lat="44.3939098" lon="8.406417"><ele>658.0</ele><time>2026-05-01T08:58:58.964Z</time></trkpt><trkpt lat="44.3940685" lon="8.4064143"><ele>656.0</ele><time>2026-05-01T08:58:59.965Z</time></trkpt><trkpt lat="44.3942218" lon="8.4064049"><ele>656.0</ele><time>2026-05-01T08:59:00.964Z</time></trkpt><trkpt lat="44.3943624" lon="8.4063889"><ele>656.0</ele><time>2026-05-01T08:59:01.965Z</time></trkpt><trkpt lat="44.3945078" lon="8.4063934"><ele>656.0</ele><time>2026-05-01T08:59:02.964Z</time></trkpt><trkpt lat="44.3946569" lon="8.4064077"><ele>656.0</ele><time>2026-05-01T08:59:03.964Z</time></trkpt><trkpt lat="44.3947998" lon="8.4064336"><ele>654.5</ele><time>2026-05-01T08:59:04.965Z</time></trkpt><trkpt lat="44.39494" lon="8.4064799"><ele>653.0</ele><time>2026-05-01T08:59:05.965Z</time></trkpt><trkpt lat="44.3950724" lon="8.4065315"><ele>651.5</ele><time>2026-05-01T08:59:06.965Z</time></trkpt><trkpt lat="44.3952034" lon="8.4066114"><ele>650.0</ele><time>2026-05-01T08:59:07.964Z</time></trkpt><trkpt lat="44.3953218" lon="8.4067159"><ele>650.0</ele><time>2026-05-01T08:59:08.964Z</time></trkpt><trkpt lat="44.3954332" lon="8.4068343"><ele>650.0</ele><time>2026-05-01T08:59:09.964Z</time></trkpt><trkpt lat="44.3955477" lon="8.4069765"><ele>650.0</ele><time>2026-05-01T08:59:10.965Z</time></trkpt><trkpt lat="44.3956665" lon="8.4071224"><ele>648.0</ele><time>2026-05-01T08:59:11.965Z</time></trkpt><trkpt lat="44.3957737" lon="8.4072672"><ele>646.0</ele><time>2026-05-01T08:59:12.964Z</time></trkpt><trkpt lat="44.3958789" lon="8.4074374"><ele>644.0</ele><time>2026-05-01T08:59:13.964Z</time></trkpt><trkpt lat="44.3959684" lon="8.4076206"><ele>644.0</ele><time>2026-05-01T08:59:14.964Z</time></trkpt><trkpt lat="44.3960413" lon="8.4078123"><ele>644.0</ele><time>2026-05-01T08:59:15.964Z</time></trkpt><trkpt lat="44.3961145" lon="8.4079905"><ele>644.0</ele><time>2026-05-01T08:59:16.964Z</time></trkpt><trkpt lat="44.3961954" lon="8.4081452"><ele>644.0</ele><time>2026-05-01T08:59:17.965Z</time></trkpt><trkpt lat="44.3962698" lon="8.4082927"><ele>642.5</ele><time>2026-05-01T08:59:18.965Z</time></trkpt><trkpt lat="44.3963576" lon="8.4084253"><ele>641.0</ele><time>2026-05-01T08:59:19.964Z</time></trkpt><trkpt lat="44.3964545" lon="8.4085297"><ele>639.5</ele><time>2026-05-01T08:59:20.965Z</time></trkpt><trkpt lat="44.3965534" lon="8.4086133"><ele>638.0</ele><time>2026-05-01T08:59:21.965Z</time></trkpt><trkpt lat="44.3966492" lon="8.4086919"><ele>638.0</ele><time>2026-05-01T08:59:22.964Z</time></trkpt><trkpt lat="44.3967546" lon="8.4087441"><ele>638.0</ele><time>2026-05-01T08:59:23.965Z</time></trkpt><trkpt lat="44.3968631" lon="8.4087781"><ele>638.0</ele><time>2026-05-01T08:59:24.965Z</time></trkpt><trkpt lat="44.3969584" lon="8.4088151"><ele>638.0</ele><time>2026-05-01T08:59:25.964Z</time></trkpt><trkpt lat="44.397049" lon="8.4088601"><ele>638.0</ele><time>2026-05-01T08:59:26.964Z</time></trkpt><trkpt lat="44.397136" lon="8.4089211"><ele>637.4</ele><time>2026-05-01T08:59:27.964Z</time></trkpt><trkpt lat="44.3972116" lon="8.40901"><ele>636.8</ele><time>2026-05-01T08:59:28.964Z</time></trkpt><trkpt lat="44.3972768" lon="8.4091189"><ele>636.2</ele><time>2026-05-01T08:59:29.964Z</time></trkpt><trkpt lat="44.3973314" lon="8.409252"><ele>635.6</ele><time>2026-05-01T08:59:30.964Z</time></trkpt><trkpt lat="44.397373" lon="8.4094048"><ele>635.0</ele><time>2026-05-01T08:59:31.964Z</time></trkpt><trkpt lat="44.3974029" lon="8.4095655"><ele>634.75</ele><time>2026-05-01T08:59:32.964Z</time></trkpt><trkpt lat="44.3974331" lon="8.4097312"><ele>634.5</ele><time>2026-05-01T08:59:33.964Z</time></trkpt><trkpt lat="44.3974552" lon="8.4099049"><ele>634.25</ele><time>2026-05-01T08:59:34.965Z</time></trkpt><trkpt lat="44.3974779" lon="8.4100707"><ele>634.0</ele><time>2026-05-01T08:59:35.964Z</time></trkpt><trkpt lat="44.3974988" lon="8.4102251"><ele>634.0</ele><time>2026-05-01T08:59:36.964Z</time></trkpt><trkpt lat="44.397527" lon="8.4103769"><ele>634.0</ele><time>2026-05-01T08:59:37.965Z</time></trkpt><trkpt lat="44.3975481" lon="8.4105178"><ele>634.0</ele><time>2026-05-01T08:59:38.964Z</time></trkpt><trkpt lat="44.3975739" lon="8.4106454"><ele>634.0</ele><time>2026-05-01T08:59:39.964Z</time></trkpt><trkpt lat="44.3976123" lon="8.4107562"><ele>634.0</ele><time>2026-05-01T08:59:40.964Z</time></trkpt><trkpt lat="44.3976632" lon="8.4108586"><ele>634.0</ele><time>2026-05-01T08:59:41.964Z</time></trkpt><trkpt lat="44.3977365" lon="8.4109453"><ele>634.0</ele><time>2026-05-01T08:59:42.965Z</time></trkpt><trkpt lat="44.3978325" lon="8.4109991"><ele>634.0</ele><time>2026-05-01T08:59:43.964Z</time></trkpt><trkpt lat="44.3979418" lon="8.4110224"><ele>634.0</ele><time>2026-05-01T08:59:44.964Z</time></trkpt><trkpt lat="44.3980588" lon="8.4110236"><ele>634.0</ele><time>2026-05-01T08:59:45.965Z</time></trkpt><trkpt lat="44.3981709" lon="8.4110031"><ele>633.75</ele><time>2026-05-01T08:59:46.965Z</time></trkpt><trkpt lat="44.3982838" lon="8.410947"><ele>633.5</ele><time>2026-05-01T08:59:47.964Z</time></trkpt><trkpt lat="44.3983916" lon="8.4108683"><ele>633.25</ele><time>2026-05-01T08:59:48.964Z</time></trkpt><trkpt lat="44.3984925" lon="8.4107466"><ele>633.0</ele><time>2026-05-01T08:59:49.965Z</time></trkpt><trkpt lat="44.3985886" lon="8.4105975"><ele>631.0</ele><time>2026-05-01T08:59:50.965Z</time></trkpt><trkpt lat="44.3986778" lon="8.4104492"><ele>629.0</ele><time>2026-05-01T08:59:51.964Z</time></trkpt><trkpt lat="44.3987602" lon="8.4103168"><ele>627.0</ele><time>2026-05-01T08:59:52.964Z</time></trkpt><trkpt lat="44.3988287" lon="8.410216"><ele>625.0</ele><time>2026-05-01T08:59:53.964Z</time></trkpt><trkpt lat="44.3988982" lon="8.4101314"><ele>624.6666666666667</ele><time>2026-05-01T08:59:54.964Z</time></trkpt><trkpt lat="44.3989585" lon="8.4100846"><ele>624.3333333333334</ele><time>2026-05-01T08:59:55.964Z</time></trkpt><trkpt lat="44.3990288" lon="8.4100675"><ele>624.0</ele><time>2026-05-01T08:59:56.964Z</time></trkpt><trkpt lat="44.3991096" lon="8.410087"><ele>623.6666666666666</ele><time>2026-05-01T08:59:57.964Z</time></trkpt><trkpt lat="44.39919" lon="8.4101688"><ele>623.3333333333333</ele><time>2026-05-01T08:59:58.964Z</time></trkpt><trkpt lat="44.3992578" lon="8.4102904"><ele>623.0</ele><time>2026-05-01T08:59:59.964Z</time></trkpt><trkpt lat="44.3993195" lon="8.4104739"><ele>623.0</ele><time>2026-05-01T09:00:00.965Z</time></trkpt><trkpt lat="44.3993716" lon="8.4106987"><ele>623.0</ele><time>2026-05-01T09:00:01.964Z</time></trkpt><trkpt lat="44.3994239" lon="8.4109253"><ele>623.0</ele><time>2026-05-01T09:00:02.965Z</time></trkpt><trkpt lat="44.3994842" lon="8.4111317"><ele>623.0</ele><time>2026-05-01T09:00:03.965Z</time></trkpt><trkpt lat="44.3995422" lon="8.4113106"><ele>623.0</ele><time>2026-05-01T09:00:04.964Z</time></trkpt><trkpt lat="44.3996032" lon="8.4114669"><ele>623.0</ele><time>2026-05-01T09:00:05.964Z</time></trkpt><trkpt lat="44.3996735" lon="8.4116119"><ele>623.0</ele><time>2026-05-01T09:00:06.964Z</time></trkpt><trkpt lat="44.3997454" lon="8.4117513"><ele>621.25</ele><time>2026-05-01T09:00:07.965Z</time></trkpt><trkpt lat="44.3998278" lon="8.4118967"><ele>619.5</ele><time>2026-05-01T09:00:08.964Z</time></trkpt><trkpt lat="44.399916" lon="8.4120431"><ele>617.75</ele><time>2026-05-01T09:00:09.964Z</time></trkpt><trkpt lat="44.4000174" lon="8.4121796"><ele>616.0</ele><time>2026-05-01T09:00:10.964Z</time></trkpt><trkpt lat="44.4001087" lon="8.4122966"><ele>616.0</ele><time>2026-05-01T09:00:11.964Z</time></trkpt><trkpt lat="44.4002006" lon="8.4124065"><ele>616.0</ele><time>2026-05-01T09:00:12.965Z</time></trkpt><trkpt lat="44.4002857" lon="8.412503"><ele>616.0</ele><time>2026-05-01T09:00:13.964Z</time></trkpt><trkpt lat="44.4003728" lon="8.4125802"><ele>616.0</ele><time>2026-05-01T09:00:14.964Z</time></trkpt><trkpt lat="44.4004661" lon="8.4126377"><ele>616.0</ele><time>2026-05-01T09:00:15.964Z</time></trkpt><trkpt lat="44.4005637" lon="8.4126647"><ele>617.0</ele><time>2026-05-01T09:00:16.964Z</time></trkpt><trkpt lat="44.4006659" lon="8.4126586"><ele>618.0</ele><time>2026-05-01T09:00:17.964Z</time></trkpt><trkpt lat="44.4007671" lon="8.4126148"><ele>619.0</ele><time>2026-05-01T09:00:18.965Z</time></trkpt><trkpt lat="44.4008563" lon="8.4125376"><ele>620.0</ele><time>2026-05-01T09:00:19.965Z</time></trkpt><trkpt lat="44.4009281" lon="8.4124542"><ele>621.0</ele><time>2026-05-01T09:00:20.964Z</time></trkpt><trkpt lat="44.4009938" lon="8.4123795"><ele>621.0</ele><time>2026-05-01T09:00:21.964Z</time></trkpt><trkpt lat="44.4010632" lon="8.4123127"><ele>621.0</ele><time>2026-05-01T09:00:22.964Z</time></trkpt><trkpt lat="44.4011398" lon="8.4122827"><ele>621.0</ele><time>2026-05-01T09:00:23.965Z</time></trkpt><trkpt lat="44.4012198" lon="8.4122647"><ele>621.0</ele><time>2026-05-01T09:00:24.964Z</time></trkpt><trkpt lat="44.401307" lon="8.4122713"><ele>621.0</ele><time>2026-05-01T09:00:25.964Z</time></trkpt><trkpt lat="44.4014027" lon="8.4123111"><ele>621.0</ele><time>2026-05-01T09:00:26.964Z</time></trkpt><trkpt lat="44.4015161" lon="8.4123936"><ele>619.3333333333334</ele><time>2026-05-01T09:00:27.964Z</time></trkpt><trkpt lat="44.401644" lon="8.4124949"><ele>617.6666666666667</ele><time>2026-05-01T09:00:28.965Z</time></trkpt><trkpt lat="44.4017784" lon="8.4125978"><ele>616.0</ele><time>2026-05-01T09:00:29.964Z</time></trkpt><trkpt lat="44.4019128" lon="8.4127012"><ele>616.0</ele><time>2026-05-01T09:00:30.964Z</time></trkpt><trkpt lat="44.4020516" lon="8.4127996"><ele>616.0</ele><time>2026-05-01T09:00:31.964Z</time></trkpt><trkpt lat="44.4021912" lon="8.4128969"><ele>616.0</ele><time>2026-05-01T09:00:32.965Z</time></trkpt><trkpt lat="44.4023295" lon="8.4129898"><ele>617.6666666666667</ele><time>2026-05-01T09:00:33.964Z</time></trkpt><trkpt lat="44.4024697" lon="8.4130848"><ele>619.3333333333334</ele><time>2026-05-01T09:00:34.965Z</time></trkpt><trkpt lat="44.4026093" lon="8.4131794"><ele>621.0</ele><time>2026-05-01T09:00:35.965Z</time></trkpt><trkpt lat="44.4027498" lon="8.4132845"><ele>621.0</ele><time>2026-05-01T09:00:36.965Z</time></trkpt><trkpt lat="44.4028893" lon="8.413391"><ele>621.0</ele><time>2026-05-01T09:00:37.964Z</time></trkpt><trkpt lat="44.4030308" lon="8.4134918"><ele>621.0</ele><time>2026-05-01T09:00:38.964Z</time></trkpt><trkpt lat="44.4031727" lon="8.4135897"><ele>622.0</ele><time>2026-05-01T09:00:39.964Z</time></trkpt><trkpt lat="44.4033087" lon="8.4136771"><ele>623.0</ele><time>2026-05-01T09:00:40.964Z</time></trkpt><trkpt lat="44.403444" lon="8.4137656"><ele>624.0</ele><time>2026-05-01T09:00:41.965Z</time></trkpt><trkpt lat="44.4035791" lon="8.4138555"><ele>625.0</ele><time>2026-05-01T09:00:42.964Z</time></trkpt><trkpt lat="44.4037236" lon="8.4139606"><ele>620.5</ele><time>2026-05-01T09:00:43.964Z</time></trkpt><trkpt lat="44.4038612" lon="8.4140537"><ele>616.0</ele><time>2026-05-01T09:00:44.964Z</time></trkpt><trkpt lat="44.4039966" lon="8.4141516"><ele>611.5</ele><time>2026-05-01T09:00:45.965Z</time></trkpt><trkpt lat="44.404126" lon="8.4142329"><ele>607.0</ele><time>2026-05-01T09:00:46.964Z</time></trkpt><trkpt lat="44.4042495" lon="8.414305"><ele>607.0</ele><time>2026-05-01T09:00:47.964Z</time></trkpt><trkpt lat="44.4043642" lon="8.4143755"><ele>607.0</ele><time>2026-05-01T09:00:48.965Z</time></trkpt><trkpt lat="44.404482" lon="8.414459"><ele>607.0</ele><time>2026-05-01T09:00:49.965Z</time></trkpt><trkpt lat="44.4045949" lon="8.4145431"><ele>607.0</ele><time>2026-05-01T09:00:50.964Z</time></trkpt><trkpt lat="44.4047164" lon="8.414598"><ele>605.5</ele><time>2026-05-01T09:00:51.965Z</time></trkpt><trkpt lat="44.4048365" lon="8.4146065"><ele>604.0</ele><time>2026-05-01T09:00:52.964Z</time></trkpt><trkpt lat="44.4049706" lon="8.4145978"><ele>602.5</ele><time>2026-05-01T09:00:53.964Z</time></trkpt><trkpt lat="44.4050842" lon="8.4146206"><ele>601.0</ele><time>2026-05-01T09:00:54.964Z</time></trkpt><trkpt lat="44.405191" lon="8.4146806"><ele>600.0</ele><time>2026-05-01T09:00:55.965Z</time></trkpt><trkpt lat="44.4052966" lon="8.414774"><ele>599.0</ele><time>2026-05-01T09:00:56.964Z</time></trkpt><trkpt lat="44.4053784" lon="8.4148778"><ele>598.0</ele><time>2026-05-01T09:00:57.965Z</time></trkpt><trkpt lat="44.4054617" lon="8.4149902"><ele>597.0</ele><time>2026-05-01T09:00:58.964Z</time></trkpt><trkpt lat="44.4055441" lon="8.4151027"><ele>597.0</ele><time>2026-05-01T09:00:59.964Z</time></trkpt><trkpt lat="44.4056214" lon="8.4152273"><ele>597.0</ele><time>2026-05-01T09:01:00.964Z</time></trkpt><trkpt lat="44.4056894" lon="8.4153506"><ele>597.0</ele><time>2026-05-01T09:01:01.964Z</time></trkpt><trkpt lat="44.4057518" lon="8.415463"><ele>597.0</ele><time>2026-05-01T09:01:02.964Z</time></trkpt><trkpt lat="44.4058074" lon="8.4155686"><ele>597.0</ele><time>2026-05-01T09:01:03.965Z</time></trkpt><trkpt lat="44.405853" lon="8.4156707"><ele>597.3333333333334</ele><time>2026-05-01T09:01:04.964Z</time></trkpt><trkpt lat="44.4058958" lon="8.4157641"><ele>597.6666666666666</ele><time>2026-05-01T09:01:05.964Z</time></trkpt><trkpt lat="44.4059276" lon="8.4158508"><ele>598.0</ele><time>2026-05-01T09:01:06.965Z</time></trkpt><trkpt lat="44.4059737" lon="8.4160034"><ele>598.3333333333333</ele><time>2026-05-01T09:01:08.964Z</time></trkpt><trkpt lat="44.4060148" lon="8.4161246"><ele>598.6666666666666</ele><time>2026-05-01T09:01:10.964Z</time></trkpt><trkpt lat="44.4060482" lon="8.4162011"><ele>599.0</ele><time>2026-05-01T09:01:13.964Z</time></trkpt><trkpt lat="44.4060957" lon="8.416116"><ele>599.0</ele><time>2026-05-01T09:01:26.965Z</time></trkpt><trkpt lat="44.4061553" lon="8.4160462"><ele>599.0</ele><time>2026-05-01T09:01:33.964Z</time></trkpt><trkpt lat="44.4062219" lon="8.4160685"><ele>599.0</ele><time>2026-05-01T09:02:40.964Z</time></trkpt><trkpt lat="44.4063427" lon="8.4161971"><ele>599.0</ele><time>2026-05-01T09:03:43.964Z</time></trkpt><trkpt lat="44.4064014" lon="8.4162551"><ele>599.0</ele><time>2026-05-01T09:03:45.965Z</time></trkpt><trkpt lat="44.4064689" lon="8.4163044"><ele>599.0</ele><time>2026-05-01T09:03:56.964Z</time></trkpt><trkpt lat="44.406535" lon="8.4163547"><ele>597.4</ele><time>2026-05-01T09:03:59.964Z</time></trkpt><trkpt lat="44.4066083" lon="8.4163133"><ele>595.8</ele><time>2026-05-01T09:05:27.964Z</time></trkpt><trkpt lat="44.40668" lon="8.416305"><ele>594.2</ele><time>2026-05-01T09:05:29.964Z</time></trkpt><trkpt lat="44.4068217" lon="8.4162633"><ele>592.6</ele><time>2026-05-01T09:05:31.964Z</time></trkpt><trkpt lat="44.40691" lon="8.4162517"><ele>591.0</ele><time>2026-05-01T09:05:32.964Z</time></trkpt><trkpt lat="44.4070167" lon="8.4162583"><ele>591.0</ele><time>2026-05-01T09:05:33.964Z</time></trkpt><trkpt lat="44.4071267" lon="8.41627"><ele>591.0</ele><time>2026-05-01T09:05:34.964Z</time></trkpt><trkpt lat="44.4072517" lon="8.4162833"><ele>591.0</ele><time>2026-05-01T09:05:35.965Z</time></trkpt><trkpt lat="44.4073667" lon="8.4162933"><ele>591.0</ele><time>2026-05-01T09:05:36.964Z</time></trkpt><trkpt lat="44.4074883" lon="8.4163117"><ele>592.25</ele><time>2026-05-01T09:05:37.965Z</time></trkpt><trkpt lat="44.4076183" lon="8.4163383"><ele>593.5</ele><time>2026-05-01T09:05:38.964Z</time></trkpt><trkpt lat="44.4077533" lon="8.4163567"><ele>594.75</ele><time>2026-05-01T09:05:39.964Z</time></trkpt><trkpt lat="44.4078767" lon="8.4163683"><ele>596.0</ele><time>2026-05-01T09:05:40.964Z</time></trkpt><trkpt lat="44.407995" lon="8.4163717"><ele>597.0</ele><time>2026-05-01T09:05:41.964Z</time></trkpt><trkpt lat="44.4081067" lon="8.4163633"><ele>598.0</ele><time>2026-05-01T09:05:42.964Z</time></trkpt><trkpt lat="44.4082217" lon="8.4163383"><ele>599.0</ele><time>2026-05-01T09:05:43.965Z</time></trkpt><trkpt lat="44.4083217" lon="8.41628"><ele>600.0</ele><time>2026-05-01T09:05:44.964Z</time></trkpt><trkpt lat="44.4084267" lon="8.4162117"><ele>596.25</ele><time>2026-05-01T09:05:45.964Z</time></trkpt><trkpt lat="44.4085233" lon="8.4161083"><ele>592.5</ele><time>2026-05-01T09:05:46.964Z</time></trkpt><trkpt lat="44.4086167" lon="8.4159733"><ele>588.75</ele><time>2026-05-01T09:05:47.965Z</time></trkpt><trkpt lat="44.4086983" lon="8.4158067"><ele>585.0</ele><time>2026-05-01T09:05:48.965Z</time></trkpt><trkpt lat="44.4087783" lon="8.41564"><ele>584.75</ele><time>2026-05-01T09:05:49.965Z</time></trkpt><trkpt lat="44.4088483" lon="8.41548"><ele>584.5</ele><time>2026-05-01T09:05:50.964Z</time></trkpt><trkpt lat="44.4089267" lon="8.4153217"><ele>584.25</ele><time>2026-05-01T09:05:51.964Z</time></trkpt><trkpt lat="44.40901" lon="8.4151717"><ele>584.0</ele><time>2026-05-01T09:05:52.964Z</time></trkpt><trkpt lat="44.4091067" lon="8.4150183"><ele>584.0</ele><time>2026-05-01T09:05:53.964Z</time></trkpt><trkpt lat="44.409215" lon="8.4148933"><ele>584.0</ele><time>2026-05-01T09:05:54.964Z</time></trkpt><trkpt lat="44.4093083" lon="8.4147517"><ele>584.0</ele><time>2026-05-01T09:05:55.964Z</time></trkpt><trkpt lat="44.409425" lon="8.41464"><ele>584.0</ele><time>2026-05-01T09:05:56.964Z</time></trkpt><trkpt lat="44.4095533" lon="8.4145317"><ele>581.6666666666666</ele><time>2026-05-01T09:05:57.965Z</time></trkpt><trkpt lat="44.40973" lon="8.4144383"><ele>579.3333333333334</ele><time>2026-05-01T09:05:58.964Z</time></trkpt><trkpt lat="44.4098783" lon="8.4143617"><ele>577.0</ele><time>2026-05-01T09:05:59.965Z</time></trkpt><trkpt lat="44.410015" lon="8.41429"><ele>577.0</ele><time>2026-05-01T09:06:00.964Z</time></trkpt><trkpt lat="44.4101483" lon="8.414235"><ele>577.0</ele><time>2026-05-01T09:06:01.964Z</time></trkpt><trkpt lat="44.4102767" lon="8.4141633"><ele>577.0</ele><time>2026-05-01T09:06:02.964Z</time></trkpt><trkpt lat="44.4103983" lon="8.4141"><ele>577.0</ele><time>2026-05-01T09:06:03.964Z</time></trkpt><trkpt lat="44.4105233" lon="8.4140383"><ele>576.25</ele><time>2026-05-01T09:06:04.964Z</time></trkpt><trkpt lat="44.4106517" lon="8.4139833"><ele>575.5</ele><time>2026-05-01T09:06:05.965Z</time></trkpt><trkpt lat="44.410775" lon="8.4139183"><ele>574.75</ele><time>2026-05-01T09:06:06.964Z</time></trkpt><trkpt lat="44.4108883" lon="8.4138467"><ele>574.0</ele><time>2026-05-01T09:06:07.965Z</time></trkpt><trkpt lat="44.41101" lon="8.4137883"><ele>574.0</ele><time>2026-05-01T09:06:08.965Z</time></trkpt><trkpt lat="44.4111017" lon="8.4137017"><ele>574.0</ele><time>2026-05-01T09:06:09.964Z</time></trkpt><trkpt lat="44.4112317" lon="8.4136633"><ele>574.0</ele><time>2026-05-01T09:06:10.964Z</time></trkpt><trkpt lat="44.4113483" lon="8.4136033"><ele>574.0</ele><time>2026-05-01T09:06:11.964Z</time></trkpt><trkpt lat="44.4114683" lon="8.4135483"><ele>571.75</ele><time>2026-05-01T09:06:12.964Z</time></trkpt><trkpt lat="44.41158" lon="8.4134833"><ele>569.5</ele><time>2026-05-01T09:06:13.964Z</time></trkpt><trkpt lat="44.4116933" lon="8.413425"><ele>567.25</ele><time>2026-05-01T09:06:14.964Z</time></trkpt><trkpt lat="44.4118033" lon="8.4133667"><ele>565.0</ele><time>2026-05-01T09:06:15.965Z</time></trkpt><trkpt lat="44.411905" lon="8.4133133"><ele>565.0</ele><time>2026-05-01T09:06:16.964Z</time></trkpt><trkpt lat="44.4120067" lon="8.4132783"><ele>565.0</ele><time>2026-05-01T09:06:17.964Z</time></trkpt><trkpt lat="44.412105" lon="8.413265"><ele>565.0</ele><time>2026-05-01T09:06:18.965Z</time></trkpt><trkpt lat="44.412205" lon="8.4132667"><ele>565.0</ele><time>2026-05-01T09:06:19.965Z</time></trkpt><trkpt lat="44.4122967" lon="8.413295"><ele>565.0</ele><time>2026-05-01T09:06:20.965Z</time></trkpt><trkpt lat="44.4123733" lon="8.4133483"><ele>564.75</ele><time>2026-05-01T09:06:21.965Z</time></trkpt><trkpt lat="44.4124467" lon="8.41343"><ele>564.5</ele><time>2026-05-01T09:06:22.964Z</time></trkpt><trkpt lat="44.4125367" lon="8.4135117"><ele>564.25</ele><time>2026-05-01T09:06:23.964Z</time></trkpt><trkpt lat="44.4126433" lon="8.41359"><ele>564.0</ele><time>2026-05-01T09:06:24.965Z</time></trkpt><trkpt lat="44.4127633" lon="8.4136683"><ele>564.0</ele><time>2026-05-01T09:06:25.964Z</time></trkpt><trkpt lat="44.4128833" lon="8.413755"><ele>564.0</ele><time>2026-05-01T09:06:26.964Z</time></trkpt><trkpt lat="44.4130017" lon="8.4138283"><ele>564.0</ele><time>2026-05-01T09:06:27.964Z</time></trkpt><trkpt lat="44.4131233" lon="8.413905"><ele>564.0</ele><time>2026-05-01T09:06:28.964Z</time></trkpt><trkpt lat="44.4132533" lon="8.4139917"><ele>563.75</ele><time>2026-05-01T09:06:29.964Z</time></trkpt><trkpt lat="44.4133817" lon="8.4140733"><ele>563.5</ele><time>2026-05-01T09:06:30.964Z</time></trkpt><trkpt lat="44.4135133" lon="8.4141567"><ele>563.25</ele><time>2026-05-01T09:06:31.965Z</time></trkpt><trkpt lat="44.41365" lon="8.4142483"><ele>563.0</ele><time>2026-05-01T09:06:32.964Z</time></trkpt><trkpt lat="44.4137883" lon="8.4143433"><ele>563.25</ele><time>2026-05-01T09:06:33.964Z</time></trkpt><trkpt lat="44.4139283" lon="8.4144233"><ele>563.5</ele><time>2026-05-01T09:06:34.964Z</time></trkpt><trkpt lat="44.414055" lon="8.4145017"><ele>563.75</ele><time>2026-05-01T09:06:35.965Z</time></trkpt><trkpt lat="44.4141767" lon="8.41459"><ele>564.0</ele><time>2026-05-01T09:06:36.964Z</time></trkpt><trkpt lat="44.4143017" lon="8.41468"><ele>564.0</ele><time>2026-05-01T09:06:37.964Z</time></trkpt><trkpt lat="44.4144233" lon="8.4147817"><ele>564.0</ele><time>2026-05-01T09:06:38.964Z</time></trkpt><trkpt lat="44.414525" lon="8.4149033"><ele>564.0</ele><time>2026-05-01T09:06:39.965Z</time></trkpt><trkpt lat="44.4146433" lon="8.4150033"><ele>564.0</ele><time>2026-05-01T09:06:40.964Z</time></trkpt><trkpt lat="44.4147783" lon="8.4150967"><ele>566.75</ele><time>2026-05-01T09:06:41.965Z</time></trkpt><trkpt lat="44.4149133" lon="8.41517"><ele>569.5</ele><time>2026-05-01T09:06:42.965Z</time></trkpt><trkpt lat="44.415045" lon="8.4152533"><ele>572.25</ele><time>2026-05-01T09:06:43.965Z</time></trkpt><trkpt lat="44.4151383" lon="8.4153433"><ele>575.0</ele><time>2026-05-01T09:06:44.965Z</time></trkpt><trkpt lat="44.41528" lon="8.4154183"><ele>575.0</ele><time>2026-05-01T09:06:45.965Z</time></trkpt><trkpt lat="44.4154283" lon="8.4154833"><ele>575.0</ele><time>2026-05-01T09:06:46.964Z</time></trkpt><trkpt lat="44.4155817" lon="8.4155333"><ele>575.0</ele><time>2026-05-01T09:06:47.965Z</time></trkpt><trkpt lat="44.4157367" lon="8.4155617"><ele>571.6666666666666</ele><time>2026-05-01T09:06:48.965Z</time></trkpt><trkpt lat="44.415925" lon="8.4155933"><ele>568.3333333333334</ele><time>2026-05-01T09:06:49.964Z</time></trkpt><trkpt lat="44.4160933" lon="8.4156233"><ele>565.0</ele><time>2026-05-01T09:06:50.963Z</time></trkpt><trkpt lat="44.4162567" lon="8.4156383"><ele>567.6666666666667</ele><time>2026-05-01T09:06:51.963Z</time></trkpt><trkpt lat="44.41642" lon="8.4156567"><ele>570.3333333333334</ele><time>2026-05-01T09:06:52.963Z</time></trkpt><trkpt lat="44.4165817" lon="8.415695"><ele>573.0</ele><time>2026-05-01T09:06:53.963Z</time></trkpt><trkpt lat="44.4167233" lon="8.4157533"><ele>573.0</ele><time>2026-05-01T09:06:54.963Z</time></trkpt><trkpt lat="44.416865" lon="8.4158083"><ele>573.0</ele><time>2026-05-01T09:06:55.964Z</time></trkpt><trkpt lat="44.4169917" lon="8.4158817"><ele>573.0</ele><time>2026-05-01T09:06:56.963Z</time></trkpt><trkpt lat="44.4171083" lon="8.4160017"><ele>573.0</ele><time>2026-05-01T09:06:57.963Z</time></trkpt><trkpt lat="44.4172283" lon="8.416135"><ele>575.0</ele><time>2026-05-01T09:06:58.964Z</time></trkpt><trkpt lat="44.4173267" lon="8.416305"><ele>577.0</ele><time>2026-05-01T09:06:59.963Z</time></trkpt><trkpt lat="44.4174333" lon="8.41646"><ele>579.0</ele><time>2026-05-01T09:07:00.963Z</time></trkpt><trkpt lat="44.4175233" lon="8.4166317"><ele>579.0</ele><time>2026-05-01T09:07:01.964Z</time></trkpt><trkpt lat="44.4175933" lon="8.4167983"><ele>579.0</ele><time>2026-05-01T09:07:02.963Z</time></trkpt><trkpt lat="44.4176483" lon="8.4169733"><ele>579.0</ele><time>2026-05-01T09:07:03.963Z</time></trkpt><trkpt lat="44.4177117" lon="8.4171467"><ele>579.0</ele><time>2026-05-01T09:07:04.964Z</time></trkpt><trkpt lat="44.4177933" lon="8.4173"><ele>577.5</ele><time>2026-05-01T09:07:05.963Z</time></trkpt><trkpt lat="44.4178267" lon="8.417475"><ele>576.0</ele><time>2026-05-01T09:07:06.963Z</time></trkpt><trkpt lat="44.4178883" lon="8.41763"><ele>574.5</ele><time>2026-05-01T09:07:07.963Z</time></trkpt><trkpt lat="44.4179533" lon="8.41778"><ele>573.0</ele><time>2026-05-01T09:07:08.964Z</time></trkpt><trkpt lat="44.4180267" lon="8.4179267"><ele>575.5</ele><time>2026-05-01T09:07:09.964Z</time></trkpt><trkpt lat="44.4180967" lon="8.41806"><ele>578.0</ele><time>2026-05-01T09:07:10.963Z</time></trkpt><trkpt lat="44.418175" lon="8.4181717"><ele>580.5</ele><time>2026-05-01T09:07:11.963Z</time></trkpt><trkpt lat="44.4182667" lon="8.4182833"><ele>583.0</ele><time>2026-05-01T09:07:12.963Z</time></trkpt><trkpt lat="44.418365" lon="8.41839"><ele>583.0</ele><time>2026-05-01T09:07:13.964Z</time></trkpt><trkpt lat="44.4184533" lon="8.4185167"><ele>583.0</ele><time>2026-05-01T09:07:14.963Z</time></trkpt><trkpt lat="44.4185383" lon="8.4186667"><ele>583.0</ele><time>2026-05-01T09:07:15.963Z</time></trkpt><trkpt lat="44.4186133" lon="8.4188117"><ele>583.0</ele><time>2026-05-01T09:07:16.963Z</time></trkpt><trkpt lat="44.4186917" lon="8.4189533"><ele>580.75</ele><time>2026-05-01T09:07:17.963Z</time></trkpt><trkpt lat="44.4187667" lon="8.4191183"><ele>578.5</ele><time>2026-05-01T09:07:18.964Z</time></trkpt><trkpt lat="44.4188383" lon="8.4192917"><ele>576.25</ele><time>2026-05-01T09:07:19.963Z</time></trkpt><trkpt lat="44.4189017" lon="8.4194683"><ele>574.0</ele><time>2026-05-01T09:07:20.963Z</time></trkpt><trkpt lat="44.4189617" lon="8.4196217"><ele>577.25</ele><time>2026-05-01T09:07:21.963Z</time></trkpt><trkpt lat="44.419025" lon="8.4197983"><ele>580.5</ele><time>2026-05-01T09:07:22.963Z</time></trkpt><trkpt lat="44.4191083" lon="8.4199533"><ele>583.75</ele><time>2026-05-01T09:07:23.964Z</time></trkpt><trkpt lat="44.4191917" lon="8.42011"><ele>587.0</ele><time>2026-05-01T09:07:24.964Z</time></trkpt><trkpt lat="44.4192683" lon="8.42025"><ele>587.0</ele><time>2026-05-01T09:07:25.964Z</time></trkpt><trkpt lat="44.419355" lon="8.4204217"><ele>587.0</ele><time>2026-05-01T09:07:26.963Z</time></trkpt><trkpt lat="44.4194167" lon="8.4205583"><ele>587.0</ele><time>2026-05-01T09:07:27.963Z</time></trkpt><trkpt lat="44.4194667" lon="8.4206917"><ele>587.0</ele><time>2026-05-01T09:07:28.963Z</time></trkpt><trkpt lat="44.4195333" lon="8.42079"><ele>586.2</ele><time>2026-05-01T09:07:29.963Z</time></trkpt><trkpt lat="44.4196117" lon="8.4208633"><ele>585.4000000000001</ele><time>2026-05-01T09:07:30.963Z</time></trkpt><trkpt lat="44.41971" lon="8.4209017"><ele>584.5999999999999</ele><time>2026-05-01T09:07:31.963Z</time></trkpt><trkpt lat="44.4198083" lon="8.4209"><ele>583.8</ele><time>2026-05-01T09:07:32.963Z</time></trkpt><trkpt lat="44.4199046" lon="8.4208717"><ele>583.0</ele><time>2026-05-01T09:07:33.963Z</time></trkpt><trkpt lat="44.4199981" lon="8.4207882"><ele>583.0</ele><time>2026-05-01T09:07:34.963Z</time></trkpt><trkpt lat="44.4200817" lon="8.4206588"><ele>583.0</ele><time>2026-05-01T09:07:35.963Z</time></trkpt><trkpt lat="44.4201557" lon="8.4205085"><ele>583.0</ele><time>2026-05-01T09:07:36.963Z</time></trkpt><trkpt lat="44.420225" lon="8.420345"><ele>583.0</ele><time>2026-05-01T09:07:37.963Z</time></trkpt><trkpt lat="44.4202968" lon="8.4201694"><ele>583.5</ele><time>2026-05-01T09:07:38.963Z</time></trkpt><trkpt lat="44.4203763" lon="8.4200017"><ele>584.0</ele><time>2026-05-01T09:07:39.963Z</time></trkpt><trkpt lat="44.4204601" lon="8.4198438"><ele>584.5</ele><time>2026-05-01T09:07:40.963Z</time></trkpt><trkpt lat="44.4205384" lon="8.4196835"><ele>585.0</ele><time>2026-05-01T09:07:41.964Z</time></trkpt><trkpt lat="44.4205976" lon="8.4195151"><ele>587.0</ele><time>2026-05-01T09:07:42.963Z</time></trkpt><trkpt lat="44.4206452" lon="8.4193348"><ele>589.0</ele><time>2026-05-01T09:07:43.963Z</time></trkpt><trkpt lat="44.4206682" lon="8.4191644"><ele>591.0</ele><time>2026-05-01T09:07:44.963Z</time></trkpt><trkpt lat="44.4206697" lon="8.4190128"><ele>593.0</ele><time>2026-05-01T09:07:45.964Z</time></trkpt><trkpt lat="44.4206192" lon="8.4188726"><ele>592.75</ele><time>2026-05-01T09:07:46.963Z</time></trkpt><trkpt lat="44.4205634" lon="8.4187415"><ele>592.5</ele><time>2026-05-01T09:07:47.963Z</time></trkpt><trkpt lat="44.4204915" lon="8.4186279"><ele>592.25</ele><time>2026-05-01T09:07:48.964Z</time></trkpt><trkpt lat="44.4203945" lon="8.4185302"><ele>592.0</ele><time>2026-05-01T09:07:49.964Z</time></trkpt><trkpt lat="44.4202883" lon="8.4184397"><ele>594.5</ele><time>2026-05-01T09:07:50.963Z</time></trkpt><trkpt lat="44.4201833" lon="8.4183468"><ele>597.0</ele><time>2026-05-01T09:07:51.963Z</time></trkpt><trkpt lat="44.4200855" lon="8.4182543"><ele>599.5</ele><time>2026-05-01T09:07:52.963Z</time></trkpt><trkpt lat="44.4199935" lon="8.4181682"><ele>602.0</ele><time>2026-05-01T09:07:53.964Z</time></trkpt><trkpt lat="44.4199206" lon="8.4180678"><ele>600.75</ele><time>2026-05-01T09:07:54.963Z</time></trkpt><trkpt lat="44.4198628" lon="8.4179459"><ele>599.5</ele><time>2026-05-01T09:07:55.963Z</time></trkpt><trkpt lat="44.4198243" lon="8.4178005"><ele>598.25</ele><time>2026-05-01T09:07:56.963Z</time></trkpt><trkpt lat="44.4198178" lon="8.4176365"><ele>597.0</ele><time>2026-05-01T09:07:57.963Z</time></trkpt><trkpt lat="44.4198285" lon="8.4174697"><ele>597.0</ele><time>2026-05-01T09:07:58.963Z</time></trkpt><trkpt lat="44.4198742" lon="8.4172864"><ele>597.0</ele><time>2026-05-01T09:07:59.963Z</time></trkpt><trkpt lat="44.419968" lon="8.4170928"><ele>597.0</ele><time>2026-05-01T09:08:00.963Z</time></trkpt><trkpt lat="44.4200689" lon="8.4169174"><ele>598.5</ele><time>2026-05-01T09:08:01.963Z</time></trkpt><trkpt lat="44.4201607" lon="8.4167605"><ele>600.0</ele><time>2026-05-01T09:08:02.963Z</time></trkpt><trkpt lat="44.4202344" lon="8.4165948"><ele>601.5</ele><time>2026-05-01T09:08:03.963Z</time></trkpt><trkpt lat="44.4203203" lon="8.4164364"><ele>603.0</ele><time>2026-05-01T09:08:04.963Z</time></trkpt><trkpt lat="44.4203762" lon="8.4162806"><ele>604.75</ele><time>2026-05-01T09:08:05.963Z</time></trkpt><trkpt lat="44.4204174" lon="8.4161279"><ele>606.5</ele><time>2026-05-01T09:08:06.963Z</time></trkpt><trkpt lat="44.4204585" lon="8.4159727"><ele>608.25</ele><time>2026-05-01T09:08:07.963Z</time></trkpt><trkpt lat="44.4205059" lon="8.4158208"><ele>610.0</ele><time>2026-05-01T09:08:08.963Z</time></trkpt><trkpt lat="44.4205581" lon="8.4156786"><ele>609.4</ele><time>2026-05-01T09:08:09.963Z</time></trkpt><trkpt lat="44.4206324" lon="8.4155591"><ele>608.8</ele><time>2026-05-01T09:08:10.963Z</time></trkpt><trkpt lat="44.420708" lon="8.4154496"><ele>608.2</ele><time>2026-05-01T09:08:11.964Z</time></trkpt><trkpt lat="44.4207831" lon="8.4153616"><ele>607.6</ele><time>2026-05-01T09:08:12.964Z</time></trkpt><trkpt lat="44.4208629" lon="8.4152928"><ele>607.0</ele><time>2026-05-01T09:08:13.963Z</time></trkpt><trkpt lat="44.4209513" lon="8.4152421"><ele>607.0</ele><time>2026-05-01T09:08:14.963Z</time></trkpt><trkpt lat="44.4210504" lon="8.4152101"><ele>607.0</ele><time>2026-05-01T09:08:15.963Z</time></trkpt><trkpt lat="44.4211652" lon="8.4151843"><ele>607.0</ele><time>2026-05-01T09:08:16.964Z</time></trkpt><trkpt lat="44.4212877" lon="8.4151569"><ele>607.0</ele><time>2026-05-01T09:08:17.963Z</time></trkpt><trkpt lat="44.421413" lon="8.4151393"><ele>603.5</ele><time>2026-05-01T09:08:18.963Z</time></trkpt><trkpt lat="44.4215413" lon="8.415121"><ele>600.0</ele><time>2026-05-01T09:08:19.964Z</time></trkpt><trkpt lat="44.4216616" lon="8.4150958"><ele>596.5</ele><time>2026-05-01T09:08:20.964Z</time></trkpt><trkpt lat="44.4217685" lon="8.4150523"><ele>593.0</ele><time>2026-05-01T09:08:21.963Z</time></trkpt><trkpt lat="44.4218624" lon="8.4149865"><ele>593.0</ele><time>2026-05-01T09:08:22.964Z</time></trkpt><trkpt lat="44.4219303" lon="8.4148727"><ele>593.0</ele><time>2026-05-01T09:08:23.963Z</time></trkpt><trkpt lat="44.421986" lon="8.4147409"><ele>593.0</ele><time>2026-05-01T09:08:24.964Z</time></trkpt><trkpt lat="44.4220215" lon="8.4145914"><ele>593.0</ele><time>2026-05-01T09:08:25.963Z</time></trkpt><trkpt lat="44.4220421" lon="8.4144213"><ele>592.25</ele><time>2026-05-01T09:08:26.963Z</time></trkpt><trkpt lat="44.4220645" lon="8.4142486"><ele>591.5</ele><time>2026-05-01T09:08:27.963Z</time></trkpt><trkpt lat="44.4220933" lon="8.414081"><ele>590.75</ele><time>2026-05-01T09:08:28.964Z</time></trkpt><trkpt lat="44.4221301" lon="8.413929"><ele>590.0</ele><time>2026-05-01T09:08:29.963Z</time></trkpt><trkpt lat="44.4221781" lon="8.4138033"><ele>590.0</ele><time>2026-05-01T09:08:30.963Z</time></trkpt><trkpt lat="44.4222382" lon="8.413707"><ele>590.0</ele><time>2026-05-01T09:08:31.963Z</time></trkpt><trkpt lat="44.4223079" lon="8.4136421"><ele>590.0</ele><time>2026-05-01T09:08:32.963Z</time></trkpt><trkpt lat="44.422398" lon="8.4136012"><ele>590.0</ele><time>2026-05-01T09:08:33.963Z</time></trkpt><trkpt lat="44.4224894" lon="8.413592"><ele>590.0</ele><time>2026-05-01T09:08:34.964Z</time></trkpt><trkpt lat="44.4225936" lon="8.4135997"><ele>590.0</ele><time>2026-05-01T09:08:35.963Z</time></trkpt><trkpt lat="44.4227038" lon="8.4136151"><ele>590.0</ele><time>2026-05-01T09:08:36.963Z</time></trkpt><trkpt lat="44.4228354" lon="8.4136311"><ele>590.0</ele><time>2026-05-01T09:08:37.963Z</time></trkpt><trkpt lat="44.4229592" lon="8.4136247"><ele>590.0</ele><time>2026-05-01T09:08:38.963Z</time></trkpt><trkpt lat="44.4230768" lon="8.4135884"><ele>589.5</ele><time>2026-05-01T09:08:39.964Z</time></trkpt><trkpt lat="44.4231887" lon="8.4135087"><ele>589.0</ele><time>2026-05-01T09:08:40.963Z</time></trkpt><trkpt lat="44.4232876" lon="8.4134148"><ele>588.5</ele><time>2026-05-01T09:08:41.963Z</time></trkpt><trkpt lat="44.4233898" lon="8.4133274"><ele>588.0</ele><time>2026-05-01T09:08:42.964Z</time></trkpt><trkpt lat="44.4234986" lon="8.4132646"><ele>588.0</ele><time>2026-05-01T09:08:43.964Z</time></trkpt><trkpt lat="44.4236117" lon="8.4132186"><ele>588.0</ele><time>2026-05-01T09:08:44.964Z</time></trkpt><trkpt lat="44.4237257" lon="8.413199"><ele>588.0</ele><time>2026-05-01T09:08:45.963Z</time></trkpt><trkpt lat="44.4238487" lon="8.4132077"><ele>588.0</ele><time>2026-05-01T09:08:46.963Z</time></trkpt><trkpt lat="44.4239793" lon="8.4132439"><ele>586.75</ele><time>2026-05-01T09:08:47.963Z</time></trkpt><trkpt lat="44.4240845" lon="8.4133071"><ele>585.5</ele><time>2026-05-01T09:08:48.964Z</time></trkpt><trkpt lat="44.4241967" lon="8.413375"><ele>584.25</ele><time>2026-05-01T09:08:49.963Z</time></trkpt><trkpt lat="44.4243136" lon="8.4134171"><ele>583.0</ele><time>2026-05-01T09:08:50.963Z</time></trkpt><trkpt lat="44.4244445" lon="8.4134455"><ele>583.0</ele><time>2026-05-01T09:08:51.963Z</time></trkpt><trkpt lat="44.4245884" lon="8.4134433"><ele>583.0</ele><time>2026-05-01T09:08:52.964Z</time></trkpt><trkpt lat="44.4247199" lon="8.4134065"><ele>583.0</ele><time>2026-05-01T09:08:53.964Z</time></trkpt><trkpt lat="44.4248542" lon="8.4133655"><ele>583.0</ele><time>2026-05-01T09:08:54.964Z</time></trkpt><trkpt lat="44.4249797" lon="8.4133032"><ele>581.5</ele><time>2026-05-01T09:08:55.963Z</time></trkpt><trkpt lat="44.4251138" lon="8.4132518"><ele>580.0</ele><time>2026-05-01T09:08:56.963Z</time></trkpt><trkpt lat="44.4252504" lon="8.4132215"><ele>578.5</ele><time>2026-05-01T09:08:57.963Z</time></trkpt><trkpt lat="44.4253788" lon="8.4132108"><ele>577.0</ele><time>2026-05-01T09:08:58.963Z</time></trkpt><trkpt lat="44.4255045" lon="8.4132205"><ele>577.0</ele><time>2026-05-01T09:08:59.964Z</time></trkpt><trkpt lat="44.425632" lon="8.4132504"><ele>577.0</ele><time>2026-05-01T09:09:00.964Z</time></trkpt><trkpt lat="44.4257483" lon="8.4133085"><ele>577.0</ele><time>2026-05-01T09:09:01.963Z</time></trkpt><trkpt lat="44.4258663" lon="8.413414"><ele>577.0</ele><time>2026-05-01T09:09:02.963Z</time></trkpt><trkpt lat="44.425972" lon="8.4135331"><ele>577.0</ele><time>2026-05-01T09:09:03.963Z</time></trkpt><trkpt lat="44.4260748" lon="8.4136631"><ele>577.0</ele><time>2026-05-01T09:09:04.964Z</time></trkpt><trkpt lat="44.426179" lon="8.4137937"><ele>577.0</ele><time>2026-05-01T09:09:05.963Z</time></trkpt><trkpt lat="44.4262794" lon="8.4139108"><ele>577.0</ele><time>2026-05-01T09:09:06.963Z</time></trkpt><trkpt lat="44.4263897" lon="8.41402"><ele>574.5</ele><time>2026-05-01T09:09:07.963Z</time></trkpt><trkpt lat="44.4265015" lon="8.4141193"><ele>572.0</ele><time>2026-05-01T09:09:08.964Z</time></trkpt><trkpt lat="44.4266163" lon="8.4142095"><ele>569.5</ele><time>2026-05-01T09:09:09.964Z</time></trkpt><trkpt lat="44.4267315" lon="8.4142845"><ele>567.0</ele><time>2026-05-01T09:09:10.963Z</time></trkpt><trkpt lat="44.4268377" lon="8.4143491"><ele>567.0</ele><time>2026-05-01T09:09:11.964Z</time></trkpt><trkpt lat="44.4269345" lon="8.4144224"><ele>567.0</ele><time>2026-05-01T09:09:12.963Z</time></trkpt><trkpt lat="44.4270175" lon="8.414515"><ele>567.0</ele><time>2026-05-01T09:09:13.964Z</time></trkpt><trkpt lat="44.4270758" lon="8.4146425"><ele>567.0</ele><time>2026-05-01T09:09:14.963Z</time></trkpt><trkpt lat="44.4271078" lon="8.4147947"><ele>567.0</ele><time>2026-05-01T09:09:15.963Z</time></trkpt><trkpt lat="44.4271251" lon="8.4149653"><ele>565.0</ele><time>2026-05-01T09:09:16.963Z</time></trkpt><trkpt lat="44.4271311" lon="8.4151457"><ele>563.0</ele><time>2026-05-01T09:09:17.964Z</time></trkpt><trkpt lat="44.4271366" lon="8.4153244"><ele>561.0</ele><time>2026-05-01T09:09:18.963Z</time></trkpt><trkpt lat="44.4271327" lon="8.4155047"><ele>559.0</ele><time>2026-05-01T09:09:19.964Z</time></trkpt><trkpt lat="44.4271213" lon="8.4156788"><ele>558.25</ele><time>2026-05-01T09:09:20.963Z</time></trkpt><trkpt lat="44.4271121" lon="8.4158566"><ele>557.5</ele><time>2026-05-01T09:09:21.964Z</time></trkpt><trkpt lat="44.4271019" lon="8.4160447"><ele>556.75</ele><time>2026-05-01T09:09:22.963Z</time></trkpt><trkpt lat="44.4270979" lon="8.4162272"><ele>556.0</ele><time>2026-05-01T09:09:23.963Z</time></trkpt><trkpt lat="44.4270961" lon="8.4164069"><ele>556.75</ele><time>2026-05-01T09:09:24.963Z</time></trkpt><trkpt lat="44.4271072" lon="8.4165881"><ele>557.5</ele><time>2026-05-01T09:09:25.963Z</time></trkpt><trkpt lat="44.4271286" lon="8.4167722"><ele>558.25</ele><time>2026-05-01T09:09:26.963Z</time></trkpt><trkpt lat="44.4271526" lon="8.4169476"><ele>559.0</ele><time>2026-05-01T09:09:27.963Z</time></trkpt><trkpt lat="44.4271802" lon="8.4171095"><ele>560.6</ele><time>2026-05-01T09:09:28.964Z</time></trkpt><trkpt lat="44.4272254" lon="8.417249"><ele>562.2</ele><time>2026-05-01T09:09:29.963Z</time></trkpt><trkpt lat="44.4272887" lon="8.4173652"><ele>563.8000000000001</ele><time>2026-05-01T09:09:30.963Z</time></trkpt><trkpt lat="44.427375" lon="8.417451"><ele>565.4</ele><time>2026-05-01T09:09:31.963Z</time></trkpt><trkpt lat="44.4274881" lon="8.417507"><ele>567.0</ele><time>2026-05-01T09:09:32.963Z</time></trkpt><trkpt lat="44.4276102" lon="8.4175445"><ele>567.0</ele><time>2026-05-01T09:09:33.964Z</time></trkpt><trkpt lat="44.4277304" lon="8.4175892"><ele>567.0</ele><time>2026-05-01T09:09:34.963Z</time></trkpt><trkpt lat="44.4278311" lon="8.4176495"><ele>567.0</ele><time>2026-05-01T09:09:35.963Z</time></trkpt><trkpt lat="44.4279214" lon="8.4177376"><ele>567.0</ele><time>2026-05-01T09:09:36.963Z</time></trkpt><trkpt lat="44.4279892" lon="8.4178469"><ele>567.0</ele><time>2026-05-01T09:09:37.963Z</time></trkpt><trkpt lat="44.4280311" lon="8.417975"><ele>568.5</ele><time>2026-05-01T09:09:38.963Z</time></trkpt><trkpt lat="44.4280374" lon="8.4181228"><ele>570.0</ele><time>2026-05-01T09:09:39.963Z</time></trkpt><trkpt lat="44.4280232" lon="8.4182931"><ele>571.5</ele><time>2026-05-01T09:09:40.963Z</time></trkpt><trkpt lat="44.4279975" lon="8.418477"><ele>573.0</ele><time>2026-05-01T09:09:41.963Z</time></trkpt><trkpt lat="44.4279766" lon="8.4186635"><ele>572.25</ele><time>2026-05-01T09:09:42.963Z</time></trkpt><trkpt lat="44.4279657" lon="8.418848"><ele>571.5</ele><time>2026-05-01T09:09:43.963Z</time></trkpt><trkpt lat="44.4279851" lon="8.4190239"><ele>570.75</ele><time>2026-05-01T09:09:44.964Z</time></trkpt><trkpt lat="44.4280239" lon="8.4191935"><ele>570.0</ele><time>2026-05-01T09:09:45.964Z</time></trkpt><trkpt lat="44.4280731" lon="8.4193522"><ele>569.75</ele><time>2026-05-01T09:09:46.964Z</time></trkpt><trkpt lat="44.4281288" lon="8.419509"><ele>569.5</ele><time>2026-05-01T09:09:47.963Z</time></trkpt><trkpt lat="44.4281909" lon="8.4196551"><ele>569.25</ele><time>2026-05-01T09:09:48.964Z</time></trkpt><trkpt lat="44.4282657" lon="8.4197742"><ele>569.0</ele><time>2026-05-01T09:09:49.963Z</time></trkpt><trkpt lat="44.4283642" lon="8.4198498"><ele>571.0</ele><time>2026-05-01T09:09:50.963Z</time></trkpt><trkpt lat="44.4284798" lon="8.4198772"><ele>573.0</ele><time>2026-05-01T09:09:51.963Z</time></trkpt><trkpt lat="44.4286133" lon="8.4198914"><ele>575.0</ele><time>2026-05-01T09:09:52.963Z</time></trkpt><trkpt lat="44.4287324" lon="8.4199214"><ele>577.0</ele><time>2026-05-01T09:09:53.964Z</time></trkpt><trkpt lat="44.4288448" lon="8.4199776"><ele>577.0</ele><time>2026-05-01T09:09:54.963Z</time></trkpt><trkpt lat="44.4289497" lon="8.4200505"><ele>577.0</ele><time>2026-05-01T09:09:55.964Z</time></trkpt><trkpt lat="44.4290583" lon="8.4200902"><ele>577.0</ele><time>2026-05-01T09:09:56.963Z</time></trkpt><trkpt lat="44.4291563" lon="8.4200942"><ele>577.0</ele><time>2026-05-01T09:09:57.964Z</time></trkpt><trkpt lat="44.4292628" lon="8.4200461"><ele>577.0</ele><time>2026-05-01T09:09:58.963Z</time></trkpt><trkpt lat="44.4293477" lon="8.4199408"><ele>577.0</ele><time>2026-05-01T09:09:59.963Z</time></trkpt><trkpt lat="44.4294568" lon="8.4198532"><ele>577.0</ele><time>2026-05-01T09:10:00.963Z</time></trkpt><trkpt lat="44.4295722" lon="8.4197946"><ele>577.0</ele><time>2026-05-01T09:10:01.963Z</time></trkpt><trkpt lat="44.429696" lon="8.4197432"><ele>577.0</ele><time>2026-05-01T09:10:02.964Z</time></trkpt><trkpt lat="44.4298041" lon="8.4196811"><ele>577.8000000000001</ele><time>2026-05-01T09:10:03.964Z</time></trkpt><trkpt lat="44.4299006" lon="8.4196311"><ele>578.6</ele><time>2026-05-01T09:10:04.963Z</time></trkpt><trkpt lat="44.4299974" lon="8.4196017"><ele>579.4000000000001</ele><time>2026-05-01T09:10:05.963Z</time></trkpt><trkpt lat="44.4300922" lon="8.4195969"><ele>580.2</ele><time>2026-05-01T09:10:06.963Z</time></trkpt><trkpt lat="44.4301818" lon="8.4196257"><ele>581.0</ele><time>2026-05-01T09:10:07.963Z</time></trkpt><trkpt lat="44.430248" lon="8.4196833"><ele>581.0</ele><time>2026-05-01T09:10:08.963Z</time></trkpt><trkpt lat="44.4303096" lon="8.4197848"><ele>581.0</ele><time>2026-05-01T09:10:09.964Z</time></trkpt><trkpt lat="44.4303554" lon="8.4199272"><ele>581.0</ele><time>2026-05-01T09:10:10.964Z</time></trkpt><trkpt lat="44.4303825" lon="8.4201076"><ele>581.0</ele><time>2026-05-01T09:10:11.963Z</time></trkpt><trkpt lat="44.4303978" lon="8.4203125"><ele>580.0</ele><time>2026-05-01T09:10:12.963Z</time></trkpt><trkpt lat="44.4304033" lon="8.4205161"><ele>579.0</ele><time>2026-05-01T09:10:13.963Z</time></trkpt><trkpt lat="44.4304315" lon="8.4207155"><ele>578.0</ele><time>2026-05-01T09:10:14.964Z</time></trkpt><trkpt lat="44.4304828" lon="8.4209052"><ele>577.0</ele><time>2026-05-01T09:10:15.963Z</time></trkpt><trkpt lat="44.4305515" lon="8.4210884"><ele>576.5</ele><time>2026-05-01T09:10:16.964Z</time></trkpt><trkpt lat="44.4306403" lon="8.4212495"><ele>576.0</ele><time>2026-05-01T09:10:17.963Z</time></trkpt><trkpt lat="44.4307499" lon="8.4213874"><ele>575.5</ele><time>2026-05-01T09:10:18.963Z</time></trkpt><trkpt lat="44.4308656" lon="8.4215166"><ele>575.0</ele><time>2026-05-01T09:10:19.963Z</time></trkpt><trkpt lat="44.4309964" lon="8.4216302"><ele>574.75</ele><time>2026-05-01T09:10:20.964Z</time></trkpt><trkpt lat="44.4311182" lon="8.4217373"><ele>574.5</ele><time>2026-05-01T09:10:21.963Z</time></trkpt><trkpt lat="44.4312332" lon="8.4218485"><ele>574.25</ele><time>2026-05-01T09:10:22.963Z</time></trkpt><trkpt lat="44.4313412" lon="8.421962"><ele>574.0</ele><time>2026-05-01T09:10:23.963Z</time></trkpt><trkpt lat="44.4314359" lon="8.4220969"><ele>573.5</ele><time>2026-05-01T09:10:24.963Z</time></trkpt><trkpt lat="44.4315211" lon="8.4222418"><ele>573.0</ele><time>2026-05-01T09:10:25.963Z</time></trkpt><trkpt lat="44.4315954" lon="8.4223921"><ele>572.5</ele><time>2026-05-01T09:10:26.963Z</time></trkpt><trkpt lat="44.4316627" lon="8.4225433"><ele>572.0</ele><time>2026-05-01T09:10:27.963Z</time></trkpt><trkpt lat="44.4317242" lon="8.4226741"><ele>572.0</ele><time>2026-05-01T09:10:28.963Z</time></trkpt><trkpt lat="44.431792" lon="8.4227905"><ele>572.0</ele><time>2026-05-01T09:10:29.964Z</time></trkpt><trkpt lat="44.431869" lon="8.4228828"><ele>572.0</ele><time>2026-05-01T09:10:30.963Z</time></trkpt><trkpt lat="44.4319704" lon="8.4229503"><ele>572.0</ele><time>2026-05-01T09:10:31.964Z</time></trkpt><trkpt lat="44.4320819" lon="8.4230022"><ele>572.0</ele><time>2026-05-01T09:10:32.963Z</time></trkpt><trkpt lat="44.4322045" lon="8.4230499"><ele>571.5</ele><time>2026-05-01T09:10:33.964Z</time></trkpt><trkpt lat="44.432333" lon="8.4231012"><ele>571.0</ele><time>2026-05-01T09:10:34.964Z</time></trkpt><trkpt lat="44.4324576" lon="8.4231535"><ele>570.5</ele><time>2026-05-01T09:10:35.964Z</time></trkpt><trkpt lat="44.4325868" lon="8.4232139"><ele>570.0</ele><time>2026-05-01T09:10:36.963Z</time></trkpt><trkpt lat="44.4327087" lon="8.4232735"><ele>570.0</ele><time>2026-05-01T09:10:37.963Z</time></trkpt><trkpt lat="44.4328267" lon="8.4233424"><ele>570.0</ele><time>2026-05-01T09:10:38.963Z</time></trkpt><trkpt lat="44.4329426" lon="8.4234281"><ele>570.0</ele><time>2026-05-01T09:10:39.963Z</time></trkpt><trkpt lat="44.433056" lon="8.4235206"><ele>570.0</ele><time>2026-05-01T09:10:40.964Z</time></trkpt><trkpt lat="44.4331805" lon="8.4236113"><ele>568.5</ele><time>2026-05-01T09:10:41.963Z</time></trkpt><trkpt lat="44.4333036" lon="8.4236839"><ele>567.0</ele><time>2026-05-01T09:10:42.963Z</time></trkpt><trkpt lat="44.4334268" lon="8.4237585"><ele>565.5</ele><time>2026-05-01T09:10:43.964Z</time></trkpt><trkpt lat="44.433551" lon="8.4238554"><ele>564.0</ele><time>2026-05-01T09:10:44.964Z</time></trkpt><trkpt lat="44.4336705" lon="8.4239677"><ele>564.0</ele><time>2026-05-01T09:10:45.963Z</time></trkpt><trkpt lat="44.4337798" lon="8.4241032"><ele>564.0</ele><time>2026-05-01T09:10:46.964Z</time></trkpt><trkpt lat="44.4338695" lon="8.4242475"><ele>564.0</ele><time>2026-05-01T09:10:47.964Z</time></trkpt><trkpt lat="44.4339527" lon="8.4243864"><ele>564.0</ele><time>2026-05-01T09:10:48.964Z</time></trkpt><trkpt lat="44.4340474" lon="8.4245069"><ele>564.75</ele><time>2026-05-01T09:10:49.963Z</time></trkpt><trkpt lat="44.4341507" lon="8.4246235"><ele>565.5</ele><time>2026-05-01T09:10:50.964Z</time></trkpt><trkpt lat="44.4342663" lon="8.4247197"><ele>566.25</ele><time>2026-05-01T09:10:51.964Z</time></trkpt><trkpt lat="44.4343857" lon="8.4248086"><ele>567.0</ele><time>2026-05-01T09:10:52.964Z</time></trkpt><trkpt lat="44.4344938" lon="8.4249252"><ele>567.0</ele><time>2026-05-01T09:10:53.964Z</time></trkpt><trkpt lat="44.4345737" lon="8.4250575"><ele>567.0</ele><time>2026-05-01T09:10:54.963Z</time></trkpt><trkpt lat="44.4346254" lon="8.4252126"><ele>567.0</ele><time>2026-05-01T09:10:55.963Z</time></trkpt><trkpt lat="44.4346748" lon="8.4253742"><ele>567.0</ele><time>2026-05-01T09:10:56.964Z</time></trkpt><trkpt lat="44.4347331" lon="8.4255258"><ele>568.75</ele><time>2026-05-01T09:10:57.963Z</time></trkpt><trkpt lat="44.4348163" lon="8.425661"><ele>570.5</ele><time>2026-05-01T09:10:58.963Z</time></trkpt><trkpt lat="44.4349183" lon="8.4257747"><ele>572.25</ele><time>2026-05-01T09:10:59.963Z</time></trkpt><trkpt lat="44.4350327" lon="8.4258679"><ele>574.0</ele><time>2026-05-01T09:11:00.963Z</time></trkpt><trkpt lat="44.4351518" lon="8.4259465"><ele>574.0</ele><time>2026-05-01T09:11:01.964Z</time></trkpt><trkpt lat="44.4352677" lon="8.4260206"><ele>574.0</ele><time>2026-05-01T09:11:02.963Z</time></trkpt><trkpt lat="44.4353796" lon="8.4261204"><ele>574.0</ele><time>2026-05-01T09:11:03.963Z</time></trkpt><trkpt lat="44.4354735" lon="8.4262481"><ele>574.0</ele><time>2026-05-01T09:11:04.963Z</time></trkpt><trkpt lat="44.4355575" lon="8.4263972"><ele>574.0</ele><time>2026-05-01T09:11:05.963Z</time></trkpt><trkpt lat="44.4356172" lon="8.4265703"><ele>574.0</ele><time>2026-05-01T09:11:06.963Z</time></trkpt><trkpt lat="44.4356507" lon="8.4267669"><ele>574.0</ele><time>2026-05-01T09:11:07.963Z</time></trkpt><trkpt lat="44.4356764" lon="8.4269747"><ele>574.0</ele><time>2026-05-01T09:11:08.964Z</time></trkpt><trkpt lat="44.4357061" lon="8.4271857"><ele>575.0</ele><time>2026-05-01T09:11:09.964Z</time></trkpt><trkpt lat="44.4357283" lon="8.4273812"><ele>576.0</ele><time>2026-05-01T09:11:10.963Z</time></trkpt><trkpt lat="44.4357544" lon="8.4275643"><ele>577.0</ele><time>2026-05-01T09:11:11.963Z</time></trkpt><trkpt lat="44.435784" lon="8.4277367"><ele>578.0</ele><time>2026-05-01T09:11:12.964Z</time></trkpt><trkpt lat="44.4358095" lon="8.4279035"><ele>576.75</ele><time>2026-05-01T09:11:13.963Z</time></trkpt><trkpt lat="44.4358283" lon="8.4280657"><ele>575.5</ele><time>2026-05-01T09:11:14.963Z</time></trkpt><trkpt lat="44.4358553" lon="8.4282397"><ele>574.25</ele><time>2026-05-01T09:11:15.963Z</time></trkpt><trkpt lat="44.4358916" lon="8.428414"><ele>573.0</ele><time>2026-05-01T09:11:16.963Z</time></trkpt><trkpt lat="44.4359359" lon="8.428586"><ele>573.0</ele><time>2026-05-01T09:11:17.963Z</time></trkpt><trkpt lat="44.4359858" lon="8.4287419"><ele>573.0</ele><time>2026-05-01T09:11:18.964Z</time></trkpt><trkpt lat="44.436047" lon="8.4289027"><ele>573.0</ele><time>2026-05-01T09:11:19.964Z</time></trkpt><trkpt lat="44.4361251" lon="8.4290557"><ele>573.0</ele><time>2026-05-01T09:11:20.964Z</time></trkpt><trkpt lat="44.4362261" lon="8.4291942"><ele>575.0</ele><time>2026-05-01T09:11:21.963Z</time></trkpt><trkpt lat="44.436336" lon="8.4293206"><ele>577.0</ele><time>2026-05-01T09:11:22.963Z</time></trkpt><trkpt lat="44.4364467" lon="8.4294382"><ele>579.0</ele><time>2026-05-01T09:11:23.964Z</time></trkpt><trkpt lat="44.4365512" lon="8.4295562"><ele>581.0</ele><time>2026-05-01T09:11:24.963Z</time></trkpt><trkpt lat="44.4366519" lon="8.4296737"><ele>575.75</ele><time>2026-05-01T09:11:25.964Z</time></trkpt><trkpt lat="44.4367464" lon="8.4297977"><ele>570.5</ele><time>2026-05-01T09:11:26.963Z</time></trkpt><trkpt lat="44.4368321" lon="8.4299279"><ele>565.25</ele><time>2026-05-01T09:11:27.963Z</time></trkpt><trkpt lat="44.4369088" lon="8.4300884"><ele>560.0</ele><time>2026-05-01T09:11:28.963Z</time></trkpt><trkpt lat="44.4369791" lon="8.4302605"><ele>560.0</ele><time>2026-05-01T09:11:29.963Z</time></trkpt><trkpt lat="44.4370431" lon="8.4304369"><ele>560.0</ele><time>2026-05-01T09:11:30.963Z</time></trkpt><trkpt lat="44.4371003" lon="8.430609"><ele>560.0</ele><time>2026-05-01T09:11:31.963Z</time></trkpt><trkpt lat="44.437142" lon="8.4307728"><ele>560.0</ele><time>2026-05-01T09:11:32.963Z</time></trkpt><trkpt lat="44.4371858" lon="8.4309417"><ele>561.5</ele><time>2026-05-01T09:11:33.963Z</time></trkpt><trkpt lat="44.4372016" lon="8.431102"><ele>563.0</ele><time>2026-05-01T09:11:34.963Z</time></trkpt><trkpt lat="44.4371836" lon="8.431279"><ele>564.5</ele><time>2026-05-01T09:11:35.964Z</time></trkpt><trkpt lat="44.437153" lon="8.4314559"><ele>566.0</ele><time>2026-05-01T09:11:36.963Z</time></trkpt><trkpt lat="44.4371137" lon="8.4316375"><ele>558.5</ele><time>2026-05-01T09:11:37.963Z</time></trkpt><trkpt lat="44.437062" lon="8.4318309"><ele>551.0</ele><time>2026-05-01T09:11:38.964Z</time></trkpt><trkpt lat="44.4370249" lon="8.4320238"><ele>543.5</ele><time>2026-05-01T09:11:39.963Z</time></trkpt><trkpt lat="44.4369886" lon="8.4322172"><ele>536.0</ele><time>2026-05-01T09:11:40.963Z</time></trkpt><trkpt lat="44.4369657" lon="8.4324018"><ele>535.0</ele><time>2026-05-01T09:11:41.963Z</time></trkpt><trkpt lat="44.4369428" lon="8.4325843"><ele>534.0</ele><time>2026-05-01T09:11:42.964Z</time></trkpt><trkpt lat="44.436912" lon="8.4327683"><ele>533.0</ele><time>2026-05-01T09:11:43.964Z</time></trkpt><trkpt lat="44.4368764" lon="8.4329489"><ele>532.0</ele><time>2026-05-01T09:11:44.964Z</time></trkpt><trkpt lat="44.436842" lon="8.433129"><ele>532.0</ele><time>2026-05-01T09:11:45.963Z</time></trkpt><trkpt lat="44.4368125" lon="8.4333044"><ele>532.0</ele><time>2026-05-01T09:11:46.964Z</time></trkpt><trkpt lat="44.4367773" lon="8.4334861"><ele>532.0</ele><time>2026-05-01T09:11:47.963Z</time></trkpt><trkpt lat="44.436739" lon="8.4336733"><ele>532.0</ele><time>2026-05-01T09:11:48.963Z</time></trkpt><trkpt lat="44.4367042" lon="8.4338658"><ele>531.25</ele><time>2026-05-01T09:11:49.964Z</time></trkpt><trkpt lat="44.4366626" lon="8.43406"><ele>530.5</ele><time>2026-05-01T09:11:50.964Z</time></trkpt><trkpt lat="44.4366134" lon="8.43424"><ele>529.75</ele><time>2026-05-01T09:11:51.963Z</time></trkpt><trkpt lat="44.4365564" lon="8.4344089"><ele>529.0</ele><time>2026-05-01T09:11:52.963Z</time></trkpt><trkpt lat="44.4364928" lon="8.4345697"><ele>526.0</ele><time>2026-05-01T09:11:53.963Z</time></trkpt><trkpt lat="44.4364267" lon="8.4347092"><ele>523.0</ele><time>2026-05-01T09:11:54.964Z</time></trkpt><trkpt lat="44.4363694" lon="8.4348379"><ele>520.0</ele><time>2026-05-01T09:11:55.964Z</time></trkpt><trkpt lat="44.4363239" lon="8.4349591"><ele>517.0</ele><time>2026-05-01T09:11:56.964Z</time></trkpt><trkpt lat="44.4362906" lon="8.4350727"><ele>514.0</ele><time>2026-05-01T09:11:57.963Z</time></trkpt><trkpt lat="44.4362629" lon="8.435188"><ele>514.0</ele><time>2026-05-01T09:11:58.963Z</time></trkpt><trkpt lat="44.4362446" lon="8.4352981"><ele>514.0</ele><time>2026-05-01T09:11:59.964Z</time></trkpt><trkpt lat="44.4362432" lon="8.435396"><ele>514.0</ele><time>2026-05-01T09:12:00.963Z</time></trkpt><trkpt lat="44.4363096" lon="8.4355282"><ele>514.0</ele><time>2026-05-01T09:12:02.963Z</time></trkpt><trkpt lat="44.4364511" lon="8.4355067"><ele>514.0</ele><time>2026-05-01T09:12:04.964Z</time></trkpt><trkpt lat="44.4365392" lon="8.4354325"><ele>514.0</ele><time>2026-05-01T09:12:05.963Z</time></trkpt><trkpt lat="44.4366145" lon="8.4353322"><ele>514.0</ele><time>2026-05-01T09:12:06.963Z</time></trkpt><trkpt lat="44.4366768" lon="8.4352084"><ele>514.0</ele><time>2026-05-01T09:12:07.964Z</time></trkpt><trkpt lat="44.4367242" lon="8.4350687"><ele>514.0</ele><time>2026-05-01T09:12:08.964Z</time></trkpt><trkpt lat="44.4367787" lon="8.4349297"><ele>514.0</ele><time>2026-05-01T09:12:09.963Z</time></trkpt><trkpt lat="44.4368413" lon="8.4348018"><ele>514.0</ele><time>2026-05-01T09:12:10.963Z</time></trkpt><trkpt lat="44.4369106" lon="8.4347019"><ele>514.0</ele><time>2026-05-01T09:12:11.963Z</time></trkpt><trkpt lat="44.4369846" lon="8.4346003"><ele>514.0</ele><time>2026-05-01T09:12:12.963Z</time></trkpt><trkpt lat="44.4370614" lon="8.4344745"><ele>514.0</ele><time>2026-05-01T09:12:13.963Z</time></trkpt><trkpt lat="44.4371337" lon="8.434326"><ele>508.0</ele><time>2026-05-01T09:12:14.964Z</time></trkpt><trkpt lat="44.437238" lon="8.4341661"><ele>502.0</ele><time>2026-05-01T09:12:15.963Z</time></trkpt><trkpt lat="44.4373477" lon="8.4339879"><ele>496.0</ele><time>2026-05-01T09:12:16.963Z</time></trkpt><trkpt lat="44.437473" lon="8.4338148"><ele>501.0</ele><time>2026-05-01T09:12:17.963Z</time></trkpt><trkpt lat="44.4375984" lon="8.4336452"><ele>506.0</ele><time>2026-05-01T09:12:18.963Z</time></trkpt><trkpt lat="44.4377126" lon="8.433475"><ele>511.0</ele><time>2026-05-01T09:12:19.963Z</time></trkpt><trkpt lat="44.4378277" lon="8.433322"><ele>511.0</ele><time>2026-05-01T09:12:20.964Z</time></trkpt><trkpt lat="44.4379531" lon="8.4331806"><ele>511.0</ele><time>2026-05-01T09:12:21.964Z</time></trkpt><trkpt lat="44.4380861" lon="8.4330616"><ele>511.0</ele><time>2026-05-01T09:12:22.964Z</time></trkpt><trkpt lat="44.4382285" lon="8.4329537"><ele>507.0</ele><time>2026-05-01T09:12:23.963Z</time></trkpt><trkpt lat="44.4383732" lon="8.4328508"><ele>503.0</ele><time>2026-05-01T09:12:24.964Z</time></trkpt><trkpt lat="44.4385079" lon="8.4327556"><ele>499.0</ele><time>2026-05-01T09:12:25.963Z</time></trkpt><trkpt lat="44.4386398" lon="8.4326654"><ele>499.0</ele><time>2026-05-01T09:12:26.964Z</time></trkpt><trkpt lat="44.4387719" lon="8.4325804"><ele>499.0</ele><time>2026-05-01T09:12:27.963Z</time></trkpt><trkpt lat="44.4389101" lon="8.4325099"><ele>499.0</ele><time>2026-05-01T09:12:28.964Z</time></trkpt><trkpt lat="44.4390557" lon="8.4324486"><ele>499.0</ele><time>2026-05-01T09:12:29.963Z</time></trkpt><trkpt lat="44.4391998" lon="8.4324021"><ele>494.25</ele><time>2026-05-01T09:12:30.963Z</time></trkpt><trkpt lat="44.4393359" lon="8.4323877"><ele>489.5</ele><time>2026-05-01T09:12:31.963Z</time></trkpt><trkpt lat="44.4394817" lon="8.4323849"><ele>484.75</ele><time>2026-05-01T09:12:32.963Z</time></trkpt><trkpt lat="44.4396063" lon="8.4323533"><ele>480.0</ele><time>2026-05-01T09:12:33.963Z</time></trkpt><trkpt lat="44.4397192" lon="8.4322784"><ele>480.0</ele><time>2026-05-01T09:12:34.964Z</time></trkpt><trkpt lat="44.4398334" lon="8.4322083"><ele>480.0</ele><time>2026-05-01T09:12:35.963Z</time></trkpt><trkpt lat="44.4399413" lon="8.4321377"><ele>480.0</ele><time>2026-05-01T09:12:36.963Z</time></trkpt><trkpt lat="44.4400558" lon="8.4320813"><ele>480.0</ele><time>2026-05-01T09:12:37.963Z</time></trkpt><trkpt lat="44.4401698" lon="8.4320721"><ele>480.0</ele><time>2026-05-01T09:12:38.964Z</time></trkpt><trkpt lat="44.4402859" lon="8.4320627"><ele>480.0</ele><time>2026-05-01T09:12:39.963Z</time></trkpt><trkpt lat="44.4404037" lon="8.4320606"><ele>480.0</ele><time>2026-05-01T09:12:40.964Z</time></trkpt><trkpt lat="44.4405245" lon="8.4320588"><ele>480.0</ele><time>2026-05-01T09:12:41.963Z</time></trkpt><trkpt lat="44.4406399" lon="8.4320655"><ele>477.0</ele><time>2026-05-01T09:12:42.963Z</time></trkpt><trkpt lat="44.4407521" lon="8.4320858"><ele>474.0</ele><time>2026-05-01T09:12:43.964Z</time></trkpt><trkpt lat="44.4408695" lon="8.4321208"><ele>471.0</ele><time>2026-05-01T09:12:44.964Z</time></trkpt><trkpt lat="44.4409806" lon="8.4321675"><ele>468.0</ele><time>2026-05-01T09:12:45.963Z</time></trkpt><trkpt lat="44.4410804" lon="8.4322358"><ele>465.75</ele><time>2026-05-01T09:12:46.964Z</time></trkpt><trkpt lat="44.4411768" lon="8.4323332"><ele>463.5</ele><time>2026-05-01T09:12:47.964Z</time></trkpt><trkpt lat="44.4412685" lon="8.4324575"><ele>461.25</ele><time>2026-05-01T09:12:48.963Z</time></trkpt><trkpt lat="44.4413465" lon="8.4326011"><ele>459.0</ele><time>2026-05-01T09:12:49.963Z</time></trkpt><trkpt lat="44.4414335" lon="8.432752"><ele>457.0</ele><time>2026-05-01T09:12:50.963Z</time></trkpt><trkpt lat="44.4415185" lon="8.4329027"><ele>455.0</ele><time>2026-05-01T09:12:51.963Z</time></trkpt><trkpt lat="44.4415981" lon="8.4330504"><ele>453.0</ele><time>2026-05-01T09:12:52.963Z</time></trkpt><trkpt lat="44.4416776" lon="8.4331984"><ele>451.0</ele><time>2026-05-01T09:12:53.964Z</time></trkpt><trkpt lat="44.4417599" lon="8.4333326"><ele>450.0</ele><time>2026-05-01T09:12:54.963Z</time></trkpt><trkpt lat="44.4418427" lon="8.4334498"><ele>449.0</ele><time>2026-05-01T09:12:55.964Z</time></trkpt><trkpt lat="44.441929" lon="8.4335537"><ele>448.0</ele><time>2026-05-01T09:12:56.963Z</time></trkpt><trkpt lat="44.4420188" lon="8.4336519"><ele>447.0</ele><time>2026-05-01T09:12:57.964Z</time></trkpt><trkpt lat="44.4421104" lon="8.4337351"><ele>445.20000000000005</ele><time>2026-05-01T09:12:58.963Z</time></trkpt><trkpt lat="44.4421998" lon="8.4338104"><ele>443.40000000000003</ele><time>2026-05-01T09:12:59.964Z</time></trkpt><trkpt lat="44.4422921" lon="8.4338704"><ele>441.59999999999997</ele><time>2026-05-01T09:13:00.964Z</time></trkpt><trkpt lat="44.4423937" lon="8.4339229"><ele>439.79999999999995</ele><time>2026-05-01T09:13:01.964Z</time></trkpt><trkpt lat="44.4424869" lon="8.4339633"><ele>438.0</ele><time>2026-05-01T09:13:02.963Z</time></trkpt><trkpt lat="44.4425815" lon="8.4339943"><ele>438.0</ele><time>2026-05-01T09:13:03.963Z</time></trkpt><trkpt lat="44.4426801" lon="8.4340297"><ele>438.0</ele><time>2026-05-01T09:13:04.963Z</time></trkpt><trkpt lat="44.4427756" lon="8.4340678"><ele>438.0</ele><time>2026-05-01T09:13:05.963Z</time></trkpt><trkpt lat="44.4428561" lon="8.4341123"><ele>438.0</ele><time>2026-05-01T09:13:06.963Z</time></trkpt><trkpt lat="44.4429302" lon="8.4341567"><ele>438.0</ele><time>2026-05-01T09:13:07.964Z</time></trkpt><trkpt lat="44.4430067" lon="8.4341939"><ele>438.0</ele><time>2026-05-01T09:13:08.964Z</time></trkpt><trkpt lat="44.443086" lon="8.4342329"><ele>436.79999999999995</ele><time>2026-05-01T09:13:09.964Z</time></trkpt><trkpt lat="44.4431752" lon="8.434271"><ele>435.59999999999997</ele><time>2026-05-01T09:13:10.964Z</time></trkpt><trkpt lat="44.443271" lon="8.4343159"><ele>434.40000000000003</ele><time>2026-05-01T09:13:11.964Z</time></trkpt><trkpt lat="44.4433669" lon="8.434359"><ele>433.20000000000005</ele><time>2026-05-01T09:13:12.963Z</time></trkpt><trkpt lat="44.4434672" lon="8.4343927"><ele>432.0</ele><time>2026-05-01T09:13:13.963Z</time></trkpt><trkpt lat="44.4435634" lon="8.4344124"><ele>432.0</ele><time>2026-05-01T09:13:14.963Z</time></trkpt><trkpt lat="44.4436589" lon="8.4344236"><ele>432.00000000000006</ele><time>2026-05-01T09:13:15.963Z</time></trkpt><trkpt lat="44.4437526" lon="8.43443"><ele>432.00000000000006</ele><time>2026-05-01T09:13:16.964Z</time></trkpt><trkpt lat="44.4438446" lon="8.434444"><ele>432.0</ele><time>2026-05-01T09:13:17.963Z</time></trkpt><trkpt lat="44.4439331" lon="8.4344571"><ele>432.0</ele><time>2026-05-01T09:13:18.963Z</time></trkpt><trkpt lat="44.4440127" lon="8.4344666"><ele>431.6666666666667</ele><time>2026-05-01T09:13:19.963Z</time></trkpt><trkpt lat="44.4440877" lon="8.4344764"><ele>431.33333333333337</ele><time>2026-05-01T09:13:20.963Z</time></trkpt><trkpt lat="44.4441581" lon="8.4344881"><ele>431.0</ele><time>2026-05-01T09:13:21.963Z</time></trkpt><trkpt lat="44.4442262" lon="8.4345055"><ele>430.6666666666667</ele><time>2026-05-01T09:13:22.964Z</time></trkpt><trkpt lat="44.4443276" lon="8.4345327"><ele>430.33333333333337</ele><time>2026-05-01T09:13:24.963Z</time></trkpt><trkpt lat="44.444437" lon="8.4345805"><ele>430.0</ele><time>2026-05-01T09:13:26.963Z</time></trkpt><trkpt lat="44.4445037" lon="8.4346349"><ele>429.7142857142857</ele><time>2026-05-01T09:13:28.963Z</time></trkpt><trkpt lat="44.4444888" lon="8.4347284"><ele>429.42857142857144</ele><time>2026-05-01T09:13:31.963Z</time></trkpt><trkpt lat="44.444505" lon="8.43482"><ele>429.14285714285717</ele><time>2026-05-01T09:56:28.969Z</time></trkpt><trkpt lat="44.4445683" lon="8.4348133"><ele>428.8571428571429</ele><time>2026-05-01T09:56:56.969Z</time></trkpt><trkpt lat="44.4446183" lon="8.4347317"><ele>428.57142857142856</ele><time>2026-05-01T09:56:58.969Z</time></trkpt><trkpt lat="44.4446683" lon="8.4346667"><ele>428.28571428571433</ele><time>2026-05-01T09:56:59.969Z</time></trkpt><trkpt lat="44.4447283" lon="8.4345967"><ele>428.0</ele><time>2026-05-01T09:57:00.97Z</time></trkpt><trkpt lat="44.4447933" lon="8.43452"><ele>427.99999999999994</ele><time>2026-05-01T09:57:01.969Z</time></trkpt><trkpt lat="44.4448533" lon="8.4344483"><ele>428.0</ele><time>2026-05-01T09:57:02.97Z</time></trkpt><trkpt lat="44.4449167" lon="8.4343783"><ele>428.0</ele><time>2026-05-01T09:57:03.969Z</time></trkpt><trkpt lat="44.4449817" lon="8.43431"><ele>428.0</ele><time>2026-05-01T09:57:04.969Z</time></trkpt><trkpt lat="44.4450467" lon="8.4342383"><ele>427.99999999999994</ele><time>2026-05-01T09:57:05.969Z</time></trkpt><trkpt lat="44.4451117" lon="8.4341633"><ele>428.0</ele><time>2026-05-01T09:57:06.969Z</time></trkpt><trkpt lat="44.4451817" lon="8.4340867"><ele>427.99999999999994</ele><time>2026-05-01T09:57:07.97Z</time></trkpt><trkpt lat="44.44526" lon="8.4340217"><ele>428.0</ele><time>2026-05-01T09:57:08.969Z</time></trkpt><trkpt lat="44.4453233" lon="8.4339483"><ele>428.0</ele><time>2026-05-01T09:57:09.969Z</time></trkpt><trkpt lat="44.4453817" lon="8.4338567"><ele>428.0</ele><time>2026-05-01T09:57:10.969Z</time></trkpt><trkpt lat="44.4454433" lon="8.433765"><ele>427.99999999999994</ele><time>2026-05-01T09:57:11.97Z</time></trkpt><trkpt lat="44.445495" lon="8.43368"><ele>428.0</ele><time>2026-05-01T09:57:12.97Z</time></trkpt><trkpt lat="44.445545" lon="8.4335933"><ele>427.79999999999995</ele><time>2026-05-01T09:57:13.97Z</time></trkpt><trkpt lat="44.44559" lon="8.43349"><ele>427.59999999999997</ele><time>2026-05-01T09:57:14.969Z</time></trkpt><trkpt lat="44.4456383" lon="8.4333783"><ele>427.40000000000003</ele><time>2026-05-01T09:57:15.969Z</time></trkpt><trkpt lat="44.4456833" lon="8.4332667"><ele>427.20000000000005</ele><time>2026-05-01T09:57:16.969Z</time></trkpt><trkpt lat="44.445725" lon="8.43315"><ele>427.0</ele><time>2026-05-01T09:57:17.969Z</time></trkpt><trkpt lat="44.44577" lon="8.4330333"><ele>427.6</ele><time>2026-05-01T09:57:18.97Z</time></trkpt><trkpt lat="44.445815" lon="8.432895"><ele>428.20000000000005</ele><time>2026-05-01T09:57:19.969Z</time></trkpt><trkpt lat="44.4458583" lon="8.432755"><ele>428.8</ele><time>2026-05-01T09:57:20.969Z</time></trkpt><trkpt lat="44.4459" lon="8.4326167"><ele>429.4</ele><time>2026-05-01T09:57:21.969Z</time></trkpt><trkpt lat="44.4459533" lon="8.4324767"><ele>430.0</ele><time>2026-05-01T09:57:22.97Z</time></trkpt><trkpt lat="44.4459983" lon="8.4323267"><ele>430.0</ele><time>2026-05-01T09:57:23.969Z</time></trkpt><trkpt lat="44.4460433" lon="8.4321533"><ele>430.0</ele><time>2026-05-01T09:57:24.97Z</time></trkpt><trkpt lat="44.446095" lon="8.43198"><ele>430.0</ele><time>2026-05-01T09:57:25.969Z</time></trkpt><trkpt lat="44.4461333" lon="8.4318133"><ele>430.0</ele><time>2026-05-01T09:57:26.969Z</time></trkpt><trkpt lat="44.4461767" lon="8.431635"><ele>430.25</ele><time>2026-05-01T09:57:27.97Z</time></trkpt><trkpt lat="44.4462233" lon="8.4314633"><ele>430.5</ele><time>2026-05-01T09:57:28.969Z</time></trkpt><trkpt lat="44.4462833" lon="8.4312867"><ele>430.75</ele><time>2026-05-01T09:57:29.97Z</time></trkpt><trkpt lat="44.4463367" lon="8.4311033"><ele>431.0</ele><time>2026-05-01T09:57:30.969Z</time></trkpt><trkpt lat="44.44639" lon="8.4309183"><ele>428.5</ele><time>2026-05-01T09:57:31.969Z</time></trkpt><trkpt lat="44.4464483" lon="8.4307317"><ele>426.0</ele><time>2026-05-01T09:57:32.969Z</time></trkpt><trkpt lat="44.4465067" lon="8.430545"><ele>423.5</ele><time>2026-05-01T09:57:33.969Z</time></trkpt><trkpt lat="44.4465567" lon="8.4303667"><ele>421.0</ele><time>2026-05-01T09:57:34.97Z</time></trkpt><trkpt lat="44.4466133" lon="8.43019"><ele>421.0</ele><time>2026-05-01T09:57:35.969Z</time></trkpt><trkpt lat="44.4466667" lon="8.43001"><ele>421.0</ele><time>2026-05-01T09:57:36.969Z</time></trkpt><trkpt lat="44.4467117" lon="8.4298317"><ele>421.0</ele><time>2026-05-01T09:57:37.97Z</time></trkpt><trkpt lat="44.4467567" lon="8.429655"><ele>421.0</ele><time>2026-05-01T09:57:38.969Z</time></trkpt><trkpt lat="44.4467983" lon="8.42949"><ele>420.75</ele><time>2026-05-01T09:57:39.97Z</time></trkpt><trkpt lat="44.4468417" lon="8.4293333"><ele>420.5</ele><time>2026-05-01T09:57:40.969Z</time></trkpt><trkpt lat="44.4468933" lon="8.4291767"><ele>420.25</ele><time>2026-05-01T09:57:41.969Z</time></trkpt><trkpt lat="44.4469667" lon="8.4290283"><ele>420.0</ele><time>2026-05-01T09:57:42.969Z</time></trkpt><trkpt lat="44.447055" lon="8.4288733"><ele>420.0</ele><time>2026-05-01T09:57:43.969Z</time></trkpt><trkpt lat="44.4471467" lon="8.4287217"><ele>420.0</ele><time>2026-05-01T09:57:44.969Z</time></trkpt><trkpt lat="44.447245" lon="8.4285667"><ele>420.0</ele><time>2026-05-01T09:57:45.969Z</time></trkpt><trkpt lat="44.4473417" lon="8.4284017"><ele>420.0</ele><time>2026-05-01T09:57:46.97Z</time></trkpt><trkpt lat="44.44744" lon="8.4282383"><ele>420.0</ele><time>2026-05-01T09:57:47.969Z</time></trkpt><trkpt lat="44.4475283" lon="8.4280733"><ele>420.0</ele><time>2026-05-01T09:57:48.969Z</time></trkpt><trkpt lat="44.447615" lon="8.4279083"><ele>420.0</ele><time>2026-05-01T09:57:49.97Z</time></trkpt><trkpt lat="44.4477083" lon="8.4277483"><ele>420.0</ele><time>2026-05-01T09:57:50.97Z</time></trkpt><trkpt lat="44.447795" lon="8.42759"><ele>420.75</ele><time>2026-05-01T09:57:51.97Z</time></trkpt><trkpt lat="44.44788" lon="8.4274383"><ele>421.5</ele><time>2026-05-01T09:57:52.969Z</time></trkpt><trkpt lat="44.44797" lon="8.42729"><ele>422.25</ele><time>2026-05-01T09:57:53.969Z</time></trkpt><trkpt lat="44.4480533" lon="8.427145"><ele>423.0</ele><time>2026-05-01T09:57:54.97Z</time></trkpt><trkpt lat="44.4481283" lon="8.4270033"><ele>423.75</ele><time>2026-05-01T09:57:55.969Z</time></trkpt><trkpt lat="44.4481833" lon="8.426845"><ele>424.5</ele><time>2026-05-01T09:57:56.969Z</time></trkpt><trkpt lat="44.4482217" lon="8.4266733"><ele>425.25</ele><time>2026-05-01T09:57:57.97Z</time></trkpt><trkpt lat="44.44825" lon="8.426485"><ele>426.0</ele><time>2026-05-01T09:57:58.969Z</time></trkpt><trkpt lat="44.4482517" lon="8.42629"><ele>430.0</ele><time>2026-05-01T09:57:59.97Z</time></trkpt><trkpt lat="44.4482217" lon="8.426095"><ele>434.0</ele><time>2026-05-01T09:58:00.97Z</time></trkpt><trkpt lat="44.4481567" lon="8.425905"><ele>438.0</ele><time>2026-05-01T09:58:01.969Z</time></trkpt><trkpt lat="44.4480617" lon="8.425725"><ele>435.66666666666663</ele><time>2026-05-01T09:58:02.97Z</time></trkpt><trkpt lat="44.4479483" lon="8.4255567"><ele>433.3333333333333</ele><time>2026-05-01T09:58:03.969Z</time></trkpt><trkpt lat="44.447835" lon="8.425425"><ele>431.0</ele><time>2026-05-01T09:58:04.969Z</time></trkpt><trkpt lat="44.4476917" lon="8.42536"><ele>436.75</ele><time>2026-05-01T09:58:05.969Z</time></trkpt><trkpt lat="44.4475633" lon="8.425295"><ele>442.5</ele><time>2026-05-01T09:58:06.969Z</time></trkpt><trkpt lat="44.4474333" lon="8.4252383"><ele>448.25</ele><time>2026-05-01T09:58:07.97Z</time></trkpt><trkpt lat="44.447295" lon="8.4252433"><ele>454.0</ele><time>2026-05-01T09:58:08.969Z</time></trkpt><trkpt lat="44.4471633" lon="8.4252483"><ele>455.0</ele><time>2026-05-01T09:58:09.97Z</time></trkpt><trkpt lat="44.4470267" lon="8.4252683"><ele>456.0</ele><time>2026-05-01T09:58:10.97Z</time></trkpt><trkpt lat="44.446885" lon="8.4252883"><ele>457.0</ele><time>2026-05-01T09:58:11.969Z</time></trkpt><trkpt lat="44.446735" lon="8.4253"><ele>458.0</ele><time>2026-05-01T09:58:12.969Z</time></trkpt><trkpt lat="44.4465883" lon="8.4253133"><ele>458.0</ele><time>2026-05-01T09:58:13.969Z</time></trkpt><trkpt lat="44.4464467" lon="8.4253283"><ele>458.0</ele><time>2026-05-01T09:58:14.97Z</time></trkpt><trkpt lat="44.4463083" lon="8.425345"><ele>458.0</ele><time>2026-05-01T09:58:15.969Z</time></trkpt><trkpt lat="44.4461617" lon="8.4253683"><ele>458.0</ele><time>2026-05-01T09:58:16.969Z</time></trkpt><trkpt lat="44.4460333" lon="8.4254317"><ele>460.0</ele><time>2026-05-01T09:58:17.969Z</time></trkpt><trkpt lat="44.4459233" lon="8.4254783"><ele>462.0</ele><time>2026-05-01T09:58:18.97Z</time></trkpt><trkpt lat="44.4457933" lon="8.425555"><ele>464.0</ele><time>2026-05-01T09:58:19.97Z</time></trkpt><trkpt lat="44.44568" lon="8.4256583"><ele>466.0</ele><time>2026-05-01T09:58:20.97Z</time></trkpt><trkpt lat="44.4455683" lon="8.4257633"><ele>467.5</ele><time>2026-05-01T09:58:21.97Z</time></trkpt><trkpt lat="44.4454617" lon="8.4258467"><ele>469.0</ele><time>2026-05-01T09:58:22.97Z</time></trkpt><trkpt lat="44.4453517" lon="8.4259667"><ele>470.5</ele><time>2026-05-01T09:58:23.97Z</time></trkpt><trkpt lat="44.4452567" lon="8.4260583"><ele>472.0</ele><time>2026-05-01T09:58:24.969Z</time></trkpt><trkpt lat="44.44516" lon="8.4261717"><ele>472.0</ele><time>2026-05-01T09:58:25.969Z</time></trkpt><trkpt lat="44.4450617" lon="8.4262967"><ele>472.0</ele><time>2026-05-01T09:58:26.969Z</time></trkpt><trkpt lat="44.4449767" lon="8.4264333"><ele>472.0</ele><time>2026-05-01T09:58:27.97Z</time></trkpt><trkpt lat="44.4448683" lon="8.4265583"><ele>472.0</ele><time>2026-05-01T09:58:28.969Z</time></trkpt><trkpt lat="44.4447233" lon="8.4266517"><ele>468.5</ele><time>2026-05-01T09:58:29.969Z</time></trkpt><trkpt lat="44.4446283" lon="8.426715"><ele>465.0</ele><time>2026-05-01T09:58:30.969Z</time></trkpt><trkpt lat="44.44451" lon="8.4267167"><ele>461.5</ele><time>2026-05-01T09:58:31.969Z</time></trkpt><trkpt lat="44.44439" lon="8.4266867"><ele>458.0</ele><time>2026-05-01T09:58:32.97Z</time></trkpt><trkpt lat="44.44427" lon="8.4266067"><ele>458.0</ele><time>2026-05-01T09:58:33.969Z</time></trkpt><trkpt lat="44.4441667" lon="8.426505"><ele>458.0</ele><time>2026-05-01T09:58:34.97Z</time></trkpt><trkpt lat="44.4440617" lon="8.4263767"><ele>458.0</ele><time>2026-05-01T09:58:35.969Z</time></trkpt><trkpt lat="44.4439567" lon="8.4262283"><ele>458.0</ele><time>2026-05-01T09:58:36.969Z</time></trkpt><trkpt lat="44.4438483" lon="8.4260783"><ele>458.25</ele><time>2026-05-01T09:58:37.969Z</time></trkpt><trkpt lat="44.44375" lon="8.42593"><ele>458.5</ele><time>2026-05-01T09:58:38.969Z</time></trkpt><trkpt lat="44.44366" lon="8.4257733"><ele>458.75</ele><time>2026-05-01T09:58:39.969Z</time></trkpt><trkpt lat="44.4435683" lon="8.4256133"><ele>459.0</ele><time>2026-05-01T09:58:40.969Z</time></trkpt><trkpt lat="44.4434917" lon="8.42546"><ele>461.79999999999995</ele><time>2026-05-01T09:58:41.97Z</time></trkpt><trkpt lat="44.4434195" lon="8.4253233"><ele>464.59999999999997</ele><time>2026-05-01T09:58:42.969Z</time></trkpt><trkpt lat="44.4433572" lon="8.4252028"><ele>467.4</ele><time>2026-05-01T09:58:43.969Z</time></trkpt><trkpt lat="44.4433043" lon="8.4250906"><ele>470.2</ele><time>2026-05-01T09:58:44.969Z</time></trkpt><trkpt lat="44.4432634" lon="8.4250074"><ele>473.0</ele><time>2026-05-01T09:58:45.969Z</time></trkpt><trkpt lat="44.4432278" lon="8.4248642"><ele>473.0</ele><time>2026-05-01T09:58:47.969Z</time></trkpt><trkpt lat="44.4432833" lon="8.4247653"><ele>472.99999999999994</ele><time>2026-05-01T09:58:49.97Z</time></trkpt><trkpt lat="44.4434013" lon="8.4247817"><ele>472.99999999999994</ele><time>2026-05-01T09:58:51.969Z</time></trkpt><trkpt lat="44.4434632" lon="8.4248431"><ele>473.0</ele><time>2026-05-01T09:58:52.97Z</time></trkpt><trkpt lat="44.4435298" lon="8.4249549"><ele>473.0</ele><time>2026-05-01T09:58:53.969Z</time></trkpt><trkpt lat="44.4436074" lon="8.4251197"><ele>473.0</ele><time>2026-05-01T09:58:54.969Z</time></trkpt><trkpt lat="44.4436855" lon="8.425293"><ele>473.0</ele><time>2026-05-01T09:58:55.97Z</time></trkpt><trkpt lat="44.4437698" lon="8.4254455"><ele>473.0</ele><time>2026-05-01T09:58:56.969Z</time></trkpt><trkpt lat="44.4438708" lon="8.4255833"><ele>473.0</ele><time>2026-05-01T09:58:57.969Z</time></trkpt><trkpt lat="44.4439838" lon="8.4257035"><ele>474.5</ele><time>2026-05-01T09:58:58.969Z</time></trkpt><trkpt lat="44.4440893" lon="8.4258073"><ele>476.0</ele><time>2026-05-01T09:58:59.969Z</time></trkpt><trkpt lat="44.4441964" lon="8.425907"><ele>477.5</ele><time>2026-05-01T09:59:00.969Z</time></trkpt><trkpt lat="44.4443008" lon="8.4259975"><ele>479.0</ele><time>2026-05-01T09:59:01.969Z</time></trkpt><trkpt lat="44.4443903" lon="8.4260639"><ele>479.0</ele><time>2026-05-01T09:59:02.969Z</time></trkpt><trkpt lat="44.4444806" lon="8.4261112"><ele>479.0</ele><time>2026-05-01T09:59:03.969Z</time></trkpt><trkpt lat="44.4445616" lon="8.4261297"><ele>479.0</ele><time>2026-05-01T09:59:04.969Z</time></trkpt><trkpt lat="44.4446327" lon="8.4261233"><ele>479.0</ele><time>2026-05-01T09:59:05.969Z</time></trkpt><trkpt lat="44.4446971" lon="8.42602"><ele>479.0</ele><time>2026-05-01T09:59:07.97Z</time></trkpt><trkpt lat="44.444648" lon="8.425856"><ele>479.0</ele><time>2026-05-01T09:59:09.97Z</time></trkpt><trkpt lat="44.4445611" lon="8.4257783"><ele>479.0</ele><time>2026-05-01T09:59:10.969Z</time></trkpt><trkpt lat="44.4444522" lon="8.4257086"><ele>479.0</ele><time>2026-05-01T09:59:11.969Z</time></trkpt><trkpt lat="44.4443292" lon="8.4256401"><ele>479.0</ele><time>2026-05-01T09:59:12.97Z</time></trkpt><trkpt lat="44.4442137" lon="8.4255712"><ele>484.0</ele><time>2026-05-01T09:59:13.97Z</time></trkpt><trkpt lat="44.4441114" lon="8.4254694"><ele>489.0</ele><time>2026-05-01T09:59:14.969Z</time></trkpt><trkpt lat="44.4440258" lon="8.4253412"><ele>494.0</ele><time>2026-05-01T09:59:15.969Z</time></trkpt><trkpt lat="44.4439562" lon="8.4251846"><ele>499.0</ele><time>2026-05-01T09:59:16.969Z</time></trkpt><trkpt lat="44.4438993" lon="8.4250097"><ele>499.0</ele><time>2026-05-01T09:59:17.97Z</time></trkpt><trkpt lat="44.4438461" lon="8.4248256"><ele>499.0</ele><time>2026-05-01T09:59:18.969Z</time></trkpt><trkpt lat="44.4437921" lon="8.4246416"><ele>499.0</ele><time>2026-05-01T09:59:19.969Z</time></trkpt><trkpt lat="44.443735" lon="8.4244527"><ele>499.0</ele><time>2026-05-01T09:59:20.969Z</time></trkpt><trkpt lat="44.4436811" lon="8.4242664"><ele>497.25</ele><time>2026-05-01T09:59:21.97Z</time></trkpt><trkpt lat="44.4436378" lon="8.4240809"><ele>495.5</ele><time>2026-05-01T09:59:22.97Z</time></trkpt><trkpt lat="44.4436053" lon="8.4238922"><ele>493.75</ele><time>2026-05-01T09:59:23.97Z</time></trkpt><trkpt lat="44.443597" lon="8.423689"><ele>492.0</ele><time>2026-05-01T09:59:24.969Z</time></trkpt><trkpt lat="44.443599" lon="8.4234842"><ele>492.0</ele><time>2026-05-01T09:59:25.97Z</time></trkpt><trkpt lat="44.4435946" lon="8.4232823"><ele>492.0</ele><time>2026-05-01T09:59:26.97Z</time></trkpt><trkpt lat="44.4435708" lon="8.4230856"><ele>492.0</ele><time>2026-05-01T09:59:27.969Z</time></trkpt><trkpt lat="44.4435285" lon="8.4229074"><ele>492.0</ele><time>2026-05-01T09:59:28.969Z</time></trkpt><trkpt lat="44.4434698" lon="8.4227352"><ele>494.0</ele><time>2026-05-01T09:59:29.969Z</time></trkpt><trkpt lat="44.443403" lon="8.4225763"><ele>496.0</ele><time>2026-05-01T09:59:30.97Z</time></trkpt><trkpt lat="44.4433437" lon="8.4224166"><ele>498.0</ele><time>2026-05-01T09:59:31.969Z</time></trkpt><trkpt lat="44.4433003" lon="8.4222514"><ele>500.0</ele><time>2026-05-01T09:59:32.97Z</time></trkpt><trkpt lat="44.4432695" lon="8.4220787"><ele>501.0</ele><time>2026-05-01T09:59:33.969Z</time></trkpt><trkpt lat="44.443255" lon="8.4219082"><ele>502.0</ele><time>2026-05-01T09:59:34.97Z</time></trkpt><trkpt lat="44.4432583" lon="8.421745"><ele>503.0</ele><time>2026-05-01T09:59:35.969Z</time></trkpt><trkpt lat="44.4432746" lon="8.4215807"><ele>504.0</ele><time>2026-05-01T09:59:36.969Z</time></trkpt><trkpt lat="44.443309" lon="8.4214162"><ele>502.25</ele><time>2026-05-01T09:59:37.97Z</time></trkpt><trkpt lat="44.4433646" lon="8.4212448"><ele>500.5</ele><time>2026-05-01T09:59:38.97Z</time></trkpt><trkpt lat="44.4434318" lon="8.4210842"><ele>498.75</ele><time>2026-05-01T09:59:39.969Z</time></trkpt><trkpt lat="44.4434979" lon="8.420938"><ele>497.0</ele><time>2026-05-01T09:59:40.97Z</time></trkpt><trkpt lat="44.4435639" lon="8.4208105"><ele>497.0</ele><time>2026-05-01T09:59:41.969Z</time></trkpt><trkpt lat="44.4436357" lon="8.420682"><ele>497.0</ele><time>2026-05-01T09:59:42.969Z</time></trkpt><trkpt lat="44.443707" lon="8.4205597"><ele>497.0</ele><time>2026-05-01T09:59:43.969Z</time></trkpt><trkpt lat="44.4437765" lon="8.4204376"><ele>497.0</ele><time>2026-05-01T09:59:44.97Z</time></trkpt><trkpt lat="44.4438421" lon="8.420316"><ele>498.8</ele><time>2026-05-01T09:59:45.969Z</time></trkpt><trkpt lat="44.4439141" lon="8.4202108"><ele>500.6</ele><time>2026-05-01T09:59:46.969Z</time></trkpt><trkpt lat="44.4439994" lon="8.4201335"><ele>502.40000000000003</ele><time>2026-05-01T09:59:47.97Z</time></trkpt><trkpt lat="44.4440983" lon="8.4200766"><ele>504.20000000000005</ele><time>2026-05-01T09:59:48.969Z</time></trkpt><trkpt lat="44.4442069" lon="8.4200409"><ele>506.0</ele><time>2026-05-01T09:59:49.969Z</time></trkpt><trkpt lat="44.4443274" lon="8.4200373"><ele>506.0</ele><time>2026-05-01T09:59:50.97Z</time></trkpt><trkpt lat="44.4444553" lon="8.4200729"><ele>506.0</ele><time>2026-05-01T09:59:51.969Z</time></trkpt><trkpt lat="44.44458" lon="8.4201222"><ele>506.0</ele><time>2026-05-01T09:59:52.969Z</time></trkpt><trkpt lat="44.444691" lon="8.4201858"><ele>506.0</ele><time>2026-05-01T09:59:53.969Z</time></trkpt><trkpt lat="44.4447934" lon="8.4202602"><ele>507.20000000000005</ele><time>2026-05-01T09:59:54.97Z</time></trkpt><trkpt lat="44.4449003" lon="8.4203219"><ele>508.40000000000003</ele><time>2026-05-01T09:59:55.97Z</time></trkpt><trkpt lat="44.4450096" lon="8.4203496"><ele>509.6</ele><time>2026-05-01T09:59:56.969Z</time></trkpt><trkpt lat="44.4451137" lon="8.4203303"><ele>510.8</ele><time>2026-05-01T09:59:57.969Z</time></trkpt><trkpt lat="44.4452138" lon="8.4202653"><ele>512.0</ele><time>2026-05-01T09:59:58.97Z</time></trkpt><trkpt lat="44.4453168" lon="8.4201767"><ele>512.0</ele><time>2026-05-01T09:59:59.969Z</time></trkpt><trkpt lat="44.445423" lon="8.4201076"><ele>512.0</ele><time>2026-05-01T10:00:00.97Z</time></trkpt><trkpt lat="44.4455269" lon="8.4200702"><ele>512.0</ele><time>2026-05-01T10:00:01.97Z</time></trkpt><trkpt lat="44.4456442" lon="8.4200604"><ele>512.0</ele><time>2026-05-01T10:00:02.969Z</time></trkpt><trkpt lat="44.4457729" lon="8.4200592"><ele>515.0</ele><time>2026-05-01T10:00:03.969Z</time></trkpt><trkpt lat="44.4458972" lon="8.4200362"><ele>518.0</ele><time>2026-05-01T10:00:04.969Z</time></trkpt><trkpt lat="44.446013" lon="8.419982"><ele>521.0</ele><time>2026-05-01T10:00:05.969Z</time></trkpt><trkpt lat="44.4461268" lon="8.4199084"><ele>524.0</ele><time>2026-05-01T10:00:06.969Z</time></trkpt><trkpt lat="44.4462333" lon="8.4198365"><ele>522.25</ele><time>2026-05-01T10:00:07.969Z</time></trkpt><trkpt lat="44.4463359" lon="8.4197638"><ele>520.5</ele><time>2026-05-01T10:00:08.97Z</time></trkpt><trkpt lat="44.446444" lon="8.4196978"><ele>518.75</ele><time>2026-05-01T10:00:09.969Z</time></trkpt><trkpt lat="44.4465527" lon="8.4196318"><ele>517.0</ele><time>2026-05-01T10:00:10.969Z</time></trkpt><trkpt lat="44.4466587" lon="8.4195378"><ele>517.0</ele><time>2026-05-01T10:00:11.969Z</time></trkpt><trkpt lat="44.4467639" lon="8.4194498"><ele>517.0</ele><time>2026-05-01T10:00:12.969Z</time></trkpt><trkpt lat="44.4468604" lon="8.4193481"><ele>517.0</ele><time>2026-05-01T10:00:13.969Z</time></trkpt><trkpt lat="44.4469476" lon="8.4192563"><ele>517.0</ele><time>2026-05-01T10:00:14.97Z</time></trkpt><trkpt lat="44.4470423" lon="8.4191712"><ele>519.8000000000001</ele><time>2026-05-01T10:00:15.969Z</time></trkpt><trkpt lat="44.447138" lon="8.419094"><ele>522.6</ele><time>2026-05-01T10:00:16.969Z</time></trkpt><trkpt lat="44.4472425" lon="8.4190452"><ele>525.4000000000001</ele><time>2026-05-01T10:00:17.97Z</time></trkpt><trkpt lat="44.4473511" lon="8.4190138"><ele>528.2</ele><time>2026-05-01T10:00:18.97Z</time></trkpt><trkpt lat="44.4474587" lon="8.4189937"><ele>531.0</ele><time>2026-05-01T10:00:19.97Z</time></trkpt><trkpt lat="44.4475609" lon="8.4189662"><ele>531.0</ele><time>2026-05-01T10:00:20.97Z</time></trkpt><trkpt lat="44.4476542" lon="8.4189037"><ele>531.0</ele><time>2026-05-01T10:00:21.969Z</time></trkpt><trkpt lat="44.4477278" lon="8.4188133"><ele>531.0</ele><time>2026-05-01T10:00:22.969Z</time></trkpt><trkpt lat="44.4477711" lon="8.4186849"><ele>531.0</ele><time>2026-05-01T10:00:23.969Z</time></trkpt><trkpt lat="44.4477817" lon="8.4185329"><ele>531.0</ele><time>2026-05-01T10:00:24.969Z</time></trkpt><trkpt lat="44.4477948" lon="8.4183823"><ele>529.4</ele><time>2026-05-01T10:00:25.97Z</time></trkpt><trkpt lat="44.4478221" lon="8.4182488"><ele>527.8</ele><time>2026-05-01T10:00:26.969Z</time></trkpt><trkpt lat="44.4478741" lon="8.4181272"><ele>526.1999999999999</ele><time>2026-05-01T10:00:27.969Z</time></trkpt><trkpt lat="44.4479593" lon="8.4180224"><ele>524.6</ele><time>2026-05-01T10:00:28.969Z</time></trkpt><trkpt lat="44.4480586" lon="8.417939"><ele>523.0</ele><time>2026-05-01T10:00:29.969Z</time></trkpt><trkpt lat="44.4481591" lon="8.4178667"><ele>526.1999999999999</ele><time>2026-05-01T10:00:30.969Z</time></trkpt><trkpt lat="44.44826" lon="8.4177863"><ele>529.4</ele><time>2026-05-01T10:00:31.969Z</time></trkpt><trkpt lat="44.4483519" lon="8.4176899"><ele>532.5999999999999</ele><time>2026-05-01T10:00:32.969Z</time></trkpt><trkpt lat="44.4484187" lon="8.4175888"><ele>535.8</ele><time>2026-05-01T10:00:33.969Z</time></trkpt><trkpt lat="44.4484461" lon="8.4174714"><ele>539.0</ele><time>2026-05-01T10:00:34.969Z</time></trkpt><trkpt lat="44.4484525" lon="8.4173585"><ele>539.0</ele><time>2026-05-01T10:00:35.97Z</time></trkpt><trkpt lat="44.4484394" lon="8.4172373"><ele>539.0</ele><time>2026-05-01T10:00:36.97Z</time></trkpt><trkpt lat="44.4483977" lon="8.4171177"><ele>539.0</ele><time>2026-05-01T10:00:37.969Z</time></trkpt><trkpt lat="44.4483347" lon="8.4169885"><ele>539.0</ele><time>2026-05-01T10:00:38.969Z</time></trkpt><trkpt lat="44.4482488" lon="8.41685"><ele>539.0</ele><time>2026-05-01T10:00:39.969Z</time></trkpt><trkpt lat="44.4481826" lon="8.4166966"><ele>540.25</ele><time>2026-05-01T10:00:40.97Z</time></trkpt><trkpt lat="44.4481372" lon="8.4165296"><ele>541.5</ele><time>2026-05-01T10:00:41.969Z</time></trkpt><trkpt lat="44.4481366" lon="8.4163508"><ele>542.75</ele><time>2026-05-01T10:00:42.97Z</time></trkpt><trkpt lat="44.4481712" lon="8.4161813"><ele>544.0</ele><time>2026-05-01T10:00:43.969Z</time></trkpt><trkpt lat="44.4482261" lon="8.4160335"><ele>544.0</ele><time>2026-05-01T10:00:44.969Z</time></trkpt><trkpt lat="44.4483016" lon="8.415891"><ele>544.0</ele><time>2026-05-01T10:00:45.969Z</time></trkpt><trkpt lat="44.4483895" lon="8.4157594"><ele>544.0</ele><time>2026-05-01T10:00:46.969Z</time></trkpt><trkpt lat="44.4484811" lon="8.4156331"><ele>544.0</ele><time>2026-05-01T10:00:47.969Z</time></trkpt><trkpt lat="44.4485755" lon="8.4155083"><ele>542.25</ele><time>2026-05-01T10:00:48.97Z</time></trkpt><trkpt lat="44.4486631" lon="8.4153933"><ele>540.5</ele><time>2026-05-01T10:00:49.969Z</time></trkpt><trkpt lat="44.4487544" lon="8.4152801"><ele>538.75</ele><time>2026-05-01T10:00:50.97Z</time></trkpt><trkpt lat="44.4488384" lon="8.4151802"><ele>537.0</ele><time>2026-05-01T10:00:51.969Z</time></trkpt><trkpt lat="44.4489031" lon="8.4150714"><ele>542.2</ele><time>2026-05-01T10:00:52.969Z</time></trkpt><trkpt lat="44.4489372" lon="8.4149377"><ele>547.4000000000001</ele><time>2026-05-01T10:00:53.969Z</time></trkpt><trkpt lat="44.4489503" lon="8.4147884"><ele>552.5999999999999</ele><time>2026-05-01T10:00:54.969Z</time></trkpt><trkpt lat="44.4489688" lon="8.4146425"><ele>557.8</ele><time>2026-05-01T10:00:55.969Z</time></trkpt><trkpt lat="44.4490049" lon="8.4145105"><ele>563.0</ele><time>2026-05-01T10:00:56.969Z</time></trkpt><trkpt lat="44.4490458" lon="8.4143901"><ele>563.0</ele><time>2026-05-01T10:00:57.969Z</time></trkpt><trkpt lat="44.4490797" lon="8.4142812"><ele>563.0</ele><time>2026-05-01T10:00:58.969Z</time></trkpt><trkpt lat="44.4490928" lon="8.4141857"><ele>563.0</ele><time>2026-05-01T10:00:59.969Z</time></trkpt><trkpt lat="44.4490451" lon="8.4140326"><ele>563.0</ele><time>2026-05-01T10:01:01.969Z</time></trkpt><trkpt lat="44.449" lon="8.4139507"><ele>563.0</ele><time>2026-05-01T10:01:02.97Z</time></trkpt><trkpt lat="44.448952" lon="8.413859"><ele>563.0</ele><time>2026-05-01T10:01:03.969Z</time></trkpt><trkpt lat="44.4489049" lon="8.4137646"><ele>563.8</ele><time>2026-05-01T10:01:04.97Z</time></trkpt><trkpt lat="44.4488509" lon="8.4136752"><ele>564.5999999999999</ele><time>2026-05-01T10:01:05.969Z</time></trkpt><trkpt lat="44.4487801" lon="8.4135948"><ele>565.4000000000001</ele><time>2026-05-01T10:01:06.97Z</time></trkpt><trkpt lat="44.4486984" lon="8.4135129"><ele>566.2</ele><time>2026-05-01T10:01:07.969Z</time></trkpt><trkpt lat="44.4486149" lon="8.4134171"><ele>567.0</ele><time>2026-05-01T10:01:08.969Z</time></trkpt><trkpt lat="44.4485371" lon="8.4133062"><ele>562.5</ele><time>2026-05-01T10:01:09.97Z</time></trkpt><trkpt lat="44.4484596" lon="8.4131848"><ele>558.0</ele><time>2026-05-01T10:01:10.969Z</time></trkpt><trkpt lat="44.4483823" lon="8.4130586"><ele>553.5</ele><time>2026-05-01T10:01:11.969Z</time></trkpt><trkpt lat="44.4483052" lon="8.4129234"><ele>549.0</ele><time>2026-05-01T10:01:12.969Z</time></trkpt><trkpt lat="44.4482297" lon="8.4127925"><ele>548.25</ele><time>2026-05-01T10:01:13.97Z</time></trkpt><trkpt lat="44.4481549" lon="8.4126622"><ele>547.5</ele><time>2026-05-01T10:01:14.97Z</time></trkpt><trkpt lat="44.4480826" lon="8.4125321"><ele>546.75</ele><time>2026-05-01T10:01:15.969Z</time></trkpt><trkpt lat="44.4480161" lon="8.4123986"><ele>546.0</ele><time>2026-05-01T10:01:16.969Z</time></trkpt><trkpt lat="44.447954" lon="8.4122755"><ele>545.1666666666666</ele><time>2026-05-01T10:01:17.969Z</time></trkpt><trkpt lat="44.4478966" lon="8.4121595"><ele>544.3333333333334</ele><time>2026-05-01T10:01:18.969Z</time></trkpt><trkpt lat="44.447838" lon="8.4120611"><ele>543.5</ele><time>2026-05-01T10:01:19.969Z</time></trkpt><trkpt lat="44.4477774" lon="8.411964"><ele>542.6666666666667</ele><time>2026-05-01T10:01:20.969Z</time></trkpt><trkpt lat="44.4477158" lon="8.4118903"><ele>541.8333333333334</ele><time>2026-05-01T10:01:21.969Z</time></trkpt><trkpt lat="44.4476489" lon="8.4118336"><ele>541.0</ele><time>2026-05-01T10:01:22.969Z</time></trkpt><trkpt lat="44.447582" lon="8.4117792"><ele>541.0</ele><time>2026-05-01T10:01:23.97Z</time></trkpt><trkpt lat="44.4475179" lon="8.4117185"><ele>541.0</ele><time>2026-05-01T10:01:24.969Z</time></trkpt><trkpt lat="44.447463" lon="8.4116455"><ele>541.0</ele><time>2026-05-01T10:01:25.97Z</time></trkpt><trkpt lat="44.4474262" lon="8.4115487"><ele>541.0</ele><time>2026-05-01T10:01:26.969Z</time></trkpt><trkpt lat="44.4474102" lon="8.4114224"><ele>541.0</ele><time>2026-05-01T10:01:27.969Z</time></trkpt><trkpt lat="44.4474048" lon="8.4112839"><ele>541.0</ele><time>2026-05-01T10:01:28.969Z</time></trkpt><trkpt lat="44.4473949" lon="8.4111441"><ele>539.8</ele><time>2026-05-01T10:01:29.969Z</time></trkpt><trkpt lat="44.4473739" lon="8.4110061"><ele>538.6</ele><time>2026-05-01T10:01:30.969Z</time></trkpt><trkpt lat="44.4473481" lon="8.4108725"><ele>537.4</ele><time>2026-05-01T10:01:31.969Z</time></trkpt><trkpt lat="44.4473225" lon="8.4107392"><ele>536.2</ele><time>2026-05-01T10:01:32.97Z</time></trkpt><trkpt lat="44.4473014" lon="8.4106028"><ele>535.0</ele><time>2026-05-01T10:01:33.969Z</time></trkpt><trkpt lat="44.447291" lon="8.4104624"><ele>533.6</ele><time>2026-05-01T10:01:34.969Z</time></trkpt><trkpt lat="44.4472865" lon="8.4103257"><ele>532.2</ele><time>2026-05-01T10:01:35.97Z</time></trkpt><trkpt lat="44.4473111" lon="8.4101911"><ele>530.8</ele><time>2026-05-01T10:01:36.969Z</time></trkpt><trkpt lat="44.447324" lon="8.4100429"><ele>529.4</ele><time>2026-05-01T10:01:37.97Z</time></trkpt><trkpt lat="44.4473398" lon="8.4099022"><ele>528.0</ele><time>2026-05-01T10:01:38.97Z</time></trkpt><trkpt lat="44.4473498" lon="8.4097573"><ele>527.0</ele><time>2026-05-01T10:01:39.969Z</time></trkpt><trkpt lat="44.4473482" lon="8.4096212"><ele>526.0</ele><time>2026-05-01T10:01:40.969Z</time></trkpt><trkpt lat="44.447333" lon="8.4094956"><ele>525.0</ele><time>2026-05-01T10:01:41.97Z</time></trkpt><trkpt lat="44.4473063" lon="8.4093755"><ele>524.0</ele><time>2026-05-01T10:01:42.969Z</time></trkpt><trkpt lat="44.4472783" lon="8.409272"><ele>523.0</ele><time>2026-05-01T10:01:43.969Z</time></trkpt><trkpt lat="44.4472585" lon="8.409178"><ele>522.0</ele><time>2026-05-01T10:01:44.969Z</time></trkpt><trkpt lat="44.447262" lon="8.4090342"><ele>522.0</ele><time>2026-05-01T10:01:46.97Z</time></trkpt><trkpt lat="44.4473488" lon="8.4089835"><ele>522.0</ele><time>2026-05-01T10:01:48.97Z</time></trkpt><trkpt lat="44.447428" lon="8.4090655"><ele>522.0</ele><time>2026-05-01T10:01:50.969Z</time></trkpt><trkpt lat="44.4474477" lon="8.4091656"><ele>522.0</ele><time>2026-05-01T10:01:51.969Z</time></trkpt><trkpt lat="44.4474629" lon="8.4092812"><ele>522.0</ele><time>2026-05-01T10:01:52.969Z</time></trkpt><trkpt lat="44.4474926" lon="8.4093937"><ele>522.0</ele><time>2026-05-01T10:01:53.97Z</time></trkpt><trkpt lat="44.4475287" lon="8.4094828"><ele>522.0</ele><time>2026-05-01T10:01:54.97Z</time></trkpt><trkpt lat="44.4476225" lon="8.4095708"><ele>522.0</ele><time>2026-05-01T10:01:56.969Z</time></trkpt><trkpt lat="44.4477259" lon="8.4095258"><ele>522.0</ele><time>2026-05-01T10:01:58.969Z</time></trkpt><trkpt lat="44.4477959" lon="8.4094037"><ele>522.0</ele><time>2026-05-01T10:02:00.97Z</time></trkpt><trkpt lat="44.4477887" lon="8.4093015"><ele>522.0</ele><time>2026-05-01T10:02:01.969Z</time></trkpt><trkpt lat="44.4477565" lon="8.4091781"><ele>522.0</ele><time>2026-05-01T10:02:02.969Z</time></trkpt><trkpt lat="44.4476995" lon="8.4090507"><ele>522.0</ele><time>2026-05-01T10:02:03.969Z</time></trkpt><trkpt lat="44.4476346" lon="8.408923"><ele>522.0</ele><time>2026-05-01T10:02:04.97Z</time></trkpt><trkpt lat="44.4475789" lon="8.4087944"><ele>522.0</ele><time>2026-05-01T10:02:05.969Z</time></trkpt><trkpt lat="44.4475472" lon="8.4086615"><ele>522.0</ele><time>2026-05-01T10:02:06.969Z</time></trkpt><trkpt lat="44.4475428" lon="8.4085181"><ele>521.2</ele><time>2026-05-01T10:02:07.97Z</time></trkpt><trkpt lat="44.4475584" lon="8.4083695"><ele>520.4000000000001</ele><time>2026-05-01T10:02:08.969Z</time></trkpt><trkpt lat="44.4475798" lon="8.4082126"><ele>519.5999999999999</ele><time>2026-05-01T10:02:09.969Z</time></trkpt><trkpt lat="44.4475999" lon="8.4080595"><ele>518.8</ele><time>2026-05-01T10:02:10.969Z</time></trkpt><trkpt lat="44.4476163" lon="8.4079034"><ele>518.0</ele><time>2026-05-01T10:02:11.97Z</time></trkpt><trkpt lat="44.4476215" lon="8.4077449"><ele>517.0</ele><time>2026-05-01T10:02:12.969Z</time></trkpt><trkpt lat="44.4476182" lon="8.4075965"><ele>516.0</ele><time>2026-05-01T10:02:13.97Z</time></trkpt><trkpt lat="44.4476087" lon="8.4074497"><ele>515.0</ele><time>2026-05-01T10:02:14.969Z</time></trkpt><trkpt lat="44.4475941" lon="8.4072938"><ele>514.0</ele><time>2026-05-01T10:02:15.969Z</time></trkpt><trkpt lat="44.447585" lon="8.4071284"><ele>513.0</ele><time>2026-05-01T10:02:16.969Z</time></trkpt><trkpt lat="44.4475767" lon="8.4069423"><ele>511.5</ele><time>2026-05-01T10:02:17.969Z</time></trkpt><trkpt lat="44.4475709" lon="8.4067552"><ele>510.0</ele><time>2026-05-01T10:02:18.969Z</time></trkpt><trkpt lat="44.4475665" lon="8.4065559"><ele>508.5</ele><time>2026-05-01T10:02:19.969Z</time></trkpt><trkpt lat="44.4475438" lon="8.406351"><ele>507.0</ele><time>2026-05-01T10:02:20.969Z</time></trkpt><trkpt lat="44.4475247" lon="8.406146"><ele>505.5</ele><time>2026-05-01T10:02:21.969Z</time></trkpt><trkpt lat="44.4475035" lon="8.4059501"><ele>504.0</ele><time>2026-05-01T10:02:22.969Z</time></trkpt><trkpt lat="44.4474779" lon="8.4057601"><ele>502.5</ele><time>2026-05-01T10:02:23.969Z</time></trkpt><trkpt lat="44.4474585" lon="8.405566"><ele>501.0</ele><time>2026-05-01T10:02:24.969Z</time></trkpt><trkpt lat="44.447445" lon="8.4053671"><ele>499.0</ele><time>2026-05-01T10:02:25.969Z</time></trkpt><trkpt lat="44.4474309" lon="8.4051683"><ele>497.0</ele><time>2026-05-01T10:02:26.969Z</time></trkpt><trkpt lat="44.4474209" lon="8.4049731"><ele>495.0</ele><time>2026-05-01T10:02:27.97Z</time></trkpt><trkpt lat="44.4474108" lon="8.4047729"><ele>493.0</ele><time>2026-05-01T10:02:28.969Z</time></trkpt><trkpt lat="44.447399" lon="8.4045629"><ele>491.5</ele><time>2026-05-01T10:02:29.969Z</time></trkpt><trkpt lat="44.4473938" lon="8.4043547"><ele>490.0</ele><time>2026-05-01T10:02:30.969Z</time></trkpt><trkpt lat="44.4473953" lon="8.4041439"><ele>488.5</ele><time>2026-05-01T10:02:31.969Z</time></trkpt><trkpt lat="44.4473953" lon="8.4039461"><ele>487.0</ele><time>2026-05-01T10:02:32.969Z</time></trkpt><trkpt lat="44.4474001" lon="8.403752"><ele>485.75</ele><time>2026-05-01T10:02:33.969Z</time></trkpt><trkpt lat="44.4473967" lon="8.4035578"><ele>484.5</ele><time>2026-05-01T10:02:34.969Z</time></trkpt><trkpt lat="44.4473856" lon="8.4033725"><ele>483.25</ele><time>2026-05-01T10:02:35.969Z</time></trkpt><trkpt lat="44.4473648" lon="8.4031945"><ele>482.0</ele><time>2026-05-01T10:02:36.97Z</time></trkpt><trkpt lat="44.4473479" lon="8.4030276"><ele>482.75</ele><time>2026-05-01T10:02:37.97Z</time></trkpt><trkpt lat="44.4473244" lon="8.4028584"><ele>483.5</ele><time>2026-05-01T10:02:38.969Z</time></trkpt><trkpt lat="44.4472994" lon="8.4026843"><ele>484.25</ele><time>2026-05-01T10:02:39.969Z</time></trkpt><trkpt lat="44.44727" lon="8.4025114"><ele>485.0</ele><time>2026-05-01T10:02:40.969Z</time></trkpt><trkpt lat="44.447229" lon="8.4023477"><ele>485.0</ele><time>2026-05-01T10:02:41.969Z</time></trkpt><trkpt lat="44.4471839" lon="8.402182"><ele>485.0</ele><time>2026-05-01T10:02:42.969Z</time></trkpt><trkpt lat="44.4471381" lon="8.4020259"><ele>485.0</ele><time>2026-05-01T10:02:43.969Z</time></trkpt><trkpt lat="44.4470951" lon="8.4018878"><ele>485.0</ele><time>2026-05-01T10:02:44.969Z</time></trkpt><trkpt lat="44.4470496" lon="8.401762"><ele>483.2</ele><time>2026-05-01T10:02:45.97Z</time></trkpt><trkpt lat="44.4470099" lon="8.4016449"><ele>481.4</ele><time>2026-05-01T10:02:46.969Z</time></trkpt><trkpt lat="44.4469782" lon="8.4015303"><ele>479.6</ele><time>2026-05-01T10:02:47.969Z</time></trkpt><trkpt lat="44.4469565" lon="8.4014056"><ele>477.8</ele><time>2026-05-01T10:02:48.969Z</time></trkpt><trkpt lat="44.4469446" lon="8.4012738"><ele>476.0</ele><time>2026-05-01T10:02:49.969Z</time></trkpt><trkpt lat="44.4469436" lon="8.4011355"><ele>475.6</ele><time>2026-05-01T10:02:50.969Z</time></trkpt><trkpt lat="44.4469476" lon="8.4009971"><ele>475.20000000000005</ele><time>2026-05-01T10:02:51.969Z</time></trkpt><trkpt lat="44.4469592" lon="8.4008626"><ele>474.79999999999995</ele><time>2026-05-01T10:02:52.969Z</time></trkpt><trkpt lat="44.4469661" lon="8.4007371"><ele>474.4</ele><time>2026-05-01T10:02:53.969Z</time></trkpt><trkpt lat="44.446967" lon="8.4006212"><ele>474.0</ele><time>2026-05-01T10:02:54.969Z</time></trkpt><trkpt lat="44.4469689" lon="8.4005025"><ele>475.0</ele><time>2026-05-01T10:02:55.969Z</time></trkpt><trkpt lat="44.4469813" lon="8.4003788"><ele>476.0</ele><time>2026-05-01T10:02:56.969Z</time></trkpt><trkpt lat="44.4469982" lon="8.4002506"><ele>477.0</ele><time>2026-05-01T10:02:57.969Z</time></trkpt><trkpt lat="44.4470223" lon="8.4001236"><ele>478.0</ele><time>2026-05-01T10:02:58.969Z</time></trkpt><trkpt lat="44.4470561" lon="8.4000025"><ele>479.0</ele><time>2026-05-01T10:02:59.97Z</time></trkpt><trkpt lat="44.447094" lon="8.3998933"><ele>478.6</ele><time>2026-05-01T10:03:00.969Z</time></trkpt><trkpt lat="44.4471481" lon="8.399795"><ele>478.2</ele><time>2026-05-01T10:03:01.969Z</time></trkpt><trkpt lat="44.4471952" lon="8.3996958"><ele>477.80000000000007</ele><time>2026-05-01T10:03:02.969Z</time></trkpt><trkpt lat="44.4472287" lon="8.3995726"><ele>477.40000000000003</ele><time>2026-05-01T10:03:03.969Z</time></trkpt><trkpt lat="44.4472508" lon="8.3994346"><ele>477.0</ele><time>2026-05-01T10:03:04.969Z</time></trkpt><trkpt lat="44.4472725" lon="8.3992853"><ele>475.0</ele><time>2026-05-01T10:03:05.97Z</time></trkpt><trkpt lat="44.4472961" lon="8.3991333"><ele>473.0</ele><time>2026-05-01T10:03:06.969Z</time></trkpt><trkpt lat="44.4473247" lon="8.3989651"><ele>471.0</ele><time>2026-05-01T10:03:07.969Z</time></trkpt><trkpt lat="44.4473641" lon="8.3987914"><ele>469.0</ele><time>2026-05-01T10:03:08.969Z</time></trkpt><trkpt lat="44.4474053" lon="8.3986201"><ele>468.5</ele><time>2026-05-01T10:03:09.969Z</time></trkpt><trkpt lat="44.4474439" lon="8.3984525"><ele>468.0</ele><time>2026-05-01T10:03:10.969Z</time></trkpt><trkpt lat="44.4474894" lon="8.3982821"><ele>467.5</ele><time>2026-05-01T10:03:11.97Z</time></trkpt><trkpt lat="44.4475246" lon="8.3981201"><ele>467.0</ele><time>2026-05-01T10:03:12.969Z</time></trkpt><trkpt lat="44.4475468" lon="8.3979631"><ele>466.40000000000003</ele><time>2026-05-01T10:03:13.97Z</time></trkpt><trkpt lat="44.4475552" lon="8.3978156"><ele>465.80000000000007</ele><time>2026-05-01T10:03:14.969Z</time></trkpt><trkpt lat="44.4475438" lon="8.3976729"><ele>465.2</ele><time>2026-05-01T10:03:15.969Z</time></trkpt><trkpt lat="44.4475183" lon="8.3975265"><ele>464.6</ele><time>2026-05-01T10:03:16.97Z</time></trkpt><trkpt lat="44.4474907" lon="8.3973753"><ele>464.0</ele><time>2026-05-01T10:03:17.969Z</time></trkpt><trkpt lat="44.4474801" lon="8.3972172"><ele>464.0</ele><time>2026-05-01T10:03:18.969Z</time></trkpt><trkpt lat="44.4474925" lon="8.3970612"><ele>464.0</ele><time>2026-05-01T10:03:19.97Z</time></trkpt><trkpt lat="44.4475274" lon="8.3969159"><ele>464.0</ele><time>2026-05-01T10:03:20.97Z</time></trkpt><trkpt lat="44.4475742" lon="8.3967835"><ele>464.0</ele><time>2026-05-01T10:03:21.969Z</time></trkpt><trkpt lat="44.4476218" lon="8.3966416"><ele>464.0</ele><time>2026-05-01T10:03:22.97Z</time></trkpt><trkpt lat="44.4476443" lon="8.3965032"><ele>464.0</ele><time>2026-05-01T10:03:23.969Z</time></trkpt><trkpt lat="44.4476529" lon="8.396366"><ele>464.0</ele><time>2026-05-01T10:03:24.97Z</time></trkpt><trkpt lat="44.4476544" lon="8.3962314"><ele>464.0</ele><time>2026-05-01T10:03:25.969Z</time></trkpt><trkpt lat="44.4476556" lon="8.3960915"><ele>464.0</ele><time>2026-05-01T10:03:26.969Z</time></trkpt><trkpt lat="44.4476533" lon="8.3959554"><ele>464.0</ele><time>2026-05-01T10:03:27.97Z</time></trkpt><trkpt lat="44.4476342" lon="8.3958242"><ele>463.4</ele><time>2026-05-01T10:03:28.969Z</time></trkpt><trkpt lat="44.4476128" lon="8.3956943"><ele>462.79999999999995</ele><time>2026-05-01T10:03:29.969Z</time></trkpt><trkpt lat="44.4475897" lon="8.3955622"><ele>462.20000000000005</ele><time>2026-05-01T10:03:30.97Z</time></trkpt><trkpt lat="44.4475632" lon="8.3954351"><ele>461.6</ele><time>2026-05-01T10:03:31.969Z</time></trkpt><trkpt lat="44.4475286" lon="8.3953121"><ele>461.0</ele><time>2026-05-01T10:03:32.969Z</time></trkpt><trkpt lat="44.4474992" lon="8.395199"><ele>460.4</ele><time>2026-05-01T10:03:33.97Z</time></trkpt><trkpt lat="44.4474767" lon="8.3950918"><ele>459.8</ele><time>2026-05-01T10:03:34.969Z</time></trkpt><trkpt lat="44.447459" lon="8.3949889"><ele>459.19999999999993</ele><time>2026-05-01T10:03:35.969Z</time></trkpt><trkpt lat="44.4474411" lon="8.3948944"><ele>458.59999999999997</ele><time>2026-05-01T10:03:36.97Z</time></trkpt><trkpt lat="44.4474344" lon="8.3947354"><ele>458.0</ele><time>2026-05-01T10:03:38.969Z</time></trkpt><trkpt lat="44.4474965" lon="8.3945917"><ele>457.8333333333333</ele><time>2026-05-01T10:03:40.969Z</time></trkpt><trkpt lat="44.4475496" lon="8.3945329"><ele>457.66666666666663</ele><time>2026-05-01T10:03:41.969Z</time></trkpt><trkpt lat="44.4476194" lon="8.3944845"><ele>457.5</ele><time>2026-05-01T10:03:42.969Z</time></trkpt><trkpt lat="44.447695" lon="8.3944473"><ele>457.33333333333337</ele><time>2026-05-01T10:03:43.969Z</time></trkpt><trkpt lat="44.447771" lon="8.3944134"><ele>457.1666666666667</ele><time>2026-05-01T10:03:44.969Z</time></trkpt><trkpt lat="44.4478505" lon="8.3943901"><ele>457.0</ele><time>2026-05-01T10:03:45.969Z</time></trkpt><trkpt lat="44.4479269" lon="8.3943645"><ele>456.57142857142867</ele><time>2026-05-01T10:03:46.97Z</time></trkpt><trkpt lat="44.4480056" lon="8.3943368"><ele>456.14285714285717</ele><time>2026-05-01T10:03:47.97Z</time></trkpt><trkpt lat="44.4480836" lon="8.3943167"><ele>455.7142857142858</ele><time>2026-05-01T10:03:48.969Z</time></trkpt><trkpt lat="44.44816" lon="8.3942993"><ele>455.28571428571433</ele><time>2026-05-01T10:03:49.97Z</time></trkpt><trkpt lat="44.4482294" lon="8.3942851"><ele>454.8571428571429</ele><time>2026-05-01T10:03:50.969Z</time></trkpt><trkpt lat="44.4482927" lon="8.394269"><ele>454.42857142857144</ele><time>2026-05-01T10:03:51.97Z</time></trkpt><trkpt lat="44.4483604" lon="8.3942815"><ele>454.0</ele><time>2026-05-01T10:03:52.97Z</time></trkpt><trkpt lat="44.4484256" lon="8.3942824"><ele>454.00000000000006</ele><time>2026-05-01T10:03:53.969Z</time></trkpt><trkpt lat="44.4484892" lon="8.3942537"><ele>454.0</ele><time>2026-05-01T10:03:54.969Z</time></trkpt><trkpt lat="44.4485723" lon="8.3942069"><ele>454.0</ele><time>2026-05-01T10:03:55.969Z</time></trkpt><trkpt lat="44.4486519" lon="8.3941571"><ele>454.0</ele><time>2026-05-01T10:03:56.969Z</time></trkpt><trkpt lat="44.4487327" lon="8.3941069"><ele>454.00000000000006</ele><time>2026-05-01T10:03:57.969Z</time></trkpt><trkpt lat="44.4488146" lon="8.3940567"><ele>454.0</ele><time>2026-05-01T10:03:58.969Z</time></trkpt><trkpt lat="44.448899" lon="8.3940086"><ele>454.00000000000006</ele><time>2026-05-01T10:03:59.969Z</time></trkpt><trkpt lat="44.4489751" lon="8.3939608"><ele>454.0</ele><time>2026-05-01T10:04:00.969Z</time></trkpt><trkpt lat="44.4490495" lon="8.3939158"><ele>454.0</ele><time>2026-05-01T10:04:01.969Z</time></trkpt><trkpt lat="44.4491158" lon="8.3938767"><ele>454.0</ele><time>2026-05-01T10:04:02.969Z</time></trkpt><trkpt lat="44.4491811" lon="8.3938391"><ele>454.00000000000006</ele><time>2026-05-01T10:04:03.97Z</time></trkpt><trkpt lat="44.4492414" lon="8.3938029"><ele>454.0</ele><time>2026-05-01T10:04:04.97Z</time></trkpt><trkpt lat="44.4493461" lon="8.3937336"><ele>454.0</ele><time>2026-05-01T10:04:06.97Z</time></trkpt><trkpt lat="44.4494689" lon="8.3936517"><ele>454.0</ele><time>2026-05-01T10:04:08.969Z</time></trkpt><trkpt lat="44.4495442" lon="8.3935934"><ele>454.0</ele><time>2026-05-01T10:04:09.97Z</time></trkpt><trkpt lat="44.4496265" lon="8.3935502"><ele>454.0</ele><time>2026-05-01T10:04:10.97Z</time></trkpt><trkpt lat="44.4497013" lon="8.393511"><ele>454.0</ele><time>2026-05-01T10:04:11.969Z</time></trkpt><trkpt lat="44.4497727" lon="8.3934747"><ele>453.6</ele><time>2026-05-01T10:04:12.969Z</time></trkpt><trkpt lat="44.4498587" lon="8.3934477"><ele>453.2</ele><time>2026-05-01T10:04:13.97Z</time></trkpt><trkpt lat="44.4499559" lon="8.3934385"><ele>452.80000000000007</ele><time>2026-05-01T10:04:14.969Z</time></trkpt><trkpt lat="44.450066" lon="8.3934374"><ele>452.40000000000003</ele><time>2026-05-01T10:04:15.969Z</time></trkpt><trkpt lat="44.4501923" lon="8.3934303"><ele>452.0</ele><time>2026-05-01T10:04:16.969Z</time></trkpt><trkpt lat="44.4503179" lon="8.3934201"><ele>452.0</ele><time>2026-05-01T10:04:17.969Z</time></trkpt><trkpt lat="44.4504446" lon="8.3934078"><ele>452.0</ele><time>2026-05-01T10:04:18.97Z</time></trkpt><trkpt lat="44.4505734" lon="8.3933876"><ele>452.0</ele><time>2026-05-01T10:04:19.97Z</time></trkpt><trkpt lat="44.4506986" lon="8.3933717"><ele>452.0</ele><time>2026-05-01T10:04:20.969Z</time></trkpt><trkpt lat="44.4508286" lon="8.393357"><ele>451.75</ele><time>2026-05-01T10:04:21.97Z</time></trkpt><trkpt lat="44.4509624" lon="8.3933468"><ele>451.5</ele><time>2026-05-01T10:04:22.969Z</time></trkpt><trkpt lat="44.4510857" lon="8.3933648"><ele>451.25</ele><time>2026-05-01T10:04:23.97Z</time></trkpt><trkpt lat="44.4512074" lon="8.3934147"><ele>451.0</ele><time>2026-05-01T10:04:24.969Z</time></trkpt><trkpt lat="44.4513144" lon="8.3934766"><ele>450.8</ele><time>2026-05-01T10:04:25.969Z</time></trkpt><trkpt lat="44.4514223" lon="8.3935263"><ele>450.6</ele><time>2026-05-01T10:04:26.969Z</time></trkpt><trkpt lat="44.4515211" lon="8.3935366"><ele>450.4</ele><time>2026-05-01T10:04:27.969Z</time></trkpt><trkpt lat="44.4516176" lon="8.3935051"><ele>450.2</ele><time>2026-05-01T10:04:28.969Z</time></trkpt><trkpt lat="44.451715" lon="8.3934346"><ele>450.0</ele><time>2026-05-01T10:04:29.969Z</time></trkpt><trkpt lat="44.4518113" lon="8.3933331"><ele>450.0</ele><time>2026-05-01T10:04:30.97Z</time></trkpt><trkpt lat="44.4519064" lon="8.3932219"><ele>450.0</ele><time>2026-05-01T10:04:31.97Z</time></trkpt><trkpt lat="44.4520003" lon="8.3931117"><ele>450.0</ele><time>2026-05-01T10:04:32.969Z</time></trkpt><trkpt lat="44.4520951" lon="8.3930099"><ele>450.0</ele><time>2026-05-01T10:04:33.969Z</time></trkpt><trkpt lat="44.4521944" lon="8.3929362"><ele>450.0</ele><time>2026-05-01T10:04:34.969Z</time></trkpt><trkpt lat="44.4523022" lon="8.3928741"><ele>450.0</ele><time>2026-05-01T10:04:35.97Z</time></trkpt><trkpt lat="44.4524173" lon="8.3928212"><ele>450.0</ele><time>2026-05-01T10:04:36.97Z</time></trkpt><trkpt lat="44.4525386" lon="8.3927677"><ele>450.0</ele><time>2026-05-01T10:04:37.97Z</time></trkpt><trkpt lat="44.4526728" lon="8.3927315"><ele>450.0</ele><time>2026-05-01T10:04:38.969Z</time></trkpt><trkpt lat="44.4528078" lon="8.3927057"><ele>450.0</ele><time>2026-05-01T10:04:39.969Z</time></trkpt><trkpt lat="44.4529278" lon="8.3926688"><ele>450.0</ele><time>2026-05-01T10:04:40.969Z</time></trkpt><trkpt lat="44.4530447" lon="8.3926063"><ele>450.0</ele><time>2026-05-01T10:04:41.97Z</time></trkpt><trkpt lat="44.4531595" lon="8.3925222"><ele>450.25</ele><time>2026-05-01T10:04:42.969Z</time></trkpt><trkpt lat="44.4532636" lon="8.3924101"><ele>450.5</ele><time>2026-05-01T10:04:43.969Z</time></trkpt><trkpt lat="44.4533537" lon="8.3922927"><ele>450.75</ele><time>2026-05-01T10:04:44.969Z</time></trkpt><trkpt lat="44.4534489" lon="8.3921717"><ele>451.0</ele><time>2026-05-01T10:04:45.97Z</time></trkpt><trkpt lat="44.4535497" lon="8.392044"><ele>451.25</ele><time>2026-05-01T10:04:46.969Z</time></trkpt><trkpt lat="44.453651" lon="8.3919197"><ele>451.5</ele><time>2026-05-01T10:04:47.969Z</time></trkpt><trkpt lat="44.453754" lon="8.3917908"><ele>451.75</ele><time>2026-05-01T10:04:48.97Z</time></trkpt><trkpt lat="44.453862" lon="8.3916703"><ele>452.0</ele><time>2026-05-01T10:04:49.968Z</time></trkpt><trkpt lat="44.4539791" lon="8.3915579"><ele>452.75</ele><time>2026-05-01T10:04:50.969Z</time></trkpt><trkpt lat="44.4541073" lon="8.3914695"><ele>453.5</ele><time>2026-05-01T10:04:51.969Z</time></trkpt><trkpt lat="44.4542397" lon="8.3913988"><ele>454.25</ele><time>2026-05-01T10:04:52.97Z</time></trkpt><trkpt lat="44.4543782" lon="8.3913468"><ele>455.0</ele><time>2026-05-01T10:04:53.969Z</time></trkpt><trkpt lat="44.4545177" lon="8.3913124"><ele>453.0</ele><time>2026-05-01T10:04:54.97Z</time></trkpt><trkpt lat="44.4546721" lon="8.3912762"><ele>451.0</ele><time>2026-05-01T10:04:55.97Z</time></trkpt><trkpt lat="44.4548293" lon="8.3912415"><ele>449.0</ele><time>2026-05-01T10:04:56.97Z</time></trkpt><trkpt lat="44.4549773" lon="8.3911947"><ele>449.0</ele><time>2026-05-01T10:04:57.969Z</time></trkpt><trkpt lat="44.4551309" lon="8.3911615"><ele>449.0</ele><time>2026-05-01T10:04:58.969Z</time></trkpt><trkpt lat="44.4552768" lon="8.3911173"><ele>449.0</ele><time>2026-05-01T10:04:59.97Z</time></trkpt><trkpt lat="44.4554183" lon="8.3910665"><ele>448.66666666666663</ele><time>2026-05-01T10:05:00.969Z</time></trkpt><trkpt lat="44.4555634" lon="8.3910144"><ele>448.33333333333337</ele><time>2026-05-01T10:05:01.969Z</time></trkpt><trkpt lat="44.4557157" lon="8.3909622"><ele>448.0</ele><time>2026-05-01T10:05:02.969Z</time></trkpt><trkpt lat="44.4558631" lon="8.3908993"><ele>448.0</ele><time>2026-05-01T10:05:03.97Z</time></trkpt><trkpt lat="44.4560102" lon="8.3908161"><ele>448.0</ele><time>2026-05-01T10:05:04.969Z</time></trkpt><trkpt lat="44.4561541" lon="8.390717"><ele>448.0</ele><time>2026-05-01T10:05:05.97Z</time></trkpt><trkpt lat="44.4562957" lon="8.3906097"><ele>447.6666666666667</ele><time>2026-05-01T10:05:06.97Z</time></trkpt><trkpt lat="44.4564307" lon="8.3905097"><ele>447.33333333333337</ele><time>2026-05-01T10:05:07.969Z</time></trkpt><trkpt lat="44.4565611" lon="8.3904089"><ele>447.0</ele><time>2026-05-01T10:05:08.97Z</time></trkpt><trkpt lat="44.4566889" lon="8.3903032"><ele>447.0</ele><time>2026-05-01T10:05:09.97Z</time></trkpt><trkpt lat="44.4568105" lon="8.3901904"><ele>447.0</ele><time>2026-05-01T10:05:10.969Z</time></trkpt><trkpt lat="44.4569207" lon="8.3900614"><ele>447.0</ele><time>2026-05-01T10:05:11.97Z</time></trkpt><trkpt lat="44.4570309" lon="8.3899281"><ele>447.0</ele><time>2026-05-01T10:05:12.969Z</time></trkpt><trkpt lat="44.457135" lon="8.3897859"><ele>447.5</ele><time>2026-05-01T10:05:13.969Z</time></trkpt><trkpt lat="44.4572249" lon="8.3896304"><ele>448.0</ele><time>2026-05-01T10:05:14.969Z</time></trkpt><trkpt lat="44.4572976" lon="8.3894594"><ele>448.5</ele><time>2026-05-01T10:05:15.969Z</time></trkpt><trkpt lat="44.4573569" lon="8.3892719"><ele>449.0</ele><time>2026-05-01T10:05:16.97Z</time></trkpt><trkpt lat="44.457406" lon="8.389075"><ele>449.0</ele><time>2026-05-01T10:05:17.969Z</time></trkpt><trkpt lat="44.4574595" lon="8.3888924"><ele>449.0</ele><time>2026-05-01T10:05:18.969Z</time></trkpt><trkpt lat="44.4575066" lon="8.3887117"><ele>449.0</ele><time>2026-05-01T10:05:19.97Z</time></trkpt><trkpt lat="44.4575703" lon="8.3885443"><ele>449.0</ele><time>2026-05-01T10:05:20.969Z</time></trkpt><trkpt lat="44.4576606" lon="8.3883934"><ele>449.0</ele><time>2026-05-01T10:05:21.969Z</time></trkpt><trkpt lat="44.4577654" lon="8.3882477"><ele>449.0</ele><time>2026-05-01T10:05:22.97Z</time></trkpt><trkpt lat="44.4578949" lon="8.3881305"><ele>449.0</ele><time>2026-05-01T10:05:23.969Z</time></trkpt><trkpt lat="44.4580344" lon="8.3880348"><ele>446.3333333333333</ele><time>2026-05-01T10:05:24.969Z</time></trkpt><trkpt lat="44.4581743" lon="8.3879637"><ele>443.66666666666663</ele><time>2026-05-01T10:05:25.969Z</time></trkpt><trkpt lat="44.4583252" lon="8.3879332"><ele>441.0</ele><time>2026-05-01T10:05:26.969Z</time></trkpt><trkpt lat="44.458475" lon="8.3879167"><ele>441.0</ele><time>2026-05-01T10:05:27.969Z</time></trkpt><trkpt lat="44.4586216" lon="8.3878992"><ele>441.0</ele><time>2026-05-01T10:05:28.97Z</time></trkpt><trkpt lat="44.4587752" lon="8.3879076"><ele>441.0</ele><time>2026-05-01T10:05:29.969Z</time></trkpt><trkpt lat="44.4589277" lon="8.3878914"><ele>440.0</ele><time>2026-05-01T10:05:30.97Z</time></trkpt><trkpt lat="44.4590757" lon="8.3878362"><ele>439.0</ele><time>2026-05-01T10:05:31.969Z</time></trkpt><trkpt lat="44.4592135" lon="8.3877351"><ele>438.0</ele><time>2026-05-01T10:05:32.97Z</time></trkpt><trkpt lat="44.4593441" lon="8.3876029"><ele>438.0</ele><time>2026-05-01T10:05:33.97Z</time></trkpt><trkpt lat="44.4594547" lon="8.3874625"><ele>438.0</ele><time>2026-05-01T10:05:34.969Z</time></trkpt><trkpt lat="44.4595577" lon="8.3872971"><ele>438.0</ele><time>2026-05-01T10:05:35.97Z</time></trkpt><trkpt lat="44.4596318" lon="8.3871203"><ele>443.33333333333337</ele><time>2026-05-01T10:05:36.969Z</time></trkpt><trkpt lat="44.459677" lon="8.3869163"><ele>448.6666666666667</ele><time>2026-05-01T10:05:37.969Z</time></trkpt><trkpt lat="44.4597042" lon="8.3867087"><ele>454.0</ele><time>2026-05-01T10:05:38.97Z</time></trkpt><trkpt lat="44.4597113" lon="8.3864948"><ele>451.33333333333337</ele><time>2026-05-01T10:05:39.97Z</time></trkpt><trkpt lat="44.4597245" lon="8.3862793"><ele>448.66666666666663</ele><time>2026-05-01T10:05:40.969Z</time></trkpt><trkpt lat="44.4597446" lon="8.386061"><ele>446.0</ele><time>2026-05-01T10:05:41.969Z</time></trkpt><trkpt lat="44.4597801" lon="8.3858424"><ele>446.0</ele><time>2026-05-01T10:05:42.97Z</time></trkpt><trkpt lat="44.4598267" lon="8.3856182"><ele>446.0</ele><time>2026-05-01T10:05:43.969Z</time></trkpt><trkpt lat="44.45988" lon="8.3854096"><ele>446.0</ele><time>2026-05-01T10:05:44.969Z</time></trkpt><trkpt lat="44.4599406" lon="8.3852103"><ele>442.66666666666663</ele><time>2026-05-01T10:05:45.969Z</time></trkpt><trkpt lat="44.4600133" lon="8.3850188"><ele>439.33333333333337</ele><time>2026-05-01T10:05:46.969Z</time></trkpt><trkpt lat="44.4600894" lon="8.3848291"><ele>436.0</ele><time>2026-05-01T10:05:47.969Z</time></trkpt><trkpt lat="44.460172" lon="8.3846434"><ele>434.0</ele><time>2026-05-01T10:05:48.969Z</time></trkpt><trkpt lat="44.4602583" lon="8.3844599"><ele>432.0</ele><time>2026-05-01T10:05:49.97Z</time></trkpt><trkpt lat="44.4603395" lon="8.384276"><ele>430.0</ele><time>2026-05-01T10:05:50.969Z</time></trkpt><trkpt lat="44.4604189" lon="8.384093"><ele>431.0</ele><time>2026-05-01T10:05:51.969Z</time></trkpt><trkpt lat="44.4604856" lon="8.3838992"><ele>432.0</ele><time>2026-05-01T10:05:52.97Z</time></trkpt><trkpt lat="44.4605509" lon="8.3837058"><ele>433.0</ele><time>2026-05-01T10:05:53.969Z</time></trkpt><trkpt lat="44.4606141" lon="8.3834914"><ele>433.0</ele><time>2026-05-01T10:05:54.969Z</time></trkpt><trkpt lat="44.4606855" lon="8.3832895"><ele>433.0</ele><time>2026-05-01T10:05:55.969Z</time></trkpt><trkpt lat="44.4607987" lon="8.3831222"><ele>433.0</ele><time>2026-05-01T10:05:56.969Z</time></trkpt><trkpt lat="44.4608797" lon="8.3829441"><ele>431.0</ele><time>2026-05-01T10:05:57.97Z</time></trkpt><trkpt lat="44.4609441" lon="8.3827503"><ele>429.0</ele><time>2026-05-01T10:05:58.969Z</time></trkpt><trkpt lat="44.460991" lon="8.3825473"><ele>427.0</ele><time>2026-05-01T10:05:59.969Z</time></trkpt><trkpt lat="44.4610253" lon="8.3823337"><ele>426.0</ele><time>2026-05-01T10:06:00.969Z</time></trkpt><trkpt lat="44.4610384" lon="8.3821097"><ele>425.0</ele><time>2026-05-01T10:06:01.969Z</time></trkpt><trkpt lat="44.4610316" lon="8.3818886"><ele>424.0</ele><time>2026-05-01T10:06:02.969Z</time></trkpt><trkpt lat="44.4610173" lon="8.3816668"><ele>424.0</ele><time>2026-05-01T10:06:03.969Z</time></trkpt><trkpt lat="44.4609927" lon="8.3814436"><ele>424.0</ele><time>2026-05-01T10:06:04.969Z</time></trkpt><trkpt lat="44.4609622" lon="8.3812205"><ele>424.0</ele><time>2026-05-01T10:06:05.97Z</time></trkpt><trkpt lat="44.4609304" lon="8.3809958"><ele>425.33333333333337</ele><time>2026-05-01T10:06:06.97Z</time></trkpt><trkpt lat="44.460895" lon="8.3807768"><ele>426.66666666666663</ele><time>2026-05-01T10:06:07.969Z</time></trkpt><trkpt lat="44.4608594" lon="8.3805697"><ele>428.0</ele><time>2026-05-01T10:06:08.969Z</time></trkpt><trkpt lat="44.4608187" lon="8.380365"><ele>430.66666666666663</ele><time>2026-05-01T10:06:09.97Z</time></trkpt><trkpt lat="44.4607634" lon="8.3801685"><ele>433.33333333333337</ele><time>2026-05-01T10:06:10.97Z</time></trkpt><trkpt lat="44.4606933" lon="8.3799689"><ele>436.0</ele><time>2026-05-01T10:06:11.969Z</time></trkpt><trkpt lat="44.4606077" lon="8.3797714"><ele>432.33333333333337</ele><time>2026-05-01T10:06:12.969Z</time></trkpt><trkpt lat="44.4605109" lon="8.3795798"><ele>428.66666666666663</ele><time>2026-05-01T10:06:13.969Z</time></trkpt><trkpt lat="44.4604064" lon="8.3793945"><ele>425.0</ele><time>2026-05-01T10:06:14.969Z</time></trkpt><trkpt lat="44.4602975" lon="8.3792117"><ele>425.0</ele><time>2026-05-01T10:06:15.969Z</time></trkpt><trkpt lat="44.4601808" lon="8.3790443"><ele>425.0</ele><time>2026-05-01T10:06:16.969Z</time></trkpt><trkpt lat="44.4600691" lon="8.3788791"><ele>425.0</ele><time>2026-05-01T10:06:17.97Z</time></trkpt><trkpt lat="44.4599513" lon="8.3787253"><ele>423.66666666666663</ele><time>2026-05-01T10:06:18.969Z</time></trkpt><trkpt lat="44.4598263" lon="8.3785857"><ele>422.33333333333337</ele><time>2026-05-01T10:06:19.969Z</time></trkpt><trkpt lat="44.4597054" lon="8.378434"><ele>421.0</ele><time>2026-05-01T10:06:20.969Z</time></trkpt><trkpt lat="44.459581" lon="8.3782807"><ele>421.0</ele><time>2026-05-01T10:06:21.969Z</time></trkpt><trkpt lat="44.4594514" lon="8.3781328"><ele>421.0</ele><time>2026-05-01T10:06:22.97Z</time></trkpt><trkpt lat="44.4593231" lon="8.3779825"><ele>421.0</ele><time>2026-05-01T10:06:23.969Z</time></trkpt><trkpt lat="44.4591967" lon="8.3778393"><ele>424.6666666666667</ele><time>2026-05-01T10:06:24.969Z</time></trkpt><trkpt lat="44.4590698" lon="8.3776899"><ele>428.33333333333337</ele><time>2026-05-01T10:06:25.97Z</time></trkpt><trkpt lat="44.4589405" lon="8.3775563"><ele>432.0</ele><time>2026-05-01T10:06:26.969Z</time></trkpt><trkpt lat="44.4588095" lon="8.3774287"><ele>428.66666666666663</ele><time>2026-05-01T10:06:27.969Z</time></trkpt><trkpt lat="44.4586814" lon="8.3772869"><ele>425.3333333333333</ele><time>2026-05-01T10:06:28.969Z</time></trkpt><trkpt lat="44.4585531" lon="8.3771477"><ele>422.0</ele><time>2026-05-01T10:06:29.969Z</time></trkpt><trkpt lat="44.4584267" lon="8.3769974"><ele>422.0</ele><time>2026-05-01T10:06:30.969Z</time></trkpt><trkpt lat="44.4583019" lon="8.376861"><ele>422.0</ele><time>2026-05-01T10:06:31.97Z</time></trkpt><trkpt lat="44.4581757" lon="8.3767206"><ele>422.0</ele><time>2026-05-01T10:06:32.969Z</time></trkpt><trkpt lat="44.4580543" lon="8.376576"><ele>419.66666666666663</ele><time>2026-05-01T10:06:33.97Z</time></trkpt><trkpt lat="44.4579277" lon="8.3764281"><ele>417.33333333333337</ele><time>2026-05-01T10:06:34.97Z</time></trkpt><trkpt lat="44.4578035" lon="8.3762662"><ele>415.0</ele><time>2026-05-01T10:06:35.97Z</time></trkpt><trkpt lat="44.4576849" lon="8.3760965"><ele>415.0</ele><time>2026-05-01T10:06:36.969Z</time></trkpt><trkpt lat="44.4575676" lon="8.3759303"><ele>415.0</ele><time>2026-05-01T10:06:37.97Z</time></trkpt><trkpt lat="44.4574521" lon="8.3757648"><ele>415.0</ele><time>2026-05-01T10:06:38.969Z</time></trkpt><trkpt lat="44.457343" lon="8.375593"><ele>415.33333333333337</ele><time>2026-05-01T10:06:39.97Z</time></trkpt><trkpt lat="44.4572371" lon="8.3754183"><ele>415.66666666666663</ele><time>2026-05-01T10:06:40.969Z</time></trkpt><trkpt lat="44.4571397" lon="8.3752443"><ele>416.0</ele><time>2026-05-01T10:06:41.969Z</time></trkpt><trkpt lat="44.4570459" lon="8.3750687"><ele>415.3333333333333</ele><time>2026-05-01T10:06:42.97Z</time></trkpt><trkpt lat="44.4569736" lon="8.3748786"><ele>414.66666666666663</ele><time>2026-05-01T10:06:43.97Z</time></trkpt><trkpt lat="44.4569203" lon="8.3746729"><ele>414.0</ele><time>2026-05-01T10:06:44.969Z</time></trkpt><trkpt lat="44.4568764" lon="8.3744627"><ele>414.0</ele><time>2026-05-01T10:06:45.969Z</time></trkpt><trkpt lat="44.4568367" lon="8.3742561"><ele>414.0</ele><time>2026-05-01T10:06:46.97Z</time></trkpt><trkpt lat="44.4567946" lon="8.3740606"><ele>414.0</ele><time>2026-05-01T10:06:47.969Z</time></trkpt><trkpt lat="44.4567428" lon="8.373877"><ele>414.0</ele><time>2026-05-01T10:06:48.97Z</time></trkpt><trkpt lat="44.456679" lon="8.3736997"><ele>416.0</ele><time>2026-05-01T10:06:49.97Z</time></trkpt><trkpt lat="44.4566069" lon="8.3735199"><ele>418.0</ele><time>2026-05-01T10:06:50.969Z</time></trkpt><trkpt lat="44.4565366" lon="8.373332"><ele>420.0</ele><time>2026-05-01T10:06:51.97Z</time></trkpt><trkpt lat="44.4564633" lon="8.3731462"><ele>420.0</ele><time>2026-05-01T10:06:52.969Z</time></trkpt><trkpt lat="44.4563912" lon="8.3729541"><ele>420.0</ele><time>2026-05-01T10:06:53.969Z</time></trkpt><trkpt lat="44.456322" lon="8.3727552"><ele>420.0</ele><time>2026-05-01T10:06:54.97Z</time></trkpt><trkpt lat="44.4562567" lon="8.3725474"><ele>416.33333333333337</ele><time>2026-05-01T10:06:55.97Z</time></trkpt><trkpt lat="44.4561969" lon="8.3723386"><ele>412.6666666666667</ele><time>2026-05-01T10:06:56.969Z</time></trkpt><trkpt lat="44.4561544" lon="8.3721135"><ele>409.0</ele><time>2026-05-01T10:06:57.969Z</time></trkpt><trkpt lat="44.4561308" lon="8.3718837"><ele>409.0</ele><time>2026-05-01T10:06:58.969Z</time></trkpt><trkpt lat="44.4561241" lon="8.3716532"><ele>409.0</ele><time>2026-05-01T10:06:59.97Z</time></trkpt><trkpt lat="44.4561289" lon="8.3714211"><ele>409.0</ele><time>2026-05-01T10:07:00.969Z</time></trkpt><trkpt lat="44.4561257" lon="8.3711897"><ele>409.0</ele><time>2026-05-01T10:07:01.969Z</time></trkpt><trkpt lat="44.4561257" lon="8.370956"><ele>409.0</ele><time>2026-05-01T10:07:02.969Z</time></trkpt><trkpt lat="44.4561243" lon="8.3707177"><ele>409.0</ele><time>2026-05-01T10:07:03.969Z</time></trkpt><trkpt lat="44.4561281" lon="8.3704768"><ele>408.33333333333337</ele><time>2026-05-01T10:07:04.969Z</time></trkpt><trkpt lat="44.4561232" lon="8.3702411"><ele>407.66666666666663</ele><time>2026-05-01T10:07:05.969Z</time></trkpt><trkpt lat="44.4561177" lon="8.3700063"><ele>407.0</ele><time>2026-05-01T10:07:06.97Z</time></trkpt><trkpt lat="44.4561137" lon="8.369774"><ele>406.3333333333333</ele><time>2026-05-01T10:07:07.969Z</time></trkpt><trkpt lat="44.4561117" lon="8.3695459"><ele>405.66666666666663</ele><time>2026-05-01T10:07:08.969Z</time></trkpt><trkpt lat="44.4561169" lon="8.3693139"><ele>405.0</ele><time>2026-05-01T10:07:09.969Z</time></trkpt><trkpt lat="44.4561168" lon="8.3690858"><ele>405.0</ele><time>2026-05-01T10:07:10.969Z</time></trkpt><trkpt lat="44.4561166" lon="8.3688554"><ele>405.0</ele><time>2026-05-01T10:07:11.969Z</time></trkpt><trkpt lat="44.4561172" lon="8.3686294"><ele>405.0</ele><time>2026-05-01T10:07:12.969Z</time></trkpt><trkpt lat="44.4561131" lon="8.3684074"><ele>405.0</ele><time>2026-05-01T10:07:13.969Z</time></trkpt><trkpt lat="44.4561044" lon="8.368195"><ele>405.0</ele><time>2026-05-01T10:07:14.969Z</time></trkpt><trkpt lat="44.4560938" lon="8.3680077"><ele>405.0</ele><time>2026-05-01T10:07:15.97Z</time></trkpt><trkpt lat="44.4560793" lon="8.3678436"><ele>405.0</ele><time>2026-05-01T10:07:16.969Z</time></trkpt><trkpt lat="44.4560653" lon="8.367683"><ele>405.25</ele><time>2026-05-01T10:07:17.969Z</time></trkpt><trkpt lat="44.4560453" lon="8.3675094"><ele>405.5</ele><time>2026-05-01T10:07:18.969Z</time></trkpt><trkpt lat="44.4560257" lon="8.3673316"><ele>405.75</ele><time>2026-05-01T10:07:19.969Z</time></trkpt><trkpt lat="44.4560018" lon="8.3671501"><ele>406.0</ele><time>2026-05-01T10:07:20.969Z</time></trkpt><trkpt lat="44.455977" lon="8.3669668"><ele>406.0</ele><time>2026-05-01T10:07:21.969Z</time></trkpt><trkpt lat="44.4559519" lon="8.3667762"><ele>406.0</ele><time>2026-05-01T10:07:22.97Z</time></trkpt><trkpt lat="44.4559272" lon="8.3665784"><ele>406.0</ele><time>2026-05-01T10:07:23.969Z</time></trkpt><trkpt lat="44.4559044" lon="8.366379"><ele>406.0</ele><time>2026-05-01T10:07:24.969Z</time></trkpt><trkpt lat="44.4558836" lon="8.3661738"><ele>405.6666666666667</ele><time>2026-05-01T10:07:25.969Z</time></trkpt><trkpt lat="44.4558651" lon="8.3659673"><ele>405.33333333333337</ele><time>2026-05-01T10:07:26.969Z</time></trkpt><trkpt lat="44.4558351" lon="8.3657525"><ele>405.0</ele><time>2026-05-01T10:07:27.969Z</time></trkpt><trkpt lat="44.4558078" lon="8.3655416"><ele>404.33333333333337</ele><time>2026-05-01T10:07:28.969Z</time></trkpt><trkpt lat="44.4557758" lon="8.3653377"><ele>403.6666666666667</ele><time>2026-05-01T10:07:29.969Z</time></trkpt><trkpt lat="44.4557403" lon="8.3651292"><ele>403.0</ele><time>2026-05-01T10:07:30.969Z</time></trkpt><trkpt lat="44.4557003" lon="8.3649223"><ele>403.0</ele><time>2026-05-01T10:07:31.97Z</time></trkpt><trkpt lat="44.4556572" lon="8.3647155"><ele>403.0</ele><time>2026-05-01T10:07:32.969Z</time></trkpt><trkpt lat="44.4556181" lon="8.3645089"><ele>403.0</ele><time>2026-05-01T10:07:33.97Z</time></trkpt><trkpt lat="44.4555768" lon="8.3642989"><ele>401.6666666666667</ele><time>2026-05-01T10:07:34.97Z</time></trkpt><trkpt lat="44.4555367" lon="8.3640894"><ele>400.33333333333337</ele><time>2026-05-01T10:07:35.97Z</time></trkpt><trkpt lat="44.4554995" lon="8.363882"><ele>399.0</ele><time>2026-05-01T10:07:36.969Z</time></trkpt><trkpt lat="44.4554603" lon="8.3636831"><ele>400.0</ele><time>2026-05-01T10:07:37.969Z</time></trkpt><trkpt lat="44.4554276" lon="8.3634741"><ele>401.0</ele><time>2026-05-01T10:07:38.97Z</time></trkpt><trkpt lat="44.4553904" lon="8.3632644"><ele>402.0</ele><time>2026-05-01T10:07:39.969Z</time></trkpt><trkpt lat="44.4553536" lon="8.3630504"><ele>402.5</ele><time>2026-05-01T10:07:40.969Z</time></trkpt><trkpt lat="44.4553131" lon="8.3628434"><ele>403.0</ele><time>2026-05-01T10:07:41.97Z</time></trkpt><trkpt lat="44.4552748" lon="8.3626514"><ele>403.5</ele><time>2026-05-01T10:07:42.97Z</time></trkpt><trkpt lat="44.4552356" lon="8.362459"><ele>404.0</ele><time>2026-05-01T10:07:43.969Z</time></trkpt><trkpt lat="44.4551977" lon="8.3622709"><ele>403.25</ele><time>2026-05-01T10:07:44.969Z</time></trkpt><trkpt lat="44.4551768" lon="8.3620787"><ele>402.5</ele><time>2026-05-01T10:07:45.969Z</time></trkpt><trkpt lat="44.455185" lon="8.361875"><ele>401.75</ele><time>2026-05-01T10:07:46.969Z</time></trkpt><trkpt lat="44.4552184" lon="8.3616681"><ele>401.0</ele><time>2026-05-01T10:07:47.969Z</time></trkpt><trkpt lat="44.4552654" lon="8.3614653"><ele>401.0</ele><time>2026-05-01T10:07:48.969Z</time></trkpt><trkpt lat="44.4553153" lon="8.361275"><ele>401.0</ele><time>2026-05-01T10:07:49.97Z</time></trkpt><trkpt lat="44.4553682" lon="8.3610807"><ele>401.0</ele><time>2026-05-01T10:07:50.969Z</time></trkpt><trkpt lat="44.4554195" lon="8.360886"><ele>401.0</ele><time>2026-05-01T10:07:51.969Z</time></trkpt><trkpt lat="44.4554686" lon="8.3606886"><ele>400.66666666666663</ele><time>2026-05-01T10:07:52.97Z</time></trkpt><trkpt lat="44.4555195" lon="8.360485"><ele>400.33333333333337</ele><time>2026-05-01T10:07:53.97Z</time></trkpt><trkpt lat="44.4555697" lon="8.3602708"><ele>400.0</ele><time>2026-05-01T10:07:54.969Z</time></trkpt><trkpt lat="44.4556146" lon="8.360058"><ele>400.0</ele><time>2026-05-01T10:07:55.97Z</time></trkpt><trkpt lat="44.4556584" lon="8.359846"><ele>400.0</ele><time>2026-05-01T10:07:56.969Z</time></trkpt><trkpt lat="44.4557045" lon="8.3596385"><ele>400.0</ele><time>2026-05-01T10:07:57.969Z</time></trkpt><trkpt lat="44.4557531" lon="8.3594395"><ele>400.0</ele><time>2026-05-01T10:07:58.969Z</time></trkpt><trkpt lat="44.4557951" lon="8.3592367"><ele>400.0</ele><time>2026-05-01T10:07:59.969Z</time></trkpt><trkpt lat="44.4558391" lon="8.3590389"><ele>400.0</ele><time>2026-05-01T10:08:00.969Z</time></trkpt><trkpt lat="44.4558855" lon="8.3588442"><ele>400.0</ele><time>2026-05-01T10:08:01.97Z</time></trkpt><trkpt lat="44.4559275" lon="8.358649"><ele>400.6666666666667</ele><time>2026-05-01T10:08:02.969Z</time></trkpt><trkpt lat="44.4559728" lon="8.3584455"><ele>401.33333333333337</ele><time>2026-05-01T10:08:03.969Z</time></trkpt><trkpt lat="44.4560216" lon="8.3582405"><ele>402.0</ele><time>2026-05-01T10:08:04.969Z</time></trkpt><trkpt lat="44.4560677" lon="8.3580403"><ele>404.0</ele><time>2026-05-01T10:08:05.969Z</time></trkpt><trkpt lat="44.4561178" lon="8.3578354"><ele>406.0</ele><time>2026-05-01T10:08:06.969Z</time></trkpt><trkpt lat="44.4561656" lon="8.3576299"><ele>408.0</ele><time>2026-05-01T10:08:07.969Z</time></trkpt><trkpt lat="44.4562128" lon="8.3574195"><ele>408.0</ele><time>2026-05-01T10:08:08.969Z</time></trkpt><trkpt lat="44.456266" lon="8.3572119"><ele>408.0</ele><time>2026-05-01T10:08:09.97Z</time></trkpt><trkpt lat="44.4563275" lon="8.3570092"><ele>408.0</ele><time>2026-05-01T10:08:10.97Z</time></trkpt><trkpt lat="44.4563925" lon="8.3568252"><ele>410.0</ele><time>2026-05-01T10:08:11.969Z</time></trkpt><trkpt lat="44.4564651" lon="8.3566459"><ele>412.0</ele><time>2026-05-01T10:08:12.97Z</time></trkpt><trkpt lat="44.4565566" lon="8.3564659"><ele>414.0</ele><time>2026-05-01T10:08:13.969Z</time></trkpt><trkpt lat="44.4566708" lon="8.3562908"><ele>414.0</ele><time>2026-05-01T10:08:14.969Z</time></trkpt><trkpt lat="44.456798" lon="8.3561176"><ele>414.0</ele><time>2026-05-01T10:08:15.969Z</time></trkpt><trkpt lat="44.4569298" lon="8.3559656"><ele>414.0</ele><time>2026-05-01T10:08:16.969Z</time></trkpt><trkpt lat="44.4570634" lon="8.3558213"><ele>410.0</ele><time>2026-05-01T10:08:17.969Z</time></trkpt><trkpt lat="44.457193" lon="8.3556723"><ele>406.0</ele><time>2026-05-01T10:08:18.969Z</time></trkpt><trkpt lat="44.45731" lon="8.3555225"><ele>402.0</ele><time>2026-05-01T10:08:19.969Z</time></trkpt><trkpt lat="44.4574317" lon="8.3553712"><ele>402.0</ele><time>2026-05-01T10:08:20.969Z</time></trkpt><trkpt lat="44.4575464" lon="8.3552305"><ele>402.0</ele><time>2026-05-01T10:08:21.97Z</time></trkpt><trkpt lat="44.4576499" lon="8.3550987"><ele>402.0</ele><time>2026-05-01T10:08:22.969Z</time></trkpt><trkpt lat="44.4577514" lon="8.3549684"><ele>402.0</ele><time>2026-05-01T10:08:23.969Z</time></trkpt><trkpt lat="44.4578354" lon="8.3548451"><ele>402.0</ele><time>2026-05-01T10:08:24.97Z</time></trkpt><trkpt lat="44.4578996" lon="8.354705"><ele>402.0</ele><time>2026-05-01T10:08:25.969Z</time></trkpt><trkpt lat="44.4579385" lon="8.3545314"><ele>402.0</ele><time>2026-05-01T10:08:26.97Z</time></trkpt><trkpt lat="44.4579443" lon="8.3543342"><ele>402.0</ele><time>2026-05-01T10:08:27.969Z</time></trkpt><trkpt lat="44.4579273" lon="8.3541394"><ele>402.25</ele><time>2026-05-01T10:08:28.969Z</time></trkpt><trkpt lat="44.4578907" lon="8.353945"><ele>402.5</ele><time>2026-05-01T10:08:29.97Z</time></trkpt><trkpt lat="44.457845" lon="8.3537538"><ele>402.75</ele><time>2026-05-01T10:08:30.969Z</time></trkpt><trkpt lat="44.4578004" lon="8.3535655"><ele>403.0</ele><time>2026-05-01T10:08:31.969Z</time></trkpt><trkpt lat="44.4577473" lon="8.3533873"><ele>402.5</ele><time>2026-05-01T10:08:32.97Z</time></trkpt><trkpt lat="44.4576866" lon="8.35321"><ele>402.0</ele><time>2026-05-01T10:08:33.97Z</time></trkpt><trkpt lat="44.4576173" lon="8.353032"><ele>401.5</ele><time>2026-05-01T10:08:34.969Z</time></trkpt><trkpt lat="44.4575343" lon="8.3528589"><ele>401.0</ele><time>2026-05-01T10:08:35.969Z</time></trkpt><trkpt lat="44.4574454" lon="8.3526879"><ele>403.0</ele><time>2026-05-01T10:08:36.969Z</time></trkpt><trkpt lat="44.4573541" lon="8.3525108"><ele>405.0</ele><time>2026-05-01T10:08:37.969Z</time></trkpt><trkpt lat="44.4572663" lon="8.3523297"><ele>407.0</ele><time>2026-05-01T10:08:38.969Z</time></trkpt><trkpt lat="44.4571725" lon="8.3521508"><ele>406.0</ele><time>2026-05-01T10:08:39.969Z</time></trkpt><trkpt lat="44.4570781" lon="8.3519839"><ele>405.0</ele><time>2026-05-01T10:08:40.969Z</time></trkpt><trkpt lat="44.4569782" lon="8.3518246"><ele>404.0</ele><time>2026-05-01T10:08:41.969Z</time></trkpt><trkpt lat="44.4568784" lon="8.3516707"><ele>404.0</ele><time>2026-05-01T10:08:42.97Z</time></trkpt><trkpt lat="44.4567859" lon="8.3515061"><ele>404.0</ele><time>2026-05-01T10:08:43.969Z</time></trkpt><trkpt lat="44.4566929" lon="8.3513425"><ele>404.0</ele><time>2026-05-01T10:08:44.969Z</time></trkpt><trkpt lat="44.4565971" lon="8.351176"><ele>406.3333333333333</ele><time>2026-05-01T10:08:45.969Z</time></trkpt><trkpt lat="44.4565045" lon="8.3510094"><ele>408.66666666666663</ele><time>2026-05-01T10:08:46.97Z</time></trkpt><trkpt lat="44.4564137" lon="8.3508463"><ele>411.0</ele><time>2026-05-01T10:08:47.969Z</time></trkpt><trkpt lat="44.4563224" lon="8.3506732"><ele>410.33333333333337</ele><time>2026-05-01T10:08:48.969Z</time></trkpt><trkpt lat="44.4562293" lon="8.3505015"><ele>409.6666666666667</ele><time>2026-05-01T10:08:49.969Z</time></trkpt><trkpt lat="44.4561447" lon="8.3503138"><ele>409.0</ele><time>2026-05-01T10:08:50.969Z</time></trkpt><trkpt lat="44.4560706" lon="8.3501225"><ele>409.0</ele><time>2026-05-01T10:08:51.969Z</time></trkpt><trkpt lat="44.4560092" lon="8.3499232"><ele>409.0</ele><time>2026-05-01T10:08:52.97Z</time></trkpt><trkpt lat="44.4559567" lon="8.3497205"><ele>409.0</ele><time>2026-05-01T10:08:53.97Z</time></trkpt><trkpt lat="44.4559153" lon="8.3495281"><ele>409.75</ele><time>2026-05-01T10:08:54.969Z</time></trkpt><trkpt lat="44.4558802" lon="8.3493585"><ele>410.5</ele><time>2026-05-01T10:08:55.97Z</time></trkpt><trkpt lat="44.4558386" lon="8.3491972"><ele>411.25</ele><time>2026-05-01T10:08:56.969Z</time></trkpt><trkpt lat="44.4558001" lon="8.3490406"><ele>412.0</ele><time>2026-05-01T10:08:57.97Z</time></trkpt><trkpt lat="44.4557732" lon="8.3488809"><ele>412.5</ele><time>2026-05-01T10:08:58.969Z</time></trkpt><trkpt lat="44.4557596" lon="8.3487177"><ele>413.0</ele><time>2026-05-01T10:08:59.969Z</time></trkpt><trkpt lat="44.4557609" lon="8.3485474"><ele>413.5</ele><time>2026-05-01T10:09:00.969Z</time></trkpt><trkpt lat="44.4557769" lon="8.3483712"><ele>414.0</ele><time>2026-05-01T10:09:01.97Z</time></trkpt><trkpt lat="44.4558115" lon="8.3481989"><ele>414.5</ele><time>2026-05-01T10:09:02.969Z</time></trkpt><trkpt lat="44.4558579" lon="8.3480422"><ele>415.0</ele><time>2026-05-01T10:09:03.97Z</time></trkpt><trkpt lat="44.4559299" lon="8.3479116"><ele>415.5</ele><time>2026-05-01T10:09:04.97Z</time></trkpt><trkpt lat="44.4560262" lon="8.3478095"><ele>416.0</ele><time>2026-05-01T10:09:05.969Z</time></trkpt><trkpt lat="44.4561366" lon="8.3477177"><ele>416.0</ele><time>2026-05-01T10:09:06.97Z</time></trkpt><trkpt lat="44.4562588" lon="8.3476281"><ele>416.0</ele><time>2026-05-01T10:09:07.969Z</time></trkpt><trkpt lat="44.4563735" lon="8.347532"><ele>416.0</ele><time>2026-05-01T10:09:08.97Z</time></trkpt><trkpt lat="44.4564953" lon="8.3474383"><ele>416.0</ele><time>2026-05-01T10:09:09.97Z</time></trkpt><trkpt lat="44.4566047" lon="8.347342"><ele>417.4</ele><time>2026-05-01T10:09:10.969Z</time></trkpt><trkpt lat="44.4567069" lon="8.3472529"><ele>418.8</ele><time>2026-05-01T10:09:11.97Z</time></trkpt><trkpt lat="44.4567959" lon="8.3471839"><ele>420.2</ele><time>2026-05-01T10:09:12.969Z</time></trkpt><trkpt lat="44.4568614" lon="8.3471252"><ele>421.59999999999997</ele><time>2026-05-01T10:09:13.969Z</time></trkpt><trkpt lat="44.4569431" lon="8.3470216"><ele>423.0</ele><time>2026-05-01T10:09:15.969Z</time></trkpt><trkpt lat="44.4569379" lon="8.3469312"><ele>423.79999999999995</ele><time>2026-05-01T10:09:17.969Z</time></trkpt><trkpt lat="44.456856" lon="8.3468577"><ele>424.6</ele><time>2026-05-01T10:09:19.969Z</time></trkpt><trkpt lat="44.4567239" lon="8.3468593"><ele>425.40000000000003</ele><time>2026-05-01T10:09:21.97Z</time></trkpt><trkpt lat="44.456645" lon="8.3468691"><ele>426.20000000000005</ele><time>2026-05-01T10:09:22.969Z</time></trkpt><trkpt lat="44.4565584" lon="8.3468811"><ele>427.0</ele><time>2026-05-01T10:09:23.969Z</time></trkpt><trkpt lat="44.4564641" lon="8.3468912"><ele>427.00000000000006</ele><time>2026-05-01T10:09:24.97Z</time></trkpt><trkpt lat="44.4563698" lon="8.3469039"><ele>427.0</ele><time>2026-05-01T10:09:25.969Z</time></trkpt><trkpt lat="44.4562792" lon="8.3469107"><ele>427.0</ele><time>2026-05-01T10:09:26.969Z</time></trkpt><trkpt lat="44.4561938" lon="8.346903"><ele>427.0</ele><time>2026-05-01T10:09:27.969Z</time></trkpt><trkpt lat="44.4561125" lon="8.3468736"><ele>427.00000000000006</ele><time>2026-05-01T10:09:28.969Z</time></trkpt><trkpt lat="44.4560417" lon="8.3468087"><ele>427.0</ele><time>2026-05-01T10:09:29.969Z</time></trkpt><trkpt lat="44.4559907" lon="8.3467187"><ele>426.6</ele><time>2026-05-01T10:09:30.969Z</time></trkpt><trkpt lat="44.4559691" lon="8.3465974"><ele>426.20000000000005</ele><time>2026-05-01T10:09:31.97Z</time></trkpt><trkpt lat="44.4559708" lon="8.3464476"><ele>425.8</ele><time>2026-05-01T10:09:32.97Z</time></trkpt><trkpt lat="44.4559751" lon="8.3462835"><ele>425.4</ele><time>2026-05-01T10:09:33.969Z</time></trkpt><trkpt lat="44.4559783" lon="8.3461247"><ele>425.0</ele><time>2026-05-01T10:09:34.969Z</time></trkpt><trkpt lat="44.4559794" lon="8.3459602"><ele>425.0</ele><time>2026-05-01T10:09:35.969Z</time></trkpt><trkpt lat="44.4559735" lon="8.3457991"><ele>425.0</ele><time>2026-05-01T10:09:36.969Z</time></trkpt><trkpt lat="44.4559733" lon="8.3456466"><ele>425.0</ele><time>2026-05-01T10:09:37.97Z</time></trkpt><trkpt lat="44.455974" lon="8.3455021"><ele>425.0</ele><time>2026-05-01T10:09:38.97Z</time></trkpt><trkpt lat="44.4559839" lon="8.3453672"><ele>425.0</ele><time>2026-05-01T10:09:39.969Z</time></trkpt><trkpt lat="44.4560058" lon="8.3452435"><ele>426.4</ele><time>2026-05-01T10:09:40.97Z</time></trkpt><trkpt lat="44.4560493" lon="8.3451331"><ele>427.8</ele><time>2026-05-01T10:09:41.969Z</time></trkpt><trkpt lat="44.4561181" lon="8.3450216"><ele>429.20000000000005</ele><time>2026-05-01T10:09:42.969Z</time></trkpt><trkpt lat="44.4562036" lon="8.3449292"><ele>430.6</ele><time>2026-05-01T10:09:43.97Z</time></trkpt><trkpt lat="44.4562838" lon="8.3448513"><ele>432.0</ele><time>2026-05-01T10:09:44.969Z</time></trkpt><trkpt lat="44.4563535" lon="8.3447828"><ele>433.6666666666667</ele><time>2026-05-01T10:09:45.969Z</time></trkpt><trkpt lat="44.4564152" lon="8.344717"><ele>435.33333333333337</ele><time>2026-05-01T10:09:46.97Z</time></trkpt><trkpt lat="44.4564518" lon="8.3446399"><ele>437.0</ele><time>2026-05-01T10:09:47.969Z</time></trkpt><trkpt lat="44.4564547" lon="8.3444998"><ele>438.6666666666667</ele><time>2026-05-01T10:09:49.969Z</time></trkpt><trkpt lat="44.4563597" lon="8.3444131"><ele>440.33333333333337</ele><time>2026-05-01T10:09:51.969Z</time></trkpt><trkpt lat="44.4562846" lon="8.3443753"><ele>442.0</ele><time>2026-05-01T10:09:52.969Z</time></trkpt><trkpt lat="44.4561987" lon="8.3443285"><ele>442.0</ele><time>2026-05-01T10:09:53.97Z</time></trkpt><trkpt lat="44.456126" lon="8.3442575"><ele>442.00000000000006</ele><time>2026-05-01T10:09:54.97Z</time></trkpt><trkpt lat="44.4560623" lon="8.3441574"><ele>442.00000000000006</ele><time>2026-05-01T10:09:55.97Z</time></trkpt><trkpt lat="44.4560137" lon="8.3440175"><ele>442.0</ele><time>2026-05-01T10:09:56.969Z</time></trkpt><trkpt lat="44.4559563" lon="8.3438947"><ele>442.0</ele><time>2026-05-01T10:09:57.97Z</time></trkpt><trkpt lat="44.4558841" lon="8.3437886"><ele>442.40000000000003</ele><time>2026-05-01T10:09:58.969Z</time></trkpt><trkpt lat="44.4557958" lon="8.3436944"><ele>442.80000000000007</ele><time>2026-05-01T10:09:59.97Z</time></trkpt><trkpt lat="44.4556971" lon="8.3436292"><ele>443.2</ele><time>2026-05-01T10:10:00.969Z</time></trkpt><trkpt lat="44.4555874" lon="8.3435958"><ele>443.6</ele><time>2026-05-01T10:10:01.97Z</time></trkpt><trkpt lat="44.4554718" lon="8.3435807"><ele>444.0</ele><time>2026-05-01T10:10:02.969Z</time></trkpt><trkpt lat="44.4553547" lon="8.343559"><ele>444.4</ele><time>2026-05-01T10:10:03.969Z</time></trkpt><trkpt lat="44.4552491" lon="8.3435285"><ele>444.79999999999995</ele><time>2026-05-01T10:10:04.969Z</time></trkpt><trkpt lat="44.4551609" lon="8.3434922"><ele>445.20000000000005</ele><time>2026-05-01T10:10:05.97Z</time></trkpt><trkpt lat="44.455066" lon="8.3434491"><ele>445.6</ele><time>2026-05-01T10:10:06.969Z</time></trkpt><trkpt lat="44.4549664" lon="8.3434019"><ele>446.0</ele><time>2026-05-01T10:10:07.97Z</time></trkpt><trkpt lat="44.4548637" lon="8.3433697"><ele>446.0</ele><time>2026-05-01T10:10:08.969Z</time></trkpt><trkpt lat="44.454757" lon="8.3433459"><ele>446.0</ele><time>2026-05-01T10:10:09.969Z</time></trkpt><trkpt lat="44.4546468" lon="8.3433207"><ele>446.0</ele><time>2026-05-01T10:10:10.969Z</time></trkpt><trkpt lat="44.4545395" lon="8.3432727"><ele>446.0</ele><time>2026-05-01T10:10:11.97Z</time></trkpt><trkpt lat="44.4544247" lon="8.3432467"><ele>446.0</ele><time>2026-05-01T10:10:12.97Z</time></trkpt><trkpt lat="44.4543044" lon="8.3432307"><ele>447.20000000000005</ele><time>2026-05-01T10:10:13.969Z</time></trkpt><trkpt lat="44.4541878" lon="8.3432188"><ele>448.40000000000003</ele><time>2026-05-01T10:10:14.97Z</time></trkpt><trkpt lat="44.4540752" lon="8.343193"><ele>449.6</ele><time>2026-05-01T10:10:15.969Z</time></trkpt><trkpt lat="44.4539711" lon="8.3431673"><ele>450.8</ele><time>2026-05-01T10:10:16.969Z</time></trkpt><trkpt lat="44.4538659" lon="8.3431347"><ele>452.0</ele><time>2026-05-01T10:10:17.97Z</time></trkpt><trkpt lat="44.4537599" lon="8.3431012"><ele>451.8</ele><time>2026-05-01T10:10:18.97Z</time></trkpt><trkpt lat="44.4536493" lon="8.3430643"><ele>451.6</ele><time>2026-05-01T10:10:19.97Z</time></trkpt><trkpt lat="44.4535451" lon="8.3430375"><ele>451.40000000000003</ele><time>2026-05-01T10:10:20.97Z</time></trkpt><trkpt lat="44.4534446" lon="8.3429816"><ele>451.20000000000005</ele><time>2026-05-01T10:10:21.97Z</time></trkpt><trkpt lat="44.4533492" lon="8.3429183"><ele>451.0</ele><time>2026-05-01T10:10:22.97Z</time></trkpt><trkpt lat="44.4532577" lon="8.3428432"><ele>451.0</ele><time>2026-05-01T10:10:23.97Z</time></trkpt><trkpt lat="44.453166" lon="8.3427804"><ele>451.0</ele><time>2026-05-01T10:10:24.969Z</time></trkpt><trkpt lat="44.4530783" lon="8.3427296"><ele>451.0</ele><time>2026-05-01T10:10:25.97Z</time></trkpt><trkpt lat="44.4529874" lon="8.3426877"><ele>451.0</ele><time>2026-05-01T10:10:26.97Z</time></trkpt><trkpt lat="44.4529057" lon="8.3426517"><ele>451.0</ele><time>2026-05-01T10:10:27.969Z</time></trkpt><trkpt lat="44.45283" lon="8.3426263"><ele>451.00000000000006</ele><time>2026-05-01T10:10:28.97Z</time></trkpt><trkpt lat="44.4527644" lon="8.3426049"><ele>451.0</ele><time>2026-05-01T10:10:29.97Z</time></trkpt><trkpt lat="44.4526988" lon="8.3425818"><ele>451.0</ele><time>2026-05-01T10:10:30.97Z</time></trkpt><trkpt lat="44.4526361" lon="8.3425608"><ele>451.0</ele><time>2026-05-01T10:10:31.969Z</time></trkpt><trkpt lat="44.452573" lon="8.3425351"><ele>451.00000000000006</ele><time>2026-05-01T10:10:32.969Z</time></trkpt><trkpt lat="44.4524696" lon="8.3424732"><ele>451.0</ele><time>2026-05-01T10:10:34.969Z</time></trkpt><trkpt lat="44.4523593" lon="8.3424195"><ele>451.0</ele><time>2026-05-01T10:10:36.97Z</time></trkpt><trkpt lat="44.4522496" lon="8.3423434"><ele>451.0</ele><time>2026-05-01T10:10:38.969Z</time></trkpt><trkpt lat="44.4521829" lon="8.3422854"><ele>451.0</ele><time>2026-05-01T10:10:39.969Z</time></trkpt><trkpt lat="44.4521094" lon="8.3421982"><ele>451.0</ele><time>2026-05-01T10:10:40.969Z</time></trkpt><trkpt lat="44.452043" lon="8.3420763"><ele>451.0</ele><time>2026-05-01T10:10:41.969Z</time></trkpt><trkpt lat="44.4519887" lon="8.3419337"><ele>449.75</ele><time>2026-05-01T10:10:42.97Z</time></trkpt><trkpt lat="44.4519635" lon="8.3417639"><ele>448.5</ele><time>2026-05-01T10:10:43.969Z</time></trkpt><trkpt lat="44.4519683" lon="8.3415808"><ele>447.25</ele><time>2026-05-01T10:10:44.97Z</time></trkpt><trkpt lat="44.4519938" lon="8.3413974"><ele>446.0</ele><time>2026-05-01T10:10:45.969Z</time></trkpt><trkpt lat="44.4520248" lon="8.3412153"><ele>445.75</ele><time>2026-05-01T10:10:46.969Z</time></trkpt><trkpt lat="44.4520544" lon="8.3410344"><ele>445.5</ele><time>2026-05-01T10:10:47.969Z</time></trkpt><trkpt lat="44.4520805" lon="8.3408455"><ele>445.25</ele><time>2026-05-01T10:10:48.97Z</time></trkpt><trkpt lat="44.4520923" lon="8.3406578"><ele>445.0</ele><time>2026-05-01T10:10:49.97Z</time></trkpt><trkpt lat="44.4520949" lon="8.340475"><ele>444.5</ele><time>2026-05-01T10:10:50.969Z</time></trkpt><trkpt lat="44.4520819" lon="8.3402966"><ele>444.0</ele><time>2026-05-01T10:10:51.97Z</time></trkpt><trkpt lat="44.4520529" lon="8.3401074"><ele>443.5</ele><time>2026-05-01T10:10:52.97Z</time></trkpt><trkpt lat="44.4519979" lon="8.3399273"><ele>443.0</ele><time>2026-05-01T10:10:53.97Z</time></trkpt><trkpt lat="44.4519208" lon="8.3397469"><ele>442.75</ele><time>2026-05-01T10:10:54.969Z</time></trkpt><trkpt lat="44.4518327" lon="8.3395726"><ele>442.5</ele><time>2026-05-01T10:10:55.97Z</time></trkpt><trkpt lat="44.4517375" lon="8.3394182"><ele>442.25</ele><time>2026-05-01T10:10:56.969Z</time></trkpt><trkpt lat="44.4516346" lon="8.3392763"><ele>442.0</ele><time>2026-05-01T10:10:57.969Z</time></trkpt><trkpt lat="44.4515272" lon="8.3391412"><ele>442.0</ele><time>2026-05-01T10:10:58.97Z</time></trkpt><trkpt lat="44.4514201" lon="8.3390003"><ele>442.0</ele><time>2026-05-01T10:10:59.969Z</time></trkpt><trkpt lat="44.4513086" lon="8.3388578"><ele>442.0</ele><time>2026-05-01T10:11:00.969Z</time></trkpt><trkpt lat="44.4512001" lon="8.3387069"><ele>442.6666666666667</ele><time>2026-05-01T10:11:01.969Z</time></trkpt><trkpt lat="44.4510889" lon="8.338555"><ele>443.33333333333337</ele><time>2026-05-01T10:11:02.97Z</time></trkpt><trkpt lat="44.4509835" lon="8.338403"><ele>444.0</ele><time>2026-05-01T10:11:03.969Z</time></trkpt><trkpt lat="44.4508857" lon="8.3382468"><ele>444.0</ele><time>2026-05-01T10:11:04.969Z</time></trkpt><trkpt lat="44.4508083" lon="8.3380697"><ele>444.0</ele><time>2026-05-01T10:11:05.969Z</time></trkpt><trkpt lat="44.4507678" lon="8.3378744"><ele>444.0</ele><time>2026-05-01T10:11:06.969Z</time></trkpt><trkpt lat="44.4507577" lon="8.3376709"><ele>444.0</ele><time>2026-05-01T10:11:07.97Z</time></trkpt><trkpt lat="44.4507574" lon="8.3374558"><ele>443.5</ele><time>2026-05-01T10:11:08.969Z</time></trkpt><trkpt lat="44.450759" lon="8.3372483"><ele>443.0</ele><time>2026-05-01T10:11:09.969Z</time></trkpt><trkpt lat="44.4507559" lon="8.337042"><ele>442.5</ele><time>2026-05-01T10:11:10.97Z</time></trkpt><trkpt lat="44.4507587" lon="8.336845"><ele>442.0</ele><time>2026-05-01T10:11:11.969Z</time></trkpt><trkpt lat="44.4507735" lon="8.336655"><ele>442.0</ele><time>2026-05-01T10:11:12.97Z</time></trkpt><trkpt lat="44.4508083" lon="8.3364778"><ele>442.0</ele><time>2026-05-01T10:11:13.97Z</time></trkpt><trkpt lat="44.4508737" lon="8.3363215"><ele>442.0</ele><time>2026-05-01T10:11:14.969Z</time></trkpt><trkpt lat="44.4509672" lon="8.3361957"><ele>442.0</ele><time>2026-05-01T10:11:15.97Z</time></trkpt><trkpt lat="44.4510846" lon="8.336116"><ele>443.0</ele><time>2026-05-01T10:11:16.969Z</time></trkpt><trkpt lat="44.4512152" lon="8.3360659"><ele>444.0</ele><time>2026-05-01T10:11:17.97Z</time></trkpt><trkpt lat="44.4513393" lon="8.3360106"><ele>445.0</ele><time>2026-05-01T10:11:18.969Z</time></trkpt><trkpt lat="44.4514604" lon="8.3359402"><ele>446.0</ele><time>2026-05-01T10:11:19.969Z</time></trkpt><trkpt lat="44.4515661" lon="8.3358392"><ele>442.5</ele><time>2026-05-01T10:11:20.969Z</time></trkpt><trkpt lat="44.4516426" lon="8.3357015"><ele>439.0</ele><time>2026-05-01T10:11:21.969Z</time></trkpt><trkpt lat="44.4516899" lon="8.3355337"><ele>435.5</ele><time>2026-05-01T10:11:22.97Z</time></trkpt><trkpt lat="44.4517111" lon="8.3353544"><ele>432.0</ele><time>2026-05-01T10:11:23.969Z</time></trkpt><trkpt lat="44.4517283" lon="8.3351565"><ele>432.0</ele><time>2026-05-01T10:11:24.969Z</time></trkpt><trkpt lat="44.451756" lon="8.3349546"><ele>432.0</ele><time>2026-05-01T10:11:25.97Z</time></trkpt><trkpt lat="44.4517888" lon="8.3347501"><ele>432.0</ele><time>2026-05-01T10:11:26.97Z</time></trkpt><trkpt lat="44.4518208" lon="8.3345462"><ele>432.0</ele><time>2026-05-01T10:11:27.969Z</time></trkpt><trkpt lat="44.4518502" lon="8.3343403"><ele>431.33333333333337</ele><time>2026-05-01T10:11:28.969Z</time></trkpt><trkpt lat="44.4518762" lon="8.3341268"><ele>430.6666666666667</ele><time>2026-05-01T10:11:29.969Z</time></trkpt><trkpt lat="44.4519049" lon="8.3339117"><ele>430.0</ele><time>2026-05-01T10:11:30.97Z</time></trkpt><trkpt lat="44.4519328" lon="8.3336983"><ele>429.6666666666667</ele><time>2026-05-01T10:11:31.969Z</time></trkpt><trkpt lat="44.4519589" lon="8.3334771"><ele>429.33333333333337</ele><time>2026-05-01T10:11:32.97Z</time></trkpt><trkpt lat="44.4519782" lon="8.3332526"><ele>429.0</ele><time>2026-05-01T10:11:33.97Z</time></trkpt><trkpt lat="44.4519919" lon="8.3330311"><ele>428.33333333333337</ele><time>2026-05-01T10:11:34.969Z</time></trkpt><trkpt lat="44.4519931" lon="8.3328111"><ele>427.6666666666667</ele><time>2026-05-01T10:11:35.969Z</time></trkpt><trkpt lat="44.4519878" lon="8.3325938"><ele>427.0</ele><time>2026-05-01T10:11:36.969Z</time></trkpt><trkpt lat="44.4519762" lon="8.3323745"><ele>426.6666666666667</ele><time>2026-05-01T10:11:37.97Z</time></trkpt><trkpt lat="44.4519584" lon="8.3321501"><ele>426.33333333333337</ele><time>2026-05-01T10:11:38.97Z</time></trkpt><trkpt lat="44.4519458" lon="8.331922"><ele>426.0</ele><time>2026-05-01T10:11:39.969Z</time></trkpt><trkpt lat="44.4519267" lon="8.3316944"><ele>426.0</ele><time>2026-05-01T10:11:40.969Z</time></trkpt><trkpt lat="44.4519113" lon="8.3314734"><ele>426.0</ele><time>2026-05-01T10:11:41.969Z</time></trkpt><trkpt lat="44.4518975" lon="8.3312587"><ele>426.0</ele><time>2026-05-01T10:11:42.97Z</time></trkpt><trkpt lat="44.4518804" lon="8.3310526"><ele>421.66666666666663</ele><time>2026-05-01T10:11:43.969Z</time></trkpt><trkpt lat="44.4518538" lon="8.3308548"><ele>417.3333333333333</ele><time>2026-05-01T10:11:44.97Z</time></trkpt><trkpt lat="44.4518093" lon="8.3306474"><ele>413.0</ele><time>2026-05-01T10:11:45.969Z</time></trkpt><trkpt lat="44.4517342" lon="8.3304519"><ele>406.66666666666663</ele><time>2026-05-01T10:11:46.969Z</time></trkpt><trkpt lat="44.4516419" lon="8.3302739"><ele>400.33333333333337</ele><time>2026-05-01T10:11:47.97Z</time></trkpt><trkpt lat="44.4515405" lon="8.3300933"><ele>394.0</ele><time>2026-05-01T10:11:48.969Z</time></trkpt><trkpt lat="44.451438" lon="8.329923"><ele>394.0</ele><time>2026-05-01T10:11:49.969Z</time></trkpt><trkpt lat="44.4513553" lon="8.3297288"><ele>394.0</ele><time>2026-05-01T10:11:50.969Z</time></trkpt><trkpt lat="44.451291" lon="8.3295217"><ele>394.0</ele><time>2026-05-01T10:11:51.97Z</time></trkpt><trkpt lat="44.4512431" lon="8.329319"><ele>397.33333333333337</ele><time>2026-05-01T10:11:52.969Z</time></trkpt><trkpt lat="44.4511859" lon="8.3291109"><ele>400.66666666666663</ele><time>2026-05-01T10:11:53.969Z</time></trkpt><trkpt lat="44.4511217" lon="8.328923"><ele>404.0</ele><time>2026-05-01T10:11:54.969Z</time></trkpt><trkpt lat="44.4510334" lon="8.3287654"><ele>397.0</ele><time>2026-05-01T10:11:55.969Z</time></trkpt><trkpt lat="44.450921" lon="8.3286423"><ele>390.0</ele><time>2026-05-01T10:11:56.97Z</time></trkpt><trkpt lat="44.4507986" lon="8.3285532"><ele>383.0</ele><time>2026-05-01T10:11:57.969Z</time></trkpt><trkpt lat="44.4506552" lon="8.328492"><ele>376.0</ele><time>2026-05-01T10:11:58.969Z</time></trkpt><trkpt lat="44.4505021" lon="8.3284588"><ele>376.3333333333333</ele><time>2026-05-01T10:11:59.969Z</time></trkpt><trkpt lat="44.4503592" lon="8.3284452"><ele>376.6666666666667</ele><time>2026-05-01T10:12:00.969Z</time></trkpt><trkpt lat="44.4501905" lon="8.3284399"><ele>377.0</ele><time>2026-05-01T10:12:01.969Z</time></trkpt><trkpt lat="44.4500246" lon="8.3284131"><ele>377.0</ele><time>2026-05-01T10:12:02.97Z</time></trkpt><trkpt lat="44.4498654" lon="8.3283684"><ele>377.0</ele><time>2026-05-01T10:12:03.969Z</time></trkpt><trkpt lat="44.4497228" lon="8.3283269"><ele>377.0</ele><time>2026-05-01T10:12:04.97Z</time></trkpt><trkpt lat="44.4495909" lon="8.3282798"><ele>377.0</ele><time>2026-05-01T10:12:05.969Z</time></trkpt><trkpt lat="44.4494684" lon="8.3282259"><ele>376.0</ele><time>2026-05-01T10:12:06.969Z</time></trkpt><trkpt lat="44.4493432" lon="8.3281959"><ele>375.0</ele><time>2026-05-01T10:12:07.969Z</time></trkpt><trkpt lat="44.4492008" lon="8.3281977"><ele>374.0</ele><time>2026-05-01T10:12:08.969Z</time></trkpt><trkpt lat="44.4490616" lon="8.3282422"><ele>373.0</ele><time>2026-05-01T10:12:09.97Z</time></trkpt><trkpt lat="44.4489179" lon="8.3283032"><ele>369.75</ele><time>2026-05-01T10:12:10.969Z</time></trkpt><trkpt lat="44.4487746" lon="8.3283742"><ele>366.5</ele><time>2026-05-01T10:12:11.969Z</time></trkpt><trkpt lat="44.4486323" lon="8.3284308"><ele>363.25</ele><time>2026-05-01T10:12:12.97Z</time></trkpt><trkpt lat="44.4484872" lon="8.3284779"><ele>360.0</ele><time>2026-05-01T10:12:13.969Z</time></trkpt><trkpt lat="44.4483566" lon="8.3285083"><ele>360.0</ele><time>2026-05-01T10:12:14.969Z</time></trkpt><trkpt lat="44.4482522" lon="8.328529"><ele>360.0</ele><time>2026-05-01T10:12:15.969Z</time></trkpt><trkpt lat="44.44816" lon="8.3285567"><ele>360.0</ele><time>2026-05-01T10:12:16.969Z</time></trkpt><trkpt lat="44.4480775" lon="8.3286028"><ele>360.0</ele><time>2026-05-01T10:12:17.969Z</time></trkpt><trkpt lat="44.4480095" lon="8.3286759"><ele>360.0</ele><time>2026-05-01T10:12:18.97Z</time></trkpt><trkpt lat="44.4479475" lon="8.328773"><ele>358.6</ele><time>2026-05-01T10:12:19.97Z</time></trkpt><trkpt lat="44.4479019" lon="8.3288737"><ele>357.2</ele><time>2026-05-01T10:12:20.969Z</time></trkpt><trkpt lat="44.4478898" lon="8.3289978"><ele>355.79999999999995</ele><time>2026-05-01T10:12:21.969Z</time></trkpt><trkpt lat="44.4478949" lon="8.3291349"><ele>354.4</ele><time>2026-05-01T10:12:22.969Z</time></trkpt><trkpt lat="44.4479124" lon="8.3292731"><ele>353.0</ele><time>2026-05-01T10:12:23.97Z</time></trkpt><trkpt lat="44.4479265" lon="8.3293997"><ele>353.0</ele><time>2026-05-01T10:12:24.97Z</time></trkpt><trkpt lat="44.447931" lon="8.3295024"><ele>353.0</ele><time>2026-05-01T10:12:25.969Z</time></trkpt><trkpt lat="44.4478895" lon="8.329615"><ele>353.0</ele><time>2026-05-01T10:12:27.969Z</time></trkpt><trkpt lat="44.4477841" lon="8.3295577"><ele>353.0</ele><time>2026-05-01T10:12:29.97Z</time></trkpt><trkpt lat="44.4477283" lon="8.3294423"><ele>353.0</ele><time>2026-05-01T10:12:30.969Z</time></trkpt><trkpt lat="44.4476762" lon="8.329267"><ele>353.0</ele><time>2026-05-01T10:12:31.969Z</time></trkpt><trkpt lat="44.4476293" lon="8.3290681"><ele>353.0</ele><time>2026-05-01T10:12:32.97Z</time></trkpt><trkpt lat="44.4475806" lon="8.3288463"><ele>353.0</ele><time>2026-05-01T10:12:33.969Z</time></trkpt><trkpt lat="44.4475255" lon="8.3286441"><ele>351.75</ele><time>2026-05-01T10:12:34.97Z</time></trkpt><trkpt lat="44.4474721" lon="8.3284441"><ele>350.5</ele><time>2026-05-01T10:12:35.97Z</time></trkpt><trkpt lat="44.4474231" lon="8.3282508"><ele>349.25</ele><time>2026-05-01T10:12:36.969Z</time></trkpt><trkpt lat="44.4473734" lon="8.328056"><ele>348.0</ele><time>2026-05-01T10:12:37.969Z</time></trkpt><trkpt lat="44.4473284" lon="8.3278483"><ele>348.0</ele><time>2026-05-01T10:12:38.969Z</time></trkpt><trkpt lat="44.4472789" lon="8.3276473"><ele>348.0</ele><time>2026-05-01T10:12:39.969Z</time></trkpt><trkpt lat="44.4472329" lon="8.3274627"><ele>348.0</ele><time>2026-05-01T10:12:40.969Z</time></trkpt><trkpt lat="44.4471945" lon="8.3272801"><ele>348.0</ele><time>2026-05-01T10:12:41.969Z</time></trkpt><trkpt lat="44.4471633" lon="8.3271101"><ele>349.25</ele><time>2026-05-01T10:12:42.969Z</time></trkpt><trkpt lat="44.4471327" lon="8.3269363"><ele>350.5</ele><time>2026-05-01T10:12:43.97Z</time></trkpt><trkpt lat="44.4471106" lon="8.3267501"><ele>351.75</ele><time>2026-05-01T10:12:44.97Z</time></trkpt><trkpt lat="44.4470885" lon="8.3265619"><ele>353.0</ele><time>2026-05-01T10:12:45.969Z</time></trkpt><trkpt lat="44.4470768" lon="8.3263611"><ele>353.0</ele><time>2026-05-01T10:12:46.97Z</time></trkpt><trkpt lat="44.4470754" lon="8.3261463"><ele>353.0</ele><time>2026-05-01T10:12:47.969Z</time></trkpt><trkpt lat="44.447087" lon="8.3259242"><ele>353.0</ele><time>2026-05-01T10:12:48.969Z</time></trkpt><trkpt lat="44.4471113" lon="8.3257007"><ele>352.25</ele><time>2026-05-01T10:12:49.969Z</time></trkpt><trkpt lat="44.4471158" lon="8.3254957"><ele>351.5</ele><time>2026-05-01T10:12:50.97Z</time></trkpt><trkpt lat="44.4471082" lon="8.3253076"><ele>350.75</ele><time>2026-05-01T10:12:51.969Z</time></trkpt><trkpt lat="44.4471086" lon="8.3251039"><ele>350.0</ele><time>2026-05-01T10:12:52.97Z</time></trkpt><trkpt lat="44.4470894" lon="8.3248958"><ele>347.6666666666667</ele><time>2026-05-01T10:12:53.969Z</time></trkpt><trkpt lat="44.4470551" lon="8.3246843"><ele>345.3333333333333</ele><time>2026-05-01T10:12:54.97Z</time></trkpt><trkpt lat="44.447025" lon="8.3244595"><ele>343.0</ele><time>2026-05-01T10:12:55.97Z</time></trkpt><trkpt lat="44.446994" lon="8.3242225"><ele>343.0</ele><time>2026-05-01T10:12:56.969Z</time></trkpt><trkpt lat="44.4469579" lon="8.3239735"><ele>343.0</ele><time>2026-05-01T10:12:57.969Z</time></trkpt><trkpt lat="44.4469218" lon="8.3237096"><ele>343.0</ele><time>2026-05-01T10:12:58.969Z</time></trkpt><trkpt lat="44.4468927" lon="8.3234449"><ele>343.0</ele><time>2026-05-01T10:12:59.969Z</time></trkpt><trkpt lat="44.4468599" lon="8.3231854"><ele>343.0</ele><time>2026-05-01T10:13:00.969Z</time></trkpt><trkpt lat="44.4468169" lon="8.3229336"><ele>343.0</ele><time>2026-05-01T10:13:01.969Z</time></trkpt><trkpt lat="44.4467787" lon="8.3226862"><ele>342.0</ele><time>2026-05-01T10:13:02.97Z</time></trkpt><trkpt lat="44.4467463" lon="8.3224443"><ele>341.0</ele><time>2026-05-01T10:13:03.969Z</time></trkpt><trkpt lat="44.4467033" lon="8.3222079"><ele>340.0</ele><time>2026-05-01T10:13:04.969Z</time></trkpt><trkpt lat="44.4466569" lon="8.3219761"><ele>339.3333333333333</ele><time>2026-05-01T10:13:05.97Z</time></trkpt><trkpt lat="44.446598" lon="8.3217559"><ele>338.6666666666667</ele><time>2026-05-01T10:13:06.969Z</time></trkpt><trkpt lat="44.4465395" lon="8.3215327"><ele>338.0</ele><time>2026-05-01T10:13:07.969Z</time></trkpt><trkpt lat="44.4464654" lon="8.3213211"><ele>336.6666666666667</ele><time>2026-05-01T10:13:08.97Z</time></trkpt><trkpt lat="44.446375" lon="8.3211144"><ele>335.3333333333333</ele><time>2026-05-01T10:13:09.969Z</time></trkpt><trkpt lat="44.4462676" lon="8.320927"><ele>334.0</ele><time>2026-05-01T10:13:10.969Z</time></trkpt><trkpt lat="44.4461585" lon="8.3207471"><ele>335.5</ele><time>2026-05-01T10:13:11.969Z</time></trkpt><trkpt lat="44.4460469" lon="8.3205906"><ele>337.0</ele><time>2026-05-01T10:13:12.969Z</time></trkpt><trkpt lat="44.4459507" lon="8.3204412"><ele>338.5</ele><time>2026-05-01T10:13:13.97Z</time></trkpt><trkpt lat="44.4458539" lon="8.3203017"><ele>340.0</ele><time>2026-05-01T10:13:14.97Z</time></trkpt><trkpt lat="44.4457789" lon="8.320154"><ele>340.0</ele><time>2026-05-01T10:13:15.969Z</time></trkpt><trkpt lat="44.4457206" lon="8.3200091"><ele>340.0</ele><time>2026-05-01T10:13:16.97Z</time></trkpt><trkpt lat="44.445697" lon="8.3198466"><ele>340.0</ele><time>2026-05-01T10:13:17.97Z</time></trkpt><trkpt lat="44.4457157" lon="8.3196824"><ele>340.0</ele><time>2026-05-01T10:13:18.969Z</time></trkpt><trkpt lat="44.4457583" lon="8.3195116"><ele>341.25</ele><time>2026-05-01T10:13:19.969Z</time></trkpt><trkpt lat="44.4458377" lon="8.3193655"><ele>342.5</ele><time>2026-05-01T10:13:20.97Z</time></trkpt><trkpt lat="44.445959" lon="8.3192493"><ele>343.75</ele><time>2026-05-01T10:13:21.969Z</time></trkpt><trkpt lat="44.4461084" lon="8.3191735"><ele>345.0</ele><time>2026-05-01T10:13:22.97Z</time></trkpt><trkpt lat="44.4462586" lon="8.319129"><ele>343.5</ele><time>2026-05-01T10:13:23.969Z</time></trkpt><trkpt lat="44.4463965" lon="8.3190797"><ele>342.0</ele><time>2026-05-01T10:13:24.969Z</time></trkpt><trkpt lat="44.4465241" lon="8.3190403"><ele>340.5</ele><time>2026-05-01T10:13:25.969Z</time></trkpt><trkpt lat="44.4466397" lon="8.3189992"><ele>339.0</ele><time>2026-05-01T10:13:26.969Z</time></trkpt><trkpt lat="44.4467495" lon="8.3189557"><ele>340.25</ele><time>2026-05-01T10:13:27.97Z</time></trkpt><trkpt lat="44.446855" lon="8.3188905"><ele>341.5</ele><time>2026-05-01T10:13:28.969Z</time></trkpt><trkpt lat="44.4469417" lon="8.3187926"><ele>342.75</ele><time>2026-05-01T10:13:29.97Z</time></trkpt><trkpt lat="44.4470083" lon="8.3186629"><ele>344.0</ele><time>2026-05-01T10:13:30.97Z</time></trkpt><trkpt lat="44.4470616" lon="8.3185026"><ele>344.0</ele><time>2026-05-01T10:13:31.969Z</time></trkpt><trkpt lat="44.4470924" lon="8.318325"><ele>344.0</ele><time>2026-05-01T10:13:32.969Z</time></trkpt><trkpt lat="44.4471158" lon="8.3181376"><ele>344.0</ele><time>2026-05-01T10:13:33.97Z</time></trkpt><trkpt lat="44.4471385" lon="8.3179503"><ele>344.0</ele><time>2026-05-01T10:13:34.969Z</time></trkpt><trkpt lat="44.4471591" lon="8.317759"><ele>346.75</ele><time>2026-05-01T10:13:35.969Z</time></trkpt><trkpt lat="44.4471751" lon="8.3175756"><ele>349.5</ele><time>2026-05-01T10:13:36.969Z</time></trkpt><trkpt lat="44.4471822" lon="8.317401"><ele>352.25</ele><time>2026-05-01T10:13:37.97Z</time></trkpt><trkpt lat="44.4471631" lon="8.3172333"><ele>355.0</ele><time>2026-05-01T10:13:38.969Z</time></trkpt><trkpt lat="44.4471189" lon="8.3170666"><ele>355.0</ele><time>2026-05-01T10:13:39.969Z</time></trkpt><trkpt lat="44.4470493" lon="8.3168975"><ele>355.0</ele><time>2026-05-01T10:13:40.969Z</time></trkpt><trkpt lat="44.4469697" lon="8.3167356"><ele>355.0</ele><time>2026-05-01T10:13:41.969Z</time></trkpt><trkpt lat="44.4468878" lon="8.3165817"><ele>355.0</ele><time>2026-05-01T10:13:42.97Z</time></trkpt><trkpt lat="44.446854" lon="8.3163992"><ele>354.25</ele><time>2026-05-01T10:13:43.97Z</time></trkpt><trkpt lat="44.4468542" lon="8.3161987"><ele>353.5</ele><time>2026-05-01T10:13:44.969Z</time></trkpt><trkpt lat="44.4468742" lon="8.3160014"><ele>352.75</ele><time>2026-05-01T10:13:45.969Z</time></trkpt><trkpt lat="44.4469117" lon="8.3158141"><ele>352.0</ele><time>2026-05-01T10:13:46.97Z</time></trkpt><trkpt lat="44.4469607" lon="8.3156374"><ele>353.25</ele><time>2026-05-01T10:13:47.969Z</time></trkpt><trkpt lat="44.4470561" lon="8.315482"><ele>354.5</ele><time>2026-05-01T10:13:48.969Z</time></trkpt><trkpt lat="44.4471869" lon="8.3153687"><ele>355.75</ele><time>2026-05-01T10:13:49.969Z</time></trkpt><trkpt lat="44.4473083" lon="8.315253"><ele>357.0</ele><time>2026-05-01T10:13:50.969Z</time></trkpt><trkpt lat="44.447413" lon="8.3151266"><ele>347.0</ele><time>2026-05-01T10:13:51.969Z</time></trkpt><trkpt lat="44.4474989" lon="8.3149946"><ele>337.0</ele><time>2026-05-01T10:13:52.969Z</time></trkpt><trkpt lat="44.447564" lon="8.314852"><ele>327.0</ele><time>2026-05-01T10:13:53.969Z</time></trkpt><trkpt lat="44.4476085" lon="8.3146934"><ele>317.0</ele><time>2026-05-01T10:13:54.969Z</time></trkpt><trkpt lat="44.4476407" lon="8.314521"><ele>317.0</ele><time>2026-05-01T10:13:55.97Z</time></trkpt><trkpt lat="44.4476532" lon="8.3143338"><ele>317.0</ele><time>2026-05-01T10:13:56.97Z</time></trkpt><trkpt lat="44.44764" lon="8.3141566"><ele>317.0</ele><time>2026-05-01T10:13:57.969Z</time></trkpt><trkpt lat="44.4476306" lon="8.313986"><ele>317.0</ele><time>2026-05-01T10:13:58.969Z</time></trkpt><trkpt lat="44.4476195" lon="8.3138283"><ele>316.2</ele><time>2026-05-01T10:13:59.969Z</time></trkpt><trkpt lat="44.4476066" lon="8.3136818"><ele>315.4</ele><time>2026-05-01T10:14:00.969Z</time></trkpt><trkpt lat="44.4475992" lon="8.3135529"><ele>314.6</ele><time>2026-05-01T10:14:01.97Z</time></trkpt><trkpt lat="44.4475922" lon="8.3134385"><ele>313.8</ele><time>2026-05-01T10:14:02.969Z</time></trkpt><trkpt lat="44.4475883" lon="8.3133383"><ele>313.0</ele><time>2026-05-01T10:14:03.969Z</time></trkpt><trkpt lat="44.447583" lon="8.3131915"><ele>313.0</ele><time>2026-05-01T10:14:05.969Z</time></trkpt><trkpt lat="44.4475717" lon="8.3130937"><ele>313.0</ele><time>2026-05-01T10:14:07.969Z</time></trkpt><trkpt lat="44.4475335" lon="8.3129805"><ele>313.0</ele><time>2026-05-01T10:14:09.969Z</time></trkpt><trkpt lat="44.4474319" lon="8.3128455"><ele>313.0</ele><time>2026-05-01T10:14:11.97Z</time></trkpt><trkpt lat="44.4473615" lon="8.3127532"><ele>313.0</ele><time>2026-05-01T10:14:12.97Z</time></trkpt><trkpt lat="44.4472905" lon="8.3126598"><ele>313.0</ele><time>2026-05-01T10:14:13.97Z</time></trkpt><trkpt lat="44.4472241" lon="8.3125547"><ele>313.0</ele><time>2026-05-01T10:14:14.969Z</time></trkpt><trkpt lat="44.4471613" lon="8.3124374"><ele>313.0</ele><time>2026-05-01T10:14:15.969Z</time></trkpt><trkpt lat="44.4471051" lon="8.3123063"><ele>313.0</ele><time>2026-05-01T10:14:16.969Z</time></trkpt><trkpt lat="44.4470629" lon="8.312165"><ele>313.0</ele><time>2026-05-01T10:14:17.969Z</time></trkpt><trkpt lat="44.4470273" lon="8.3120232"><ele>313.0</ele><time>2026-05-01T10:14:18.969Z</time></trkpt><trkpt lat="44.4469848" lon="8.3118946"><ele>313.0</ele><time>2026-05-01T10:14:19.969Z</time></trkpt><trkpt lat="44.4469282" lon="8.3117783"><ele>313.0</ele><time>2026-05-01T10:14:20.969Z</time></trkpt><trkpt lat="44.4468527" lon="8.3116625"><ele>313.0</ele><time>2026-05-01T10:14:21.97Z</time></trkpt><trkpt lat="44.4467647" lon="8.3115632"><ele>313.0</ele><time>2026-05-01T10:14:22.969Z</time></trkpt><trkpt lat="44.4466668" lon="8.3114927"><ele>313.0</ele><time>2026-05-01T10:14:23.97Z</time></trkpt><trkpt lat="44.4465609" lon="8.3114498"><ele>313.0</ele><time>2026-05-01T10:14:24.969Z</time></trkpt><trkpt lat="44.4464579" lon="8.3114283"><ele>313.0</ele><time>2026-05-01T10:14:25.97Z</time></trkpt><trkpt lat="44.4463491" lon="8.3114037"><ele>313.0</ele><time>2026-05-01T10:14:26.97Z</time></trkpt><trkpt lat="44.4462473" lon="8.3113528"><ele>313.0</ele><time>2026-05-01T10:14:27.969Z</time></trkpt><trkpt lat="44.4461453" lon="8.3112759"><ele>310.25</ele><time>2026-05-01T10:14:28.969Z</time></trkpt><trkpt lat="44.4460533" lon="8.3111645"><ele>307.5</ele><time>2026-05-01T10:14:29.969Z</time></trkpt><trkpt lat="44.4459686" lon="8.3110385"><ele>304.75</ele><time>2026-05-01T10:14:30.969Z</time></trkpt><trkpt lat="44.4458902" lon="8.3109009"><ele>302.0</ele><time>2026-05-01T10:14:31.969Z</time></trkpt><trkpt lat="44.445811" lon="8.3107669"><ele>302.0</ele><time>2026-05-01T10:14:32.97Z</time></trkpt><trkpt lat="44.4457268" lon="8.3106361"><ele>302.0</ele><time>2026-05-01T10:14:33.969Z</time></trkpt><trkpt lat="44.4456397" lon="8.3105061"><ele>302.0</ele><time>2026-05-01T10:14:34.969Z</time></trkpt><trkpt lat="44.4455566" lon="8.3103788"><ele>302.0</ele><time>2026-05-01T10:14:35.969Z</time></trkpt><trkpt lat="44.4454792" lon="8.3102427"><ele>302.0</ele><time>2026-05-01T10:14:36.969Z</time></trkpt><trkpt lat="44.4453958" lon="8.3101085"><ele>302.0</ele><time>2026-05-01T10:14:37.969Z</time></trkpt><trkpt lat="44.4453126" lon="8.3099846"><ele>302.0</ele><time>2026-05-01T10:14:38.969Z</time></trkpt><trkpt lat="44.4452412" lon="8.3098587"><ele>302.0</ele><time>2026-05-01T10:14:39.969Z</time></trkpt><trkpt lat="44.445163" lon="8.3097397"><ele>302.0</ele><time>2026-05-01T10:14:40.969Z</time></trkpt><trkpt lat="44.4450847" lon="8.3096183"><ele>302.0</ele><time>2026-05-01T10:14:41.969Z</time></trkpt><trkpt lat="44.4450048" lon="8.3095001"><ele>302.0</ele><time>2026-05-01T10:14:42.969Z</time></trkpt><trkpt lat="44.4449256" lon="8.3093733"><ele>302.0</ele><time>2026-05-01T10:14:43.97Z</time></trkpt><trkpt lat="44.4448453" lon="8.3092487"><ele>302.0</ele><time>2026-05-01T10:14:44.969Z</time></trkpt><trkpt lat="44.4447613" lon="8.3091264"><ele>302.0</ele><time>2026-05-01T10:14:45.97Z</time></trkpt><trkpt lat="44.4446732" lon="8.3090196"><ele>302.0</ele><time>2026-05-01T10:14:46.969Z</time></trkpt><trkpt lat="44.4445883" lon="8.3088951"><ele>302.0</ele><time>2026-05-01T10:14:47.969Z</time></trkpt><trkpt lat="44.4445072" lon="8.3087648"><ele>302.75</ele><time>2026-05-01T10:14:48.969Z</time></trkpt><trkpt lat="44.4444211" lon="8.3086339"><ele>303.5</ele><time>2026-05-01T10:14:49.969Z</time></trkpt><trkpt lat="44.4443359" lon="8.3084897"><ele>304.25</ele><time>2026-05-01T10:14:50.969Z</time></trkpt><trkpt lat="44.4442525" lon="8.3083402"><ele>305.0</ele><time>2026-05-01T10:14:51.969Z</time></trkpt><trkpt lat="44.4441766" lon="8.3081832"><ele>304.5</ele><time>2026-05-01T10:14:52.969Z</time></trkpt><trkpt lat="44.4441093" lon="8.3080238"><ele>304.0</ele><time>2026-05-01T10:14:53.969Z</time></trkpt><trkpt lat="44.4440566" lon="8.3078583"><ele>303.5</ele><time>2026-05-01T10:14:54.969Z</time></trkpt><trkpt lat="44.4440031" lon="8.3076926"><ele>303.0</ele><time>2026-05-01T10:14:55.969Z</time></trkpt><trkpt lat="44.4439495" lon="8.3075282"><ele>303.0</ele><time>2026-05-01T10:14:56.969Z</time></trkpt><trkpt lat="44.4438974" lon="8.3073635"><ele>303.0</ele><time>2026-05-01T10:14:57.969Z</time></trkpt><trkpt lat="44.4438422" lon="8.3071989"><ele>303.0</ele><time>2026-05-01T10:14:58.969Z</time></trkpt><trkpt lat="44.4437901" lon="8.3070361"><ele>303.0</ele><time>2026-05-01T10:14:59.97Z</time></trkpt><trkpt lat="44.4437363" lon="8.3068688"><ele>303.25</ele><time>2026-05-01T10:15:00.969Z</time></trkpt><trkpt lat="44.4436783" lon="8.3067031"><ele>303.5</ele><time>2026-05-01T10:15:01.969Z</time></trkpt><trkpt lat="44.4436223" lon="8.3065366"><ele>303.75</ele><time>2026-05-01T10:15:02.969Z</time></trkpt><trkpt lat="44.4435687" lon="8.306368"><ele>304.0</ele><time>2026-05-01T10:15:03.97Z</time></trkpt><trkpt lat="44.4435145" lon="8.3062076"><ele>304.5</ele><time>2026-05-01T10:15:04.969Z</time></trkpt><trkpt lat="44.4434649" lon="8.3060458"><ele>305.0</ele><time>2026-05-01T10:15:05.97Z</time></trkpt><trkpt lat="44.4434141" lon="8.3058856"><ele>305.5</ele><time>2026-05-01T10:15:06.97Z</time></trkpt><trkpt lat="44.4433627" lon="8.3057272"><ele>306.0</ele><time>2026-05-01T10:15:07.969Z</time></trkpt><trkpt lat="44.4433062" lon="8.3055679"><ele>306.5</ele><time>2026-05-01T10:15:08.97Z</time></trkpt><trkpt lat="44.4432529" lon="8.3054096"><ele>307.0</ele><time>2026-05-01T10:15:09.969Z</time></trkpt><trkpt lat="44.4431966" lon="8.3052478"><ele>307.5</ele><time>2026-05-01T10:15:10.969Z</time></trkpt><trkpt lat="44.4431351" lon="8.3050874"><ele>308.0</ele><time>2026-05-01T10:15:11.969Z</time></trkpt><trkpt lat="44.443062" lon="8.304932"><ele>308.0</ele><time>2026-05-01T10:15:12.97Z</time></trkpt><trkpt lat="44.4429755" lon="8.3047873"><ele>308.0</ele><time>2026-05-01T10:15:13.969Z</time></trkpt><trkpt lat="44.4428833" lon="8.3046573"><ele>308.0</ele><time>2026-05-01T10:15:14.969Z</time></trkpt><trkpt lat="44.4427889" lon="8.3045408"><ele>308.0</ele><time>2026-05-01T10:15:15.97Z</time></trkpt><trkpt lat="44.4426901" lon="8.3044447"><ele>308.75</ele><time>2026-05-01T10:15:16.969Z</time></trkpt><trkpt lat="44.4425814" lon="8.3043609"><ele>309.5</ele><time>2026-05-01T10:15:17.969Z</time></trkpt><trkpt lat="44.442465" lon="8.3042973"><ele>310.25</ele><time>2026-05-01T10:15:18.969Z</time></trkpt><trkpt lat="44.4423483" lon="8.3042451"><ele>311.0</ele><time>2026-05-01T10:15:19.969Z</time></trkpt><trkpt lat="44.4422297" lon="8.3041976"><ele>312.25</ele><time>2026-05-01T10:15:20.97Z</time></trkpt><trkpt lat="44.4421173" lon="8.3041416"><ele>313.5</ele><time>2026-05-01T10:15:21.969Z</time></trkpt><trkpt lat="44.4419986" lon="8.3040618"><ele>314.75</ele><time>2026-05-01T10:15:22.969Z</time></trkpt><trkpt lat="44.4418833" lon="8.3039666"><ele>316.0</ele><time>2026-05-01T10:15:23.969Z</time></trkpt><trkpt lat="44.4417689" lon="8.3038536"><ele>316.0</ele><time>2026-05-01T10:15:24.969Z</time></trkpt><trkpt lat="44.4416606" lon="8.3037324"><ele>316.0</ele><time>2026-05-01T10:15:25.969Z</time></trkpt><trkpt lat="44.4415589" lon="8.3036014"><ele>316.0</ele><time>2026-05-01T10:15:26.969Z</time></trkpt><trkpt lat="44.4414555" lon="8.3034643"><ele>316.0</ele><time>2026-05-01T10:15:27.97Z</time></trkpt><trkpt lat="44.4413499" lon="8.303327"><ele>316.5</ele><time>2026-05-01T10:15:28.969Z</time></trkpt><trkpt lat="44.4412517" lon="8.3031921"><ele>317.0</ele><time>2026-05-01T10:15:29.969Z</time></trkpt><trkpt lat="44.4411523" lon="8.3030533"><ele>317.5</ele><time>2026-05-01T10:15:30.969Z</time></trkpt><trkpt lat="44.4410562" lon="8.3029184"><ele>318.0</ele><time>2026-05-01T10:15:31.969Z</time></trkpt><trkpt lat="44.4409549" lon="8.3027813"><ele>318.25</ele><time>2026-05-01T10:15:32.97Z</time></trkpt><trkpt lat="44.4408521" lon="8.3026458"><ele>318.5</ele><time>2026-05-01T10:15:33.969Z</time></trkpt><trkpt lat="44.4407563" lon="8.3025151"><ele>318.75</ele><time>2026-05-01T10:15:34.969Z</time></trkpt><trkpt lat="44.440659" lon="8.3023746"><ele>319.0</ele><time>2026-05-01T10:15:35.97Z</time></trkpt><trkpt lat="44.4405659" lon="8.3022323"><ele>321.5</ele><time>2026-05-01T10:15:36.97Z</time></trkpt><trkpt lat="44.4404853" lon="8.302077"><ele>324.0</ele><time>2026-05-01T10:15:37.97Z</time></trkpt><trkpt lat="44.4404055" lon="8.3019252"><ele>326.5</ele><time>2026-05-01T10:15:38.969Z</time></trkpt><trkpt lat="44.4403142" lon="8.3017935"><ele>329.0</ele><time>2026-05-01T10:15:39.969Z</time></trkpt><trkpt lat="44.4402077" lon="8.3016797"><ele>329.5</ele><time>2026-05-01T10:15:40.969Z</time></trkpt><trkpt lat="44.4400814" lon="8.3015988"><ele>330.0</ele><time>2026-05-01T10:15:41.969Z</time></trkpt><trkpt lat="44.4399541" lon="8.3015443"><ele>330.5</ele><time>2026-05-01T10:15:42.969Z</time></trkpt><trkpt lat="44.4398277" lon="8.3015088"><ele>331.0</ele><time>2026-05-01T10:15:43.97Z</time></trkpt><trkpt lat="44.4396966" lon="8.3014794"><ele>331.0</ele><time>2026-05-01T10:15:44.969Z</time></trkpt><trkpt lat="44.4395632" lon="8.3014447"><ele>331.0</ele><time>2026-05-01T10:15:45.969Z</time></trkpt><trkpt lat="44.4394235" lon="8.3014073"><ele>331.0</ele><time>2026-05-01T10:15:46.969Z</time></trkpt><trkpt lat="44.4392851" lon="8.301372"><ele>331.0</ele><time>2026-05-01T10:15:47.97Z</time></trkpt><trkpt lat="44.439152" lon="8.3013343"><ele>329.75</ele><time>2026-05-01T10:15:48.969Z</time></trkpt><trkpt lat="44.439021" lon="8.3012944"><ele>328.5</ele><time>2026-05-01T10:15:49.969Z</time></trkpt><trkpt lat="44.4388871" lon="8.3012493"><ele>327.25</ele><time>2026-05-01T10:15:50.969Z</time></trkpt><trkpt lat="44.4387516" lon="8.3012079"><ele>326.0</ele><time>2026-05-01T10:15:51.97Z</time></trkpt><trkpt lat="44.438622" lon="8.3011743"><ele>325.5</ele><time>2026-05-01T10:15:52.969Z</time></trkpt><trkpt lat="44.4384983" lon="8.3011458"><ele>325.0</ele><time>2026-05-01T10:15:53.969Z</time></trkpt><trkpt lat="44.4383857" lon="8.3011227"><ele>324.5</ele><time>2026-05-01T10:15:54.97Z</time></trkpt><trkpt lat="44.4382816" lon="8.3011012"><ele>324.0</ele><time>2026-05-01T10:15:55.969Z</time></trkpt><trkpt lat="44.4381765" lon="8.3010776"><ele>324.0</ele><time>2026-05-01T10:15:56.969Z</time></trkpt><trkpt lat="44.4380653" lon="8.3010567"><ele>324.0</ele><time>2026-05-01T10:15:57.969Z</time></trkpt><trkpt lat="44.4379527" lon="8.3010366"><ele>324.0</ele><time>2026-05-01T10:15:58.969Z</time></trkpt><trkpt lat="44.4378246" lon="8.3010166"><ele>324.0</ele><time>2026-05-01T10:15:59.969Z</time></trkpt><trkpt lat="44.4376891" lon="8.3010036"><ele>323.5</ele><time>2026-05-01T10:16:00.97Z</time></trkpt><trkpt lat="44.4375487" lon="8.3009968"><ele>323.0</ele><time>2026-05-01T10:16:01.969Z</time></trkpt><trkpt lat="44.437412" lon="8.3010034"><ele>322.5</ele><time>2026-05-01T10:16:02.969Z</time></trkpt><trkpt lat="44.4372713" lon="8.3010069"><ele>322.0</ele><time>2026-05-01T10:16:03.969Z</time></trkpt><trkpt lat="44.4371295" lon="8.3010179"><ele>321.75</ele><time>2026-05-01T10:16:04.97Z</time></trkpt><trkpt lat="44.4369899" lon="8.3010343"><ele>321.5</ele><time>2026-05-01T10:16:05.969Z</time></trkpt><trkpt lat="44.4368493" lon="8.3010536"><ele>321.25</ele><time>2026-05-01T10:16:06.969Z</time></trkpt><trkpt lat="44.4367058" lon="8.3010735"><ele>321.0</ele><time>2026-05-01T10:16:07.969Z</time></trkpt><trkpt lat="44.4365728" lon="8.3010955"><ele>321.0</ele><time>2026-05-01T10:16:08.969Z</time></trkpt><trkpt lat="44.4364398" lon="8.3011173"><ele>321.0</ele><time>2026-05-01T10:16:09.97Z</time></trkpt><trkpt lat="44.4362985" lon="8.3011344"><ele>321.0</ele><time>2026-05-01T10:16:10.97Z</time></trkpt><trkpt lat="44.4361633" lon="8.301148"><ele>321.0</ele><time>2026-05-01T10:16:11.97Z</time></trkpt><trkpt lat="44.4360313" lon="8.301163"><ele>320.5</ele><time>2026-05-01T10:16:12.97Z</time></trkpt><trkpt lat="44.4359108" lon="8.3011686"><ele>320.0</ele><time>2026-05-01T10:16:13.97Z</time></trkpt><trkpt lat="44.4357813" lon="8.301151"><ele>319.5</ele><time>2026-05-01T10:16:14.969Z</time></trkpt><trkpt lat="44.4356543" lon="8.301103"><ele>319.0</ele><time>2026-05-01T10:16:15.969Z</time></trkpt><trkpt lat="44.4355277" lon="8.3010265"><ele>319.0</ele><time>2026-05-01T10:16:16.969Z</time></trkpt><trkpt lat="44.4354024" lon="8.3009284"><ele>319.0</ele><time>2026-05-01T10:16:17.969Z</time></trkpt><trkpt lat="44.4352885" lon="8.3008125"><ele>319.0</ele><time>2026-05-01T10:16:18.97Z</time></trkpt><trkpt lat="44.4351838" lon="8.3006908"><ele>319.0</ele><time>2026-05-01T10:16:19.969Z</time></trkpt><trkpt lat="44.4350796" lon="8.3005631"><ele>318.5</ele><time>2026-05-01T10:16:20.969Z</time></trkpt><trkpt lat="44.4349796" lon="8.3004323"><ele>318.0</ele><time>2026-05-01T10:16:21.969Z</time></trkpt><trkpt lat="44.4348874" lon="8.3003081"><ele>317.5</ele><time>2026-05-01T10:16:22.97Z</time></trkpt><trkpt lat="44.4347786" lon="8.3002137"><ele>317.0</ele><time>2026-05-01T10:16:23.97Z</time></trkpt><trkpt lat="44.4346608" lon="8.3001434"><ele>318.0</ele><time>2026-05-01T10:16:24.969Z</time></trkpt><trkpt lat="44.4345475" lon="8.3000866"><ele>319.0</ele><time>2026-05-01T10:16:25.969Z</time></trkpt><trkpt lat="44.4344313" lon="8.3000609"><ele>320.0</ele><time>2026-05-01T10:16:26.97Z</time></trkpt><trkpt lat="44.4343112" lon="8.3000507"><ele>321.0</ele><time>2026-05-01T10:16:27.969Z</time></trkpt><trkpt lat="44.4342027" lon="8.3000622"><ele>321.0</ele><time>2026-05-01T10:16:28.969Z</time></trkpt><trkpt lat="44.4340832" lon="8.3000948"><ele>321.0</ele><time>2026-05-01T10:16:29.969Z</time></trkpt><trkpt lat="44.43397" lon="8.3001486"><ele>321.0</ele><time>2026-05-01T10:16:30.969Z</time></trkpt><trkpt lat="44.4338598" lon="8.3001993"><ele>321.0</ele><time>2026-05-01T10:16:31.969Z</time></trkpt><trkpt lat="44.4337565" lon="8.3002574"><ele>322.0</ele><time>2026-05-01T10:16:32.97Z</time></trkpt><trkpt lat="44.4336489" lon="8.3003206"><ele>323.0</ele><time>2026-05-01T10:16:33.969Z</time></trkpt><trkpt lat="44.4335391" lon="8.3003823"><ele>324.0</ele><time>2026-05-01T10:16:34.969Z</time></trkpt><trkpt lat="44.4334284" lon="8.300444"><ele>325.0</ele><time>2026-05-01T10:16:35.969Z</time></trkpt><trkpt lat="44.4333177" lon="8.3004999"><ele>325.0</ele><time>2026-05-01T10:16:36.969Z</time></trkpt><trkpt lat="44.4332166" lon="8.3005434"><ele>325.0</ele><time>2026-05-01T10:16:37.969Z</time></trkpt><trkpt lat="44.4331229" lon="8.3005694"><ele>325.0</ele><time>2026-05-01T10:16:38.97Z</time></trkpt><trkpt lat="44.43302" lon="8.3005894"><ele>325.0</ele><time>2026-05-01T10:16:39.969Z</time></trkpt><trkpt lat="44.4329142" lon="8.3006008"><ele>325.0</ele><time>2026-05-01T10:16:40.969Z</time></trkpt><trkpt lat="44.432813" lon="8.3006099"><ele>325.2</ele><time>2026-05-01T10:16:41.969Z</time></trkpt><trkpt lat="44.4327117" lon="8.3006132"><ele>325.4</ele><time>2026-05-01T10:16:42.97Z</time></trkpt><trkpt lat="44.4326125" lon="8.3006138"><ele>325.6</ele><time>2026-05-01T10:16:43.969Z</time></trkpt><trkpt lat="44.4325078" lon="8.3006183"><ele>325.8</ele><time>2026-05-01T10:16:44.969Z</time></trkpt><trkpt lat="44.4324075" lon="8.3006236"><ele>326.0</ele><time>2026-05-01T10:16:45.969Z</time></trkpt><trkpt lat="44.4323061" lon="8.3006243"><ele>326.0</ele><time>2026-05-01T10:16:46.969Z</time></trkpt><trkpt lat="44.4322048" lon="8.300621"><ele>326.0</ele><time>2026-05-01T10:16:47.969Z</time></trkpt><trkpt lat="44.4321068" lon="8.3006199"><ele>326.0</ele><time>2026-05-01T10:16:48.969Z</time></trkpt><trkpt lat="44.4320059" lon="8.3006243"><ele>326.0</ele><time>2026-05-01T10:16:49.969Z</time></trkpt><trkpt lat="44.4318984" lon="8.3006397"><ele>326.0</ele><time>2026-05-01T10:16:50.97Z</time></trkpt><trkpt lat="44.4317863" lon="8.3006554"><ele>326.75</ele><time>2026-05-01T10:16:51.969Z</time></trkpt><trkpt lat="44.4316708" lon="8.3006722"><ele>327.5</ele><time>2026-05-01T10:16:52.97Z</time></trkpt><trkpt lat="44.4315563" lon="8.3006957"><ele>328.25</ele><time>2026-05-01T10:16:53.97Z</time></trkpt><trkpt lat="44.4314433" lon="8.3007255"><ele>329.0</ele><time>2026-05-01T10:16:54.97Z</time></trkpt><trkpt lat="44.4313322" lon="8.3007637"><ele>329.25</ele><time>2026-05-01T10:16:55.97Z</time></trkpt><trkpt lat="44.4312196" lon="8.3008105"><ele>329.5</ele><time>2026-05-01T10:16:56.969Z</time></trkpt><trkpt lat="44.4311014" lon="8.3008595"><ele>329.75</ele><time>2026-05-01T10:16:57.97Z</time></trkpt><trkpt lat="44.4309904" lon="8.3009096"><ele>330.0</ele><time>2026-05-01T10:16:58.97Z</time></trkpt><trkpt lat="44.430882" lon="8.3009711"><ele>330.0</ele><time>2026-05-01T10:16:59.97Z</time></trkpt><trkpt lat="44.4307769" lon="8.3010343"><ele>330.0</ele><time>2026-05-01T10:17:00.969Z</time></trkpt><trkpt lat="44.430673" lon="8.3010918"><ele>330.0</ele><time>2026-05-01T10:17:01.969Z</time></trkpt><trkpt lat="44.4305641" lon="8.301148"><ele>330.0</ele><time>2026-05-01T10:17:02.969Z</time></trkpt><trkpt lat="44.4304595" lon="8.301207"><ele>330.0</ele><time>2026-05-01T10:17:03.969Z</time></trkpt><trkpt lat="44.4303568" lon="8.3012633"><ele>330.0</ele><time>2026-05-01T10:17:04.969Z</time></trkpt><trkpt lat="44.4302675" lon="8.3013381"><ele>330.0</ele><time>2026-05-01T10:17:05.969Z</time></trkpt><trkpt lat="44.4301659" lon="8.3013926"><ele>330.0</ele><time>2026-05-01T10:17:06.969Z</time></trkpt><trkpt lat="44.4300615" lon="8.301435"><ele>330.0</ele><time>2026-05-01T10:17:07.969Z</time></trkpt><trkpt lat="44.4299495" lon="8.3014701"><ele>330.0</ele><time>2026-05-01T10:17:08.969Z</time></trkpt><trkpt lat="44.4298337" lon="8.3014955"><ele>330.0</ele><time>2026-05-01T10:17:09.969Z</time></trkpt><trkpt lat="44.4297193" lon="8.3015054"><ele>330.0</ele><time>2026-05-01T10:17:10.969Z</time></trkpt><trkpt lat="44.4295956" lon="8.3014889"><ele>330.0</ele><time>2026-05-01T10:17:11.969Z</time></trkpt><trkpt lat="44.4294756" lon="8.3014535"><ele>329.0</ele><time>2026-05-01T10:17:12.969Z</time></trkpt><trkpt lat="44.4293665" lon="8.3013924"><ele>328.0</ele><time>2026-05-01T10:17:13.969Z</time></trkpt><trkpt lat="44.4292644" lon="8.3013091"><ele>327.0</ele><time>2026-05-01T10:17:14.969Z</time></trkpt><trkpt lat="44.4291728" lon="8.3012218"><ele>326.0</ele><time>2026-05-01T10:17:15.969Z</time></trkpt><trkpt lat="44.4290926" lon="8.3011336"><ele>325.0</ele><time>2026-05-01T10:17:16.969Z</time></trkpt><trkpt lat="44.4290186" lon="8.301051"><ele>325.0</ele><time>2026-05-01T10:17:17.97Z</time></trkpt><trkpt lat="44.4289444" lon="8.3009647"><ele>325.0</ele><time>2026-05-01T10:17:18.969Z</time></trkpt><trkpt lat="44.4288661" lon="8.3008761"><ele>325.0</ele><time>2026-05-01T10:17:19.97Z</time></trkpt><trkpt lat="44.4287912" lon="8.3007873"><ele>325.0</ele><time>2026-05-01T10:17:20.97Z</time></trkpt><trkpt lat="44.4287183" lon="8.3006972"><ele>325.0</ele><time>2026-05-01T10:17:21.969Z</time></trkpt><trkpt lat="44.4286425" lon="8.3006057"><ele>326.0</ele><time>2026-05-01T10:17:22.97Z</time></trkpt><trkpt lat="44.4285682" lon="8.3005124"><ele>327.0</ele><time>2026-05-01T10:17:23.969Z</time></trkpt><trkpt lat="44.4284897" lon="8.3004272"><ele>328.0</ele><time>2026-05-01T10:17:24.969Z</time></trkpt><trkpt lat="44.4284089" lon="8.3003399"><ele>329.0</ele><time>2026-05-01T10:17:25.969Z</time></trkpt><trkpt lat="44.4283274" lon="8.3002528"><ele>330.0</ele><time>2026-05-01T10:17:26.969Z</time></trkpt><trkpt lat="44.4282443" lon="8.3001547"><ele>330.0</ele><time>2026-05-01T10:17:27.97Z</time></trkpt><trkpt lat="44.4281609" lon="8.300067"><ele>330.0</ele><time>2026-05-01T10:17:28.969Z</time></trkpt><trkpt lat="44.4280807" lon="8.2999824"><ele>330.0</ele><time>2026-05-01T10:17:29.969Z</time></trkpt><trkpt lat="44.4279978" lon="8.2998912"><ele>330.0</ele><time>2026-05-01T10:17:30.969Z</time></trkpt><trkpt lat="44.4279106" lon="8.2997971"><ele>330.0</ele><time>2026-05-01T10:17:31.97Z</time></trkpt><trkpt lat="44.42782" lon="8.2997011"><ele>330.6</ele><time>2026-05-01T10:17:32.969Z</time></trkpt><trkpt lat="44.4277313" lon="8.2996098"><ele>331.2</ele><time>2026-05-01T10:17:33.969Z</time></trkpt><trkpt lat="44.4276473" lon="8.2995283"><ele>331.79999999999995</ele><time>2026-05-01T10:17:34.97Z</time></trkpt><trkpt lat="44.427569" lon="8.2994522"><ele>332.4</ele><time>2026-05-01T10:17:35.969Z</time></trkpt><trkpt lat="44.4274957" lon="8.2993692"><ele>333.0</ele><time>2026-05-01T10:17:36.969Z</time></trkpt><trkpt lat="44.4274225" lon="8.2992788"><ele>333.0</ele><time>2026-05-01T10:17:37.969Z</time></trkpt><trkpt lat="44.4273471" lon="8.2991898"><ele>333.0</ele><time>2026-05-01T10:17:38.97Z</time></trkpt><trkpt lat="44.4272696" lon="8.2991003"><ele>333.0</ele><time>2026-05-01T10:17:39.97Z</time></trkpt><trkpt lat="44.4271926" lon="8.2990093"><ele>333.0</ele><time>2026-05-01T10:17:40.969Z</time></trkpt><trkpt lat="44.4271123" lon="8.2989225"><ele>333.0</ele><time>2026-05-01T10:17:41.969Z</time></trkpt><trkpt lat="44.4270388" lon="8.2988338"><ele>332.5</ele><time>2026-05-01T10:17:42.969Z</time></trkpt><trkpt lat="44.426966" lon="8.2987572"><ele>332.0</ele><time>2026-05-01T10:17:43.969Z</time></trkpt><trkpt lat="44.4268954" lon="8.298687"><ele>331.5</ele><time>2026-05-01T10:17:44.969Z</time></trkpt><trkpt lat="44.426828" lon="8.2986196"><ele>331.0</ele><time>2026-05-01T10:17:45.969Z</time></trkpt><trkpt lat="44.4267672" lon="8.2985638"><ele>330.5</ele><time>2026-05-01T10:17:46.969Z</time></trkpt><trkpt lat="44.4267119" lon="8.2985197"><ele>330.0</ele><time>2026-05-01T10:17:47.969Z</time></trkpt><trkpt lat="44.4265896" lon="8.2984861"><ele>330.0</ele><time>2026-05-01T10:17:49.97Z</time></trkpt><trkpt lat="44.426525" lon="8.2985104"><ele>330.0</ele><time>2026-05-01T10:17:50.969Z</time></trkpt><trkpt lat="44.4264499" lon="8.2985525"><ele>330.0</ele><time>2026-05-01T10:17:51.969Z</time></trkpt><trkpt lat="44.4263627" lon="8.2986063"><ele>330.0</ele><time>2026-05-01T10:17:52.97Z</time></trkpt><trkpt lat="44.4262744" lon="8.2986632"><ele>330.0</ele><time>2026-05-01T10:17:53.97Z</time></trkpt><trkpt lat="44.4261619" lon="8.298784"><ele>330.6666666666667</ele><time>2026-05-01T10:17:54.97Z</time></trkpt><trkpt lat="44.4260455" lon="8.298929"><ele>331.33333333333337</ele><time>2026-05-01T10:17:55.969Z</time></trkpt><trkpt lat="44.4259269" lon="8.2990681"><ele>332.0</ele><time>2026-05-01T10:17:56.969Z</time></trkpt><trkpt lat="44.425802" lon="8.299201"><ele>332.0</ele><time>2026-05-01T10:17:57.969Z</time></trkpt><trkpt lat="44.4256788" lon="8.2993111"><ele>332.0</ele><time>2026-05-01T10:17:58.97Z</time></trkpt><trkpt lat="44.4255578" lon="8.2994074"><ele>332.0</ele><time>2026-05-01T10:17:59.969Z</time></trkpt><trkpt lat="44.4254415" lon="8.299502"><ele>332.0</ele><time>2026-05-01T10:18:00.969Z</time></trkpt><trkpt lat="44.4253229" lon="8.2995945"><ele>333.75</ele><time>2026-05-01T10:18:01.969Z</time></trkpt><trkpt lat="44.4252115" lon="8.2996782"><ele>335.5</ele><time>2026-05-01T10:18:02.97Z</time></trkpt><trkpt lat="44.4251095" lon="8.2997691"><ele>337.25</ele><time>2026-05-01T10:18:03.969Z</time></trkpt><trkpt lat="44.4250013" lon="8.2998488"><ele>339.0</ele><time>2026-05-01T10:18:04.969Z</time></trkpt><trkpt lat="44.4248909" lon="8.2999219"><ele>339.0</ele><time>2026-05-01T10:18:05.969Z</time></trkpt><trkpt lat="44.4247833" lon="8.2999826"><ele>339.0</ele><time>2026-05-01T10:18:06.97Z</time></trkpt><trkpt lat="44.4246723" lon="8.3000094"><ele>339.0</ele><time>2026-05-01T10:18:07.969Z</time></trkpt><trkpt lat="44.4245635" lon="8.30002"><ele>339.0</ele><time>2026-05-01T10:18:08.969Z</time></trkpt><trkpt lat="44.4244513" lon="8.300016"><ele>338.0</ele><time>2026-05-01T10:18:09.969Z</time></trkpt><trkpt lat="44.4243388" lon="8.2999961"><ele>337.0</ele><time>2026-05-01T10:18:10.969Z</time></trkpt><trkpt lat="44.4242239" lon="8.2999656"><ele>336.0</ele><time>2026-05-01T10:18:11.97Z</time></trkpt><trkpt lat="44.4241113" lon="8.2999254"><ele>335.0</ele><time>2026-05-01T10:18:12.969Z</time></trkpt><trkpt lat="44.424012" lon="8.2998651"><ele>335.0</ele><time>2026-05-01T10:18:13.969Z</time></trkpt><trkpt lat="44.423923" lon="8.2998126"><ele>335.0</ele><time>2026-05-01T10:18:14.97Z</time></trkpt><trkpt lat="44.4238428" lon="8.2997656"><ele>335.0</ele><time>2026-05-01T10:18:15.969Z</time></trkpt><trkpt lat="44.4237721" lon="8.2997311"><ele>335.0</ele><time>2026-05-01T10:18:16.97Z</time></trkpt><trkpt lat="44.4237041" lon="8.2997089"><ele>335.0</ele><time>2026-05-01T10:18:17.969Z</time></trkpt><trkpt lat="44.4236343" lon="8.299692"><ele>335.0</ele><time>2026-05-01T10:18:18.97Z</time></trkpt><trkpt lat="44.4235702" lon="8.2996749"><ele>334.0</ele><time>2026-05-01T10:18:19.97Z</time></trkpt><trkpt lat="44.4234595" lon="8.2996274"><ele>333.0</ele><time>2026-05-01T10:18:21.97Z</time></trkpt><trkpt lat="44.4233646" lon="8.2995415"><ele>332.0</ele><time>2026-05-01T10:18:23.969Z</time></trkpt><trkpt lat="44.4232866" lon="8.2994383"><ele>331.0</ele><time>2026-05-01T10:18:25.969Z</time></trkpt><trkpt lat="44.4232226" lon="8.2993303"><ele>330.0</ele><time>2026-05-01T10:18:27.969Z</time></trkpt><trkpt lat="44.4231615" lon="8.2992298"><ele>330.0</ele><time>2026-05-01T10:18:29.97Z</time></trkpt><trkpt lat="44.4230977" lon="8.2991387"><ele>330.0</ele><time>2026-05-01T10:18:31.969Z</time></trkpt><trkpt lat="44.4230535" lon="8.2990696"><ele>330.0</ele><time>2026-05-01T10:18:33.97Z</time></trkpt><trkpt lat="44.4230108" lon="8.2989944"><ele>330.0</ele><time>2026-05-01T10:18:35.969Z</time></trkpt><trkpt lat="44.4229645" lon="8.2989132"><ele>330.0</ele><time>2026-05-01T10:18:37.97Z</time></trkpt><trkpt lat="44.42292" lon="8.2988284"><ele>330.0</ele><time>2026-05-01T10:18:39.97Z</time></trkpt><trkpt lat="44.4228542" lon="8.2987061"><ele>332.8</ele><time>2026-05-01T10:18:41.969Z</time></trkpt><trkpt lat="44.4228026" lon="8.2986173"><ele>335.6</ele><time>2026-05-01T10:18:42.97Z</time></trkpt><trkpt lat="44.4227395" lon="8.2985151"><ele>338.4</ele><time>2026-05-01T10:18:43.97Z</time></trkpt><trkpt lat="44.4226787" lon="8.2984005"><ele>341.2</ele><time>2026-05-01T10:18:44.969Z</time></trkpt><trkpt lat="44.4226162" lon="8.2982726"><ele>344.0</ele><time>2026-05-01T10:18:45.969Z</time></trkpt><trkpt lat="44.4225527" lon="8.2981313"><ele>340.75</ele><time>2026-05-01T10:18:46.969Z</time></trkpt><trkpt lat="44.4224905" lon="8.297983"><ele>337.5</ele><time>2026-05-01T10:18:47.97Z</time></trkpt><trkpt lat="44.4224266" lon="8.2978223"><ele>334.25</ele><time>2026-05-01T10:18:48.969Z</time></trkpt><trkpt lat="44.4223749" lon="8.2976472"><ele>331.0</ele><time>2026-05-01T10:18:49.969Z</time></trkpt><trkpt lat="44.4223343" lon="8.2974674"><ele>331.0</ele><time>2026-05-01T10:18:50.969Z</time></trkpt><trkpt lat="44.4222963" lon="8.2972781"><ele>331.0</ele><time>2026-05-01T10:18:51.97Z</time></trkpt><trkpt lat="44.4222608" lon="8.2970841"><ele>331.0</ele><time>2026-05-01T10:18:52.97Z</time></trkpt><trkpt lat="44.4222224" lon="8.2968854"><ele>331.0</ele><time>2026-05-01T10:18:53.97Z</time></trkpt><trkpt lat="44.4221861" lon="8.2966846"><ele>329.75</ele><time>2026-05-01T10:18:54.97Z</time></trkpt><trkpt lat="44.4221582" lon="8.2964802"><ele>328.5</ele><time>2026-05-01T10:18:55.969Z</time></trkpt><trkpt lat="44.4221392" lon="8.2962771"><ele>327.25</ele><time>2026-05-01T10:18:56.969Z</time></trkpt><trkpt lat="44.4221291" lon="8.2960707"><ele>326.0</ele><time>2026-05-01T10:18:57.97Z</time></trkpt><trkpt lat="44.4221325" lon="8.2958661"><ele>326.25</ele><time>2026-05-01T10:18:58.969Z</time></trkpt><trkpt lat="44.4221421" lon="8.2956671"><ele>326.5</ele><time>2026-05-01T10:18:59.969Z</time></trkpt><trkpt lat="44.4221684" lon="8.2954699"><ele>326.75</ele><time>2026-05-01T10:19:00.969Z</time></trkpt><trkpt lat="44.4222041" lon="8.2952702"><ele>327.0</ele><time>2026-05-01T10:19:01.969Z</time></trkpt><trkpt lat="44.4222434" lon="8.295071"><ele>327.0</ele><time>2026-05-01T10:19:02.97Z</time></trkpt><trkpt lat="44.4222866" lon="8.2948696"><ele>327.0</ele><time>2026-05-01T10:19:03.97Z</time></trkpt><trkpt lat="44.4223273" lon="8.2946724"><ele>327.0</ele><time>2026-05-01T10:19:04.97Z</time></trkpt><trkpt lat="44.4223518" lon="8.2944604"><ele>327.0</ele><time>2026-05-01T10:19:05.969Z</time></trkpt><trkpt lat="44.4223639" lon="8.2942431"><ele>327.0</ele><time>2026-05-01T10:19:06.969Z</time></trkpt><trkpt lat="44.4223659" lon="8.2940307"><ele>327.0</ele><time>2026-05-01T10:19:07.969Z</time></trkpt><trkpt lat="44.42236" lon="8.293826"><ele>325.75</ele><time>2026-05-01T10:19:08.97Z</time></trkpt><trkpt lat="44.4223396" lon="8.2936203"><ele>324.5</ele><time>2026-05-01T10:19:09.97Z</time></trkpt><trkpt lat="44.4222993" lon="8.293426"><ele>323.25</ele><time>2026-05-01T10:19:10.969Z</time></trkpt><trkpt lat="44.4222505" lon="8.2932362"><ele>322.0</ele><time>2026-05-01T10:19:11.969Z</time></trkpt><trkpt lat="44.4221985" lon="8.29305"><ele>325.5</ele><time>2026-05-01T10:19:12.969Z</time></trkpt><trkpt lat="44.4221372" lon="8.2928693"><ele>329.0</ele><time>2026-05-01T10:19:13.969Z</time></trkpt><trkpt lat="44.4220681" lon="8.2926869"><ele>332.5</ele><time>2026-05-01T10:19:14.969Z</time></trkpt><trkpt lat="44.4219904" lon="8.2925"><ele>336.0</ele><time>2026-05-01T10:19:15.969Z</time></trkpt><trkpt lat="44.4219167" lon="8.2923156"><ele>334.3333333333333</ele><time>2026-05-01T10:19:16.969Z</time></trkpt><trkpt lat="44.4218528" lon="8.2921267"><ele>332.66666666666663</ele><time>2026-05-01T10:19:17.969Z</time></trkpt><trkpt lat="44.4217888" lon="8.2919343"><ele>331.0</ele><time>2026-05-01T10:19:18.969Z</time></trkpt><trkpt lat="44.4217223" lon="8.2917448"><ele>331.0</ele><time>2026-05-01T10:19:19.969Z</time></trkpt><trkpt lat="44.4216455" lon="8.2915485"><ele>331.0</ele><time>2026-05-01T10:19:20.97Z</time></trkpt><trkpt lat="44.4215673" lon="8.291361"><ele>331.0</ele><time>2026-05-01T10:19:21.969Z</time></trkpt><trkpt lat="44.4214976" lon="8.2911651"><ele>329.0</ele><time>2026-05-01T10:19:22.969Z</time></trkpt><trkpt lat="44.4214281" lon="8.2909731"><ele>327.0</ele><time>2026-05-01T10:19:23.969Z</time></trkpt><trkpt lat="44.4213662" lon="8.2907698"><ele>325.0</ele><time>2026-05-01T10:19:24.969Z</time></trkpt><trkpt lat="44.4213217" lon="8.2905607"><ele>329.3333333333333</ele><time>2026-05-01T10:19:25.97Z</time></trkpt><trkpt lat="44.4212828" lon="8.2903486"><ele>333.6666666666667</ele><time>2026-05-01T10:19:26.97Z</time></trkpt><trkpt lat="44.4212503" lon="8.2901349"><ele>338.0</ele><time>2026-05-01T10:19:27.969Z</time></trkpt><trkpt lat="44.4212274" lon="8.2899344"><ele>336.25</ele><time>2026-05-01T10:19:28.969Z</time></trkpt><trkpt lat="44.4212016" lon="8.2897323"><ele>334.5</ele><time>2026-05-01T10:19:29.97Z</time></trkpt><trkpt lat="44.4211659" lon="8.2895289"><ele>332.75</ele><time>2026-05-01T10:19:30.969Z</time></trkpt><trkpt lat="44.4211268" lon="8.289324"><ele>331.0</ele><time>2026-05-01T10:19:31.969Z</time></trkpt><trkpt lat="44.4210752" lon="8.2891275"><ele>331.0</ele><time>2026-05-01T10:19:32.97Z</time></trkpt><trkpt lat="44.4210106" lon="8.288933"><ele>331.0</ele><time>2026-05-01T10:19:33.97Z</time></trkpt><trkpt lat="44.4209351" lon="8.2887389"><ele>331.0</ele><time>2026-05-01T10:19:34.97Z</time></trkpt><trkpt lat="44.4208499" lon="8.2885476"><ele>328.66666666666663</ele><time>2026-05-01T10:19:35.97Z</time></trkpt><trkpt lat="44.4207549" lon="8.2883633"><ele>326.3333333333333</ele><time>2026-05-01T10:19:36.969Z</time></trkpt><trkpt lat="44.4206517" lon="8.2881906"><ele>324.0</ele><time>2026-05-01T10:19:37.969Z</time></trkpt><trkpt lat="44.4205509" lon="8.2880212"><ele>327.6666666666667</ele><time>2026-05-01T10:19:38.97Z</time></trkpt><trkpt lat="44.420452" lon="8.2878392"><ele>331.33333333333337</ele><time>2026-05-01T10:19:39.97Z</time></trkpt><trkpt lat="44.4203552" lon="8.2876566"><ele>335.0</ele><time>2026-05-01T10:19:40.97Z</time></trkpt><trkpt lat="44.4202566" lon="8.2874785"><ele>335.0</ele><time>2026-05-01T10:19:41.969Z</time></trkpt><trkpt lat="44.4201634" lon="8.2872959"><ele>335.0</ele><time>2026-05-01T10:19:42.969Z</time></trkpt><trkpt lat="44.4200651" lon="8.2871081"><ele>335.0</ele><time>2026-05-01T10:19:43.969Z</time></trkpt><trkpt lat="44.4199696" lon="8.2869256"><ele>331.6666666666667</ele><time>2026-05-01T10:19:44.969Z</time></trkpt><trkpt lat="44.4198703" lon="8.2867317"><ele>328.3333333333333</ele><time>2026-05-01T10:19:45.969Z</time></trkpt><trkpt lat="44.4197681" lon="8.2865473"><ele>325.0</ele><time>2026-05-01T10:19:46.969Z</time></trkpt><trkpt lat="44.4196573" lon="8.2863613"><ele>326.3333333333333</ele><time>2026-05-01T10:19:47.97Z</time></trkpt><trkpt lat="44.4195498" lon="8.2861698"><ele>327.6666666666667</ele><time>2026-05-01T10:19:48.97Z</time></trkpt><trkpt lat="44.4194338" lon="8.2859869"><ele>329.0</ele><time>2026-05-01T10:19:49.97Z</time></trkpt><trkpt lat="44.419308" lon="8.2858185"><ele>329.0</ele><time>2026-05-01T10:19:50.969Z</time></trkpt><trkpt lat="44.4191759" lon="8.2856615"><ele>329.0</ele><time>2026-05-01T10:19:51.969Z</time></trkpt><trkpt lat="44.4190403" lon="8.2855173"><ele>329.0</ele><time>2026-05-01T10:19:52.969Z</time></trkpt><trkpt lat="44.4189001" lon="8.285391"><ele>328.33333333333337</ele><time>2026-05-01T10:19:53.969Z</time></trkpt><trkpt lat="44.4187601" lon="8.2852771"><ele>327.6666666666667</ele><time>2026-05-01T10:19:54.969Z</time></trkpt><trkpt lat="44.4186206" lon="8.2851821"><ele>327.0</ele><time>2026-05-01T10:19:55.969Z</time></trkpt><trkpt lat="44.4184915" lon="8.285085"><ele>327.0</ele><time>2026-05-01T10:19:56.97Z</time></trkpt><trkpt lat="44.4183713" lon="8.2849837"><ele>327.0</ele><time>2026-05-01T10:19:57.97Z</time></trkpt><trkpt lat="44.4182487" lon="8.2848912"><ele>327.0</ele><time>2026-05-01T10:19:58.969Z</time></trkpt><trkpt lat="44.4181185" lon="8.2847962"><ele>327.0</ele><time>2026-05-01T10:19:59.969Z</time></trkpt><trkpt lat="44.4179876" lon="8.2846938"><ele>326.5</ele><time>2026-05-01T10:20:00.97Z</time></trkpt><trkpt lat="44.4178724" lon="8.2845776"><ele>326.0</ele><time>2026-05-01T10:20:01.969Z</time></trkpt><trkpt lat="44.4177752" lon="8.2844458"><ele>325.5</ele><time>2026-05-01T10:20:02.97Z</time></trkpt><trkpt lat="44.4176867" lon="8.2842937"><ele>325.0</ele><time>2026-05-01T10:20:03.97Z</time></trkpt><trkpt lat="44.4176012" lon="8.2841241"><ele>325.0</ele><time>2026-05-01T10:20:04.97Z</time></trkpt><trkpt lat="44.4175141" lon="8.2839473"><ele>325.0</ele><time>2026-05-01T10:20:05.969Z</time></trkpt><trkpt lat="44.4174215" lon="8.2837709"><ele>325.0</ele><time>2026-05-01T10:20:06.97Z</time></trkpt><trkpt lat="44.4173296" lon="8.2835967"><ele>324.5</ele><time>2026-05-01T10:20:07.969Z</time></trkpt><trkpt lat="44.4172456" lon="8.2834296"><ele>324.0</ele><time>2026-05-01T10:20:08.969Z</time></trkpt><trkpt lat="44.4171617" lon="8.2832735"><ele>323.5</ele><time>2026-05-01T10:20:09.97Z</time></trkpt><trkpt lat="44.4170783" lon="8.2831159"><ele>323.0</ele><time>2026-05-01T10:20:10.969Z</time></trkpt><trkpt lat="44.4169906" lon="8.282971"><ele>323.0</ele><time>2026-05-01T10:20:11.97Z</time></trkpt><trkpt lat="44.4169054" lon="8.2828429"><ele>323.0</ele><time>2026-05-01T10:20:12.969Z</time></trkpt><trkpt lat="44.4168179" lon="8.2827212"><ele>323.0</ele><time>2026-05-01T10:20:13.97Z</time></trkpt><trkpt lat="44.4167265" lon="8.2825946"><ele>323.0</ele><time>2026-05-01T10:20:14.969Z</time></trkpt><trkpt lat="44.4166263" lon="8.2824746"><ele>323.0</ele><time>2026-05-01T10:20:15.969Z</time></trkpt><trkpt lat="44.4165226" lon="8.2823551"><ele>323.0</ele><time>2026-05-01T10:20:16.97Z</time></trkpt><trkpt lat="44.416421" lon="8.2822412"><ele>323.0</ele><time>2026-05-01T10:20:17.97Z</time></trkpt><trkpt lat="44.4163243" lon="8.2821357"><ele>323.0</ele><time>2026-05-01T10:20:18.969Z</time></trkpt><trkpt lat="44.4162355" lon="8.2820337"><ele>323.75</ele><time>2026-05-01T10:20:19.969Z</time></trkpt><trkpt lat="44.4161559" lon="8.2819285"><ele>324.5</ele><time>2026-05-01T10:20:20.97Z</time></trkpt><trkpt lat="44.4160795" lon="8.28181"><ele>325.25</ele><time>2026-05-01T10:20:21.969Z</time></trkpt><trkpt lat="44.416008" lon="8.281688"><ele>326.0</ele><time>2026-05-01T10:20:22.97Z</time></trkpt><trkpt lat="44.4159305" lon="8.2815646"><ele>326.0</ele><time>2026-05-01T10:20:23.969Z</time></trkpt><trkpt lat="44.4158443" lon="8.2814605"><ele>326.0</ele><time>2026-05-01T10:20:24.97Z</time></trkpt><trkpt lat="44.4157426" lon="8.2813759"><ele>326.0</ele><time>2026-05-01T10:20:25.97Z</time></trkpt><trkpt lat="44.4156236" lon="8.2813025"><ele>326.0</ele><time>2026-05-01T10:20:26.969Z</time></trkpt><trkpt lat="44.4154892" lon="8.2812409"><ele>325.25</ele><time>2026-05-01T10:20:27.969Z</time></trkpt><trkpt lat="44.4153455" lon="8.2811806"><ele>324.5</ele><time>2026-05-01T10:20:28.969Z</time></trkpt><trkpt lat="44.4152033" lon="8.2811229"><ele>323.75</ele><time>2026-05-01T10:20:29.97Z</time></trkpt><trkpt lat="44.4150622" lon="8.2810651"><ele>323.0</ele><time>2026-05-01T10:20:30.969Z</time></trkpt><trkpt lat="44.4149108" lon="8.2809992"><ele>323.0</ele><time>2026-05-01T10:20:31.97Z</time></trkpt><trkpt lat="44.4147661" lon="8.2809375"><ele>323.0</ele><time>2026-05-01T10:20:32.969Z</time></trkpt><trkpt lat="44.4146112" lon="8.2808833"><ele>323.0</ele><time>2026-05-01T10:20:33.97Z</time></trkpt><trkpt lat="44.4144584" lon="8.2808266"><ele>324.6666666666667</ele><time>2026-05-01T10:20:34.969Z</time></trkpt><trkpt lat="44.414306" lon="8.2807688"><ele>326.3333333333333</ele><time>2026-05-01T10:20:35.97Z</time></trkpt><trkpt lat="44.4141514" lon="8.2807054"><ele>328.0</ele><time>2026-05-01T10:20:36.969Z</time></trkpt><trkpt lat="44.4139988" lon="8.2806391"><ele>326.66666666666663</ele><time>2026-05-01T10:20:37.969Z</time></trkpt><trkpt lat="44.4138445" lon="8.2805727"><ele>325.3333333333333</ele><time>2026-05-01T10:20:38.969Z</time></trkpt><trkpt lat="44.4136931" lon="8.2805113"><ele>324.0</ele><time>2026-05-01T10:20:39.969Z</time></trkpt><trkpt lat="44.4135419" lon="8.2804511"><ele>324.0</ele><time>2026-05-01T10:20:40.97Z</time></trkpt><trkpt lat="44.4133968" lon="8.280396"><ele>324.0</ele><time>2026-05-01T10:20:41.969Z</time></trkpt><trkpt lat="44.4132535" lon="8.2803392"><ele>324.0</ele><time>2026-05-01T10:20:42.97Z</time></trkpt><trkpt lat="44.4131068" lon="8.2802813"><ele>324.0</ele><time>2026-05-01T10:20:43.969Z</time></trkpt><trkpt lat="44.4129627" lon="8.2802285"><ele>324.0</ele><time>2026-05-01T10:20:44.97Z</time></trkpt><trkpt lat="44.4128275" lon="8.2801821"><ele>324.0</ele><time>2026-05-01T10:20:45.969Z</time></trkpt><trkpt lat="44.4126882" lon="8.2801362"><ele>324.0</ele><time>2026-05-01T10:20:46.969Z</time></trkpt><trkpt lat="44.4125525" lon="8.2800816"><ele>324.0</ele><time>2026-05-01T10:20:47.969Z</time></trkpt><trkpt lat="44.412414" lon="8.2800297"><ele>324.0</ele><time>2026-05-01T10:20:48.97Z</time></trkpt><trkpt lat="44.4122782" lon="8.279985"><ele>324.0</ele><time>2026-05-01T10:20:49.969Z</time></trkpt><trkpt lat="44.4121315" lon="8.2799659"><ele>324.0</ele><time>2026-05-01T10:20:50.969Z</time></trkpt><trkpt lat="44.4119737" lon="8.2799751"><ele>324.0</ele><time>2026-05-01T10:20:51.969Z</time></trkpt><trkpt lat="44.4118196" lon="8.2800178"><ele>324.0</ele><time>2026-05-01T10:20:52.969Z</time></trkpt><trkpt lat="44.4116589" lon="8.2800767"><ele>324.0</ele><time>2026-05-01T10:20:53.97Z</time></trkpt><trkpt lat="44.4115016" lon="8.280144"><ele>324.0</ele><time>2026-05-01T10:20:54.969Z</time></trkpt><trkpt lat="44.4113496" lon="8.2802137"><ele>324.0</ele><time>2026-05-01T10:20:55.969Z</time></trkpt><trkpt lat="44.4112105" lon="8.2802879"><ele>324.0</ele><time>2026-05-01T10:20:56.969Z</time></trkpt><trkpt lat="44.4110746" lon="8.2803654"><ele>323.75</ele><time>2026-05-01T10:20:57.97Z</time></trkpt><trkpt lat="44.4109427" lon="8.2804354"><ele>323.5</ele><time>2026-05-01T10:20:58.969Z</time></trkpt><trkpt lat="44.410801" lon="8.2805045"><ele>323.25</ele><time>2026-05-01T10:20:59.969Z</time></trkpt><trkpt lat="44.4106483" lon="8.2805623"><ele>323.0</ele><time>2026-05-01T10:21:00.969Z</time></trkpt><trkpt lat="44.4104958" lon="8.2806257"><ele>323.6666666666667</ele><time>2026-05-01T10:21:01.969Z</time></trkpt><trkpt lat="44.4103312" lon="8.2806936"><ele>324.3333333333333</ele><time>2026-05-01T10:21:02.97Z</time></trkpt><trkpt lat="44.4101755" lon="8.280761"><ele>325.0</ele><time>2026-05-01T10:21:03.969Z</time></trkpt><trkpt lat="44.4100151" lon="8.2808303"><ele>325.0</ele><time>2026-05-01T10:21:04.97Z</time></trkpt><trkpt lat="44.4098607" lon="8.2808997"><ele>325.0</ele><time>2026-05-01T10:21:05.969Z</time></trkpt><trkpt lat="44.4097093" lon="8.2809646"><ele>325.0</ele><time>2026-05-01T10:21:06.969Z</time></trkpt><trkpt lat="44.4095473" lon="8.2810329"><ele>324.66666666666663</ele><time>2026-05-01T10:21:07.969Z</time></trkpt><trkpt lat="44.4093848" lon="8.2810924"><ele>324.3333333333333</ele><time>2026-05-01T10:21:08.97Z</time></trkpt><trkpt lat="44.4092326" lon="8.2811481"><ele>324.0</ele><time>2026-05-01T10:21:09.969Z</time></trkpt><trkpt lat="44.4090832" lon="8.281201"><ele>324.0</ele><time>2026-05-01T10:21:10.969Z</time></trkpt><trkpt lat="44.4089245" lon="8.2812529"><ele>324.0</ele><time>2026-05-01T10:21:11.969Z</time></trkpt><trkpt lat="44.4087619" lon="8.2812891"><ele>324.0</ele><time>2026-05-01T10:21:12.969Z</time></trkpt><trkpt lat="44.4086061" lon="8.2813173"><ele>324.0</ele><time>2026-05-01T10:21:13.969Z</time></trkpt><trkpt lat="44.4084525" lon="8.2813381"><ele>324.0</ele><time>2026-05-01T10:21:14.969Z</time></trkpt><trkpt lat="44.4083016" lon="8.2813496"><ele>324.0</ele><time>2026-05-01T10:21:15.97Z</time></trkpt><trkpt lat="44.4081449" lon="8.2813382"><ele>325.0</ele><time>2026-05-01T10:21:16.97Z</time></trkpt><trkpt lat="44.4079747" lon="8.281312"><ele>326.0</ele><time>2026-05-01T10:21:17.97Z</time></trkpt><trkpt lat="44.4078091" lon="8.2812738"><ele>327.0</ele><time>2026-05-01T10:21:18.969Z</time></trkpt><trkpt lat="44.4076525" lon="8.2812256"><ele>327.0</ele><time>2026-05-01T10:21:19.969Z</time></trkpt><trkpt lat="44.4075046" lon="8.2811785"><ele>327.0</ele><time>2026-05-01T10:21:20.97Z</time></trkpt><trkpt lat="44.4073665" lon="8.2811231"><ele>327.0</ele><time>2026-05-01T10:21:21.97Z</time></trkpt><trkpt lat="44.4072482" lon="8.2810581"><ele>327.0</ele><time>2026-05-01T10:21:22.969Z</time></trkpt><trkpt lat="44.407136" lon="8.2809827"><ele>327.0</ele><time>2026-05-01T10:21:23.969Z</time></trkpt><trkpt lat="44.4070204" lon="8.2809062"><ele>327.0</ele><time>2026-05-01T10:21:24.97Z</time></trkpt><trkpt lat="44.4068999" lon="8.2808274"><ele>327.0</ele><time>2026-05-01T10:21:25.969Z</time></trkpt><trkpt lat="44.4067762" lon="8.2807447"><ele>327.0</ele><time>2026-05-01T10:21:26.97Z</time></trkpt><trkpt lat="44.4066539" lon="8.2806581"><ele>326.75</ele><time>2026-05-01T10:21:27.969Z</time></trkpt><trkpt lat="44.406531" lon="8.2805687"><ele>326.5</ele><time>2026-05-01T10:21:28.969Z</time></trkpt><trkpt lat="44.4064099" lon="8.280484"><ele>326.25</ele><time>2026-05-01T10:21:29.969Z</time></trkpt><trkpt lat="44.4062878" lon="8.2804105"><ele>326.0</ele><time>2026-05-01T10:21:30.969Z</time></trkpt><trkpt lat="44.4061752" lon="8.2803384"><ele>327.0</ele><time>2026-05-01T10:21:31.969Z</time></trkpt><trkpt lat="44.4060598" lon="8.280258"><ele>328.0</ele><time>2026-05-01T10:21:32.969Z</time></trkpt><trkpt lat="44.4059386" lon="8.2801817"><ele>329.0</ele><time>2026-05-01T10:21:33.97Z</time></trkpt><trkpt lat="44.4058147" lon="8.2801031"><ele>330.0</ele><time>2026-05-01T10:21:34.969Z</time></trkpt><trkpt lat="44.405693" lon="8.2800272"><ele>330.0</ele><time>2026-05-01T10:21:35.97Z</time></trkpt><trkpt lat="44.4055669" lon="8.2799497"><ele>330.0</ele><time>2026-05-01T10:21:36.969Z</time></trkpt><trkpt lat="44.4054451" lon="8.2798708"><ele>330.0</ele><time>2026-05-01T10:21:37.969Z</time></trkpt><trkpt lat="44.4053232" lon="8.2797971"><ele>330.0</ele><time>2026-05-01T10:21:38.97Z</time></trkpt><trkpt lat="44.4052024" lon="8.2797185"><ele>331.5</ele><time>2026-05-01T10:21:39.969Z</time></trkpt><trkpt lat="44.4050784" lon="8.2796448"><ele>333.0</ele><time>2026-05-01T10:21:40.969Z</time></trkpt><trkpt lat="44.4049548" lon="8.2795643"><ele>334.5</ele><time>2026-05-01T10:21:41.97Z</time></trkpt><trkpt lat="44.4048325" lon="8.2794782"><ele>336.0</ele><time>2026-05-01T10:21:42.97Z</time></trkpt><trkpt lat="44.4047109" lon="8.2793981"><ele>334.0</ele><time>2026-05-01T10:21:43.97Z</time></trkpt><trkpt lat="44.4045927" lon="8.2793252"><ele>332.0</ele><time>2026-05-01T10:21:44.969Z</time></trkpt><trkpt lat="44.4044778" lon="8.2792539"><ele>330.0</ele><time>2026-05-01T10:21:45.97Z</time></trkpt><trkpt lat="44.4043702" lon="8.2791798"><ele>328.0</ele><time>2026-05-01T10:21:46.969Z</time></trkpt><trkpt lat="44.4042722" lon="8.2791004"><ele>328.0</ele><time>2026-05-01T10:21:47.97Z</time></trkpt><trkpt lat="44.404178" lon="8.2790287"><ele>328.0</ele><time>2026-05-01T10:21:48.97Z</time></trkpt><trkpt lat="44.4040856" lon="8.278975"><ele>328.0</ele><time>2026-05-01T10:21:49.97Z</time></trkpt><trkpt lat="44.4039996" lon="8.2789151"><ele>328.0</ele><time>2026-05-01T10:21:50.969Z</time></trkpt><trkpt lat="44.403915" lon="8.2788618"><ele>328.0</ele><time>2026-05-01T10:21:51.97Z</time></trkpt><trkpt lat="44.403828" lon="8.2788055"><ele>327.79999999999995</ele><time>2026-05-01T10:21:52.97Z</time></trkpt><trkpt lat="44.403745" lon="8.278746"><ele>327.6</ele><time>2026-05-01T10:21:53.97Z</time></trkpt><trkpt lat="44.403651" lon="8.2786756"><ele>327.4</ele><time>2026-05-01T10:21:54.969Z</time></trkpt><trkpt lat="44.4035565" lon="8.2786084"><ele>327.20000000000005</ele><time>2026-05-01T10:21:55.969Z</time></trkpt><trkpt lat="44.4034614" lon="8.2785424"><ele>327.0</ele><time>2026-05-01T10:21:56.97Z</time></trkpt><trkpt lat="44.4033677" lon="8.2784787"><ele>327.0</ele><time>2026-05-01T10:21:57.969Z</time></trkpt><trkpt lat="44.4032757" lon="8.2784241"><ele>327.0</ele><time>2026-05-01T10:21:58.97Z</time></trkpt><trkpt lat="44.4031779" lon="8.2783674"><ele>327.0</ele><time>2026-05-01T10:21:59.969Z</time></trkpt><trkpt lat="44.403082" lon="8.2783061"><ele>327.0</ele><time>2026-05-01T10:22:00.969Z</time></trkpt><trkpt lat="44.4029907" lon="8.2782405"><ele>327.0</ele><time>2026-05-01T10:22:01.97Z</time></trkpt><trkpt lat="44.4029031" lon="8.2781737"><ele>327.0</ele><time>2026-05-01T10:22:02.969Z</time></trkpt><trkpt lat="44.4028116" lon="8.2781143"><ele>327.0</ele><time>2026-05-01T10:22:03.969Z</time></trkpt><trkpt lat="44.4027211" lon="8.2780535"><ele>327.0</ele><time>2026-05-01T10:22:04.969Z</time></trkpt><trkpt lat="44.4026273" lon="8.2779946"><ele>327.0</ele><time>2026-05-01T10:22:05.969Z</time></trkpt><trkpt lat="44.4025322" lon="8.2779302"><ele>327.0</ele><time>2026-05-01T10:22:06.969Z</time></trkpt><trkpt lat="44.4024301" lon="8.2778682"><ele>327.0</ele><time>2026-05-01T10:22:07.969Z</time></trkpt><trkpt lat="44.4023227" lon="8.277802"><ele>327.0</ele><time>2026-05-01T10:22:08.969Z</time></trkpt><trkpt lat="44.4022205" lon="8.2777353"><ele>327.0</ele><time>2026-05-01T10:22:09.969Z</time></trkpt><trkpt lat="44.4021239" lon="8.2776687"><ele>327.0</ele><time>2026-05-01T10:22:10.969Z</time></trkpt><trkpt lat="44.4020277" lon="8.2775987"><ele>327.0</ele><time>2026-05-01T10:22:11.97Z</time></trkpt><trkpt lat="44.4019338" lon="8.2775448"><ele>327.0</ele><time>2026-05-01T10:22:12.969Z</time></trkpt><trkpt lat="44.4018421" lon="8.2774913"><ele>327.0</ele><time>2026-05-01T10:22:13.969Z</time></trkpt><trkpt lat="44.4017593" lon="8.2774402"><ele>327.0</ele><time>2026-05-01T10:22:14.97Z</time></trkpt><trkpt lat="44.4016872" lon="8.2773913"><ele>327.0</ele><time>2026-05-01T10:22:15.969Z</time></trkpt><trkpt lat="44.4016275" lon="8.2773357"><ele>327.0</ele><time>2026-05-01T10:22:16.969Z</time></trkpt><trkpt lat="44.4015742" lon="8.2772825"><ele>327.0</ele><time>2026-05-01T10:22:17.969Z</time></trkpt><trkpt lat="44.4014806" lon="8.2771762"><ele>326.8</ele><time>2026-05-01T10:22:19.969Z</time></trkpt><trkpt lat="44.4013945" lon="8.2770699"><ele>326.6</ele><time>2026-05-01T10:22:21.969Z</time></trkpt><trkpt lat="44.4013234" lon="8.2769716"><ele>326.40000000000003</ele><time>2026-05-01T10:22:23.969Z</time></trkpt><trkpt lat="44.4012541" lon="8.2768932"><ele>326.20000000000005</ele><time>2026-05-01T10:22:25.969Z</time></trkpt><trkpt lat="44.401182" lon="8.2768119"><ele>326.0</ele><time>2026-05-01T10:22:27.969Z</time></trkpt><trkpt lat="44.4011096" lon="8.2767363"><ele>326.0</ele><time>2026-05-01T10:22:29.97Z</time></trkpt><trkpt lat="44.4010296" lon="8.2766202"><ele>326.0</ele><time>2026-05-01T10:22:31.969Z</time></trkpt><trkpt lat="44.40098" lon="8.2765488"><ele>326.0</ele><time>2026-05-01T10:22:32.97Z</time></trkpt><trkpt lat="44.4009243" lon="8.2764755"><ele>326.0</ele><time>2026-05-01T10:22:33.969Z</time></trkpt><trkpt lat="44.4008672" lon="8.2763951"><ele>326.0</ele><time>2026-05-01T10:22:34.97Z</time></trkpt><trkpt lat="44.4008104" lon="8.2763187"><ele>326.0</ele><time>2026-05-01T10:22:35.969Z</time></trkpt><trkpt lat="44.4007655" lon="8.2762514"><ele>325.8</ele><time>2026-05-01T10:22:36.97Z</time></trkpt><trkpt lat="44.4006873" lon="8.2761466"><ele>325.6</ele><time>2026-05-01T10:22:38.969Z</time></trkpt><trkpt lat="44.4006205" lon="8.2760687"><ele>325.4</ele><time>2026-05-01T10:22:40.97Z</time></trkpt><trkpt lat="44.4005686" lon="8.2759625"><ele>325.2</ele><time>2026-05-01T10:22:43.969Z</time></trkpt><trkpt lat="44.4005041" lon="8.2758877"><ele>325.0</ele><time>2026-05-01T10:22:46.97Z</time></trkpt><trkpt lat="44.4004201" lon="8.2758333"><ele>325.0</ele><time>2026-05-01T10:22:48.97Z</time></trkpt><trkpt lat="44.4003654" lon="8.2757869"><ele>325.0</ele><time>2026-05-01T10:22:49.969Z</time></trkpt><trkpt lat="44.4003037" lon="8.27572"><ele>325.0</ele><time>2026-05-01T10:22:50.969Z</time></trkpt><trkpt lat="44.4002365" lon="8.2756347"><ele>325.0</ele><time>2026-05-01T10:22:51.969Z</time></trkpt><trkpt lat="44.4001685" lon="8.2755481"><ele>325.0</ele><time>2026-05-01T10:22:52.969Z</time></trkpt><trkpt lat="44.4000971" lon="8.2754617"><ele>325.0</ele><time>2026-05-01T10:22:53.969Z</time></trkpt><trkpt lat="44.400029" lon="8.2753823"><ele>325.0</ele><time>2026-05-01T10:22:54.969Z</time></trkpt><trkpt lat="44.3999649" lon="8.2753038"><ele>325.0</ele><time>2026-05-01T10:22:55.97Z</time></trkpt><trkpt lat="44.399906" lon="8.2752235"><ele>325.0</ele><time>2026-05-01T10:22:56.969Z</time></trkpt><trkpt lat="44.3998546" lon="8.2751435"><ele>325.0</ele><time>2026-05-01T10:22:57.97Z</time></trkpt><trkpt lat="44.3998105" lon="8.2750592"><ele>325.0</ele><time>2026-05-01T10:22:58.969Z</time></trkpt><trkpt lat="44.3997818" lon="8.2749725"><ele>325.0</ele><time>2026-05-01T10:22:59.969Z</time></trkpt><trkpt lat="44.3997654" lon="8.2748089"><ele>325.6</ele><time>2026-05-01T10:23:01.969Z</time></trkpt><trkpt lat="44.3997842" lon="8.2747123"><ele>326.2</ele><time>2026-05-01T10:23:02.969Z</time></trkpt><trkpt lat="44.3998369" lon="8.274605"><ele>326.79999999999995</ele><time>2026-05-01T10:23:03.969Z</time></trkpt><trkpt lat="44.3999114" lon="8.274497"><ele>327.4</ele><time>2026-05-01T10:23:04.97Z</time></trkpt><trkpt lat="44.400001" lon="8.2743983"><ele>328.0</ele><time>2026-05-01T10:23:05.969Z</time></trkpt><trkpt lat="44.4000797" lon="8.2742921"><ele>328.0</ele><time>2026-05-01T10:23:06.969Z</time></trkpt><trkpt lat="44.4001566" lon="8.2741851"><ele>328.0</ele><time>2026-05-01T10:23:07.969Z</time></trkpt><trkpt lat="44.4002235" lon="8.2740726"><ele>328.0</ele><time>2026-05-01T10:23:08.969Z</time></trkpt><trkpt lat="44.4002927" lon="8.2739569"><ele>328.0</ele><time>2026-05-01T10:23:09.97Z</time></trkpt><trkpt lat="44.4003683" lon="8.2738422"><ele>328.0</ele><time>2026-05-01T10:23:10.969Z</time></trkpt><trkpt lat="44.4004465" lon="8.2737285"><ele>327.59999999999997</ele><time>2026-05-01T10:23:11.97Z</time></trkpt><trkpt lat="44.4005192" lon="8.2736142"><ele>327.2</ele><time>2026-05-01T10:23:12.969Z</time></trkpt><trkpt lat="44.4005924" lon="8.2735078"><ele>326.8</ele><time>2026-05-01T10:23:13.97Z</time></trkpt><trkpt lat="44.4006592" lon="8.2734287"><ele>326.4</ele><time>2026-05-01T10:23:14.969Z</time></trkpt><trkpt lat="44.4007211" lon="8.2733501"><ele>326.0</ele><time>2026-05-01T10:23:15.969Z</time></trkpt><trkpt lat="44.4007785" lon="8.2732718"><ele>326.0</ele><time>2026-05-01T10:23:16.969Z</time></trkpt><trkpt lat="44.4008312" lon="8.2731839"><ele>326.0</ele><time>2026-05-01T10:23:17.969Z</time></trkpt><trkpt lat="44.4008818" lon="8.2730928"><ele>326.0</ele><time>2026-05-01T10:23:18.969Z</time></trkpt><trkpt lat="44.4009382" lon="8.2729968"><ele>326.0</ele><time>2026-05-01T10:23:19.969Z</time></trkpt><trkpt lat="44.4009951" lon="8.272884"><ele>326.0</ele><time>2026-05-01T10:23:20.97Z</time></trkpt><trkpt lat="44.4010563" lon="8.2727604"><ele>325.5</ele><time>2026-05-01T10:23:21.969Z</time></trkpt><trkpt lat="44.4011233" lon="8.2726335"><ele>325.0</ele><time>2026-05-01T10:23:22.969Z</time></trkpt><trkpt lat="44.4011863" lon="8.2724824"><ele>324.5</ele><time>2026-05-01T10:23:23.97Z</time></trkpt><trkpt lat="44.4012637" lon="8.2723402"><ele>324.0</ele><time>2026-05-01T10:23:24.969Z</time></trkpt><trkpt lat="44.4013513" lon="8.2722041"><ele>323.5</ele><time>2026-05-01T10:23:25.97Z</time></trkpt><trkpt lat="44.4014342" lon="8.2720642"><ele>323.0</ele><time>2026-05-01T10:23:26.969Z</time></trkpt><trkpt lat="44.4015174" lon="8.2719292"><ele>322.5</ele><time>2026-05-01T10:23:27.97Z</time></trkpt><trkpt lat="44.4015934" lon="8.2717958"><ele>322.0</ele><time>2026-05-01T10:23:28.969Z</time></trkpt><trkpt lat="44.4016701" lon="8.2716602"><ele>322.0</ele><time>2026-05-01T10:23:29.969Z</time></trkpt><trkpt lat="44.4017469" lon="8.2715237"><ele>322.0</ele><time>2026-05-01T10:23:30.969Z</time></trkpt><trkpt lat="44.4018249" lon="8.2713899"><ele>322.0</ele><time>2026-05-01T10:23:31.97Z</time></trkpt><trkpt lat="44.4019025" lon="8.271261"><ele>322.0</ele><time>2026-05-01T10:23:32.969Z</time></trkpt><trkpt lat="44.4019937" lon="8.2711371"><ele>321.5</ele><time>2026-05-01T10:23:33.97Z</time></trkpt><trkpt lat="44.4020844" lon="8.2710315"><ele>321.0</ele><time>2026-05-01T10:23:34.969Z</time></trkpt><trkpt lat="44.4021825" lon="8.270939"><ele>320.5</ele><time>2026-05-01T10:23:35.97Z</time></trkpt><trkpt lat="44.4022788" lon="8.2708663"><ele>320.0</ele><time>2026-05-01T10:23:36.97Z</time></trkpt><trkpt lat="44.4023879" lon="8.270815"><ele>320.0</ele><time>2026-05-01T10:23:37.969Z</time></trkpt><trkpt lat="44.4024959" lon="8.2707598"><ele>320.0</ele><time>2026-05-01T10:23:38.969Z</time></trkpt><trkpt lat="44.4026082" lon="8.2706721"><ele>320.0</ele><time>2026-05-01T10:23:39.97Z</time></trkpt><trkpt lat="44.4027266" lon="8.2705975"><ele>320.0</ele><time>2026-05-01T10:23:40.969Z</time></trkpt><trkpt lat="44.402841" lon="8.2705218"><ele>320.75</ele><time>2026-05-01T10:23:41.97Z</time></trkpt><trkpt lat="44.4029538" lon="8.2704457"><ele>321.5</ele><time>2026-05-01T10:23:42.97Z</time></trkpt><trkpt lat="44.4030672" lon="8.2703713"><ele>322.25</ele><time>2026-05-01T10:23:43.97Z</time></trkpt><trkpt lat="44.403174" lon="8.2702914"><ele>323.0</ele><time>2026-05-01T10:23:44.969Z</time></trkpt><trkpt lat="44.403272" lon="8.2702078"><ele>323.5</ele><time>2026-05-01T10:23:45.97Z</time></trkpt><trkpt lat="44.4033623" lon="8.2701182"><ele>324.0</ele><time>2026-05-01T10:23:46.97Z</time></trkpt><trkpt lat="44.4034504" lon="8.2700213"><ele>324.5</ele><time>2026-05-01T10:23:47.97Z</time></trkpt><trkpt lat="44.4035371" lon="8.269917"><ele>325.0</ele><time>2026-05-01T10:23:48.969Z</time></trkpt><trkpt lat="44.403634" lon="8.2697954"><ele>325.25</ele><time>2026-05-01T10:23:49.97Z</time></trkpt><trkpt lat="44.4037334" lon="8.269676"><ele>325.5</ele><time>2026-05-01T10:23:50.969Z</time></trkpt><trkpt lat="44.4038289" lon="8.269566"><ele>325.75</ele><time>2026-05-01T10:23:51.97Z</time></trkpt><trkpt lat="44.403913" lon="8.2694711"><ele>326.0</ele><time>2026-05-01T10:23:52.969Z</time></trkpt><trkpt lat="44.4040005" lon="8.2693929"><ele>326.0</ele><time>2026-05-01T10:23:53.969Z</time></trkpt><trkpt lat="44.4040814" lon="8.2693166"><ele>326.0</ele><time>2026-05-01T10:23:54.969Z</time></trkpt><trkpt lat="44.404146" lon="8.2692506"><ele>326.0</ele><time>2026-05-01T10:23:55.969Z</time></trkpt><trkpt lat="44.404206" lon="8.2691935"><ele>326.0</ele><time>2026-05-01T10:23:56.969Z</time></trkpt><trkpt lat="44.4042601" lon="8.269142"><ele>326.0</ele><time>2026-05-01T10:23:57.97Z</time></trkpt><trkpt lat="44.4043107" lon="8.2690845"><ele>326.0</ele><time>2026-05-01T10:23:58.969Z</time></trkpt><trkpt lat="44.4043874" lon="8.2689969"><ele>325.8</ele><time>2026-05-01T10:24:00.97Z</time></trkpt><trkpt lat="44.4044756" lon="8.2689256"><ele>325.6</ele><time>2026-05-01T10:24:03.97Z</time></trkpt><trkpt lat="44.4045814" lon="8.2688633"><ele>325.4</ele><time>2026-05-01T10:24:05.969Z</time></trkpt><trkpt lat="44.4046991" lon="8.2688146"><ele>325.2</ele><time>2026-05-01T10:24:07.969Z</time></trkpt><trkpt lat="44.4047989" lon="8.268784"><ele>325.0</ele><time>2026-05-01T10:24:09.97Z</time></trkpt><trkpt lat="44.4048667" lon="8.268741"><ele>324.8333333333333</ele><time>2026-05-01T10:24:11.97Z</time></trkpt><trkpt lat="44.4048946" lon="8.2686306"><ele>324.66666666666663</ele><time>2026-05-01T10:24:13.969Z</time></trkpt><trkpt lat="44.4049116" lon="8.2685448"><ele>324.5</ele><time>2026-05-01T10:24:14.97Z</time></trkpt><trkpt lat="44.4049392" lon="8.2684477"><ele>324.3333333333333</ele><time>2026-05-01T10:24:15.969Z</time></trkpt><trkpt lat="44.4049799" lon="8.2683255"><ele>324.1666666666667</ele><time>2026-05-01T10:24:16.97Z</time></trkpt><trkpt lat="44.4050217" lon="8.2681899"><ele>324.0</ele><time>2026-05-01T10:24:17.969Z</time></trkpt><trkpt lat="44.4050691" lon="8.2680359"><ele>324.0</ele><time>2026-05-01T10:24:18.97Z</time></trkpt><trkpt lat="44.405116" lon="8.2678671"><ele>324.0</ele><time>2026-05-01T10:24:19.969Z</time></trkpt><trkpt lat="44.405165" lon="8.267693"><ele>324.0</ele><time>2026-05-01T10:24:20.97Z</time></trkpt><trkpt lat="44.4052139" lon="8.2675146"><ele>324.0</ele><time>2026-05-01T10:24:21.97Z</time></trkpt><trkpt lat="44.4052587" lon="8.2673385"><ele>324.5</ele><time>2026-05-01T10:24:22.97Z</time></trkpt><trkpt lat="44.4052989" lon="8.2671693"><ele>325.0</ele><time>2026-05-01T10:24:23.969Z</time></trkpt><trkpt lat="44.4053408" lon="8.2670211"><ele>325.5</ele><time>2026-05-01T10:24:24.969Z</time></trkpt><trkpt lat="44.4053884" lon="8.2668804"><ele>326.0</ele><time>2026-05-01T10:24:25.969Z</time></trkpt><trkpt lat="44.4054341" lon="8.2667448"><ele>326.0</ele><time>2026-05-01T10:24:26.969Z</time></trkpt><trkpt lat="44.4054766" lon="8.2666077"><ele>326.0</ele><time>2026-05-01T10:24:27.97Z</time></trkpt><trkpt lat="44.4055158" lon="8.2664603"><ele>326.0</ele><time>2026-05-01T10:24:28.97Z</time></trkpt><trkpt lat="44.4055606" lon="8.2663113"><ele>326.0</ele><time>2026-05-01T10:24:29.969Z</time></trkpt><trkpt lat="44.4056149" lon="8.2661648"><ele>326.0</ele><time>2026-05-01T10:24:30.969Z</time></trkpt><trkpt lat="44.4056738" lon="8.266026"><ele>326.0</ele><time>2026-05-01T10:24:31.969Z</time></trkpt><trkpt lat="44.4057542" lon="8.2658902"><ele>326.0</ele><time>2026-05-01T10:24:32.969Z</time></trkpt><trkpt lat="44.4058458" lon="8.2657579"><ele>326.0</ele><time>2026-05-01T10:24:33.969Z</time></trkpt><trkpt lat="44.4059558" lon="8.2656371"><ele>326.75</ele><time>2026-05-01T10:24:34.97Z</time></trkpt><trkpt lat="44.4060642" lon="8.2655171"><ele>327.5</ele><time>2026-05-01T10:24:35.969Z</time></trkpt><trkpt lat="44.4061674" lon="8.2653862"><ele>328.25</ele><time>2026-05-01T10:24:36.969Z</time></trkpt><trkpt lat="44.4062614" lon="8.2652677"><ele>329.0</ele><time>2026-05-01T10:24:37.969Z</time></trkpt><trkpt lat="44.4063498" lon="8.2651474"><ele>329.0</ele><time>2026-05-01T10:24:38.97Z</time></trkpt><trkpt lat="44.4064354" lon="8.2650243"><ele>329.0</ele><time>2026-05-01T10:24:39.97Z</time></trkpt><trkpt lat="44.4065176" lon="8.2649022"><ele>329.0</ele><time>2026-05-01T10:24:40.97Z</time></trkpt><trkpt lat="44.4065946" lon="8.2647714"><ele>329.0</ele><time>2026-05-01T10:24:41.97Z</time></trkpt><trkpt lat="44.4066716" lon="8.2646433"><ele>329.0</ele><time>2026-05-01T10:24:42.969Z</time></trkpt><trkpt lat="44.406737" lon="8.264505"><ele>329.0</ele><time>2026-05-01T10:24:43.97Z</time></trkpt><trkpt lat="44.406764" lon="8.2643551"><ele>329.0</ele><time>2026-05-01T10:24:44.97Z</time></trkpt><trkpt lat="44.4067588" lon="8.2641824"><ele>329.0</ele><time>2026-05-01T10:24:45.969Z</time></trkpt><trkpt lat="44.4067313" lon="8.2639983"><ele>328.5</ele><time>2026-05-01T10:24:46.97Z</time></trkpt><trkpt lat="44.4067028" lon="8.2638071"><ele>328.0</ele><time>2026-05-01T10:24:47.969Z</time></trkpt><trkpt lat="44.4066805" lon="8.263602"><ele>327.5</ele><time>2026-05-01T10:24:48.97Z</time></trkpt><trkpt lat="44.4066651" lon="8.2634111"><ele>327.0</ele><time>2026-05-01T10:24:49.969Z</time></trkpt><trkpt lat="44.406663" lon="8.263216"><ele>327.0</ele><time>2026-05-01T10:24:50.969Z</time></trkpt><trkpt lat="44.4066681" lon="8.2630295"><ele>327.0</ele><time>2026-05-01T10:24:51.97Z</time></trkpt><trkpt lat="44.406673" lon="8.262844"><ele>327.0</ele><time>2026-05-01T10:24:52.969Z</time></trkpt><trkpt lat="44.4066822" lon="8.2626717"><ele>327.0</ele><time>2026-05-01T10:24:53.969Z</time></trkpt><trkpt lat="44.4066919" lon="8.2625129"><ele>327.0</ele><time>2026-05-01T10:24:54.97Z</time></trkpt><trkpt lat="44.406702" lon="8.262359"><ele>327.0</ele><time>2026-05-01T10:24:55.969Z</time></trkpt><trkpt lat="44.4067106" lon="8.2622046"><ele>327.0</ele><time>2026-05-01T10:24:56.97Z</time></trkpt><trkpt lat="44.4067165" lon="8.2620507"><ele>327.0</ele><time>2026-05-01T10:24:57.969Z</time></trkpt><trkpt lat="44.4067236" lon="8.2618977"><ele>327.0</ele><time>2026-05-01T10:24:58.969Z</time></trkpt><trkpt lat="44.4067304" lon="8.2617439"><ele>327.75</ele><time>2026-05-01T10:24:59.97Z</time></trkpt><trkpt lat="44.4067452" lon="8.2615929"><ele>328.5</ele><time>2026-05-01T10:25:00.969Z</time></trkpt><trkpt lat="44.4067768" lon="8.2614378"><ele>329.25</ele><time>2026-05-01T10:25:01.97Z</time></trkpt><trkpt lat="44.406826" lon="8.2612811"><ele>330.0</ele><time>2026-05-01T10:25:02.97Z</time></trkpt><trkpt lat="44.4068814" lon="8.2611346"><ele>330.5</ele><time>2026-05-01T10:25:03.969Z</time></trkpt><trkpt lat="44.4069371" lon="8.2609991"><ele>331.0</ele><time>2026-05-01T10:25:04.969Z</time></trkpt><trkpt lat="44.4069793" lon="8.2608608"><ele>331.5</ele><time>2026-05-01T10:25:05.969Z</time></trkpt><trkpt lat="44.4070067" lon="8.2606931"><ele>332.0</ele><time>2026-05-01T10:25:06.969Z</time></trkpt><trkpt lat="44.4070096" lon="8.2605183"><ele>332.5</ele><time>2026-05-01T10:25:07.969Z</time></trkpt><trkpt lat="44.4070091" lon="8.2603404"><ele>333.0</ele><time>2026-05-01T10:25:08.97Z</time></trkpt><trkpt lat="44.4069994" lon="8.2601656"><ele>333.5</ele><time>2026-05-01T10:25:09.968Z</time></trkpt><trkpt lat="44.4069923" lon="8.2600014"><ele>334.0</ele><time>2026-05-01T10:25:10.968Z</time></trkpt><trkpt lat="44.4069907" lon="8.2598459"><ele>333.79999999999995</ele><time>2026-05-01T10:25:11.968Z</time></trkpt><trkpt lat="44.4069897" lon="8.2596987"><ele>333.59999999999997</ele><time>2026-05-01T10:25:12.968Z</time></trkpt><trkpt lat="44.4069915" lon="8.259561"><ele>333.4</ele><time>2026-05-01T10:25:13.969Z</time></trkpt><trkpt lat="44.4070006" lon="8.2594322"><ele>333.2</ele><time>2026-05-01T10:25:14.968Z</time></trkpt><trkpt lat="44.4070231" lon="8.259313"><ele>333.0</ele><time>2026-05-01T10:25:15.968Z</time></trkpt><trkpt lat="44.4070517" lon="8.259193"><ele>333.0</ele><time>2026-05-01T10:25:16.968Z</time></trkpt><trkpt lat="44.4070847" lon="8.2590735"><ele>333.0</ele><time>2026-05-01T10:25:17.969Z</time></trkpt><trkpt lat="44.4071264" lon="8.2589538"><ele>333.0</ele><time>2026-05-01T10:25:18.969Z</time></trkpt><trkpt lat="44.4071773" lon="8.2588324"><ele>333.0</ele><time>2026-05-01T10:25:19.969Z</time></trkpt><trkpt lat="44.4072306" lon="8.2587035"><ele>333.0</ele><time>2026-05-01T10:25:20.968Z</time></trkpt><trkpt lat="44.4072733" lon="8.2585702"><ele>333.3333333333333</ele><time>2026-05-01T10:25:21.968Z</time></trkpt><trkpt lat="44.4072995" lon="8.2584397"><ele>333.6666666666667</ele><time>2026-05-01T10:25:22.968Z</time></trkpt><trkpt lat="44.407312" lon="8.2583203"><ele>334.0</ele><time>2026-05-01T10:25:23.968Z</time></trkpt><trkpt lat="44.4073204" lon="8.2582082"><ele>334.33333333333337</ele><time>2026-05-01T10:25:24.968Z</time></trkpt><trkpt lat="44.4073231" lon="8.2581016"><ele>334.6666666666667</ele><time>2026-05-01T10:25:25.968Z</time></trkpt><trkpt lat="44.4073088" lon="8.2580035"><ele>335.0</ele><time>2026-05-01T10:25:26.969Z</time></trkpt><trkpt lat="44.4072771" lon="8.2579003"><ele>335.2</ele><time>2026-05-01T10:25:27.969Z</time></trkpt><trkpt lat="44.4072176" lon="8.2578014"><ele>335.4</ele><time>2026-05-01T10:25:28.968Z</time></trkpt><trkpt lat="44.4071443" lon="8.2576975"><ele>335.6</ele><time>2026-05-01T10:25:29.968Z</time></trkpt><trkpt lat="44.407068" lon="8.2575759"><ele>335.8</ele><time>2026-05-01T10:25:30.969Z</time></trkpt><trkpt lat="44.4069931" lon="8.2574406"><ele>336.0</ele><time>2026-05-01T10:25:31.968Z</time></trkpt><trkpt lat="44.4069206" lon="8.2572865"><ele>338.25</ele><time>2026-05-01T10:25:32.968Z</time></trkpt><trkpt lat="44.4068669" lon="8.2571173"><ele>340.5</ele><time>2026-05-01T10:25:33.969Z</time></trkpt><trkpt lat="44.4068461" lon="8.256928"><ele>342.75</ele><time>2026-05-01T10:25:34.968Z</time></trkpt><trkpt lat="44.4068562" lon="8.2567403"><ele>345.0</ele><time>2026-05-01T10:25:35.968Z</time></trkpt><trkpt lat="44.4068898" lon="8.2565512"><ele>347.75</ele><time>2026-05-01T10:25:36.968Z</time></trkpt><trkpt lat="44.4069388" lon="8.2563718"><ele>350.5</ele><time>2026-05-01T10:25:37.968Z</time></trkpt><trkpt lat="44.406986" lon="8.2562042"><ele>353.25</ele><time>2026-05-01T10:25:38.968Z</time></trkpt><trkpt lat="44.407036" lon="8.2560354"><ele>356.0</ele><time>2026-05-01T10:25:39.969Z</time></trkpt><trkpt lat="44.4070778" lon="8.2558645"><ele>356.0</ele><time>2026-05-01T10:25:40.969Z</time></trkpt><trkpt lat="44.407115" lon="8.2557039"><ele>356.0</ele><time>2026-05-01T10:25:41.968Z</time></trkpt><trkpt lat="44.4071498" lon="8.2555436"><ele>356.0</ele><time>2026-05-01T10:25:42.969Z</time></trkpt><trkpt lat="44.4071948" lon="8.2553787"><ele>356.0</ele><time>2026-05-01T10:25:43.968Z</time></trkpt><trkpt lat="44.4072382" lon="8.2552175"><ele>354.25</ele><time>2026-05-01T10:25:44.968Z</time></trkpt><trkpt lat="44.4072893" lon="8.2550535"><ele>352.5</ele><time>2026-05-01T10:25:45.968Z</time></trkpt><trkpt lat="44.4073315" lon="8.254886"><ele>350.75</ele><time>2026-05-01T10:25:46.968Z</time></trkpt><trkpt lat="44.4073605" lon="8.2547211"><ele>349.0</ele><time>2026-05-01T10:25:47.969Z</time></trkpt><trkpt lat="44.4073726" lon="8.2545523"><ele>349.0</ele><time>2026-05-01T10:25:48.968Z</time></trkpt><trkpt lat="44.4073753" lon="8.2543813"><ele>349.0</ele><time>2026-05-01T10:25:49.968Z</time></trkpt><trkpt lat="44.407369" lon="8.2542002"><ele>349.0</ele><time>2026-05-01T10:25:50.968Z</time></trkpt><trkpt lat="44.4073668" lon="8.2540193"><ele>349.0</ele><time>2026-05-01T10:25:51.968Z</time></trkpt><trkpt lat="44.4073943" lon="8.2538449"><ele>351.5</ele><time>2026-05-01T10:25:52.968Z</time></trkpt><trkpt lat="44.4074302" lon="8.253674"><ele>354.0</ele><time>2026-05-01T10:25:53.968Z</time></trkpt><trkpt lat="44.4074578" lon="8.2534954"><ele>356.5</ele><time>2026-05-01T10:25:54.968Z</time></trkpt><trkpt lat="44.4074691" lon="8.2533121"><ele>359.0</ele><time>2026-05-01T10:25:55.968Z</time></trkpt><trkpt lat="44.4074717" lon="8.2531441"><ele>361.4</ele><time>2026-05-01T10:25:56.969Z</time></trkpt><trkpt lat="44.4074615" lon="8.2529844"><ele>363.79999999999995</ele><time>2026-05-01T10:25:57.969Z</time></trkpt><trkpt lat="44.4074486" lon="8.2528416"><ele>366.20000000000005</ele><time>2026-05-01T10:25:58.968Z</time></trkpt><trkpt lat="44.4074455" lon="8.25271"><ele>368.6</ele><time>2026-05-01T10:25:59.968Z</time></trkpt><trkpt lat="44.4074527" lon="8.2525757"><ele>371.0</ele><time>2026-05-01T10:26:00.969Z</time></trkpt><trkpt lat="44.4074757" lon="8.2524389"><ele>371.0</ele><time>2026-05-01T10:26:01.968Z</time></trkpt><trkpt lat="44.4075149" lon="8.2522943"><ele>371.0</ele><time>2026-05-01T10:26:02.968Z</time></trkpt><trkpt lat="44.4075558" lon="8.2521538"><ele>371.0</ele><time>2026-05-01T10:26:03.968Z</time></trkpt><trkpt lat="44.4075927" lon="8.2520069"><ele>371.0</ele><time>2026-05-01T10:26:04.969Z</time></trkpt><trkpt lat="44.4076199" lon="8.2518424"><ele>370.75</ele><time>2026-05-01T10:26:05.968Z</time></trkpt><trkpt lat="44.4076302" lon="8.2516787"><ele>370.5</ele><time>2026-05-01T10:26:06.968Z</time></trkpt><trkpt lat="44.40762" lon="8.2515173"><ele>370.25</ele><time>2026-05-01T10:26:07.969Z</time></trkpt><trkpt lat="44.4075918" lon="8.2513653"><ele>370.0</ele><time>2026-05-01T10:26:08.969Z</time></trkpt><trkpt lat="44.4075494" lon="8.2512301"><ele>370.0</ele><time>2026-05-01T10:26:09.969Z</time></trkpt><trkpt lat="44.4074893" lon="8.2511141"><ele>370.0</ele><time>2026-05-01T10:26:10.969Z</time></trkpt><trkpt lat="44.4074015" lon="8.251019"><ele>370.0</ele><time>2026-05-01T10:26:11.968Z</time></trkpt><trkpt lat="44.4073033" lon="8.2509257"><ele>370.0</ele><time>2026-05-01T10:26:12.969Z</time></trkpt><trkpt lat="44.4072175" lon="8.2508161"><ele>370.0</ele><time>2026-05-01T10:26:13.968Z</time></trkpt><trkpt lat="44.4071462" lon="8.2506749"><ele>379.25</ele><time>2026-05-01T10:26:14.969Z</time></trkpt><trkpt lat="44.4070968" lon="8.2505035"><ele>388.5</ele><time>2026-05-01T10:26:15.968Z</time></trkpt><trkpt lat="44.4070555" lon="8.2503214"><ele>397.75</ele><time>2026-05-01T10:26:16.968Z</time></trkpt><trkpt lat="44.4070147" lon="8.2501389"><ele>407.0</ele><time>2026-05-01T10:26:17.969Z</time></trkpt><trkpt lat="44.4069898" lon="8.2499665"><ele>407.0</ele><time>2026-05-01T10:26:18.969Z</time></trkpt><trkpt lat="44.4069857" lon="8.2498022"><ele>407.0</ele><time>2026-05-01T10:26:19.968Z</time></trkpt><trkpt lat="44.4070141" lon="8.2496418"><ele>407.0</ele><time>2026-05-01T10:26:20.968Z</time></trkpt><trkpt lat="44.4070606" lon="8.2494792"><ele>407.0</ele><time>2026-05-01T10:26:21.968Z</time></trkpt><trkpt lat="44.4071199" lon="8.2493162"><ele>403.5</ele><time>2026-05-01T10:26:22.969Z</time></trkpt><trkpt lat="44.4072005" lon="8.2491568"><ele>400.0</ele><time>2026-05-01T10:26:23.969Z</time></trkpt><trkpt lat="44.4072839" lon="8.2490008"><ele>396.5</ele><time>2026-05-01T10:26:24.969Z</time></trkpt><trkpt lat="44.4073693" lon="8.2488582"><ele>393.0</ele><time>2026-05-01T10:26:25.968Z</time></trkpt><trkpt lat="44.4074468" lon="8.2487365"><ele>393.0</ele><time>2026-05-01T10:26:26.968Z</time></trkpt><trkpt lat="44.4075115" lon="8.2486221"><ele>393.0</ele><time>2026-05-01T10:26:27.969Z</time></trkpt><trkpt lat="44.4075603" lon="8.2485172"><ele>393.0</ele><time>2026-05-01T10:26:28.968Z</time></trkpt><trkpt lat="44.4075912" lon="8.2484131"><ele>393.0</ele><time>2026-05-01T10:26:29.968Z</time></trkpt><trkpt lat="44.4076021" lon="8.2482908"><ele>393.0</ele><time>2026-05-01T10:26:30.968Z</time></trkpt><trkpt lat="44.4075855" lon="8.2481555"><ele>392.0</ele><time>2026-05-01T10:26:31.968Z</time></trkpt><trkpt lat="44.4075377" lon="8.2480155"><ele>391.0</ele><time>2026-05-01T10:26:32.968Z</time></trkpt><trkpt lat="44.4074748" lon="8.2478565"><ele>390.0</ele><time>2026-05-01T10:26:33.969Z</time></trkpt><trkpt lat="44.4074021" lon="8.2476863"><ele>389.0</ele><time>2026-05-01T10:26:34.968Z</time></trkpt><trkpt lat="44.4073338" lon="8.2475184"><ele>389.0</ele><time>2026-05-01T10:26:35.968Z</time></trkpt><trkpt lat="44.4072712" lon="8.2473567"><ele>389.0</ele><time>2026-05-01T10:26:36.968Z</time></trkpt><trkpt lat="44.4072199" lon="8.247196"><ele>389.0</ele><time>2026-05-01T10:26:37.969Z</time></trkpt><trkpt lat="44.407184" lon="8.2470281"><ele>389.0</ele><time>2026-05-01T10:26:38.969Z</time></trkpt><trkpt lat="44.4071764" lon="8.2468552"><ele>389.0</ele><time>2026-05-01T10:26:39.968Z</time></trkpt><trkpt lat="44.4071928" lon="8.2466813"><ele>389.0</ele><time>2026-05-01T10:26:40.968Z</time></trkpt><trkpt lat="44.4072282" lon="8.2465015"><ele>389.0</ele><time>2026-05-01T10:26:41.968Z</time></trkpt><trkpt lat="44.4072581" lon="8.2463275"><ele>389.0</ele><time>2026-05-01T10:26:42.969Z</time></trkpt><trkpt lat="44.4072775" lon="8.2461575"><ele>389.4</ele><time>2026-05-01T10:26:43.969Z</time></trkpt><trkpt lat="44.4072855" lon="8.2460034"><ele>389.79999999999995</ele><time>2026-05-01T10:26:44.968Z</time></trkpt><trkpt lat="44.4072802" lon="8.2458643"><ele>390.20000000000005</ele><time>2026-05-01T10:26:45.968Z</time></trkpt><trkpt lat="44.4072683" lon="8.2457422"><ele>390.6</ele><time>2026-05-01T10:26:46.968Z</time></trkpt><trkpt lat="44.4072443" lon="8.2456151"><ele>391.0</ele><time>2026-05-01T10:26:47.969Z</time></trkpt><trkpt lat="44.4072132" lon="8.2454832"><ele>391.0</ele><time>2026-05-01T10:26:48.969Z</time></trkpt><trkpt lat="44.4071736" lon="8.2453566"><ele>391.0</ele><time>2026-05-01T10:26:49.968Z</time></trkpt><trkpt lat="44.4071308" lon="8.2452286"><ele>391.0</ele><time>2026-05-01T10:26:50.968Z</time></trkpt><trkpt lat="44.4070778" lon="8.2451056"><ele>391.0</ele><time>2026-05-01T10:26:51.968Z</time></trkpt><trkpt lat="44.4070145" lon="8.2449912"><ele>391.0</ele><time>2026-05-01T10:26:52.969Z</time></trkpt><trkpt lat="44.4069385" lon="8.2448719"><ele>396.0</ele><time>2026-05-01T10:26:53.969Z</time></trkpt><trkpt lat="44.4068664" lon="8.2447392"><ele>401.0</ele><time>2026-05-01T10:26:54.968Z</time></trkpt><trkpt lat="44.406798" lon="8.2446168"><ele>406.0</ele><time>2026-05-01T10:26:55.968Z</time></trkpt><trkpt lat="44.4067124" lon="8.2445086"><ele>411.0</ele><time>2026-05-01T10:26:56.969Z</time></trkpt><trkpt lat="44.4066192" lon="8.2444219"><ele>411.0</ele><time>2026-05-01T10:26:57.968Z</time></trkpt><trkpt lat="44.4065203" lon="8.2443602"><ele>411.0</ele><time>2026-05-01T10:26:58.968Z</time></trkpt><trkpt lat="44.406416" lon="8.244316"><ele>411.0</ele><time>2026-05-01T10:26:59.969Z</time></trkpt><trkpt lat="44.4063023" lon="8.2442774"><ele>411.0</ele><time>2026-05-01T10:27:00.969Z</time></trkpt><trkpt lat="44.406194" lon="8.2442346"><ele>411.0</ele><time>2026-05-01T10:27:01.968Z</time></trkpt><trkpt lat="44.4060907" lon="8.2441759"><ele>412.75</ele><time>2026-05-01T10:27:02.968Z</time></trkpt><trkpt lat="44.4059908" lon="8.2441042"><ele>414.5</ele><time>2026-05-01T10:27:03.968Z</time></trkpt><trkpt lat="44.4058995" lon="8.2440125"><ele>416.25</ele><time>2026-05-01T10:27:04.968Z</time></trkpt><trkpt lat="44.4058181" lon="8.2438796"><ele>418.0</ele><time>2026-05-01T10:27:05.968Z</time></trkpt><trkpt lat="44.4057537" lon="8.2437346"><ele>418.75</ele><time>2026-05-01T10:27:06.969Z</time></trkpt><trkpt lat="44.4057163" lon="8.2435678"><ele>419.5</ele><time>2026-05-01T10:27:07.969Z</time></trkpt><trkpt lat="44.4056924" lon="8.2433908"><ele>420.25</ele><time>2026-05-01T10:27:08.968Z</time></trkpt><trkpt lat="44.4056867" lon="8.2432166"><ele>421.0</ele><time>2026-05-01T10:27:09.968Z</time></trkpt><trkpt lat="44.4057079" lon="8.2430474"><ele>421.0</ele><time>2026-05-01T10:27:10.968Z</time></trkpt><trkpt lat="44.4057591" lon="8.2428968"><ele>421.0</ele><time>2026-05-01T10:27:11.968Z</time></trkpt><trkpt lat="44.4058349" lon="8.2427615"><ele>421.0</ele><time>2026-05-01T10:27:12.969Z</time></trkpt><trkpt lat="44.4059222" lon="8.2426298"><ele>421.0</ele><time>2026-05-01T10:27:13.968Z</time></trkpt><trkpt lat="44.4060087" lon="8.2424999"><ele>421.0</ele><time>2026-05-01T10:27:14.968Z</time></trkpt><trkpt lat="44.4060887" lon="8.2423644"><ele>421.0</ele><time>2026-05-01T10:27:15.969Z</time></trkpt><trkpt lat="44.4061607" lon="8.2422188"><ele>421.0</ele><time>2026-05-01T10:27:16.968Z</time></trkpt><trkpt lat="44.4062139" lon="8.2420721"><ele>421.0</ele><time>2026-05-01T10:27:17.968Z</time></trkpt><trkpt lat="44.4062594" lon="8.241917"><ele>420.75</ele><time>2026-05-01T10:27:18.968Z</time></trkpt><trkpt lat="44.4063027" lon="8.2417545"><ele>420.5</ele><time>2026-05-01T10:27:19.968Z</time></trkpt><trkpt lat="44.4063425" lon="8.2415836"><ele>420.25</ele><time>2026-05-01T10:27:20.968Z</time></trkpt><trkpt lat="44.4063855" lon="8.2414129"><ele>420.0</ele><time>2026-05-01T10:27:21.969Z</time></trkpt><trkpt lat="44.4064338" lon="8.2412482"><ele>424.5</ele><time>2026-05-01T10:27:22.968Z</time></trkpt><trkpt lat="44.4064933" lon="8.2410939"><ele>429.0</ele><time>2026-05-01T10:27:23.968Z</time></trkpt><trkpt lat="44.4065655" lon="8.2409477"><ele>433.5</ele><time>2026-05-01T10:27:24.968Z</time></trkpt><trkpt lat="44.4066448" lon="8.2408174"><ele>438.0</ele><time>2026-05-01T10:27:25.968Z</time></trkpt><trkpt lat="44.4067342" lon="8.240688"><ele>440.0</ele><time>2026-05-01T10:27:26.968Z</time></trkpt><trkpt lat="44.4068338" lon="8.2405781"><ele>442.0</ele><time>2026-05-01T10:27:27.968Z</time></trkpt><trkpt lat="44.4069563" lon="8.2405052"><ele>444.0</ele><time>2026-05-01T10:27:28.968Z</time></trkpt><trkpt lat="44.4070878" lon="8.2404522"><ele>446.0</ele><time>2026-05-01T10:27:29.968Z</time></trkpt><trkpt lat="44.4072175" lon="8.2404019"><ele>447.0</ele><time>2026-05-01T10:27:30.968Z</time></trkpt><trkpt lat="44.4073361" lon="8.2403455"><ele>448.0</ele><time>2026-05-01T10:27:31.968Z</time></trkpt><trkpt lat="44.4074426" lon="8.2402644"><ele>449.0</ele><time>2026-05-01T10:27:32.969Z</time></trkpt><trkpt lat="44.4075236" lon="8.2401619"><ele>450.0</ele><time>2026-05-01T10:27:33.968Z</time></trkpt><trkpt lat="44.4075752" lon="8.2400185"><ele>450.0</ele><time>2026-05-01T10:27:34.969Z</time></trkpt><trkpt lat="44.4075855" lon="8.2398471"><ele>450.0</ele><time>2026-05-01T10:27:35.968Z</time></trkpt><trkpt lat="44.4075761" lon="8.2396689"><ele>450.0</ele><time>2026-05-01T10:27:36.968Z</time></trkpt><trkpt lat="44.4075622" lon="8.2394974"><ele>450.0</ele><time>2026-05-01T10:27:37.969Z</time></trkpt><trkpt lat="44.4075434" lon="8.2393393"><ele>452.0</ele><time>2026-05-01T10:27:38.968Z</time></trkpt><trkpt lat="44.4075133" lon="8.2392029"><ele>454.0</ele><time>2026-05-01T10:27:39.968Z</time></trkpt><trkpt lat="44.407454" lon="8.2390904"><ele>456.0</ele><time>2026-05-01T10:27:40.968Z</time></trkpt><trkpt lat="44.4073694" lon="8.2390025"><ele>458.0</ele><time>2026-05-01T10:27:41.969Z</time></trkpt><trkpt lat="44.4072763" lon="8.2389201"><ele>460.0</ele><time>2026-05-01T10:27:42.968Z</time></trkpt><trkpt lat="44.4071825" lon="8.2388177"><ele>460.25</ele><time>2026-05-01T10:27:43.969Z</time></trkpt><trkpt lat="44.4071043" lon="8.2386846"><ele>460.5</ele><time>2026-05-01T10:27:44.969Z</time></trkpt><trkpt lat="44.4070564" lon="8.2385343"><ele>460.75</ele><time>2026-05-01T10:27:45.969Z</time></trkpt><trkpt lat="44.4070271" lon="8.2383642"><ele>461.0</ele><time>2026-05-01T10:27:46.969Z</time></trkpt><trkpt lat="44.4070056" lon="8.2381799"><ele>464.25</ele><time>2026-05-01T10:27:47.968Z</time></trkpt><trkpt lat="44.4069805" lon="8.2379957"><ele>467.5</ele><time>2026-05-01T10:27:48.969Z</time></trkpt><trkpt lat="44.4069452" lon="8.2378206"><ele>470.75</ele><time>2026-05-01T10:27:49.968Z</time></trkpt><trkpt lat="44.4069068" lon="8.237659"><ele>474.0</ele><time>2026-05-01T10:27:50.968Z</time></trkpt><trkpt lat="44.4068622" lon="8.2375081"><ele>474.0</ele><time>2026-05-01T10:27:51.968Z</time></trkpt><trkpt lat="44.4068054" lon="8.2373693"><ele>474.0</ele><time>2026-05-01T10:27:52.968Z</time></trkpt><trkpt lat="44.4067398" lon="8.2372497"><ele>474.0</ele><time>2026-05-01T10:27:53.968Z</time></trkpt><trkpt lat="44.4066548" lon="8.2371398"><ele>474.0</ele><time>2026-05-01T10:27:54.969Z</time></trkpt><trkpt lat="44.4065558" lon="8.2370444"><ele>476.5</ele><time>2026-05-01T10:27:55.969Z</time></trkpt><trkpt lat="44.4064439" lon="8.2369693"><ele>479.0</ele><time>2026-05-01T10:27:56.968Z</time></trkpt><trkpt lat="44.4063275" lon="8.2369143"><ele>481.5</ele><time>2026-05-01T10:27:57.968Z</time></trkpt><trkpt lat="44.4062077" lon="8.2368692"><ele>484.0</ele><time>2026-05-01T10:27:58.968Z</time></trkpt><trkpt lat="44.4060822" lon="8.2368453"><ele>484.0</ele><time>2026-05-01T10:27:59.968Z</time></trkpt><trkpt lat="44.4059555" lon="8.2368296"><ele>484.0</ele><time>2026-05-01T10:28:00.968Z</time></trkpt><trkpt lat="44.4058344" lon="8.2368006"><ele>484.0</ele><time>2026-05-01T10:28:01.968Z</time></trkpt><trkpt lat="44.4057105" lon="8.2367731"><ele>484.0</ele><time>2026-05-01T10:28:02.968Z</time></trkpt><trkpt lat="44.4055805" lon="8.2367488"><ele>484.75</ele><time>2026-05-01T10:28:03.968Z</time></trkpt><trkpt lat="44.4054455" lon="8.2367275"><ele>485.5</ele><time>2026-05-01T10:28:04.969Z</time></trkpt><trkpt lat="44.4053127" lon="8.2367111"><ele>486.25</ele><time>2026-05-01T10:28:05.968Z</time></trkpt><trkpt lat="44.4051819" lon="8.236691"><ele>487.0</ele><time>2026-05-01T10:28:06.969Z</time></trkpt><trkpt lat="44.4050556" lon="8.2366696"><ele>487.0</ele><time>2026-05-01T10:28:07.969Z</time></trkpt><trkpt lat="44.4049303" lon="8.2366435"><ele>487.0</ele><time>2026-05-01T10:28:08.969Z</time></trkpt><trkpt lat="44.4048113" lon="8.2366061"><ele>487.0</ele><time>2026-05-01T10:28:09.968Z</time></trkpt><trkpt lat="44.4046868" lon="8.2365506"><ele>487.0</ele><time>2026-05-01T10:28:10.968Z</time></trkpt><trkpt lat="44.4045562" lon="8.2364832"><ele>491.0</ele><time>2026-05-01T10:28:11.969Z</time></trkpt><trkpt lat="44.4044275" lon="8.2364146"><ele>495.0</ele><time>2026-05-01T10:28:12.968Z</time></trkpt><trkpt lat="44.4042989" lon="8.236347"><ele>499.0</ele><time>2026-05-01T10:28:13.968Z</time></trkpt><trkpt lat="44.4041703" lon="8.2362794"><ele>503.0</ele><time>2026-05-01T10:28:14.969Z</time></trkpt><trkpt lat="44.404048" lon="8.2362269"><ele>503.0</ele><time>2026-05-01T10:28:15.968Z</time></trkpt><trkpt lat="44.4039288" lon="8.2361867"><ele>503.0</ele><time>2026-05-01T10:28:16.968Z</time></trkpt><trkpt lat="44.4038042" lon="8.2361829"><ele>503.0</ele><time>2026-05-01T10:28:17.968Z</time></trkpt><trkpt lat="44.403682" lon="8.2362192"><ele>503.0</ele><time>2026-05-01T10:28:18.968Z</time></trkpt><trkpt lat="44.4035654" lon="8.2362755"><ele>505.16666666666663</ele><time>2026-05-01T10:28:19.968Z</time></trkpt><trkpt lat="44.4034707" lon="8.2363269"><ele>507.3333333333333</ele><time>2026-05-01T10:28:20.969Z</time></trkpt><trkpt lat="44.4033895" lon="8.2363535"><ele>509.5</ele><time>2026-05-01T10:28:21.968Z</time></trkpt><trkpt lat="44.4033122" lon="8.2363585"><ele>511.66666666666663</ele><time>2026-05-01T10:28:22.968Z</time></trkpt><trkpt lat="44.4032435" lon="8.2363359"><ele>513.8333333333334</ele><time>2026-05-01T10:28:23.969Z</time></trkpt><trkpt lat="44.4031836" lon="8.236278"><ele>516.0</ele><time>2026-05-01T10:28:24.968Z</time></trkpt><trkpt lat="44.4031516" lon="8.2361897"><ele>516.0</ele><time>2026-05-01T10:28:25.969Z</time></trkpt><trkpt lat="44.4031472" lon="8.236081"><ele>516.0</ele><time>2026-05-01T10:28:26.969Z</time></trkpt><trkpt lat="44.403172" lon="8.2359512"><ele>516.0</ele><time>2026-05-01T10:28:27.968Z</time></trkpt><trkpt lat="44.4032186" lon="8.235821"><ele>516.0</ele><time>2026-05-01T10:28:28.968Z</time></trkpt><trkpt lat="44.4032794" lon="8.2356948"><ele>516.0</ele><time>2026-05-01T10:28:29.968Z</time></trkpt><trkpt lat="44.4033493" lon="8.2355886"><ele>521.75</ele><time>2026-05-01T10:28:30.968Z</time></trkpt><trkpt lat="44.4034368" lon="8.2354981"><ele>527.5</ele><time>2026-05-01T10:28:31.968Z</time></trkpt><trkpt lat="44.4035398" lon="8.2354255"><ele>533.25</ele><time>2026-05-01T10:28:32.968Z</time></trkpt><trkpt lat="44.4036676" lon="8.235382"><ele>539.0</ele><time>2026-05-01T10:28:33.968Z</time></trkpt><trkpt lat="44.4038183" lon="8.2353966"><ele>536.0</ele><time>2026-05-01T10:28:34.969Z</time></trkpt><trkpt lat="44.4039797" lon="8.235459"><ele>533.0</ele><time>2026-05-01T10:28:35.968Z</time></trkpt><trkpt lat="44.4041315" lon="8.2355399"><ele>530.0</ele><time>2026-05-01T10:28:36.969Z</time></trkpt><trkpt lat="44.4042837" lon="8.2356296"><ele>524.25</ele><time>2026-05-01T10:28:37.969Z</time></trkpt><trkpt lat="44.4044219" lon="8.235687"><ele>518.5</ele><time>2026-05-01T10:28:38.968Z</time></trkpt><trkpt lat="44.4045561" lon="8.235716"><ele>512.75</ele><time>2026-05-01T10:28:39.968Z</time></trkpt><trkpt lat="44.4046858" lon="8.2357231"><ele>507.0</ele><time>2026-05-01T10:28:40.969Z</time></trkpt><trkpt lat="44.4048263" lon="8.2356901"><ele>517.3333333333334</ele><time>2026-05-01T10:28:41.968Z</time></trkpt><trkpt lat="44.4049804" lon="8.2356269"><ele>527.6666666666667</ele><time>2026-05-01T10:28:42.968Z</time></trkpt><trkpt lat="44.4051309" lon="8.2355535"><ele>538.0</ele><time>2026-05-01T10:28:43.968Z</time></trkpt><trkpt lat="44.4052658" lon="8.2354934"><ele>538.0</ele><time>2026-05-01T10:28:44.968Z</time></trkpt><trkpt lat="44.4053749" lon="8.2354428"><ele>538.0</ele><time>2026-05-01T10:28:45.969Z</time></trkpt><trkpt lat="44.4054636" lon="8.2353936"><ele>538.0</ele><time>2026-05-01T10:28:46.968Z</time></trkpt><trkpt lat="44.4055487" lon="8.2353365"><ele>538.0</ele><time>2026-05-01T10:28:47.968Z</time></trkpt><trkpt lat="44.4056342" lon="8.235256"><ele>538.0</ele><time>2026-05-01T10:28:48.968Z</time></trkpt><trkpt lat="44.405726" lon="8.235167"><ele>536.4</ele><time>2026-05-01T10:28:49.968Z</time></trkpt><trkpt lat="44.4058186" lon="8.2350853"><ele>534.8</ele><time>2026-05-01T10:28:50.968Z</time></trkpt><trkpt lat="44.4059093" lon="8.235025"><ele>533.2</ele><time>2026-05-01T10:28:51.968Z</time></trkpt><trkpt lat="44.4060018" lon="8.2349965"><ele>531.6</ele><time>2026-05-01T10:28:52.968Z</time></trkpt><trkpt lat="44.406086" lon="8.2350036"><ele>530.0</ele><time>2026-05-01T10:28:53.969Z</time></trkpt><trkpt lat="44.4061742" lon="8.2350375"><ele>530.0</ele><time>2026-05-01T10:28:54.968Z</time></trkpt><trkpt lat="44.4062574" lon="8.2350859"><ele>530.0</ele><time>2026-05-01T10:28:55.968Z</time></trkpt><trkpt lat="44.4063484" lon="8.2351911"><ele>530.0</ele><time>2026-05-01T10:28:56.969Z</time></trkpt><trkpt lat="44.406444" lon="8.2353116"><ele>530.0</ele><time>2026-05-01T10:28:57.969Z</time></trkpt><trkpt lat="44.406538" lon="8.2354144"><ele>533.0</ele><time>2026-05-01T10:28:58.968Z</time></trkpt><trkpt lat="44.4066346" lon="8.2354815"><ele>536.0</ele><time>2026-05-01T10:28:59.968Z</time></trkpt><trkpt lat="44.4067347" lon="8.2355028"><ele>539.0</ele><time>2026-05-01T10:29:00.969Z</time></trkpt><trkpt lat="44.4068446" lon="8.2354929"><ele>542.0</ele><time>2026-05-01T10:29:01.969Z</time></trkpt><trkpt lat="44.4069623" lon="8.2354583"><ele>545.0</ele><time>2026-05-01T10:29:02.968Z</time></trkpt><trkpt lat="44.4070843" lon="8.2354087"><ele>546.0</ele><time>2026-05-01T10:29:03.968Z</time></trkpt><trkpt lat="44.4072058" lon="8.2353453"><ele>547.0</ele><time>2026-05-01T10:29:04.968Z</time></trkpt><trkpt lat="44.4073267" lon="8.2352789"><ele>548.0</ele><time>2026-05-01T10:29:05.968Z</time></trkpt><trkpt lat="44.4074448" lon="8.235207"><ele>549.0</ele><time>2026-05-01T10:29:06.968Z</time></trkpt><trkpt lat="44.4075506" lon="8.2351297"><ele>549.0</ele><time>2026-05-01T10:29:07.969Z</time></trkpt><trkpt lat="44.4076401" lon="8.235051"><ele>549.0</ele><time>2026-05-01T10:29:08.968Z</time></trkpt><trkpt lat="44.4077296" lon="8.2349754"><ele>549.0</ele><time>2026-05-01T10:29:09.968Z</time></trkpt><trkpt lat="44.4078225" lon="8.2348972"><ele>549.0</ele><time>2026-05-01T10:29:10.969Z</time></trkpt><trkpt lat="44.407921" lon="8.2348154"><ele>549.0</ele><time>2026-05-01T10:29:11.969Z</time></trkpt><trkpt lat="44.4080283" lon="8.2347238"><ele>552.25</ele><time>2026-05-01T10:29:12.968Z</time></trkpt><trkpt lat="44.4081316" lon="8.2346446"><ele>555.5</ele><time>2026-05-01T10:29:13.968Z</time></trkpt><trkpt lat="44.408253" lon="8.2345887"><ele>558.75</ele><time>2026-05-01T10:29:14.969Z</time></trkpt><trkpt lat="44.4083663" lon="8.2345534"><ele>562.0</ele><time>2026-05-01T10:29:15.968Z</time></trkpt><trkpt lat="44.4084742" lon="8.2345282"><ele>562.0</ele><time>2026-05-01T10:29:16.968Z</time></trkpt><trkpt lat="44.4085739" lon="8.2345108"><ele>562.0</ele><time>2026-05-01T10:29:17.969Z</time></trkpt><trkpt lat="44.4086644" lon="8.2344789"><ele>562.0</ele><time>2026-05-01T10:29:18.968Z</time></trkpt><trkpt lat="44.4087586" lon="8.2344284"><ele>562.0</ele><time>2026-05-01T10:29:19.968Z</time></trkpt><trkpt lat="44.4088291" lon="8.2343493"><ele>562.0</ele><time>2026-05-01T10:29:20.968Z</time></trkpt><trkpt lat="44.4088758" lon="8.2342561"><ele>560.6</ele><time>2026-05-01T10:29:21.968Z</time></trkpt><trkpt lat="44.4088843" lon="8.2341254"><ele>559.2</ele><time>2026-05-01T10:29:22.968Z</time></trkpt><trkpt lat="44.4088482" lon="8.2339883"><ele>557.8</ele><time>2026-05-01T10:29:23.968Z</time></trkpt><trkpt lat="44.4087859" lon="8.2338615"><ele>556.4</ele><time>2026-05-01T10:29:24.968Z</time></trkpt><trkpt lat="44.4086923" lon="8.2337693"><ele>555.0</ele><time>2026-05-01T10:29:25.969Z</time></trkpt><trkpt lat="44.4085989" lon="8.2337065"><ele>563.5</ele><time>2026-05-01T10:29:26.968Z</time></trkpt><trkpt lat="44.408502" lon="8.2336861"><ele>572.0</ele><time>2026-05-01T10:29:27.969Z</time></trkpt><trkpt lat="44.4084021" lon="8.2337136"><ele>580.5</ele><time>2026-05-01T10:29:28.969Z</time></trkpt><trkpt lat="44.4082919" lon="8.233795"><ele>589.0</ele><time>2026-05-01T10:29:29.968Z</time></trkpt><trkpt lat="44.4081834" lon="8.2339058"><ele>585.0</ele><time>2026-05-01T10:29:30.968Z</time></trkpt><trkpt lat="44.40807" lon="8.2340118"><ele>581.0</ele><time>2026-05-01T10:29:31.968Z</time></trkpt><trkpt lat="44.4079513" lon="8.2341046"><ele>577.0</ele><time>2026-05-01T10:29:32.968Z</time></trkpt><trkpt lat="44.4078317" lon="8.2341894"><ele>573.0</ele><time>2026-05-01T10:29:33.969Z</time></trkpt><trkpt lat="44.4077121" lon="8.2342702"><ele>573.0</ele><time>2026-05-01T10:29:34.969Z</time></trkpt><trkpt lat="44.4076007" lon="8.2343546"><ele>573.0</ele><time>2026-05-01T10:29:35.969Z</time></trkpt><trkpt lat="44.4074919" lon="8.2344268"><ele>573.0</ele><time>2026-05-01T10:29:36.968Z</time></trkpt><trkpt lat="44.4073818" lon="8.2344751"><ele>573.0</ele><time>2026-05-01T10:29:37.969Z</time></trkpt><trkpt lat="44.4072623" lon="8.2344906"><ele>573.75</ele><time>2026-05-01T10:29:38.968Z</time></trkpt><trkpt lat="44.4071378" lon="8.2344682"><ele>574.5</ele><time>2026-05-01T10:29:39.968Z</time></trkpt><trkpt lat="44.4070162" lon="8.2344065"><ele>575.25</ele><time>2026-05-01T10:29:40.968Z</time></trkpt><trkpt lat="44.4068986" lon="8.2343217"><ele>576.0</ele><time>2026-05-01T10:29:41.968Z</time></trkpt><trkpt lat="44.4067843" lon="8.2342308"><ele>576.0</ele><time>2026-05-01T10:29:42.968Z</time></trkpt><trkpt lat="44.4066655" lon="8.2341309"><ele>576.0</ele><time>2026-05-01T10:29:43.968Z</time></trkpt><trkpt lat="44.4065416" lon="8.2340382"><ele>576.0</ele><time>2026-05-01T10:29:44.969Z</time></trkpt><trkpt lat="44.4064075" lon="8.2339658"><ele>576.0</ele><time>2026-05-01T10:29:45.968Z</time></trkpt><trkpt lat="44.4062821" lon="8.2339024"><ele>583.0</ele><time>2026-05-01T10:29:46.969Z</time></trkpt><trkpt lat="44.4061646" lon="8.2338443"><ele>590.0</ele><time>2026-05-01T10:29:47.968Z</time></trkpt><trkpt lat="44.4060535" lon="8.2337916"><ele>597.0</ele><time>2026-05-01T10:29:48.968Z</time></trkpt><trkpt lat="44.4059372" lon="8.2337361"><ele>604.0</ele><time>2026-05-01T10:29:49.968Z</time></trkpt><trkpt lat="44.4058195" lon="8.2337025"><ele>604.0</ele><time>2026-05-01T10:29:50.969Z</time></trkpt><trkpt lat="44.4057" lon="8.2337006"><ele>604.0</ele><time>2026-05-01T10:29:51.969Z</time></trkpt><trkpt lat="44.405579" lon="8.2337294"><ele>604.0</ele><time>2026-05-01T10:29:52.968Z</time></trkpt><trkpt lat="44.4054565" lon="8.233766"><ele>604.0</ele><time>2026-05-01T10:29:53.969Z</time></trkpt><trkpt lat="44.4053333" lon="8.233804"><ele>607.25</ele><time>2026-05-01T10:29:54.968Z</time></trkpt><trkpt lat="44.40521" lon="8.2338369"><ele>610.5</ele><time>2026-05-01T10:29:55.968Z</time></trkpt><trkpt lat="44.4050843" lon="8.2338607"><ele>613.75</ele><time>2026-05-01T10:29:56.968Z</time></trkpt><trkpt lat="44.4049654" lon="8.2338786"><ele>617.0</ele><time>2026-05-01T10:29:57.968Z</time></trkpt><trkpt lat="44.4048532" lon="8.2338816"><ele>617.0</ele><time>2026-05-01T10:29:58.969Z</time></trkpt><trkpt lat="44.4047404" lon="8.2338525"><ele>617.0</ele><time>2026-05-01T10:29:59.969Z</time></trkpt><trkpt lat="44.4046259" lon="8.2338122"><ele>617.0</ele><time>2026-05-01T10:30:00.968Z</time></trkpt><trkpt lat="44.4045119" lon="8.2337763"><ele>617.0</ele><time>2026-05-01T10:30:01.968Z</time></trkpt><trkpt lat="44.4043892" lon="8.2337336"><ele>617.25</ele><time>2026-05-01T10:30:02.969Z</time></trkpt><trkpt lat="44.4042617" lon="8.2336876"><ele>617.5</ele><time>2026-05-01T10:30:03.968Z</time></trkpt><trkpt lat="44.4041304" lon="8.2336435"><ele>617.75</ele><time>2026-05-01T10:30:04.968Z</time></trkpt><trkpt lat="44.403997" lon="8.2335998"><ele>618.0</ele><time>2026-05-01T10:30:05.968Z</time></trkpt><trkpt lat="44.4038634" lon="8.233551"><ele>615.25</ele><time>2026-05-01T10:30:06.968Z</time></trkpt><trkpt lat="44.4037321" lon="8.2335102"><ele>612.5</ele><time>2026-05-01T10:30:07.968Z</time></trkpt><trkpt lat="44.4036006" lon="8.233477"><ele>609.75</ele><time>2026-05-01T10:30:08.968Z</time></trkpt><trkpt lat="44.4034778" lon="8.2334403"><ele>607.0</ele><time>2026-05-01T10:30:09.968Z</time></trkpt><trkpt lat="44.4033513" lon="8.2334036"><ele>607.0</ele><time>2026-05-01T10:30:10.969Z</time></trkpt><trkpt lat="44.4032233" lon="8.2333951"><ele>607.0</ele><time>2026-05-01T10:30:11.969Z</time></trkpt><trkpt lat="44.4031001" lon="8.2333954"><ele>607.0</ele><time>2026-05-01T10:30:12.969Z</time></trkpt><trkpt lat="44.4029883" lon="8.2334277"><ele>607.0</ele><time>2026-05-01T10:30:13.969Z</time></trkpt><trkpt lat="44.4028864" lon="8.2334996"><ele>606.4</ele><time>2026-05-01T10:30:14.969Z</time></trkpt><trkpt lat="44.4027681" lon="8.2335587"><ele>605.8000000000001</ele><time>2026-05-01T10:30:15.968Z</time></trkpt><trkpt lat="44.4026604" lon="8.233605"><ele>605.2</ele><time>2026-05-01T10:30:16.969Z</time></trkpt><trkpt lat="44.4025575" lon="8.2335999"><ele>604.6</ele><time>2026-05-01T10:30:17.969Z</time></trkpt><trkpt lat="44.4024616" lon="8.2335423"><ele>604.0</ele><time>2026-05-01T10:30:18.968Z</time></trkpt><trkpt lat="44.4023711" lon="8.2334546"><ele>604.0</ele><time>2026-05-01T10:30:19.968Z</time></trkpt><trkpt lat="44.4023076" lon="8.2333441"><ele>604.0</ele><time>2026-05-01T10:30:20.968Z</time></trkpt><trkpt lat="44.4022807" lon="8.2331971"><ele>604.0</ele><time>2026-05-01T10:30:21.968Z</time></trkpt><trkpt lat="44.4022797" lon="8.2330298"><ele>604.0</ele><time>2026-05-01T10:30:22.968Z</time></trkpt><trkpt lat="44.4022877" lon="8.2328549"><ele>604.25</ele><time>2026-05-01T10:30:23.969Z</time></trkpt><trkpt lat="44.4023048" lon="8.2326729"><ele>604.5</ele><time>2026-05-01T10:30:24.969Z</time></trkpt><trkpt lat="44.4023308" lon="8.2324965"><ele>604.75</ele><time>2026-05-01T10:30:25.969Z</time></trkpt><trkpt lat="44.402377" lon="8.2323117"><ele>605.0</ele><time>2026-05-01T10:30:26.968Z</time></trkpt><trkpt lat="44.4024275" lon="8.2321313"><ele>605.5</ele><time>2026-05-01T10:30:27.968Z</time></trkpt><trkpt lat="44.402479" lon="8.2319612"><ele>606.0</ele><time>2026-05-01T10:30:28.969Z</time></trkpt><trkpt lat="44.4025301" lon="8.2317965"><ele>606.5</ele><time>2026-05-01T10:30:29.968Z</time></trkpt><trkpt lat="44.4025811" lon="8.2316355"><ele>607.0</ele><time>2026-05-01T10:30:30.968Z</time></trkpt><trkpt lat="44.4026416" lon="8.231474"><ele>607.0</ele><time>2026-05-01T10:30:31.968Z</time></trkpt><trkpt lat="44.4027046" lon="8.2313137"><ele>607.0</ele><time>2026-05-01T10:30:32.968Z</time></trkpt><trkpt lat="44.4027555" lon="8.2311522"><ele>607.0</ele><time>2026-05-01T10:30:33.968Z</time></trkpt><trkpt lat="44.4028018" lon="8.2309945"><ele>607.0</ele><time>2026-05-01T10:30:34.969Z</time></trkpt><trkpt lat="44.402843" lon="8.2308349"><ele>607.0</ele><time>2026-05-01T10:30:35.968Z</time></trkpt><trkpt lat="44.4028721" lon="8.2306742"><ele>607.0</ele><time>2026-05-01T10:30:36.968Z</time></trkpt><trkpt lat="44.402873" lon="8.2305112"><ele>607.0</ele><time>2026-05-01T10:30:37.968Z</time></trkpt><trkpt lat="44.4028616" lon="8.2303406"><ele>607.0</ele><time>2026-05-01T10:30:38.968Z</time></trkpt><trkpt lat="44.4028346" lon="8.2301826"><ele>607.4</ele><time>2026-05-01T10:30:39.968Z</time></trkpt><trkpt lat="44.4028053" lon="8.2300338"><ele>607.8000000000001</ele><time>2026-05-01T10:30:40.969Z</time></trkpt><trkpt lat="44.4027861" lon="8.2298829"><ele>608.2</ele><time>2026-05-01T10:30:41.968Z</time></trkpt><trkpt lat="44.4027752" lon="8.2297284"><ele>608.6</ele><time>2026-05-01T10:30:42.969Z</time></trkpt><trkpt lat="44.4027716" lon="8.2295737"><ele>609.0</ele><time>2026-05-01T10:30:43.968Z</time></trkpt><trkpt lat="44.4027708" lon="8.229412"><ele>609.0</ele><time>2026-05-01T10:30:44.968Z</time></trkpt><trkpt lat="44.4027818" lon="8.2292532"><ele>609.0</ele><time>2026-05-01T10:30:45.968Z</time></trkpt><trkpt lat="44.4028103" lon="8.229087"><ele>609.0</ele><time>2026-05-01T10:30:46.968Z</time></trkpt><trkpt lat="44.4028546" lon="8.2289243"><ele>609.0</ele><time>2026-05-01T10:30:47.968Z</time></trkpt><trkpt lat="44.4029186" lon="8.2287733"><ele>605.5</ele><time>2026-05-01T10:30:48.968Z</time></trkpt><trkpt lat="44.4030011" lon="8.2286297"><ele>602.0</ele><time>2026-05-01T10:30:49.968Z</time></trkpt><trkpt lat="44.4030993" lon="8.2285026"><ele>598.5</ele><time>2026-05-01T10:30:50.968Z</time></trkpt><trkpt lat="44.403211" lon="8.228398"><ele>595.0</ele><time>2026-05-01T10:30:51.968Z</time></trkpt><trkpt lat="44.4033253" lon="8.2283156"><ele>595.0</ele><time>2026-05-01T10:30:52.968Z</time></trkpt><trkpt lat="44.4034516" lon="8.2282515"><ele>595.0</ele><time>2026-05-01T10:30:53.968Z</time></trkpt><trkpt lat="44.4035702" lon="8.2282104"><ele>595.0</ele><time>2026-05-01T10:30:54.968Z</time></trkpt><trkpt lat="44.4036817" lon="8.2281993"><ele>595.0</ele><time>2026-05-01T10:30:55.969Z</time></trkpt><trkpt lat="44.4037767" lon="8.2282255"><ele>593.8</ele><time>2026-05-01T10:30:56.968Z</time></trkpt><trkpt lat="44.4038502" lon="8.2282888"><ele>592.6</ele><time>2026-05-01T10:30:57.969Z</time></trkpt><trkpt lat="44.4039081" lon="8.2283845"><ele>591.4</ele><time>2026-05-01T10:30:58.968Z</time></trkpt><trkpt lat="44.4039441" lon="8.2285146"><ele>590.2</ele><time>2026-05-01T10:30:59.969Z</time></trkpt><trkpt lat="44.4039641" lon="8.2286563"><ele>589.0</ele><time>2026-05-01T10:31:00.968Z</time></trkpt><trkpt lat="44.4039803" lon="8.2288012"><ele>589.0</ele><time>2026-05-01T10:31:01.968Z</time></trkpt><trkpt lat="44.4040139" lon="8.228942"><ele>589.0</ele><time>2026-05-01T10:31:02.968Z</time></trkpt><trkpt lat="44.4040669" lon="8.2290721"><ele>589.0</ele><time>2026-05-01T10:31:03.968Z</time></trkpt><trkpt lat="44.4041393" lon="8.2291853"><ele>589.0</ele><time>2026-05-01T10:31:04.968Z</time></trkpt><trkpt lat="44.4042271" lon="8.2292676"><ele>589.0</ele><time>2026-05-01T10:31:05.968Z</time></trkpt><trkpt lat="44.4043281" lon="8.2293069"><ele>589.5</ele><time>2026-05-01T10:31:06.968Z</time></trkpt><trkpt lat="44.4044366" lon="8.2293044"><ele>590.0</ele><time>2026-05-01T10:31:07.968Z</time></trkpt><trkpt lat="44.4045359" lon="8.2292572"><ele>590.5</ele><time>2026-05-01T10:31:08.969Z</time></trkpt><trkpt lat="44.4046263" lon="8.2291633"><ele>591.0</ele><time>2026-05-01T10:31:09.969Z</time></trkpt><trkpt lat="44.4047161" lon="8.2290259"><ele>589.0</ele><time>2026-05-01T10:31:10.968Z</time></trkpt><trkpt lat="44.4047882" lon="8.2288646"><ele>587.0</ele><time>2026-05-01T10:31:11.968Z</time></trkpt><trkpt lat="44.4048478" lon="8.2287024"><ele>585.0</ele><time>2026-05-01T10:31:12.968Z</time></trkpt><trkpt lat="44.4048884" lon="8.2285456"><ele>583.0</ele><time>2026-05-01T10:31:13.968Z</time></trkpt><trkpt lat="44.404911" lon="8.2283685"><ele>583.0</ele><time>2026-05-01T10:31:14.968Z</time></trkpt><trkpt lat="44.4049166" lon="8.2281809"><ele>583.0</ele><time>2026-05-01T10:31:15.969Z</time></trkpt><trkpt lat="44.4049172" lon="8.2279914"><ele>583.0</ele><time>2026-05-01T10:31:16.969Z</time></trkpt><trkpt lat="44.4049187" lon="8.227816"><ele>583.0</ele><time>2026-05-01T10:31:17.968Z</time></trkpt><trkpt lat="44.404922" lon="8.2276476"><ele>581.75</ele><time>2026-05-01T10:31:18.968Z</time></trkpt><trkpt lat="44.4049206" lon="8.2274873"><ele>580.5</ele><time>2026-05-01T10:31:19.968Z</time></trkpt><trkpt lat="44.4049127" lon="8.227323"><ele>579.25</ele><time>2026-05-01T10:31:20.968Z</time></trkpt><trkpt lat="44.4048973" lon="8.2271527"><ele>578.0</ele><time>2026-05-01T10:31:21.968Z</time></trkpt><trkpt lat="44.4048663" lon="8.2269951"><ele>577.75</ele><time>2026-05-01T10:31:22.968Z</time></trkpt><trkpt lat="44.4048124" lon="8.2268487"><ele>577.5</ele><time>2026-05-01T10:31:23.968Z</time></trkpt><trkpt lat="44.4047422" lon="8.2267172"><ele>577.25</ele><time>2026-05-01T10:31:24.968Z</time></trkpt><trkpt lat="44.4046413" lon="8.2266055"><ele>577.0</ele><time>2026-05-01T10:31:25.968Z</time></trkpt><trkpt lat="44.4045288" lon="8.2265088"><ele>574.25</ele><time>2026-05-01T10:31:26.968Z</time></trkpt><trkpt lat="44.4044076" lon="8.2264112"><ele>571.5</ele><time>2026-05-01T10:31:27.968Z</time></trkpt><trkpt lat="44.4042879" lon="8.2263108"><ele>568.75</ele><time>2026-05-01T10:31:28.969Z</time></trkpt><trkpt lat="44.404181" lon="8.226187"><ele>566.0</ele><time>2026-05-01T10:31:29.968Z</time></trkpt><trkpt lat="44.4040776" lon="8.2260459"><ele>566.0</ele><time>2026-05-01T10:31:30.968Z</time></trkpt><trkpt lat="44.4039856" lon="8.2258983"><ele>566.0</ele><time>2026-05-01T10:31:31.969Z</time></trkpt><trkpt lat="44.4039192" lon="8.2257521"><ele>566.0</ele><time>2026-05-01T10:31:32.969Z</time></trkpt><trkpt lat="44.4038617" lon="8.2256048"><ele>566.0</ele><time>2026-05-01T10:31:33.969Z</time></trkpt><trkpt lat="44.4037991" lon="8.2254834"><ele>564.4</ele><time>2026-05-01T10:31:34.968Z</time></trkpt><trkpt lat="44.4037264" lon="8.2253796"><ele>562.8</ele><time>2026-05-01T10:31:35.969Z</time></trkpt><trkpt lat="44.4036413" lon="8.2252872"><ele>561.1999999999999</ele><time>2026-05-01T10:31:36.969Z</time></trkpt><trkpt lat="44.4035443" lon="8.2252269"><ele>559.6</ele><time>2026-05-01T10:31:37.969Z</time></trkpt><trkpt lat="44.4034355" lon="8.225199"><ele>558.0</ele><time>2026-05-01T10:31:38.968Z</time></trkpt><trkpt lat="44.4033212" lon="8.2252043"><ele>558.0</ele><time>2026-05-01T10:31:39.968Z</time></trkpt><trkpt lat="44.4032102" lon="8.2252398"><ele>558.0</ele><time>2026-05-01T10:31:40.968Z</time></trkpt><trkpt lat="44.4030941" lon="8.2252996"><ele>558.0</ele><time>2026-05-01T10:31:41.969Z</time></trkpt><trkpt lat="44.402963" lon="8.2253363"><ele>558.0</ele><time>2026-05-01T10:31:42.968Z</time></trkpt><trkpt lat="44.4028305" lon="8.2253515"><ele>558.0</ele><time>2026-05-01T10:31:43.968Z</time></trkpt><trkpt lat="44.4027098" lon="8.225335"><ele>558.0</ele><time>2026-05-01T10:31:44.968Z</time></trkpt><trkpt lat="44.4025761" lon="8.2252785"><ele>558.0</ele><time>2026-05-01T10:31:45.968Z</time></trkpt><trkpt lat="44.4024745" lon="8.2251939"><ele>558.0</ele><time>2026-05-01T10:31:46.968Z</time></trkpt><trkpt lat="44.4023842" lon="8.2250666"><ele>558.0</ele><time>2026-05-01T10:31:47.968Z</time></trkpt><trkpt lat="44.4023181" lon="8.2249049"><ele>558.0</ele><time>2026-05-01T10:31:48.969Z</time></trkpt><trkpt lat="44.4023041" lon="8.2247087"><ele>558.0</ele><time>2026-05-01T10:31:49.968Z</time></trkpt><trkpt lat="44.4023117" lon="8.2245123"><ele>558.0</ele><time>2026-05-01T10:31:50.968Z</time></trkpt><trkpt lat="44.4023159" lon="8.2243261"><ele>556.0</ele><time>2026-05-01T10:31:51.968Z</time></trkpt><trkpt lat="44.4023186" lon="8.2241482"><ele>554.0</ele><time>2026-05-01T10:31:52.969Z</time></trkpt><trkpt lat="44.4023144" lon="8.223976"><ele>552.0</ele><time>2026-05-01T10:31:53.969Z</time></trkpt><trkpt lat="44.4023026" lon="8.2238096"><ele>550.0</ele><time>2026-05-01T10:31:54.968Z</time></trkpt><trkpt lat="44.40227" lon="8.2236577"><ele>549.75</ele><time>2026-05-01T10:31:55.969Z</time></trkpt><trkpt lat="44.4022084" lon="8.2235219"><ele>549.5</ele><time>2026-05-01T10:31:56.969Z</time></trkpt><trkpt lat="44.402115" lon="8.2234177"><ele>549.25</ele><time>2026-05-01T10:31:57.968Z</time></trkpt><trkpt lat="44.402" lon="8.2233328"><ele>549.0</ele><time>2026-05-01T10:31:58.969Z</time></trkpt><trkpt lat="44.4018751" lon="8.2232567"><ele>549.0</ele><time>2026-05-01T10:31:59.968Z</time></trkpt><trkpt lat="44.4017478" lon="8.2231665"><ele>549.0</ele><time>2026-05-01T10:32:00.969Z</time></trkpt><trkpt lat="44.4016383" lon="8.2230567"><ele>549.0</ele><time>2026-05-01T10:32:01.968Z</time></trkpt><trkpt lat="44.4015499" lon="8.2229295"><ele>549.0</ele><time>2026-05-01T10:32:02.968Z</time></trkpt><trkpt lat="44.4014759" lon="8.2227878"><ele>549.0</ele><time>2026-05-01T10:32:03.969Z</time></trkpt><trkpt lat="44.4013962" lon="8.2226473"><ele>549.0</ele><time>2026-05-01T10:32:04.968Z</time></trkpt><trkpt lat="44.4013077" lon="8.2225078"><ele>549.0</ele><time>2026-05-01T10:32:05.968Z</time></trkpt><trkpt lat="44.4012124" lon="8.2223948"><ele>549.0</ele><time>2026-05-01T10:32:06.968Z</time></trkpt><trkpt lat="44.4011066" lon="8.2223007"><ele>546.25</ele><time>2026-05-01T10:32:07.969Z</time></trkpt><trkpt lat="44.4009893" lon="8.2222127"><ele>543.5</ele><time>2026-05-01T10:32:08.969Z</time></trkpt><trkpt lat="44.4008642" lon="8.2221286"><ele>540.75</ele><time>2026-05-01T10:32:09.968Z</time></trkpt><trkpt lat="44.4007355" lon="8.2220447"><ele>538.0</ele><time>2026-05-01T10:32:10.968Z</time></trkpt><trkpt lat="44.4006057" lon="8.2219577"><ele>538.5</ele><time>2026-05-01T10:32:11.969Z</time></trkpt><trkpt lat="44.4004793" lon="8.2218719"><ele>539.0</ele><time>2026-05-01T10:32:12.969Z</time></trkpt><trkpt lat="44.4003522" lon="8.2217839"><ele>539.5</ele><time>2026-05-01T10:32:13.969Z</time></trkpt><trkpt lat="44.4002202" lon="8.2216955"><ele>540.0</ele><time>2026-05-01T10:32:14.969Z</time></trkpt><trkpt lat="44.4000882" lon="8.2216082"><ele>540.0</ele><time>2026-05-01T10:32:15.968Z</time></trkpt><trkpt lat="44.3999587" lon="8.2215225"><ele>540.0</ele><time>2026-05-01T10:32:16.968Z</time></trkpt><trkpt lat="44.3998312" lon="8.2214288"><ele>540.0</ele><time>2026-05-01T10:32:17.968Z</time></trkpt><trkpt lat="44.3997024" lon="8.2213355"><ele>540.0</ele><time>2026-05-01T10:32:18.969Z</time></trkpt><trkpt lat="44.3995739" lon="8.221241"><ele>539.0</ele><time>2026-05-01T10:32:19.969Z</time></trkpt><trkpt lat="44.3994488" lon="8.2211456"><ele>538.0</ele><time>2026-05-01T10:32:20.969Z</time></trkpt><trkpt lat="44.3993267" lon="8.2210434"><ele>537.0</ele><time>2026-05-01T10:32:21.969Z</time></trkpt><trkpt lat="44.3992108" lon="8.220927"><ele>536.0</ele><time>2026-05-01T10:32:22.968Z</time></trkpt><trkpt lat="44.399095" lon="8.2208022"><ele>536.0</ele><time>2026-05-01T10:32:23.968Z</time></trkpt><trkpt lat="44.398994" lon="8.2206602"><ele>536.0</ele><time>2026-05-01T10:32:24.969Z</time></trkpt><trkpt lat="44.3989027" lon="8.2205204"><ele>536.0</ele><time>2026-05-01T10:32:25.969Z</time></trkpt><trkpt lat="44.3988226" lon="8.2203865"><ele>536.0</ele><time>2026-05-01T10:32:26.968Z</time></trkpt><trkpt lat="44.3987422" lon="8.220245"><ele>535.75</ele><time>2026-05-01T10:32:27.968Z</time></trkpt><trkpt lat="44.3986672" lon="8.2200901"><ele>535.5</ele><time>2026-05-01T10:32:28.968Z</time></trkpt><trkpt lat="44.3985931" lon="8.2199272"><ele>535.25</ele><time>2026-05-01T10:32:29.969Z</time></trkpt><trkpt lat="44.3985175" lon="8.2197774"><ele>535.0</ele><time>2026-05-01T10:32:30.968Z</time></trkpt><trkpt lat="44.3984528" lon="8.2196413"><ele>535.0</ele><time>2026-05-01T10:32:31.968Z</time></trkpt><trkpt lat="44.3983945" lon="8.2195054"><ele>535.0</ele><time>2026-05-01T10:32:32.969Z</time></trkpt><trkpt lat="44.3983476" lon="8.2193594"><ele>535.0</ele><time>2026-05-01T10:32:33.969Z</time></trkpt><trkpt lat="44.3983205" lon="8.2191962"><ele>535.0</ele><time>2026-05-01T10:32:34.968Z</time></trkpt><trkpt lat="44.3983139" lon="8.219032"><ele>534.75</ele><time>2026-05-01T10:32:35.968Z</time></trkpt><trkpt lat="44.3983327" lon="8.2188602"><ele>534.5</ele><time>2026-05-01T10:32:36.968Z</time></trkpt><trkpt lat="44.3983763" lon="8.2186982"><ele>534.25</ele><time>2026-05-01T10:32:37.969Z</time></trkpt><trkpt lat="44.3984485" lon="8.2185442"><ele>534.0</ele><time>2026-05-01T10:32:38.968Z</time></trkpt><trkpt lat="44.3985383" lon="8.2184099"><ele>534.0</ele><time>2026-05-01T10:32:39.969Z</time></trkpt><trkpt lat="44.3986419" lon="8.2182952"><ele>534.0</ele><time>2026-05-01T10:32:40.968Z</time></trkpt><trkpt lat="44.3987361" lon="8.2181758"><ele>534.0</ele><time>2026-05-01T10:32:41.968Z</time></trkpt><trkpt lat="44.3988174" lon="8.2180486"><ele>534.0</ele><time>2026-05-01T10:32:42.968Z</time></trkpt><trkpt lat="44.3988802" lon="8.2179037"><ele>531.2</ele><time>2026-05-01T10:32:43.968Z</time></trkpt><trkpt lat="44.3989071" lon="8.2177501"><ele>528.4</ele><time>2026-05-01T10:32:44.969Z</time></trkpt><trkpt lat="44.3989059" lon="8.2176"><ele>525.6</ele><time>2026-05-01T10:32:45.968Z</time></trkpt><trkpt lat="44.3988784" lon="8.2174601"><ele>522.8</ele><time>2026-05-01T10:32:46.969Z</time></trkpt><trkpt lat="44.3988223" lon="8.2173526"><ele>520.0</ele><time>2026-05-01T10:32:47.968Z</time></trkpt><trkpt lat="44.3987337" lon="8.2172908"><ele>517.25</ele><time>2026-05-01T10:32:48.969Z</time></trkpt><trkpt lat="44.3986211" lon="8.2172611"><ele>514.5</ele><time>2026-05-01T10:32:49.968Z</time></trkpt><trkpt lat="44.3984856" lon="8.2172552"><ele>511.75</ele><time>2026-05-01T10:32:50.968Z</time></trkpt><trkpt lat="44.3983499" lon="8.217249"><ele>509.0</ele><time>2026-05-01T10:32:51.968Z</time></trkpt><trkpt lat="44.3982294" lon="8.2172386"><ele>509.0</ele><time>2026-05-01T10:32:52.968Z</time></trkpt><trkpt lat="44.398113" lon="8.2172045"><ele>509.0</ele><time>2026-05-01T10:32:53.968Z</time></trkpt><trkpt lat="44.3980071" lon="8.217165"><ele>509.0</ele><time>2026-05-01T10:32:54.968Z</time></trkpt><trkpt lat="44.3979132" lon="8.2171233"><ele>509.0</ele><time>2026-05-01T10:32:55.968Z</time></trkpt><trkpt lat="44.3978222" lon="8.2170486"><ele>509.0</ele><time>2026-05-01T10:32:56.969Z</time></trkpt><trkpt lat="44.3977638" lon="8.2169371"><ele>508.2</ele><time>2026-05-01T10:32:57.969Z</time></trkpt><trkpt lat="44.3976817" lon="8.2168439"><ele>507.4</ele><time>2026-05-01T10:32:58.968Z</time></trkpt><trkpt lat="44.3976013" lon="8.21676"><ele>506.6</ele><time>2026-05-01T10:32:59.968Z</time></trkpt><trkpt lat="44.3975222" lon="8.2166745"><ele>505.8</ele><time>2026-05-01T10:33:00.968Z</time></trkpt><trkpt lat="44.3974508" lon="8.2165871"><ele>505.0</ele><time>2026-05-01T10:33:01.968Z</time></trkpt><trkpt lat="44.3973834" lon="8.2165013"><ele>503.6</ele><time>2026-05-01T10:33:02.969Z</time></trkpt><trkpt lat="44.3973175" lon="8.2163966"><ele>502.2</ele><time>2026-05-01T10:33:03.969Z</time></trkpt><trkpt lat="44.3972403" lon="8.2162801"><ele>500.79999999999995</ele><time>2026-05-01T10:33:04.968Z</time></trkpt><trkpt lat="44.3971589" lon="8.2161644"><ele>499.4</ele><time>2026-05-01T10:33:05.968Z</time></trkpt><trkpt lat="44.3970792" lon="8.2160597"><ele>498.0</ele><time>2026-05-01T10:33:06.968Z</time></trkpt><trkpt lat="44.3970041" lon="8.2159573"><ele>497.79999999999995</ele><time>2026-05-01T10:33:07.968Z</time></trkpt><trkpt lat="44.3969267" lon="8.2158529"><ele>497.59999999999997</ele><time>2026-05-01T10:33:08.968Z</time></trkpt><trkpt lat="44.3968489" lon="8.2157478"><ele>497.40000000000003</ele><time>2026-05-01T10:33:09.968Z</time></trkpt><trkpt lat="44.3967774" lon="8.2156379"><ele>497.20000000000005</ele><time>2026-05-01T10:33:10.968Z</time></trkpt><trkpt lat="44.3967161" lon="8.2155084"><ele>497.0</ele><time>2026-05-01T10:33:11.968Z</time></trkpt><trkpt lat="44.3966733" lon="8.2153588"><ele>495.0</ele><time>2026-05-01T10:33:12.968Z</time></trkpt><trkpt lat="44.3966393" lon="8.2152055"><ele>493.0</ele><time>2026-05-01T10:33:13.968Z</time></trkpt><trkpt lat="44.3966194" lon="8.2150363"><ele>491.0</ele><time>2026-05-01T10:33:14.968Z</time></trkpt><trkpt lat="44.3966036" lon="8.2148637"><ele>489.0</ele><time>2026-05-01T10:33:15.968Z</time></trkpt><trkpt lat="44.3965773" lon="8.2146977"><ele>487.25</ele><time>2026-05-01T10:33:16.968Z</time></trkpt><trkpt lat="44.3965414" lon="8.2145359"><ele>485.5</ele><time>2026-05-01T10:33:17.969Z</time></trkpt><trkpt lat="44.3964919" lon="8.2143856"><ele>483.75</ele><time>2026-05-01T10:33:18.968Z</time></trkpt><trkpt lat="44.3964351" lon="8.2142421"><ele>482.0</ele><time>2026-05-01T10:33:19.969Z</time></trkpt><trkpt lat="44.3963731" lon="8.2140955"><ele>480.25</ele><time>2026-05-01T10:33:20.969Z</time></trkpt><trkpt lat="44.3962958" lon="8.2139653"><ele>478.5</ele><time>2026-05-01T10:33:21.968Z</time></trkpt><trkpt lat="44.3961997" lon="8.2138401"><ele>476.75</ele><time>2026-05-01T10:33:22.968Z</time></trkpt><trkpt lat="44.396096" lon="8.2137277"><ele>475.0</ele><time>2026-05-01T10:33:23.969Z</time></trkpt><trkpt lat="44.3959873" lon="8.2136166"><ele>475.0</ele><time>2026-05-01T10:33:24.969Z</time></trkpt><trkpt lat="44.3958767" lon="8.2135003"><ele>475.0</ele><time>2026-05-01T10:33:25.969Z</time></trkpt><trkpt lat="44.395774" lon="8.213373"><ele>475.0</ele><time>2026-05-01T10:33:26.969Z</time></trkpt><trkpt lat="44.3956796" lon="8.2132531"><ele>475.0</ele><time>2026-05-01T10:33:27.969Z</time></trkpt><trkpt lat="44.3955814" lon="8.2131421"><ele>469.75</ele><time>2026-05-01T10:33:28.968Z</time></trkpt><trkpt lat="44.3954762" lon="8.2130444"><ele>464.5</ele><time>2026-05-01T10:33:29.968Z</time></trkpt><trkpt lat="44.3953613" lon="8.2129677"><ele>459.25</ele><time>2026-05-01T10:33:30.968Z</time></trkpt><trkpt lat="44.3952378" lon="8.2129108"><ele>454.0</ele><time>2026-05-01T10:33:31.969Z</time></trkpt><trkpt lat="44.3951158" lon="8.2128773"><ele>454.0</ele><time>2026-05-01T10:33:32.968Z</time></trkpt><trkpt lat="44.394988" lon="8.2128598"><ele>454.0</ele><time>2026-05-01T10:33:33.968Z</time></trkpt><trkpt lat="44.3948636" lon="8.2128628"><ele>454.0</ele><time>2026-05-01T10:33:34.969Z</time></trkpt><trkpt lat="44.3947381" lon="8.2128913"><ele>454.0</ele><time>2026-05-01T10:33:35.968Z</time></trkpt><trkpt lat="44.3946152" lon="8.2129199"><ele>454.25</ele><time>2026-05-01T10:33:36.968Z</time></trkpt><trkpt lat="44.3944924" lon="8.2129406"><ele>454.5</ele><time>2026-05-01T10:33:37.968Z</time></trkpt><trkpt lat="44.394372" lon="8.2129353"><ele>454.75</ele><time>2026-05-01T10:33:38.969Z</time></trkpt><trkpt lat="44.3942533" lon="8.2129153"><ele>455.0</ele><time>2026-05-01T10:33:39.968Z</time></trkpt><trkpt lat="44.3941291" lon="8.2128877"><ele>455.0</ele><time>2026-05-01T10:33:40.968Z</time></trkpt><trkpt lat="44.3940003" lon="8.2128602"><ele>455.0</ele><time>2026-05-01T10:33:41.968Z</time></trkpt><trkpt lat="44.3938692" lon="8.2128405"><ele>455.0</ele><time>2026-05-01T10:33:42.969Z</time></trkpt><trkpt lat="44.3937457" lon="8.2128201"><ele>455.0</ele><time>2026-05-01T10:33:43.968Z</time></trkpt><trkpt lat="44.3936159" lon="8.2127845"><ele>454.5</ele><time>2026-05-01T10:33:44.968Z</time></trkpt><trkpt lat="44.3934955" lon="8.2127465"><ele>454.0</ele><time>2026-05-01T10:33:45.968Z</time></trkpt><trkpt lat="44.3933748" lon="8.2127043"><ele>453.5</ele><time>2026-05-01T10:33:46.969Z</time></trkpt><trkpt lat="44.3932512" lon="8.2126605"><ele>453.0</ele><time>2026-05-01T10:33:47.969Z</time></trkpt><trkpt lat="44.3931257" lon="8.2126313"><ele>451.5</ele><time>2026-05-01T10:33:48.968Z</time></trkpt><trkpt lat="44.3929954" lon="8.2126302"><ele>450.0</ele><time>2026-05-01T10:33:49.968Z</time></trkpt><trkpt lat="44.3928709" lon="8.212633"><ele>448.5</ele><time>2026-05-01T10:33:50.969Z</time></trkpt><trkpt lat="44.3927397" lon="8.2126396"><ele>447.0</ele><time>2026-05-01T10:33:51.968Z</time></trkpt><trkpt lat="44.3926069" lon="8.2126489"><ele>447.0</ele><time>2026-05-01T10:33:52.968Z</time></trkpt><trkpt lat="44.3924707" lon="8.2126445"><ele>447.0</ele><time>2026-05-01T10:33:53.968Z</time></trkpt><trkpt lat="44.3923326" lon="8.2126326"><ele>447.0</ele><time>2026-05-01T10:33:54.968Z</time></trkpt><trkpt lat="44.392193" lon="8.2126166"><ele>447.0</ele><time>2026-05-01T10:33:55.968Z</time></trkpt><trkpt lat="44.3920611" lon="8.2126012"><ele>446.0</ele><time>2026-05-01T10:33:56.968Z</time></trkpt><trkpt lat="44.3919328" lon="8.2125806"><ele>445.0</ele><time>2026-05-01T10:33:57.968Z</time></trkpt><trkpt lat="44.3918114" lon="8.2125605"><ele>444.0</ele><time>2026-05-01T10:33:58.968Z</time></trkpt><trkpt lat="44.3916935" lon="8.21255"><ele>443.0</ele><time>2026-05-01T10:33:59.969Z</time></trkpt><trkpt lat="44.3915769" lon="8.212537"><ele>443.0</ele><time>2026-05-01T10:34:00.969Z</time></trkpt><trkpt lat="44.3914678" lon="8.2125183"><ele>442.99999999999994</ele><time>2026-05-01T10:34:01.968Z</time></trkpt><trkpt lat="44.3913608" lon="8.2124909"><ele>442.99999999999994</ele><time>2026-05-01T10:34:02.968Z</time></trkpt><trkpt lat="44.3912564" lon="8.2124456"><ele>443.0</ele><time>2026-05-01T10:34:03.969Z</time></trkpt><trkpt lat="44.3911567" lon="8.2123725"><ele>443.0</ele><time>2026-05-01T10:34:04.968Z</time></trkpt><trkpt lat="44.3910705" lon="8.2122831"><ele>441.0</ele><time>2026-05-01T10:34:05.968Z</time></trkpt><trkpt lat="44.3909962" lon="8.212186"><ele>438.99999999999994</ele><time>2026-05-01T10:34:06.968Z</time></trkpt><trkpt lat="44.3909268" lon="8.2120806"><ele>436.99999999999994</ele><time>2026-05-01T10:34:07.968Z</time></trkpt><trkpt lat="44.3908592" lon="8.2119914"><ele>435.0</ele><time>2026-05-01T10:34:08.968Z</time></trkpt><trkpt lat="44.3907868" lon="8.2119173"><ele>433.0</ele><time>2026-05-01T10:34:09.968Z</time></trkpt><trkpt lat="44.3907034" lon="8.2118593"><ele>433.0</ele><time>2026-05-01T10:34:10.968Z</time></trkpt><trkpt lat="44.3906143" lon="8.2118187"><ele>432.99999999999994</ele><time>2026-05-01T10:34:11.968Z</time></trkpt><trkpt lat="44.3905209" lon="8.2117901"><ele>432.99999999999994</ele><time>2026-05-01T10:34:12.968Z</time></trkpt><trkpt lat="44.3904222" lon="8.2117597"><ele>433.0</ele><time>2026-05-01T10:34:13.968Z</time></trkpt><trkpt lat="44.3903247" lon="8.211715"><ele>433.0</ele><time>2026-05-01T10:34:14.968Z</time></trkpt><trkpt lat="44.390244" lon="8.211651"><ele>432.6666666666667</ele><time>2026-05-01T10:34:15.968Z</time></trkpt><trkpt lat="44.3901803" lon="8.2115595"><ele>432.33333333333337</ele><time>2026-05-01T10:34:16.969Z</time></trkpt><trkpt lat="44.3901314" lon="8.2114604"><ele>432.0</ele><time>2026-05-01T10:34:17.968Z</time></trkpt><trkpt lat="44.3901093" lon="8.2113534"><ele>431.66666666666663</ele><time>2026-05-01T10:34:18.968Z</time></trkpt><trkpt lat="44.3900987" lon="8.2112483"><ele>431.3333333333333</ele><time>2026-05-01T10:34:19.968Z</time></trkpt><trkpt lat="44.3901008" lon="8.2111594"><ele>431.0</ele><time>2026-05-01T10:34:20.969Z</time></trkpt><trkpt lat="44.3901117" lon="8.2110143"><ele>430.4</ele><time>2026-05-01T10:34:22.968Z</time></trkpt><trkpt lat="44.3900559" lon="8.210934"><ele>429.8</ele><time>2026-05-01T10:34:24.969Z</time></trkpt><trkpt lat="44.3899394" lon="8.2108769"><ele>429.19999999999993</ele><time>2026-05-01T10:34:26.968Z</time></trkpt><trkpt lat="44.3898813" lon="8.2108102"><ele>428.59999999999997</ele><time>2026-05-01T10:34:27.969Z</time></trkpt><trkpt lat="44.3898272" lon="8.2107149"><ele>428.0</ele><time>2026-05-01T10:34:28.968Z</time></trkpt><trkpt lat="44.3897656" lon="8.2106088"><ele>428.0</ele><time>2026-05-01T10:34:29.968Z</time></trkpt><trkpt lat="44.3897016" lon="8.2104926"><ele>427.99999999999994</ele><time>2026-05-01T10:34:30.968Z</time></trkpt><trkpt lat="44.3896398" lon="8.2103838"><ele>427.99999999999994</ele><time>2026-05-01T10:34:31.968Z</time></trkpt><trkpt lat="44.3895843" lon="8.2102802"><ele>428.0</ele><time>2026-05-01T10:34:32.968Z</time></trkpt><trkpt lat="44.3895255" lon="8.2101946"><ele>428.0</ele><time>2026-05-01T10:34:33.968Z</time></trkpt><trkpt lat="44.3894696" lon="8.2101236"><ele>426.7142857142857</ele><time>2026-05-01T10:34:34.969Z</time></trkpt><trkpt lat="44.3894292" lon="8.2100535"><ele>425.42857142857144</ele><time>2026-05-01T10:34:35.968Z</time></trkpt><trkpt lat="44.3893837" lon="8.2099858"><ele>424.1428571428571</ele><time>2026-05-01T10:34:36.968Z</time></trkpt><trkpt lat="44.3893332" lon="8.2099141"><ele>422.8571428571429</ele><time>2026-05-01T10:34:37.968Z</time></trkpt><trkpt lat="44.3892852" lon="8.209843"><ele>421.57142857142856</ele><time>2026-05-01T10:34:38.969Z</time></trkpt><trkpt lat="44.389222" lon="8.2097624"><ele>420.2857142857143</ele><time>2026-05-01T10:34:39.969Z</time></trkpt><trkpt lat="44.3891798" lon="8.2096787"><ele>419.0</ele><time>2026-05-01T10:34:40.969Z</time></trkpt><trkpt lat="44.3891469" lon="8.2095978"><ele>418.4</ele><time>2026-05-01T10:34:41.968Z</time></trkpt><trkpt lat="44.3890803" lon="8.2094517"><ele>417.79999999999995</ele><time>2026-05-01T10:34:43.969Z</time></trkpt><trkpt lat="44.3890478" lon="8.2093759"><ele>417.20000000000005</ele><time>2026-05-01T10:34:44.968Z</time></trkpt><trkpt lat="44.3890137" lon="8.2093015"><ele>416.6</ele><time>2026-05-01T10:34:45.969Z</time></trkpt><trkpt lat="44.3889427" lon="8.2091616"><ele>416.0</ele><time>2026-05-01T10:34:47.968Z</time></trkpt><trkpt lat="44.3888739" lon="8.2090679"><ele>415.8333333333333</ele><time>2026-05-01T10:34:49.968Z</time></trkpt><trkpt lat="44.3888063" lon="8.209054"><ele>415.66666666666663</ele><time>2026-05-01T10:34:51.968Z</time></trkpt><trkpt lat="44.3887424" lon="8.2091247"><ele>415.5</ele><time>2026-05-01T10:34:53.968Z</time></trkpt><trkpt lat="44.3886689" lon="8.2092383"><ele>415.33333333333337</ele><time>2026-05-01T10:34:55.968Z</time></trkpt><trkpt lat="44.3886018" lon="8.2093318"><ele>415.1666666666667</ele><time>2026-05-01T10:34:57.969Z</time></trkpt><trkpt lat="44.3885346" lon="8.2093694"><ele>415.0</ele><time>2026-05-01T10:34:59.968Z</time></trkpt><trkpt lat="44.3884655" lon="8.2092975"><ele>415.0</ele><time>2026-05-01T10:35:01.969Z</time></trkpt><trkpt lat="44.3883938" lon="8.2091607"><ele>415.0</ele><time>2026-05-01T10:35:03.969Z</time></trkpt><trkpt lat="44.3883131" lon="8.2090467"><ele>415.0</ele><time>2026-05-01T10:35:05.968Z</time></trkpt><trkpt lat="44.3882269" lon="8.2089568"><ele>415.0</ele><time>2026-05-01T10:35:07.968Z</time></trkpt><trkpt lat="44.3881379" lon="8.2088678"><ele>414.83333333333337</ele><time>2026-05-01T10:35:09.969Z</time></trkpt><trkpt lat="44.3880628" lon="8.208764"><ele>414.6666666666667</ele><time>2026-05-01T10:35:11.968Z</time></trkpt><trkpt lat="44.3880072" lon="8.2086555"><ele>414.5</ele><time>2026-05-01T10:35:13.968Z</time></trkpt><trkpt lat="44.3879594" lon="8.2085674"><ele>414.33333333333337</ele><time>2026-05-01T10:35:15.968Z</time></trkpt><trkpt lat="44.3878996" lon="8.2085015"><ele>414.1666666666667</ele><time>2026-05-01T10:35:17.969Z</time></trkpt><trkpt lat="44.3878376" lon="8.2084247"><ele>414.0</ele><time>2026-05-01T10:35:20.968Z</time></trkpt><trkpt lat="44.3877904" lon="8.208337"><ele>414.1666666666667</ele><time>2026-05-01T10:35:23.968Z</time></trkpt><trkpt lat="44.387771" lon="8.2082459"><ele>414.33333333333337</ele><time>2026-05-01T10:35:26.969Z</time></trkpt><trkpt lat="44.3877556" lon="8.2081567"><ele>414.5</ele><time>2026-05-01T10:35:29.968Z</time></trkpt><trkpt lat="44.3876808" lon="8.2080634"><ele>414.6666666666667</ele><time>2026-05-01T10:35:32.968Z</time></trkpt><trkpt lat="44.3875805" lon="8.2080321"><ele>414.83333333333337</ele><time>2026-05-01T10:35:34.968Z</time></trkpt><trkpt lat="44.3874966" lon="8.2080104"><ele>415.0</ele><time>2026-05-01T10:35:36.968Z</time></trkpt><trkpt lat="44.3874237" lon="8.2079706"><ele>415.0</ele><time>2026-05-01T10:35:42.968Z</time></trkpt><trkpt lat="44.3873307" lon="8.2079242"><ele>415.0</ele><time>2026-05-01T10:35:44.969Z</time></trkpt><trkpt lat="44.3872208" lon="8.2078664"><ele>415.0</ele><time>2026-05-01T10:35:46.968Z</time></trkpt><trkpt lat="44.3871601" lon="8.2078117"><ele>415.0</ele><time>2026-05-01T10:35:47.968Z</time></trkpt><trkpt lat="44.3870875" lon="8.2077524"><ele>415.0</ele><time>2026-05-01T10:35:48.968Z</time></trkpt><trkpt lat="44.387006" lon="8.2076956"><ele>416.25</ele><time>2026-05-01T10:35:49.968Z</time></trkpt><trkpt lat="44.3869099" lon="8.2076534"><ele>417.5</ele><time>2026-05-01T10:35:50.968Z</time></trkpt><trkpt lat="44.3868073" lon="8.2075963"><ele>418.75</ele><time>2026-05-01T10:35:51.968Z</time></trkpt><trkpt lat="44.3867023" lon="8.2075175"><ele>420.0</ele><time>2026-05-01T10:35:52.968Z</time></trkpt><trkpt lat="44.3865945" lon="8.2074264"><ele>420.0</ele><time>2026-05-01T10:35:53.969Z</time></trkpt><trkpt lat="44.3864736" lon="8.2073544"><ele>420.0</ele><time>2026-05-01T10:35:54.968Z</time></trkpt><trkpt lat="44.3863503" lon="8.2072812"><ele>420.0</ele><time>2026-05-01T10:35:55.968Z</time></trkpt><trkpt lat="44.3862321" lon="8.2072062"><ele>420.0</ele><time>2026-05-01T10:35:56.968Z</time></trkpt><trkpt lat="44.386112" lon="8.20713"><ele>418.75</ele><time>2026-05-01T10:35:57.969Z</time></trkpt><trkpt lat="44.3859945" lon="8.2070541"><ele>417.5</ele><time>2026-05-01T10:35:58.968Z</time></trkpt><trkpt lat="44.3858895" lon="8.2069833"><ele>416.25</ele><time>2026-05-01T10:35:59.969Z</time></trkpt><trkpt lat="44.3857882" lon="8.2069343"><ele>415.0</ele><time>2026-05-01T10:36:00.968Z</time></trkpt><trkpt lat="44.3856925" lon="8.2068996"><ele>415.0</ele><time>2026-05-01T10:36:01.968Z</time></trkpt><trkpt lat="44.3855981" lon="8.2068802"><ele>415.0</ele><time>2026-05-01T10:36:02.969Z</time></trkpt><trkpt lat="44.3855024" lon="8.2068799"><ele>415.0</ele><time>2026-05-01T10:36:03.968Z</time></trkpt><trkpt lat="44.3854074" lon="8.2068894"><ele>415.0</ele><time>2026-05-01T10:36:04.968Z</time></trkpt><trkpt lat="44.3853113" lon="8.2069136"><ele>415.0</ele><time>2026-05-01T10:36:05.969Z</time></trkpt><trkpt lat="44.385213" lon="8.206953"><ele>414.75</ele><time>2026-05-01T10:36:06.969Z</time></trkpt><trkpt lat="44.3851141" lon="8.2070039"><ele>414.5</ele><time>2026-05-01T10:36:07.968Z</time></trkpt><trkpt lat="44.3850152" lon="8.2070788"><ele>414.25</ele><time>2026-05-01T10:36:08.968Z</time></trkpt><trkpt lat="44.3849214" lon="8.2071828"><ele>414.0</ele><time>2026-05-01T10:36:09.969Z</time></trkpt><trkpt lat="44.3848247" lon="8.2073162"><ele>413.25</ele><time>2026-05-01T10:36:10.969Z</time></trkpt><trkpt lat="44.3847369" lon="8.207476"><ele>412.5</ele><time>2026-05-01T10:36:11.968Z</time></trkpt><trkpt lat="44.3846495" lon="8.2076396"><ele>411.75</ele><time>2026-05-01T10:36:12.968Z</time></trkpt><trkpt lat="44.3845675" lon="8.2078043"><ele>411.0</ele><time>2026-05-01T10:36:13.969Z</time></trkpt><trkpt lat="44.3844825" lon="8.2079658"><ele>411.0</ele><time>2026-05-01T10:36:14.968Z</time></trkpt><trkpt lat="44.3843927" lon="8.2081187"><ele>411.0</ele><time>2026-05-01T10:36:15.968Z</time></trkpt><trkpt lat="44.3843072" lon="8.2082704"><ele>411.0</ele><time>2026-05-01T10:36:16.969Z</time></trkpt><trkpt lat="44.3842069" lon="8.2084203"><ele>411.0</ele><time>2026-05-01T10:36:17.968Z</time></trkpt><trkpt lat="44.3840958" lon="8.2085338"><ele>412.33333333333337</ele><time>2026-05-01T10:36:18.968Z</time></trkpt><trkpt lat="44.3839634" lon="8.2086196"><ele>413.6666666666667</ele><time>2026-05-01T10:36:19.968Z</time></trkpt><trkpt lat="44.3838173" lon="8.208678"><ele>415.0</ele><time>2026-05-01T10:36:20.969Z</time></trkpt><trkpt lat="44.3836624" lon="8.2087"><ele>415.0</ele><time>2026-05-01T10:36:21.968Z</time></trkpt><trkpt lat="44.3835121" lon="8.2086963"><ele>415.0</ele><time>2026-05-01T10:36:22.968Z</time></trkpt><trkpt lat="44.3833627" lon="8.2086623"><ele>415.0</ele><time>2026-05-01T10:36:23.968Z</time></trkpt><trkpt lat="44.3832212" lon="8.2086161"><ele>415.0</ele><time>2026-05-01T10:36:24.968Z</time></trkpt><trkpt lat="44.3830868" lon="8.208564"><ele>416.5</ele><time>2026-05-01T10:36:25.968Z</time></trkpt><trkpt lat="44.3829549" lon="8.2085077"><ele>418.0</ele><time>2026-05-01T10:36:26.968Z</time></trkpt><trkpt lat="44.3828259" lon="8.2084549"><ele>419.5</ele><time>2026-05-01T10:36:27.969Z</time></trkpt><trkpt lat="44.3826807" lon="8.2084059"><ele>421.0</ele><time>2026-05-01T10:36:28.968Z</time></trkpt><trkpt lat="44.3825452" lon="8.2083535"><ele>421.0</ele><time>2026-05-01T10:36:29.968Z</time></trkpt><trkpt lat="44.3824124" lon="8.2083055"><ele>421.0</ele><time>2026-05-01T10:36:30.968Z</time></trkpt><trkpt lat="44.382277" lon="8.2082501"><ele>421.0</ele><time>2026-05-01T10:36:31.968Z</time></trkpt><trkpt lat="44.3821432" lon="8.2081878"><ele>421.0</ele><time>2026-05-01T10:36:32.968Z</time></trkpt><trkpt lat="44.3820176" lon="8.2081246"><ele>420.0</ele><time>2026-05-01T10:36:33.969Z</time></trkpt><trkpt lat="44.3818995" lon="8.2080498"><ele>419.0</ele><time>2026-05-01T10:36:34.969Z</time></trkpt><trkpt lat="44.3817876" lon="8.2079431"><ele>418.0</ele><time>2026-05-01T10:36:35.969Z</time></trkpt><trkpt lat="44.3816851" lon="8.2078207"><ele>417.0</ele><time>2026-05-01T10:36:36.969Z</time></trkpt><trkpt lat="44.3815835" lon="8.2076961"><ele>417.0</ele><time>2026-05-01T10:36:37.968Z</time></trkpt><trkpt lat="44.3814838" lon="8.2075709"><ele>417.0</ele><time>2026-05-01T10:36:38.968Z</time></trkpt><trkpt lat="44.3813943" lon="8.207462"><ele>417.0</ele><time>2026-05-01T10:36:39.968Z</time></trkpt><trkpt lat="44.3813033" lon="8.2073418"><ele>417.0</ele><time>2026-05-01T10:36:40.969Z</time></trkpt><trkpt lat="44.3811882" lon="8.2072202"><ele>417.75</ele><time>2026-05-01T10:36:41.968Z</time></trkpt><trkpt lat="44.3810888" lon="8.2070905"><ele>418.5</ele><time>2026-05-01T10:36:42.968Z</time></trkpt><trkpt lat="44.38099" lon="8.2069551"><ele>419.25</ele><time>2026-05-01T10:36:43.968Z</time></trkpt><trkpt lat="44.3808964" lon="8.2068134"><ele>420.0</ele><time>2026-05-01T10:36:44.968Z</time></trkpt><trkpt lat="44.3808143" lon="8.2066717"><ele>420.0</ele><time>2026-05-01T10:36:45.969Z</time></trkpt><trkpt lat="44.3807163" lon="8.2065256"><ele>420.0</ele><time>2026-05-01T10:36:46.968Z</time></trkpt><trkpt lat="44.3806184" lon="8.2063869"><ele>420.0</ele><time>2026-05-01T10:36:47.969Z</time></trkpt><trkpt lat="44.3805218" lon="8.2062432"><ele>420.0</ele><time>2026-05-01T10:36:48.968Z</time></trkpt><trkpt lat="44.3804275" lon="8.2060875"><ele>419.25</ele><time>2026-05-01T10:36:49.967Z</time></trkpt><trkpt lat="44.3803463" lon="8.2059054"><ele>418.5</ele><time>2026-05-01T10:36:50.967Z</time></trkpt><trkpt lat="44.3802562" lon="8.2057413"><ele>417.75</ele><time>2026-05-01T10:36:51.968Z</time></trkpt><trkpt lat="44.3801751" lon="8.2055753"><ele>417.0</ele><time>2026-05-01T10:36:52.967Z</time></trkpt><trkpt lat="44.3800873" lon="8.2054053"><ele>417.0</ele><time>2026-05-01T10:36:53.968Z</time></trkpt><trkpt lat="44.3800053" lon="8.2052285"><ele>417.0</ele><time>2026-05-01T10:36:54.967Z</time></trkpt><trkpt lat="44.3799365" lon="8.2050448"><ele>417.0</ele><time>2026-05-01T10:36:55.968Z</time></trkpt><trkpt lat="44.3798765" lon="8.2048558"><ele>417.0</ele><time>2026-05-01T10:36:56.967Z</time></trkpt><trkpt lat="44.3798187" lon="8.2046591"><ele>417.25</ele><time>2026-05-01T10:36:57.968Z</time></trkpt><trkpt lat="44.3797433" lon="8.2044822"><ele>417.5</ele><time>2026-05-01T10:36:58.967Z</time></trkpt><trkpt lat="44.3796584" lon="8.2043085"><ele>417.75</ele><time>2026-05-01T10:36:59.967Z</time></trkpt><trkpt lat="44.3795793" lon="8.2041391"><ele>418.0</ele><time>2026-05-01T10:37:00.968Z</time></trkpt><trkpt lat="44.3794973" lon="8.2039692"><ele>418.0</ele><time>2026-05-01T10:37:01.967Z</time></trkpt><trkpt lat="44.3794177" lon="8.2037852"><ele>418.0</ele><time>2026-05-01T10:37:02.967Z</time></trkpt><trkpt lat="44.3793452" lon="8.2035959"><ele>418.0</ele><time>2026-05-01T10:37:03.967Z</time></trkpt><trkpt lat="44.3792676" lon="8.2033998"><ele>418.0</ele><time>2026-05-01T10:37:04.968Z</time></trkpt><trkpt lat="44.3791879" lon="8.2031958"><ele>418.0</ele><time>2026-05-01T10:37:05.968Z</time></trkpt><trkpt lat="44.379108" lon="8.2029958"><ele>418.0</ele><time>2026-05-01T10:37:06.967Z</time></trkpt><trkpt lat="44.3790295" lon="8.2028017"><ele>415.6666666666667</ele><time>2026-05-01T10:37:07.967Z</time></trkpt><trkpt lat="44.3789568" lon="8.2026022"><ele>413.33333333333337</ele><time>2026-05-01T10:37:08.967Z</time></trkpt><trkpt lat="44.3788884" lon="8.2024023"><ele>411.0</ele><time>2026-05-01T10:37:09.967Z</time></trkpt><trkpt lat="44.3788235" lon="8.2022102"><ele>418.0</ele><time>2026-05-01T10:37:10.967Z</time></trkpt><trkpt lat="44.3787605" lon="8.202006"><ele>425.0</ele><time>2026-05-01T10:37:11.967Z</time></trkpt><trkpt lat="44.3787074" lon="8.2017834"><ele>432.0</ele><time>2026-05-01T10:37:12.967Z</time></trkpt><trkpt lat="44.3786621" lon="8.2015585"><ele>428.66666666666663</ele><time>2026-05-01T10:37:13.967Z</time></trkpt><trkpt lat="44.3786147" lon="8.2013375"><ele>425.3333333333333</ele><time>2026-05-01T10:37:14.967Z</time></trkpt><trkpt lat="44.3785548" lon="8.201111"><ele>422.0</ele><time>2026-05-01T10:37:15.967Z</time></trkpt><trkpt lat="44.3784877" lon="8.2008931"><ele>422.0</ele><time>2026-05-01T10:37:16.967Z</time></trkpt><trkpt lat="44.3784136" lon="8.2006896"><ele>422.0</ele><time>2026-05-01T10:37:17.967Z</time></trkpt><trkpt lat="44.3783414" lon="8.2004885"><ele>422.0</ele><time>2026-05-01T10:37:18.967Z</time></trkpt><trkpt lat="44.3782817" lon="8.2002827"><ele>420.66666666666663</ele><time>2026-05-01T10:37:19.968Z</time></trkpt><trkpt lat="44.3782334" lon="8.2000789"><ele>419.33333333333337</ele><time>2026-05-01T10:37:20.967Z</time></trkpt><trkpt lat="44.378206" lon="8.1998646"><ele>418.0</ele><time>2026-05-01T10:37:21.968Z</time></trkpt><trkpt lat="44.3781958" lon="8.1996445"><ele>418.0</ele><time>2026-05-01T10:37:22.967Z</time></trkpt><trkpt lat="44.378197" lon="8.1994384"><ele>418.0</ele><time>2026-05-01T10:37:23.967Z</time></trkpt><trkpt lat="44.3781996" lon="8.199241"><ele>418.0</ele><time>2026-05-01T10:37:24.967Z</time></trkpt><trkpt lat="44.3781946" lon="8.1990597"><ele>418.0</ele><time>2026-05-01T10:37:25.967Z</time></trkpt><trkpt lat="44.3781816" lon="8.1988981"><ele>417.75</ele><time>2026-05-01T10:37:26.967Z</time></trkpt><trkpt lat="44.3781577" lon="8.1987263"><ele>417.5</ele><time>2026-05-01T10:37:27.967Z</time></trkpt><trkpt lat="44.3781132" lon="8.1985589"><ele>417.25</ele><time>2026-05-01T10:37:28.967Z</time></trkpt><trkpt lat="44.3780486" lon="8.1984014"><ele>417.0</ele><time>2026-05-01T10:37:29.967Z</time></trkpt><trkpt lat="44.3779649" lon="8.198245"><ele>417.75</ele><time>2026-05-01T10:37:30.967Z</time></trkpt><trkpt lat="44.3778744" lon="8.1980959"><ele>418.5</ele><time>2026-05-01T10:37:31.967Z</time></trkpt><trkpt lat="44.3777838" lon="8.1979536"><ele>419.25</ele><time>2026-05-01T10:37:32.967Z</time></trkpt><trkpt lat="44.3777021" lon="8.1978219"><ele>420.0</ele><time>2026-05-01T10:37:33.967Z</time></trkpt><trkpt lat="44.3776206" lon="8.1976911"><ele>420.0</ele><time>2026-05-01T10:37:34.967Z</time></trkpt><trkpt lat="44.3775422" lon="8.1975596"><ele>420.0</ele><time>2026-05-01T10:37:35.968Z</time></trkpt><trkpt lat="44.3774685" lon="8.1974255"><ele>420.0</ele><time>2026-05-01T10:37:36.967Z</time></trkpt><trkpt lat="44.3773971" lon="8.1972998"><ele>420.0</ele><time>2026-05-01T10:37:37.967Z</time></trkpt><trkpt lat="44.377323" lon="8.1971837"><ele>419.25</ele><time>2026-05-01T10:37:38.967Z</time></trkpt><trkpt lat="44.3772358" lon="8.1970834"><ele>418.5</ele><time>2026-05-01T10:37:39.968Z</time></trkpt><trkpt lat="44.3771305" lon="8.1970023"><ele>417.75</ele><time>2026-05-01T10:37:40.968Z</time></trkpt><trkpt lat="44.3770095" lon="8.1969582"><ele>417.0</ele><time>2026-05-01T10:37:41.967Z</time></trkpt><trkpt lat="44.376886" lon="8.196938"><ele>417.0</ele><time>2026-05-01T10:37:42.967Z</time></trkpt><trkpt lat="44.3767589" lon="8.196948"><ele>417.0</ele><time>2026-05-01T10:37:43.968Z</time></trkpt><trkpt lat="44.3766308" lon="8.1969947"><ele>417.0</ele><time>2026-05-01T10:37:44.967Z</time></trkpt><trkpt lat="44.3765104" lon="8.1970708"><ele>417.0</ele><time>2026-05-01T10:37:45.967Z</time></trkpt><trkpt lat="44.3763935" lon="8.1971653"><ele>417.25</ele><time>2026-05-01T10:37:46.968Z</time></trkpt><trkpt lat="44.3762816" lon="8.1972516"><ele>417.5</ele><time>2026-05-01T10:37:47.967Z</time></trkpt><trkpt lat="44.3761646" lon="8.1973377"><ele>417.75</ele><time>2026-05-01T10:37:48.968Z</time></trkpt><trkpt lat="44.3760524" lon="8.1974169"><ele>418.0</ele><time>2026-05-01T10:37:49.967Z</time></trkpt><trkpt lat="44.3759378" lon="8.1974958"><ele>418.0</ele><time>2026-05-01T10:37:50.967Z</time></trkpt><trkpt lat="44.3758281" lon="8.1975783"><ele>418.0</ele><time>2026-05-01T10:37:51.967Z</time></trkpt><trkpt lat="44.3757148" lon="8.1976587"><ele>418.0</ele><time>2026-05-01T10:37:52.967Z</time></trkpt><trkpt lat="44.375616" lon="8.1977429"><ele>418.0</ele><time>2026-05-01T10:37:53.967Z</time></trkpt><trkpt lat="44.375514" lon="8.1978256"><ele>417.75</ele><time>2026-05-01T10:37:54.967Z</time></trkpt><trkpt lat="44.3754107" lon="8.1979068"><ele>417.5</ele><time>2026-05-01T10:37:55.967Z</time></trkpt><trkpt lat="44.3753028" lon="8.1979871"><ele>417.25</ele><time>2026-05-01T10:37:56.968Z</time></trkpt><trkpt lat="44.3751945" lon="8.1980651"><ele>417.0</ele><time>2026-05-01T10:37:57.967Z</time></trkpt><trkpt lat="44.3750837" lon="8.198141"><ele>417.0</ele><time>2026-05-01T10:37:58.967Z</time></trkpt><trkpt lat="44.3749732" lon="8.1982222"><ele>417.0</ele><time>2026-05-01T10:37:59.967Z</time></trkpt><trkpt lat="44.3748642" lon="8.1983037"><ele>417.0</ele><time>2026-05-01T10:38:00.967Z</time></trkpt><trkpt lat="44.374758" lon="8.1983818"><ele>417.0</ele><time>2026-05-01T10:38:01.967Z</time></trkpt><trkpt lat="44.374647" lon="8.1984637"><ele>417.0</ele><time>2026-05-01T10:38:02.967Z</time></trkpt><trkpt lat="44.3745343" lon="8.1985464"><ele>417.0</ele><time>2026-05-01T10:38:03.967Z</time></trkpt><trkpt lat="44.3744221" lon="8.1986275"><ele>417.0</ele><time>2026-05-01T10:38:04.967Z</time></trkpt><trkpt lat="44.3743071" lon="8.1987031"><ele>417.0</ele><time>2026-05-01T10:38:05.968Z</time></trkpt><trkpt lat="44.3741975" lon="8.1987785"><ele>417.0</ele><time>2026-05-01T10:38:06.967Z</time></trkpt><trkpt lat="44.374089" lon="8.1988515"><ele>417.0</ele><time>2026-05-01T10:38:07.967Z</time></trkpt><trkpt lat="44.3739747" lon="8.1989337"><ele>417.0</ele><time>2026-05-01T10:38:08.968Z</time></trkpt><trkpt lat="44.3738617" lon="8.1990165"><ele>417.0</ele><time>2026-05-01T10:38:09.968Z</time></trkpt><trkpt lat="44.3737493" lon="8.1991029"><ele>417.5</ele><time>2026-05-01T10:38:10.968Z</time></trkpt><trkpt lat="44.3736389" lon="8.1991847"><ele>418.0</ele><time>2026-05-01T10:38:11.967Z</time></trkpt><trkpt lat="44.3735299" lon="8.1992629"><ele>418.5</ele><time>2026-05-01T10:38:12.967Z</time></trkpt><trkpt lat="44.3734245" lon="8.1993454"><ele>419.0</ele><time>2026-05-01T10:38:13.967Z</time></trkpt><trkpt lat="44.3733137" lon="8.1994302"><ele>419.0</ele><time>2026-05-01T10:38:14.967Z</time></trkpt><trkpt lat="44.3732022" lon="8.1995108"><ele>419.0</ele><time>2026-05-01T10:38:15.968Z</time></trkpt><trkpt lat="44.3730931" lon="8.1995858"><ele>419.0</ele><time>2026-05-01T10:38:16.967Z</time></trkpt><trkpt lat="44.3729753" lon="8.1996624"><ele>419.0</ele><time>2026-05-01T10:38:17.968Z</time></trkpt><trkpt lat="44.3728567" lon="8.1997401"><ele>418.25</ele><time>2026-05-01T10:38:18.967Z</time></trkpt><trkpt lat="44.3727451" lon="8.199816"><ele>417.5</ele><time>2026-05-01T10:38:19.967Z</time></trkpt><trkpt lat="44.3726319" lon="8.1998965"><ele>416.75</ele><time>2026-05-01T10:38:20.967Z</time></trkpt><trkpt lat="44.3725185" lon="8.1999916"><ele>416.0</ele><time>2026-05-01T10:38:21.967Z</time></trkpt><trkpt lat="44.3723979" lon="8.2000842"><ele>416.5</ele><time>2026-05-01T10:38:22.967Z</time></trkpt><trkpt lat="44.3722754" lon="8.2001686"><ele>417.0</ele><time>2026-05-01T10:38:23.967Z</time></trkpt><trkpt lat="44.3721515" lon="8.2002561"><ele>417.5</ele><time>2026-05-01T10:38:24.968Z</time></trkpt><trkpt lat="44.3720493" lon="8.2003344"><ele>418.0</ele><time>2026-05-01T10:38:25.967Z</time></trkpt><trkpt lat="44.3719523" lon="8.2004053"><ele>418.0</ele><time>2026-05-01T10:38:26.967Z</time></trkpt><trkpt lat="44.3718576" lon="8.2004767"><ele>418.0</ele><time>2026-05-01T10:38:27.967Z</time></trkpt><trkpt lat="44.3717609" lon="8.2005514"><ele>418.0</ele><time>2026-05-01T10:38:28.967Z</time></trkpt><trkpt lat="44.3716634" lon="8.2006217"><ele>418.0</ele><time>2026-05-01T10:38:29.967Z</time></trkpt><trkpt lat="44.3715618" lon="8.2006919"><ele>418.0</ele><time>2026-05-01T10:38:30.967Z</time></trkpt><trkpt lat="44.3714592" lon="8.2007632"><ele>419.0</ele><time>2026-05-01T10:38:31.967Z</time></trkpt><trkpt lat="44.3713563" lon="8.2008361"><ele>420.0</ele><time>2026-05-01T10:38:32.967Z</time></trkpt><trkpt lat="44.3712545" lon="8.2009078"><ele>421.0</ele><time>2026-05-01T10:38:33.967Z</time></trkpt><trkpt lat="44.3711557" lon="8.2009785"><ele>422.0</ele><time>2026-05-01T10:38:34.967Z</time></trkpt><trkpt lat="44.3710536" lon="8.2010524"><ele>422.0</ele><time>2026-05-01T10:38:35.967Z</time></trkpt><trkpt lat="44.3709562" lon="8.2011232"><ele>422.0</ele><time>2026-05-01T10:38:36.967Z</time></trkpt><trkpt lat="44.3708569" lon="8.2012006"><ele>422.0</ele><time>2026-05-01T10:38:37.967Z</time></trkpt><trkpt lat="44.3707561" lon="8.201274"><ele>422.0</ele><time>2026-05-01T10:38:38.967Z</time></trkpt><trkpt lat="44.37065" lon="8.2013426"><ele>422.0</ele><time>2026-05-01T10:38:39.967Z</time></trkpt><trkpt lat="44.3705486" lon="8.2014096"><ele>422.0</ele><time>2026-05-01T10:38:40.968Z</time></trkpt><trkpt lat="44.3704484" lon="8.2014825"><ele>422.0</ele><time>2026-05-01T10:38:41.968Z</time></trkpt><trkpt lat="44.3703543" lon="8.2015587"><ele>422.0</ele><time>2026-05-01T10:38:42.967Z</time></trkpt><trkpt lat="44.3702556" lon="8.2016412"><ele>422.0</ele><time>2026-05-01T10:38:43.967Z</time></trkpt><trkpt lat="44.3701565" lon="8.2017251"><ele>422.20000000000005</ele><time>2026-05-01T10:38:44.968Z</time></trkpt><trkpt lat="44.3700582" lon="8.2018148"><ele>422.4</ele><time>2026-05-01T10:38:45.967Z</time></trkpt><trkpt lat="44.3699609" lon="8.2018998"><ele>422.6</ele><time>2026-05-01T10:38:46.967Z</time></trkpt><trkpt lat="44.3698665" lon="8.2019803"><ele>422.79999999999995</ele><time>2026-05-01T10:38:47.968Z</time></trkpt><trkpt lat="44.369779" lon="8.2020548"><ele>423.0</ele><time>2026-05-01T10:38:48.968Z</time></trkpt><trkpt lat="44.3696918" lon="8.2021243"><ele>423.0</ele><time>2026-05-01T10:38:49.968Z</time></trkpt><trkpt lat="44.369613" lon="8.2021896"><ele>423.0</ele><time>2026-05-01T10:38:50.967Z</time></trkpt><trkpt lat="44.3695399" lon="8.2022471"><ele>423.0</ele><time>2026-05-01T10:38:51.968Z</time></trkpt><trkpt lat="44.3694701" lon="8.2022994"><ele>423.0</ele><time>2026-05-01T10:38:52.967Z</time></trkpt><trkpt lat="44.3693954" lon="8.2023507"><ele>423.0</ele><time>2026-05-01T10:38:53.968Z</time></trkpt><trkpt lat="44.3693217" lon="8.2023901"><ele>423.0</ele><time>2026-05-01T10:38:54.967Z</time></trkpt><trkpt lat="44.3692431" lon="8.2024266"><ele>423.6666666666667</ele><time>2026-05-01T10:38:55.967Z</time></trkpt><trkpt lat="44.3691695" lon="8.2024611"><ele>424.33333333333337</ele><time>2026-05-01T10:38:56.968Z</time></trkpt><trkpt lat="44.3690966" lon="8.2025013"><ele>425.0</ele><time>2026-05-01T10:38:57.968Z</time></trkpt><trkpt lat="44.3690161" lon="8.2025458"><ele>425.6666666666667</ele><time>2026-05-01T10:38:58.967Z</time></trkpt><trkpt lat="44.3689222" lon="8.2025903"><ele>426.33333333333337</ele><time>2026-05-01T10:38:59.967Z</time></trkpt><trkpt lat="44.368826" lon="8.2026406"><ele>427.0</ele><time>2026-05-01T10:39:00.968Z</time></trkpt><trkpt lat="44.3687235" lon="8.2026918"><ele>427.20000000000005</ele><time>2026-05-01T10:39:01.967Z</time></trkpt><trkpt lat="44.3686247" lon="8.2027426"><ele>427.40000000000003</ele><time>2026-05-01T10:39:02.968Z</time></trkpt><trkpt lat="44.3685247" lon="8.202795"><ele>427.59999999999997</ele><time>2026-05-01T10:39:03.968Z</time></trkpt><trkpt lat="44.3684214" lon="8.2028471"><ele>427.79999999999995</ele><time>2026-05-01T10:39:04.967Z</time></trkpt><trkpt lat="44.3683138" lon="8.2028878"><ele>428.0</ele><time>2026-05-01T10:39:05.967Z</time></trkpt><trkpt lat="44.3682079" lon="8.2029256"><ele>428.0</ele><time>2026-05-01T10:39:06.967Z</time></trkpt><trkpt lat="44.3680968" lon="8.2029771"><ele>427.99999999999994</ele><time>2026-05-01T10:39:07.967Z</time></trkpt><trkpt lat="44.3679931" lon="8.2030316"><ele>427.99999999999994</ele><time>2026-05-01T10:39:08.968Z</time></trkpt><trkpt lat="44.36789" lon="8.2030838"><ele>428.0</ele><time>2026-05-01T10:39:09.968Z</time></trkpt><trkpt lat="44.3677893" lon="8.2031285"><ele>428.0</ele><time>2026-05-01T10:39:10.968Z</time></trkpt><trkpt lat="44.367679" lon="8.2031722"><ele>428.4</ele><time>2026-05-01T10:39:11.967Z</time></trkpt><trkpt lat="44.3675732" lon="8.2032218"><ele>428.79999999999995</ele><time>2026-05-01T10:39:12.968Z</time></trkpt><trkpt lat="44.3674762" lon="8.2032683"><ele>429.2</ele><time>2026-05-01T10:39:13.968Z</time></trkpt><trkpt lat="44.3673735" lon="8.2033197"><ele>429.6</ele><time>2026-05-01T10:39:14.968Z</time></trkpt><trkpt lat="44.3672682" lon="8.2033774"><ele>430.0</ele><time>2026-05-01T10:39:15.967Z</time></trkpt><trkpt lat="44.3671631" lon="8.2034238"><ele>430.0</ele><time>2026-05-01T10:39:16.967Z</time></trkpt><trkpt lat="44.3670617" lon="8.2034767"><ele>430.0</ele><time>2026-05-01T10:39:17.968Z</time></trkpt><trkpt lat="44.3669635" lon="8.2035346"><ele>430.0</ele><time>2026-05-01T10:39:18.967Z</time></trkpt><trkpt lat="44.3668615" lon="8.2035902"><ele>430.0</ele><time>2026-05-01T10:39:19.967Z</time></trkpt><trkpt lat="44.366761" lon="8.2036415"><ele>430.0</ele><time>2026-05-01T10:39:20.967Z</time></trkpt><trkpt lat="44.3666638" lon="8.2036873"><ele>430.0</ele><time>2026-05-01T10:39:21.968Z</time></trkpt><trkpt lat="44.3665676" lon="8.2037297"><ele>430.0</ele><time>2026-05-01T10:39:22.967Z</time></trkpt><trkpt lat="44.3664627" lon="8.2037587"><ele>430.0</ele><time>2026-05-01T10:39:23.967Z</time></trkpt><trkpt lat="44.3663614" lon="8.2038005"><ele>430.0</ele><time>2026-05-01T10:39:24.967Z</time></trkpt><trkpt lat="44.3662635" lon="8.2038463"><ele>430.0</ele><time>2026-05-01T10:39:25.968Z</time></trkpt><trkpt lat="44.3661641" lon="8.2039012"><ele>430.4</ele><time>2026-05-01T10:39:26.968Z</time></trkpt><trkpt lat="44.3660613" lon="8.2039442"><ele>430.8</ele><time>2026-05-01T10:39:27.968Z</time></trkpt><trkpt lat="44.3659684" lon="8.2039861"><ele>431.20000000000005</ele><time>2026-05-01T10:39:28.967Z</time></trkpt><trkpt lat="44.3658769" lon="8.2040364"><ele>431.6</ele><time>2026-05-01T10:39:29.967Z</time></trkpt><trkpt lat="44.3657925" lon="8.2040915"><ele>432.0</ele><time>2026-05-01T10:39:30.968Z</time></trkpt><trkpt lat="44.3657092" lon="8.2041491"><ele>432.0</ele><time>2026-05-01T10:39:31.968Z</time></trkpt><trkpt lat="44.3656222" lon="8.2041962"><ele>432.0</ele><time>2026-05-01T10:39:32.967Z</time></trkpt><trkpt lat="44.3655352" lon="8.2042379"><ele>432.0</ele><time>2026-05-01T10:39:33.967Z</time></trkpt><trkpt lat="44.3654564" lon="8.2042752"><ele>432.0</ele><time>2026-05-01T10:39:34.967Z</time></trkpt><trkpt lat="44.3653806" lon="8.2043122"><ele>432.0</ele><time>2026-05-01T10:39:35.968Z</time></trkpt><trkpt lat="44.3653141" lon="8.2043434"><ele>432.0</ele><time>2026-05-01T10:39:36.967Z</time></trkpt><trkpt lat="44.3652272" lon="8.2043753"><ele>431.40000000000003</ele><time>2026-05-01T10:39:38.967Z</time></trkpt><trkpt lat="44.3651603" lon="8.2043741"><ele>430.80000000000007</ele><time>2026-05-01T10:39:41.968Z</time></trkpt><trkpt lat="44.3650901" lon="8.2042485"><ele>430.2</ele><time>2026-05-01T10:39:43.967Z</time></trkpt><trkpt lat="44.3650495" lon="8.2041446"><ele>429.6</ele><time>2026-05-01T10:39:44.968Z</time></trkpt><trkpt lat="44.3650069" lon="8.2040346"><ele>429.0</ele><time>2026-05-01T10:39:45.967Z</time></trkpt><trkpt lat="44.3649567" lon="8.2039141"><ele>428.2</ele><time>2026-05-01T10:39:46.968Z</time></trkpt><trkpt lat="44.3649102" lon="8.2037833"><ele>427.4</ele><time>2026-05-01T10:39:47.968Z</time></trkpt><trkpt lat="44.3648653" lon="8.2036406"><ele>426.6</ele><time>2026-05-01T10:39:48.967Z</time></trkpt><trkpt lat="44.364821" lon="8.2034986"><ele>425.8</ele><time>2026-05-01T10:39:49.967Z</time></trkpt><trkpt lat="44.3647738" lon="8.2033483"><ele>425.0</ele><time>2026-05-01T10:39:50.967Z</time></trkpt><trkpt lat="44.3647313" lon="8.2031993"><ele>426.25</ele><time>2026-05-01T10:39:51.967Z</time></trkpt><trkpt lat="44.3646896" lon="8.2030524"><ele>427.5</ele><time>2026-05-01T10:39:52.967Z</time></trkpt><trkpt lat="44.3646468" lon="8.2029026"><ele>428.75</ele><time>2026-05-01T10:39:53.967Z</time></trkpt><trkpt lat="44.3646033" lon="8.2027597"><ele>430.0</ele><time>2026-05-01T10:39:54.968Z</time></trkpt><trkpt lat="44.3645623" lon="8.2026154"><ele>430.0</ele><time>2026-05-01T10:39:55.967Z</time></trkpt><trkpt lat="44.3645242" lon="8.2024715"><ele>430.0</ele><time>2026-05-01T10:39:56.967Z</time></trkpt><trkpt lat="44.3644787" lon="8.2023269"><ele>430.0</ele><time>2026-05-01T10:39:57.967Z</time></trkpt><trkpt lat="44.3644402" lon="8.2021816"><ele>430.0</ele><time>2026-05-01T10:39:58.967Z</time></trkpt><trkpt lat="44.3644204" lon="8.2020397"><ele>430.0</ele><time>2026-05-01T10:39:59.967Z</time></trkpt><trkpt lat="44.3644302" lon="8.2019046"><ele>430.1666666666667</ele><time>2026-05-01T10:40:00.968Z</time></trkpt><trkpt lat="44.3644499" lon="8.2017773"><ele>430.33333333333337</ele><time>2026-05-01T10:40:01.968Z</time></trkpt><trkpt lat="44.3644576" lon="8.2016579"><ele>430.5</ele><time>2026-05-01T10:40:02.968Z</time></trkpt><trkpt lat="44.3644544" lon="8.201547"><ele>430.66666666666663</ele><time>2026-05-01T10:40:03.967Z</time></trkpt><trkpt lat="44.3644372" lon="8.2014532"><ele>430.8333333333333</ele><time>2026-05-01T10:40:04.967Z</time></trkpt><trkpt lat="44.3643953" lon="8.2013178"><ele>431.0</ele><time>2026-05-01T10:40:06.967Z</time></trkpt><trkpt lat="44.3643738" lon="8.2012141"><ele>431.8</ele><time>2026-05-01T10:40:09.967Z</time></trkpt><trkpt lat="44.364363" lon="8.2011036"><ele>432.6</ele><time>2026-05-01T10:40:11.967Z</time></trkpt><trkpt lat="44.3643839" lon="8.2009485"><ele>433.4</ele><time>2026-05-01T10:40:13.968Z</time></trkpt><trkpt lat="44.3644153" lon="8.2008412"><ele>434.2</ele><time>2026-05-01T10:40:15.967Z</time></trkpt><trkpt lat="44.3644442" lon="8.2007336"><ele>435.0</ele><time>2026-05-01T10:40:17.968Z</time></trkpt><trkpt lat="44.364488" lon="8.2005887"><ele>436.0</ele><time>2026-05-01T10:40:19.967Z</time></trkpt><trkpt lat="44.3645192" lon="8.2004983"><ele>437.0</ele><time>2026-05-01T10:40:20.967Z</time></trkpt><trkpt lat="44.3645658" lon="8.200381"><ele>438.0</ele><time>2026-05-01T10:40:21.967Z</time></trkpt><trkpt lat="44.3646134" lon="8.2002514"><ele>439.0</ele><time>2026-05-01T10:40:22.967Z</time></trkpt><trkpt lat="44.364655" lon="8.2001177"><ele>440.0</ele><time>2026-05-01T10:40:23.967Z</time></trkpt><trkpt lat="44.3646976" lon="8.1999878"><ele>439.0</ele><time>2026-05-01T10:40:24.968Z</time></trkpt><trkpt lat="44.3647409" lon="8.1998534"><ele>438.0</ele><time>2026-05-01T10:40:25.967Z</time></trkpt><trkpt lat="44.3647799" lon="8.1997151"><ele>437.0</ele><time>2026-05-01T10:40:26.967Z</time></trkpt><trkpt lat="44.3648253" lon="8.1995778"><ele>436.0</ele><time>2026-05-01T10:40:27.967Z</time></trkpt><trkpt lat="44.3648754" lon="8.199441"><ele>435.0</ele><time>2026-05-01T10:40:28.968Z</time></trkpt><trkpt lat="44.3649331" lon="8.1992972"><ele>435.0</ele><time>2026-05-01T10:40:29.967Z</time></trkpt><trkpt lat="44.3649989" lon="8.199166"><ele>435.0</ele><time>2026-05-01T10:40:30.967Z</time></trkpt><trkpt lat="44.3650695" lon="8.1990345"><ele>435.0</ele><time>2026-05-01T10:40:31.967Z</time></trkpt><trkpt lat="44.3651469" lon="8.1989062"><ele>435.0</ele><time>2026-05-01T10:40:32.967Z</time></trkpt><trkpt lat="44.3652297" lon="8.1987829"><ele>435.0</ele><time>2026-05-01T10:40:33.967Z</time></trkpt><trkpt lat="44.3653211" lon="8.1986709"><ele>435.0</ele><time>2026-05-01T10:40:34.967Z</time></trkpt><trkpt lat="44.3654116" lon="8.1985504"><ele>435.0</ele><time>2026-05-01T10:40:35.967Z</time></trkpt><trkpt lat="44.3654925" lon="8.1984233"><ele>435.0</ele><time>2026-05-01T10:40:36.967Z</time></trkpt><trkpt lat="44.3655684" lon="8.1982827"><ele>435.5</ele><time>2026-05-01T10:40:37.967Z</time></trkpt><trkpt lat="44.3656379" lon="8.1981229"><ele>436.0</ele><time>2026-05-01T10:40:38.967Z</time></trkpt><trkpt lat="44.3656887" lon="8.1979459"><ele>436.5</ele><time>2026-05-01T10:40:39.968Z</time></trkpt><trkpt lat="44.3657179" lon="8.1977553"><ele>437.0</ele><time>2026-05-01T10:40:40.967Z</time></trkpt><trkpt lat="44.3657451" lon="8.1975618"><ele>437.0</ele><time>2026-05-01T10:40:41.967Z</time></trkpt><trkpt lat="44.365759" lon="8.1973677"><ele>437.0</ele><time>2026-05-01T10:40:42.967Z</time></trkpt><trkpt lat="44.3657701" lon="8.1971901"><ele>437.0</ele><time>2026-05-01T10:40:43.968Z</time></trkpt><trkpt lat="44.3657833" lon="8.1970162"><ele>437.0</ele><time>2026-05-01T10:40:44.967Z</time></trkpt><trkpt lat="44.3657868" lon="8.1968481"><ele>436.75</ele><time>2026-05-01T10:40:45.967Z</time></trkpt><trkpt lat="44.3657803" lon="8.196681"><ele>436.5</ele><time>2026-05-01T10:40:46.968Z</time></trkpt><trkpt lat="44.3657618" lon="8.1965117"><ele>436.25</ele><time>2026-05-01T10:40:47.968Z</time></trkpt><trkpt lat="44.3657293" lon="8.1963238"><ele>436.0</ele><time>2026-05-01T10:40:48.967Z</time></trkpt><trkpt lat="44.3656851" lon="8.1961371"><ele>434.75</ele><time>2026-05-01T10:40:49.967Z</time></trkpt><trkpt lat="44.3656356" lon="8.1959543"><ele>433.5</ele><time>2026-05-01T10:40:50.968Z</time></trkpt><trkpt lat="44.3655801" lon="8.1957861"><ele>432.25</ele><time>2026-05-01T10:40:51.967Z</time></trkpt><trkpt lat="44.3655124" lon="8.1956187"><ele>431.0</ele><time>2026-05-01T10:40:52.967Z</time></trkpt><trkpt lat="44.3654386" lon="8.195452"><ele>432.75</ele><time>2026-05-01T10:40:53.968Z</time></trkpt><trkpt lat="44.3653644" lon="8.1952902"><ele>434.5</ele><time>2026-05-01T10:40:54.967Z</time></trkpt><trkpt lat="44.3652864" lon="8.1951295"><ele>436.25</ele><time>2026-05-01T10:40:55.968Z</time></trkpt><trkpt lat="44.3652041" lon="8.1949676"><ele>438.0</ele><time>2026-05-01T10:40:56.967Z</time></trkpt><trkpt lat="44.365114" lon="8.1948069"><ele>438.0</ele><time>2026-05-01T10:40:57.968Z</time></trkpt><trkpt lat="44.3650217" lon="8.1946457"><ele>438.0</ele><time>2026-05-01T10:40:58.968Z</time></trkpt><trkpt lat="44.3649303" lon="8.1944812"><ele>438.0</ele><time>2026-05-01T10:40:59.967Z</time></trkpt><trkpt lat="44.3648344" lon="8.1943235"><ele>438.0</ele><time>2026-05-01T10:41:00.968Z</time></trkpt><trkpt lat="44.3647396" lon="8.1941636"><ele>438.25</ele><time>2026-05-01T10:41:01.967Z</time></trkpt><trkpt lat="44.3646393" lon="8.1940078"><ele>438.5</ele><time>2026-05-01T10:41:02.967Z</time></trkpt><trkpt lat="44.3645382" lon="8.1938544"><ele>438.75</ele><time>2026-05-01T10:41:03.968Z</time></trkpt><trkpt lat="44.3644543" lon="8.193705"><ele>439.0</ele><time>2026-05-01T10:41:04.967Z</time></trkpt><trkpt lat="44.3643616" lon="8.193572"><ele>439.0</ele><time>2026-05-01T10:41:05.968Z</time></trkpt><trkpt lat="44.3642665" lon="8.1934394"><ele>439.0</ele><time>2026-05-01T10:41:06.968Z</time></trkpt><trkpt lat="44.3641599" lon="8.1933299"><ele>439.0</ele><time>2026-05-01T10:41:07.967Z</time></trkpt><trkpt lat="44.364031" lon="8.193255"><ele>439.0</ele><time>2026-05-01T10:41:08.967Z</time></trkpt><trkpt lat="44.3639018" lon="8.1932064"><ele>439.5</ele><time>2026-05-01T10:41:09.967Z</time></trkpt><trkpt lat="44.3637608" lon="8.193163"><ele>440.0</ele><time>2026-05-01T10:41:10.967Z</time></trkpt><trkpt lat="44.3636147" lon="8.1931333"><ele>440.5</ele><time>2026-05-01T10:41:11.967Z</time></trkpt><trkpt lat="44.3634738" lon="8.1931029"><ele>441.0</ele><time>2026-05-01T10:41:12.967Z</time></trkpt><trkpt lat="44.3633336" lon="8.1930687"><ele>441.0</ele><time>2026-05-01T10:41:13.968Z</time></trkpt><trkpt lat="44.3631927" lon="8.1930453"><ele>441.0</ele><time>2026-05-01T10:41:14.967Z</time></trkpt><trkpt lat="44.3630578" lon="8.19303"><ele>441.0</ele><time>2026-05-01T10:41:15.967Z</time></trkpt><trkpt lat="44.3629189" lon="8.193038"><ele>441.0</ele><time>2026-05-01T10:41:16.968Z</time></trkpt><trkpt lat="44.3627814" lon="8.1930387"><ele>439.75</ele><time>2026-05-01T10:41:17.967Z</time></trkpt><trkpt lat="44.3626433" lon="8.193044"><ele>438.5</ele><time>2026-05-01T10:41:18.967Z</time></trkpt><trkpt lat="44.362503" lon="8.19306"><ele>437.25</ele><time>2026-05-01T10:41:19.967Z</time></trkpt><trkpt lat="44.3623667" lon="8.1930745"><ele>436.0</ele><time>2026-05-01T10:41:20.967Z</time></trkpt><trkpt lat="44.3622405" lon="8.1930836"><ele>437.0</ele><time>2026-05-01T10:41:21.968Z</time></trkpt><trkpt lat="44.3621194" lon="8.1930899"><ele>438.0</ele><time>2026-05-01T10:41:22.967Z</time></trkpt><trkpt lat="44.3620042" lon="8.1930899"><ele>439.0</ele><time>2026-05-01T10:41:23.968Z</time></trkpt><trkpt lat="44.3618921" lon="8.1930641"><ele>440.0</ele><time>2026-05-01T10:41:24.967Z</time></trkpt><trkpt lat="44.3617857" lon="8.193007"><ele>440.0</ele><time>2026-05-01T10:41:25.967Z</time></trkpt><trkpt lat="44.3616918" lon="8.1929272"><ele>440.0</ele><time>2026-05-01T10:41:26.967Z</time></trkpt><trkpt lat="44.3616153" lon="8.1928046"><ele>440.0</ele><time>2026-05-01T10:41:27.967Z</time></trkpt><trkpt lat="44.3615761" lon="8.1926624"><ele>440.0</ele><time>2026-05-01T10:41:28.968Z</time></trkpt><trkpt lat="44.3615563" lon="8.1925236"><ele>440.0</ele><time>2026-05-01T10:41:29.968Z</time></trkpt><trkpt lat="44.3615664" lon="8.19238"><ele>441.25</ele><time>2026-05-01T10:41:30.967Z</time></trkpt><trkpt lat="44.3616015" lon="8.1922195"><ele>442.5</ele><time>2026-05-01T10:41:31.967Z</time></trkpt><trkpt lat="44.361647" lon="8.1920457"><ele>443.75</ele><time>2026-05-01T10:41:32.967Z</time></trkpt><trkpt lat="44.3616919" lon="8.1918789"><ele>445.0</ele><time>2026-05-01T10:41:33.967Z</time></trkpt><trkpt lat="44.3617314" lon="8.1917164"><ele>445.0</ele><time>2026-05-01T10:41:34.968Z</time></trkpt><trkpt lat="44.3617758" lon="8.1915655"><ele>445.0</ele><time>2026-05-01T10:41:35.968Z</time></trkpt><trkpt lat="44.361799" lon="8.1914219"><ele>445.0</ele><time>2026-05-01T10:41:36.967Z</time></trkpt><trkpt lat="44.3618109" lon="8.1912939"><ele>445.0</ele><time>2026-05-01T10:41:37.967Z</time></trkpt><trkpt lat="44.3618078" lon="8.191176"><ele>445.0</ele><time>2026-05-01T10:41:38.968Z</time></trkpt><trkpt lat="44.3617861" lon="8.1910611"><ele>446.50000000000006</ele><time>2026-05-01T10:41:39.967Z</time></trkpt><trkpt lat="44.3617435" lon="8.1909559"><ele>448.0</ele><time>2026-05-01T10:41:40.967Z</time></trkpt><trkpt lat="44.3616868" lon="8.1908597"><ele>449.5</ele><time>2026-05-01T10:41:41.967Z</time></trkpt><trkpt lat="44.3616203" lon="8.1907725"><ele>451.0</ele><time>2026-05-01T10:41:42.967Z</time></trkpt><trkpt lat="44.3615473" lon="8.1906885"><ele>452.50000000000006</ele><time>2026-05-01T10:41:43.968Z</time></trkpt><trkpt lat="44.3614746" lon="8.1906203"><ele>454.0</ele><time>2026-05-01T10:41:44.968Z</time></trkpt><trkpt lat="44.3614012" lon="8.1905803"><ele>453.50000000000006</ele><time>2026-05-01T10:41:45.967Z</time></trkpt><trkpt lat="44.3613301" lon="8.1905634"><ele>453.0</ele><time>2026-05-01T10:41:46.967Z</time></trkpt><trkpt lat="44.3612561" lon="8.1905784"><ele>452.5</ele><time>2026-05-01T10:41:47.967Z</time></trkpt><trkpt lat="44.3611817" lon="8.190628"><ele>452.0</ele><time>2026-05-01T10:41:48.968Z</time></trkpt><trkpt lat="44.3611064" lon="8.1906935"><ele>451.50000000000006</ele><time>2026-05-01T10:41:49.967Z</time></trkpt><trkpt lat="44.361028" lon="8.1907423"><ele>451.0</ele><time>2026-05-01T10:41:50.967Z</time></trkpt><trkpt lat="44.360947" lon="8.1907708"><ele>451.0</ele><time>2026-05-01T10:41:51.967Z</time></trkpt><trkpt lat="44.3608612" lon="8.1907377"><ele>451.0</ele><time>2026-05-01T10:41:52.967Z</time></trkpt><trkpt lat="44.3607917" lon="8.1906483"><ele>451.0</ele><time>2026-05-01T10:41:53.967Z</time></trkpt><trkpt lat="44.3607352" lon="8.1905147"><ele>451.0</ele><time>2026-05-01T10:41:54.967Z</time></trkpt><trkpt lat="44.3607045" lon="8.1903744"><ele>451.0</ele><time>2026-05-01T10:41:55.967Z</time></trkpt><trkpt lat="44.360704" lon="8.190241"><ele>452.8</ele><time>2026-05-01T10:41:56.968Z</time></trkpt><trkpt lat="44.3607167" lon="8.1901166"><ele>454.6</ele><time>2026-05-01T10:41:57.967Z</time></trkpt><trkpt lat="44.3607275" lon="8.1899819"><ele>456.4</ele><time>2026-05-01T10:41:58.967Z</time></trkpt><trkpt lat="44.3607279" lon="8.1898385"><ele>458.2</ele><time>2026-05-01T10:41:59.967Z</time></trkpt><trkpt lat="44.3607099" lon="8.1896925"><ele>460.0</ele><time>2026-05-01T10:42:00.968Z</time></trkpt><trkpt lat="44.3606795" lon="8.1895438"><ele>462.0</ele><time>2026-05-01T10:42:01.967Z</time></trkpt><trkpt lat="44.3606454" lon="8.1893879"><ele>464.0</ele><time>2026-05-01T10:42:02.967Z</time></trkpt><trkpt lat="44.3606207" lon="8.1892272"><ele>466.0</ele><time>2026-05-01T10:42:03.968Z</time></trkpt><trkpt lat="44.3606178" lon="8.1890479"><ele>468.0</ele><time>2026-05-01T10:42:04.968Z</time></trkpt><trkpt lat="44.3606171" lon="8.1888705"><ele>469.5</ele><time>2026-05-01T10:42:05.968Z</time></trkpt><trkpt lat="44.3606114" lon="8.1886883"><ele>471.0</ele><time>2026-05-01T10:42:06.968Z</time></trkpt><trkpt lat="44.3606035" lon="8.1885053"><ele>472.5</ele><time>2026-05-01T10:42:07.967Z</time></trkpt><trkpt lat="44.3605947" lon="8.1883413"><ele>474.0</ele><time>2026-05-01T10:42:08.968Z</time></trkpt><trkpt lat="44.3605993" lon="8.1881962"><ele>473.6</ele><time>2026-05-01T10:42:09.967Z</time></trkpt><trkpt lat="44.3606284" lon="8.1880556"><ele>473.2</ele><time>2026-05-01T10:42:10.967Z</time></trkpt><trkpt lat="44.3606777" lon="8.1879255"><ele>472.80000000000007</ele><time>2026-05-01T10:42:11.967Z</time></trkpt><trkpt lat="44.3607609" lon="8.1878111"><ele>472.40000000000003</ele><time>2026-05-01T10:42:12.968Z</time></trkpt><trkpt lat="44.3608439" lon="8.1876998"><ele>472.0</ele><time>2026-05-01T10:42:13.967Z</time></trkpt><trkpt lat="44.3609217" lon="8.1875844"><ele>472.0</ele><time>2026-05-01T10:42:14.967Z</time></trkpt><trkpt lat="44.360981" lon="8.1874466"><ele>472.0</ele><time>2026-05-01T10:42:15.968Z</time></trkpt><trkpt lat="44.361025" lon="8.1872896"><ele>472.0</ele><time>2026-05-01T10:42:16.967Z</time></trkpt><trkpt lat="44.3610529" lon="8.1871155"><ele>472.0</ele><time>2026-05-01T10:42:17.968Z</time></trkpt><trkpt lat="44.3610656" lon="8.1869435"><ele>472.75</ele><time>2026-05-01T10:42:18.967Z</time></trkpt><trkpt lat="44.3610671" lon="8.1867706"><ele>473.5</ele><time>2026-05-01T10:42:19.967Z</time></trkpt><trkpt lat="44.3610636" lon="8.186593"><ele>474.25</ele><time>2026-05-01T10:42:20.968Z</time></trkpt><trkpt lat="44.3610528" lon="8.1864218"><ele>475.0</ele><time>2026-05-01T10:42:21.967Z</time></trkpt><trkpt lat="44.3610268" lon="8.1862542"><ele>477.75</ele><time>2026-05-01T10:42:22.968Z</time></trkpt><trkpt lat="44.360963" lon="8.1861146"><ele>480.5</ele><time>2026-05-01T10:42:23.967Z</time></trkpt><trkpt lat="44.3608886" lon="8.1859903"><ele>483.25</ele><time>2026-05-01T10:42:24.967Z</time></trkpt><trkpt lat="44.3608038" lon="8.1858751"><ele>486.0</ele><time>2026-05-01T10:42:25.967Z</time></trkpt><trkpt lat="44.3607187" lon="8.1857595"><ele>485.0</ele><time>2026-05-01T10:42:26.967Z</time></trkpt><trkpt lat="44.360631" lon="8.1856304"><ele>484.0</ele><time>2026-05-01T10:42:27.967Z</time></trkpt><trkpt lat="44.3605546" lon="8.185492"><ele>483.0</ele><time>2026-05-01T10:42:28.967Z</time></trkpt><trkpt lat="44.3604902" lon="8.1853355"><ele>482.0</ele><time>2026-05-01T10:42:29.967Z</time></trkpt><trkpt lat="44.3604272" lon="8.185178"><ele>482.0</ele><time>2026-05-01T10:42:30.967Z</time></trkpt><trkpt lat="44.3603692" lon="8.1850186"><ele>482.0</ele><time>2026-05-01T10:42:31.967Z</time></trkpt><trkpt lat="44.3603192" lon="8.1848598"><ele>482.0</ele><time>2026-05-01T10:42:32.967Z</time></trkpt><trkpt lat="44.3602795" lon="8.1847067"><ele>482.0</ele><time>2026-05-01T10:42:33.968Z</time></trkpt><trkpt lat="44.3602591" lon="8.1845512"><ele>482.0</ele><time>2026-05-01T10:42:34.967Z</time></trkpt><trkpt lat="44.3602654" lon="8.1843876"><ele>482.0</ele><time>2026-05-01T10:42:35.968Z</time></trkpt><trkpt lat="44.3603051" lon="8.1842249"><ele>482.0</ele><time>2026-05-01T10:42:36.967Z</time></trkpt><trkpt lat="44.360363" lon="8.1840645"><ele>482.0</ele><time>2026-05-01T10:42:37.967Z</time></trkpt><trkpt lat="44.3604238" lon="8.1839012"><ele>480.75</ele><time>2026-05-01T10:42:38.967Z</time></trkpt><trkpt lat="44.3604864" lon="8.1837321"><ele>479.5</ele><time>2026-05-01T10:42:39.967Z</time></trkpt><trkpt lat="44.3605407" lon="8.1835628"><ele>478.25</ele><time>2026-05-01T10:42:40.967Z</time></trkpt><trkpt lat="44.3605823" lon="8.1834008"><ele>477.0</ele><time>2026-05-01T10:42:41.968Z</time></trkpt><trkpt lat="44.3606158" lon="8.183249"><ele>485.5</ele><time>2026-05-01T10:42:42.967Z</time></trkpt><trkpt lat="44.3606471" lon="8.1830891"><ele>494.0</ele><time>2026-05-01T10:42:43.967Z</time></trkpt><trkpt lat="44.3606858" lon="8.1829242"><ele>502.5</ele><time>2026-05-01T10:42:44.968Z</time></trkpt><trkpt lat="44.3607178" lon="8.1827541"><ele>511.0</ele><time>2026-05-01T10:42:45.967Z</time></trkpt><trkpt lat="44.3607378" lon="8.1825807"><ele>511.0</ele><time>2026-05-01T10:42:46.967Z</time></trkpt><trkpt lat="44.3607574" lon="8.1824093"><ele>511.0</ele><time>2026-05-01T10:42:47.967Z</time></trkpt><trkpt lat="44.3607726" lon="8.1822378"><ele>511.0</ele><time>2026-05-01T10:42:48.967Z</time></trkpt><trkpt lat="44.3607799" lon="8.1820618"><ele>511.0</ele><time>2026-05-01T10:42:49.968Z</time></trkpt><trkpt lat="44.3607841" lon="8.1818901"><ele>511.75</ele><time>2026-05-01T10:42:50.967Z</time></trkpt><trkpt lat="44.3607921" lon="8.1817196"><ele>512.5</ele><time>2026-05-01T10:42:51.968Z</time></trkpt><trkpt lat="44.3607977" lon="8.1815447"><ele>513.25</ele><time>2026-05-01T10:42:52.968Z</time></trkpt><trkpt lat="44.3607949" lon="8.1813768"><ele>514.0</ele><time>2026-05-01T10:42:53.967Z</time></trkpt><trkpt lat="44.3607898" lon="8.1812015"><ele>516.5</ele><time>2026-05-01T10:42:54.967Z</time></trkpt><trkpt lat="44.3607786" lon="8.1810316"><ele>519.0</ele><time>2026-05-01T10:42:55.967Z</time></trkpt><trkpt lat="44.3607456" lon="8.1808685"><ele>521.5</ele><time>2026-05-01T10:42:56.968Z</time></trkpt><trkpt lat="44.3606893" lon="8.180714"><ele>524.0</ele><time>2026-05-01T10:42:57.967Z</time></trkpt><trkpt lat="44.3606337" lon="8.1805469"><ele>526.0</ele><time>2026-05-01T10:42:58.968Z</time></trkpt><trkpt lat="44.360588" lon="8.1803804"><ele>528.0</ele><time>2026-05-01T10:42:59.967Z</time></trkpt><trkpt lat="44.3605564" lon="8.1802233"><ele>530.0</ele><time>2026-05-01T10:43:00.968Z</time></trkpt><trkpt lat="44.3605382" lon="8.1800621"><ele>532.0</ele><time>2026-05-01T10:43:01.967Z</time></trkpt><trkpt lat="44.3605228" lon="8.1798942"><ele>523.25</ele><time>2026-05-01T10:43:02.967Z</time></trkpt><trkpt lat="44.3605117" lon="8.1797188"><ele>514.5</ele><time>2026-05-01T10:43:03.967Z</time></trkpt><trkpt lat="44.3605054" lon="8.1795452"><ele>505.75</ele><time>2026-05-01T10:43:04.967Z</time></trkpt><trkpt lat="44.3605027" lon="8.1793737"><ele>497.0</ele><time>2026-05-01T10:43:05.967Z</time></trkpt><trkpt lat="44.3605151" lon="8.1791968"><ele>498.25</ele><time>2026-05-01T10:43:06.967Z</time></trkpt><trkpt lat="44.3605197" lon="8.1790173"><ele>499.5</ele><time>2026-05-01T10:43:07.968Z</time></trkpt><trkpt lat="44.3605189" lon="8.1788345"><ele>500.75</ele><time>2026-05-01T10:43:08.967Z</time></trkpt><trkpt lat="44.3605225" lon="8.1786413"><ele>502.0</ele><time>2026-05-01T10:43:09.967Z</time></trkpt><trkpt lat="44.3605324" lon="8.1784534"><ele>502.5</ele><time>2026-05-01T10:43:10.967Z</time></trkpt><trkpt lat="44.3605342" lon="8.1782756"><ele>503.0</ele><time>2026-05-01T10:43:11.967Z</time></trkpt><trkpt lat="44.3605315" lon="8.1781081"><ele>503.5</ele><time>2026-05-01T10:43:12.967Z</time></trkpt><trkpt lat="44.3605091" lon="8.1779569"><ele>504.0</ele><time>2026-05-01T10:43:13.967Z</time></trkpt><trkpt lat="44.3604651" lon="8.1778087"><ele>504.0</ele><time>2026-05-01T10:43:14.967Z</time></trkpt><trkpt lat="44.3604177" lon="8.1776598"><ele>504.0</ele><time>2026-05-01T10:43:15.967Z</time></trkpt><trkpt lat="44.3603856" lon="8.1774911"><ele>504.0</ele><time>2026-05-01T10:43:16.968Z</time></trkpt><trkpt lat="44.3603746" lon="8.1773331"><ele>504.0</ele><time>2026-05-01T10:43:17.967Z</time></trkpt><trkpt lat="44.3603847" lon="8.1771741"><ele>504.75</ele><time>2026-05-01T10:43:18.967Z</time></trkpt><trkpt lat="44.3604094" lon="8.1770169"><ele>505.5</ele><time>2026-05-01T10:43:19.967Z</time></trkpt><trkpt lat="44.3604488" lon="8.1768473"><ele>506.25</ele><time>2026-05-01T10:43:20.967Z</time></trkpt><trkpt lat="44.3604988" lon="8.1766685"><ele>507.0</ele><time>2026-05-01T10:43:21.967Z</time></trkpt><trkpt lat="44.3605553" lon="8.1765067"><ele>515.5</ele><time>2026-05-01T10:43:22.967Z</time></trkpt><trkpt lat="44.3606154" lon="8.1763355"><ele>524.0</ele><time>2026-05-01T10:43:23.967Z</time></trkpt><trkpt lat="44.3606582" lon="8.1761606"><ele>532.5</ele><time>2026-05-01T10:43:24.968Z</time></trkpt><trkpt lat="44.360687" lon="8.1759835"><ele>541.0</ele><time>2026-05-01T10:43:25.968Z</time></trkpt><trkpt lat="44.3607079" lon="8.175814"><ele>539.75</ele><time>2026-05-01T10:43:26.967Z</time></trkpt><trkpt lat="44.3607293" lon="8.17565"><ele>538.5</ele><time>2026-05-01T10:43:27.968Z</time></trkpt><trkpt lat="44.3607579" lon="8.1754957"><ele>537.25</ele><time>2026-05-01T10:43:28.967Z</time></trkpt><trkpt lat="44.3608109" lon="8.1753478"><ele>536.0</ele><time>2026-05-01T10:43:29.967Z</time></trkpt><trkpt lat="44.3608823" lon="8.1752012"><ele>536.0</ele><time>2026-05-01T10:43:30.967Z</time></trkpt><trkpt lat="44.3609566" lon="8.1750461"><ele>536.0</ele><time>2026-05-01T10:43:31.967Z</time></trkpt><trkpt lat="44.3610215" lon="8.1748937"><ele>536.0</ele><time>2026-05-01T10:43:32.968Z</time></trkpt><trkpt lat="44.3610848" lon="8.1747449"><ele>536.0</ele><time>2026-05-01T10:43:33.967Z</time></trkpt><trkpt lat="44.3611499" lon="8.1745973"><ele>533.25</ele><time>2026-05-01T10:43:34.968Z</time></trkpt><trkpt lat="44.3612216" lon="8.1744575"><ele>530.5</ele><time>2026-05-01T10:43:35.967Z</time></trkpt><trkpt lat="44.361294" lon="8.1743242"><ele>527.75</ele><time>2026-05-01T10:43:36.967Z</time></trkpt><trkpt lat="44.3613705" lon="8.174197"><ele>525.0</ele><time>2026-05-01T10:43:37.968Z</time></trkpt><trkpt lat="44.3614522" lon="8.1740698"><ele>528.25</ele><time>2026-05-01T10:43:38.967Z</time></trkpt><trkpt lat="44.361561" lon="8.1739514"><ele>531.5</ele><time>2026-05-01T10:43:39.967Z</time></trkpt><trkpt lat="44.361659" lon="8.1738383"><ele>534.75</ele><time>2026-05-01T10:43:40.967Z</time></trkpt><trkpt lat="44.3617623" lon="8.1737394"><ele>538.0</ele><time>2026-05-01T10:43:41.967Z</time></trkpt><trkpt lat="44.3618661" lon="8.1736535"><ele>538.0</ele><time>2026-05-01T10:43:42.968Z</time></trkpt><trkpt lat="44.3619768" lon="8.1735727"><ele>538.0</ele><time>2026-05-01T10:43:43.967Z</time></trkpt><trkpt lat="44.3620916" lon="8.1734927"><ele>538.0</ele><time>2026-05-01T10:43:44.967Z</time></trkpt><trkpt lat="44.3622107" lon="8.1734102"><ele>538.0</ele><time>2026-05-01T10:43:45.967Z</time></trkpt><trkpt lat="44.3623297" lon="8.1733239"><ele>539.25</ele><time>2026-05-01T10:43:46.968Z</time></trkpt><trkpt lat="44.3624419" lon="8.1732441"><ele>540.5</ele><time>2026-05-01T10:43:47.967Z</time></trkpt><trkpt lat="44.3625458" lon="8.1731658"><ele>541.75</ele><time>2026-05-01T10:43:48.967Z</time></trkpt><trkpt lat="44.3626489" lon="8.1730858"><ele>543.0</ele><time>2026-05-01T10:43:49.967Z</time></trkpt><trkpt lat="44.3627531" lon="8.1730088"><ele>545.5</ele><time>2026-05-01T10:43:50.967Z</time></trkpt><trkpt lat="44.3628585" lon="8.17292"><ele>548.0</ele><time>2026-05-01T10:43:51.968Z</time></trkpt><trkpt lat="44.3629606" lon="8.1728266"><ele>550.5</ele><time>2026-05-01T10:43:52.967Z</time></trkpt><trkpt lat="44.3630629" lon="8.1727236"><ele>553.0</ele><time>2026-05-01T10:43:53.967Z</time></trkpt><trkpt lat="44.3631679" lon="8.1726179"><ele>556.0</ele><time>2026-05-01T10:43:54.967Z</time></trkpt><trkpt lat="44.3632663" lon="8.172504"><ele>559.0</ele><time>2026-05-01T10:43:55.968Z</time></trkpt><trkpt lat="44.3633589" lon="8.172384"><ele>562.0</ele><time>2026-05-01T10:43:56.968Z</time></trkpt><trkpt lat="44.3634514" lon="8.1722603"><ele>565.0</ele><time>2026-05-01T10:43:57.967Z</time></trkpt><trkpt lat="44.3635375" lon="8.1721395"><ele>566.0</ele><time>2026-05-01T10:43:58.967Z</time></trkpt><trkpt lat="44.3636129" lon="8.1720159"><ele>567.0</ele><time>2026-05-01T10:43:59.967Z</time></trkpt><trkpt lat="44.3636853" lon="8.171885"><ele>568.0</ele><time>2026-05-01T10:44:00.967Z</time></trkpt><trkpt lat="44.3637562" lon="8.1717475"><ele>569.0</ele><time>2026-05-01T10:44:01.967Z</time></trkpt><trkpt lat="44.3638193" lon="8.1716087"><ele>571.0</ele><time>2026-05-01T10:44:02.968Z</time></trkpt><trkpt lat="44.3638775" lon="8.1714711"><ele>573.0</ele><time>2026-05-01T10:44:03.968Z</time></trkpt><trkpt lat="44.3639382" lon="8.1713288"><ele>575.0</ele><time>2026-05-01T10:44:04.967Z</time></trkpt><trkpt lat="44.3639942" lon="8.1711862"><ele>577.0</ele><time>2026-05-01T10:44:05.967Z</time></trkpt><trkpt lat="44.3640486" lon="8.1710394"><ele>577.0</ele><time>2026-05-01T10:44:06.967Z</time></trkpt><trkpt lat="44.3640992" lon="8.1708893"><ele>577.0</ele><time>2026-05-01T10:44:07.967Z</time></trkpt><trkpt lat="44.3641459" lon="8.1707325"><ele>577.0</ele><time>2026-05-01T10:44:08.967Z</time></trkpt><trkpt lat="44.3641839" lon="8.1705661"><ele>577.0</ele><time>2026-05-01T10:44:09.967Z</time></trkpt><trkpt lat="44.3642209" lon="8.1703873"><ele>580.0</ele><time>2026-05-01T10:44:10.967Z</time></trkpt><trkpt lat="44.3642516" lon="8.1702029"><ele>583.0</ele><time>2026-05-01T10:44:11.967Z</time></trkpt><trkpt lat="44.3642845" lon="8.170023"><ele>586.0</ele><time>2026-05-01T10:44:12.967Z</time></trkpt><trkpt lat="44.3643172" lon="8.1698397"><ele>589.0</ele><time>2026-05-01T10:44:13.968Z</time></trkpt><trkpt lat="44.3643387" lon="8.1696566"><ele>590.5</ele><time>2026-05-01T10:44:14.967Z</time></trkpt><trkpt lat="44.3643489" lon="8.1694669"><ele>592.0</ele><time>2026-05-01T10:44:15.967Z</time></trkpt><trkpt lat="44.364352" lon="8.1692801"><ele>593.5</ele><time>2026-05-01T10:44:16.967Z</time></trkpt><trkpt lat="44.3643533" lon="8.1690952"><ele>595.0</ele><time>2026-05-01T10:44:17.967Z</time></trkpt><trkpt lat="44.3643533" lon="8.1689095"><ele>595.0</ele><time>2026-05-01T10:44:18.967Z</time></trkpt><trkpt lat="44.3643463" lon="8.1687151"><ele>595.0</ele><time>2026-05-01T10:44:19.968Z</time></trkpt><trkpt lat="44.3643425" lon="8.1685209"><ele>595.0</ele><time>2026-05-01T10:44:20.968Z</time></trkpt><trkpt lat="44.364331" lon="8.1683274"><ele>595.0</ele><time>2026-05-01T10:44:21.968Z</time></trkpt><trkpt lat="44.3643184" lon="8.1681403"><ele>596.75</ele><time>2026-05-01T10:44:22.968Z</time></trkpt><trkpt lat="44.3643" lon="8.1679589"><ele>598.5</ele><time>2026-05-01T10:44:23.968Z</time></trkpt><trkpt lat="44.3642838" lon="8.1677774"><ele>600.25</ele><time>2026-05-01T10:44:24.967Z</time></trkpt><trkpt lat="44.3642685" lon="8.1675877"><ele>602.0</ele><time>2026-05-01T10:44:25.967Z</time></trkpt><trkpt lat="44.3642619" lon="8.1673906"><ele>603.75</ele><time>2026-05-01T10:44:26.967Z</time></trkpt><trkpt lat="44.3642514" lon="8.1671869"><ele>605.5</ele><time>2026-05-01T10:44:27.967Z</time></trkpt><trkpt lat="44.3642321" lon="8.1669834"><ele>607.25</ele><time>2026-05-01T10:44:28.967Z</time></trkpt><trkpt lat="44.364213" lon="8.166793"><ele>609.0</ele><time>2026-05-01T10:44:29.967Z</time></trkpt><trkpt lat="44.3642073" lon="8.1665948"><ele>610.0</ele><time>2026-05-01T10:44:30.967Z</time></trkpt><trkpt lat="44.3641951" lon="8.1664019"><ele>611.0</ele><time>2026-05-01T10:44:31.967Z</time></trkpt><trkpt lat="44.3641845" lon="8.1662017"><ele>612.0</ele><time>2026-05-01T10:44:32.968Z</time></trkpt><trkpt lat="44.364171" lon="8.165999"><ele>613.0</ele><time>2026-05-01T10:44:33.967Z</time></trkpt><trkpt lat="44.3641552" lon="8.1658"><ele>614.75</ele><time>2026-05-01T10:44:34.968Z</time></trkpt><trkpt lat="44.3641378" lon="8.1655983"><ele>616.5</ele><time>2026-05-01T10:44:35.967Z</time></trkpt><trkpt lat="44.3641236" lon="8.1653946"><ele>618.25</ele><time>2026-05-01T10:44:36.968Z</time></trkpt><trkpt lat="44.3641065" lon="8.1651891"><ele>620.0</ele><time>2026-05-01T10:44:37.967Z</time></trkpt><trkpt lat="44.3640907" lon="8.1649808"><ele>620.6666666666666</ele><time>2026-05-01T10:44:38.967Z</time></trkpt><trkpt lat="44.3640761" lon="8.1647612"><ele>621.3333333333334</ele><time>2026-05-01T10:44:39.967Z</time></trkpt><trkpt lat="44.3640559" lon="8.1645422"><ele>622.0</ele><time>2026-05-01T10:44:40.967Z</time></trkpt><trkpt lat="44.3640368" lon="8.1643231"><ele>622.0</ele><time>2026-05-01T10:44:41.968Z</time></trkpt><trkpt lat="44.3640174" lon="8.1641087"><ele>622.0</ele><time>2026-05-01T10:44:42.967Z</time></trkpt><trkpt lat="44.3639943" lon="8.1638911"><ele>622.0</ele><time>2026-05-01T10:44:43.967Z</time></trkpt><trkpt lat="44.3639717" lon="8.163668"><ele>624.6666666666667</ele><time>2026-05-01T10:44:44.967Z</time></trkpt><trkpt lat="44.3639534" lon="8.1634494"><ele>627.3333333333334</ele><time>2026-05-01T10:44:45.968Z</time></trkpt><trkpt lat="44.3639354" lon="8.1632321"><ele>630.0</ele><time>2026-05-01T10:44:46.967Z</time></trkpt><trkpt lat="44.36392" lon="8.1629994"><ele>635.3333333333334</ele><time>2026-05-01T10:44:47.968Z</time></trkpt><trkpt lat="44.3639002" lon="8.1627561"><ele>640.6666666666667</ele><time>2026-05-01T10:44:48.967Z</time></trkpt><trkpt lat="44.3638889" lon="8.1625195"><ele>646.0</ele><time>2026-05-01T10:44:49.968Z</time></trkpt><trkpt lat="44.3638787" lon="8.162285"><ele>651.5</ele><time>2026-05-01T10:44:50.968Z</time></trkpt><trkpt lat="44.3638675" lon="8.1620522"><ele>657.0</ele><time>2026-05-01T10:44:51.968Z</time></trkpt><trkpt lat="44.3684917" lon="8.1522617"><ele>648.6666666666666</ele><time>2026-05-01T10:45:45.967Z</time></trkpt><trkpt lat="44.3686983" lon="8.1521838"><ele>640.3333333333333</ele><time>2026-05-01T10:45:46.968Z</time></trkpt><trkpt lat="44.3688728" lon="8.1521091"><ele>632.0</ele><time>2026-05-01T10:45:47.968Z</time></trkpt><trkpt lat="44.36903" lon="8.1520302"><ele>632.0</ele><time>2026-05-01T10:45:48.967Z</time></trkpt><trkpt lat="44.3691767" lon="8.1519436"><ele>632.0</ele><time>2026-05-01T10:45:49.967Z</time></trkpt><trkpt lat="44.3693181" lon="8.1518552"><ele>632.0</ele><time>2026-05-01T10:45:50.967Z</time></trkpt><trkpt lat="44.369456" lon="8.1517644"><ele>632.0</ele><time>2026-05-01T10:45:51.968Z</time></trkpt><trkpt lat="44.3695959" lon="8.1516689"><ele>632.0</ele><time>2026-05-01T10:45:52.968Z</time></trkpt><trkpt lat="44.3697295" lon="8.1515635"><ele>632.0</ele><time>2026-05-01T10:45:53.967Z</time></trkpt><trkpt lat="44.3698562" lon="8.15145"><ele>634.5</ele><time>2026-05-01T10:45:54.967Z</time></trkpt><trkpt lat="44.3699806" lon="8.1513331"><ele>637.0</ele><time>2026-05-01T10:45:55.968Z</time></trkpt><trkpt lat="44.370108" lon="8.1512235"><ele>639.5</ele><time>2026-05-01T10:45:56.968Z</time></trkpt><trkpt lat="44.3702325" lon="8.1511481"><ele>642.0</ele><time>2026-05-01T10:45:57.968Z</time></trkpt><trkpt lat="44.3703588" lon="8.1510905"><ele>642.0</ele><time>2026-05-01T10:45:58.967Z</time></trkpt><trkpt lat="44.3704808" lon="8.1510321"><ele>642.0</ele><time>2026-05-01T10:45:59.967Z</time></trkpt><trkpt lat="44.3706049" lon="8.1509683"><ele>642.0</ele><time>2026-05-01T10:46:00.967Z</time></trkpt><trkpt lat="44.3707357" lon="8.1508911"><ele>642.0</ele><time>2026-05-01T10:46:01.967Z</time></trkpt><trkpt lat="44.3708694" lon="8.1508073"><ele>645.75</ele><time>2026-05-01T10:46:02.967Z</time></trkpt><trkpt lat="44.3710077" lon="8.1507217"><ele>649.5</ele><time>2026-05-01T10:46:03.967Z</time></trkpt><trkpt lat="44.3711393" lon="8.1506336"><ele>653.25</ele><time>2026-05-01T10:46:04.968Z</time></trkpt><trkpt lat="44.3712697" lon="8.1505456"><ele>657.0</ele><time>2026-05-01T10:46:05.968Z</time></trkpt><trkpt lat="44.3713972" lon="8.1504527"><ele>659.75</ele><time>2026-05-01T10:46:06.967Z</time></trkpt><trkpt lat="44.3715241" lon="8.1503548"><ele>662.5</ele><time>2026-05-01T10:46:07.967Z</time></trkpt><trkpt lat="44.3716592" lon="8.1502572"><ele>665.25</ele><time>2026-05-01T10:46:08.968Z</time></trkpt><trkpt lat="44.3717948" lon="8.1501611"><ele>668.0</ele><time>2026-05-01T10:46:09.967Z</time></trkpt><trkpt lat="44.3719326" lon="8.1500667"><ele>668.0</ele><time>2026-05-01T10:46:10.967Z</time></trkpt><trkpt lat="44.3720707" lon="8.1499748"><ele>668.0</ele><time>2026-05-01T10:46:11.968Z</time></trkpt><trkpt lat="44.3722011" lon="8.1498803"><ele>668.0</ele><time>2026-05-01T10:46:12.967Z</time></trkpt><trkpt lat="44.3723226" lon="8.1497796"><ele>668.0</ele><time>2026-05-01T10:46:13.967Z</time></trkpt><trkpt lat="44.3724513" lon="8.1496942"><ele>668.75</ele><time>2026-05-01T10:46:14.967Z</time></trkpt><trkpt lat="44.3725851" lon="8.1496122"><ele>669.5</ele><time>2026-05-01T10:46:15.968Z</time></trkpt><trkpt lat="44.3727089" lon="8.1495349"><ele>670.25</ele><time>2026-05-01T10:46:16.967Z</time></trkpt><trkpt lat="44.3728399" lon="8.14945"><ele>671.0</ele><time>2026-05-01T10:46:17.968Z</time></trkpt><trkpt lat="44.3729737" lon="8.1493716"><ele>670.6666666666666</ele><time>2026-05-01T10:46:18.968Z</time></trkpt><trkpt lat="44.3731138" lon="8.1492936"><ele>670.3333333333334</ele><time>2026-05-01T10:46:19.967Z</time></trkpt><trkpt lat="44.3732558" lon="8.1492212"><ele>670.0</ele><time>2026-05-01T10:46:20.967Z</time></trkpt><trkpt lat="44.3733951" lon="8.1491425"><ele>670.0</ele><time>2026-05-01T10:46:21.967Z</time></trkpt><trkpt lat="44.3735277" lon="8.1490575"><ele>670.0</ele><time>2026-05-01T10:46:22.967Z</time></trkpt><trkpt lat="44.3736584" lon="8.1489634"><ele>670.0</ele><time>2026-05-01T10:46:23.968Z</time></trkpt><trkpt lat="44.3737886" lon="8.1488697"><ele>670.0</ele><time>2026-05-01T10:46:24.968Z</time></trkpt><trkpt lat="44.3739186" lon="8.148781"><ele>671.25</ele><time>2026-05-01T10:46:25.968Z</time></trkpt><trkpt lat="44.3740459" lon="8.1486983"><ele>672.5</ele><time>2026-05-01T10:46:26.967Z</time></trkpt><trkpt lat="44.37417" lon="8.1486071"><ele>673.75</ele><time>2026-05-01T10:46:27.968Z</time></trkpt><trkpt lat="44.374291" lon="8.1485166"><ele>675.0</ele><time>2026-05-01T10:46:28.967Z</time></trkpt><trkpt lat="44.3743961" lon="8.1484277"><ele>675.0</ele><time>2026-05-01T10:46:29.967Z</time></trkpt><trkpt lat="44.3744946" lon="8.1483318"><ele>675.0</ele><time>2026-05-01T10:46:30.968Z</time></trkpt><trkpt lat="44.3745844" lon="8.1482283"><ele>675.0</ele><time>2026-05-01T10:46:31.967Z</time></trkpt><trkpt lat="44.3746751" lon="8.148124"><ele>675.0</ele><time>2026-05-01T10:46:32.967Z</time></trkpt><trkpt lat="44.3747608" lon="8.1480181"><ele>675.4</ele><time>2026-05-01T10:46:33.967Z</time></trkpt><trkpt lat="44.3748458" lon="8.1479123"><ele>675.8</ele><time>2026-05-01T10:46:34.967Z</time></trkpt><trkpt lat="44.3749215" lon="8.1478064"><ele>676.2</ele><time>2026-05-01T10:46:35.967Z</time></trkpt><trkpt lat="44.3749982" lon="8.1476919"><ele>676.6</ele><time>2026-05-01T10:46:36.968Z</time></trkpt><trkpt lat="44.375075" lon="8.1475731"><ele>677.0</ele><time>2026-05-01T10:46:37.967Z</time></trkpt><trkpt lat="44.3751445" lon="8.1474448"><ele>677.0</ele><time>2026-05-01T10:46:38.967Z</time></trkpt><trkpt lat="44.3752164" lon="8.1473086"><ele>677.0</ele><time>2026-05-01T10:46:39.967Z</time></trkpt><trkpt lat="44.375285" lon="8.1471614"><ele>677.0</ele><time>2026-05-01T10:46:40.968Z</time></trkpt><trkpt lat="44.3753538" lon="8.147015"><ele>677.0</ele><time>2026-05-01T10:46:41.967Z</time></trkpt><trkpt lat="44.3754205" lon="8.1468681"><ele>677.0</ele><time>2026-05-01T10:46:42.967Z</time></trkpt><trkpt lat="44.3754803" lon="8.1467194"><ele>677.0</ele><time>2026-05-01T10:46:43.967Z</time></trkpt><trkpt lat="44.3755332" lon="8.1465687"><ele>677.0</ele><time>2026-05-01T10:46:44.968Z</time></trkpt><trkpt lat="44.375584" lon="8.1464085"><ele>677.0</ele><time>2026-05-01T10:46:45.967Z</time></trkpt><trkpt lat="44.3756331" lon="8.1462487"><ele>682.0</ele><time>2026-05-01T10:46:46.968Z</time></trkpt><trkpt lat="44.3756778" lon="8.1460869"><ele>687.0</ele><time>2026-05-01T10:46:47.967Z</time></trkpt><trkpt lat="44.3757144" lon="8.1459195"><ele>692.0</ele><time>2026-05-01T10:46:48.968Z</time></trkpt><trkpt lat="44.3757498" lon="8.145747"><ele>697.0</ele><time>2026-05-01T10:46:49.967Z</time></trkpt><trkpt lat="44.3757827" lon="8.1455729"><ele>697.25</ele><time>2026-05-01T10:46:50.968Z</time></trkpt><trkpt lat="44.375816" lon="8.1453912"><ele>697.5</ele><time>2026-05-01T10:46:51.967Z</time></trkpt><trkpt lat="44.3758421" lon="8.1452101"><ele>697.75</ele><time>2026-05-01T10:46:52.968Z</time></trkpt><trkpt lat="44.3758637" lon="8.1450354"><ele>698.0</ele><time>2026-05-01T10:46:53.967Z</time></trkpt><trkpt lat="44.375883" lon="8.1448612"><ele>699.25</ele><time>2026-05-01T10:46:54.968Z</time></trkpt><trkpt lat="44.3758967" lon="8.1446842"><ele>700.5</ele><time>2026-05-01T10:46:55.967Z</time></trkpt><trkpt lat="44.3759053" lon="8.1445006"><ele>701.75</ele><time>2026-05-01T10:46:56.967Z</time></trkpt><trkpt lat="44.3759075" lon="8.1443146"><ele>703.0</ele><time>2026-05-01T10:46:57.967Z</time></trkpt><trkpt lat="44.3758978" lon="8.1441285"><ele>702.75</ele><time>2026-05-01T10:46:58.968Z</time></trkpt><trkpt lat="44.3758866" lon="8.1439424"><ele>702.5</ele><time>2026-05-01T10:46:59.968Z</time></trkpt><trkpt lat="44.3758798" lon="8.1437598"><ele>702.25</ele><time>2026-05-01T10:47:00.967Z</time></trkpt><trkpt lat="44.3758696" lon="8.1435741"><ele>702.0</ele><time>2026-05-01T10:47:01.967Z</time></trkpt><trkpt lat="44.375851" lon="8.1433904"><ele>704.75</ele><time>2026-05-01T10:47:02.968Z</time></trkpt><trkpt lat="44.375825" lon="8.1432124"><ele>707.5</ele><time>2026-05-01T10:47:03.968Z</time></trkpt><trkpt lat="44.3757946" lon="8.1430348"><ele>710.25</ele><time>2026-05-01T10:47:04.967Z</time></trkpt><trkpt lat="44.3757595" lon="8.1428634"><ele>713.0</ele><time>2026-05-01T10:47:05.967Z</time></trkpt><trkpt lat="44.37572" lon="8.1426925"><ele>713.0</ele><time>2026-05-01T10:47:06.967Z</time></trkpt><trkpt lat="44.3756791" lon="8.1425267"><ele>713.0</ele><time>2026-05-01T10:47:07.967Z</time></trkpt><trkpt lat="44.3756316" lon="8.1423672"><ele>713.0</ele><time>2026-05-01T10:47:08.967Z</time></trkpt><trkpt lat="44.3755798" lon="8.1422145"><ele>713.0</ele><time>2026-05-01T10:47:09.967Z</time></trkpt><trkpt lat="44.375521" lon="8.1420626"><ele>712.75</ele><time>2026-05-01T10:47:10.968Z</time></trkpt><trkpt lat="44.3754666" lon="8.1419168"><ele>712.5</ele><time>2026-05-01T10:47:11.967Z</time></trkpt><trkpt lat="44.3754139" lon="8.1417703"><ele>712.25</ele><time>2026-05-01T10:47:12.968Z</time></trkpt><trkpt lat="44.3753617" lon="8.1416254"><ele>712.0</ele><time>2026-05-01T10:47:13.967Z</time></trkpt><trkpt lat="44.3753061" lon="8.1414843"><ele>714.6</ele><time>2026-05-01T10:47:14.967Z</time></trkpt><trkpt lat="44.3752522" lon="8.1413416"><ele>717.2</ele><time>2026-05-01T10:47:15.967Z</time></trkpt><trkpt lat="44.3751969" lon="8.141202"><ele>719.8</ele><time>2026-05-01T10:47:16.967Z</time></trkpt><trkpt lat="44.375146" lon="8.1410616"><ele>722.4</ele><time>2026-05-01T10:47:17.968Z</time></trkpt><trkpt lat="44.375102" lon="8.140926"><ele>725.0</ele><time>2026-05-01T10:47:18.967Z</time></trkpt><trkpt lat="44.375065" lon="8.1407994"><ele>726.0</ele><time>2026-05-01T10:47:19.968Z</time></trkpt><trkpt lat="44.3750307" lon="8.1406831"><ele>727.0</ele><time>2026-05-01T10:47:20.967Z</time></trkpt><trkpt lat="44.3750017" lon="8.1405743"><ele>728.0</ele><time>2026-05-01T10:47:21.967Z</time></trkpt><trkpt lat="44.3749717" lon="8.140468"><ele>729.0</ele><time>2026-05-01T10:47:22.968Z</time></trkpt><trkpt lat="44.3749449" lon="8.1403591"><ele>730.0</ele><time>2026-05-01T10:47:23.967Z</time></trkpt><trkpt lat="44.374928" lon="8.1402562"><ele>731.0</ele><time>2026-05-01T10:47:24.967Z</time></trkpt><trkpt lat="44.3749217" lon="8.1401596"><ele>731.0</ele><time>2026-05-01T10:47:25.968Z</time></trkpt><trkpt lat="44.374945" lon="8.140001"><ele>731.0</ele><time>2026-05-01T10:47:27.967Z</time></trkpt><trkpt lat="44.3749895" lon="8.1398932"><ele>731.0</ele><time>2026-05-01T10:47:29.967Z</time></trkpt><trkpt lat="44.375043" lon="8.1397725"><ele>731.0</ele><time>2026-05-01T10:47:31.968Z</time></trkpt><trkpt lat="44.3750938" lon="8.1396344"><ele>731.0</ele><time>2026-05-01T10:47:33.967Z</time></trkpt><trkpt lat="44.3750969" lon="8.1395367"><ele>730.3333333333333</ele><time>2026-05-01T10:47:35.968Z</time></trkpt><trkpt lat="44.3750375" lon="8.1394846"><ele>729.6666666666666</ele><time>2026-05-01T10:47:37.967Z</time></trkpt><trkpt lat="44.3749668" lon="8.1395264"><ele>729.0</ele><time>2026-05-01T10:47:39.967Z</time></trkpt><trkpt lat="44.3749202" lon="8.1396028"><ele>728.3333333333334</ele><time>2026-05-01T10:47:41.968Z</time></trkpt><trkpt lat="44.3748769" lon="8.1396769"><ele>727.6666666666667</ele><time>2026-05-01T10:47:44.967Z</time></trkpt><trkpt lat="44.3748366" lon="8.1397496"><ele>727.0</ele><time>2026-05-01T10:47:57.968Z</time></trkpt><trkpt lat="44.3747083" lon="8.1397333"><ele>727.0</ele><time>2026-05-01T12:09:09.976Z</time></trkpt><trkpt lat="44.374705" lon="8.139845"><ele>727.0</ele><time>2026-05-01T12:10:45.975Z</time></trkpt><trkpt lat="44.3747183" lon="8.1399383"><ele>727.0</ele><time>2026-05-01T12:10:46.976Z</time></trkpt><trkpt lat="44.3747483" lon="8.1400683"><ele>727.0</ele><time>2026-05-01T12:10:47.976Z</time></trkpt><trkpt lat="44.3747983" lon="8.1402417"><ele>727.0</ele><time>2026-05-01T12:10:48.975Z</time></trkpt><trkpt lat="44.3748683" lon="8.1404517"><ele>726.3333333333334</ele><time>2026-05-01T12:10:49.976Z</time></trkpt><trkpt lat="44.3749417" lon="8.1406867"><ele>725.6666666666666</ele><time>2026-05-01T12:10:50.976Z</time></trkpt><trkpt lat="44.3750167" lon="8.1409417"><ele>725.0</ele><time>2026-05-01T12:10:51.975Z</time></trkpt><trkpt lat="44.3751117" lon="8.14123"><ele>718.5</ele><time>2026-05-01T12:10:52.975Z</time></trkpt><trkpt lat="44.37522" lon="8.1415567"><ele>712.0</ele><time>2026-05-01T12:10:53.975Z</time></trkpt><trkpt lat="44.375335" lon="8.1419083"><ele>712.0</ele><time>2026-05-01T12:10:54.975Z</time></trkpt><trkpt lat="44.3754583" lon="8.142225"><ele>712.0</ele><time>2026-05-01T12:10:55.976Z</time></trkpt><trkpt lat="44.3755617" lon="8.1424967"><ele>712.3333333333334</ele><time>2026-05-01T12:10:56.975Z</time></trkpt><trkpt lat="44.37563" lon="8.1427317"><ele>712.6666666666666</ele><time>2026-05-01T12:10:57.975Z</time></trkpt><trkpt lat="44.3756983" lon="8.14296"><ele>713.0</ele><time>2026-05-01T12:10:58.976Z</time></trkpt><trkpt lat="44.375745" lon="8.1431917"><ele>709.3333333333333</ele><time>2026-05-01T12:10:59.976Z</time></trkpt><trkpt lat="44.3757833" lon="8.1434217"><ele>705.6666666666666</ele><time>2026-05-01T12:11:00.975Z</time></trkpt><trkpt lat="44.3758033" lon="8.1436533"><ele>702.0</ele><time>2026-05-01T12:11:01.976Z</time></trkpt><trkpt lat="44.3758167" lon="8.1438767"><ele>702.3333333333334</ele><time>2026-05-01T12:11:02.976Z</time></trkpt><trkpt lat="44.3758367" lon="8.1440917"><ele>702.6666666666667</ele><time>2026-05-01T12:11:03.976Z</time></trkpt><trkpt lat="44.37585" lon="8.1443133"><ele>703.0</ele><time>2026-05-01T12:11:04.976Z</time></trkpt><trkpt lat="44.3758417" lon="8.1445483"><ele>703.0</ele><time>2026-05-01T12:11:05.975Z</time></trkpt><trkpt lat="44.3758283" lon="8.1447817"><ele>703.0</ele><time>2026-05-01T12:11:06.976Z</time></trkpt><trkpt lat="44.3758" lon="8.145015"><ele>703.0</ele><time>2026-05-01T12:11:07.975Z</time></trkpt><trkpt lat="44.375765" lon="8.14524"><ele>701.3333333333334</ele><time>2026-05-01T12:11:08.975Z</time></trkpt><trkpt lat="44.375725" lon="8.1454683"><ele>699.6666666666666</ele><time>2026-05-01T12:11:09.975Z</time></trkpt><trkpt lat="44.3756817" lon="8.1456917"><ele>698.0</ele><time>2026-05-01T12:11:10.975Z</time></trkpt><trkpt lat="44.3756233" lon="8.1459283"><ele>697.6666666666666</ele><time>2026-05-01T12:11:11.975Z</time></trkpt><trkpt lat="44.3755667" lon="8.1461433"><ele>697.3333333333334</ele><time>2026-05-01T12:11:12.976Z</time></trkpt><trkpt lat="44.375505" lon="8.1463633"><ele>697.0</ele><time>2026-05-01T12:11:13.976Z</time></trkpt><trkpt lat="44.37543" lon="8.1465683"><ele>690.3333333333334</ele><time>2026-05-01T12:11:14.975Z</time></trkpt><trkpt lat="44.3753433" lon="8.1467717"><ele>683.6666666666666</ele><time>2026-05-01T12:11:15.975Z</time></trkpt><trkpt lat="44.3752683" lon="8.14697"><ele>677.0</ele><time>2026-05-01T12:11:16.975Z</time></trkpt><trkpt lat="44.375185" lon="8.14716"><ele>677.0</ele><time>2026-05-01T12:11:17.975Z</time></trkpt><trkpt lat="44.3750983" lon="8.1473383"><ele>677.0</ele><time>2026-05-01T12:11:18.976Z</time></trkpt><trkpt lat="44.375" lon="8.14751"><ele>677.0</ele><time>2026-05-01T12:11:19.975Z</time></trkpt><trkpt lat="44.3749133" lon="8.1476733"><ele>677.0</ele><time>2026-05-01T12:11:20.975Z</time></trkpt><trkpt lat="44.3748017" lon="8.14783"><ele>677.0</ele><time>2026-05-01T12:11:21.976Z</time></trkpt><trkpt lat="44.3746783" lon="8.1479833"><ele>677.0</ele><time>2026-05-01T12:11:22.976Z</time></trkpt><trkpt lat="44.3745483" lon="8.1481383"><ele>676.3333333333333</ele><time>2026-05-01T12:11:23.975Z</time></trkpt><trkpt lat="44.3744117" lon="8.1482933"><ele>675.6666666666666</ele><time>2026-05-01T12:11:24.976Z</time></trkpt><trkpt lat="44.3742683" lon="8.1484417"><ele>675.0</ele><time>2026-05-01T12:11:25.975Z</time></trkpt><trkpt lat="44.3741283" lon="8.148575"><ele>675.0</ele><time>2026-05-01T12:11:26.975Z</time></trkpt><trkpt lat="44.373995" lon="8.1486833"><ele>675.0</ele><time>2026-05-01T12:11:27.975Z</time></trkpt><trkpt lat="44.3738483" lon="8.1487833"><ele>675.0</ele><time>2026-05-01T12:11:28.975Z</time></trkpt><trkpt lat="44.3737067" lon="8.14888"><ele>676.6666666666666</ele><time>2026-05-01T12:11:29.975Z</time></trkpt><trkpt lat="44.373545" lon="8.1489717"><ele>678.3333333333333</ele><time>2026-05-01T12:11:30.975Z</time></trkpt><trkpt lat="44.373385" lon="8.1490667"><ele>680.0</ele><time>2026-05-01T12:11:31.975Z</time></trkpt><trkpt lat="44.3732283" lon="8.1491617"><ele>677.0</ele><time>2026-05-01T12:11:32.975Z</time></trkpt><trkpt lat="44.37307" lon="8.1492517"><ele>674.0</ele><time>2026-05-01T12:11:33.976Z</time></trkpt><trkpt lat="44.3729167" lon="8.1493467"><ele>671.0</ele><time>2026-05-01T12:11:34.976Z</time></trkpt><trkpt lat="44.3727733" lon="8.149445"><ele>671.0</ele><time>2026-05-01T12:11:35.975Z</time></trkpt><trkpt lat="44.3726283" lon="8.1495533"><ele>671.0</ele><time>2026-05-01T12:11:36.976Z</time></trkpt><trkpt lat="44.37246" lon="8.14966"><ele>671.0</ele><time>2026-05-01T12:11:37.975Z</time></trkpt><trkpt lat="44.3723017" lon="8.14976"><ele>670.0</ele><time>2026-05-01T12:11:38.975Z</time></trkpt><trkpt lat="44.3721483" lon="8.1498617"><ele>669.0</ele><time>2026-05-01T12:11:39.975Z</time></trkpt><trkpt lat="44.371995" lon="8.14997"><ele>668.0</ele><time>2026-05-01T12:11:40.976Z</time></trkpt><trkpt lat="44.37185" lon="8.15008"><ele>668.0</ele><time>2026-05-01T12:11:41.975Z</time></trkpt><trkpt lat="44.371705" lon="8.150175"><ele>668.0</ele><time>2026-05-01T12:11:42.975Z</time></trkpt><trkpt lat="44.3715483" lon="8.1502683"><ele>668.0</ele><time>2026-05-01T12:11:43.976Z</time></trkpt><trkpt lat="44.3714017" lon="8.1503517"><ele>669.3333333333333</ele><time>2026-05-01T12:11:44.975Z</time></trkpt><trkpt lat="44.371265" lon="8.1504483"><ele>670.6666666666666</ele><time>2026-05-01T12:11:45.975Z</time></trkpt><trkpt lat="44.3711233" lon="8.15054"><ele>672.0</ele><time>2026-05-01T12:11:46.975Z</time></trkpt><trkpt lat="44.3709833" lon="8.1506467"><ele>667.0</ele><time>2026-05-01T12:11:47.975Z</time></trkpt><trkpt lat="44.3708283" lon="8.1507517"><ele>662.0</ele><time>2026-05-01T12:11:48.976Z</time></trkpt><trkpt lat="44.3706767" lon="8.1508617"><ele>657.0</ele><time>2026-05-01T12:11:49.975Z</time></trkpt><trkpt lat="44.3705333" lon="8.150965"><ele>652.0</ele><time>2026-05-01T12:11:50.976Z</time></trkpt><trkpt lat="44.3703767" lon="8.151065"><ele>647.0</ele><time>2026-05-01T12:11:51.975Z</time></trkpt><trkpt lat="44.3702417" lon="8.1511583"><ele>642.0</ele><time>2026-05-01T12:11:52.976Z</time></trkpt><trkpt lat="44.3700683" lon="8.1512683"><ele>642.0</ele><time>2026-05-01T12:11:53.975Z</time></trkpt><trkpt lat="44.3698883" lon="8.151385"><ele>642.0</ele><time>2026-05-01T12:11:54.976Z</time></trkpt><trkpt lat="44.3697283" lon="8.1515"><ele>642.0</ele><time>2026-05-01T12:11:55.976Z</time></trkpt><trkpt lat="44.3695683" lon="8.1516167"><ele>638.6666666666666</ele><time>2026-05-01T12:11:56.975Z</time></trkpt><trkpt lat="44.369415" lon="8.1517317"><ele>635.3333333333333</ele><time>2026-05-01T12:11:57.975Z</time></trkpt><trkpt lat="44.3692517" lon="8.1518383"><ele>632.0</ele><time>2026-05-01T12:11:58.975Z</time></trkpt><trkpt lat="44.3690933" lon="8.15193"><ele>632.0</ele><time>2026-05-01T12:11:59.975Z</time></trkpt><trkpt lat="44.3689533" lon="8.1520317"><ele>632.0</ele><time>2026-05-01T12:12:00.975Z</time></trkpt><trkpt lat="44.3688067" lon="8.1521217"><ele>632.0</ele><time>2026-05-01T12:12:01.975Z</time></trkpt><trkpt lat="44.368665" lon="8.1522267"><ele>633.6666666666666</ele><time>2026-05-01T12:12:02.975Z</time></trkpt><trkpt lat="44.36852" lon="8.15232"><ele>635.3333333333334</ele><time>2026-05-01T12:12:03.975Z</time></trkpt><trkpt lat="44.3683717" lon="8.1524233"><ele>637.0</ele><time>2026-05-01T12:12:04.975Z</time></trkpt><trkpt lat="44.3682267" lon="8.1525117"><ele>637.0</ele><time>2026-05-01T12:12:05.975Z</time></trkpt><trkpt lat="44.36807" lon="8.1526133"><ele>637.0</ele><time>2026-05-01T12:12:06.975Z</time></trkpt><trkpt lat="44.367875" lon="8.1527333"><ele>637.0</ele><time>2026-05-01T12:12:07.975Z</time></trkpt><trkpt lat="44.3677167" lon="8.1528367"><ele>632.0</ele><time>2026-05-01T12:12:08.975Z</time></trkpt><trkpt lat="44.36756" lon="8.15293"><ele>627.0</ele><time>2026-05-01T12:12:09.975Z</time></trkpt><trkpt lat="44.3674033" lon="8.1530283"><ele>622.0</ele><time>2026-05-01T12:12:10.975Z</time></trkpt><trkpt lat="44.364" lon="8.164415"><ele>622.0</ele><time>2026-05-01T12:13:04.967Z</time></trkpt><trkpt lat="44.36398" lon="8.1646383"><ele>622.0</ele><time>2026-05-01T12:13:05.967Z</time></trkpt><trkpt lat="44.3639833" lon="8.1648817"><ele>622.0</ele><time>2026-05-01T12:13:06.967Z</time></trkpt><trkpt lat="44.363995" lon="8.1651067"><ele>621.3333333333334</ele><time>2026-05-01T12:13:07.967Z</time></trkpt><trkpt lat="44.3640067" lon="8.1653283"><ele>620.6666666666666</ele><time>2026-05-01T12:13:08.967Z</time></trkpt><trkpt lat="44.3640133" lon="8.165545"><ele>620.0</ele><time>2026-05-01T12:13:09.967Z</time></trkpt><trkpt lat="44.3640333" lon="8.1657533"><ele>617.6666666666666</ele><time>2026-05-01T12:13:10.968Z</time></trkpt><trkpt lat="44.3640483" lon="8.165975"><ele>615.3333333333334</ele><time>2026-05-01T12:13:11.967Z</time></trkpt><trkpt lat="44.364065" lon="8.166195"><ele>613.0</ele><time>2026-05-01T12:13:12.967Z</time></trkpt><trkpt lat="44.3640867" lon="8.1664267"><ele>611.6666666666667</ele><time>2026-05-01T12:13:13.967Z</time></trkpt><trkpt lat="44.364105" lon="8.1666483"><ele>610.3333333333334</ele><time>2026-05-01T12:13:14.967Z</time></trkpt><trkpt lat="44.36412" lon="8.1668617"><ele>609.0</ele><time>2026-05-01T12:13:15.968Z</time></trkpt><trkpt lat="44.364145" lon="8.1670833"><ele>609.0</ele><time>2026-05-01T12:13:16.967Z</time></trkpt><trkpt lat="44.3641717" lon="8.1672917"><ele>609.0</ele><time>2026-05-01T12:13:17.968Z</time></trkpt><trkpt lat="44.3641933" lon="8.1675183"><ele>609.0</ele><time>2026-05-01T12:13:18.968Z</time></trkpt><trkpt lat="44.36423" lon="8.1677317"><ele>606.6666666666666</ele><time>2026-05-01T12:13:19.967Z</time></trkpt><trkpt lat="44.3642467" lon="8.1679483"><ele>604.3333333333333</ele><time>2026-05-01T12:13:20.967Z</time></trkpt><trkpt lat="44.3642683" lon="8.1681617"><ele>602.0</ele><time>2026-05-01T12:13:21.967Z</time></trkpt><trkpt lat="44.3642833" lon="8.168375"><ele>600.25</ele><time>2026-05-01T12:13:22.967Z</time></trkpt><trkpt lat="44.3643067" lon="8.1685717"><ele>598.5</ele><time>2026-05-01T12:13:23.967Z</time></trkpt><trkpt lat="44.3643167" lon="8.1687767"><ele>596.75</ele><time>2026-05-01T12:13:24.967Z</time></trkpt><trkpt lat="44.36432" lon="8.16899"><ele>595.0</ele><time>2026-05-01T12:13:25.967Z</time></trkpt><trkpt lat="44.3643167" lon="8.1692133"><ele>595.0</ele><time>2026-05-01T12:13:26.968Z</time></trkpt><trkpt lat="44.364305" lon="8.1694317"><ele>595.0</ele><time>2026-05-01T12:13:27.967Z</time></trkpt><trkpt lat="44.3642867" lon="8.1696583"><ele>595.0</ele><time>2026-05-01T12:13:28.967Z</time></trkpt><trkpt lat="44.3642567" lon="8.1698717"><ele>593.0</ele><time>2026-05-01T12:13:29.967Z</time></trkpt><trkpt lat="44.36423" lon="8.1700783"><ele>591.0</ele><time>2026-05-01T12:13:30.967Z</time></trkpt><trkpt lat="44.3641867" lon="8.1702783"><ele>589.0</ele><time>2026-05-01T12:13:31.967Z</time></trkpt><trkpt lat="44.3641233" lon="8.1704817"><ele>589.0</ele><time>2026-05-01T12:13:32.968Z</time></trkpt><trkpt lat="44.36406" lon="8.1706867"><ele>589.0</ele><time>2026-05-01T12:13:33.967Z</time></trkpt><trkpt lat="44.3640117" lon="8.1708783"><ele>589.0</ele><time>2026-05-01T12:13:34.967Z</time></trkpt><trkpt lat="44.3639533" lon="8.1710683"><ele>586.0</ele><time>2026-05-01T12:13:35.967Z</time></trkpt><trkpt lat="44.3638917" lon="8.17125"><ele>583.0</ele><time>2026-05-01T12:13:36.967Z</time></trkpt><trkpt lat="44.3638233" lon="8.1714233"><ele>580.0</ele><time>2026-05-01T12:13:37.967Z</time></trkpt><trkpt lat="44.3637567" lon="8.17159"><ele>577.0</ele><time>2026-05-01T12:13:38.968Z</time></trkpt><trkpt lat="44.3636833" lon="8.1717433"><ele>575.0</ele><time>2026-05-01T12:13:39.968Z</time></trkpt><trkpt lat="44.3636083" lon="8.1718967"><ele>573.0</ele><time>2026-05-01T12:13:40.967Z</time></trkpt><trkpt lat="44.36352" lon="8.17204"><ele>571.0</ele><time>2026-05-01T12:13:41.968Z</time></trkpt><trkpt lat="44.363435" lon="8.17218"><ele>569.0</ele><time>2026-05-01T12:13:42.967Z</time></trkpt><trkpt lat="44.3633467" lon="8.172315"><ele>568.0</ele><time>2026-05-01T12:13:43.967Z</time></trkpt><trkpt lat="44.3632467" lon="8.1724417"><ele>567.0</ele><time>2026-05-01T12:13:44.967Z</time></trkpt><trkpt lat="44.363155" lon="8.1725567"><ele>566.0</ele><time>2026-05-01T12:13:45.967Z</time></trkpt><trkpt lat="44.3630617" lon="8.17266"><ele>565.0</ele><time>2026-05-01T12:13:46.968Z</time></trkpt><trkpt lat="44.36297" lon="8.1727567"><ele>562.6</ele><time>2026-05-01T12:13:47.967Z</time></trkpt><trkpt lat="44.3628817" lon="8.1728483"><ele>560.2</ele><time>2026-05-01T12:13:48.967Z</time></trkpt><trkpt lat="44.3627867" lon="8.1729333"><ele>557.8</ele><time>2026-05-01T12:13:49.967Z</time></trkpt><trkpt lat="44.36269" lon="8.1730067"><ele>555.4</ele><time>2026-05-01T12:13:50.968Z</time></trkpt><trkpt lat="44.3625967" lon="8.17308"><ele>553.0</ele><time>2026-05-01T12:13:51.967Z</time></trkpt><trkpt lat="44.3625017" lon="8.1731467"><ele>551.0</ele><time>2026-05-01T12:13:52.967Z</time></trkpt><trkpt lat="44.3624067" lon="8.173205"><ele>549.0</ele><time>2026-05-01T12:13:53.967Z</time></trkpt><trkpt lat="44.3623017" lon="8.17328"><ele>547.0</ele><time>2026-05-01T12:13:54.967Z</time></trkpt><trkpt lat="44.3621983" lon="8.173355"><ele>545.0</ele><time>2026-05-01T12:13:55.967Z</time></trkpt><trkpt lat="44.3621033" lon="8.1734267"><ele>543.0</ele><time>2026-05-01T12:13:56.967Z</time></trkpt><trkpt lat="44.3620033" lon="8.1734983"><ele>542.0</ele><time>2026-05-01T12:13:57.967Z</time></trkpt><trkpt lat="44.36191" lon="8.173575"><ele>541.0</ele><time>2026-05-01T12:13:58.967Z</time></trkpt><trkpt lat="44.3618167" lon="8.1736583"><ele>540.0</ele><time>2026-05-01T12:13:59.967Z</time></trkpt><trkpt lat="44.361725" lon="8.1737417"><ele>539.0</ele><time>2026-05-01T12:14:00.967Z</time></trkpt><trkpt lat="44.3616367" lon="8.1738317"><ele>538.0</ele><time>2026-05-01T12:14:01.967Z</time></trkpt><trkpt lat="44.3615433" lon="8.1739233"><ele>538.0</ele><time>2026-05-01T12:14:02.967Z</time></trkpt><trkpt lat="44.3614483" lon="8.17402"><ele>538.0</ele><time>2026-05-01T12:14:03.967Z</time></trkpt><trkpt lat="44.3613567" lon="8.1741383"><ele>538.0</ele><time>2026-05-01T12:14:04.967Z</time></trkpt><trkpt lat="44.3612733" lon="8.17432"><ele>538.0</ele><time>2026-05-01T12:14:05.968Z</time></trkpt><trkpt lat="44.3611483" lon="8.1745533"><ele>537.3333333333334</ele><time>2026-05-01T12:14:06.967Z</time></trkpt><trkpt lat="44.3610533" lon="8.1747667"><ele>536.6666666666666</ele><time>2026-05-01T12:14:07.968Z</time></trkpt><trkpt lat="44.360955" lon="8.1749533"><ele>536.0</ele><time>2026-05-01T12:14:08.968Z</time></trkpt><trkpt lat="44.36087" lon="8.1751317"><ele>536.0</ele><time>2026-05-01T12:14:09.967Z</time></trkpt><trkpt lat="44.3608017" lon="8.1752967"><ele>536.0</ele><time>2026-05-01T12:14:10.967Z</time></trkpt><trkpt lat="44.360745" lon="8.17545"><ele>536.0</ele><time>2026-05-01T12:14:11.968Z</time></trkpt><trkpt lat="44.360695" lon="8.1756067"><ele>536.0</ele><time>2026-05-01T12:14:12.967Z</time></trkpt><trkpt lat="44.3606733" lon="8.1757833"><ele>537.0</ele><time>2026-05-01T12:14:13.967Z</time></trkpt><trkpt lat="44.3606517" lon="8.17593"><ele>538.0</ele><time>2026-05-01T12:14:14.967Z</time></trkpt><trkpt lat="44.360645" lon="8.1760617"><ele>539.0</ele><time>2026-05-01T12:14:15.967Z</time></trkpt><trkpt lat="44.3606267" lon="8.17619"><ele>540.0</ele><time>2026-05-01T12:14:16.968Z</time></trkpt><trkpt lat="44.3606067" lon="8.1763083"><ele>541.0</ele><time>2026-05-01T12:14:17.967Z</time></trkpt><trkpt lat="44.3605717" lon="8.1764267"><ele>540.25</ele><time>2026-05-01T12:14:18.967Z</time></trkpt><trkpt lat="44.360535" lon="8.17657"><ele>539.5</ele><time>2026-05-01T12:14:19.967Z</time></trkpt><trkpt lat="44.36049" lon="8.17673"><ele>538.75</ele><time>2026-05-01T12:14:20.967Z</time></trkpt><trkpt lat="44.360445" lon="8.1769033"><ele>538.0</ele><time>2026-05-01T12:14:21.968Z</time></trkpt><trkpt lat="44.3604067" lon="8.177085"><ele>530.25</ele><time>2026-05-01T12:14:22.967Z</time></trkpt><trkpt lat="44.3603817" lon="8.1772767"><ele>522.5</ele><time>2026-05-01T12:14:23.967Z</time></trkpt><trkpt lat="44.3603517" lon="8.177465"><ele>514.75</ele><time>2026-05-01T12:14:24.968Z</time></trkpt><trkpt lat="44.3603583" lon="8.177645"><ele>507.0</ele><time>2026-05-01T12:14:25.967Z</time></trkpt><trkpt lat="44.3604067" lon="8.1778383"><ele>506.25</ele><time>2026-05-01T12:14:26.968Z</time></trkpt><trkpt lat="44.360485" lon="8.17802"><ele>505.5</ele><time>2026-05-01T12:14:27.967Z</time></trkpt><trkpt lat="44.3605333" lon="8.1782183"><ele>504.75</ele><time>2026-05-01T12:14:28.967Z</time></trkpt><trkpt lat="44.3605367" lon="8.1784217"><ele>504.0</ele><time>2026-05-01T12:14:29.967Z</time></trkpt><trkpt lat="44.3605367" lon="8.17862"><ele>503.5</ele><time>2026-05-01T12:14:30.967Z</time></trkpt><trkpt lat="44.3605317" lon="8.1788133"><ele>503.0</ele><time>2026-05-01T12:14:31.967Z</time></trkpt><trkpt lat="44.3605183" lon="8.1790133"><ele>502.5</ele><time>2026-05-01T12:14:32.967Z</time></trkpt><trkpt lat="44.3605183" lon="8.1791983"><ele>502.0</ele><time>2026-05-01T12:14:33.967Z</time></trkpt><trkpt lat="44.3605167" lon="8.179385"><ele>500.75</ele><time>2026-05-01T12:14:34.967Z</time></trkpt><trkpt lat="44.3605117" lon="8.1795817"><ele>499.5</ele><time>2026-05-01T12:14:35.967Z</time></trkpt><trkpt lat="44.360505" lon="8.1797733"><ele>498.25</ele><time>2026-05-01T12:14:36.967Z</time></trkpt><trkpt lat="44.3605017" lon="8.179955"><ele>497.0</ele><time>2026-05-01T12:14:37.967Z</time></trkpt><trkpt lat="44.3605133" lon="8.18014"><ele>495.5</ele><time>2026-05-01T12:14:38.967Z</time></trkpt><trkpt lat="44.36053" lon="8.18032"><ele>494.0</ele><time>2026-05-01T12:14:39.967Z</time></trkpt><trkpt lat="44.3605633" lon="8.1805083"><ele>492.5</ele><time>2026-05-01T12:14:40.967Z</time></trkpt><trkpt lat="44.3606033" lon="8.1806867"><ele>491.0</ele><time>2026-05-01T12:14:41.967Z</time></trkpt><trkpt lat="44.3606517" lon="8.1808633"><ele>496.75</ele><time>2026-05-01T12:14:42.968Z</time></trkpt><trkpt lat="44.3607117" lon="8.1810367"><ele>502.5</ele><time>2026-05-01T12:14:43.968Z</time></trkpt><trkpt lat="44.36076" lon="8.1812"><ele>508.25</ele><time>2026-05-01T12:14:44.967Z</time></trkpt><trkpt lat="44.3607917" lon="8.1813733"><ele>514.0</ele><time>2026-05-01T12:14:45.967Z</time></trkpt><trkpt lat="44.3607967" lon="8.18155"><ele>514.0</ele><time>2026-05-01T12:14:46.968Z</time></trkpt><trkpt lat="44.3607867" lon="8.1817333"><ele>514.0</ele><time>2026-05-01T12:14:47.967Z</time></trkpt><trkpt lat="44.3607733" lon="8.1819217"><ele>514.0</ele><time>2026-05-01T12:14:48.968Z</time></trkpt><trkpt lat="44.3607667" lon="8.1821067"><ele>514.0</ele><time>2026-05-01T12:14:49.967Z</time></trkpt><trkpt lat="44.3607567" lon="8.1822867"><ele>513.25</ele><time>2026-05-01T12:14:50.967Z</time></trkpt><trkpt lat="44.3607433" lon="8.182465"><ele>512.5</ele><time>2026-05-01T12:14:51.968Z</time></trkpt><trkpt lat="44.3607133" lon="8.1826483"><ele>511.75</ele><time>2026-05-01T12:14:52.968Z</time></trkpt><trkpt lat="44.3606983" lon="8.1828217"><ele>511.0</ele><time>2026-05-01T12:14:53.967Z</time></trkpt><trkpt lat="44.3606767" lon="8.1829933"><ele>511.0</ele><time>2026-05-01T12:14:54.968Z</time></trkpt><trkpt lat="44.3606383" lon="8.18317"><ele>511.0</ele><time>2026-05-01T12:14:55.967Z</time></trkpt><trkpt lat="44.3605983" lon="8.18336"><ele>511.0</ele><time>2026-05-01T12:14:56.968Z</time></trkpt><trkpt lat="44.36054" lon="8.1835333"><ele>511.0</ele><time>2026-05-01T12:14:57.968Z</time></trkpt><trkpt lat="44.3604883" lon="8.183705"><ele>503.75</ele><time>2026-05-01T12:14:58.968Z</time></trkpt><trkpt lat="44.360435" lon="8.183875"><ele>496.5</ele><time>2026-05-01T12:14:59.968Z</time></trkpt><trkpt lat="44.36038" lon="8.18405"><ele>489.25</ele><time>2026-05-01T12:15:00.967Z</time></trkpt><trkpt lat="44.36032" lon="8.184205"><ele>482.0</ele><time>2026-05-01T12:15:01.967Z</time></trkpt><trkpt lat="44.360275" lon="8.1843733"><ele>482.0</ele><time>2026-05-01T12:15:02.967Z</time></trkpt><trkpt lat="44.3602533" lon="8.1845417"><ele>482.0</ele><time>2026-05-01T12:15:03.967Z</time></trkpt><trkpt lat="44.360265" lon="8.1847167"><ele>482.0</ele><time>2026-05-01T12:15:04.967Z</time></trkpt><trkpt lat="44.36029" lon="8.18489"><ele>482.0</ele><time>2026-05-01T12:15:05.968Z</time></trkpt><trkpt lat="44.3603417" lon="8.185055"><ele>482.0</ele><time>2026-05-01T12:15:06.967Z</time></trkpt><trkpt lat="44.3603833" lon="8.1852283"><ele>482.0</ele><time>2026-05-01T12:15:07.967Z</time></trkpt><trkpt lat="44.3604533" lon="8.1853883"><ele>482.0</ele><time>2026-05-01T12:15:08.967Z</time></trkpt><trkpt lat="44.360525" lon="8.1855467"><ele>482.0</ele><time>2026-05-01T12:15:09.968Z</time></trkpt><trkpt lat="44.3605933" lon="8.1856933"><ele>483.0</ele><time>2026-05-01T12:15:10.968Z</time></trkpt><trkpt lat="44.360685" lon="8.1858233"><ele>484.0</ele><time>2026-05-01T12:15:11.967Z</time></trkpt><trkpt lat="44.3608" lon="8.1859367"><ele>485.0</ele><time>2026-05-01T12:15:12.968Z</time></trkpt><trkpt lat="44.3608917" lon="8.186085"><ele>486.0</ele><time>2026-05-01T12:15:13.967Z</time></trkpt><trkpt lat="44.3609683" lon="8.1862367"><ele>486.0</ele><time>2026-05-01T12:15:14.967Z</time></trkpt><trkpt lat="44.3610383" lon="8.1864067"><ele>486.0</ele><time>2026-05-01T12:15:15.967Z</time></trkpt><trkpt lat="44.36107" lon="8.186575"><ele>486.0</ele><time>2026-05-01T12:15:16.967Z</time></trkpt><trkpt lat="44.3610767" lon="8.1867633"><ele>486.0</ele><time>2026-05-01T12:15:17.967Z</time></trkpt><trkpt lat="44.3610517" lon="8.1869583"><ele>483.25</ele><time>2026-05-01T12:15:18.967Z</time></trkpt><trkpt lat="44.3610217" lon="8.18715"><ele>480.5</ele><time>2026-05-01T12:15:19.968Z</time></trkpt><trkpt lat="44.3609717" lon="8.1873383"><ele>477.75</ele><time>2026-05-01T12:15:20.967Z</time></trkpt><trkpt lat="44.3609183" lon="8.1875183"><ele>475.0</ele><time>2026-05-01T12:15:21.967Z</time></trkpt><trkpt lat="44.3608583" lon="8.18768"><ele>474.75</ele><time>2026-05-01T12:15:22.967Z</time></trkpt><trkpt lat="44.360775" lon="8.187825"><ele>474.5</ele><time>2026-05-01T12:15:23.967Z</time></trkpt><trkpt lat="44.3606833" lon="8.187945"><ele>474.25</ele><time>2026-05-01T12:15:24.968Z</time></trkpt><trkpt lat="44.3606017" lon="8.188065"><ele>474.0</ele><time>2026-05-01T12:15:25.967Z</time></trkpt><trkpt lat="44.360535" lon="8.1881933"><ele>474.0</ele><time>2026-05-01T12:15:26.967Z</time></trkpt><trkpt lat="44.360495" lon="8.1883383"><ele>474.0</ele><time>2026-05-01T12:15:27.967Z</time></trkpt><trkpt lat="44.3605033" lon="8.18851"><ele>474.0</ele><time>2026-05-01T12:15:28.968Z</time></trkpt><trkpt lat="44.36054" lon="8.1886783"><ele>474.0</ele><time>2026-05-01T12:15:29.967Z</time></trkpt><trkpt lat="44.3605683" lon="8.1888383"><ele>474.0</ele><time>2026-05-01T12:15:30.967Z</time></trkpt><trkpt lat="44.3605733" lon="8.188995"><ele>474.0</ele><time>2026-05-01T12:15:31.967Z</time></trkpt><trkpt lat="44.3605783" lon="8.1891383"><ele>474.0</ele><time>2026-05-01T12:15:32.967Z</time></trkpt><trkpt lat="44.3605867" lon="8.1892917"><ele>474.0</ele><time>2026-05-01T12:15:33.968Z</time></trkpt><trkpt lat="44.360605" lon="8.1894283"><ele>474.0</ele><time>2026-05-01T12:15:34.967Z</time></trkpt><trkpt lat="44.360635" lon="8.189585"><ele>472.5</ele><time>2026-05-01T12:15:35.967Z</time></trkpt><trkpt lat="44.360675" lon="8.1897383"><ele>471.0</ele><time>2026-05-01T12:15:36.967Z</time></trkpt><trkpt lat="44.3607083" lon="8.18989"><ele>469.5</ele><time>2026-05-01T12:15:37.967Z</time></trkpt><trkpt lat="44.36073" lon="8.1900517"><ele>468.0</ele><time>2026-05-01T12:15:38.968Z</time></trkpt><trkpt lat="44.3607167" lon="8.1902067"><ele>466.4</ele><time>2026-05-01T12:15:39.968Z</time></trkpt><trkpt lat="44.3607" lon="8.190365"><ele>464.79999999999995</ele><time>2026-05-01T12:15:40.968Z</time></trkpt><trkpt lat="44.3607083" lon="8.1905033"><ele>463.2</ele><time>2026-05-01T12:15:41.968Z</time></trkpt><trkpt lat="44.360725" lon="8.1906383"><ele>461.6</ele><time>2026-05-01T12:15:42.967Z</time></trkpt><trkpt lat="44.36077" lon="8.1907433"><ele>460.0</ele><time>2026-05-01T12:15:43.968Z</time></trkpt><trkpt lat="44.3608217" lon="8.1908417"><ele>458.2</ele><time>2026-05-01T12:15:44.967Z</time></trkpt><trkpt lat="44.3608883" lon="8.1909167"><ele>456.4</ele><time>2026-05-01T12:15:45.967Z</time></trkpt><trkpt lat="44.3609767" lon="8.1909467"><ele>454.6</ele><time>2026-05-01T12:15:46.968Z</time></trkpt><trkpt lat="44.3610483" lon="8.190955"><ele>452.8</ele><time>2026-05-01T12:15:47.967Z</time></trkpt><trkpt lat="44.3611283" lon="8.1908717"><ele>451.0</ele><time>2026-05-01T12:15:48.967Z</time></trkpt><trkpt lat="44.3612117" lon="8.1907833"><ele>451.00000000000006</ele><time>2026-05-01T12:15:49.967Z</time></trkpt><trkpt lat="44.3612883" lon="8.190715"><ele>451.0</ele><time>2026-05-01T12:15:50.967Z</time></trkpt><trkpt lat="44.361365" lon="8.190685"><ele>451.0</ele><time>2026-05-01T12:15:51.968Z</time></trkpt><trkpt lat="44.36145" lon="8.1906967"><ele>451.0</ele><time>2026-05-01T12:15:52.967Z</time></trkpt><trkpt lat="44.361525" lon="8.1907183"><ele>451.00000000000006</ele><time>2026-05-01T12:15:53.967Z</time></trkpt><trkpt lat="44.3616033" lon="8.19079"><ele>451.0</ele><time>2026-05-01T12:15:54.968Z</time></trkpt><trkpt lat="44.3616767" lon="8.1908817"><ele>451.75</ele><time>2026-05-01T12:15:55.967Z</time></trkpt><trkpt lat="44.3617383" lon="8.191045"><ele>452.5</ele><time>2026-05-01T12:15:56.968Z</time></trkpt><trkpt lat="44.36179" lon="8.1912183"><ele>453.25</ele><time>2026-05-01T12:15:57.968Z</time></trkpt><trkpt lat="44.3617883" lon="8.191375"><ele>454.0</ele><time>2026-05-01T12:15:58.967Z</time></trkpt><trkpt lat="44.3617683" lon="8.1915383"><ele>452.2</ele><time>2026-05-01T12:15:59.968Z</time></trkpt><trkpt lat="44.361745" lon="8.1916683"><ele>450.4</ele><time>2026-05-01T12:16:00.968Z</time></trkpt><trkpt lat="44.3617017" lon="8.1918"><ele>448.6</ele><time>2026-05-01T12:16:01.968Z</time></trkpt><trkpt lat="44.3616683" lon="8.1919433"><ele>446.8</ele><time>2026-05-01T12:16:02.968Z</time></trkpt><trkpt lat="44.3616483" lon="8.19208"><ele>445.0</ele><time>2026-05-01T12:16:03.967Z</time></trkpt><trkpt lat="44.3616067" lon="8.1922167"><ele>444.0</ele><time>2026-05-01T12:16:04.967Z</time></trkpt><trkpt lat="44.3615833" lon="8.1923633"><ele>443.0</ele><time>2026-05-01T12:16:05.967Z</time></trkpt><trkpt lat="44.36156" lon="8.1924983"><ele>442.0</ele><time>2026-05-01T12:16:06.968Z</time></trkpt><trkpt lat="44.3615633" lon="8.19264"><ele>441.0</ele><time>2026-05-01T12:16:07.968Z</time></trkpt><trkpt lat="44.3615867" lon="8.19278"><ele>440.0</ele><time>2026-05-01T12:16:08.967Z</time></trkpt><trkpt lat="44.3616333" lon="8.192905"><ele>440.0</ele><time>2026-05-01T12:16:09.967Z</time></trkpt><trkpt lat="44.361695" lon="8.19301"><ele>440.0</ele><time>2026-05-01T12:16:10.968Z</time></trkpt><trkpt lat="44.3617767" lon="8.193115"><ele>440.0</ele><time>2026-05-01T12:16:11.967Z</time></trkpt><trkpt lat="44.3618683" lon="8.1931767"><ele>440.0</ele><time>2026-05-01T12:16:12.967Z</time></trkpt><trkpt lat="44.3619667" lon="8.1932067"><ele>440.0</ele><time>2026-05-01T12:16:13.967Z</time></trkpt><trkpt lat="44.36207" lon="8.1932267"><ele>442.75</ele><time>2026-05-01T12:16:14.968Z</time></trkpt><trkpt lat="44.3621783" lon="8.193235"><ele>445.5</ele><time>2026-05-01T12:16:15.967Z</time></trkpt><trkpt lat="44.3622967" lon="8.1932267"><ele>448.25</ele><time>2026-05-01T12:16:16.968Z</time></trkpt><trkpt lat="44.36242" lon="8.1932033"><ele>451.0</ele><time>2026-05-01T12:16:17.967Z</time></trkpt><trkpt lat="44.3625733" lon="8.1931767"><ele>447.6666666666667</ele><time>2026-05-01T12:16:18.968Z</time></trkpt><trkpt lat="44.36272" lon="8.1931467"><ele>444.33333333333337</ele><time>2026-05-01T12:16:19.967Z</time></trkpt><trkpt lat="44.3628783" lon="8.19313"><ele>441.0</ele><time>2026-05-01T12:16:20.968Z</time></trkpt><trkpt lat="44.3630417" lon="8.1931067"><ele>441.0</ele><time>2026-05-01T12:16:21.967Z</time></trkpt><trkpt lat="44.36322" lon="8.1931033"><ele>441.0</ele><time>2026-05-01T12:16:22.967Z</time></trkpt><trkpt lat="44.3634" lon="8.1931417"><ele>441.0</ele><time>2026-05-01T12:16:23.967Z</time></trkpt><trkpt lat="44.3635733" lon="8.1932033"><ele>440.33333333333337</ele><time>2026-05-01T12:16:24.967Z</time></trkpt><trkpt lat="44.3637367" lon="8.1932617"><ele>439.6666666666667</ele><time>2026-05-01T12:16:25.967Z</time></trkpt><trkpt lat="44.3638983" lon="8.1933483"><ele>439.0</ele><time>2026-05-01T12:16:26.967Z</time></trkpt><trkpt lat="44.3640517" lon="8.1934083"><ele>439.0</ele><time>2026-05-01T12:16:27.967Z</time></trkpt><trkpt lat="44.3641867" lon="8.193505"><ele>439.0</ele><time>2026-05-01T12:16:28.968Z</time></trkpt><trkpt lat="44.3642983" lon="8.1936233"><ele>439.0</ele><time>2026-05-01T12:16:29.967Z</time></trkpt><trkpt lat="44.3643967" lon="8.1937633"><ele>439.0</ele><time>2026-05-01T12:16:30.967Z</time></trkpt><trkpt lat="44.3644767" lon="8.1938933"><ele>438.75</ele><time>2026-05-01T12:16:31.968Z</time></trkpt><trkpt lat="44.3645783" lon="8.19403"><ele>438.5</ele><time>2026-05-01T12:16:32.967Z</time></trkpt><trkpt lat="44.3646583" lon="8.1941717"><ele>438.25</ele><time>2026-05-01T12:16:33.967Z</time></trkpt><trkpt lat="44.3647583" lon="8.1943117"><ele>438.0</ele><time>2026-05-01T12:16:34.967Z</time></trkpt><trkpt lat="44.3648583" lon="8.1944733"><ele>438.0</ele><time>2026-05-01T12:16:35.967Z</time></trkpt><trkpt lat="44.36496" lon="8.1946517"><ele>438.0</ele><time>2026-05-01T12:16:36.967Z</time></trkpt><trkpt lat="44.3650583" lon="8.19483"><ele>438.0</ele><time>2026-05-01T12:16:37.967Z</time></trkpt><trkpt lat="44.3651533" lon="8.1949967"><ele>439.25</ele><time>2026-05-01T12:16:38.967Z</time></trkpt><trkpt lat="44.3652467" lon="8.1951667"><ele>440.5</ele><time>2026-05-01T12:16:39.968Z</time></trkpt><trkpt lat="44.3653317" lon="8.1953367"><ele>441.75</ele><time>2026-05-01T12:16:40.967Z</time></trkpt><trkpt lat="44.36541" lon="8.1954967"><ele>443.0</ele><time>2026-05-01T12:16:41.968Z</time></trkpt><trkpt lat="44.36548" lon="8.195665"><ele>440.0</ele><time>2026-05-01T12:16:42.968Z</time></trkpt><trkpt lat="44.3655433" lon="8.1958367"><ele>437.0</ele><time>2026-05-01T12:16:43.967Z</time></trkpt><trkpt lat="44.3656" lon="8.196015"><ele>434.0</ele><time>2026-05-01T12:16:44.967Z</time></trkpt><trkpt lat="44.3656533" lon="8.1961917"><ele>431.0</ele><time>2026-05-01T12:16:45.967Z</time></trkpt><trkpt lat="44.3657083" lon="8.1963683"><ele>432.25</ele><time>2026-05-01T12:16:46.968Z</time></trkpt><trkpt lat="44.365745" lon="8.19654"><ele>433.5</ele><time>2026-05-01T12:16:47.967Z</time></trkpt><trkpt lat="44.3657733" lon="8.1967133"><ele>434.75</ele><time>2026-05-01T12:16:48.967Z</time></trkpt><trkpt lat="44.3657733" lon="8.1968983"><ele>436.0</ele><time>2026-05-01T12:16:49.968Z</time></trkpt><trkpt lat="44.3657717" lon="8.1970783"><ele>436.0</ele><time>2026-05-01T12:16:50.967Z</time></trkpt><trkpt lat="44.3657583" lon="8.1972533"><ele>436.0</ele><time>2026-05-01T12:16:51.968Z</time></trkpt><trkpt lat="44.3657383" lon="8.1974333"><ele>436.0</ele><time>2026-05-01T12:16:52.968Z</time></trkpt><trkpt lat="44.3657167" lon="8.1976067"><ele>436.0</ele><time>2026-05-01T12:16:53.967Z</time></trkpt><trkpt lat="44.3656733" lon="8.197795"><ele>436.25</ele><time>2026-05-01T12:16:54.967Z</time></trkpt><trkpt lat="44.3656333" lon="8.1979683"><ele>436.5</ele><time>2026-05-01T12:16:55.967Z</time></trkpt><trkpt lat="44.3655933" lon="8.1981383"><ele>436.75</ele><time>2026-05-01T12:16:56.967Z</time></trkpt><trkpt lat="44.365535" lon="8.1983017"><ele>437.0</ele><time>2026-05-01T12:16:57.967Z</time></trkpt><trkpt lat="44.365475" lon="8.1984383"><ele>438.25</ele><time>2026-05-01T12:16:58.967Z</time></trkpt><trkpt lat="44.3654133" lon="8.19856"><ele>439.5</ele><time>2026-05-01T12:16:59.967Z</time></trkpt><trkpt lat="44.3653267" lon="8.1986717"><ele>440.75</ele><time>2026-05-01T12:17:00.967Z</time></trkpt><trkpt lat="44.3652467" lon="8.1987894"><ele>442.0</ele><time>2026-05-01T12:17:01.967Z</time></trkpt><trkpt lat="44.365169" lon="8.1989086"><ele>440.25</ele><time>2026-05-01T12:17:02.968Z</time></trkpt><trkpt lat="44.3650984" lon="8.1990335"><ele>438.5</ele><time>2026-05-01T12:17:03.967Z</time></trkpt><trkpt lat="44.3650221" lon="8.1991674"><ele>436.75</ele><time>2026-05-01T12:17:04.968Z</time></trkpt><trkpt lat="44.3649461" lon="8.1993073"><ele>435.0</ele><time>2026-05-01T12:17:05.967Z</time></trkpt><trkpt lat="44.3648761" lon="8.1994527"><ele>435.0</ele><time>2026-05-01T12:17:06.967Z</time></trkpt><trkpt lat="44.3648198" lon="8.1996052"><ele>435.0</ele><time>2026-05-01T12:17:07.967Z</time></trkpt><trkpt lat="44.364763" lon="8.1997629"><ele>435.0</ele><time>2026-05-01T12:17:08.968Z</time></trkpt><trkpt lat="44.3647067" lon="8.1999157"><ele>435.0</ele><time>2026-05-01T12:17:09.967Z</time></trkpt><trkpt lat="44.3646552" lon="8.2000669"><ele>435.0</ele><time>2026-05-01T12:17:10.968Z</time></trkpt><trkpt lat="44.3646108" lon="8.2002113"><ele>435.0</ele><time>2026-05-01T12:17:11.967Z</time></trkpt><trkpt lat="44.3645593" lon="8.2003637"><ele>435.0</ele><time>2026-05-01T12:17:12.967Z</time></trkpt><trkpt lat="44.3645033" lon="8.2005286"><ele>435.0</ele><time>2026-05-01T12:17:13.967Z</time></trkpt><trkpt lat="44.3644448" lon="8.2007103"><ele>435.0</ele><time>2026-05-01T12:17:14.968Z</time></trkpt><trkpt lat="44.3643682" lon="8.2009048"><ele>435.0</ele><time>2026-05-01T12:17:15.967Z</time></trkpt><trkpt lat="44.364312" lon="8.2011083"><ele>435.0</ele><time>2026-05-01T12:17:16.967Z</time></trkpt><trkpt lat="44.3642552" lon="8.201313"><ele>433.66666666666663</ele><time>2026-05-01T12:17:17.967Z</time></trkpt><trkpt lat="44.3641864" lon="8.2015269"><ele>432.3333333333333</ele><time>2026-05-01T12:17:18.967Z</time></trkpt><trkpt lat="44.3641039" lon="8.2017393"><ele>431.0</ele><time>2026-05-01T12:17:19.968Z</time></trkpt><trkpt lat="44.3639954" lon="8.2019574"><ele>431.0</ele><time>2026-05-01T12:17:20.967Z</time></trkpt><trkpt lat="44.363913" lon="8.2021891"><ele>431.0</ele><time>2026-05-01T12:17:21.967Z</time></trkpt><trkpt lat="44.3638291" lon="8.202435"><ele>431.0</ele><time>2026-05-01T12:17:22.968Z</time></trkpt><trkpt lat="44.3637446" lon="8.2026976"><ele>432.0</ele><time>2026-05-01T12:17:23.967Z</time></trkpt><trkpt lat="44.3636573" lon="8.2029572"><ele>433.0</ele><time>2026-05-01T12:17:24.967Z</time></trkpt><trkpt lat="44.3635452" lon="8.2031424"><ele>434.0</ele><time>2026-05-01T12:17:25.967Z</time></trkpt><trkpt lat="44.3633971" lon="8.2032789"><ele>434.0</ele><time>2026-05-01T12:17:26.968Z</time></trkpt><trkpt lat="44.363259" lon="8.2033802"><ele>434.0</ele><time>2026-05-01T12:17:27.968Z</time></trkpt><trkpt lat="44.3631376" lon="8.2035065"><ele>434.0</ele><time>2026-05-01T12:17:28.967Z</time></trkpt><trkpt lat="44.3630072" lon="8.2036384"><ele>436.66666666666663</ele><time>2026-05-01T12:17:29.967Z</time></trkpt><trkpt lat="44.3628792" lon="8.2037702"><ele>439.33333333333337</ele><time>2026-05-01T12:17:30.967Z</time></trkpt><trkpt lat="44.362747" lon="8.203884"><ele>442.0</ele><time>2026-05-01T12:17:31.967Z</time></trkpt><trkpt lat="44.3626185" lon="8.2040026"><ele>442.0</ele><time>2026-05-01T12:17:32.967Z</time></trkpt><trkpt lat="44.3624902" lon="8.2041238"><ele>442.0</ele><time>2026-05-01T12:17:33.967Z</time></trkpt><trkpt lat="44.362363" lon="8.2042458"><ele>442.0</ele><time>2026-05-01T12:17:34.968Z</time></trkpt><trkpt lat="44.3622351" lon="8.2043675"><ele>446.75</ele><time>2026-05-01T12:17:35.967Z</time></trkpt><trkpt lat="44.362109" lon="8.204488"><ele>451.5</ele><time>2026-05-01T12:17:36.967Z</time></trkpt><trkpt lat="44.3619928" lon="8.2046005"><ele>456.25</ele><time>2026-05-01T12:17:37.968Z</time></trkpt><trkpt lat="44.3619012" lon="8.2046862"><ele>461.0</ele><time>2026-05-01T12:17:38.967Z</time></trkpt><trkpt lat="44.3618422" lon="8.2047305"><ele>454.0</ele><time>2026-05-01T12:17:39.967Z</time></trkpt><trkpt lat="44.3600683" lon="8.2072567"><ele>446.0</ele><time>2026-05-01T12:17:52.966Z</time></trkpt><trkpt lat="44.3597845" lon="8.207401"><ele>438.0</ele><time>2026-05-01T12:17:53.965Z</time></trkpt><trkpt lat="44.3596542" lon="8.2075546"><ele>438.0</ele><time>2026-05-01T12:17:54.965Z</time></trkpt><trkpt lat="44.3595956" lon="8.2077145"><ele>438.0</ele><time>2026-05-01T12:17:55.966Z</time></trkpt><trkpt lat="44.3595439" lon="8.2078858"><ele>438.0</ele><time>2026-05-01T12:17:56.965Z</time></trkpt><trkpt lat="44.3594969" lon="8.208066"><ele>438.0</ele><time>2026-05-01T12:17:57.965Z</time></trkpt><trkpt lat="44.359454" lon="8.2082488"><ele>439.5</ele><time>2026-05-01T12:17:58.966Z</time></trkpt><trkpt lat="44.3594313" lon="8.208407"><ele>441.0</ele><time>2026-05-01T12:17:59.965Z</time></trkpt><trkpt lat="44.3594151" lon="8.2086011"><ele>442.5</ele><time>2026-05-01T12:18:00.965Z</time></trkpt><trkpt lat="44.359418" lon="8.2088"><ele>444.0</ele><time>2026-05-01T12:18:01.965Z</time></trkpt><trkpt lat="44.3594338" lon="8.2090026"><ele>447.25</ele><time>2026-05-01T12:18:02.965Z</time></trkpt><trkpt lat="44.3594561" lon="8.2092059"><ele>450.5</ele><time>2026-05-01T12:18:03.965Z</time></trkpt><trkpt lat="44.3594999" lon="8.2094075"><ele>453.75</ele><time>2026-05-01T12:18:04.966Z</time></trkpt><trkpt lat="44.3595647" lon="8.2095824"><ele>457.0</ele><time>2026-05-01T12:18:05.965Z</time></trkpt><trkpt lat="44.3596422" lon="8.209738"><ele>454.25</ele><time>2026-05-01T12:18:06.966Z</time></trkpt><trkpt lat="44.3597374" lon="8.2098717"><ele>451.5</ele><time>2026-05-01T12:18:07.965Z</time></trkpt><trkpt lat="44.3598415" lon="8.2099797"><ele>448.75</ele><time>2026-05-01T12:18:08.965Z</time></trkpt><trkpt lat="44.3599403" lon="8.2101136"><ele>446.0</ele><time>2026-05-01T12:18:09.966Z</time></trkpt><trkpt lat="44.360032" lon="8.210263"><ele>446.0</ele><time>2026-05-01T12:18:10.965Z</time></trkpt><trkpt lat="44.3601192" lon="8.2104131"><ele>446.0</ele><time>2026-05-01T12:18:11.965Z</time></trkpt><trkpt lat="44.3601974" lon="8.2105658"><ele>446.0</ele><time>2026-05-01T12:18:12.965Z</time></trkpt><trkpt lat="44.360278" lon="8.2107205"><ele>446.0</ele><time>2026-05-01T12:18:13.965Z</time></trkpt><trkpt lat="44.360363" lon="8.2108756"><ele>444.5</ele><time>2026-05-01T12:18:14.966Z</time></trkpt><trkpt lat="44.3604514" lon="8.2110351"><ele>443.0</ele><time>2026-05-01T12:18:15.965Z</time></trkpt><trkpt lat="44.3606718" lon="8.2113419"><ele>443.0</ele><time>2026-05-01T12:18:18.968Z</time></trkpt><trkpt lat="44.3607303" lon="8.211415"><ele>442.99999999999994</ele><time>2026-05-01T12:18:19.968Z</time></trkpt><trkpt lat="44.3607917" lon="8.2115274"><ele>442.99999999999994</ele><time>2026-05-01T12:18:20.967Z</time></trkpt><trkpt lat="44.3608159" lon="8.2116928"><ele>443.0</ele><time>2026-05-01T12:18:21.967Z</time></trkpt><trkpt lat="44.3608281" lon="8.211869"><ele>443.0</ele><time>2026-05-01T12:18:22.967Z</time></trkpt><trkpt lat="44.3608011" lon="8.2120514"><ele>443.59999999999997</ele><time>2026-05-01T12:18:23.967Z</time></trkpt><trkpt lat="44.3607728" lon="8.2122196"><ele>444.19999999999993</ele><time>2026-05-01T12:18:24.968Z</time></trkpt><trkpt lat="44.3607585" lon="8.2123747"><ele>444.8</ele><time>2026-05-01T12:18:25.967Z</time></trkpt><trkpt lat="44.360744" lon="8.2125234"><ele>445.4</ele><time>2026-05-01T12:18:26.968Z</time></trkpt><trkpt lat="44.3607213" lon="8.2126681"><ele>446.0</ele><time>2026-05-01T12:18:27.968Z</time></trkpt><trkpt lat="44.3606874" lon="8.2128194"><ele>446.0</ele><time>2026-05-01T12:18:28.967Z</time></trkpt><trkpt lat="44.3606506" lon="8.2129739"><ele>446.0</ele><time>2026-05-01T12:18:29.967Z</time></trkpt><trkpt lat="44.360611" lon="8.2131331"><ele>446.0</ele><time>2026-05-01T12:18:30.968Z</time></trkpt><trkpt lat="44.3605708" lon="8.2132981"><ele>446.0</ele><time>2026-05-01T12:18:31.967Z</time></trkpt><trkpt lat="44.3605255" lon="8.2134581"><ele>447.25</ele><time>2026-05-01T12:18:32.968Z</time></trkpt><trkpt lat="44.3604736" lon="8.2136067"><ele>448.5</ele><time>2026-05-01T12:18:33.967Z</time></trkpt><trkpt lat="44.3604136" lon="8.2137615"><ele>449.75</ele><time>2026-05-01T12:18:34.967Z</time></trkpt><trkpt lat="44.3603315" lon="8.213905"><ele>451.0</ele><time>2026-05-01T12:18:35.967Z</time></trkpt><trkpt lat="44.3602386" lon="8.2140414"><ele>451.0</ele><time>2026-05-01T12:18:36.967Z</time></trkpt><trkpt lat="44.3601297" lon="8.2141606"><ele>451.0</ele><time>2026-05-01T12:18:37.967Z</time></trkpt><trkpt lat="44.3600116" lon="8.214265"><ele>451.0</ele><time>2026-05-01T12:18:38.967Z</time></trkpt><trkpt lat="44.359886" lon="8.2143574"><ele>451.0</ele><time>2026-05-01T12:18:39.967Z</time></trkpt><trkpt lat="44.3597615" lon="8.2144526"><ele>453.0</ele><time>2026-05-01T12:18:40.968Z</time></trkpt><trkpt lat="44.3596382" lon="8.214551"><ele>455.0</ele><time>2026-05-01T12:18:41.968Z</time></trkpt><trkpt lat="44.3595183" lon="8.2146531"><ele>457.0</ele><time>2026-05-01T12:18:42.967Z</time></trkpt><trkpt lat="44.3593984" lon="8.2147563"><ele>459.0</ele><time>2026-05-01T12:18:43.967Z</time></trkpt><trkpt lat="44.3592722" lon="8.21487"><ele>459.0</ele><time>2026-05-01T12:18:44.967Z</time></trkpt><trkpt lat="44.3591438" lon="8.2149872"><ele>459.0</ele><time>2026-05-01T12:18:45.967Z</time></trkpt><trkpt lat="44.3590169" lon="8.2151047"><ele>459.0</ele><time>2026-05-01T12:18:46.967Z</time></trkpt><trkpt lat="44.3589142" lon="8.2152432"><ele>459.0</ele><time>2026-05-01T12:18:47.967Z</time></trkpt><trkpt lat="44.3588542" lon="8.2154053"><ele>460.75</ele><time>2026-05-01T12:18:48.967Z</time></trkpt><trkpt lat="44.3588323" lon="8.2155879"><ele>462.5</ele><time>2026-05-01T12:18:49.967Z</time></trkpt><trkpt lat="44.358859" lon="8.2157795"><ele>464.25</ele><time>2026-05-01T12:18:50.968Z</time></trkpt><trkpt lat="44.3589358" lon="8.2159615"><ele>466.0</ele><time>2026-05-01T12:18:51.968Z</time></trkpt><trkpt lat="44.3590089" lon="8.2161222"><ele>466.0</ele><time>2026-05-01T12:18:52.967Z</time></trkpt><trkpt lat="44.3590766" lon="8.2162795"><ele>466.0</ele><time>2026-05-01T12:18:53.967Z</time></trkpt><trkpt lat="44.3591267" lon="8.2164316"><ele>466.0</ele><time>2026-05-01T12:18:54.968Z</time></trkpt><trkpt lat="44.3591782" lon="8.2165874"><ele>466.0</ele><time>2026-05-01T12:18:55.967Z</time></trkpt><trkpt lat="44.3592233" lon="8.216743"><ele>466.0</ele><time>2026-05-01T12:18:56.968Z</time></trkpt><trkpt lat="44.3592486" lon="8.2169111"><ele>466.0</ele><time>2026-05-01T12:18:57.967Z</time></trkpt><trkpt lat="44.3592538" lon="8.2170964"><ele>466.0</ele><time>2026-05-01T12:18:58.968Z</time></trkpt><trkpt lat="44.3592291" lon="8.2172859"><ele>466.0</ele><time>2026-05-01T12:18:59.967Z</time></trkpt><trkpt lat="44.3591856" lon="8.2174629"><ele>466.0</ele><time>2026-05-01T12:19:00.967Z</time></trkpt><trkpt lat="44.3591168" lon="8.2176276"><ele>466.0</ele><time>2026-05-01T12:19:01.968Z</time></trkpt><trkpt lat="44.3590362" lon="8.2177657"><ele>466.0</ele><time>2026-05-01T12:19:02.967Z</time></trkpt><trkpt lat="44.358958" lon="8.2179032"><ele>466.0</ele><time>2026-05-01T12:19:03.967Z</time></trkpt><trkpt lat="44.3589008" lon="8.2180645"><ele>467.0</ele><time>2026-05-01T12:19:04.967Z</time></trkpt><trkpt lat="44.3588648" lon="8.218232"><ele>468.0</ele><time>2026-05-01T12:19:05.967Z</time></trkpt><trkpt lat="44.3588415" lon="8.218403"><ele>469.0</ele><time>2026-05-01T12:19:06.968Z</time></trkpt><trkpt lat="44.3588235" lon="8.2185845"><ele>470.0</ele><time>2026-05-01T12:19:07.967Z</time></trkpt><trkpt lat="44.3588063" lon="8.2187766"><ele>470.0</ele><time>2026-05-01T12:19:08.967Z</time></trkpt><trkpt lat="44.358794" lon="8.2189686"><ele>470.0</ele><time>2026-05-01T12:19:09.967Z</time></trkpt><trkpt lat="44.3587806" lon="8.2191551"><ele>470.0</ele><time>2026-05-01T12:19:10.967Z</time></trkpt><trkpt lat="44.3587681" lon="8.2193414"><ele>470.0</ele><time>2026-05-01T12:19:11.967Z</time></trkpt><trkpt lat="44.358768" lon="8.2195222"><ele>471.5</ele><time>2026-05-01T12:19:12.967Z</time></trkpt><trkpt lat="44.3587762" lon="8.2196945"><ele>473.0</ele><time>2026-05-01T12:19:13.968Z</time></trkpt><trkpt lat="44.358785" lon="8.2198822"><ele>474.5</ele><time>2026-05-01T12:19:14.968Z</time></trkpt><trkpt lat="44.3587771" lon="8.2200672"><ele>476.0</ele><time>2026-05-01T12:19:15.967Z</time></trkpt><trkpt lat="44.3587474" lon="8.2202526"><ele>477.0</ele><time>2026-05-01T12:19:16.968Z</time></trkpt><trkpt lat="44.3586809" lon="8.2204111"><ele>478.0</ele><time>2026-05-01T12:19:17.968Z</time></trkpt><trkpt lat="44.3585709" lon="8.2205335"><ele>479.0</ele><time>2026-05-01T12:19:18.968Z</time></trkpt><trkpt lat="44.3584375" lon="8.2205966"><ele>480.0</ele><time>2026-05-01T12:19:19.968Z</time></trkpt><trkpt lat="44.3583017" lon="8.220607"><ele>480.0</ele><time>2026-05-01T12:19:20.968Z</time></trkpt><trkpt lat="44.3581715" lon="8.2206039"><ele>480.0</ele><time>2026-05-01T12:19:21.967Z</time></trkpt><trkpt lat="44.3580536" lon="8.2206033"><ele>480.0</ele><time>2026-05-01T12:19:22.967Z</time></trkpt><trkpt lat="44.3579447" lon="8.2206151"><ele>480.0</ele><time>2026-05-01T12:19:23.967Z</time></trkpt><trkpt lat="44.3578374" lon="8.2206347"><ele>481.8</ele><time>2026-05-01T12:19:24.968Z</time></trkpt><trkpt lat="44.3577266" lon="8.2206507"><ele>483.6</ele><time>2026-05-01T12:19:25.968Z</time></trkpt><trkpt lat="44.3576228" lon="8.2206676"><ele>485.4</ele><time>2026-05-01T12:19:26.968Z</time></trkpt><trkpt lat="44.3575218" lon="8.2207087"><ele>487.2</ele><time>2026-05-01T12:19:27.967Z</time></trkpt><trkpt lat="44.3574278" lon="8.2207964"><ele>489.0</ele><time>2026-05-01T12:19:28.968Z</time></trkpt><trkpt lat="44.3573627" lon="8.220931"><ele>489.0</ele><time>2026-05-01T12:19:29.968Z</time></trkpt><trkpt lat="44.3573182" lon="8.2210968"><ele>489.0</ele><time>2026-05-01T12:19:30.967Z</time></trkpt><trkpt lat="44.357284" lon="8.2212702"><ele>489.0</ele><time>2026-05-01T12:19:31.967Z</time></trkpt><trkpt lat="44.3572574" lon="8.2214412"><ele>489.0</ele><time>2026-05-01T12:19:32.967Z</time></trkpt><trkpt lat="44.3572437" lon="8.2216049"><ele>491.75</ele><time>2026-05-01T12:19:33.968Z</time></trkpt><trkpt lat="44.3572426" lon="8.2217623"><ele>494.5</ele><time>2026-05-01T12:19:34.968Z</time></trkpt><trkpt lat="44.3572461" lon="8.2219248"><ele>497.25</ele><time>2026-05-01T12:19:35.967Z</time></trkpt><trkpt lat="44.3572511" lon="8.2220935"><ele>500.0</ele><time>2026-05-01T12:19:36.967Z</time></trkpt><trkpt lat="44.3572598" lon="8.2222577"><ele>502.25</ele><time>2026-05-01T12:19:37.967Z</time></trkpt><trkpt lat="44.3572718" lon="8.2224316"><ele>504.5</ele><time>2026-05-01T12:19:38.967Z</time></trkpt><trkpt lat="44.3572776" lon="8.2226126"><ele>506.75</ele><time>2026-05-01T12:19:39.968Z</time></trkpt><trkpt lat="44.3573155" lon="8.2228079"><ele>509.0</ele><time>2026-05-01T12:19:40.968Z</time></trkpt><trkpt lat="44.3573589" lon="8.2230017"><ele>510.0</ele><time>2026-05-01T12:19:41.967Z</time></trkpt><trkpt lat="44.3574045" lon="8.2232036"><ele>511.0</ele><time>2026-05-01T12:19:42.967Z</time></trkpt><trkpt lat="44.3574526" lon="8.2234099"><ele>512.0</ele><time>2026-05-01T12:19:43.966Z</time></trkpt><trkpt lat="44.3574979" lon="8.2235924"><ele>513.0</ele><time>2026-05-01T12:19:44.966Z</time></trkpt><trkpt lat="44.3575411" lon="8.2237776"><ele>513.0</ele><time>2026-05-01T12:19:45.967Z</time></trkpt><trkpt lat="44.3575784" lon="8.2239667"><ele>513.0</ele><time>2026-05-01T12:19:46.967Z</time></trkpt><trkpt lat="44.3576246" lon="8.2241574"><ele>513.0</ele><time>2026-05-01T12:19:47.966Z</time></trkpt><trkpt lat="44.3576643" lon="8.2243492"><ele>513.0</ele><time>2026-05-01T12:19:48.967Z</time></trkpt><trkpt lat="44.3576949" lon="8.2245378"><ele>513.75</ele><time>2026-05-01T12:19:49.966Z</time></trkpt><trkpt lat="44.357723" lon="8.2247289"><ele>514.5</ele><time>2026-05-01T12:19:50.966Z</time></trkpt><trkpt lat="44.3577562" lon="8.224919"><ele>515.25</ele><time>2026-05-01T12:19:51.966Z</time></trkpt><trkpt lat="44.3577833" lon="8.2251049"><ele>516.0</ele><time>2026-05-01T12:19:52.966Z</time></trkpt><trkpt lat="44.3578057" lon="8.2252843"><ele>517.5</ele><time>2026-05-01T12:19:53.966Z</time></trkpt><trkpt lat="44.3578349" lon="8.2254639"><ele>519.0</ele><time>2026-05-01T12:19:54.967Z</time></trkpt><trkpt lat="44.3578592" lon="8.2256482"><ele>520.5</ele><time>2026-05-01T12:19:55.967Z</time></trkpt><trkpt lat="44.3578835" lon="8.225834"><ele>522.0</ele><time>2026-05-01T12:19:56.966Z</time></trkpt><trkpt lat="44.3578992" lon="8.2260201"><ele>523.0</ele><time>2026-05-01T12:19:57.967Z</time></trkpt><trkpt lat="44.3579186" lon="8.2262039"><ele>524.0</ele><time>2026-05-01T12:19:58.966Z</time></trkpt><trkpt lat="44.3579383" lon="8.2264044"><ele>525.0</ele><time>2026-05-01T12:19:59.967Z</time></trkpt><trkpt lat="44.3579741" lon="8.2266203"><ele>526.0</ele><time>2026-05-01T12:20:00.966Z</time></trkpt><trkpt lat="44.3580241" lon="8.2268262"><ele>526.6666666666667</ele><time>2026-05-01T12:20:01.966Z</time></trkpt><trkpt lat="44.3580913" lon="8.2270198"><ele>527.3333333333334</ele><time>2026-05-01T12:20:02.967Z</time></trkpt><trkpt lat="44.3581735" lon="8.2272014"><ele>528.0</ele><time>2026-05-01T12:20:03.966Z</time></trkpt><trkpt lat="44.3582788" lon="8.2273575"><ele>528.0</ele><time>2026-05-01T12:20:04.966Z</time></trkpt><trkpt lat="44.3583892" lon="8.2275029"><ele>528.0</ele><time>2026-05-01T12:20:05.966Z</time></trkpt><trkpt lat="44.3584971" lon="8.2276547"><ele>528.0</ele><time>2026-05-01T12:20:06.967Z</time></trkpt><trkpt lat="44.3586014" lon="8.2278275"><ele>528.0</ele><time>2026-05-01T12:20:07.966Z</time></trkpt><trkpt lat="44.3587033" lon="8.2279976"><ele>528.0</ele><time>2026-05-01T12:20:08.966Z</time></trkpt><trkpt lat="44.3588014" lon="8.2281663"><ele>528.0</ele><time>2026-05-01T12:20:09.966Z</time></trkpt><trkpt lat="44.358884" lon="8.2283505"><ele>526.0</ele><time>2026-05-01T12:20:10.966Z</time></trkpt><trkpt lat="44.3589846" lon="8.2285331"><ele>524.0</ele><time>2026-05-01T12:20:11.967Z</time></trkpt><trkpt lat="44.3590954" lon="8.2287181"><ele>522.0</ele><time>2026-05-01T12:20:12.966Z</time></trkpt><trkpt lat="44.3592168" lon="8.2289169"><ele>519.3333333333334</ele><time>2026-05-01T12:20:13.966Z</time></trkpt><trkpt lat="44.3593443" lon="8.2291226"><ele>516.6666666666667</ele><time>2026-05-01T12:20:14.966Z</time></trkpt><trkpt lat="44.3594626" lon="8.229338"><ele>514.0</ele><time>2026-05-01T12:20:15.967Z</time></trkpt><trkpt lat="44.3595711" lon="8.2295682"><ele>513.6666666666667</ele><time>2026-05-01T12:20:16.966Z</time></trkpt><trkpt lat="44.3596714" lon="8.2298093"><ele>513.3333333333334</ele><time>2026-05-01T12:20:17.967Z</time></trkpt><trkpt lat="44.3597732" lon="8.2300443"><ele>513.0</ele><time>2026-05-01T12:20:18.966Z</time></trkpt><trkpt lat="44.3598805" lon="8.2302806"><ele>513.0</ele><time>2026-05-01T12:20:19.966Z</time></trkpt><trkpt lat="44.3599792" lon="8.2305219"><ele>513.0</ele><time>2026-05-01T12:20:20.967Z</time></trkpt><trkpt lat="44.3600742" lon="8.2307647"><ele>513.0</ele><time>2026-05-01T12:20:21.967Z</time></trkpt><trkpt lat="44.3601751" lon="8.2310024"><ele>510.66666666666663</ele><time>2026-05-01T12:20:22.966Z</time></trkpt><trkpt lat="44.360266" lon="8.23125"><ele>508.3333333333333</ele><time>2026-05-01T12:20:23.967Z</time></trkpt><trkpt lat="44.3603686" lon="8.2314846"><ele>506.0</ele><time>2026-05-01T12:20:24.966Z</time></trkpt><trkpt lat="44.3604681" lon="8.2317271"><ele>508.66666666666663</ele><time>2026-05-01T12:20:25.967Z</time></trkpt><trkpt lat="44.3605641" lon="8.2319629"><ele>511.33333333333337</ele><time>2026-05-01T12:20:26.967Z</time></trkpt><trkpt lat="44.3606696" lon="8.2321952"><ele>514.0</ele><time>2026-05-01T12:20:27.966Z</time></trkpt><trkpt lat="44.3607866" lon="8.232412"><ele>508.0</ele><time>2026-05-01T12:20:28.966Z</time></trkpt><trkpt lat="44.3609086" lon="8.2326163"><ele>502.0</ele><time>2026-05-01T12:20:29.966Z</time></trkpt><trkpt lat="44.3610337" lon="8.2328045"><ele>496.0</ele><time>2026-05-01T12:20:30.966Z</time></trkpt><trkpt lat="44.3611628" lon="8.2330012"><ele>492.33333333333337</ele><time>2026-05-01T12:20:31.967Z</time></trkpt><trkpt lat="44.3612971" lon="8.233187"><ele>488.66666666666663</ele><time>2026-05-01T12:20:32.966Z</time></trkpt><trkpt lat="44.3614351" lon="8.2333707"><ele>485.0</ele><time>2026-05-01T12:20:33.966Z</time></trkpt><trkpt lat="44.3615614" lon="8.2335613"><ele>485.0</ele><time>2026-05-01T12:20:34.966Z</time></trkpt><trkpt lat="44.3616825" lon="8.2337596"><ele>485.0</ele><time>2026-05-01T12:20:35.967Z</time></trkpt><trkpt lat="44.3617948" lon="8.2339737"><ele>485.0</ele><time>2026-05-01T12:20:36.966Z</time></trkpt><trkpt lat="44.3618956" lon="8.2342095"><ele>483.0</ele><time>2026-05-01T12:20:37.966Z</time></trkpt><trkpt lat="44.3619772" lon="8.2344578"><ele>481.0</ele><time>2026-05-01T12:20:38.966Z</time></trkpt><trkpt lat="44.362041" lon="8.2347024"><ele>479.0</ele><time>2026-05-01T12:20:39.966Z</time></trkpt><trkpt lat="44.3620929" lon="8.2349394"><ele>481.0</ele><time>2026-05-01T12:20:40.966Z</time></trkpt><trkpt lat="44.3621321" lon="8.2351732"><ele>483.0</ele><time>2026-05-01T12:20:41.966Z</time></trkpt><trkpt lat="44.3621749" lon="8.2353945"><ele>485.0</ele><time>2026-05-01T12:20:42.966Z</time></trkpt><trkpt lat="44.3622173" lon="8.2356041"><ele>483.0</ele><time>2026-05-01T12:20:43.966Z</time></trkpt><trkpt lat="44.3622494" lon="8.2357976"><ele>481.0</ele><time>2026-05-01T12:20:44.966Z</time></trkpt><trkpt lat="44.3622824" lon="8.2359904"><ele>479.0</ele><time>2026-05-01T12:20:45.966Z</time></trkpt><trkpt lat="44.3623089" lon="8.236195"><ele>477.0</ele><time>2026-05-01T12:20:46.966Z</time></trkpt><trkpt lat="44.3623439" lon="8.2363972"><ele>474.66666666666663</ele><time>2026-05-01T12:20:47.966Z</time></trkpt><trkpt lat="44.3623811" lon="8.2366072"><ele>472.3333333333333</ele><time>2026-05-01T12:20:48.966Z</time></trkpt><trkpt lat="44.3624191" lon="8.2368183"><ele>470.0</ele><time>2026-05-01T12:20:49.967Z</time></trkpt><trkpt lat="44.3624621" lon="8.2370368"><ele>470.0</ele><time>2026-05-01T12:20:50.966Z</time></trkpt><trkpt lat="44.3625151" lon="8.2372556"><ele>470.0</ele><time>2026-05-01T12:20:51.966Z</time></trkpt><trkpt lat="44.3625761" lon="8.2374647"><ele>470.0</ele><time>2026-05-01T12:20:52.966Z</time></trkpt><trkpt lat="44.3626303" lon="8.23767"><ele>468.75</ele><time>2026-05-01T12:20:53.966Z</time></trkpt><trkpt lat="44.3626643" lon="8.2378707"><ele>467.5</ele><time>2026-05-01T12:20:54.966Z</time></trkpt><trkpt lat="44.3626794" lon="8.2380689"><ele>466.25</ele><time>2026-05-01T12:20:55.967Z</time></trkpt><trkpt lat="44.3626762" lon="8.2382611"><ele>465.0</ele><time>2026-05-01T12:20:56.966Z</time></trkpt><trkpt lat="44.3626614" lon="8.2384431"><ele>464.8</ele><time>2026-05-01T12:20:57.967Z</time></trkpt><trkpt lat="44.3626319" lon="8.2386071"><ele>464.6</ele><time>2026-05-01T12:20:58.967Z</time></trkpt><trkpt lat="44.362601" lon="8.2387572"><ele>464.4</ele><time>2026-05-01T12:20:59.966Z</time></trkpt><trkpt lat="44.3625721" lon="8.2388941"><ele>464.2</ele><time>2026-05-01T12:21:00.966Z</time></trkpt><trkpt lat="44.3625505" lon="8.2390201"><ele>464.0</ele><time>2026-05-01T12:21:01.966Z</time></trkpt><trkpt lat="44.3625296" lon="8.2391354"><ele>463.8333333333333</ele><time>2026-05-01T12:21:02.966Z</time></trkpt><trkpt lat="44.3625072" lon="8.2392406"><ele>463.66666666666663</ele><time>2026-05-01T12:21:03.967Z</time></trkpt><trkpt lat="44.3624855" lon="8.2393429"><ele>463.5</ele><time>2026-05-01T12:21:04.966Z</time></trkpt><trkpt lat="44.3624551" lon="8.2394435"><ele>463.33333333333337</ele><time>2026-05-01T12:21:05.966Z</time></trkpt><trkpt lat="44.3624286" lon="8.2395439"><ele>463.1666666666667</ele><time>2026-05-01T12:21:06.966Z</time></trkpt><trkpt lat="44.3624015" lon="8.2396477"><ele>463.0</ele><time>2026-05-01T12:21:07.967Z</time></trkpt><trkpt lat="44.3623783" lon="8.2397646"><ele>463.4</ele><time>2026-05-01T12:21:08.966Z</time></trkpt><trkpt lat="44.3623664" lon="8.2398896"><ele>463.79999999999995</ele><time>2026-05-01T12:21:09.966Z</time></trkpt><trkpt lat="44.362351" lon="8.2400334"><ele>464.2</ele><time>2026-05-01T12:21:10.966Z</time></trkpt><trkpt lat="44.3623361" lon="8.2401635"><ele>464.6</ele><time>2026-05-01T12:21:11.966Z</time></trkpt><trkpt lat="44.3623185" lon="8.240284"><ele>465.0</ele><time>2026-05-01T12:21:12.966Z</time></trkpt><trkpt lat="44.3623023" lon="8.2404237"><ele>465.0</ele><time>2026-05-01T12:21:13.966Z</time></trkpt><trkpt lat="44.3622835" lon="8.2405601"><ele>465.0</ele><time>2026-05-01T12:21:14.966Z</time></trkpt><trkpt lat="44.3622732" lon="8.2407074"><ele>465.0</ele><time>2026-05-01T12:21:15.967Z</time></trkpt><trkpt lat="44.3622604" lon="8.2408528"><ele>465.0</ele><time>2026-05-01T12:21:16.966Z</time></trkpt><trkpt lat="44.3622585" lon="8.2410072"><ele>465.0</ele><time>2026-05-01T12:21:17.967Z</time></trkpt><trkpt lat="44.3622795" lon="8.2411511"><ele>465.5</ele><time>2026-05-01T12:21:18.966Z</time></trkpt><trkpt lat="44.36233" lon="8.2412829"><ele>466.0</ele><time>2026-05-01T12:21:19.967Z</time></trkpt><trkpt lat="44.3624087" lon="8.2413983"><ele>466.5</ele><time>2026-05-01T12:21:20.966Z</time></trkpt><trkpt lat="44.3625078" lon="8.2415117"><ele>467.0</ele><time>2026-05-01T12:21:21.966Z</time></trkpt><trkpt lat="44.3626099" lon="8.2416231"><ele>465.75</ele><time>2026-05-01T12:21:22.967Z</time></trkpt><trkpt lat="44.3627101" lon="8.2417288"><ele>464.5</ele><time>2026-05-01T12:21:23.966Z</time></trkpt><trkpt lat="44.362809" lon="8.2418408"><ele>463.25</ele><time>2026-05-01T12:21:24.966Z</time></trkpt><trkpt lat="44.3629138" lon="8.2419625"><ele>462.0</ele><time>2026-05-01T12:21:25.967Z</time></trkpt><trkpt lat="44.3630252" lon="8.242105"><ele>461.33333333333337</ele><time>2026-05-01T12:21:26.966Z</time></trkpt><trkpt lat="44.3631517" lon="8.2422822"><ele>460.6666666666667</ele><time>2026-05-01T12:21:27.967Z</time></trkpt><trkpt lat="44.3632641" lon="8.2424531"><ele>460.0</ele><time>2026-05-01T12:21:28.967Z</time></trkpt><trkpt lat="44.3633781" lon="8.2426266"><ele>460.0</ele><time>2026-05-01T12:21:29.966Z</time></trkpt><trkpt lat="44.3634873" lon="8.2428216"><ele>460.0</ele><time>2026-05-01T12:21:30.966Z</time></trkpt><trkpt lat="44.3635823" lon="8.2430355"><ele>460.0</ele><time>2026-05-01T12:21:31.966Z</time></trkpt><trkpt lat="44.3636669" lon="8.2432699"><ele>461.0</ele><time>2026-05-01T12:21:32.966Z</time></trkpt><trkpt lat="44.3637714" lon="8.2435384"><ele>462.0</ele><time>2026-05-01T12:21:33.966Z</time></trkpt><trkpt lat="44.3638724" lon="8.2438"><ele>463.0</ele><time>2026-05-01T12:21:34.967Z</time></trkpt><trkpt lat="44.3639516" lon="8.2440502"><ele>460.33333333333337</ele><time>2026-05-01T12:21:35.966Z</time></trkpt><trkpt lat="44.3640159" lon="8.2442898"><ele>457.66666666666663</ele><time>2026-05-01T12:21:36.966Z</time></trkpt><trkpt lat="44.3640535" lon="8.2445227"><ele>455.0</ele><time>2026-05-01T12:21:37.966Z</time></trkpt><trkpt lat="44.3640712" lon="8.2447645"><ele>453.66666666666663</ele><time>2026-05-01T12:21:38.966Z</time></trkpt><trkpt lat="44.3640853" lon="8.2449984"><ele>452.33333333333337</ele><time>2026-05-01T12:21:39.966Z</time></trkpt><trkpt lat="44.364097" lon="8.245223"><ele>451.0</ele><time>2026-05-01T12:21:40.966Z</time></trkpt><trkpt lat="44.3641153" lon="8.2454462"><ele>449.33333333333337</ele><time>2026-05-01T12:21:41.966Z</time></trkpt><trkpt lat="44.364137" lon="8.2456783"><ele>447.66666666666663</ele><time>2026-05-01T12:21:42.966Z</time></trkpt><trkpt lat="44.3641726" lon="8.245909"><ele>446.0</ele><time>2026-05-01T12:21:43.966Z</time></trkpt><trkpt lat="44.3642062" lon="8.2461499"><ele>446.0</ele><time>2026-05-01T12:21:44.966Z</time></trkpt><trkpt lat="44.3642372" lon="8.2463741"><ele>446.0</ele><time>2026-05-01T12:21:45.967Z</time></trkpt><trkpt lat="44.36426" lon="8.2465905"><ele>446.0</ele><time>2026-05-01T12:21:46.966Z</time></trkpt><trkpt lat="44.3642866" lon="8.2468083"><ele>445.0</ele><time>2026-05-01T12:21:47.967Z</time></trkpt><trkpt lat="44.3643122" lon="8.2470422"><ele>444.0</ele><time>2026-05-01T12:21:48.967Z</time></trkpt><trkpt lat="44.3643487" lon="8.2472881"><ele>443.0</ele><time>2026-05-01T12:21:49.967Z</time></trkpt><trkpt lat="44.3643992" lon="8.2475377"><ele>442.3333333333333</ele><time>2026-05-01T12:21:50.966Z</time></trkpt><trkpt lat="44.3644447" lon="8.2477943"><ele>441.66666666666663</ele><time>2026-05-01T12:21:51.966Z</time></trkpt><trkpt lat="44.3644803" lon="8.2480566"><ele>441.0</ele><time>2026-05-01T12:21:52.966Z</time></trkpt><trkpt lat="44.3645192" lon="8.2483262"><ele>440.0</ele><time>2026-05-01T12:21:53.967Z</time></trkpt><trkpt lat="44.3645578" lon="8.248605"><ele>439.0</ele><time>2026-05-01T12:21:54.966Z</time></trkpt><trkpt lat="44.3645915" lon="8.2488723"><ele>438.0</ele><time>2026-05-01T12:21:55.967Z</time></trkpt><trkpt lat="44.3646288" lon="8.2491352"><ele>438.0</ele><time>2026-05-01T12:21:56.966Z</time></trkpt><trkpt lat="44.3646669" lon="8.2493985"><ele>438.0</ele><time>2026-05-01T12:21:57.966Z</time></trkpt><trkpt lat="44.3647074" lon="8.249667"><ele>438.0</ele><time>2026-05-01T12:21:58.967Z</time></trkpt><trkpt lat="44.36475" lon="8.2499407"><ele>437.66666666666663</ele><time>2026-05-01T12:21:59.966Z</time></trkpt><trkpt lat="44.3647982" lon="8.2502178"><ele>437.3333333333333</ele><time>2026-05-01T12:22:00.966Z</time></trkpt><trkpt lat="44.3648411" lon="8.2504777"><ele>437.0</ele><time>2026-05-01T12:22:01.967Z</time></trkpt><trkpt lat="44.3648683" lon="8.2507311"><ele>437.0</ele><time>2026-05-01T12:22:02.966Z</time></trkpt><trkpt lat="44.3648962" lon="8.2509874"><ele>437.0</ele><time>2026-05-01T12:22:03.967Z</time></trkpt><trkpt lat="44.3649319" lon="8.2512487"><ele>437.0</ele><time>2026-05-01T12:22:04.966Z</time></trkpt><trkpt lat="44.364954" lon="8.2515067"><ele>435.66666666666663</ele><time>2026-05-01T12:22:05.966Z</time></trkpt><trkpt lat="44.3649874" lon="8.2517587"><ele>434.33333333333337</ele><time>2026-05-01T12:22:06.967Z</time></trkpt><trkpt lat="44.3650213" lon="8.2520165"><ele>433.0</ele><time>2026-05-01T12:22:07.966Z</time></trkpt><trkpt lat="44.3650628" lon="8.2522786"><ele>431.6666666666667</ele><time>2026-05-01T12:22:08.966Z</time></trkpt><trkpt lat="44.3651075" lon="8.2525501"><ele>430.33333333333337</ele><time>2026-05-01T12:22:09.967Z</time></trkpt><trkpt lat="44.3651607" lon="8.2528223"><ele>429.0</ele><time>2026-05-01T12:22:10.966Z</time></trkpt><trkpt lat="44.3652223" lon="8.2530879"><ele>428.33333333333337</ele><time>2026-05-01T12:22:11.966Z</time></trkpt><trkpt lat="44.3652935" lon="8.2533327"><ele>427.6666666666667</ele><time>2026-05-01T12:22:12.966Z</time></trkpt><trkpt lat="44.365379" lon="8.2535572"><ele>427.0</ele><time>2026-05-01T12:22:13.967Z</time></trkpt><trkpt lat="44.3654703" lon="8.2537753"><ele>429.33333333333337</ele><time>2026-05-01T12:22:14.966Z</time></trkpt><trkpt lat="44.3655733" lon="8.2539823"><ele>431.66666666666663</ele><time>2026-05-01T12:22:15.967Z</time></trkpt><trkpt lat="44.3656815" lon="8.2541888"><ele>434.0</ele><time>2026-05-01T12:22:16.966Z</time></trkpt><trkpt lat="44.3657958" lon="8.2543852"><ele>434.0</ele><time>2026-05-01T12:22:17.966Z</time></trkpt><trkpt lat="44.365906" lon="8.2545846"><ele>434.0</ele><time>2026-05-01T12:22:18.967Z</time></trkpt><trkpt lat="44.3660178" lon="8.254786"><ele>434.0</ele><time>2026-05-01T12:22:19.966Z</time></trkpt><trkpt lat="44.3661211" lon="8.2550008"><ele>432.0</ele><time>2026-05-01T12:22:20.966Z</time></trkpt><trkpt lat="44.3662097" lon="8.2552198"><ele>430.0</ele><time>2026-05-01T12:22:21.966Z</time></trkpt><trkpt lat="44.3662829" lon="8.2554672"><ele>428.0</ele><time>2026-05-01T12:22:22.967Z</time></trkpt><trkpt lat="44.3663431" lon="8.2557216"><ele>431.3333333333333</ele><time>2026-05-01T12:22:23.966Z</time></trkpt><trkpt lat="44.3663736" lon="8.2559624"><ele>434.66666666666663</ele><time>2026-05-01T12:22:24.966Z</time></trkpt><trkpt lat="44.3663761" lon="8.2561864"><ele>438.0</ele><time>2026-05-01T12:22:25.966Z</time></trkpt><trkpt lat="44.3663789" lon="8.2563949"><ele>435.5</ele><time>2026-05-01T12:22:26.966Z</time></trkpt><trkpt lat="44.3663785" lon="8.2565864"><ele>433.0</ele><time>2026-05-01T12:22:27.966Z</time></trkpt><trkpt lat="44.3663867" lon="8.2567611"><ele>430.5</ele><time>2026-05-01T12:22:28.966Z</time></trkpt><trkpt lat="44.3664104" lon="8.256917"><ele>428.0</ele><time>2026-05-01T12:22:29.966Z</time></trkpt><trkpt lat="44.3664511" lon="8.257054"><ele>428.0</ele><time>2026-05-01T12:22:30.966Z</time></trkpt><trkpt lat="44.3665161" lon="8.2571829"><ele>428.0</ele><time>2026-05-01T12:22:31.966Z</time></trkpt><trkpt lat="44.3666073" lon="8.2572902"><ele>428.0</ele><time>2026-05-01T12:22:32.966Z</time></trkpt><trkpt lat="44.3667376" lon="8.2573757"><ele>428.0</ele><time>2026-05-01T12:22:33.966Z</time></trkpt><trkpt lat="44.3668583" lon="8.2574756"><ele>425.75</ele><time>2026-05-01T12:22:34.966Z</time></trkpt><trkpt lat="44.3669623" lon="8.2576202"><ele>423.5</ele><time>2026-05-01T12:22:35.966Z</time></trkpt><trkpt lat="44.3670347" lon="8.2577807"><ele>421.25</ele><time>2026-05-01T12:22:36.967Z</time></trkpt><trkpt lat="44.3671004" lon="8.2579546"><ele>419.0</ele><time>2026-05-01T12:22:37.967Z</time></trkpt><trkpt lat="44.3671403" lon="8.2581308"><ele>417.75</ele><time>2026-05-01T12:22:38.966Z</time></trkpt><trkpt lat="44.3671759" lon="8.2583231"><ele>416.5</ele><time>2026-05-01T12:22:39.967Z</time></trkpt><trkpt lat="44.3671961" lon="8.2585125"><ele>415.25</ele><time>2026-05-01T12:22:40.966Z</time></trkpt><trkpt lat="44.3671939" lon="8.2586997"><ele>414.0</ele><time>2026-05-01T12:22:41.967Z</time></trkpt><trkpt lat="44.3671661" lon="8.2588795"><ele>413.0</ele><time>2026-05-01T12:22:42.966Z</time></trkpt><trkpt lat="44.3671381" lon="8.2590443"><ele>412.0</ele><time>2026-05-01T12:22:43.967Z</time></trkpt><trkpt lat="44.3671066" lon="8.2592056"><ele>411.0</ele><time>2026-05-01T12:22:44.966Z</time></trkpt><trkpt lat="44.3670805" lon="8.2593536"><ele>410.0</ele><time>2026-05-01T12:22:45.966Z</time></trkpt><trkpt lat="44.3670584" lon="8.2594888"><ele>409.0</ele><time>2026-05-01T12:22:46.966Z</time></trkpt><trkpt lat="44.3670375" lon="8.259612"><ele>409.00000000000006</ele><time>2026-05-01T12:22:47.966Z</time></trkpt><trkpt lat="44.3670207" lon="8.2597348"><ele>409.0</ele><time>2026-05-01T12:22:48.966Z</time></trkpt><trkpt lat="44.3670066" lon="8.2598482"><ele>409.0</ele><time>2026-05-01T12:22:49.967Z</time></trkpt><trkpt lat="44.3669982" lon="8.2599549"><ele>409.0</ele><time>2026-05-01T12:22:50.966Z</time></trkpt><trkpt lat="44.3669894" lon="8.260054"><ele>409.00000000000006</ele><time>2026-05-01T12:22:51.966Z</time></trkpt><trkpt lat="44.3669787" lon="8.2601489"><ele>409.0</ele><time>2026-05-01T12:22:52.966Z</time></trkpt><trkpt lat="44.366964" lon="8.2602394"><ele>408.6</ele><time>2026-05-01T12:22:53.966Z</time></trkpt><trkpt lat="44.3669404" lon="8.2604061"><ele>408.2</ele><time>2026-05-01T12:22:55.966Z</time></trkpt><trkpt lat="44.3669011" lon="8.26056"><ele>407.8</ele><time>2026-05-01T12:22:57.966Z</time></trkpt><trkpt lat="44.3668672" lon="8.2607137"><ele>407.40000000000003</ele><time>2026-05-01T12:22:59.966Z</time></trkpt><trkpt lat="44.3668478" lon="8.2608015"><ele>407.0</ele><time>2026-05-01T12:23:00.966Z</time></trkpt><trkpt lat="44.3668328" lon="8.2609056"><ele>407.20000000000005</ele><time>2026-05-01T12:23:01.967Z</time></trkpt><trkpt lat="44.3668117" lon="8.261022"><ele>407.4</ele><time>2026-05-01T12:23:02.967Z</time></trkpt><trkpt lat="44.3667917" lon="8.2611523"><ele>407.6</ele><time>2026-05-01T12:23:03.967Z</time></trkpt><trkpt lat="44.3667692" lon="8.261291"><ele>407.79999999999995</ele><time>2026-05-01T12:23:04.966Z</time></trkpt><trkpt lat="44.3667477" lon="8.261434"><ele>408.0</ele><time>2026-05-01T12:23:05.966Z</time></trkpt><trkpt lat="44.3667278" lon="8.2615766"><ele>408.0</ele><time>2026-05-01T12:23:06.966Z</time></trkpt><trkpt lat="44.3667072" lon="8.2617241"><ele>408.0</ele><time>2026-05-01T12:23:07.967Z</time></trkpt><trkpt lat="44.3666903" lon="8.2618713"><ele>408.0</ele><time>2026-05-01T12:23:08.966Z</time></trkpt><trkpt lat="44.3666742" lon="8.2620106"><ele>408.0</ele><time>2026-05-01T12:23:09.967Z</time></trkpt><trkpt lat="44.3666546" lon="8.2621406"><ele>408.0</ele><time>2026-05-01T12:23:10.966Z</time></trkpt><trkpt lat="44.3666301" lon="8.2622676"><ele>406.8333333333333</ele><time>2026-05-01T12:23:11.966Z</time></trkpt><trkpt lat="44.3666073" lon="8.2623985"><ele>405.66666666666663</ele><time>2026-05-01T12:23:12.966Z</time></trkpt><trkpt lat="44.366582" lon="8.2625235"><ele>404.5</ele><time>2026-05-01T12:23:13.967Z</time></trkpt><trkpt lat="44.3665596" lon="8.2626413"><ele>403.3333333333333</ele><time>2026-05-01T12:23:14.966Z</time></trkpt><trkpt lat="44.3665338" lon="8.2627524"><ele>402.16666666666663</ele><time>2026-05-01T12:23:15.966Z</time></trkpt><trkpt lat="44.3665095" lon="8.2628613"><ele>401.0</ele><time>2026-05-01T12:23:16.966Z</time></trkpt><trkpt lat="44.3664858" lon="8.2629677"><ele>400.99999999999994</ele><time>2026-05-01T12:23:17.967Z</time></trkpt><trkpt lat="44.366462" lon="8.263073"><ele>401.0</ele><time>2026-05-01T12:23:18.966Z</time></trkpt><trkpt lat="44.3664373" lon="8.2631795"><ele>401.0</ele><time>2026-05-01T12:23:19.966Z</time></trkpt><trkpt lat="44.366416" lon="8.2632922"><ele>401.0</ele><time>2026-05-01T12:23:20.966Z</time></trkpt><trkpt lat="44.3663971" lon="8.263395"><ele>400.99999999999994</ele><time>2026-05-01T12:23:21.966Z</time></trkpt><trkpt lat="44.3663788" lon="8.2634948"><ele>401.0</ele><time>2026-05-01T12:23:22.966Z</time></trkpt><trkpt lat="44.3663592" lon="8.2635939"><ele>401.20000000000005</ele><time>2026-05-01T12:23:23.967Z</time></trkpt><trkpt lat="44.3663405" lon="8.2636911"><ele>401.40000000000003</ele><time>2026-05-01T12:23:24.966Z</time></trkpt><trkpt lat="44.3663208" lon="8.2637914"><ele>401.6</ele><time>2026-05-01T12:23:25.966Z</time></trkpt><trkpt lat="44.3662975" lon="8.2638807"><ele>401.8</ele><time>2026-05-01T12:23:26.967Z</time></trkpt><trkpt lat="44.3662617" lon="8.2640426"><ele>402.0</ele><time>2026-05-01T12:23:28.966Z</time></trkpt><trkpt lat="44.3662223" lon="8.2642022"><ele>401.3333333333333</ele><time>2026-05-01T12:23:30.966Z</time></trkpt><trkpt lat="44.3662014" lon="8.2642964"><ele>400.66666666666663</ele><time>2026-05-01T12:23:31.967Z</time></trkpt><trkpt lat="44.3661809" lon="8.2644037"><ele>400.0</ele><time>2026-05-01T12:23:32.966Z</time></trkpt><trkpt lat="44.3661602" lon="8.2645095"><ele>399.3333333333333</ele><time>2026-05-01T12:23:33.966Z</time></trkpt><trkpt lat="44.3661397" lon="8.2646152"><ele>398.66666666666663</ele><time>2026-05-01T12:23:34.966Z</time></trkpt><trkpt lat="44.3661122" lon="8.2647235"><ele>398.0</ele><time>2026-05-01T12:23:35.966Z</time></trkpt><trkpt lat="44.3660815" lon="8.264835"><ele>397.3333333333333</ele><time>2026-05-01T12:23:36.967Z</time></trkpt><trkpt lat="44.3660524" lon="8.2649446"><ele>396.66666666666663</ele><time>2026-05-01T12:23:37.967Z</time></trkpt><trkpt lat="44.3660248" lon="8.2650527"><ele>396.0</ele><time>2026-05-01T12:23:38.966Z</time></trkpt><trkpt lat="44.3659989" lon="8.265169"><ele>395.33333333333337</ele><time>2026-05-01T12:23:39.966Z</time></trkpt><trkpt lat="44.365975" lon="8.2652924"><ele>394.6666666666667</ele><time>2026-05-01T12:23:40.967Z</time></trkpt><trkpt lat="44.3659503" lon="8.2654166"><ele>394.0</ele><time>2026-05-01T12:23:41.966Z</time></trkpt><trkpt lat="44.3659201" lon="8.2655383"><ele>394.0</ele><time>2026-05-01T12:23:42.966Z</time></trkpt><trkpt lat="44.3658907" lon="8.2656606"><ele>394.0</ele><time>2026-05-01T12:23:43.967Z</time></trkpt><trkpt lat="44.3658621" lon="8.2657903"><ele>394.0</ele><time>2026-05-01T12:23:44.966Z</time></trkpt><trkpt lat="44.3658336" lon="8.2659182"><ele>394.0</ele><time>2026-05-01T12:23:45.966Z</time></trkpt><trkpt lat="44.3658028" lon="8.2660493"><ele>394.0</ele><time>2026-05-01T12:23:46.966Z</time></trkpt><trkpt lat="44.3657721" lon="8.2661852"><ele>394.0</ele><time>2026-05-01T12:23:47.966Z</time></trkpt><trkpt lat="44.365738" lon="8.2663272"><ele>394.0</ele><time>2026-05-01T12:23:48.966Z</time></trkpt><trkpt lat="44.3657041" lon="8.2664754"><ele>394.0</ele><time>2026-05-01T12:23:49.966Z</time></trkpt><trkpt lat="44.3656692" lon="8.266628"><ele>394.0</ele><time>2026-05-01T12:23:50.966Z</time></trkpt><trkpt lat="44.3656366" lon="8.2667793"><ele>394.0</ele><time>2026-05-01T12:23:51.967Z</time></trkpt><trkpt lat="44.365602" lon="8.2669361"><ele>394.25</ele><time>2026-05-01T12:23:52.966Z</time></trkpt><trkpt lat="44.3655707" lon="8.2670957"><ele>394.5</ele><time>2026-05-01T12:23:53.966Z</time></trkpt><trkpt lat="44.3655381" lon="8.2672535"><ele>394.75</ele><time>2026-05-01T12:23:54.966Z</time></trkpt><trkpt lat="44.3655072" lon="8.2674108"><ele>395.0</ele><time>2026-05-01T12:23:55.966Z</time></trkpt><trkpt lat="44.3654806" lon="8.267569"><ele>393.25</ele><time>2026-05-01T12:23:56.967Z</time></trkpt><trkpt lat="44.3654481" lon="8.2677201"><ele>391.5</ele><time>2026-05-01T12:23:57.966Z</time></trkpt><trkpt lat="44.3654125" lon="8.2678828"><ele>389.75</ele><time>2026-05-01T12:23:58.966Z</time></trkpt><trkpt lat="44.3653737" lon="8.2680342"><ele>388.0</ele><time>2026-05-01T12:23:59.966Z</time></trkpt><trkpt lat="44.3653354" lon="8.2681828"><ele>387.25</ele><time>2026-05-01T12:24:00.966Z</time></trkpt><trkpt lat="44.3653098" lon="8.2683289"><ele>386.5</ele><time>2026-05-01T12:24:01.966Z</time></trkpt><trkpt lat="44.3652825" lon="8.2684764"><ele>385.75</ele><time>2026-05-01T12:24:02.967Z</time></trkpt><trkpt lat="44.3652508" lon="8.2686338"><ele>385.0</ele><time>2026-05-01T12:24:03.966Z</time></trkpt><trkpt lat="44.365213" lon="8.2687942"><ele>385.25</ele><time>2026-05-01T12:24:04.967Z</time></trkpt><trkpt lat="44.3651781" lon="8.2689602"><ele>385.5</ele><time>2026-05-01T12:24:05.966Z</time></trkpt><trkpt lat="44.3651401" lon="8.2691288"><ele>385.75</ele><time>2026-05-01T12:24:06.967Z</time></trkpt><trkpt lat="44.365099" lon="8.269297"><ele>386.0</ele><time>2026-05-01T12:24:07.966Z</time></trkpt><trkpt lat="44.3650544" lon="8.2694695"><ele>386.0</ele><time>2026-05-01T12:24:08.966Z</time></trkpt><trkpt lat="44.3650102" lon="8.2696429"><ele>386.0</ele><time>2026-05-01T12:24:09.967Z</time></trkpt><trkpt lat="44.3649667" lon="8.2698138"><ele>386.0</ele><time>2026-05-01T12:24:10.966Z</time></trkpt><trkpt lat="44.3649275" lon="8.2699837"><ele>386.0</ele><time>2026-05-01T12:24:11.967Z</time></trkpt><trkpt lat="44.3648916" lon="8.2701524"><ele>386.0</ele><time>2026-05-01T12:24:12.966Z</time></trkpt><trkpt lat="44.3648525" lon="8.270328"><ele>386.0</ele><time>2026-05-01T12:24:13.966Z</time></trkpt><trkpt lat="44.3648128" lon="8.2705061"><ele>386.0</ele><time>2026-05-01T12:24:14.967Z</time></trkpt><trkpt lat="44.3647726" lon="8.2706807"><ele>386.0</ele><time>2026-05-01T12:24:15.967Z</time></trkpt><trkpt lat="44.364731" lon="8.270855"><ele>385.25</ele><time>2026-05-01T12:24:16.966Z</time></trkpt><trkpt lat="44.3646906" lon="8.2710302"><ele>384.5</ele><time>2026-05-01T12:24:17.967Z</time></trkpt><trkpt lat="44.3646531" lon="8.2712165"><ele>383.75</ele><time>2026-05-01T12:24:18.967Z</time></trkpt><trkpt lat="44.3646115" lon="8.2713995"><ele>383.0</ele><time>2026-05-01T12:24:19.966Z</time></trkpt><trkpt lat="44.3645722" lon="8.2715802"><ele>383.0</ele><time>2026-05-01T12:24:20.966Z</time></trkpt><trkpt lat="44.3645321" lon="8.271758"><ele>383.0</ele><time>2026-05-01T12:24:21.966Z</time></trkpt><trkpt lat="44.3644969" lon="8.2719362"><ele>383.0</ele><time>2026-05-01T12:24:22.966Z</time></trkpt><trkpt lat="44.364461" lon="8.2721143"><ele>383.0</ele><time>2026-05-01T12:24:23.967Z</time></trkpt><trkpt lat="44.3644281" lon="8.272295"><ele>383.0</ele><time>2026-05-01T12:24:24.966Z</time></trkpt><trkpt lat="44.3643982" lon="8.272474"><ele>383.0</ele><time>2026-05-01T12:24:25.967Z</time></trkpt><trkpt lat="44.3643611" lon="8.2726472"><ele>383.0</ele><time>2026-05-01T12:24:26.967Z</time></trkpt><trkpt lat="44.3643245" lon="8.2728215"><ele>383.0</ele><time>2026-05-01T12:24:27.967Z</time></trkpt><trkpt lat="44.3642821" lon="8.2729915"><ele>382.5</ele><time>2026-05-01T12:24:28.966Z</time></trkpt><trkpt lat="44.3642398" lon="8.2731675"><ele>382.0</ele><time>2026-05-01T12:24:29.966Z</time></trkpt><trkpt lat="44.3641991" lon="8.2733456"><ele>381.5</ele><time>2026-05-01T12:24:30.966Z</time></trkpt><trkpt lat="44.3641613" lon="8.2735281"><ele>381.0</ele><time>2026-05-01T12:24:31.966Z</time></trkpt><trkpt lat="44.3641217" lon="8.2737066"><ele>381.0</ele><time>2026-05-01T12:24:32.967Z</time></trkpt><trkpt lat="44.3640819" lon="8.2738889"><ele>381.0</ele><time>2026-05-01T12:24:33.966Z</time></trkpt><trkpt lat="44.3640424" lon="8.274081"><ele>381.0</ele><time>2026-05-01T12:24:34.967Z</time></trkpt><trkpt lat="44.364004" lon="8.2742728"><ele>381.0</ele><time>2026-05-01T12:24:35.966Z</time></trkpt><trkpt lat="44.3639594" lon="8.2744555"><ele>381.25</ele><time>2026-05-01T12:24:36.966Z</time></trkpt><trkpt lat="44.3639166" lon="8.2746262"><ele>381.5</ele><time>2026-05-01T12:24:37.966Z</time></trkpt><trkpt lat="44.3638807" lon="8.2748036"><ele>381.75</ele><time>2026-05-01T12:24:38.967Z</time></trkpt><trkpt lat="44.3638431" lon="8.2749997"><ele>382.0</ele><time>2026-05-01T12:24:39.966Z</time></trkpt><trkpt lat="44.3637903" lon="8.2752136"><ele>380.0</ele><time>2026-05-01T12:24:40.967Z</time></trkpt><trkpt lat="44.3637414" lon="8.2754519"><ele>378.0</ele><time>2026-05-01T12:24:41.966Z</time></trkpt><trkpt lat="44.3636999" lon="8.2757149"><ele>376.0</ele><time>2026-05-01T12:24:42.967Z</time></trkpt><trkpt lat="44.3636763" lon="8.2760034"><ele>374.3333333333333</ele><time>2026-05-01T12:24:43.966Z</time></trkpt><trkpt lat="44.3636884" lon="8.2762906"><ele>372.6666666666667</ele><time>2026-05-01T12:24:44.966Z</time></trkpt><trkpt lat="44.363719" lon="8.2765667"><ele>371.0</ele><time>2026-05-01T12:24:45.966Z</time></trkpt><trkpt lat="44.3637423" lon="8.2768248"><ele>370.33333333333337</ele><time>2026-05-01T12:24:46.967Z</time></trkpt><trkpt lat="44.3637649" lon="8.2770706"><ele>369.6666666666667</ele><time>2026-05-01T12:24:47.966Z</time></trkpt><trkpt lat="44.363776" lon="8.2773093"><ele>369.0</ele><time>2026-05-01T12:24:48.966Z</time></trkpt><trkpt lat="44.3637814" lon="8.2775426"><ele>369.0</ele><time>2026-05-01T12:24:49.967Z</time></trkpt><trkpt lat="44.3637914" lon="8.2777732"><ele>369.0</ele><time>2026-05-01T12:24:50.966Z</time></trkpt><trkpt lat="44.3638075" lon="8.2780023"><ele>369.0</ele><time>2026-05-01T12:24:51.967Z</time></trkpt><trkpt lat="44.3638108" lon="8.2782345"><ele>368.6666666666667</ele><time>2026-05-01T12:24:52.966Z</time></trkpt><trkpt lat="44.3638198" lon="8.2784582"><ele>368.33333333333337</ele><time>2026-05-01T12:24:53.966Z</time></trkpt><trkpt lat="44.3638399" lon="8.2786785"><ele>368.0</ele><time>2026-05-01T12:24:54.966Z</time></trkpt><trkpt lat="44.3638496" lon="8.2788993"><ele>367.6666666666667</ele><time>2026-05-01T12:24:55.967Z</time></trkpt><trkpt lat="44.3638511" lon="8.2791159"><ele>367.3333333333333</ele><time>2026-05-01T12:24:56.966Z</time></trkpt><trkpt lat="44.3638394" lon="8.279338"><ele>367.0</ele><time>2026-05-01T12:24:57.966Z</time></trkpt><trkpt lat="44.3638148" lon="8.2795662"><ele>366.3333333333333</ele><time>2026-05-01T12:24:58.966Z</time></trkpt><trkpt lat="44.3637869" lon="8.2797937"><ele>365.6666666666667</ele><time>2026-05-01T12:24:59.966Z</time></trkpt><trkpt lat="44.3637621" lon="8.2800113"><ele>365.0</ele><time>2026-05-01T12:25:00.967Z</time></trkpt><trkpt lat="44.3637311" lon="8.2802382"><ele>365.0</ele><time>2026-05-01T12:25:01.967Z</time></trkpt><trkpt lat="44.3637024" lon="8.2804725"><ele>365.0</ele><time>2026-05-01T12:25:02.967Z</time></trkpt><trkpt lat="44.3636748" lon="8.2807185"><ele>365.0</ele><time>2026-05-01T12:25:03.966Z</time></trkpt><trkpt lat="44.363644" lon="8.2809661"><ele>364.33333333333337</ele><time>2026-05-01T12:25:04.966Z</time></trkpt><trkpt lat="44.3636135" lon="8.2812136"><ele>363.6666666666667</ele><time>2026-05-01T12:25:05.967Z</time></trkpt><trkpt lat="44.3635821" lon="8.2814578"><ele>363.0</ele><time>2026-05-01T12:25:06.966Z</time></trkpt><trkpt lat="44.3635539" lon="8.2816934"><ele>362.3333333333333</ele><time>2026-05-01T12:25:07.967Z</time></trkpt><trkpt lat="44.3635232" lon="8.2819263"><ele>361.66666666666663</ele><time>2026-05-01T12:25:08.966Z</time></trkpt><trkpt lat="44.3634932" lon="8.2821572"><ele>361.0</ele><time>2026-05-01T12:25:09.966Z</time></trkpt><trkpt lat="44.3634657" lon="8.2823806"><ele>361.0</ele><time>2026-05-01T12:25:10.967Z</time></trkpt><trkpt lat="44.363428" lon="8.2826034"><ele>361.0</ele><time>2026-05-01T12:25:11.966Z</time></trkpt><trkpt lat="44.3633959" lon="8.2828221"><ele>361.0</ele><time>2026-05-01T12:25:12.966Z</time></trkpt><trkpt lat="44.3633645" lon="8.2830386"><ele>360.0</ele><time>2026-05-01T12:25:13.966Z</time></trkpt><trkpt lat="44.3633355" lon="8.2832534"><ele>359.0</ele><time>2026-05-01T12:25:14.966Z</time></trkpt><trkpt lat="44.3633037" lon="8.2834664"><ele>358.0</ele><time>2026-05-01T12:25:15.966Z</time></trkpt><trkpt lat="44.3632746" lon="8.2836801"><ele>358.0</ele><time>2026-05-01T12:25:16.966Z</time></trkpt><trkpt lat="44.3632508" lon="8.283882"><ele>358.0</ele><time>2026-05-01T12:25:17.966Z</time></trkpt><trkpt lat="44.3632287" lon="8.2840761"><ele>358.0</ele><time>2026-05-01T12:25:18.966Z</time></trkpt><trkpt lat="44.3632012" lon="8.2842621"><ele>358.0</ele><time>2026-05-01T12:25:19.966Z</time></trkpt><trkpt lat="44.3631772" lon="8.2844347"><ele>358.0</ele><time>2026-05-01T12:25:20.966Z</time></trkpt><trkpt lat="44.3631554" lon="8.2845994"><ele>358.0</ele><time>2026-05-01T12:25:21.967Z</time></trkpt><trkpt lat="44.3631301" lon="8.2847618"><ele>358.0</ele><time>2026-05-01T12:25:22.966Z</time></trkpt><trkpt lat="44.3631062" lon="8.284913"><ele>358.0</ele><time>2026-05-01T12:25:23.966Z</time></trkpt><trkpt lat="44.3630849" lon="8.2850576"><ele>357.79999999999995</ele><time>2026-05-01T12:25:24.966Z</time></trkpt><trkpt lat="44.3630585" lon="8.2851944"><ele>357.6</ele><time>2026-05-01T12:25:25.966Z</time></trkpt><trkpt lat="44.3630315" lon="8.2853161"><ele>357.4</ele><time>2026-05-01T12:25:26.966Z</time></trkpt><trkpt lat="44.3630011" lon="8.2854148"><ele>357.20000000000005</ele><time>2026-05-01T12:25:27.967Z</time></trkpt><trkpt lat="44.3629659" lon="8.285494"><ele>357.0</ele><time>2026-05-01T12:25:28.967Z</time></trkpt><trkpt lat="44.3628746" lon="8.2856099"><ele>357.0</ele><time>2026-05-01T12:25:30.966Z</time></trkpt><trkpt lat="44.3627965" lon="8.2857175"><ele>357.0</ele><time>2026-05-01T12:25:32.966Z</time></trkpt><trkpt lat="44.3628079" lon="8.2858615"><ele>357.0</ele><time>2026-05-01T12:25:34.966Z</time></trkpt><trkpt lat="44.3628466" lon="8.2859502"><ele>357.0</ele><time>2026-05-01T12:25:35.966Z</time></trkpt><trkpt lat="44.3628814" lon="8.2860553"><ele>357.0</ele><time>2026-05-01T12:25:36.967Z</time></trkpt><trkpt lat="44.3629103" lon="8.2861796"><ele>357.0</ele><time>2026-05-01T12:25:37.967Z</time></trkpt><trkpt lat="44.362923" lon="8.2863234"><ele>357.0</ele><time>2026-05-01T12:25:38.967Z</time></trkpt><trkpt lat="44.3629148" lon="8.286474"><ele>357.0</ele><time>2026-05-01T12:25:39.966Z</time></trkpt><trkpt lat="44.3628993" lon="8.2866365"><ele>357.0</ele><time>2026-05-01T12:25:40.966Z</time></trkpt><trkpt lat="44.3628787" lon="8.2868175"><ele>356.75</ele><time>2026-05-01T12:25:41.966Z</time></trkpt><trkpt lat="44.3628586" lon="8.2869967"><ele>356.5</ele><time>2026-05-01T12:25:42.966Z</time></trkpt><trkpt lat="44.3628328" lon="8.2871685"><ele>356.25</ele><time>2026-05-01T12:25:43.967Z</time></trkpt><trkpt lat="44.3628068" lon="8.2873435"><ele>356.0</ele><time>2026-05-01T12:25:44.967Z</time></trkpt><trkpt lat="44.3627738" lon="8.2875165"><ele>355.25</ele><time>2026-05-01T12:25:45.966Z</time></trkpt><trkpt lat="44.3627463" lon="8.2876898"><ele>354.5</ele><time>2026-05-01T12:25:46.967Z</time></trkpt><trkpt lat="44.3627147" lon="8.2878682"><ele>353.75</ele><time>2026-05-01T12:25:47.966Z</time></trkpt><trkpt lat="44.362686" lon="8.2880443"><ele>353.0</ele><time>2026-05-01T12:25:48.967Z</time></trkpt><trkpt lat="44.3626614" lon="8.2882159"><ele>352.25</ele><time>2026-05-01T12:25:49.966Z</time></trkpt><trkpt lat="44.3626326" lon="8.2883861"><ele>351.5</ele><time>2026-05-01T12:25:50.966Z</time></trkpt><trkpt lat="44.3626051" lon="8.2885584"><ele>350.75</ele><time>2026-05-01T12:25:51.967Z</time></trkpt><trkpt lat="44.3625862" lon="8.2887291"><ele>350.0</ele><time>2026-05-01T12:25:52.966Z</time></trkpt><trkpt lat="44.3625814" lon="8.2888991"><ele>350.25</ele><time>2026-05-01T12:25:53.966Z</time></trkpt><trkpt lat="44.3625919" lon="8.2890649"><ele>350.5</ele><time>2026-05-01T12:25:54.966Z</time></trkpt><trkpt lat="44.3626069" lon="8.2892356"><ele>350.75</ele><time>2026-05-01T12:25:55.966Z</time></trkpt><trkpt lat="44.3626417" lon="8.2893924"><ele>351.0</ele><time>2026-05-01T12:25:56.966Z</time></trkpt><trkpt lat="44.3626952" lon="8.2895282"><ele>351.0</ele><time>2026-05-01T12:25:57.966Z</time></trkpt><trkpt lat="44.3627631" lon="8.289656"><ele>351.0</ele><time>2026-05-01T12:25:58.966Z</time></trkpt><trkpt lat="44.3628309" lon="8.2897712"><ele>351.0</ele><time>2026-05-01T12:25:59.966Z</time></trkpt><trkpt lat="44.3629039" lon="8.2898714"><ele>351.0</ele><time>2026-05-01T12:26:00.967Z</time></trkpt><trkpt lat="44.3629569" lon="8.2899642"><ele>351.0</ele><time>2026-05-01T12:26:01.967Z</time></trkpt><trkpt lat="44.3630012" lon="8.2900502"><ele>350.6</ele><time>2026-05-01T12:26:02.967Z</time></trkpt><trkpt lat="44.3630524" lon="8.2901768"><ele>350.20000000000005</ele><time>2026-05-01T12:26:04.966Z</time></trkpt><trkpt lat="44.3630679" lon="8.2902841"><ele>349.79999999999995</ele><time>2026-05-01T12:26:07.966Z</time></trkpt><trkpt lat="44.3630613" lon="8.2903732"><ele>349.4</ele><time>2026-05-01T12:26:09.966Z</time></trkpt><trkpt lat="44.363011" lon="8.2904795"><ele>349.0</ele><time>2026-05-01T12:26:11.966Z</time></trkpt><trkpt lat="44.3628931" lon="8.2905473"><ele>348.6</ele><time>2026-05-01T12:26:13.966Z</time></trkpt><trkpt lat="44.3628206" lon="8.2905563"><ele>348.2</ele><time>2026-05-01T12:26:14.966Z</time></trkpt><trkpt lat="44.3627323" lon="8.2905545"><ele>347.8</ele><time>2026-05-01T12:26:15.967Z</time></trkpt><trkpt lat="44.3626315" lon="8.2905498"><ele>347.40000000000003</ele><time>2026-05-01T12:26:16.966Z</time></trkpt><trkpt lat="44.3625239" lon="8.2905472"><ele>347.0</ele><time>2026-05-01T12:26:17.966Z</time></trkpt><trkpt lat="44.3624241" lon="8.2905505"><ele>347.0</ele><time>2026-05-01T12:26:18.966Z</time></trkpt><trkpt lat="44.3623261" lon="8.2905581"><ele>347.0</ele><time>2026-05-01T12:26:19.966Z</time></trkpt><trkpt lat="44.362229" lon="8.2905672"><ele>347.0</ele><time>2026-05-01T12:26:20.966Z</time></trkpt><trkpt lat="44.3621296" lon="8.290584"><ele>347.0</ele><time>2026-05-01T12:26:21.966Z</time></trkpt><trkpt lat="44.3620283" lon="8.2906111"><ele>347.0</ele><time>2026-05-01T12:26:22.966Z</time></trkpt><trkpt lat="44.3619342" lon="8.2906581"><ele>347.20000000000005</ele><time>2026-05-01T12:26:23.966Z</time></trkpt><trkpt lat="44.3618505" lon="8.2907382"><ele>347.4</ele><time>2026-05-01T12:26:24.966Z</time></trkpt><trkpt lat="44.3617725" lon="8.2908484"><ele>347.6</ele><time>2026-05-01T12:26:25.967Z</time></trkpt><trkpt lat="44.3617029" lon="8.2909761"><ele>347.79999999999995</ele><time>2026-05-01T12:26:26.966Z</time></trkpt><trkpt lat="44.3616299" lon="8.2911033"><ele>348.0</ele><time>2026-05-01T12:26:27.967Z</time></trkpt><trkpt lat="44.3615456" lon="8.2912218"><ele>348.0</ele><time>2026-05-01T12:26:28.966Z</time></trkpt><trkpt lat="44.361468" lon="8.2913359"><ele>348.0</ele><time>2026-05-01T12:26:29.966Z</time></trkpt><trkpt lat="44.3613984" lon="8.2914485"><ele>348.0</ele><time>2026-05-01T12:26:30.966Z</time></trkpt><trkpt lat="44.3613214" lon="8.291573"><ele>348.0</ele><time>2026-05-01T12:26:31.967Z</time></trkpt><trkpt lat="44.3612456" lon="8.2916931"><ele>348.0</ele><time>2026-05-01T12:26:32.966Z</time></trkpt><trkpt lat="44.361174" lon="8.2918102"><ele>348.0</ele><time>2026-05-01T12:26:33.966Z</time></trkpt><trkpt lat="44.3610996" lon="8.2919144"><ele>348.0</ele><time>2026-05-01T12:26:34.966Z</time></trkpt><trkpt lat="44.3610153" lon="8.2919948"><ele>348.0</ele><time>2026-05-01T12:26:35.967Z</time></trkpt><trkpt lat="44.3609277" lon="8.2920572"><ele>348.0</ele><time>2026-05-01T12:26:36.966Z</time></trkpt><trkpt lat="44.3608307" lon="8.2920968"><ele>348.0</ele><time>2026-05-01T12:26:37.966Z</time></trkpt><trkpt lat="44.3607304" lon="8.2921113"><ele>348.0</ele><time>2026-05-01T12:26:38.967Z</time></trkpt><trkpt lat="44.3606356" lon="8.2921026"><ele>348.0</ele><time>2026-05-01T12:26:39.967Z</time></trkpt><trkpt lat="44.3605338" lon="8.2920947"><ele>348.0</ele><time>2026-05-01T12:26:40.967Z</time></trkpt><trkpt lat="44.3604201" lon="8.2920927"><ele>348.0</ele><time>2026-05-01T12:26:41.967Z</time></trkpt><trkpt lat="44.3602921" lon="8.2920915"><ele>348.25</ele><time>2026-05-01T12:26:42.967Z</time></trkpt><trkpt lat="44.3601696" lon="8.2920927"><ele>348.5</ele><time>2026-05-01T12:26:43.966Z</time></trkpt><trkpt lat="44.3600477" lon="8.2920902"><ele>348.75</ele><time>2026-05-01T12:26:44.966Z</time></trkpt><trkpt lat="44.3599204" lon="8.2920912"><ele>349.0</ele><time>2026-05-01T12:26:45.967Z</time></trkpt><trkpt lat="44.3597952" lon="8.2920874"><ele>349.75</ele><time>2026-05-01T12:26:46.966Z</time></trkpt><trkpt lat="44.3596682" lon="8.2920838"><ele>350.5</ele><time>2026-05-01T12:26:47.966Z</time></trkpt><trkpt lat="44.3595349" lon="8.2920867"><ele>351.25</ele><time>2026-05-01T12:26:48.966Z</time></trkpt><trkpt lat="44.3594062" lon="8.2920828"><ele>352.0</ele><time>2026-05-01T12:26:49.966Z</time></trkpt><trkpt lat="44.3592859" lon="8.2920833"><ele>352.0</ele><time>2026-05-01T12:26:50.966Z</time></trkpt><trkpt lat="44.3591571" lon="8.2920846"><ele>352.0</ele><time>2026-05-01T12:26:51.966Z</time></trkpt><trkpt lat="44.3590261" lon="8.2920841"><ele>352.0</ele><time>2026-05-01T12:26:52.967Z</time></trkpt><trkpt lat="44.358892" lon="8.292089"><ele>352.0</ele><time>2026-05-01T12:26:53.966Z</time></trkpt><trkpt lat="44.3587644" lon="8.2920891"><ele>352.0</ele><time>2026-05-01T12:26:54.966Z</time></trkpt><trkpt lat="44.3586362" lon="8.2921017"><ele>352.0</ele><time>2026-05-01T12:26:55.967Z</time></trkpt><trkpt lat="44.3585157" lon="8.2920855"><ele>352.0</ele><time>2026-05-01T12:26:56.967Z</time></trkpt><trkpt lat="44.3583839" lon="8.2920815"><ele>352.0</ele><time>2026-05-01T12:26:57.966Z</time></trkpt><trkpt lat="44.3582475" lon="8.2920838"><ele>352.0</ele><time>2026-05-01T12:26:58.966Z</time></trkpt><trkpt lat="44.3581237" lon="8.2920916"><ele>352.0</ele><time>2026-05-01T12:26:59.966Z</time></trkpt><trkpt lat="44.3580059" lon="8.2920973"><ele>352.0</ele><time>2026-05-01T12:27:00.966Z</time></trkpt><trkpt lat="44.357888" lon="8.2920939"><ele>352.0</ele><time>2026-05-01T12:27:01.966Z</time></trkpt><trkpt lat="44.3577626" lon="8.2920839"><ele>352.75</ele><time>2026-05-01T12:27:02.966Z</time></trkpt><trkpt lat="44.3576383" lon="8.2920779"><ele>353.5</ele><time>2026-05-01T12:27:03.966Z</time></trkpt><trkpt lat="44.3575135" lon="8.2920694"><ele>354.25</ele><time>2026-05-01T12:27:04.967Z</time></trkpt><trkpt lat="44.3573974" lon="8.2920529"><ele>355.0</ele><time>2026-05-01T12:27:05.967Z</time></trkpt><trkpt lat="44.3572851" lon="8.2920359"><ele>356.25</ele><time>2026-05-01T12:27:06.967Z</time></trkpt><trkpt lat="44.3571722" lon="8.2920098"><ele>357.5</ele><time>2026-05-01T12:27:07.966Z</time></trkpt><trkpt lat="44.3570418" lon="8.2919778"><ele>358.75</ele><time>2026-05-01T12:27:08.966Z</time></trkpt><trkpt lat="44.3569181" lon="8.2919405"><ele>360.0</ele><time>2026-05-01T12:27:09.966Z</time></trkpt><trkpt lat="44.3568089" lon="8.2919111"><ele>360.0</ele><time>2026-05-01T12:27:10.966Z</time></trkpt><trkpt lat="44.3567007" lon="8.2918746"><ele>360.0</ele><time>2026-05-01T12:27:11.966Z</time></trkpt><trkpt lat="44.3565904" lon="8.2918393"><ele>360.0</ele><time>2026-05-01T12:27:12.966Z</time></trkpt><trkpt lat="44.3564846" lon="8.2918112"><ele>360.0</ele><time>2026-05-01T12:27:13.967Z</time></trkpt><trkpt lat="44.3563774" lon="8.291783"><ele>360.0</ele><time>2026-05-01T12:27:14.967Z</time></trkpt><trkpt lat="44.3562749" lon="8.2917612"><ele>360.2</ele><time>2026-05-01T12:27:15.966Z</time></trkpt><trkpt lat="44.3561747" lon="8.2917658"><ele>360.4</ele><time>2026-05-01T12:27:16.967Z</time></trkpt><trkpt lat="44.3560649" lon="8.2917809"><ele>360.6</ele><time>2026-05-01T12:27:17.967Z</time></trkpt><trkpt lat="44.3559571" lon="8.2917991"><ele>360.8</ele><time>2026-05-01T12:27:18.967Z</time></trkpt><trkpt lat="44.35585" lon="8.2918304"><ele>361.0</ele><time>2026-05-01T12:27:19.967Z</time></trkpt><trkpt lat="44.3557469" lon="8.291875"><ele>361.0</ele><time>2026-05-01T12:27:20.966Z</time></trkpt><trkpt lat="44.3556475" lon="8.2919268"><ele>361.0</ele><time>2026-05-01T12:27:21.967Z</time></trkpt><trkpt lat="44.3555386" lon="8.2919741"><ele>361.0</ele><time>2026-05-01T12:27:22.967Z</time></trkpt><trkpt lat="44.355433" lon="8.292027"><ele>361.0</ele><time>2026-05-01T12:27:23.966Z</time></trkpt><trkpt lat="44.3553392" lon="8.2920734"><ele>361.0</ele><time>2026-05-01T12:27:24.966Z</time></trkpt><trkpt lat="44.3552398" lon="8.2921216"><ele>361.25</ele><time>2026-05-01T12:27:25.966Z</time></trkpt><trkpt lat="44.3551387" lon="8.2921694"><ele>361.5</ele><time>2026-05-01T12:27:26.966Z</time></trkpt><trkpt lat="44.3550326" lon="8.2922189"><ele>361.75</ele><time>2026-05-01T12:27:27.966Z</time></trkpt><trkpt lat="44.3549116" lon="8.2922845"><ele>362.0</ele><time>2026-05-01T12:27:28.967Z</time></trkpt><trkpt lat="44.3547695" lon="8.2923592"><ele>362.33333333333337</ele><time>2026-05-01T12:27:29.966Z</time></trkpt><trkpt lat="44.3546099" lon="8.2924322"><ele>362.6666666666667</ele><time>2026-05-01T12:27:30.966Z</time></trkpt><trkpt lat="44.3544414" lon="8.2925027"><ele>363.0</ele><time>2026-05-01T12:27:31.967Z</time></trkpt><trkpt lat="44.3542758" lon="8.2925767"><ele>363.0</ele><time>2026-05-01T12:27:32.966Z</time></trkpt><trkpt lat="44.3541156" lon="8.2926581"><ele>363.0</ele><time>2026-05-01T12:27:33.966Z</time></trkpt><trkpt lat="44.3539592" lon="8.2927388"><ele>363.0</ele><time>2026-05-01T12:27:34.966Z</time></trkpt><trkpt lat="44.3538004" lon="8.2928274"><ele>363.0</ele><time>2026-05-01T12:27:35.966Z</time></trkpt><trkpt lat="44.3536432" lon="8.2929183"><ele>363.0</ele><time>2026-05-01T12:27:36.966Z</time></trkpt><trkpt lat="44.353487" lon="8.2930183"><ele>363.0</ele><time>2026-05-01T12:27:37.966Z</time></trkpt><trkpt lat="44.3533308" lon="8.2931333"><ele>363.0</ele><time>2026-05-01T12:27:38.966Z</time></trkpt><trkpt lat="44.3531754" lon="8.2932687"><ele>363.0</ele><time>2026-05-01T12:27:39.967Z</time></trkpt><trkpt lat="44.3530199" lon="8.2934127"><ele>363.0</ele><time>2026-05-01T12:27:40.967Z</time></trkpt><trkpt lat="44.3528785" lon="8.2935724"><ele>363.3333333333333</ele><time>2026-05-01T12:27:41.966Z</time></trkpt><trkpt lat="44.3527476" lon="8.2937446"><ele>363.66666666666663</ele><time>2026-05-01T12:27:42.966Z</time></trkpt><trkpt lat="44.3526275" lon="8.2939212"><ele>364.0</ele><time>2026-05-01T12:27:43.967Z</time></trkpt><trkpt lat="44.3525079" lon="8.2940958"><ele>364.0</ele><time>2026-05-01T12:27:44.966Z</time></trkpt><trkpt lat="44.3523914" lon="8.2942727"><ele>364.0</ele><time>2026-05-01T12:27:45.966Z</time></trkpt><trkpt lat="44.3522717" lon="8.2944557"><ele>364.0</ele><time>2026-05-01T12:27:46.966Z</time></trkpt><trkpt lat="44.3521507" lon="8.2946389"><ele>364.3333333333333</ele><time>2026-05-01T12:27:47.967Z</time></trkpt><trkpt lat="44.3520231" lon="8.2948211"><ele>364.6666666666667</ele><time>2026-05-01T12:27:48.966Z</time></trkpt><trkpt lat="44.3518958" lon="8.2950009"><ele>365.0</ele><time>2026-05-01T12:27:49.966Z</time></trkpt><trkpt lat="44.3517637" lon="8.2951798"><ele>365.0</ele><time>2026-05-01T12:27:50.966Z</time></trkpt><trkpt lat="44.3516377" lon="8.2953561"><ele>365.0</ele><time>2026-05-01T12:27:51.966Z</time></trkpt><trkpt lat="44.3515124" lon="8.2955338"><ele>365.0</ele><time>2026-05-01T12:27:52.967Z</time></trkpt><trkpt lat="44.3514006" lon="8.2957109"><ele>365.33333333333337</ele><time>2026-05-01T12:27:53.966Z</time></trkpt><trkpt lat="44.3512844" lon="8.2958893"><ele>365.6666666666667</ele><time>2026-05-01T12:27:54.966Z</time></trkpt><trkpt lat="44.3511659" lon="8.296077"><ele>366.0</ele><time>2026-05-01T12:27:55.966Z</time></trkpt><trkpt lat="44.3510656" lon="8.2962761"><ele>367.0</ele><time>2026-05-01T12:27:56.966Z</time></trkpt><trkpt lat="44.3509782" lon="8.2964921"><ele>368.0</ele><time>2026-05-01T12:27:57.967Z</time></trkpt><trkpt lat="44.3508983" lon="8.2967083"><ele>369.0</ele><time>2026-05-01T12:27:58.966Z</time></trkpt><trkpt lat="44.3508073" lon="8.2969179"><ele>369.0</ele><time>2026-05-01T12:27:59.966Z</time></trkpt><trkpt lat="44.3506949" lon="8.2971167"><ele>369.0</ele><time>2026-05-01T12:28:00.967Z</time></trkpt><trkpt lat="44.3505635" lon="8.2972823"><ele>369.0</ele><time>2026-05-01T12:28:01.966Z</time></trkpt><trkpt lat="44.3504382" lon="8.2974545"><ele>370.0</ele><time>2026-05-01T12:28:02.967Z</time></trkpt><trkpt lat="44.3503096" lon="8.2976177"><ele>371.0</ele><time>2026-05-01T12:28:03.966Z</time></trkpt><trkpt lat="44.3501818" lon="8.2977757"><ele>372.0</ele><time>2026-05-01T12:28:04.966Z</time></trkpt><trkpt lat="44.3500538" lon="8.2979316"><ele>374.3333333333333</ele><time>2026-05-01T12:28:05.967Z</time></trkpt><trkpt lat="44.3499371" lon="8.2980867"><ele>376.66666666666663</ele><time>2026-05-01T12:28:06.966Z</time></trkpt><trkpt lat="44.3498198" lon="8.298249"><ele>379.0</ele><time>2026-05-01T12:28:07.966Z</time></trkpt><trkpt lat="44.3497128" lon="8.298409"><ele>377.66666666666663</ele><time>2026-05-01T12:28:08.966Z</time></trkpt><trkpt lat="44.3496086" lon="8.2985627"><ele>376.3333333333333</ele><time>2026-05-01T12:28:09.966Z</time></trkpt><trkpt lat="44.349503" lon="8.2987199"><ele>375.0</ele><time>2026-05-01T12:28:10.966Z</time></trkpt><trkpt lat="44.3493894" lon="8.2988731"><ele>377.6666666666667</ele><time>2026-05-01T12:28:11.966Z</time></trkpt><trkpt lat="44.3492726" lon="8.2990247"><ele>380.33333333333337</ele><time>2026-05-01T12:28:12.966Z</time></trkpt><trkpt lat="44.3491536" lon="8.2991689"><ele>383.0</ele><time>2026-05-01T12:28:13.966Z</time></trkpt><trkpt lat="44.34904" lon="8.2993137"><ele>383.0</ele><time>2026-05-01T12:28:14.966Z</time></trkpt><trkpt lat="44.3489273" lon="8.2994479"><ele>383.0</ele><time>2026-05-01T12:28:15.966Z</time></trkpt><trkpt lat="44.3488119" lon="8.2995721"><ele>383.0</ele><time>2026-05-01T12:28:16.967Z</time></trkpt><trkpt lat="44.3486957" lon="8.2996834"><ele>383.0</ele><time>2026-05-01T12:28:17.967Z</time></trkpt><trkpt lat="44.3485786" lon="8.2997874"><ele>383.75</ele><time>2026-05-01T12:28:18.966Z</time></trkpt><trkpt lat="44.3484697" lon="8.2998877"><ele>384.5</ele><time>2026-05-01T12:28:19.966Z</time></trkpt><trkpt lat="44.3483653" lon="8.2999854"><ele>385.25</ele><time>2026-05-01T12:28:20.966Z</time></trkpt><trkpt lat="44.3482652" lon="8.300086"><ele>386.0</ele><time>2026-05-01T12:28:21.966Z</time></trkpt><trkpt lat="44.3481662" lon="8.3001921"><ele>386.0</ele><time>2026-05-01T12:28:22.966Z</time></trkpt><trkpt lat="44.3480704" lon="8.3003107"><ele>386.0</ele><time>2026-05-01T12:28:23.966Z</time></trkpt><trkpt lat="44.3479845" lon="8.3004425"><ele>386.0</ele><time>2026-05-01T12:28:24.966Z</time></trkpt><trkpt lat="44.3479092" lon="8.300579"><ele>386.0</ele><time>2026-05-01T12:28:25.967Z</time></trkpt><trkpt lat="44.3478361" lon="8.3007172"><ele>387.75</ele><time>2026-05-01T12:28:26.966Z</time></trkpt><trkpt lat="44.3477646" lon="8.3008603"><ele>389.5</ele><time>2026-05-01T12:28:27.967Z</time></trkpt><trkpt lat="44.3476961" lon="8.30101"><ele>391.25</ele><time>2026-05-01T12:28:28.967Z</time></trkpt><trkpt lat="44.3476421" lon="8.3011713"><ele>393.0</ele><time>2026-05-01T12:28:29.967Z</time></trkpt><trkpt lat="44.3475976" lon="8.3013318"><ele>393.59999999999997</ele><time>2026-05-01T12:28:30.966Z</time></trkpt><trkpt lat="44.3475565" lon="8.3014894"><ele>394.2</ele><time>2026-05-01T12:28:31.967Z</time></trkpt><trkpt lat="44.3475237" lon="8.3016402"><ele>394.8</ele><time>2026-05-01T12:28:32.966Z</time></trkpt><trkpt lat="44.3474899" lon="8.301787"><ele>395.4</ele><time>2026-05-01T12:28:33.966Z</time></trkpt><trkpt lat="44.3474504" lon="8.3019248"><ele>396.0</ele><time>2026-05-01T12:28:34.966Z</time></trkpt><trkpt lat="44.3474016" lon="8.3020545"><ele>396.0</ele><time>2026-05-01T12:28:35.966Z</time></trkpt><trkpt lat="44.347352" lon="8.3021653"><ele>396.0</ele><time>2026-05-01T12:28:36.966Z</time></trkpt><trkpt lat="44.3472997" lon="8.3022439"><ele>396.0</ele><time>2026-05-01T12:28:37.966Z</time></trkpt><trkpt lat="44.3472453" lon="8.3022973"><ele>396.0</ele><time>2026-05-01T12:28:38.966Z</time></trkpt><trkpt lat="44.3471936" lon="8.3023522"><ele>396.0</ele><time>2026-05-01T12:28:39.967Z</time></trkpt><trkpt lat="44.3471609" lon="8.3024326"><ele>396.0</ele><time>2026-05-01T12:28:40.966Z</time></trkpt><trkpt lat="44.3471569" lon="8.3025262"><ele>396.0</ele><time>2026-05-01T12:28:41.967Z</time></trkpt><trkpt lat="44.347169" lon="8.3026272"><ele>397.5</ele><time>2026-05-01T12:28:42.966Z</time></trkpt><trkpt lat="44.3471777" lon="8.3027342"><ele>399.0</ele><time>2026-05-01T12:28:43.966Z</time></trkpt><trkpt lat="44.3471765" lon="8.3028452"><ele>400.5</ele><time>2026-05-01T12:28:44.966Z</time></trkpt><trkpt lat="44.347158" lon="8.3029632"><ele>402.0</ele><time>2026-05-01T12:28:45.967Z</time></trkpt><trkpt lat="44.3471295" lon="8.3030845"><ele>403.5</ele><time>2026-05-01T12:28:46.967Z</time></trkpt><trkpt lat="44.3470928" lon="8.3032153"><ele>405.0</ele><time>2026-05-01T12:28:47.966Z</time></trkpt><trkpt lat="44.34705" lon="8.3033658"><ele>405.25</ele><time>2026-05-01T12:28:48.967Z</time></trkpt><trkpt lat="44.3470055" lon="8.303534"><ele>405.5</ele><time>2026-05-01T12:28:49.967Z</time></trkpt><trkpt lat="44.3469582" lon="8.3037206"><ele>405.75</ele><time>2026-05-01T12:28:50.966Z</time></trkpt><trkpt lat="44.3469074" lon="8.3039109"><ele>406.0</ele><time>2026-05-01T12:28:51.966Z</time></trkpt><trkpt lat="44.3468632" lon="8.3041144"><ele>405.33333333333337</ele><time>2026-05-01T12:28:52.965Z</time></trkpt><trkpt lat="44.3468058" lon="8.3043309"><ele>404.66666666666663</ele><time>2026-05-01T12:28:53.966Z</time></trkpt><trkpt lat="44.3467677" lon="8.3045749"><ele>404.0</ele><time>2026-05-01T12:28:54.966Z</time></trkpt><trkpt lat="44.3467698" lon="8.304833"><ele>403.66666666666663</ele><time>2026-05-01T12:28:55.965Z</time></trkpt><trkpt lat="44.3467879" lon="8.3050866"><ele>403.33333333333337</ele><time>2026-05-01T12:28:56.965Z</time></trkpt><trkpt lat="44.3468092" lon="8.3053313"><ele>403.0</ele><time>2026-05-01T12:28:57.966Z</time></trkpt><trkpt lat="44.3468289" lon="8.305558"><ele>401.6666666666667</ele><time>2026-05-01T12:28:58.966Z</time></trkpt><trkpt lat="44.3468438" lon="8.3057802"><ele>400.33333333333337</ele><time>2026-05-01T12:28:59.966Z</time></trkpt><trkpt lat="44.3468588" lon="8.306001"><ele>399.0</ele><time>2026-05-01T12:29:00.965Z</time></trkpt><trkpt lat="44.346888" lon="8.3062191"><ele>397.66666666666663</ele><time>2026-05-01T12:29:01.966Z</time></trkpt><trkpt lat="44.3469089" lon="8.306433"><ele>396.3333333333333</ele><time>2026-05-01T12:29:02.966Z</time></trkpt><trkpt lat="44.3469522" lon="8.3066396"><ele>395.0</ele><time>2026-05-01T12:29:03.965Z</time></trkpt><trkpt lat="44.3469989" lon="8.3068516"><ele>395.0</ele><time>2026-05-01T12:29:04.965Z</time></trkpt><trkpt lat="44.3470575" lon="8.3070577"><ele>395.0</ele><time>2026-05-01T12:29:05.965Z</time></trkpt><trkpt lat="44.3471316" lon="8.3072596"><ele>395.0</ele><time>2026-05-01T12:29:06.966Z</time></trkpt><trkpt lat="44.3472125" lon="8.3074552"><ele>396.3333333333333</ele><time>2026-05-01T12:29:07.965Z</time></trkpt><trkpt lat="44.3473054" lon="8.3076436"><ele>397.66666666666663</ele><time>2026-05-01T12:29:08.965Z</time></trkpt><trkpt lat="44.3473867" lon="8.3078347"><ele>399.0</ele><time>2026-05-01T12:29:09.965Z</time></trkpt><trkpt lat="44.3474523" lon="8.3080309"><ele>397.66666666666663</ele><time>2026-05-01T12:29:10.965Z</time></trkpt><trkpt lat="44.3474878" lon="8.3082436"><ele>396.3333333333333</ele><time>2026-05-01T12:29:11.965Z</time></trkpt><trkpt lat="44.3474865" lon="8.3084698"><ele>395.0</ele><time>2026-05-01T12:29:12.966Z</time></trkpt><trkpt lat="44.3474289" lon="8.3086993"><ele>396.0</ele><time>2026-05-01T12:29:13.965Z</time></trkpt><trkpt lat="44.3473405" lon="8.3089157"><ele>397.0</ele><time>2026-05-01T12:29:14.966Z</time></trkpt><trkpt lat="44.3472403" lon="8.3090979"><ele>398.0</ele><time>2026-05-01T12:29:15.965Z</time></trkpt><trkpt lat="44.3471377" lon="8.3092534"><ele>396.25</ele><time>2026-05-01T12:29:16.966Z</time></trkpt><trkpt lat="44.347045" lon="8.3094009"><ele>394.5</ele><time>2026-05-01T12:29:17.965Z</time></trkpt><trkpt lat="44.3469822" lon="8.3095518"><ele>392.75</ele><time>2026-05-01T12:29:18.965Z</time></trkpt><trkpt lat="44.346934" lon="8.3097054"><ele>391.0</ele><time>2026-05-01T12:29:19.966Z</time></trkpt><trkpt lat="44.3468999" lon="8.3098637"><ele>391.0</ele><time>2026-05-01T12:29:20.966Z</time></trkpt><trkpt lat="44.3468778" lon="8.3100317"><ele>391.0</ele><time>2026-05-01T12:29:21.965Z</time></trkpt><trkpt lat="44.3468699" lon="8.3102213"><ele>391.0</ele><time>2026-05-01T12:29:22.965Z</time></trkpt><trkpt lat="44.3468675" lon="8.3104274"><ele>391.0</ele><time>2026-05-01T12:29:23.965Z</time></trkpt><trkpt lat="44.3468714" lon="8.3106525"><ele>390.33333333333337</ele><time>2026-05-01T12:29:24.965Z</time></trkpt><trkpt lat="44.3468731" lon="8.3108672"><ele>389.66666666666663</ele><time>2026-05-01T12:29:25.965Z</time></trkpt><trkpt lat="44.3468766" lon="8.31108"><ele>389.0</ele><time>2026-05-01T12:29:26.965Z</time></trkpt><trkpt lat="44.3468809" lon="8.3113019"><ele>387.3333333333333</ele><time>2026-05-01T12:29:27.966Z</time></trkpt><trkpt lat="44.3468787" lon="8.3115224"><ele>385.66666666666663</ele><time>2026-05-01T12:29:28.965Z</time></trkpt><trkpt lat="44.3468804" lon="8.3117469"><ele>384.0</ele><time>2026-05-01T12:29:29.966Z</time></trkpt><trkpt lat="44.3468895" lon="8.31198"><ele>384.0</ele><time>2026-05-01T12:29:30.965Z</time></trkpt><trkpt lat="44.3468854" lon="8.3122078"><ele>384.0</ele><time>2026-05-01T12:29:31.965Z</time></trkpt><trkpt lat="44.3468692" lon="8.3124288"><ele>384.0</ele><time>2026-05-01T12:29:32.965Z</time></trkpt><trkpt lat="44.3468386" lon="8.3126461"><ele>385.0</ele><time>2026-05-01T12:29:33.966Z</time></trkpt><trkpt lat="44.3467993" lon="8.312863"><ele>386.0</ele><time>2026-05-01T12:29:34.966Z</time></trkpt><trkpt lat="44.3467564" lon="8.3130766"><ele>387.0</ele><time>2026-05-01T12:29:35.965Z</time></trkpt><trkpt lat="44.3466999" lon="8.313284"><ele>385.0</ele><time>2026-05-01T12:29:36.965Z</time></trkpt><trkpt lat="44.3466369" lon="8.3134858"><ele>383.0</ele><time>2026-05-01T12:29:37.965Z</time></trkpt><trkpt lat="44.3465596" lon="8.3136802"><ele>381.0</ele><time>2026-05-01T12:29:38.965Z</time></trkpt><trkpt lat="44.3464593" lon="8.3138742"><ele>383.66666666666663</ele><time>2026-05-01T12:29:39.965Z</time></trkpt><trkpt lat="44.3463614" lon="8.3140588"><ele>386.3333333333333</ele><time>2026-05-01T12:29:40.966Z</time></trkpt><trkpt lat="44.3462625" lon="8.314238"><ele>389.0</ele><time>2026-05-01T12:29:41.966Z</time></trkpt><trkpt lat="44.3461754" lon="8.3144143"><ele>389.0</ele><time>2026-05-01T12:29:42.965Z</time></trkpt><trkpt lat="44.3460935" lon="8.3145877"><ele>389.0</ele><time>2026-05-01T12:29:43.966Z</time></trkpt><trkpt lat="44.3460184" lon="8.3147731"><ele>389.0</ele><time>2026-05-01T12:29:44.965Z</time></trkpt><trkpt lat="44.3459554" lon="8.314958"><ele>389.0</ele><time>2026-05-01T12:29:45.965Z</time></trkpt><trkpt lat="44.3459154" lon="8.3151601"><ele>388.0</ele><time>2026-05-01T12:29:46.965Z</time></trkpt><trkpt lat="44.3458935" lon="8.3153646"><ele>387.0</ele><time>2026-05-01T12:29:47.966Z</time></trkpt><trkpt lat="44.3458671" lon="8.3155683"><ele>386.0</ele><time>2026-05-01T12:29:48.966Z</time></trkpt><trkpt lat="44.3458385" lon="8.3157673"><ele>385.0</ele><time>2026-05-01T12:29:49.966Z</time></trkpt><trkpt lat="44.3458017" lon="8.3159696"><ele>384.5</ele><time>2026-05-01T12:29:50.966Z</time></trkpt><trkpt lat="44.3457707" lon="8.3161677"><ele>384.0</ele><time>2026-05-01T12:29:51.966Z</time></trkpt><trkpt lat="44.345744" lon="8.3163626"><ele>383.5</ele><time>2026-05-01T12:29:52.965Z</time></trkpt><trkpt lat="44.345714" lon="8.3165566"><ele>383.0</ele><time>2026-05-01T12:29:53.965Z</time></trkpt><trkpt lat="44.3456799" lon="8.3167528"><ele>382.25</ele><time>2026-05-01T12:29:54.965Z</time></trkpt><trkpt lat="44.3456488" lon="8.3169455"><ele>381.5</ele><time>2026-05-01T12:29:55.966Z</time></trkpt><trkpt lat="44.345622" lon="8.3171379"><ele>380.75</ele><time>2026-05-01T12:29:56.965Z</time></trkpt><trkpt lat="44.3455964" lon="8.3173292"><ele>380.0</ele><time>2026-05-01T12:29:57.965Z</time></trkpt><trkpt lat="44.3455605" lon="8.3175265"><ele>386.0</ele><time>2026-05-01T12:29:58.965Z</time></trkpt><trkpt lat="44.3455246" lon="8.3177232"><ele>392.0</ele><time>2026-05-01T12:29:59.965Z</time></trkpt><trkpt lat="44.3454894" lon="8.3179093"><ele>398.0</ele><time>2026-05-01T12:30:00.965Z</time></trkpt><trkpt lat="44.3454543" lon="8.3180945"><ele>404.0</ele><time>2026-05-01T12:30:01.965Z</time></trkpt><trkpt lat="44.3454177" lon="8.3182774"><ele>404.0</ele><time>2026-05-01T12:30:02.966Z</time></trkpt><trkpt lat="44.345381" lon="8.31845"><ele>404.0</ele><time>2026-05-01T12:30:03.965Z</time></trkpt><trkpt lat="44.3453503" lon="8.3186251"><ele>404.0</ele><time>2026-05-01T12:30:04.965Z</time></trkpt><trkpt lat="44.3453263" lon="8.3187945"><ele>404.0</ele><time>2026-05-01T12:30:05.965Z</time></trkpt><trkpt lat="44.3453071" lon="8.3189607"><ele>404.0</ele><time>2026-05-01T12:30:06.966Z</time></trkpt><trkpt lat="44.3452912" lon="8.319124"><ele>404.0</ele><time>2026-05-01T12:30:07.965Z</time></trkpt><trkpt lat="44.3452821" lon="8.3192881"><ele>404.0</ele><time>2026-05-01T12:30:08.965Z</time></trkpt><trkpt lat="44.3452836" lon="8.3194536"><ele>404.0</ele><time>2026-05-01T12:30:09.966Z</time></trkpt><trkpt lat="44.3452978" lon="8.3196133"><ele>405.6</ele><time>2026-05-01T12:30:10.965Z</time></trkpt><trkpt lat="44.3453312" lon="8.3197589"><ele>407.2</ele><time>2026-05-01T12:30:11.965Z</time></trkpt><trkpt lat="44.3453681" lon="8.319894"><ele>408.8</ele><time>2026-05-01T12:30:12.966Z</time></trkpt><trkpt lat="44.3454021" lon="8.3200222"><ele>410.40000000000003</ele><time>2026-05-01T12:30:13.965Z</time></trkpt><trkpt lat="44.3454344" lon="8.3201316"><ele>412.0</ele><time>2026-05-01T12:30:14.965Z</time></trkpt><trkpt lat="44.3454595" lon="8.3202277"><ele>412.0</ele><time>2026-05-01T12:30:15.966Z</time></trkpt><trkpt lat="44.3454943" lon="8.32037"><ele>412.0</ele><time>2026-05-01T12:30:17.965Z</time></trkpt><trkpt lat="44.3455232" lon="8.3204773"><ele>412.0</ele><time>2026-05-01T12:30:19.965Z</time></trkpt><trkpt lat="44.3455387" lon="8.3205709"><ele>412.0</ele><time>2026-05-01T12:30:21.965Z</time></trkpt><trkpt lat="44.3455387" lon="8.3206888"><ele>412.0</ele><time>2026-05-01T12:30:23.965Z</time></trkpt><trkpt lat="44.3455218" lon="8.3208413"><ele>410.0</ele><time>2026-05-01T12:30:25.966Z</time></trkpt><trkpt lat="44.3454955" lon="8.3209339"><ele>408.0</ele><time>2026-05-01T12:30:26.965Z</time></trkpt><trkpt lat="44.345451" lon="8.3210426"><ele>406.0</ele><time>2026-05-01T12:30:27.966Z</time></trkpt><trkpt lat="44.3453965" lon="8.3211581"><ele>404.0</ele><time>2026-05-01T12:30:28.966Z</time></trkpt><trkpt lat="44.3453316" lon="8.3212752"><ele>402.0</ele><time>2026-05-01T12:30:29.966Z</time></trkpt><trkpt lat="44.3452594" lon="8.3213894"><ele>397.75</ele><time>2026-05-01T12:30:30.966Z</time></trkpt><trkpt lat="44.345185" lon="8.3215028"><ele>393.5</ele><time>2026-05-01T12:30:31.965Z</time></trkpt><trkpt lat="44.3450892" lon="8.3216112"><ele>389.25</ele><time>2026-05-01T12:30:32.965Z</time></trkpt><trkpt lat="44.3449862" lon="8.3217216"><ele>385.0</ele><time>2026-05-01T12:30:33.965Z</time></trkpt><trkpt lat="44.3448829" lon="8.3218277"><ele>385.0</ele><time>2026-05-01T12:30:34.965Z</time></trkpt><trkpt lat="44.3447623" lon="8.3219379"><ele>385.0</ele><time>2026-05-01T12:30:35.965Z</time></trkpt><trkpt lat="44.3446485" lon="8.3220606"><ele>385.0</ele><time>2026-05-01T12:30:36.965Z</time></trkpt><trkpt lat="44.3445399" lon="8.3221739"><ele>385.0</ele><time>2026-05-01T12:30:37.965Z</time></trkpt><trkpt lat="44.3444331" lon="8.3222699"><ele>384.0</ele><time>2026-05-01T12:30:38.965Z</time></trkpt><trkpt lat="44.3443282" lon="8.3223578"><ele>383.0</ele><time>2026-05-01T12:30:39.965Z</time></trkpt><trkpt lat="44.3442265" lon="8.3224479"><ele>382.0</ele><time>2026-05-01T12:30:40.965Z</time></trkpt><trkpt lat="44.3441292" lon="8.3225388"><ele>381.0</ele><time>2026-05-01T12:30:41.965Z</time></trkpt><trkpt lat="44.344034" lon="8.3226237"><ele>381.0</ele><time>2026-05-01T12:30:42.965Z</time></trkpt><trkpt lat="44.3439493" lon="8.3227117"><ele>381.0</ele><time>2026-05-01T12:30:43.965Z</time></trkpt><trkpt lat="44.3438648" lon="8.3228017"><ele>381.0</ele><time>2026-05-01T12:30:44.965Z</time></trkpt><trkpt lat="44.3437796" lon="8.3228834"><ele>381.0</ele><time>2026-05-01T12:30:45.965Z</time></trkpt><trkpt lat="44.3437057" lon="8.3229591"><ele>381.0</ele><time>2026-05-01T12:30:46.965Z</time></trkpt><trkpt lat="44.3436473" lon="8.3230241"><ele>380.8333333333333</ele><time>2026-05-01T12:30:47.966Z</time></trkpt><trkpt lat="44.3435843" lon="8.323085"><ele>380.6666666666667</ele><time>2026-05-01T12:30:48.966Z</time></trkpt><trkpt lat="44.3435209" lon="8.3231428"><ele>380.5</ele><time>2026-05-01T12:30:49.965Z</time></trkpt><trkpt lat="44.3434595" lon="8.3231994"><ele>380.33333333333337</ele><time>2026-05-01T12:30:50.966Z</time></trkpt><trkpt lat="44.3433957" lon="8.3232673"><ele>380.1666666666667</ele><time>2026-05-01T12:30:51.965Z</time></trkpt><trkpt lat="44.343326" lon="8.3233424"><ele>380.0</ele><time>2026-05-01T12:30:52.965Z</time></trkpt><trkpt lat="44.3432595" lon="8.3234094"><ele>380.0</ele><time>2026-05-01T12:30:53.966Z</time></trkpt><trkpt lat="44.3431961" lon="8.3234754"><ele>380.0</ele><time>2026-05-01T12:30:54.965Z</time></trkpt><trkpt lat="44.3431228" lon="8.3235487"><ele>380.0</ele><time>2026-05-01T12:30:55.965Z</time></trkpt><trkpt lat="44.3430415" lon="8.3236377"><ele>380.0</ele><time>2026-05-01T12:30:56.965Z</time></trkpt><trkpt lat="44.34295" lon="8.3237264"><ele>380.0</ele><time>2026-05-01T12:30:57.965Z</time></trkpt><trkpt lat="44.3428537" lon="8.323811"><ele>380.25</ele><time>2026-05-01T12:30:58.966Z</time></trkpt><trkpt lat="44.3427557" lon="8.3238978"><ele>380.5</ele><time>2026-05-01T12:30:59.965Z</time></trkpt><trkpt lat="44.3426526" lon="8.3239891"><ele>380.75</ele><time>2026-05-01T12:31:00.965Z</time></trkpt><trkpt lat="44.3425457" lon="8.3240893"><ele>381.0</ele><time>2026-05-01T12:31:01.965Z</time></trkpt><trkpt lat="44.3424355" lon="8.3241956"><ele>381.0</ele><time>2026-05-01T12:31:02.965Z</time></trkpt><trkpt lat="44.3423299" lon="8.3243049"><ele>381.0</ele><time>2026-05-01T12:31:03.965Z</time></trkpt><trkpt lat="44.3422275" lon="8.3244165"><ele>381.0</ele><time>2026-05-01T12:31:04.965Z</time></trkpt><trkpt lat="44.3421302" lon="8.3245451"><ele>381.0</ele><time>2026-05-01T12:31:05.965Z</time></trkpt><trkpt lat="44.3420308" lon="8.3246919"><ele>380.75</ele><time>2026-05-01T12:31:06.965Z</time></trkpt><trkpt lat="44.3419312" lon="8.3248526"><ele>380.5</ele><time>2026-05-01T12:31:07.965Z</time></trkpt><trkpt lat="44.3418454" lon="8.3250193"><ele>380.25</ele><time>2026-05-01T12:31:08.965Z</time></trkpt><trkpt lat="44.3417744" lon="8.3251872"><ele>380.0</ele><time>2026-05-01T12:31:09.965Z</time></trkpt><trkpt lat="44.3417159" lon="8.3253575"><ele>380.0</ele><time>2026-05-01T12:31:10.966Z</time></trkpt><trkpt lat="44.3416614" lon="8.3255359"><ele>380.0</ele><time>2026-05-01T12:31:11.965Z</time></trkpt><trkpt lat="44.341609" lon="8.3257201"><ele>380.0</ele><time>2026-05-01T12:31:12.965Z</time></trkpt><trkpt lat="44.341567" lon="8.3259138"><ele>380.0</ele><time>2026-05-01T12:31:13.966Z</time></trkpt><trkpt lat="44.3415363" lon="8.3261123"><ele>380.33333333333337</ele><time>2026-05-01T12:31:14.965Z</time></trkpt><trkpt lat="44.3415182" lon="8.3263142"><ele>380.6666666666667</ele><time>2026-05-01T12:31:15.965Z</time></trkpt><trkpt lat="44.3415098" lon="8.3265309"><ele>381.0</ele><time>2026-05-01T12:31:16.965Z</time></trkpt><trkpt lat="44.3415121" lon="8.3267521"><ele>382.66666666666663</ele><time>2026-05-01T12:31:17.966Z</time></trkpt><trkpt lat="44.3415182" lon="8.3269758"><ele>384.3333333333333</ele><time>2026-05-01T12:31:18.965Z</time></trkpt><trkpt lat="44.3415204" lon="8.3271863"><ele>386.0</ele><time>2026-05-01T12:31:19.965Z</time></trkpt><trkpt lat="44.3415185" lon="8.3274002"><ele>391.25</ele><time>2026-05-01T12:31:20.965Z</time></trkpt><trkpt lat="44.3415154" lon="8.3276075"><ele>396.5</ele><time>2026-05-01T12:31:21.966Z</time></trkpt><trkpt lat="44.3415132" lon="8.3278017"><ele>401.75</ele><time>2026-05-01T12:31:22.965Z</time></trkpt><trkpt lat="44.3415075" lon="8.3279583"><ele>407.0</ele><time>2026-05-01T12:31:23.966Z</time></trkpt><trkpt lat="44.3415023" lon="8.3281158"><ele>409.75</ele><time>2026-05-01T12:31:24.966Z</time></trkpt><trkpt lat="44.3414973" lon="8.3282839"><ele>412.5</ele><time>2026-05-01T12:31:25.965Z</time></trkpt><trkpt lat="44.3414935" lon="8.3284543"><ele>415.25</ele><time>2026-05-01T12:31:26.965Z</time></trkpt><trkpt lat="44.3414899" lon="8.3286243"><ele>418.0</ele><time>2026-05-01T12:31:27.965Z</time></trkpt><trkpt lat="44.3384033" lon="8.3508833"><ele>419.5</ele><time>2026-05-01T12:33:10.966Z</time></trkpt><trkpt lat="44.3383283" lon="8.3510603"><ele>421.0</ele><time>2026-05-01T12:33:11.966Z</time></trkpt><trkpt lat="44.3382396" lon="8.3512086"><ele>422.5</ele><time>2026-05-01T12:33:12.967Z</time></trkpt><trkpt lat="44.3381473" lon="8.3513528"><ele>424.0</ele><time>2026-05-01T12:33:13.966Z</time></trkpt><trkpt lat="44.3380442" lon="8.3514898"><ele>424.5</ele><time>2026-05-01T12:33:14.967Z</time></trkpt><trkpt lat="44.3379428" lon="8.3516237"><ele>425.0</ele><time>2026-05-01T12:33:15.967Z</time></trkpt><trkpt lat="44.3378384" lon="8.3517621"><ele>425.5</ele><time>2026-05-01T12:33:16.967Z</time></trkpt><trkpt lat="44.337729" lon="8.3519058"><ele>426.0</ele><time>2026-05-01T12:33:17.966Z</time></trkpt><trkpt lat="44.3376231" lon="8.3520451"><ele>426.0</ele><time>2026-05-01T12:33:18.966Z</time></trkpt><trkpt lat="44.3375082" lon="8.3521826"><ele>426.0</ele><time>2026-05-01T12:33:19.966Z</time></trkpt><trkpt lat="44.3374007" lon="8.352321"><ele>426.0</ele><time>2026-05-01T12:33:20.966Z</time></trkpt><trkpt lat="44.3373045" lon="8.352454"><ele>426.0</ele><time>2026-05-01T12:33:21.966Z</time></trkpt><trkpt lat="44.3372226" lon="8.3526036"><ele>423.0</ele><time>2026-05-01T12:33:22.966Z</time></trkpt><trkpt lat="44.3371354" lon="8.3527519"><ele>420.0</ele><time>2026-05-01T12:33:23.966Z</time></trkpt><trkpt lat="44.3370439" lon="8.3529084"><ele>417.0</ele><time>2026-05-01T12:33:24.966Z</time></trkpt><trkpt lat="44.3369489" lon="8.353067"><ele>414.0</ele><time>2026-05-01T12:33:25.966Z</time></trkpt><trkpt lat="44.3368614" lon="8.3532247"><ele>410.0</ele><time>2026-05-01T12:33:26.966Z</time></trkpt><trkpt lat="44.3367726" lon="8.3533873"><ele>406.0</ele><time>2026-05-01T12:33:27.967Z</time></trkpt><trkpt lat="44.3366844" lon="8.353556"><ele>402.0</ele><time>2026-05-01T12:33:28.967Z</time></trkpt><trkpt lat="44.3365917" lon="8.3537303"><ele>398.66666666666663</ele><time>2026-05-01T12:33:29.966Z</time></trkpt><trkpt lat="44.3365022" lon="8.3539098"><ele>395.3333333333333</ele><time>2026-05-01T12:33:30.966Z</time></trkpt><trkpt lat="44.3364113" lon="8.3540892"><ele>392.0</ele><time>2026-05-01T12:33:31.966Z</time></trkpt><trkpt lat="44.3363234" lon="8.3542719"><ele>387.66666666666663</ele><time>2026-05-01T12:33:32.967Z</time></trkpt><trkpt lat="44.3362373" lon="8.3544635"><ele>383.3333333333333</ele><time>2026-05-01T12:33:33.966Z</time></trkpt><trkpt lat="44.3361496" lon="8.3546648"><ele>379.0</ele><time>2026-05-01T12:33:34.966Z</time></trkpt><trkpt lat="44.3360689" lon="8.3548833"><ele>378.66666666666663</ele><time>2026-05-01T12:33:35.966Z</time></trkpt><trkpt lat="44.3359888" lon="8.3551093"><ele>378.3333333333333</ele><time>2026-05-01T12:33:36.967Z</time></trkpt><trkpt lat="44.3359087" lon="8.3553368"><ele>378.0</ele><time>2026-05-01T12:33:37.966Z</time></trkpt><trkpt lat="44.3358261" lon="8.3555752"><ele>378.0</ele><time>2026-05-01T12:33:38.966Z</time></trkpt><trkpt lat="44.3357435" lon="8.3558203"><ele>378.0</ele><time>2026-05-01T12:33:39.966Z</time></trkpt><trkpt lat="44.3356649" lon="8.3560717"><ele>378.0</ele><time>2026-05-01T12:33:40.967Z</time></trkpt><trkpt lat="44.3355884" lon="8.3563231"><ele>389.66666666666663</ele><time>2026-05-01T12:33:41.966Z</time></trkpt><trkpt lat="44.3355163" lon="8.3565721"><ele>401.3333333333333</ele><time>2026-05-01T12:33:42.966Z</time></trkpt><trkpt lat="44.3354502" lon="8.3568128"><ele>413.0</ele><time>2026-05-01T12:33:43.966Z</time></trkpt><trkpt lat="44.3353804" lon="8.3570509"><ele>409.66666666666663</ele><time>2026-05-01T12:33:44.967Z</time></trkpt><trkpt lat="44.3353057" lon="8.3572928"><ele>406.33333333333337</ele><time>2026-05-01T12:33:45.967Z</time></trkpt><trkpt lat="44.3352485" lon="8.3575334"><ele>403.0</ele><time>2026-05-01T12:33:46.966Z</time></trkpt><trkpt lat="44.3352043" lon="8.3577748"><ele>403.0</ele><time>2026-05-01T12:33:47.967Z</time></trkpt><trkpt lat="44.3351442" lon="8.3580097"><ele>403.0</ele><time>2026-05-01T12:33:48.967Z</time></trkpt><trkpt lat="44.3350929" lon="8.3582378"><ele>403.0</ele><time>2026-05-01T12:33:49.966Z</time></trkpt><trkpt lat="44.335027" lon="8.3584652"><ele>402.6666666666667</ele><time>2026-05-01T12:33:50.967Z</time></trkpt><trkpt lat="44.334963" lon="8.3586939"><ele>402.33333333333337</ele><time>2026-05-01T12:33:51.966Z</time></trkpt><trkpt lat="44.3348997" lon="8.3589279"><ele>402.0</ele><time>2026-05-01T12:33:52.966Z</time></trkpt><trkpt lat="44.3348355" lon="8.3591706"><ele>402.0</ele><time>2026-05-01T12:33:53.966Z</time></trkpt><trkpt lat="44.3347742" lon="8.3594062"><ele>402.0</ele><time>2026-05-01T12:33:54.967Z</time></trkpt><trkpt lat="44.3347177" lon="8.3596313"><ele>402.0</ele><time>2026-05-01T12:33:55.967Z</time></trkpt><trkpt lat="44.3346605" lon="8.3598533"><ele>396.0</ele><time>2026-05-01T12:33:56.966Z</time></trkpt><trkpt lat="44.3346085" lon="8.3600786"><ele>390.0</ele><time>2026-05-01T12:33:57.967Z</time></trkpt><trkpt lat="44.3345702" lon="8.3603101"><ele>384.0</ele><time>2026-05-01T12:33:58.966Z</time></trkpt><trkpt lat="44.3345528" lon="8.3605563"><ele>384.0</ele><time>2026-05-01T12:33:59.966Z</time></trkpt><trkpt lat="44.3345602" lon="8.3608023"><ele>384.0</ele><time>2026-05-01T12:34:00.966Z</time></trkpt><trkpt lat="44.3345942" lon="8.3610435"><ele>384.0</ele><time>2026-05-01T12:34:01.966Z</time></trkpt><trkpt lat="44.3346672" lon="8.3612605"><ele>389.66666666666663</ele><time>2026-05-01T12:34:02.967Z</time></trkpt><trkpt lat="44.3347545" lon="8.3614716"><ele>395.3333333333333</ele><time>2026-05-01T12:34:03.967Z</time></trkpt><trkpt lat="44.3348102" lon="8.3616811"><ele>401.0</ele><time>2026-05-01T12:34:04.967Z</time></trkpt><trkpt lat="44.334863" lon="8.3618889"><ele>401.0</ele><time>2026-05-01T12:34:05.966Z</time></trkpt><trkpt lat="44.3349203" lon="8.3620986"><ele>401.0</ele><time>2026-05-01T12:34:06.966Z</time></trkpt><trkpt lat="44.3349725" lon="8.362316"><ele>401.0</ele><time>2026-05-01T12:34:07.966Z</time></trkpt><trkpt lat="44.3350232" lon="8.3625284"><ele>395.0</ele><time>2026-05-01T12:34:08.967Z</time></trkpt><trkpt lat="44.3350736" lon="8.3627371"><ele>389.0</ele><time>2026-05-01T12:34:09.966Z</time></trkpt><trkpt lat="44.3351252" lon="8.3629554"><ele>383.0</ele><time>2026-05-01T12:34:10.967Z</time></trkpt><trkpt lat="44.3351745" lon="8.3631594"><ele>379.33333333333337</ele><time>2026-05-01T12:34:11.967Z</time></trkpt><trkpt lat="44.3352283" lon="8.3633727"><ele>375.6666666666667</ele><time>2026-05-01T12:34:12.966Z</time></trkpt><trkpt lat="44.3352723" lon="8.3635827"><ele>372.0</ele><time>2026-05-01T12:34:13.966Z</time></trkpt><trkpt lat="44.3352864" lon="8.3637956"><ele>370.0</ele><time>2026-05-01T12:34:14.966Z</time></trkpt><trkpt lat="44.3352641" lon="8.3640176"><ele>368.0</ele><time>2026-05-01T12:34:15.966Z</time></trkpt><trkpt lat="44.335213" lon="8.3642314"><ele>366.0</ele><time>2026-05-01T12:34:16.966Z</time></trkpt><trkpt lat="44.3351461" lon="8.3644336"><ele>366.0</ele><time>2026-05-01T12:34:17.967Z</time></trkpt><trkpt lat="44.3350841" lon="8.3646312"><ele>366.0</ele><time>2026-05-01T12:34:18.967Z</time></trkpt><trkpt lat="44.3350307" lon="8.3648193"><ele>366.0</ele><time>2026-05-01T12:34:19.966Z</time></trkpt><trkpt lat="44.3350025" lon="8.364996"><ele>366.0</ele><time>2026-05-01T12:34:20.966Z</time></trkpt><trkpt lat="44.3349981" lon="8.3651787"><ele>366.5</ele><time>2026-05-01T12:34:21.967Z</time></trkpt><trkpt lat="44.3350201" lon="8.3653659"><ele>367.0</ele><time>2026-05-01T12:34:22.967Z</time></trkpt><trkpt lat="44.3350654" lon="8.3655467"><ele>367.5</ele><time>2026-05-01T12:34:23.967Z</time></trkpt><trkpt lat="44.3351339" lon="8.365713"><ele>368.0</ele><time>2026-05-01T12:34:24.966Z</time></trkpt><trkpt lat="44.3352202" lon="8.3658637"><ele>368.0</ele><time>2026-05-01T12:34:25.966Z</time></trkpt><trkpt lat="44.3352952" lon="8.3660026"><ele>368.0</ele><time>2026-05-01T12:34:26.967Z</time></trkpt><trkpt lat="44.3353514" lon="8.3661511"><ele>368.0</ele><time>2026-05-01T12:34:27.966Z</time></trkpt><trkpt lat="44.3353812" lon="8.366321"><ele>368.0</ele><time>2026-05-01T12:34:28.966Z</time></trkpt><trkpt lat="44.3353823" lon="8.3665059"><ele>363.75</ele><time>2026-05-01T12:34:29.966Z</time></trkpt><trkpt lat="44.3353695" lon="8.3666907"><ele>359.5</ele><time>2026-05-01T12:34:30.966Z</time></trkpt><trkpt lat="44.3353626" lon="8.3668679"><ele>355.25</ele><time>2026-05-01T12:34:31.967Z</time></trkpt><trkpt lat="44.3353523" lon="8.3670532"><ele>351.0</ele><time>2026-05-01T12:34:32.966Z</time></trkpt><trkpt lat="44.3353378" lon="8.367247"><ele>349.75</ele><time>2026-05-01T12:34:33.966Z</time></trkpt><trkpt lat="44.3353342" lon="8.3674376"><ele>348.5</ele><time>2026-05-01T12:34:34.966Z</time></trkpt><trkpt lat="44.3353553" lon="8.3676384"><ele>347.25</ele><time>2026-05-01T12:34:35.966Z</time></trkpt><trkpt lat="44.3353987" lon="8.3678337"><ele>346.0</ele><time>2026-05-01T12:34:36.966Z</time></trkpt><trkpt lat="44.3354786" lon="8.3680065"><ele>349.25</ele><time>2026-05-01T12:34:37.967Z</time></trkpt><trkpt lat="44.3355692" lon="8.3681669"><ele>352.5</ele><time>2026-05-01T12:34:38.966Z</time></trkpt><trkpt lat="44.3356706" lon="8.3683248"><ele>355.75</ele><time>2026-05-01T12:34:39.967Z</time></trkpt><trkpt lat="44.3357844" lon="8.3684578"><ele>359.0</ele><time>2026-05-01T12:34:40.967Z</time></trkpt><trkpt lat="44.3359069" lon="8.3685593"><ele>359.0</ele><time>2026-05-01T12:34:41.966Z</time></trkpt><trkpt lat="44.3360264" lon="8.3686401"><ele>359.0</ele><time>2026-05-01T12:34:42.966Z</time></trkpt><trkpt lat="44.3361507" lon="8.368712"><ele>359.0</ele><time>2026-05-01T12:34:43.966Z</time></trkpt><trkpt lat="44.3362717" lon="8.3687668"><ele>359.0</ele><time>2026-05-01T12:34:44.967Z</time></trkpt><trkpt lat="44.3363803" lon="8.3688308"><ele>357.0</ele><time>2026-05-01T12:34:45.967Z</time></trkpt><trkpt lat="44.336476" lon="8.3689194"><ele>355.0</ele><time>2026-05-01T12:34:46.966Z</time></trkpt><trkpt lat="44.3365676" lon="8.3690224"><ele>353.0</ele><time>2026-05-01T12:34:47.967Z</time></trkpt><trkpt lat="44.3366446" lon="8.3691453"><ele>351.0</ele><time>2026-05-01T12:34:48.966Z</time></trkpt><trkpt lat="44.3367084" lon="8.3692775"><ele>351.0</ele><time>2026-05-01T12:34:49.966Z</time></trkpt><trkpt lat="44.3367562" lon="8.3694141"><ele>351.0</ele><time>2026-05-01T12:34:50.967Z</time></trkpt><trkpt lat="44.3367889" lon="8.3695833"><ele>351.0</ele><time>2026-05-01T12:34:51.967Z</time></trkpt><trkpt lat="44.3367931" lon="8.3697505"><ele>351.0</ele><time>2026-05-01T12:34:52.966Z</time></trkpt><trkpt lat="44.336781" lon="8.3699163"><ele>349.75</ele><time>2026-05-01T12:34:53.966Z</time></trkpt><trkpt lat="44.3367481" lon="8.3700821"><ele>348.5</ele><time>2026-05-01T12:34:54.966Z</time></trkpt><trkpt lat="44.3366979" lon="8.3702365"><ele>347.25</ele><time>2026-05-01T12:34:55.966Z</time></trkpt><trkpt lat="44.3366334" lon="8.3703777"><ele>346.0</ele><time>2026-05-01T12:34:56.966Z</time></trkpt><trkpt lat="44.3365558" lon="8.3705172"><ele>344.5</ele><time>2026-05-01T12:34:57.966Z</time></trkpt><trkpt lat="44.3364709" lon="8.3706594"><ele>343.0</ele><time>2026-05-01T12:34:58.967Z</time></trkpt><trkpt lat="44.3363767" lon="8.3708181"><ele>341.5</ele><time>2026-05-01T12:34:59.966Z</time></trkpt><trkpt lat="44.3362894" lon="8.3709921"><ele>340.0</ele><time>2026-05-01T12:35:00.966Z</time></trkpt><trkpt lat="44.3362136" lon="8.3711749"><ele>338.66666666666663</ele><time>2026-05-01T12:35:01.966Z</time></trkpt><trkpt lat="44.336146" lon="8.3713653"><ele>337.3333333333333</ele><time>2026-05-01T12:35:02.966Z</time></trkpt><trkpt lat="44.3360829" lon="8.3715634"><ele>336.0</ele><time>2026-05-01T12:35:03.966Z</time></trkpt><trkpt lat="44.3360299" lon="8.3717539"><ele>336.0</ele><time>2026-05-01T12:35:04.966Z</time></trkpt><trkpt lat="44.3359896" lon="8.3719385"><ele>336.0</ele><time>2026-05-01T12:35:05.966Z</time></trkpt><trkpt lat="44.3359539" lon="8.3721314"><ele>336.0</ele><time>2026-05-01T12:35:06.966Z</time></trkpt><trkpt lat="44.3359241" lon="8.3723245"><ele>336.0</ele><time>2026-05-01T12:35:07.966Z</time></trkpt><trkpt lat="44.3358981" lon="8.3725152"><ele>337.0</ele><time>2026-05-01T12:35:08.966Z</time></trkpt><trkpt lat="44.3358781" lon="8.3727052"><ele>338.0</ele><time>2026-05-01T12:35:09.966Z</time></trkpt><trkpt lat="44.3358691" lon="8.3728974"><ele>339.0</ele><time>2026-05-01T12:35:10.966Z</time></trkpt><trkpt lat="44.3358601" lon="8.3730794"><ele>340.0</ele><time>2026-05-01T12:35:11.966Z</time></trkpt><trkpt lat="44.3358559" lon="8.373245"><ele>341.25</ele><time>2026-05-01T12:35:12.966Z</time></trkpt><trkpt lat="44.335847" lon="8.3734098"><ele>342.5</ele><time>2026-05-01T12:35:13.966Z</time></trkpt><trkpt lat="44.3358379" lon="8.3735815"><ele>343.75</ele><time>2026-05-01T12:35:14.967Z</time></trkpt><trkpt lat="44.3358246" lon="8.3737486"><ele>345.0</ele><time>2026-05-01T12:35:15.966Z</time></trkpt><trkpt lat="44.3358007" lon="8.3738945"><ele>346.2</ele><time>2026-05-01T12:35:16.967Z</time></trkpt><trkpt lat="44.3357386" lon="8.3740114"><ele>347.4</ele><time>2026-05-01T12:35:17.966Z</time></trkpt><trkpt lat="44.3356598" lon="8.3741054"><ele>348.6</ele><time>2026-05-01T12:35:18.966Z</time></trkpt><trkpt lat="44.335572" lon="8.3741738"><ele>349.8</ele><time>2026-05-01T12:35:19.966Z</time></trkpt><trkpt lat="44.3354762" lon="8.3741996"><ele>351.0</ele><time>2026-05-01T12:35:20.967Z</time></trkpt><trkpt lat="44.3353612" lon="8.3741836"><ele>351.0</ele><time>2026-05-01T12:35:21.966Z</time></trkpt><trkpt lat="44.3352305" lon="8.3741767"><ele>351.0</ele><time>2026-05-01T12:35:22.967Z</time></trkpt><trkpt lat="44.3351159" lon="8.3742149"><ele>351.0</ele><time>2026-05-01T12:35:23.966Z</time></trkpt><trkpt lat="44.3350246" lon="8.3742994"><ele>351.0</ele><time>2026-05-01T12:35:24.966Z</time></trkpt><trkpt lat="44.3349602" lon="8.3744147"><ele>351.0</ele><time>2026-05-01T12:35:25.966Z</time></trkpt><trkpt lat="44.3349276" lon="8.374541"><ele>351.0</ele><time>2026-05-01T12:35:26.967Z</time></trkpt><trkpt lat="44.3349199" lon="8.374681"><ele>351.0</ele><time>2026-05-01T12:35:27.966Z</time></trkpt><trkpt lat="44.3349199" lon="8.3748237"><ele>351.0</ele><time>2026-05-01T12:35:28.966Z</time></trkpt><trkpt lat="44.3349251" lon="8.374967"><ele>351.0</ele><time>2026-05-01T12:35:29.966Z</time></trkpt><trkpt lat="44.3349323" lon="8.3751135"><ele>350.75</ele><time>2026-05-01T12:35:30.967Z</time></trkpt><trkpt lat="44.3349256" lon="8.3752578"><ele>350.5</ele><time>2026-05-01T12:35:31.966Z</time></trkpt><trkpt lat="44.3348991" lon="8.3754089"><ele>350.25</ele><time>2026-05-01T12:35:32.966Z</time></trkpt><trkpt lat="44.334866" lon="8.3755638"><ele>350.0</ele><time>2026-05-01T12:35:33.966Z</time></trkpt><trkpt lat="44.3348276" lon="8.375722"><ele>350.0</ele><time>2026-05-01T12:35:34.966Z</time></trkpt><trkpt lat="44.334791" lon="8.3758734"><ele>350.0</ele><time>2026-05-01T12:35:35.966Z</time></trkpt><trkpt lat="44.3347555" lon="8.3760257"><ele>350.0</ele><time>2026-05-01T12:35:36.966Z</time></trkpt><trkpt lat="44.3347203" lon="8.3761647"><ele>350.0</ele><time>2026-05-01T12:35:37.966Z</time></trkpt><trkpt lat="44.33468" lon="8.3762899"><ele>350.0</ele><time>2026-05-01T12:35:38.966Z</time></trkpt><trkpt lat="44.334638" lon="8.3764198"><ele>347.8</ele><time>2026-05-01T12:35:39.967Z</time></trkpt><trkpt lat="44.3345972" lon="8.3765624"><ele>345.6</ele><time>2026-05-01T12:35:40.966Z</time></trkpt><trkpt lat="44.3345647" lon="8.3767093"><ele>343.4</ele><time>2026-05-01T12:35:41.966Z</time></trkpt><trkpt lat="44.3345438" lon="8.3768686"><ele>341.2</ele><time>2026-05-01T12:35:42.966Z</time></trkpt><trkpt lat="44.3345371" lon="8.3770244"><ele>339.0</ele><time>2026-05-01T12:35:43.967Z</time></trkpt><trkpt lat="44.334538" lon="8.3771829"><ele>337.5</ele><time>2026-05-01T12:35:44.966Z</time></trkpt><trkpt lat="44.3345494" lon="8.377347"><ele>336.0</ele><time>2026-05-01T12:35:45.966Z</time></trkpt><trkpt lat="44.3345622" lon="8.3775156"><ele>334.5</ele><time>2026-05-01T12:35:46.967Z</time></trkpt><trkpt lat="44.3345757" lon="8.3776861"><ele>333.0</ele><time>2026-05-01T12:35:47.966Z</time></trkpt><trkpt lat="44.3345939" lon="8.3778457"><ele>333.0</ele><time>2026-05-01T12:35:48.967Z</time></trkpt><trkpt lat="44.3346202" lon="8.3780019"><ele>333.0</ele><time>2026-05-01T12:35:49.967Z</time></trkpt><trkpt lat="44.3346507" lon="8.3781456"><ele>333.0</ele><time>2026-05-01T12:35:50.966Z</time></trkpt><trkpt lat="44.3346639" lon="8.3782956"><ele>333.0</ele><time>2026-05-01T12:35:51.966Z</time></trkpt><trkpt lat="44.3346786" lon="8.3784537"><ele>333.0</ele><time>2026-05-01T12:35:52.966Z</time></trkpt><trkpt lat="44.3346771" lon="8.3786129"><ele>334.0</ele><time>2026-05-01T12:35:53.967Z</time></trkpt><trkpt lat="44.3346634" lon="8.3787711"><ele>335.0</ele><time>2026-05-01T12:35:54.966Z</time></trkpt><trkpt lat="44.3346284" lon="8.378929"><ele>336.0</ele><time>2026-05-01T12:35:55.966Z</time></trkpt><trkpt lat="44.3345696" lon="8.3790692"><ele>337.0</ele><time>2026-05-01T12:35:56.966Z</time></trkpt><trkpt lat="44.3345046" lon="8.3792073"><ele>337.0</ele><time>2026-05-01T12:35:57.967Z</time></trkpt><trkpt lat="44.3344335" lon="8.3793356"><ele>337.0</ele><time>2026-05-01T12:35:58.967Z</time></trkpt><trkpt lat="44.3343582" lon="8.3794442"><ele>337.0</ele><time>2026-05-01T12:35:59.966Z</time></trkpt><trkpt lat="44.3342731" lon="8.3795304"><ele>337.0</ele><time>2026-05-01T12:36:00.966Z</time></trkpt><trkpt lat="44.3341771" lon="8.379594"><ele>337.0</ele><time>2026-05-01T12:36:01.967Z</time></trkpt><trkpt lat="44.3340618" lon="8.3796555"><ele>335.20000000000005</ele><time>2026-05-01T12:36:02.967Z</time></trkpt><trkpt lat="44.3339606" lon="8.3797016"><ele>333.4</ele><time>2026-05-01T12:36:03.966Z</time></trkpt><trkpt lat="44.3338659" lon="8.379759"><ele>331.6</ele><time>2026-05-01T12:36:04.967Z</time></trkpt><trkpt lat="44.3337741" lon="8.3798304"><ele>329.79999999999995</ele><time>2026-05-01T12:36:05.966Z</time></trkpt><trkpt lat="44.3336965" lon="8.3799318"><ele>328.0</ele><time>2026-05-01T12:36:06.967Z</time></trkpt><trkpt lat="44.3336304" lon="8.3800518"><ele>328.0</ele><time>2026-05-01T12:36:07.966Z</time></trkpt><trkpt lat="44.3335718" lon="8.3801863"><ele>328.0</ele><time>2026-05-01T12:36:08.966Z</time></trkpt><trkpt lat="44.3335252" lon="8.3803235"><ele>328.0</ele><time>2026-05-01T12:36:09.967Z</time></trkpt><trkpt lat="44.3334812" lon="8.380462"><ele>328.0</ele><time>2026-05-01T12:36:10.965Z</time></trkpt><trkpt lat="44.3334371" lon="8.3806004"><ele>328.0</ele><time>2026-05-01T12:36:11.965Z</time></trkpt><trkpt lat="44.3333965" lon="8.3807402"><ele>330.59999999999997</ele><time>2026-05-01T12:36:12.965Z</time></trkpt><trkpt lat="44.3333541" lon="8.380871"><ele>333.2</ele><time>2026-05-01T12:36:13.965Z</time></trkpt><trkpt lat="44.3333131" lon="8.3810042"><ele>335.8</ele><time>2026-05-01T12:36:14.965Z</time></trkpt><trkpt lat="44.3332672" lon="8.3811345"><ele>338.4</ele><time>2026-05-01T12:36:15.966Z</time></trkpt><trkpt lat="44.3332137" lon="8.3812654"><ele>341.0</ele><time>2026-05-01T12:36:16.966Z</time></trkpt><trkpt lat="44.333158" lon="8.3813848"><ele>341.20000000000005</ele><time>2026-05-01T12:36:17.965Z</time></trkpt><trkpt lat="44.3330918" lon="8.3814912"><ele>341.40000000000003</ele><time>2026-05-01T12:36:18.966Z</time></trkpt><trkpt lat="44.3330187" lon="8.3815669"><ele>341.6</ele><time>2026-05-01T12:36:19.966Z</time></trkpt><trkpt lat="44.3329319" lon="8.3816126"><ele>341.8</ele><time>2026-05-01T12:36:20.965Z</time></trkpt><trkpt lat="44.3328454" lon="8.3816281"><ele>342.0</ele><time>2026-05-01T12:36:21.965Z</time></trkpt><trkpt lat="44.3327595" lon="8.3816277"><ele>342.0</ele><time>2026-05-01T12:36:22.966Z</time></trkpt><trkpt lat="44.3326732" lon="8.3816216"><ele>342.0</ele><time>2026-05-01T12:36:23.965Z</time></trkpt><trkpt lat="44.3325833" lon="8.3816104"><ele>342.0</ele><time>2026-05-01T12:36:24.965Z</time></trkpt><trkpt lat="44.3324888" lon="8.3816216"><ele>342.0</ele><time>2026-05-01T12:36:25.965Z</time></trkpt><trkpt lat="44.3323893" lon="8.3816548"><ele>342.0</ele><time>2026-05-01T12:36:26.965Z</time></trkpt><trkpt lat="44.3322842" lon="8.3817002"><ele>340.20000000000005</ele><time>2026-05-01T12:36:27.965Z</time></trkpt><trkpt lat="44.3322025" lon="8.3817591"><ele>338.4</ele><time>2026-05-01T12:36:28.965Z</time></trkpt><trkpt lat="44.3321374" lon="8.3818406"><ele>336.6</ele><time>2026-05-01T12:36:29.966Z</time></trkpt><trkpt lat="44.3320997" lon="8.3819546"><ele>334.79999999999995</ele><time>2026-05-01T12:36:30.966Z</time></trkpt><trkpt lat="44.3320898" lon="8.3820952"><ele>333.0</ele><time>2026-05-01T12:36:31.965Z</time></trkpt><trkpt lat="44.3321077" lon="8.3822345"><ele>330.4</ele><time>2026-05-01T12:36:32.965Z</time></trkpt><trkpt lat="44.3321266" lon="8.3823868"><ele>327.79999999999995</ele><time>2026-05-01T12:36:33.965Z</time></trkpt><trkpt lat="44.3321519" lon="8.3825371"><ele>325.2</ele><time>2026-05-01T12:36:34.966Z</time></trkpt><trkpt lat="44.3321634" lon="8.3826825"><ele>322.6</ele><time>2026-05-01T12:36:35.965Z</time></trkpt><trkpt lat="44.3321476" lon="8.3828118"><ele>320.0</ele><time>2026-05-01T12:36:36.966Z</time></trkpt><trkpt lat="44.3321214" lon="8.3829248"><ele>320.2</ele><time>2026-05-01T12:36:37.966Z</time></trkpt><trkpt lat="44.3320776" lon="8.3830404"><ele>320.4</ele><time>2026-05-01T12:36:38.965Z</time></trkpt><trkpt lat="44.3320403" lon="8.3831541"><ele>320.6</ele><time>2026-05-01T12:36:39.966Z</time></trkpt><trkpt lat="44.3320111" lon="8.3832623"><ele>320.8</ele><time>2026-05-01T12:36:40.965Z</time></trkpt><trkpt lat="44.3319808" lon="8.3833789"><ele>321.0</ele><time>2026-05-01T12:36:41.966Z</time></trkpt><trkpt lat="44.331967" lon="8.3835138"><ele>321.0</ele><time>2026-05-01T12:36:42.965Z</time></trkpt><trkpt lat="44.3319714" lon="8.3836541"><ele>321.0</ele><time>2026-05-01T12:36:43.965Z</time></trkpt><trkpt lat="44.3319789" lon="8.3837965"><ele>321.0</ele><time>2026-05-01T12:36:44.965Z</time></trkpt><trkpt lat="44.3319917" lon="8.3839306"><ele>321.0</ele><time>2026-05-01T12:36:45.966Z</time></trkpt><trkpt lat="44.3320053" lon="8.3840564"><ele>321.0</ele><time>2026-05-01T12:36:46.965Z</time></trkpt><trkpt lat="44.3320221" lon="8.38418"><ele>321.0</ele><time>2026-05-01T12:36:47.966Z</time></trkpt><trkpt lat="44.3320446" lon="8.3843044"><ele>321.0</ele><time>2026-05-01T12:36:48.965Z</time></trkpt><trkpt lat="44.3320715" lon="8.384429"><ele>321.0</ele><time>2026-05-01T12:36:49.966Z</time></trkpt><trkpt lat="44.3321101" lon="8.3845491"><ele>321.0</ele><time>2026-05-01T12:36:50.965Z</time></trkpt><trkpt lat="44.3321631" lon="8.3846755"><ele>321.0</ele><time>2026-05-01T12:36:51.966Z</time></trkpt><trkpt lat="44.3322262" lon="8.3848153"><ele>321.0</ele><time>2026-05-01T12:36:52.965Z</time></trkpt><trkpt lat="44.3322427" lon="8.3849761"><ele>321.0</ele><time>2026-05-01T12:36:53.966Z</time></trkpt><trkpt lat="44.332301" lon="8.3851377"><ele>321.0</ele><time>2026-05-01T12:36:54.965Z</time></trkpt><trkpt lat="44.3323663" lon="8.38532"><ele>321.0</ele><time>2026-05-01T12:36:55.966Z</time></trkpt><trkpt lat="44.3324166" lon="8.3855278"><ele>321.0</ele><time>2026-05-01T12:36:56.965Z</time></trkpt><trkpt lat="44.3324439" lon="8.3857518"><ele>321.0</ele><time>2026-05-01T12:36:57.965Z</time></trkpt><trkpt lat="44.3324445" lon="8.3859877"><ele>321.0</ele><time>2026-05-01T12:36:58.965Z</time></trkpt><trkpt lat="44.3324359" lon="8.3862425"><ele>320.0</ele><time>2026-05-01T12:36:59.966Z</time></trkpt><trkpt lat="44.3324252" lon="8.3865108"><ele>319.0</ele><time>2026-05-01T12:37:00.965Z</time></trkpt><trkpt lat="44.332409" lon="8.3867982"><ele>318.0</ele><time>2026-05-01T12:37:01.965Z</time></trkpt><trkpt lat="44.332382" lon="8.3870913"><ele>317.3333333333333</ele><time>2026-05-01T12:37:02.965Z</time></trkpt><trkpt lat="44.3323545" lon="8.3873878"><ele>316.66666666666663</ele><time>2026-05-01T12:37:03.965Z</time></trkpt><trkpt lat="44.332336" lon="8.3876662"><ele>316.0</ele><time>2026-05-01T12:37:04.965Z</time></trkpt><trkpt lat="44.3323113" lon="8.3879375"><ele>314.66666666666663</ele><time>2026-05-01T12:37:05.965Z</time></trkpt><trkpt lat="44.3322926" lon="8.3881948"><ele>313.3333333333333</ele><time>2026-05-01T12:37:06.965Z</time></trkpt><trkpt lat="44.3322726" lon="8.3884388"><ele>312.0</ele><time>2026-05-01T12:37:07.965Z</time></trkpt><trkpt lat="44.3322527" lon="8.3886802"><ele>309.6666666666667</ele><time>2026-05-01T12:37:08.965Z</time></trkpt><trkpt lat="44.3322281" lon="8.3889206"><ele>307.33333333333337</ele><time>2026-05-01T12:37:09.965Z</time></trkpt><trkpt lat="44.3321928" lon="8.3891732"><ele>305.0</ele><time>2026-05-01T12:37:10.965Z</time></trkpt><trkpt lat="44.332156" lon="8.38943"><ele>300.33333333333337</ele><time>2026-05-01T12:37:11.965Z</time></trkpt><trkpt lat="44.3321184" lon="8.3896915"><ele>295.6666666666667</ele><time>2026-05-01T12:37:12.965Z</time></trkpt><trkpt lat="44.332083" lon="8.3899505"><ele>291.0</ele><time>2026-05-01T12:37:13.966Z</time></trkpt><trkpt lat="44.3320507" lon="8.3902089"><ele>291.0</ele><time>2026-05-01T12:37:14.965Z</time></trkpt><trkpt lat="44.3320044" lon="8.3904713"><ele>291.0</ele><time>2026-05-01T12:37:15.965Z</time></trkpt><trkpt lat="44.3319534" lon="8.3907441"><ele>291.0</ele><time>2026-05-01T12:37:16.965Z</time></trkpt><trkpt lat="44.3319015" lon="8.3910206"><ele>289.6666666666667</ele><time>2026-05-01T12:37:17.966Z</time></trkpt><trkpt lat="44.3318455" lon="8.3913043"><ele>288.33333333333337</ele><time>2026-05-01T12:37:18.966Z</time></trkpt><trkpt lat="44.3317888" lon="8.3915918"><ele>287.0</ele><time>2026-05-01T12:37:19.966Z</time></trkpt><trkpt lat="44.3317226" lon="8.3918764"><ele>286.6666666666667</ele><time>2026-05-01T12:37:20.965Z</time></trkpt><trkpt lat="44.3316645" lon="8.3921568"><ele>286.3333333333333</ele><time>2026-05-01T12:37:21.965Z</time></trkpt><trkpt lat="44.3316109" lon="8.3924233"><ele>286.0</ele><time>2026-05-01T12:37:22.965Z</time></trkpt><trkpt lat="44.3315616" lon="8.3926721"><ele>284.66666666666663</ele><time>2026-05-01T12:37:23.966Z</time></trkpt><trkpt lat="44.3315195" lon="8.3929151"><ele>283.3333333333333</ele><time>2026-05-01T12:37:24.965Z</time></trkpt><trkpt lat="44.3314669" lon="8.3931633"><ele>282.0</ele><time>2026-05-01T12:37:25.966Z</time></trkpt><trkpt lat="44.3314175" lon="8.3934059"><ele>282.0</ele><time>2026-05-01T12:37:26.965Z</time></trkpt><trkpt lat="44.3313665" lon="8.3936456"><ele>282.0</ele><time>2026-05-01T12:37:27.966Z</time></trkpt><trkpt lat="44.3313138" lon="8.3938763"><ele>282.0</ele><time>2026-05-01T12:37:28.965Z</time></trkpt><trkpt lat="44.3312586" lon="8.3940993"><ele>282.0</ele><time>2026-05-01T12:37:29.965Z</time></trkpt><trkpt lat="44.3311911" lon="8.3943217"><ele>282.0</ele><time>2026-05-01T12:37:30.965Z</time></trkpt><trkpt lat="44.3311282" lon="8.3945338"><ele>282.0</ele><time>2026-05-01T12:37:31.966Z</time></trkpt><trkpt lat="44.3310474" lon="8.3947087"><ele>280.6666666666667</ele><time>2026-05-01T12:37:32.965Z</time></trkpt><trkpt lat="44.3309498" lon="8.3948835"><ele>279.33333333333337</ele><time>2026-05-01T12:37:33.965Z</time></trkpt><trkpt lat="44.3308407" lon="8.3950627"><ele>278.0</ele><time>2026-05-01T12:37:34.966Z</time></trkpt><trkpt lat="44.3307699" lon="8.3952371"><ele>278.0</ele><time>2026-05-01T12:37:35.965Z</time></trkpt><trkpt lat="44.3307299" lon="8.3954124"><ele>278.0</ele><time>2026-05-01T12:37:36.966Z</time></trkpt><trkpt lat="44.3307197" lon="8.3955973"><ele>278.0</ele><time>2026-05-01T12:37:37.965Z</time></trkpt><trkpt lat="44.3307333" lon="8.395794"><ele>278.0</ele><time>2026-05-01T12:37:38.965Z</time></trkpt><trkpt lat="44.3307816" lon="8.3959895"><ele>276.33333333333337</ele><time>2026-05-01T12:37:39.965Z</time></trkpt><trkpt lat="44.3308634" lon="8.3961602"><ele>274.6666666666667</ele><time>2026-05-01T12:37:40.965Z</time></trkpt><trkpt lat="44.3309743" lon="8.3963094"><ele>273.0</ele><time>2026-05-01T12:37:41.965Z</time></trkpt><trkpt lat="44.3311102" lon="8.3964357"><ele>272.6666666666667</ele><time>2026-05-01T12:37:42.965Z</time></trkpt><trkpt lat="44.3312546" lon="8.3965535"><ele>272.33333333333337</ele><time>2026-05-01T12:37:43.964Z</time></trkpt><trkpt lat="44.3313804" lon="8.3967141"><ele>272.0</ele><time>2026-05-01T12:37:44.965Z</time></trkpt><trkpt lat="44.3314846" lon="8.3968876"><ele>272.0</ele><time>2026-05-01T12:37:45.966Z</time></trkpt><trkpt lat="44.3315526" lon="8.3970757"><ele>272.0</ele><time>2026-05-01T12:37:46.965Z</time></trkpt><trkpt lat="44.3315709" lon="8.3973135"><ele>272.0</ele><time>2026-05-01T12:37:47.965Z</time></trkpt><trkpt lat="44.3315227" lon="8.3975538"><ele>270.0</ele><time>2026-05-01T12:37:48.965Z</time></trkpt><trkpt lat="44.3313429" lon="8.3977957"><ele>268.0</ele><time>2026-05-01T12:37:49.965Z</time></trkpt><trkpt lat="44.3312011" lon="8.3979775"><ele>266.0</ele><time>2026-05-01T12:37:50.966Z</time></trkpt><trkpt lat="44.3310675" lon="8.3981203"><ele>264.5</ele><time>2026-05-01T12:37:51.965Z</time></trkpt><trkpt lat="44.3309145" lon="8.3982633"><ele>263.0</ele><time>2026-05-01T12:37:52.965Z</time></trkpt><trkpt lat="44.33083" lon="8.3984205"><ele>261.5</ele><time>2026-05-01T12:37:53.965Z</time></trkpt><trkpt lat="44.3307758" lon="8.3985759"><ele>260.0</ele><time>2026-05-01T12:37:54.966Z</time></trkpt><trkpt lat="44.330751" lon="8.3987265"><ele>259.2</ele><time>2026-05-01T12:37:55.965Z</time></trkpt><trkpt lat="44.3307262" lon="8.398881"><ele>258.4</ele><time>2026-05-01T12:37:56.965Z</time></trkpt><trkpt lat="44.3307137" lon="8.3990344"><ele>257.6</ele><time>2026-05-01T12:37:57.966Z</time></trkpt><trkpt lat="44.3307098" lon="8.399186"><ele>256.8</ele><time>2026-05-01T12:37:58.965Z</time></trkpt><trkpt lat="44.3307138" lon="8.3993356"><ele>256.0</ele><time>2026-05-01T12:37:59.965Z</time></trkpt><trkpt lat="44.3307232" lon="8.3994899"><ele>256.0</ele><time>2026-05-01T12:38:00.966Z</time></trkpt><trkpt lat="44.3307408" lon="8.3996353"><ele>256.0</ele><time>2026-05-01T12:38:01.965Z</time></trkpt><trkpt lat="44.3307704" lon="8.3997783"><ele>256.0</ele><time>2026-05-01T12:38:02.965Z</time></trkpt><trkpt lat="44.3308024" lon="8.3999188"><ele>256.0</ele><time>2026-05-01T12:38:03.965Z</time></trkpt><trkpt lat="44.3308432" lon="8.4000541"><ele>256.0</ele><time>2026-05-01T12:38:04.965Z</time></trkpt><trkpt lat="44.3308891" lon="8.4001813"><ele>256.2</ele><time>2026-05-01T12:38:05.965Z</time></trkpt><trkpt lat="44.330949" lon="8.4002983"><ele>256.40000000000003</ele><time>2026-05-01T12:38:06.965Z</time></trkpt><trkpt lat="44.3310211" lon="8.400414"><ele>256.6</ele><time>2026-05-01T12:38:07.965Z</time></trkpt><trkpt lat="44.3310932" lon="8.4005349"><ele>256.8</ele><time>2026-05-01T12:38:08.965Z</time></trkpt><trkpt lat="44.3311704" lon="8.4006575"><ele>257.0</ele><time>2026-05-01T12:38:09.965Z</time></trkpt><trkpt lat="44.3312548" lon="8.4007776"><ele>257.0</ele><time>2026-05-01T12:38:10.965Z</time></trkpt><trkpt lat="44.3313446" lon="8.4009045"><ele>257.0</ele><time>2026-05-01T12:38:11.966Z</time></trkpt><trkpt lat="44.3314444" lon="8.4010456"><ele>257.0</ele><time>2026-05-01T12:38:12.966Z</time></trkpt><trkpt lat="44.3315382" lon="8.4011957"><ele>257.0</ele><time>2026-05-01T12:38:13.965Z</time></trkpt><trkpt lat="44.331635" lon="8.4013473"><ele>253.25</ele><time>2026-05-01T12:38:14.965Z</time></trkpt><trkpt lat="44.3317325" lon="8.4015051"><ele>249.5</ele><time>2026-05-01T12:38:15.965Z</time></trkpt><trkpt lat="44.331821" lon="8.4016695"><ele>245.75</ele><time>2026-05-01T12:38:16.966Z</time></trkpt><trkpt lat="44.3318948" lon="8.4018508"><ele>242.0</ele><time>2026-05-01T12:38:17.965Z</time></trkpt><trkpt lat="44.3319503" lon="8.4020572"><ele>241.33333333333334</ele><time>2026-05-01T12:38:18.966Z</time></trkpt><trkpt lat="44.3319726" lon="8.4022919"><ele>240.66666666666669</ele><time>2026-05-01T12:38:19.965Z</time></trkpt><trkpt lat="44.3319727" lon="8.4025296"><ele>240.0</ele><time>2026-05-01T12:38:20.965Z</time></trkpt><trkpt lat="44.3319511" lon="8.4027611"><ele>240.0</ele><time>2026-05-01T12:38:21.965Z</time></trkpt><trkpt lat="44.3318886" lon="8.4029855"><ele>240.0</ele><time>2026-05-01T12:38:22.965Z</time></trkpt><trkpt lat="44.3317893" lon="8.4031911"><ele>240.0</ele><time>2026-05-01T12:38:23.965Z</time></trkpt><trkpt lat="44.3316848" lon="8.4033828"><ele>239.0</ele><time>2026-05-01T12:38:24.965Z</time></trkpt><trkpt lat="44.3315799" lon="8.403554"><ele>238.0</ele><time>2026-05-01T12:38:25.966Z</time></trkpt><trkpt lat="44.331488" lon="8.4037295"><ele>237.0</ele><time>2026-05-01T12:38:26.966Z</time></trkpt><trkpt lat="44.331407" lon="8.4039068"><ele>237.66666666666669</ele><time>2026-05-01T12:38:27.965Z</time></trkpt><trkpt lat="44.3313322" lon="8.4040943"><ele>238.33333333333334</ele><time>2026-05-01T12:38:28.965Z</time></trkpt><trkpt lat="44.3312467" lon="8.4042815"><ele>239.0</ele><time>2026-05-01T12:38:29.966Z</time></trkpt><trkpt lat="44.3311612" lon="8.4044749"><ele>237.0</ele><time>2026-05-01T12:38:30.965Z</time></trkpt><trkpt lat="44.331072" lon="8.4046755"><ele>235.0</ele><time>2026-05-01T12:38:31.966Z</time></trkpt><trkpt lat="44.330984" lon="8.4048852"><ele>233.0</ele><time>2026-05-01T12:38:32.965Z</time></trkpt><trkpt lat="44.3308819" lon="8.4050947"><ele>233.0</ele><time>2026-05-01T12:38:33.965Z</time></trkpt><trkpt lat="44.330787" lon="8.4053026"><ele>233.0</ele><time>2026-05-01T12:38:34.965Z</time></trkpt><trkpt lat="44.3306905" lon="8.4055145"><ele>233.0</ele><time>2026-05-01T12:38:35.965Z</time></trkpt><trkpt lat="44.3305947" lon="8.4057228"><ele>234.66666666666669</ele><time>2026-05-01T12:38:36.965Z</time></trkpt><trkpt lat="44.3305029" lon="8.4059277"><ele>236.33333333333331</ele><time>2026-05-01T12:38:37.965Z</time></trkpt><trkpt lat="44.3304157" lon="8.4061264"><ele>238.0</ele><time>2026-05-01T12:38:38.965Z</time></trkpt><trkpt lat="44.3303283" lon="8.4063144"><ele>235.0</ele><time>2026-05-01T12:38:39.965Z</time></trkpt><trkpt lat="44.3302419" lon="8.4064846"><ele>232.0</ele><time>2026-05-01T12:38:40.965Z</time></trkpt><trkpt lat="44.330153" lon="8.4066266"><ele>229.0</ele><time>2026-05-01T12:38:41.965Z</time></trkpt><trkpt lat="44.3300844" lon="8.4067074"><ele>226.0</ele><time>2026-05-01T12:38:42.966Z</time></trkpt><trkpt lat="44.329996" lon="8.4067499"><ele>226.0</ele><time>2026-05-01T12:38:43.966Z</time></trkpt><trkpt lat="44.3298815" lon="8.4067502"><ele>226.00000000000003</ele><time>2026-05-01T12:38:44.965Z</time></trkpt><trkpt lat="44.3297674" lon="8.4067149"><ele>226.00000000000003</ele><time>2026-05-01T12:38:45.966Z</time></trkpt><trkpt lat="44.3296618" lon="8.4066674"><ele>226.0</ele><time>2026-05-01T12:38:46.966Z</time></trkpt><trkpt lat="44.3295614" lon="8.4066383"><ele>226.0</ele><time>2026-05-01T12:38:47.965Z</time></trkpt><trkpt lat="44.3294741" lon="8.406644"><ele>226.20000000000002</ele><time>2026-05-01T12:38:48.966Z</time></trkpt><trkpt lat="44.3293929" lon="8.4066935"><ele>226.40000000000003</ele><time>2026-05-01T12:38:49.966Z</time></trkpt><trkpt lat="44.3293327" lon="8.4067874"><ele>226.6</ele><time>2026-05-01T12:38:50.965Z</time></trkpt><trkpt lat="44.3292794" lon="8.4069337"><ele>226.8</ele><time>2026-05-01T12:38:51.966Z</time></trkpt><trkpt lat="44.3292535" lon="8.4071095"><ele>227.0</ele><time>2026-05-01T12:38:52.965Z</time></trkpt><trkpt lat="44.3292298" lon="8.4072828"><ele>227.0</ele><time>2026-05-01T12:38:53.965Z</time></trkpt><trkpt lat="44.3291883" lon="8.4074441"><ele>227.0</ele><time>2026-05-01T12:38:54.965Z</time></trkpt><trkpt lat="44.3291209" lon="8.4076045"><ele>227.0</ele><time>2026-05-01T12:38:55.966Z</time></trkpt><trkpt lat="44.3290346" lon="8.4077459"><ele>227.0</ele><time>2026-05-01T12:38:56.966Z</time></trkpt><trkpt lat="44.3289352" lon="8.4078474"><ele>228.5</ele><time>2026-05-01T12:38:57.965Z</time></trkpt><trkpt lat="44.3288322" lon="8.4079308"><ele>230.0</ele><time>2026-05-01T12:38:58.965Z</time></trkpt><trkpt lat="44.3287357" lon="8.4080191"><ele>231.5</ele><time>2026-05-01T12:38:59.965Z</time></trkpt><trkpt lat="44.3286482" lon="8.4081279"><ele>233.0</ele><time>2026-05-01T12:39:00.965Z</time></trkpt><trkpt lat="44.3285837" lon="8.4082587"><ele>229.0</ele><time>2026-05-01T12:39:01.966Z</time></trkpt><trkpt lat="44.328557" lon="8.4084117"><ele>225.0</ele><time>2026-05-01T12:39:02.965Z</time></trkpt><trkpt lat="44.3285722" lon="8.4085805"><ele>221.0</ele><time>2026-05-01T12:39:03.966Z</time></trkpt><trkpt lat="44.3285973" lon="8.4087991"><ele>217.0</ele><time>2026-05-01T12:39:04.966Z</time></trkpt><trkpt lat="44.3286568" lon="8.4090097"><ele>216.5</ele><time>2026-05-01T12:39:05.965Z</time></trkpt><trkpt lat="44.3286757" lon="8.4092019"><ele>216.0</ele><time>2026-05-01T12:39:06.965Z</time></trkpt><trkpt lat="44.3286435" lon="8.4093826"><ele>215.5</ele><time>2026-05-01T12:39:07.965Z</time></trkpt><trkpt lat="44.3285833" lon="8.4095439"><ele>215.0</ele><time>2026-05-01T12:39:08.965Z</time></trkpt><trkpt lat="44.3285216" lon="8.4096979"><ele>214.2</ele><time>2026-05-01T12:39:09.965Z</time></trkpt><trkpt lat="44.3284694" lon="8.409846"><ele>213.4</ele><time>2026-05-01T12:39:10.965Z</time></trkpt><trkpt lat="44.3284665" lon="8.4099871"><ele>212.60000000000002</ele><time>2026-05-01T12:39:11.965Z</time></trkpt><trkpt lat="44.328489" lon="8.4101233"><ele>211.8</ele><time>2026-05-01T12:39:12.965Z</time></trkpt><trkpt lat="44.3285479" lon="8.4102552"><ele>211.0</ele><time>2026-05-01T12:39:13.966Z</time></trkpt><trkpt lat="44.3286066" lon="8.410383"><ele>209.20000000000002</ele><time>2026-05-01T12:39:14.965Z</time></trkpt><trkpt lat="44.3286759" lon="8.4105109"><ele>207.4</ele><time>2026-05-01T12:39:15.966Z</time></trkpt><trkpt lat="44.3287461" lon="8.4106359"><ele>205.6</ele><time>2026-05-01T12:39:16.965Z</time></trkpt><trkpt lat="44.3288196" lon="8.4107567"><ele>203.8</ele><time>2026-05-01T12:39:17.966Z</time></trkpt><trkpt lat="44.3288828" lon="8.4108709"><ele>202.0</ele><time>2026-05-01T12:39:18.965Z</time></trkpt><trkpt lat="44.3289215" lon="8.4109824"><ele>202.0</ele><time>2026-05-01T12:39:19.965Z</time></trkpt><trkpt lat="44.3289417" lon="8.4111191"><ele>202.0</ele><time>2026-05-01T12:39:20.965Z</time></trkpt><trkpt lat="44.3289276" lon="8.4112557"><ele>202.0</ele><time>2026-05-01T12:39:21.965Z</time></trkpt><trkpt lat="44.3288687" lon="8.4113799"><ele>202.0</ele><time>2026-05-01T12:39:22.965Z</time></trkpt><trkpt lat="44.3287783" lon="8.4114796"><ele>202.0</ele><time>2026-05-01T12:39:23.966Z</time></trkpt><trkpt lat="44.3286664" lon="8.4115638"><ele>201.25</ele><time>2026-05-01T12:39:24.965Z</time></trkpt><trkpt lat="44.3285342" lon="8.411624"><ele>200.5</ele><time>2026-05-01T12:39:25.966Z</time></trkpt><trkpt lat="44.3283954" lon="8.4116877"><ele>199.75</ele><time>2026-05-01T12:39:26.966Z</time></trkpt><trkpt lat="44.328251" lon="8.4117709"><ele>199.0</ele><time>2026-05-01T12:39:27.965Z</time></trkpt><trkpt lat="44.3281092" lon="8.4118672"><ele>198.0</ele><time>2026-05-01T12:39:28.965Z</time></trkpt><trkpt lat="44.3279733" lon="8.4119694"><ele>197.0</ele><time>2026-05-01T12:39:29.965Z</time></trkpt><trkpt lat="44.3278515" lon="8.4120861"><ele>196.0</ele><time>2026-05-01T12:39:30.966Z</time></trkpt><trkpt lat="44.3277498" lon="8.4122134"><ele>195.0</ele><time>2026-05-01T12:39:31.965Z</time></trkpt><trkpt lat="44.3276498" lon="8.4123378"><ele>195.0</ele><time>2026-05-01T12:39:32.965Z</time></trkpt><trkpt lat="44.3275352" lon="8.4124649"><ele>195.0</ele><time>2026-05-01T12:39:33.966Z</time></trkpt><trkpt lat="44.3274171" lon="8.412565"><ele>195.0</ele><time>2026-05-01T12:39:34.966Z</time></trkpt><trkpt lat="44.3273001" lon="8.4126281"><ele>195.0</ele><time>2026-05-01T12:39:35.966Z</time></trkpt><trkpt lat="44.3271858" lon="8.4126801"><ele>193.8</ele><time>2026-05-01T12:39:36.966Z</time></trkpt><trkpt lat="44.3270874" lon="8.4127524"><ele>192.6</ele><time>2026-05-01T12:39:37.965Z</time></trkpt><trkpt lat="44.3270097" lon="8.4128513"><ele>191.39999999999998</ele><time>2026-05-01T12:39:38.966Z</time></trkpt><trkpt lat="44.3269634" lon="8.4129732"><ele>190.2</ele><time>2026-05-01T12:39:39.965Z</time></trkpt><trkpt lat="44.3269258" lon="8.4131092"><ele>189.0</ele><time>2026-05-01T12:39:40.965Z</time></trkpt><trkpt lat="44.3268739" lon="8.413251"><ele>189.0</ele><time>2026-05-01T12:39:41.965Z</time></trkpt><trkpt lat="44.3268089" lon="8.4133824"><ele>189.0</ele><time>2026-05-01T12:39:42.965Z</time></trkpt><trkpt lat="44.3267257" lon="8.4134979"><ele>189.0</ele><time>2026-05-01T12:39:43.965Z</time></trkpt><trkpt lat="44.3266215" lon="8.4135954"><ele>189.0</ele><time>2026-05-01T12:39:44.965Z</time></trkpt><trkpt lat="44.3265285" lon="8.4136901"><ele>189.0</ele><time>2026-05-01T12:39:45.966Z</time></trkpt><trkpt lat="44.3264451" lon="8.4137943"><ele>189.0</ele><time>2026-05-01T12:39:46.965Z</time></trkpt><trkpt lat="44.3263641" lon="8.413908"><ele>189.0</ele><time>2026-05-01T12:39:47.965Z</time></trkpt><trkpt lat="44.3263015" lon="8.4140397"><ele>189.0</ele><time>2026-05-01T12:39:48.965Z</time></trkpt><trkpt lat="44.3262642" lon="8.4141929"><ele>188.5</ele><time>2026-05-01T12:39:49.966Z</time></trkpt><trkpt lat="44.3262365" lon="8.4143635"><ele>188.0</ele><time>2026-05-01T12:39:50.965Z</time></trkpt><trkpt lat="44.3262067" lon="8.4145459"><ele>187.5</ele><time>2026-05-01T12:39:51.965Z</time></trkpt><trkpt lat="44.3261753" lon="8.4147421"><ele>187.0</ele><time>2026-05-01T12:39:52.965Z</time></trkpt><trkpt lat="44.3261382" lon="8.4149535"><ele>185.0</ele><time>2026-05-01T12:39:53.965Z</time></trkpt><trkpt lat="44.3261007" lon="8.415178"><ele>183.0</ele><time>2026-05-01T12:39:54.966Z</time></trkpt><trkpt lat="44.3260552" lon="8.4154038"><ele>181.0</ele><time>2026-05-01T12:39:55.966Z</time></trkpt><trkpt lat="44.3260211" lon="8.4156224"><ele>181.0</ele><time>2026-05-01T12:39:56.965Z</time></trkpt><trkpt lat="44.3259967" lon="8.4158483"><ele>181.0</ele><time>2026-05-01T12:39:57.965Z</time></trkpt><trkpt lat="44.3259726" lon="8.4160763"><ele>181.0</ele><time>2026-05-01T12:39:58.966Z</time></trkpt><trkpt lat="44.3259467" lon="8.4163118"><ele>182.66666666666669</ele><time>2026-05-01T12:39:59.965Z</time></trkpt><trkpt lat="44.3258984" lon="8.4165335"><ele>184.33333333333334</ele><time>2026-05-01T12:40:00.965Z</time></trkpt><trkpt lat="44.3258587" lon="8.4167418"><ele>186.0</ele><time>2026-05-01T12:40:01.966Z</time></trkpt><trkpt lat="44.3258174" lon="8.4169271"><ele>186.0</ele><time>2026-05-01T12:40:02.966Z</time></trkpt><trkpt lat="44.3257672" lon="8.4170992"><ele>186.0</ele><time>2026-05-01T12:40:03.965Z</time></trkpt><trkpt lat="44.3256928" lon="8.417243"><ele>186.0</ele><time>2026-05-01T12:40:04.966Z</time></trkpt><trkpt lat="44.3255947" lon="8.4173489"><ele>186.0</ele><time>2026-05-01T12:40:05.965Z</time></trkpt><trkpt lat="44.3254836" lon="8.4174255"><ele>184.0</ele><time>2026-05-01T12:40:06.965Z</time></trkpt><trkpt lat="44.3253794" lon="8.4174728"><ele>182.0</ele><time>2026-05-01T12:40:07.965Z</time></trkpt><trkpt lat="44.3252835" lon="8.4175199"><ele>180.0</ele><time>2026-05-01T12:40:08.965Z</time></trkpt><trkpt lat="44.3252062" lon="8.4175982"><ele>178.0</ele><time>2026-05-01T12:40:09.965Z</time></trkpt><trkpt lat="44.32515" lon="8.4177153"><ele>176.0</ele><time>2026-05-01T12:40:10.965Z</time></trkpt><trkpt lat="44.3251177" lon="8.417864"><ele>175.25</ele><time>2026-05-01T12:40:11.965Z</time></trkpt><trkpt lat="44.325116" lon="8.4180381"><ele>174.5</ele><time>2026-05-01T12:40:12.965Z</time></trkpt><trkpt lat="44.3251443" lon="8.4182163"><ele>173.75</ele><time>2026-05-01T12:40:13.965Z</time></trkpt><trkpt lat="44.3251872" lon="8.418409"><ele>173.0</ele><time>2026-05-01T12:40:14.966Z</time></trkpt><trkpt lat="44.3252415" lon="8.4185909"><ele>173.0</ele><time>2026-05-01T12:40:15.965Z</time></trkpt><trkpt lat="44.3253" lon="8.4187583"><ele>173.0</ele><time>2026-05-01T12:40:16.965Z</time></trkpt><trkpt lat="44.3253766" lon="8.418921"><ele>173.0</ele><time>2026-05-01T12:40:17.965Z</time></trkpt><trkpt lat="44.3254359" lon="8.4190645"><ele>173.0</ele><time>2026-05-01T12:40:18.965Z</time></trkpt><trkpt lat="44.3255037" lon="8.4192286"><ele>171.25</ele><time>2026-05-01T12:40:19.966Z</time></trkpt><trkpt lat="44.3255502" lon="8.4194129"><ele>169.5</ele><time>2026-05-01T12:40:20.966Z</time></trkpt><trkpt lat="44.3255819" lon="8.4196028"><ele>167.75</ele><time>2026-05-01T12:40:21.966Z</time></trkpt><trkpt lat="44.3256028" lon="8.4198071"><ele>166.0</ele><time>2026-05-01T12:40:22.965Z</time></trkpt><trkpt lat="44.3256187" lon="8.4199965"><ele>167.0</ele><time>2026-05-01T12:40:23.965Z</time></trkpt><trkpt lat="44.3256264" lon="8.4201851"><ele>168.0</ele><time>2026-05-01T12:40:24.965Z</time></trkpt><trkpt lat="44.3256252" lon="8.4203778"><ele>169.0</ele><time>2026-05-01T12:40:25.965Z</time></trkpt><trkpt lat="44.3256033" lon="8.4205742"><ele>170.0</ele><time>2026-05-01T12:40:26.965Z</time></trkpt><trkpt lat="44.3255563" lon="8.4207756"><ele>170.0</ele><time>2026-05-01T12:40:27.965Z</time></trkpt><trkpt lat="44.3255021" lon="8.4209763"><ele>170.0</ele><time>2026-05-01T12:40:28.966Z</time></trkpt><trkpt lat="44.3254559" lon="8.4211817"><ele>170.0</ele><time>2026-05-01T12:40:29.966Z</time></trkpt><trkpt lat="44.3254072" lon="8.4213837"><ele>168.33333333333331</ele><time>2026-05-01T12:40:30.966Z</time></trkpt><trkpt lat="44.3253442" lon="8.42161"><ele>166.66666666666666</ele><time>2026-05-01T12:40:31.966Z</time></trkpt><trkpt lat="44.3252806" lon="8.4218695"><ele>165.0</ele><time>2026-05-01T12:40:32.965Z</time></trkpt><trkpt lat="44.3251906" lon="8.4221405"><ele>164.0</ele><time>2026-05-01T12:40:33.966Z</time></trkpt><trkpt lat="44.3250996" lon="8.4223863"><ele>163.0</ele><time>2026-05-01T12:40:34.965Z</time></trkpt><trkpt lat="44.325005" lon="8.4226024"><ele>162.0</ele><time>2026-05-01T12:40:35.965Z</time></trkpt><trkpt lat="44.324906" lon="8.4227956"><ele>163.33333333333334</ele><time>2026-05-01T12:40:36.965Z</time></trkpt><trkpt lat="44.3248231" lon="8.4229871"><ele>164.66666666666669</ele><time>2026-05-01T12:40:37.966Z</time></trkpt><trkpt lat="44.3247462" lon="8.4231776"><ele>166.0</ele><time>2026-05-01T12:40:38.965Z</time></trkpt><trkpt lat="44.3246606" lon="8.4233765"><ele>166.0</ele><time>2026-05-01T12:40:39.966Z</time></trkpt><trkpt lat="44.3245859" lon="8.4235854"><ele>166.0</ele><time>2026-05-01T12:40:40.965Z</time></trkpt><trkpt lat="44.3245191" lon="8.423808"><ele>166.0</ele><time>2026-05-01T12:40:41.965Z</time></trkpt><trkpt lat="44.3244778" lon="8.4240437"><ele>163.66666666666669</ele><time>2026-05-01T12:40:42.965Z</time></trkpt><trkpt lat="44.3244479" lon="8.4242894"><ele>161.33333333333334</ele><time>2026-05-01T12:40:43.965Z</time></trkpt><trkpt lat="44.3244324" lon="8.4245367"><ele>159.0</ele><time>2026-05-01T12:40:44.965Z</time></trkpt><trkpt lat="44.3244201" lon="8.4247579"><ele>159.0</ele><time>2026-05-01T12:40:45.965Z</time></trkpt><trkpt lat="44.3244087" lon="8.424974"><ele>159.0</ele><time>2026-05-01T12:40:46.965Z</time></trkpt><trkpt lat="44.3243913" lon="8.4251893"><ele>159.0</ele><time>2026-05-01T12:40:47.966Z</time></trkpt><trkpt lat="44.3243691" lon="8.425403"><ele>158.66666666666666</ele><time>2026-05-01T12:40:48.965Z</time></trkpt><trkpt lat="44.3243416" lon="8.425604"><ele>158.33333333333331</ele><time>2026-05-01T12:40:49.965Z</time></trkpt><trkpt lat="44.3242733" lon="8.4257913"><ele>158.0</ele><time>2026-05-01T12:40:50.965Z</time></trkpt><trkpt lat="44.3241933" lon="8.4259813"><ele>158.0</ele><time>2026-05-01T12:40:51.965Z</time></trkpt><trkpt lat="44.3240877" lon="8.4261579"><ele>158.0</ele><time>2026-05-01T12:40:52.965Z</time></trkpt><trkpt lat="44.3239692" lon="8.4263065"><ele>158.0</ele><time>2026-05-01T12:40:53.965Z</time></trkpt><trkpt lat="44.3238546" lon="8.4264466"><ele>158.0</ele><time>2026-05-01T12:40:54.966Z</time></trkpt><trkpt lat="44.3237592" lon="8.4265913"><ele>158.0</ele><time>2026-05-01T12:40:55.965Z</time></trkpt><trkpt lat="44.3236618" lon="8.4267422"><ele>158.0</ele><time>2026-05-01T12:40:56.965Z</time></trkpt><trkpt lat="44.323571" lon="8.4268754"><ele>158.0</ele><time>2026-05-01T12:40:57.966Z</time></trkpt><trkpt lat="44.3234745" lon="8.4270068"><ele>157.0</ele><time>2026-05-01T12:40:58.966Z</time></trkpt><trkpt lat="44.3233904" lon="8.4271443"><ele>156.0</ele><time>2026-05-01T12:40:59.965Z</time></trkpt><trkpt lat="44.3233431" lon="8.4272969"><ele>155.0</ele><time>2026-05-01T12:41:00.966Z</time></trkpt><trkpt lat="44.3233304" lon="8.4274741"><ele>154.0</ele><time>2026-05-01T12:41:01.965Z</time></trkpt><trkpt lat="44.323351" lon="8.4276698"><ele>154.0</ele><time>2026-05-01T12:41:02.965Z</time></trkpt><trkpt lat="44.3233887" lon="8.427883"><ele>154.0</ele><time>2026-05-01T12:41:03.965Z</time></trkpt><trkpt lat="44.3234299" lon="8.4280953"><ele>154.0</ele><time>2026-05-01T12:41:04.965Z</time></trkpt><trkpt lat="44.3234845" lon="8.4283067"><ele>153.66666666666669</ele><time>2026-05-01T12:41:05.965Z</time></trkpt><trkpt lat="44.3235892" lon="8.4284923"><ele>153.33333333333334</ele><time>2026-05-01T12:41:06.966Z</time></trkpt><trkpt lat="44.3236956" lon="8.4286803"><ele>153.0</ele><time>2026-05-01T12:41:07.965Z</time></trkpt><trkpt lat="44.3238077" lon="8.4288372"><ele>151.0</ele><time>2026-05-01T12:41:08.965Z</time></trkpt><trkpt lat="44.3239098" lon="8.4289797"><ele>149.0</ele><time>2026-05-01T12:41:09.965Z</time></trkpt><trkpt lat="44.3240025" lon="8.4291218"><ele>147.0</ele><time>2026-05-01T12:41:10.965Z</time></trkpt><trkpt lat="44.3240973" lon="8.4292575"><ele>145.0</ele><time>2026-05-01T12:41:11.965Z</time></trkpt><trkpt lat="44.3241895" lon="8.4293954"><ele>145.0</ele><time>2026-05-01T12:41:12.965Z</time></trkpt><trkpt lat="44.3242938" lon="8.4294977"><ele>145.0</ele><time>2026-05-01T12:41:13.965Z</time></trkpt><trkpt lat="44.3244221" lon="8.429585"><ele>145.0</ele><time>2026-05-01T12:41:14.966Z</time></trkpt><trkpt lat="44.3245746" lon="8.4296627"><ele>145.0</ele><time>2026-05-01T12:41:15.966Z</time></trkpt><trkpt lat="44.3247364" lon="8.4297337"><ele>144.33333333333334</ele><time>2026-05-01T12:41:16.965Z</time></trkpt><trkpt lat="44.3249001" lon="8.4298071"><ele>143.66666666666666</ele><time>2026-05-01T12:41:17.965Z</time></trkpt><trkpt lat="44.3250603" lon="8.4298935"><ele>143.0</ele><time>2026-05-01T12:41:18.965Z</time></trkpt><trkpt lat="44.3251992" lon="8.4300143"><ele>143.0</ele><time>2026-05-01T12:41:19.966Z</time></trkpt><trkpt lat="44.325313" lon="8.4301717"><ele>143.0</ele><time>2026-05-01T12:41:20.965Z</time></trkpt><trkpt lat="44.3254078" lon="8.4303527"><ele>143.0</ele><time>2026-05-01T12:41:21.965Z</time></trkpt><trkpt lat="44.325462" lon="8.4305551"><ele>143.0</ele><time>2026-05-01T12:41:22.965Z</time></trkpt><trkpt lat="44.3254938" lon="8.4307686"><ele>143.0</ele><time>2026-05-01T12:41:23.966Z</time></trkpt><trkpt lat="44.3254824" lon="8.4309756"><ele>143.0</ele><time>2026-05-01T12:41:24.965Z</time></trkpt><trkpt lat="44.3254393" lon="8.4311712"><ele>143.25</ele><time>2026-05-01T12:41:25.965Z</time></trkpt><trkpt lat="44.3253948" lon="8.4313579"><ele>143.5</ele><time>2026-05-01T12:41:26.965Z</time></trkpt><trkpt lat="44.3253543" lon="8.4315271"><ele>143.75</ele><time>2026-05-01T12:41:27.965Z</time></trkpt><trkpt lat="44.3253219" lon="8.4316893"><ele>144.0</ele><time>2026-05-01T12:41:28.965Z</time></trkpt><trkpt lat="44.3252753" lon="8.4318631"><ele>144.0</ele><time>2026-05-01T12:41:29.966Z</time></trkpt><trkpt lat="44.3252202" lon="8.4320311"><ele>144.0</ele><time>2026-05-01T12:41:30.966Z</time></trkpt><trkpt lat="44.3251524" lon="8.4322213"><ele>144.0</ele><time>2026-05-01T12:41:31.965Z</time></trkpt><trkpt lat="44.3250758" lon="8.4323907"><ele>144.0</ele><time>2026-05-01T12:41:32.965Z</time></trkpt><trkpt lat="44.3249919" lon="8.4325433"><ele>144.5</ele><time>2026-05-01T12:41:33.965Z</time></trkpt><trkpt lat="44.3249011" lon="8.4326818"><ele>145.0</ele><time>2026-05-01T12:41:34.965Z</time></trkpt><trkpt lat="44.3247943" lon="8.4328219"><ele>145.5</ele><time>2026-05-01T12:41:35.965Z</time></trkpt><trkpt lat="44.3247005" lon="8.4329521"><ele>146.0</ele><time>2026-05-01T12:41:36.965Z</time></trkpt><trkpt lat="44.3246104" lon="8.4330733"><ele>146.0</ele><time>2026-05-01T12:41:37.965Z</time></trkpt><trkpt lat="44.3245207" lon="8.4331999"><ele>146.0</ele><time>2026-05-01T12:41:38.965Z</time></trkpt><trkpt lat="44.3244583" lon="8.4333321"><ele>146.0</ele><time>2026-05-01T12:41:39.965Z</time></trkpt><trkpt lat="44.3244249" lon="8.4334794"><ele>146.0</ele><time>2026-05-01T12:41:40.965Z</time></trkpt><trkpt lat="44.3244109" lon="8.4336371"><ele>146.0</ele><time>2026-05-01T12:41:41.966Z</time></trkpt><trkpt lat="44.3244295" lon="8.4338005"><ele>146.0</ele><time>2026-05-01T12:41:42.965Z</time></trkpt><trkpt lat="44.3244696" lon="8.4339627"><ele>146.0</ele><time>2026-05-01T12:41:43.965Z</time></trkpt><trkpt lat="44.3245374" lon="8.43411"><ele>146.0</ele><time>2026-05-01T12:41:44.965Z</time></trkpt><trkpt lat="44.3246121" lon="8.4342305"><ele>146.25</ele><time>2026-05-01T12:41:45.965Z</time></trkpt><trkpt lat="44.324693" lon="8.4343382"><ele>146.5</ele><time>2026-05-01T12:41:46.965Z</time></trkpt><trkpt lat="44.3247793" lon="8.4344396"><ele>146.75</ele><time>2026-05-01T12:41:47.965Z</time></trkpt><trkpt lat="44.3248649" lon="8.4345461"><ele>147.0</ele><time>2026-05-01T12:41:48.966Z</time></trkpt><trkpt lat="44.32495" lon="8.4346577"><ele>144.75</ele><time>2026-05-01T12:41:49.966Z</time></trkpt><trkpt lat="44.3250343" lon="8.4347748"><ele>142.5</ele><time>2026-05-01T12:41:50.965Z</time></trkpt><trkpt lat="44.3251125" lon="8.4349024"><ele>140.25</ele><time>2026-05-01T12:41:51.966Z</time></trkpt><trkpt lat="44.325188" lon="8.4350493"><ele>138.0</ele><time>2026-05-01T12:41:52.966Z</time></trkpt><trkpt lat="44.3252433" lon="8.4352104"><ele>138.0</ele><time>2026-05-01T12:41:53.965Z</time></trkpt><trkpt lat="44.3252637" lon="8.4353771"><ele>138.0</ele><time>2026-05-01T12:41:54.966Z</time></trkpt><trkpt lat="44.3252512" lon="8.4355494"><ele>138.0</ele><time>2026-05-01T12:41:55.966Z</time></trkpt><trkpt lat="44.3251976" lon="8.4357182"><ele>138.0</ele><time>2026-05-01T12:41:56.966Z</time></trkpt><trkpt lat="44.3251297" lon="8.4358755"><ele>137.20000000000002</ele><time>2026-05-01T12:41:57.965Z</time></trkpt><trkpt lat="44.3250671" lon="8.436021"><ele>136.4</ele><time>2026-05-01T12:41:58.966Z</time></trkpt><trkpt lat="44.325009" lon="8.4361615"><ele>135.60000000000002</ele><time>2026-05-01T12:41:59.965Z</time></trkpt><trkpt lat="44.3249537" lon="8.4362906"><ele>134.8</ele><time>2026-05-01T12:42:00.965Z</time></trkpt><trkpt lat="44.3249158" lon="8.4364184"><ele>134.0</ele><time>2026-05-01T12:42:01.965Z</time></trkpt><trkpt lat="44.3249065" lon="8.4365552"><ele>134.0</ele><time>2026-05-01T12:42:02.966Z</time></trkpt><trkpt lat="44.3249213" lon="8.4366884"><ele>134.0</ele><time>2026-05-01T12:42:03.965Z</time></trkpt><trkpt lat="44.324956" lon="8.4368202"><ele>134.0</ele><time>2026-05-01T12:42:04.965Z</time></trkpt><trkpt lat="44.3250155" lon="8.4369478"><ele>134.0</ele><time>2026-05-01T12:42:05.966Z</time></trkpt><trkpt lat="44.3250932" lon="8.437065"><ele>134.0</ele><time>2026-05-01T12:42:06.966Z</time></trkpt><trkpt lat="44.3251976" lon="8.4371809"><ele>135.5</ele><time>2026-05-01T12:42:07.965Z</time></trkpt><trkpt lat="44.3253132" lon="8.4372987"><ele>137.0</ele><time>2026-05-01T12:42:08.965Z</time></trkpt><trkpt lat="44.3254177" lon="8.4374415"><ele>138.5</ele><time>2026-05-01T12:42:09.965Z</time></trkpt><trkpt lat="44.3254833" lon="8.4375988"><ele>140.0</ele><time>2026-05-01T12:42:10.965Z</time></trkpt><trkpt lat="44.3255294" lon="8.4377602"><ele>140.0</ele><time>2026-05-01T12:42:11.965Z</time></trkpt><trkpt lat="44.3255748" lon="8.437923"><ele>140.0</ele><time>2026-05-01T12:42:12.965Z</time></trkpt><trkpt lat="44.3256233" lon="8.4380973"><ele>140.0</ele><time>2026-05-01T12:42:13.966Z</time></trkpt><trkpt lat="44.3256717" lon="8.4382817"><ele>140.0</ele><time>2026-05-01T12:42:14.966Z</time></trkpt><trkpt lat="44.3257434" lon="8.4384889"><ele>140.0</ele><time>2026-05-01T12:42:15.965Z</time></trkpt><trkpt lat="44.3257964" lon="8.4387224"><ele>140.0</ele><time>2026-05-01T12:42:16.965Z</time></trkpt><trkpt lat="44.3258536" lon="8.438958"><ele>140.0</ele><time>2026-05-01T12:42:17.966Z</time></trkpt><trkpt lat="44.3259052" lon="8.4391777"><ele>139.5</ele><time>2026-05-01T12:42:18.965Z</time></trkpt><trkpt lat="44.3259463" lon="8.4393919"><ele>139.0</ele><time>2026-05-01T12:42:19.965Z</time></trkpt><trkpt lat="44.3259842" lon="8.4395809"><ele>138.5</ele><time>2026-05-01T12:42:20.965Z</time></trkpt><trkpt lat="44.3260304" lon="8.4397671"><ele>138.0</ele><time>2026-05-01T12:42:21.966Z</time></trkpt><trkpt lat="44.3260892" lon="8.4399635"><ele>137.33333333333334</ele><time>2026-05-01T12:42:22.965Z</time></trkpt><trkpt lat="44.3261405" lon="8.440191"><ele>136.66666666666669</ele><time>2026-05-01T12:42:23.965Z</time></trkpt><trkpt lat="44.3261989" lon="8.4404168"><ele>136.0</ele><time>2026-05-01T12:42:24.965Z</time></trkpt><trkpt lat="44.326267" lon="8.4406311"><ele>137.66666666666669</ele><time>2026-05-01T12:42:25.965Z</time></trkpt><trkpt lat="44.3263423" lon="8.440828"><ele>139.33333333333334</ele><time>2026-05-01T12:42:26.965Z</time></trkpt><trkpt lat="44.326404" lon="8.4410215"><ele>141.0</ele><time>2026-05-01T12:42:27.965Z</time></trkpt><trkpt lat="44.3264602" lon="8.4411994"><ele>137.0</ele><time>2026-05-01T12:42:28.965Z</time></trkpt><trkpt lat="44.3265207" lon="8.4413613"><ele>133.0</ele><time>2026-05-01T12:42:29.965Z</time></trkpt><trkpt lat="44.326589" lon="8.4415126"><ele>129.0</ele><time>2026-05-01T12:42:30.965Z</time></trkpt><trkpt lat="44.3266254" lon="8.4416756"><ele>125.0</ele><time>2026-05-01T12:42:31.965Z</time></trkpt><trkpt lat="44.3266686" lon="8.4418601"><ele>125.0</ele><time>2026-05-01T12:42:32.965Z</time></trkpt><trkpt lat="44.3266971" lon="8.4420414"><ele>125.0</ele><time>2026-05-01T12:42:33.966Z</time></trkpt><trkpt lat="44.3266982" lon="8.4422019"><ele>125.0</ele><time>2026-05-01T12:42:34.965Z</time></trkpt><trkpt lat="44.3266553" lon="8.4423688"><ele>125.0</ele><time>2026-05-01T12:42:35.965Z</time></trkpt><trkpt lat="44.3266142" lon="8.4425156"><ele>124.99999999999999</ele><time>2026-05-01T12:42:36.965Z</time></trkpt><trkpt lat="44.3265793" lon="8.4426438"><ele>125.0</ele><time>2026-05-01T12:42:37.966Z</time></trkpt><trkpt lat="44.3265477" lon="8.4427626"><ele>125.0</ele><time>2026-05-01T12:42:38.965Z</time></trkpt><trkpt lat="44.326526" lon="8.4428822"><ele>125.0</ele><time>2026-05-01T12:42:39.966Z</time></trkpt><trkpt lat="44.3265179" lon="8.4429966"><ele>124.99999999999999</ele><time>2026-05-01T12:42:40.965Z</time></trkpt><trkpt lat="44.3265312" lon="8.4431026"><ele>125.0</ele><time>2026-05-01T12:42:41.965Z</time></trkpt><trkpt lat="44.3265701" lon="8.4432071"><ele>124.0</ele><time>2026-05-01T12:42:42.965Z</time></trkpt><trkpt lat="44.3266284" lon="8.4433028"><ele>123.0</ele><time>2026-05-01T12:42:43.966Z</time></trkpt><trkpt lat="44.3266982" lon="8.4433933"><ele>122.0</ele><time>2026-05-01T12:42:44.966Z</time></trkpt><trkpt lat="44.3268062" lon="8.4434691"><ele>121.0</ele><time>2026-05-01T12:42:45.965Z</time></trkpt><trkpt lat="44.3269178" lon="8.4435373"><ele>120.0</ele><time>2026-05-01T12:42:46.966Z</time></trkpt><trkpt lat="44.327025" lon="8.4436096"><ele>120.0</ele><time>2026-05-01T12:42:47.966Z</time></trkpt><trkpt lat="44.327117" lon="8.4436876"><ele>120.0</ele><time>2026-05-01T12:42:48.966Z</time></trkpt><trkpt lat="44.3271995" lon="8.4437819"><ele>120.0</ele><time>2026-05-01T12:42:49.966Z</time></trkpt><trkpt lat="44.3272481" lon="8.4438911"><ele>120.0</ele><time>2026-05-01T12:42:50.965Z</time></trkpt><trkpt lat="44.3272814" lon="8.444018"><ele>120.0</ele><time>2026-05-01T12:42:51.964Z</time></trkpt><trkpt lat="44.3273115" lon="8.4441615"><ele>119.4</ele><time>2026-05-01T12:42:52.964Z</time></trkpt><trkpt lat="44.3273375" lon="8.4443112"><ele>118.8</ele><time>2026-05-01T12:42:53.964Z</time></trkpt><trkpt lat="44.3273652" lon="8.444455"><ele>118.19999999999999</ele><time>2026-05-01T12:42:54.965Z</time></trkpt><trkpt lat="44.3273954" lon="8.4445964"><ele>117.6</ele><time>2026-05-01T12:42:55.964Z</time></trkpt><trkpt lat="44.3274114" lon="8.4447353"><ele>117.0</ele><time>2026-05-01T12:42:56.964Z</time></trkpt><trkpt lat="44.3273981" lon="8.4448815"><ele>117.0</ele><time>2026-05-01T12:42:57.964Z</time></trkpt><trkpt lat="44.3273659" lon="8.4450159"><ele>116.99999999999999</ele><time>2026-05-01T12:42:58.964Z</time></trkpt><trkpt lat="44.3273185" lon="8.445141"><ele>116.99999999999999</ele><time>2026-05-01T12:42:59.965Z</time></trkpt><trkpt lat="44.3272751" lon="8.4452623"><ele>117.0</ele><time>2026-05-01T12:43:00.964Z</time></trkpt><trkpt lat="44.3272265" lon="8.4453811"><ele>117.0</ele><time>2026-05-01T12:43:01.965Z</time></trkpt><trkpt lat="44.3271782" lon="8.4455076"><ele>117.5</ele><time>2026-05-01T12:43:02.964Z</time></trkpt><trkpt lat="44.327129" lon="8.4456442"><ele>118.0</ele><time>2026-05-01T12:43:03.964Z</time></trkpt><trkpt lat="44.3270799" lon="8.4457846"><ele>118.5</ele><time>2026-05-01T12:43:04.964Z</time></trkpt><trkpt lat="44.3270233" lon="8.4459244"><ele>119.0</ele><time>2026-05-01T12:43:05.964Z</time></trkpt><trkpt lat="44.3269725" lon="8.4460726"><ele>119.0</ele><time>2026-05-01T12:43:06.964Z</time></trkpt><trkpt lat="44.3269347" lon="8.4462307"><ele>119.0</ele><time>2026-05-01T12:43:07.965Z</time></trkpt><trkpt lat="44.3269168" lon="8.4463952"><ele>119.0</ele><time>2026-05-01T12:43:08.964Z</time></trkpt><trkpt lat="44.326932" lon="8.4465701"><ele>119.0</ele><time>2026-05-01T12:43:09.964Z</time></trkpt><trkpt lat="44.3269506" lon="8.446754"><ele>116.75</ele><time>2026-05-01T12:43:10.965Z</time></trkpt><trkpt lat="44.3269712" lon="8.4469339"><ele>114.5</ele><time>2026-05-01T12:43:11.965Z</time></trkpt><trkpt lat="44.3269875" lon="8.4471233"><ele>112.25</ele><time>2026-05-01T12:43:12.964Z</time></trkpt><trkpt lat="44.326995" lon="8.4473077"><ele>110.0</ele><time>2026-05-01T12:43:13.964Z</time></trkpt><trkpt lat="44.3270096" lon="8.4474944"><ele>108.5</ele><time>2026-05-01T12:43:14.965Z</time></trkpt><trkpt lat="44.3270157" lon="8.4476826"><ele>107.0</ele><time>2026-05-01T12:43:15.964Z</time></trkpt><trkpt lat="44.327" lon="8.4478601"><ele>105.5</ele><time>2026-05-01T12:43:16.965Z</time></trkpt><trkpt lat="44.3269738" lon="8.4480209"><ele>104.0</ele><time>2026-05-01T12:43:17.965Z</time></trkpt><trkpt lat="44.3269291" lon="8.4481799"><ele>102.5</ele><time>2026-05-01T12:43:18.965Z</time></trkpt><trkpt lat="44.3268739" lon="8.44834"><ele>101.0</ele><time>2026-05-01T12:43:19.964Z</time></trkpt><trkpt lat="44.3268112" lon="8.4484968"><ele>99.5</ele><time>2026-05-01T12:43:20.965Z</time></trkpt><trkpt lat="44.3267441" lon="8.4486514"><ele>98.0</ele><time>2026-05-01T12:43:21.964Z</time></trkpt><trkpt lat="44.3266857" lon="8.4488057"><ele>98.0</ele><time>2026-05-01T12:43:22.965Z</time></trkpt><trkpt lat="44.326624" lon="8.4489545"><ele>98.0</ele><time>2026-05-01T12:43:23.965Z</time></trkpt><trkpt lat="44.3265726" lon="8.4491024"><ele>98.0</ele><time>2026-05-01T12:43:24.964Z</time></trkpt><trkpt lat="44.3265021" lon="8.4492418"><ele>98.0</ele><time>2026-05-01T12:43:25.965Z</time></trkpt><trkpt lat="44.3264329" lon="8.4493759"><ele>101.60000000000001</ele><time>2026-05-01T12:43:26.964Z</time></trkpt><trkpt lat="44.3263661" lon="8.4495199"><ele>105.2</ele><time>2026-05-01T12:43:27.965Z</time></trkpt><trkpt lat="44.3263248" lon="8.4496556"><ele>108.8</ele><time>2026-05-01T12:43:28.964Z</time></trkpt><trkpt lat="44.326306" lon="8.4497969"><ele>112.4</ele><time>2026-05-01T12:43:29.964Z</time></trkpt><trkpt lat="44.3263151" lon="8.4499328"><ele>116.0</ele><time>2026-05-01T12:43:30.965Z</time></trkpt><trkpt lat="44.3263637" lon="8.4500765"><ele>111.0</ele><time>2026-05-01T12:43:31.964Z</time></trkpt><trkpt lat="44.326432" lon="8.4502171"><ele>106.0</ele><time>2026-05-01T12:43:32.964Z</time></trkpt><trkpt lat="44.3264959" lon="8.4503927"><ele>101.0</ele><time>2026-05-01T12:43:33.964Z</time></trkpt><trkpt lat="44.3265472" lon="8.4505655"><ele>96.0</ele><time>2026-05-01T12:43:34.964Z</time></trkpt><trkpt lat="44.3265845" lon="8.4507392"><ele>95.0</ele><time>2026-05-01T12:43:35.964Z</time></trkpt><trkpt lat="44.3265803" lon="8.4509271"><ele>94.0</ele><time>2026-05-01T12:43:36.964Z</time></trkpt><trkpt lat="44.3265564" lon="8.4511199"><ele>93.0</ele><time>2026-05-01T12:43:37.964Z</time></trkpt><trkpt lat="44.3265253" lon="8.4513153"><ele>92.0</ele><time>2026-05-01T12:43:38.965Z</time></trkpt><trkpt lat="44.3264844" lon="8.4515094"><ele>91.5</ele><time>2026-05-01T12:43:39.964Z</time></trkpt><trkpt lat="44.3264524" lon="8.451699"><ele>91.0</ele><time>2026-05-01T12:43:40.964Z</time></trkpt><trkpt lat="44.326425" lon="8.4519009"><ele>90.5</ele><time>2026-05-01T12:43:41.965Z</time></trkpt><trkpt lat="44.3264003" lon="8.4521186"><ele>90.0</ele><time>2026-05-01T12:43:42.964Z</time></trkpt><trkpt lat="44.3263769" lon="8.4523503"><ele>91.66666666666667</ele><time>2026-05-01T12:43:43.964Z</time></trkpt><trkpt lat="44.3263537" lon="8.4526056"><ele>93.33333333333334</ele><time>2026-05-01T12:43:44.964Z</time></trkpt><trkpt lat="44.3263297" lon="8.452862"><ele>95.0</ele><time>2026-05-01T12:43:45.964Z</time></trkpt><trkpt lat="44.3262906" lon="8.4531076"><ele>95.0</ele><time>2026-05-01T12:43:46.964Z</time></trkpt><trkpt lat="44.3262471" lon="8.4533242"><ele>95.0</ele><time>2026-05-01T12:43:47.964Z</time></trkpt><trkpt lat="44.3262118" lon="8.4535244"><ele>95.0</ele><time>2026-05-01T12:43:48.964Z</time></trkpt><trkpt lat="44.3261732" lon="8.4537166"><ele>92.75</ele><time>2026-05-01T12:43:49.965Z</time></trkpt><trkpt lat="44.3261452" lon="8.4539106"><ele>90.5</ele><time>2026-05-01T12:43:50.965Z</time></trkpt><trkpt lat="44.3261122" lon="8.4541051"><ele>88.25</ele><time>2026-05-01T12:43:51.964Z</time></trkpt><trkpt lat="44.3260718" lon="8.4543037"><ele>86.0</ele><time>2026-05-01T12:43:52.964Z</time></trkpt><trkpt lat="44.3260155" lon="8.4545102"><ele>85.0</ele><time>2026-05-01T12:43:53.964Z</time></trkpt><trkpt lat="44.3259369" lon="8.454716"><ele>84.0</ele><time>2026-05-01T12:43:54.964Z</time></trkpt><trkpt lat="44.3258474" lon="8.4549182"><ele>83.0</ele><time>2026-05-01T12:43:55.965Z</time></trkpt><trkpt lat="44.3257671" lon="8.4551052"><ele>83.0</ele><time>2026-05-01T12:43:56.964Z</time></trkpt><trkpt lat="44.325687" lon="8.4552779"><ele>83.0</ele><time>2026-05-01T12:43:57.964Z</time></trkpt><trkpt lat="44.3256085" lon="8.4554524"><ele>83.0</ele><time>2026-05-01T12:43:58.964Z</time></trkpt><trkpt lat="44.32553" lon="8.4556363"><ele>83.0</ele><time>2026-05-01T12:43:59.964Z</time></trkpt><trkpt lat="44.3254457" lon="8.4558208"><ele>82.25</ele><time>2026-05-01T12:44:00.965Z</time></trkpt><trkpt lat="44.3253729" lon="8.4560072"><ele>81.5</ele><time>2026-05-01T12:44:01.964Z</time></trkpt><trkpt lat="44.3253176" lon="8.4562004"><ele>80.75</ele><time>2026-05-01T12:44:02.964Z</time></trkpt><trkpt lat="44.3252855" lon="8.4563994"><ele>80.0</ele><time>2026-05-01T12:44:03.964Z</time></trkpt><trkpt lat="44.3252766" lon="8.4565901"><ele>80.0</ele><time>2026-05-01T12:44:04.965Z</time></trkpt><trkpt lat="44.3252651" lon="8.4567616"><ele>80.0</ele><time>2026-05-01T12:44:05.964Z</time></trkpt><trkpt lat="44.3252522" lon="8.4569134"><ele>80.0</ele><time>2026-05-01T12:44:06.964Z</time></trkpt><trkpt lat="44.3252278" lon="8.4570493"><ele>80.0</ele><time>2026-05-01T12:44:07.964Z</time></trkpt><trkpt lat="44.3251831" lon="8.4571776"><ele>80.0</ele><time>2026-05-01T12:44:08.965Z</time></trkpt><trkpt lat="44.3251237" lon="8.4573061"><ele>78.2</ele><time>2026-05-01T12:44:09.964Z</time></trkpt><trkpt lat="44.3250582" lon="8.4574239"><ele>76.4</ele><time>2026-05-01T12:44:10.964Z</time></trkpt><trkpt lat="44.324989" lon="8.4575288"><ele>74.6</ele><time>2026-05-01T12:44:11.964Z</time></trkpt><trkpt lat="44.3249236" lon="8.4576354"><ele>72.8</ele><time>2026-05-01T12:44:12.965Z</time></trkpt><trkpt lat="44.3248713" lon="8.4577569"><ele>71.0</ele><time>2026-05-01T12:44:13.965Z</time></trkpt><trkpt lat="44.324833" lon="8.4578881"><ele>71.75</ele><time>2026-05-01T12:44:14.964Z</time></trkpt><trkpt lat="44.3247949" lon="8.4580326"><ele>72.5</ele><time>2026-05-01T12:44:15.965Z</time></trkpt><trkpt lat="44.3247588" lon="8.4581866"><ele>73.25</ele><time>2026-05-01T12:44:16.964Z</time></trkpt><trkpt lat="44.3247166" lon="8.4583421"><ele>74.0</ele><time>2026-05-01T12:44:17.964Z</time></trkpt><trkpt lat="44.3246699" lon="8.4584976"><ele>72.0</ele><time>2026-05-01T12:44:18.965Z</time></trkpt><trkpt lat="44.3246204" lon="8.4586359"><ele>70.0</ele><time>2026-05-01T12:44:19.964Z</time></trkpt><trkpt lat="44.3245662" lon="8.458763"><ele>68.0</ele><time>2026-05-01T12:44:20.964Z</time></trkpt><trkpt lat="44.3245036" lon="8.4588687"><ele>66.0</ele><time>2026-05-01T12:44:21.964Z</time></trkpt><trkpt lat="44.3244141" lon="8.4589567"><ele>64.0</ele><time>2026-05-01T12:44:22.964Z</time></trkpt><trkpt lat="44.3243147" lon="8.4590176"><ele>63.0</ele><time>2026-05-01T12:44:23.964Z</time></trkpt><trkpt lat="44.3242106" lon="8.459054"><ele>62.0</ele><time>2026-05-01T12:44:24.964Z</time></trkpt><trkpt lat="44.3240937" lon="8.4590559"><ele>61.0</ele><time>2026-05-01T12:44:25.964Z</time></trkpt><trkpt lat="44.3239665" lon="8.4590442"><ele>60.0</ele><time>2026-05-01T12:44:26.965Z</time></trkpt><trkpt lat="44.3238368" lon="8.4590348"><ele>57.75</ele><time>2026-05-01T12:44:27.964Z</time></trkpt><trkpt lat="44.3237095" lon="8.4590364"><ele>55.5</ele><time>2026-05-01T12:44:28.964Z</time></trkpt><trkpt lat="44.3235838" lon="8.4590359"><ele>53.25</ele><time>2026-05-01T12:44:29.964Z</time></trkpt><trkpt lat="44.3234664" lon="8.4590425"><ele>51.0</ele><time>2026-05-01T12:44:30.964Z</time></trkpt><trkpt lat="44.3233475" lon="8.4590595"><ele>51.0</ele><time>2026-05-01T12:44:31.965Z</time></trkpt><trkpt lat="44.3232293" lon="8.4590695"><ele>51.0</ele><time>2026-05-01T12:44:32.965Z</time></trkpt><trkpt lat="44.3231108" lon="8.4590833"><ele>51.0</ele><time>2026-05-01T12:44:33.965Z</time></trkpt><trkpt lat="44.3230067" lon="8.4591099"><ele>51.0</ele><time>2026-05-01T12:44:34.964Z</time></trkpt><trkpt lat="44.3229109" lon="8.4591438"><ele>51.0</ele><time>2026-05-01T12:44:35.964Z</time></trkpt><trkpt lat="44.3228251" lon="8.4592014"><ele>51.4</ele><time>2026-05-01T12:44:36.965Z</time></trkpt><trkpt lat="44.3227517" lon="8.459303"><ele>51.8</ele><time>2026-05-01T12:44:37.964Z</time></trkpt><trkpt lat="44.3226866" lon="8.4594296"><ele>52.199999999999996</ele><time>2026-05-01T12:44:38.965Z</time></trkpt><trkpt lat="44.3226338" lon="8.4595738"><ele>52.599999999999994</ele><time>2026-05-01T12:44:39.964Z</time></trkpt><trkpt lat="44.3225869" lon="8.4597172"><ele>53.0</ele><time>2026-05-01T12:44:40.964Z</time></trkpt><trkpt lat="44.3225552" lon="8.4598545"><ele>50.8</ele><time>2026-05-01T12:44:41.965Z</time></trkpt><trkpt lat="44.3225525" lon="8.4599958"><ele>48.599999999999994</ele><time>2026-05-01T12:44:42.964Z</time></trkpt><trkpt lat="44.3225721" lon="8.4601452"><ele>46.400000000000006</ele><time>2026-05-01T12:44:43.965Z</time></trkpt><trkpt lat="44.3226032" lon="8.4602923"><ele>44.2</ele><time>2026-05-01T12:44:44.964Z</time></trkpt><trkpt lat="44.3226483" lon="8.460431"><ele>42.0</ele><time>2026-05-01T12:44:45.965Z</time></trkpt><trkpt lat="44.3226923" lon="8.4605722"><ele>41.4</ele><time>2026-05-01T12:44:46.964Z</time></trkpt><trkpt lat="44.3227163" lon="8.4607146"><ele>40.800000000000004</ele><time>2026-05-01T12:44:47.965Z</time></trkpt><trkpt lat="44.3227036" lon="8.4608557"><ele>40.2</ele><time>2026-05-01T12:44:48.964Z</time></trkpt><trkpt lat="44.322656" lon="8.4609753"><ele>39.6</ele><time>2026-05-01T12:44:49.964Z</time></trkpt><trkpt lat="44.3225801" lon="8.4610655"><ele>39.0</ele><time>2026-05-01T12:44:50.964Z</time></trkpt><trkpt lat="44.3224914" lon="8.4611262"><ele>39.0</ele><time>2026-05-01T12:44:51.965Z</time></trkpt><trkpt lat="44.3223944" lon="8.4611648"><ele>39.0</ele><time>2026-05-01T12:44:52.965Z</time></trkpt><trkpt lat="44.3222981" lon="8.4612246"><ele>39.0</ele><time>2026-05-01T12:44:53.964Z</time></trkpt><trkpt lat="44.3222024" lon="8.4612915"><ele>39.0</ele><time>2026-05-01T12:44:54.964Z</time></trkpt><trkpt lat="44.3221016" lon="8.4613665"><ele>39.0</ele><time>2026-05-01T12:44:55.964Z</time></trkpt><trkpt lat="44.3219911" lon="8.4614331"><ele>40.0</ele><time>2026-05-01T12:44:56.964Z</time></trkpt><trkpt lat="44.3218857" lon="8.4615183"><ele>41.0</ele><time>2026-05-01T12:44:57.964Z</time></trkpt><trkpt lat="44.3217772" lon="8.4616004"><ele>42.0</ele><time>2026-05-01T12:44:58.964Z</time></trkpt><trkpt lat="44.321672" lon="8.4616841"><ele>43.0</ele><time>2026-05-01T12:44:59.964Z</time></trkpt><trkpt lat="44.3215507" lon="8.4617775"><ele>43.0</ele><time>2026-05-01T12:45:00.964Z</time></trkpt><trkpt lat="44.3214378" lon="8.4618624"><ele>43.0</ele><time>2026-05-01T12:45:01.964Z</time></trkpt><trkpt lat="44.321339" lon="8.4619651"><ele>43.0</ele><time>2026-05-01T12:45:02.964Z</time></trkpt><trkpt lat="44.3212518" lon="8.4620875"><ele>43.0</ele><time>2026-05-01T12:45:03.965Z</time></trkpt><trkpt lat="44.321186" lon="8.462225"><ele>41.5</ele><time>2026-05-01T12:45:04.964Z</time></trkpt><trkpt lat="44.3211542" lon="8.4623877"><ele>40.0</ele><time>2026-05-01T12:45:05.964Z</time></trkpt><trkpt lat="44.3211656" lon="8.4625572"><ele>38.5</ele><time>2026-05-01T12:45:06.964Z</time></trkpt><trkpt lat="44.3211638" lon="8.4627307"><ele>37.0</ele><time>2026-05-01T12:45:07.964Z</time></trkpt><trkpt lat="44.3211502" lon="8.4628959"><ele>36.5</ele><time>2026-05-01T12:45:08.964Z</time></trkpt><trkpt lat="44.3211061" lon="8.4630549"><ele>36.0</ele><time>2026-05-01T12:45:09.965Z</time></trkpt><trkpt lat="44.3210735" lon="8.4632096"><ele>35.5</ele><time>2026-05-01T12:45:10.965Z</time></trkpt><trkpt lat="44.3210301" lon="8.4633596"><ele>35.0</ele><time>2026-05-01T12:45:11.965Z</time></trkpt><trkpt lat="44.3210045" lon="8.4635082"><ele>35.0</ele><time>2026-05-01T12:45:12.964Z</time></trkpt><trkpt lat="44.3209824" lon="8.4636634"><ele>35.0</ele><time>2026-05-01T12:45:13.964Z</time></trkpt><trkpt lat="44.3209699" lon="8.4638175"><ele>35.0</ele><time>2026-05-01T12:45:14.965Z</time></trkpt><trkpt lat="44.3209542" lon="8.4639784"><ele>35.0</ele><time>2026-05-01T12:45:15.965Z</time></trkpt><trkpt lat="44.3209413" lon="8.4641367"><ele>33.4</ele><time>2026-05-01T12:45:16.965Z</time></trkpt><trkpt lat="44.3209272" lon="8.4642904"><ele>31.8</ele><time>2026-05-01T12:45:17.965Z</time></trkpt><trkpt lat="44.320911" lon="8.4644458"><ele>30.200000000000003</ele><time>2026-05-01T12:45:18.964Z</time></trkpt><trkpt lat="44.3208929" lon="8.4646011"><ele>28.6</ele><time>2026-05-01T12:45:19.964Z</time></trkpt><trkpt lat="44.3208746" lon="8.4647515"><ele>27.0</ele><time>2026-05-01T12:45:20.964Z</time></trkpt><trkpt lat="44.3208527" lon="8.4648959"><ele>26.6</ele><time>2026-05-01T12:45:21.964Z</time></trkpt><trkpt lat="44.3208338" lon="8.465039"><ele>26.200000000000003</ele><time>2026-05-01T12:45:22.964Z</time></trkpt><trkpt lat="44.3208184" lon="8.4651796"><ele>25.8</ele><time>2026-05-01T12:45:23.964Z</time></trkpt><trkpt lat="44.320807" lon="8.4653091"><ele>25.4</ele><time>2026-05-01T12:45:24.965Z</time></trkpt><trkpt lat="44.3207918" lon="8.4654295"><ele>25.0</ele><time>2026-05-01T12:45:25.964Z</time></trkpt><trkpt lat="44.3207786" lon="8.4655538"><ele>25.000000000000004</ele><time>2026-05-01T12:45:26.965Z</time></trkpt><trkpt lat="44.3207595" lon="8.4656732"><ele>25.0</ele><time>2026-05-01T12:45:27.964Z</time></trkpt><trkpt lat="44.3207328" lon="8.4657886"><ele>25.0</ele><time>2026-05-01T12:45:28.964Z</time></trkpt><trkpt lat="44.3207045" lon="8.4658932"><ele>25.0</ele><time>2026-05-01T12:45:29.964Z</time></trkpt><trkpt lat="44.3206855" lon="8.4659821"><ele>25.000000000000004</ele><time>2026-05-01T12:45:30.965Z</time></trkpt><trkpt lat="44.320671" lon="8.466137"><ele>25.0</ele><time>2026-05-01T12:45:32.964Z</time></trkpt><trkpt lat="44.3206616" lon="8.4662343"><ele>25.0</ele><time>2026-05-01T12:45:34.964Z</time></trkpt><trkpt lat="44.320676" lon="8.4663341"><ele>25.0</ele><time>2026-05-01T12:54:00.963Z</time></trkpt><trkpt lat="44.3206898" lon="8.4664278"><ele>25.0</ele><time>2026-05-01T12:54:02.962Z</time></trkpt><trkpt lat="44.320685" lon="8.4665783"><ele>25.0</ele><time>2026-05-01T12:54:04.962Z</time></trkpt><trkpt lat="44.3206733" lon="8.4667217"><ele>25.0</ele><time>2026-05-01T12:54:06.962Z</time></trkpt><trkpt lat="44.3206517" lon="8.46688"><ele>25.000000000000004</ele><time>2026-05-01T12:54:08.962Z</time></trkpt><trkpt lat="44.3206333" lon="8.4669683"><ele>25.0</ele><time>2026-05-01T12:54:09.963Z</time></trkpt><trkpt lat="44.3206067" lon="8.4670583"><ele>25.0</ele><time>2026-05-01T12:54:10.963Z</time></trkpt><trkpt lat="44.32058" lon="8.4671517"><ele>25.0</ele><time>2026-05-01T12:54:11.962Z</time></trkpt><trkpt lat="44.3205417" lon="8.467245"><ele>25.0</ele><time>2026-05-01T12:54:12.962Z</time></trkpt><trkpt lat="44.3204983" lon="8.4673367"><ele>25.000000000000004</ele><time>2026-05-01T12:54:13.962Z</time></trkpt><trkpt lat="44.3204433" lon="8.4674233"><ele>25.0</ele><time>2026-05-01T12:54:14.962Z</time></trkpt><trkpt lat="44.3203733" lon="8.4675033"><ele>24.2</ele><time>2026-05-01T12:54:15.962Z</time></trkpt><trkpt lat="44.3202983" lon="8.4675767"><ele>23.4</ele><time>2026-05-01T12:54:16.962Z</time></trkpt><trkpt lat="44.3201867" lon="8.4676133"><ele>22.6</ele><time>2026-05-01T12:54:17.962Z</time></trkpt><trkpt lat="44.3201017" lon="8.4676783"><ele>21.8</ele><time>2026-05-01T12:54:18.962Z</time></trkpt><trkpt lat="44.3200033" lon="8.467755"><ele>21.0</ele><time>2026-05-01T12:54:19.962Z</time></trkpt><trkpt lat="44.3198967" lon="8.4678417"><ele>21.0</ele><time>2026-05-01T12:54:20.963Z</time></trkpt><trkpt lat="44.3198017" lon="8.46793"><ele>21.0</ele><time>2026-05-01T12:54:21.962Z</time></trkpt><trkpt lat="44.3197017" lon="8.4680133"><ele>21.0</ele><time>2026-05-01T12:54:22.962Z</time></trkpt><trkpt lat="44.3196" lon="8.4681033"><ele>21.0</ele><time>2026-05-01T12:54:23.963Z</time></trkpt><trkpt lat="44.319505" lon="8.4681967"><ele>20.25</ele><time>2026-05-01T12:54:24.962Z</time></trkpt><trkpt lat="44.3194017" lon="8.468275"><ele>19.5</ele><time>2026-05-01T12:54:25.962Z</time></trkpt><trkpt lat="44.3193033" lon="8.4683583"><ele>18.75</ele><time>2026-05-01T12:54:26.962Z</time></trkpt><trkpt lat="44.31921" lon="8.4684383"><ele>18.0</ele><time>2026-05-01T12:54:27.963Z</time></trkpt><trkpt lat="44.3191167" lon="8.4685133"><ele>18.0</ele><time>2026-05-01T12:54:28.962Z</time></trkpt><trkpt lat="44.3190267" lon="8.4685833"><ele>18.0</ele><time>2026-05-01T12:54:29.962Z</time></trkpt><trkpt lat="44.3189417" lon="8.468645"><ele>18.0</ele><time>2026-05-01T12:54:30.962Z</time></trkpt><trkpt lat="44.3188717" lon="8.4687"><ele>18.0</ele><time>2026-05-01T12:54:31.962Z</time></trkpt><trkpt lat="44.3188117" lon="8.468745"><ele>18.0</ele><time>2026-05-01T12:54:32.962Z</time></trkpt><trkpt lat="44.318745" lon="8.468795"><ele>18.0</ele><time>2026-05-01T12:54:34.962Z</time></trkpt><trkpt lat="44.31871" lon="8.4689"><ele>17.75</ele><time>2026-05-01T12:54:48.962Z</time></trkpt><trkpt lat="44.31861" lon="8.4690283"><ele>17.5</ele><time>2026-05-01T12:54:50.963Z</time></trkpt><trkpt lat="44.3185267" lon="8.4691117"><ele>17.25</ele><time>2026-05-01T12:54:51.963Z</time></trkpt><trkpt lat="44.3183917" lon="8.4692317"><ele>17.0</ele><time>2026-05-01T12:54:52.963Z</time></trkpt><trkpt lat="44.3182133" lon="8.469385"><ele>17.333333333333336</ele><time>2026-05-01T12:54:53.962Z</time></trkpt><trkpt lat="44.3180383" lon="8.46954"><ele>17.666666666666668</ele><time>2026-05-01T12:54:54.962Z</time></trkpt><trkpt lat="44.3178683" lon="8.4696533"><ele>18.0</ele><time>2026-05-01T12:54:55.963Z</time></trkpt><trkpt lat="44.3176917" lon="8.4697783"><ele>18.0</ele><time>2026-05-01T12:54:56.963Z</time></trkpt><trkpt lat="44.3175183" lon="8.4698983"><ele>18.0</ele><time>2026-05-01T12:54:57.962Z</time></trkpt><trkpt lat="44.3173817" lon="8.4699983"><ele>18.0</ele><time>2026-05-01T12:54:58.962Z</time></trkpt><trkpt lat="44.3172667" lon="8.47009"><ele>18.5</ele><time>2026-05-01T12:54:59.962Z</time></trkpt><trkpt lat="44.317125" lon="8.4701933"><ele>19.0</ele><time>2026-05-01T12:55:00.962Z</time></trkpt><trkpt lat="44.3170233" lon="8.47029"><ele>19.5</ele><time>2026-05-01T12:55:01.962Z</time></trkpt><trkpt lat="44.3169033" lon="8.4704033"><ele>20.0</ele><time>2026-05-01T12:55:02.962Z</time></trkpt><trkpt lat="44.3167867" lon="8.4705117"><ele>20.0</ele><time>2026-05-01T12:55:03.962Z</time></trkpt><trkpt lat="44.3166533" lon="8.47061"><ele>20.0</ele><time>2026-05-01T12:55:04.962Z</time></trkpt><trkpt lat="44.316545" lon="8.4707033"><ele>20.0</ele><time>2026-05-01T12:55:05.963Z</time></trkpt><trkpt lat="44.316435" lon="8.4708033"><ele>20.0</ele><time>2026-05-01T12:55:06.962Z</time></trkpt><trkpt lat="44.3163133" lon="8.4708917"><ele>21.666666666666668</ele><time>2026-05-01T12:55:07.963Z</time></trkpt><trkpt lat="44.3161617" lon="8.4709683"><ele>23.333333333333336</ele><time>2026-05-01T12:55:08.962Z</time></trkpt><trkpt lat="44.3160283" lon="8.4710483"><ele>25.0</ele><time>2026-05-01T12:55:09.963Z</time></trkpt><trkpt lat="44.31591" lon="8.4711633"><ele>23.0</ele><time>2026-05-01T12:55:10.962Z</time></trkpt><trkpt lat="44.31581" lon="8.4712933"><ele>21.0</ele><time>2026-05-01T12:55:11.962Z</time></trkpt><trkpt lat="44.3156967" lon="8.4714183"><ele>19.0</ele><time>2026-05-01T12:55:12.963Z</time></trkpt><trkpt lat="44.3155783" lon="8.4715217"><ele>17.0</ele><time>2026-05-01T12:55:13.962Z</time></trkpt><trkpt lat="44.3154917" lon="8.4716233"><ele>17.0</ele><time>2026-05-01T12:55:14.963Z</time></trkpt><trkpt lat="44.315395" lon="8.4717233"><ele>17.0</ele><time>2026-05-01T12:55:15.962Z</time></trkpt><trkpt lat="44.31528" lon="8.4717833"><ele>17.0</ele><time>2026-05-01T12:55:16.963Z</time></trkpt><trkpt lat="44.3151633" lon="8.471835"><ele>17.0</ele><time>2026-05-01T12:55:17.963Z</time></trkpt><trkpt lat="44.315055" lon="8.4718983"><ele>17.0</ele><time>2026-05-01T12:55:18.963Z</time></trkpt><trkpt lat="44.314955" lon="8.471955"><ele>17.0</ele><time>2026-05-01T12:55:19.962Z</time></trkpt><trkpt lat="44.3148717" lon="8.4720083"><ele>17.0</ele><time>2026-05-01T12:55:20.962Z</time></trkpt><trkpt lat="44.3147867" lon="8.472055"><ele>17.0</ele><time>2026-05-01T12:55:21.963Z</time></trkpt><trkpt lat="44.31471" lon="8.472095"><ele>17.0</ele><time>2026-05-01T12:55:22.963Z</time></trkpt><trkpt lat="44.3146317" lon="8.4721167"><ele>16.4</ele><time>2026-05-01T12:55:23.962Z</time></trkpt><trkpt lat="44.3145633" lon="8.472155"><ele>15.799999999999999</ele><time>2026-05-01T12:55:24.963Z</time></trkpt><trkpt lat="44.31445" lon="8.4722033"><ele>15.2</ele><time>2026-05-01T12:55:26.962Z</time></trkpt><trkpt lat="44.3143817" lon="8.4722417"><ele>14.6</ele><time>2026-05-01T12:55:28.962Z</time></trkpt><trkpt lat="44.3142917" lon="8.4722917"><ele>14.0</ele><time>2026-05-01T12:55:46.963Z</time></trkpt><trkpt lat="44.3141983" lon="8.47227"><ele>14.0</ele><time>2026-05-01T12:55:48.962Z</time></trkpt><trkpt lat="44.314105" lon="8.4721633"><ele>13.999999999999998</ele><time>2026-05-01T12:55:50.962Z</time></trkpt><trkpt lat="44.3140617" lon="8.4720567"><ele>13.999999999999998</ele><time>2026-05-01T12:55:51.963Z</time></trkpt><trkpt lat="44.3140067" lon="8.471925"><ele>14.0</ele><time>2026-05-01T12:55:52.962Z</time></trkpt><trkpt lat="44.3139583" lon="8.4717767"><ele>14.0</ele><time>2026-05-01T12:55:53.962Z</time></trkpt><trkpt lat="44.3139183" lon="8.47162"><ele>14.6</ele><time>2026-05-01T12:55:54.962Z</time></trkpt><trkpt lat="44.3138817" lon="8.471475"><ele>15.2</ele><time>2026-05-01T12:55:55.962Z</time></trkpt><trkpt lat="44.3138483" lon="8.47135"><ele>15.799999999999999</ele><time>2026-05-01T12:55:56.962Z</time></trkpt><trkpt lat="44.3138167" lon="8.4712383"><ele>16.4</ele><time>2026-05-01T12:55:57.962Z</time></trkpt><trkpt lat="44.313785" lon="8.47113"><ele>17.0</ele><time>2026-05-01T12:55:58.962Z</time></trkpt><trkpt lat="44.3137583" lon="8.4710267"><ele>17.0</ele><time>2026-05-01T12:55:59.963Z</time></trkpt><trkpt lat="44.3137233" lon="8.4709367"><ele>17.0</ele><time>2026-05-01T12:56:00.962Z</time></trkpt><trkpt lat="44.3136783" lon="8.4708617"><ele>17.0</ele><time>2026-05-01T12:56:01.962Z</time></trkpt><trkpt lat="44.31356" lon="8.4707833"><ele>17.0</ele><time>2026-05-01T12:56:03.963Z</time></trkpt><trkpt lat="44.3134683" lon="8.470785"><ele>17.0</ele><time>2026-05-01T12:56:04.963Z</time></trkpt><trkpt lat="44.3133667" lon="8.4707867"><ele>17.0</ele><time>2026-05-01T12:56:05.963Z</time></trkpt><trkpt lat="44.3132617" lon="8.4707933"><ele>17.0</ele><time>2026-05-01T12:56:06.962Z</time></trkpt><trkpt lat="44.3131583" lon="8.4707917"><ele>17.0</ele><time>2026-05-01T12:56:07.962Z</time></trkpt><trkpt lat="44.31305" lon="8.4707867"><ele>17.0</ele><time>2026-05-01T12:56:08.962Z</time></trkpt><trkpt lat="44.3129417" lon="8.4707817"><ele>17.0</ele><time>2026-05-01T12:56:09.962Z</time></trkpt><trkpt lat="44.3128267" lon="8.4707733"><ele>16.6</ele><time>2026-05-01T12:56:10.962Z</time></trkpt><trkpt lat="44.3127117" lon="8.470785"><ele>16.2</ele><time>2026-05-01T12:56:11.963Z</time></trkpt><trkpt lat="44.3126017" lon="8.47076"><ele>15.8</ele><time>2026-05-01T12:56:12.963Z</time></trkpt><trkpt lat="44.31251" lon="8.4707533"><ele>15.4</ele><time>2026-05-01T12:56:13.963Z</time></trkpt><trkpt lat="44.3124233" lon="8.470745"><ele>15.0</ele><time>2026-05-01T12:56:14.963Z</time></trkpt><trkpt lat="44.31234" lon="8.4707433"><ele>14.833333333333334</ele><time>2026-05-01T12:56:16.962Z</time></trkpt><trkpt lat="44.312235" lon="8.4707333"><ele>14.666666666666668</ele><time>2026-05-01T12:56:26.963Z</time></trkpt><trkpt lat="44.3121717" lon="8.470705"><ele>14.5</ele><time>2026-05-01T12:56:27.962Z</time></trkpt><trkpt lat="44.3121083" lon="8.47065"><ele>14.333333333333334</ele><time>2026-05-01T12:56:28.962Z</time></trkpt><trkpt lat="44.312055" lon="8.470565"><ele>14.166666666666668</ele><time>2026-05-01T12:56:29.962Z</time></trkpt><trkpt lat="44.312" lon="8.4704717"><ele>14.0</ele><time>2026-05-01T12:56:30.962Z</time></trkpt><trkpt lat="44.3119433" lon="8.4703867"><ele>14.75</ele><time>2026-05-01T12:56:31.962Z</time></trkpt><trkpt lat="44.3118933" lon="8.4703"><ele>15.5</ele><time>2026-05-01T12:56:32.962Z</time></trkpt><trkpt lat="44.3118467" lon="8.470205"><ele>16.25</ele><time>2026-05-01T12:56:33.962Z</time></trkpt><trkpt lat="44.3117983" lon="8.4701067"><ele>17.0</ele><time>2026-05-01T12:56:34.963Z</time></trkpt><trkpt lat="44.31157" lon="8.4697383"><ele>17.333333333333336</ele><time>2026-05-01T12:56:38.971Z</time></trkpt><trkpt lat="44.3113833" lon="8.4697267"><ele>17.666666666666668</ele><time>2026-05-01T12:56:39.971Z</time></trkpt><trkpt lat="44.3112967" lon="8.4695867"><ele>18.0</ele><time>2026-05-01T12:56:40.972Z</time></trkpt><trkpt lat="44.31124" lon="8.4693633"><ele>18.5</ele><time>2026-05-01T12:56:41.971Z</time></trkpt><trkpt lat="44.3111467" lon="8.4692783"><ele>19.0</ele><time>2026-05-01T12:56:42.972Z</time></trkpt><trkpt lat="44.3110333" lon="8.4692767"><ele>19.5</ele><time>2026-05-01T12:56:43.972Z</time></trkpt><trkpt lat="44.3109067" lon="8.4692767"><ele>20.0</ele><time>2026-05-01T12:56:44.972Z</time></trkpt><trkpt lat="44.3107867" lon="8.4692667"><ele>20.0</ele><time>2026-05-01T12:56:45.971Z</time></trkpt><trkpt lat="44.3106767" lon="8.469265"><ele>20.0</ele><time>2026-05-01T12:56:46.971Z</time></trkpt><trkpt lat="44.3105617" lon="8.4692567"><ele>20.0</ele><time>2026-05-01T12:56:47.971Z</time></trkpt><trkpt lat="44.3104433" lon="8.4692367"><ele>20.0</ele><time>2026-05-01T12:56:48.972Z</time></trkpt><trkpt lat="44.3103267" lon="8.4692133"><ele>19.5</ele><time>2026-05-01T12:56:49.972Z</time></trkpt><trkpt lat="44.3102067" lon="8.4692133"><ele>19.0</ele><time>2026-05-01T12:56:50.971Z</time></trkpt><trkpt lat="44.310085" lon="8.4692217"><ele>18.5</ele><time>2026-05-01T12:56:51.971Z</time></trkpt><trkpt lat="44.3099633" lon="8.469225"><ele>18.0</ele><time>2026-05-01T12:56:52.971Z</time></trkpt><trkpt lat="44.30985" lon="8.46923"><ele>17.75</ele><time>2026-05-01T12:56:53.972Z</time></trkpt><trkpt lat="44.3097333" lon="8.4692333"><ele>17.5</ele><time>2026-05-01T12:56:54.971Z</time></trkpt><trkpt lat="44.30961" lon="8.4692367"><ele>17.25</ele><time>2026-05-01T12:56:55.971Z</time></trkpt><trkpt lat="44.309495" lon="8.4692333"><ele>17.0</ele><time>2026-05-01T12:56:56.971Z</time></trkpt><trkpt lat="44.3093717" lon="8.4692267"><ele>17.0</ele><time>2026-05-01T12:56:57.971Z</time></trkpt><trkpt lat="44.30925" lon="8.4692283"><ele>17.0</ele><time>2026-05-01T12:56:58.971Z</time></trkpt><trkpt lat="44.309135" lon="8.469215"><ele>17.0</ele><time>2026-05-01T12:56:59.972Z</time></trkpt><trkpt lat="44.3090133" lon="8.469225"><ele>17.0</ele><time>2026-05-01T12:57:00.971Z</time></trkpt><trkpt lat="44.3088933" lon="8.4692283"><ele>18.0</ele><time>2026-05-01T12:57:01.971Z</time></trkpt><trkpt lat="44.308775" lon="8.4692333"><ele>19.0</ele><time>2026-05-01T12:57:02.971Z</time></trkpt><trkpt lat="44.3086633" lon="8.4692333"><ele>20.0</ele><time>2026-05-01T12:57:03.971Z</time></trkpt><trkpt lat="44.3085483" lon="8.469235"><ele>21.0</ele><time>2026-05-01T12:57:04.972Z</time></trkpt><trkpt lat="44.308435" lon="8.46923"><ele>21.0</ele><time>2026-05-01T12:57:05.971Z</time></trkpt><trkpt lat="44.308315" lon="8.4692283"><ele>21.0</ele><time>2026-05-01T12:57:06.971Z</time></trkpt><trkpt lat="44.308205" lon="8.4692383"><ele>21.0</ele><time>2026-05-01T12:57:07.971Z</time></trkpt><trkpt lat="44.308105" lon="8.4692383"><ele>21.0</ele><time>2026-05-01T12:57:08.971Z</time></trkpt><trkpt lat="44.3080217" lon="8.4692417"><ele>21.0</ele><time>2026-05-01T12:57:09.97Z</time></trkpt><trkpt lat="44.3079333" lon="8.4692467"><ele>21.6</ele><time>2026-05-01T12:57:10.971Z</time></trkpt><trkpt lat="44.3078467" lon="8.46924"><ele>22.200000000000003</ele><time>2026-05-01T12:57:11.97Z</time></trkpt><trkpt lat="44.3077583" lon="8.4692283"><ele>22.799999999999997</ele><time>2026-05-01T12:57:12.97Z</time></trkpt><trkpt lat="44.3076617" lon="8.46923"><ele>23.4</ele><time>2026-05-01T12:57:13.97Z</time></trkpt><trkpt lat="44.3075583" lon="8.4692317"><ele>24.0</ele><time>2026-05-01T12:57:14.97Z</time></trkpt><trkpt lat="44.307455" lon="8.4692383"><ele>24.0</ele><time>2026-05-01T12:57:15.971Z</time></trkpt><trkpt lat="44.3073517" lon="8.4692417"><ele>24.0</ele><time>2026-05-01T12:57:16.97Z</time></trkpt><trkpt lat="44.3072417" lon="8.469245"><ele>24.0</ele><time>2026-05-01T12:57:17.97Z</time></trkpt><trkpt lat="44.3071217" lon="8.4692517"><ele>24.0</ele><time>2026-05-01T12:57:18.97Z</time></trkpt><trkpt lat="44.307005" lon="8.46925"><ele>24.25</ele><time>2026-05-01T12:57:19.97Z</time></trkpt><trkpt lat="44.30689" lon="8.4692433"><ele>24.5</ele><time>2026-05-01T12:57:20.97Z</time></trkpt><trkpt lat="44.3067783" lon="8.4692367"><ele>24.75</ele><time>2026-05-01T12:57:21.971Z</time></trkpt><trkpt lat="44.3066683" lon="8.4692283"><ele>25.0</ele><time>2026-05-01T12:57:22.97Z</time></trkpt><trkpt lat="44.3065417" lon="8.469225"><ele>25.0</ele><time>2026-05-01T12:57:23.97Z</time></trkpt><trkpt lat="44.3064233" lon="8.4692383"><ele>25.0</ele><time>2026-05-01T12:57:24.971Z</time></trkpt><trkpt lat="44.3063017" lon="8.4692367"><ele>25.0</ele><time>2026-05-01T12:57:25.971Z</time></trkpt><trkpt lat="44.3061683" lon="8.469225"><ele>25.0</ele><time>2026-05-01T12:57:26.971Z</time></trkpt><trkpt lat="44.3060383" lon="8.4692133"><ele>25.25</ele><time>2026-05-01T12:57:27.97Z</time></trkpt><trkpt lat="44.3059117" lon="8.4692067"><ele>25.5</ele><time>2026-05-01T12:57:28.97Z</time></trkpt><trkpt lat="44.3057917" lon="8.4691967"><ele>25.75</ele><time>2026-05-01T12:57:29.971Z</time></trkpt><trkpt lat="44.3056183" lon="8.4693167"><ele>26.0</ele><time>2026-05-01T12:57:30.97Z</time></trkpt><trkpt lat="44.3054883" lon="8.469285"><ele>26.0</ele><time>2026-05-01T12:57:31.971Z</time></trkpt><trkpt lat="44.3053467" lon="8.469295"><ele>26.0</ele><time>2026-05-01T12:57:32.97Z</time></trkpt><trkpt lat="44.3052033" lon="8.4692983"><ele>26.0</ele><time>2026-05-01T12:57:33.97Z</time></trkpt><trkpt lat="44.3050733" lon="8.4692867"><ele>26.0</ele><time>2026-05-01T12:57:34.97Z</time></trkpt><trkpt lat="44.3049467" lon="8.46921"><ele>26.0</ele><time>2026-05-01T12:57:35.971Z</time></trkpt><trkpt lat="44.3048383" lon="8.4691933"><ele>26.0</ele><time>2026-05-01T12:57:36.97Z</time></trkpt><trkpt lat="44.3047133" lon="8.4692017"><ele>26.0</ele><time>2026-05-01T12:57:37.971Z</time></trkpt><trkpt lat="44.3045933" lon="8.4692017"><ele>26.0</ele><time>2026-05-01T12:57:38.97Z</time></trkpt><trkpt lat="44.3044767" lon="8.4691983"><ele>24.5</ele><time>2026-05-01T12:57:39.971Z</time></trkpt><trkpt lat="44.30435" lon="8.4692"><ele>23.0</ele><time>2026-05-01T12:57:40.97Z</time></trkpt><trkpt lat="44.304225" lon="8.4691983"><ele>21.5</ele><time>2026-05-01T12:57:41.97Z</time></trkpt><trkpt lat="44.3040917" lon="8.469185"><ele>20.0</ele><time>2026-05-01T12:57:42.97Z</time></trkpt><trkpt lat="44.3039767" lon="8.46918"><ele>20.0</ele><time>2026-05-01T12:57:43.971Z</time></trkpt><trkpt lat="44.3038683" lon="8.469175"><ele>20.0</ele><time>2026-05-01T12:57:44.97Z</time></trkpt><trkpt lat="44.3037517" lon="8.4691617"><ele>20.0</ele><time>2026-05-01T12:57:45.97Z</time></trkpt><trkpt lat="44.3036383" lon="8.4691417"><ele>20.0</ele><time>2026-05-01T12:57:46.97Z</time></trkpt><trkpt lat="44.303535" lon="8.4691183"><ele>20.0</ele><time>2026-05-01T12:57:47.97Z</time></trkpt><trkpt lat="44.30343" lon="8.4690917"><ele>20.0</ele><time>2026-05-01T12:57:48.97Z</time></trkpt><trkpt lat="44.30332" lon="8.4690633"><ele>20.0</ele><time>2026-05-01T12:57:49.971Z</time></trkpt><trkpt lat="44.303225" lon="8.4690267"><ele>20.0</ele><time>2026-05-01T12:57:50.97Z</time></trkpt><trkpt lat="44.30313" lon="8.468995"><ele>20.0</ele><time>2026-05-01T12:57:51.97Z</time></trkpt><trkpt lat="44.3030417" lon="8.4689667"><ele>20.0</ele><time>2026-05-01T12:57:52.97Z</time></trkpt><trkpt lat="44.3029717" lon="8.4689367"><ele>18.2</ele><time>2026-05-01T12:57:53.971Z</time></trkpt><trkpt lat="44.3028767" lon="8.4688967"><ele>16.4</ele><time>2026-05-01T12:57:55.97Z</time></trkpt><trkpt lat="44.302795" lon="8.4688617"><ele>14.600000000000001</ele><time>2026-05-01T12:57:57.97Z</time></trkpt><trkpt lat="44.30269" lon="8.46882"><ele>12.8</ele><time>2026-05-01T12:57:59.97Z</time></trkpt><trkpt lat="44.3026133" lon="8.4688133"><ele>11.0</ele><time>2026-05-01T12:58:00.97Z</time></trkpt><trkpt lat="44.3025183" lon="8.4688133"><ele>11.0</ele><time>2026-05-01T12:58:01.97Z</time></trkpt><trkpt lat="44.3024" lon="8.468805"><ele>11.0</ele><time>2026-05-01T12:58:02.97Z</time></trkpt><trkpt lat="44.3022667" lon="8.468785"><ele>11.0</ele><time>2026-05-01T12:58:03.971Z</time></trkpt><trkpt lat="44.302135" lon="8.46875"><ele>11.0</ele><time>2026-05-01T12:58:04.97Z</time></trkpt><trkpt lat="44.3020083" lon="8.4686883"><ele>11.0</ele><time>2026-05-01T12:58:05.97Z</time></trkpt><trkpt lat="44.30189" lon="8.4686083"><ele>11.0</ele><time>2026-05-01T12:58:06.97Z</time></trkpt><trkpt lat="44.3017783" lon="8.4684683"><ele>11.0</ele><time>2026-05-01T12:58:07.97Z</time></trkpt><trkpt lat="44.301685" lon="8.4683"><ele>11.0</ele><time>2026-05-01T12:58:08.97Z</time></trkpt><trkpt lat="44.301595" lon="8.4681"><ele>11.0</ele><time>2026-05-01T12:58:09.971Z</time></trkpt><trkpt lat="44.3015" lon="8.4679167"><ele>11.0</ele><time>2026-05-01T12:58:10.97Z</time></trkpt><trkpt lat="44.3014033" lon="8.4677467"><ele>11.0</ele><time>2026-05-01T12:58:11.971Z</time></trkpt><trkpt lat="44.3013017" lon="8.467575"><ele>11.0</ele><time>2026-05-01T12:58:12.971Z</time></trkpt><trkpt lat="44.3012067" lon="8.467395"><ele>11.0</ele><time>2026-05-01T12:58:13.971Z</time></trkpt><trkpt lat="44.3011167" lon="8.467225"><ele>11.0</ele><time>2026-05-01T12:58:14.97Z</time></trkpt><trkpt lat="44.3010283" lon="8.4670567"><ele>10.666666666666666</ele><time>2026-05-01T12:58:15.97Z</time></trkpt><trkpt lat="44.30093" lon="8.4668867"><ele>10.333333333333334</ele><time>2026-05-01T12:58:16.97Z</time></trkpt><trkpt lat="44.300835" lon="8.4667167"><ele>10.0</ele><time>2026-05-01T12:58:17.97Z</time></trkpt><trkpt lat="44.3007383" lon="8.4665367"><ele>10.0</ele><time>2026-05-01T12:58:18.971Z</time></trkpt><trkpt lat="44.300645" lon="8.466365"><ele>10.0</ele><time>2026-05-01T12:58:19.971Z</time></trkpt><trkpt lat="44.3005417" lon="8.466195"><ele>10.0</ele><time>2026-05-01T12:58:20.971Z</time></trkpt><trkpt lat="44.3004317" lon="8.4660367"><ele>9.666666666666668</ele><time>2026-05-01T12:58:21.97Z</time></trkpt><trkpt lat="44.30032" lon="8.4658733"><ele>9.333333333333334</ele><time>2026-05-01T12:58:22.97Z</time></trkpt><trkpt lat="44.3002117" lon="8.4657117"><ele>9.0</ele><time>2026-05-01T12:58:23.971Z</time></trkpt><trkpt lat="44.3001083" lon="8.46554"><ele>9.0</ele><time>2026-05-01T12:58:24.97Z</time></trkpt><trkpt lat="44.3000083" lon="8.4653683"><ele>9.0</ele><time>2026-05-01T12:58:25.97Z</time></trkpt><trkpt lat="44.2999117" lon="8.4651967"><ele>9.0</ele><time>2026-05-01T12:58:26.97Z</time></trkpt><trkpt lat="44.2998167" lon="8.46505"><ele>9.0</ele><time>2026-05-01T12:58:27.97Z</time></trkpt><trkpt lat="44.2997117" lon="8.4649017"><ele>9.0</ele><time>2026-05-01T12:58:28.97Z</time></trkpt><trkpt lat="44.2996083" lon="8.464725"><ele>9.0</ele><time>2026-05-01T12:58:29.97Z</time></trkpt><trkpt lat="44.299505" lon="8.46455"><ele>8.666666666666666</ele><time>2026-05-01T12:58:30.97Z</time></trkpt><trkpt lat="44.2994067" lon="8.4643783"><ele>8.333333333333332</ele><time>2026-05-01T12:58:31.97Z</time></trkpt><trkpt lat="44.2993167" lon="8.464205"><ele>8.0</ele><time>2026-05-01T12:58:32.971Z</time></trkpt><trkpt lat="44.2992283" lon="8.4640367"><ele>8.0</ele><time>2026-05-01T12:58:33.97Z</time></trkpt><trkpt lat="44.2991367" lon="8.46388"><ele>8.0</ele><time>2026-05-01T12:58:34.97Z</time></trkpt><trkpt lat="44.2990483" lon="8.463725"><ele>8.0</ele><time>2026-05-01T12:58:35.971Z</time></trkpt><trkpt lat="44.298965" lon="8.4635833"><ele>8.0</ele><time>2026-05-01T12:58:36.97Z</time></trkpt><trkpt lat="44.2988833" lon="8.46346"><ele>8.0</ele><time>2026-05-01T12:58:37.97Z</time></trkpt><trkpt lat="44.2988017" lon="8.463355"><ele>8.0</ele><time>2026-05-01T12:58:38.97Z</time></trkpt><trkpt lat="44.2987417" lon="8.46325"><ele>8.0</ele><time>2026-05-01T12:58:39.97Z</time></trkpt><trkpt lat="44.298705" lon="8.4631283"><ele>8.0</ele><time>2026-05-01T12:58:40.97Z</time></trkpt><trkpt lat="44.298705" lon="8.462995"><ele>8.0</ele><time>2026-05-01T12:58:41.97Z</time></trkpt><trkpt lat="44.29872" lon="8.4628917"><ele>8.142857142857142</ele><time>2026-05-01T12:58:42.97Z</time></trkpt><trkpt lat="44.2987617" lon="8.46281"><ele>8.285714285714285</ele><time>2026-05-01T12:58:43.97Z</time></trkpt><trkpt lat="44.2988233" lon="8.462755"><ele>8.428571428571429</ele><time>2026-05-01T12:58:44.97Z</time></trkpt><trkpt lat="44.2989" lon="8.4627217"><ele>8.571428571428571</ele><time>2026-05-01T12:58:45.97Z</time></trkpt><trkpt lat="44.2989583" lon="8.4626783"><ele>8.714285714285715</ele><time>2026-05-01T12:58:46.97Z</time></trkpt><trkpt lat="44.2990083" lon="8.4626233"><ele>8.857142857142858</ele><time>2026-05-01T12:58:47.97Z</time></trkpt><trkpt lat="44.2990267" lon="8.4625"><ele>9.0</ele><time>2026-05-01T12:58:49.971Z</time></trkpt><trkpt lat="44.2989467" lon="8.4623733"><ele>9.0</ele><time>2026-05-01T12:58:51.971Z</time></trkpt><trkpt lat="44.2988883" lon="8.4623333"><ele>9.0</ele><time>2026-05-01T12:58:52.97Z</time></trkpt><trkpt lat="44.29882" lon="8.4622783"><ele>9.0</ele><time>2026-05-01T12:58:53.971Z</time></trkpt><trkpt lat="44.2987633" lon="8.4622033"><ele>9.0</ele><time>2026-05-01T12:58:54.971Z</time></trkpt><trkpt lat="44.298715" lon="8.4621017"><ele>9.0</ele><time>2026-05-01T12:58:55.97Z</time></trkpt><trkpt lat="44.2986733" lon="8.4619783"><ele>9.0</ele><time>2026-05-01T12:58:56.97Z</time></trkpt><trkpt lat="44.29863" lon="8.4618333"><ele>9.0</ele><time>2026-05-01T12:58:57.97Z</time></trkpt><trkpt lat="44.2985817" lon="8.4616783"><ele>9.0</ele><time>2026-05-01T12:58:58.97Z</time></trkpt><trkpt lat="44.2985267" lon="8.4615117"><ele>9.0</ele><time>2026-05-01T12:58:59.971Z</time></trkpt><trkpt lat="44.2984717" lon="8.4613217"><ele>9.0</ele><time>2026-05-01T12:59:00.97Z</time></trkpt><trkpt lat="44.2984017" lon="8.4611383"><ele>9.0</ele><time>2026-05-01T12:59:01.971Z</time></trkpt><trkpt lat="44.2983367" lon="8.460955"><ele>9.0</ele><time>2026-05-01T12:59:02.97Z</time></trkpt><trkpt lat="44.2982767" lon="8.4607733"><ele>9.0</ele><time>2026-05-01T12:59:03.97Z</time></trkpt><trkpt lat="44.29821" lon="8.4605617"><ele>9.0</ele><time>2026-05-01T12:59:04.97Z</time></trkpt><trkpt lat="44.2981283" lon="8.4603883"><ele>9.0</ele><time>2026-05-01T12:59:05.97Z</time></trkpt><trkpt lat="44.298045" lon="8.4601917"><ele>9.0</ele><time>2026-05-01T12:59:06.97Z</time></trkpt><trkpt lat="44.2979617" lon="8.4599983"><ele>9.0</ele><time>2026-05-01T12:59:07.971Z</time></trkpt><trkpt lat="44.2978733" lon="8.459805"><ele>9.0</ele><time>2026-05-01T12:59:08.97Z</time></trkpt><trkpt lat="44.297775" lon="8.4596117"><ele>9.0</ele><time>2026-05-01T12:59:09.97Z</time></trkpt><trkpt lat="44.297685" lon="8.4594417"><ele>9.0</ele><time>2026-05-01T12:59:10.97Z</time></trkpt><trkpt lat="44.2975967" lon="8.4592833"><ele>9.0</ele><time>2026-05-01T12:59:11.97Z</time></trkpt><trkpt lat="44.297505" lon="8.45912"><ele>9.0</ele><time>2026-05-01T12:59:12.97Z</time></trkpt><trkpt lat="44.29741" lon="8.4589667"><ele>9.0</ele><time>2026-05-01T12:59:13.97Z</time></trkpt><trkpt lat="44.2973133" lon="8.4588"><ele>9.25</ele><time>2026-05-01T12:59:14.97Z</time></trkpt><trkpt lat="44.2972217" lon="8.458635"><ele>9.5</ele><time>2026-05-01T12:59:15.971Z</time></trkpt><trkpt lat="44.2971317" lon="8.45849"><ele>9.75</ele><time>2026-05-01T12:59:16.97Z</time></trkpt><trkpt lat="44.2970367" lon="8.4583283"><ele>10.0</ele><time>2026-05-01T12:59:17.971Z</time></trkpt><trkpt lat="44.2969517" lon="8.4581783"><ele>10.0</ele><time>2026-05-01T12:59:18.971Z</time></trkpt><trkpt lat="44.29687" lon="8.458045"><ele>10.0</ele><time>2026-05-01T12:59:19.97Z</time></trkpt><trkpt lat="44.2967867" lon="8.4579017"><ele>10.0</ele><time>2026-05-01T12:59:20.97Z</time></trkpt><trkpt lat="44.296705" lon="8.4577683"><ele>10.0</ele><time>2026-05-01T12:59:21.971Z</time></trkpt><trkpt lat="44.2966333" lon="8.4576417"><ele>9.6</ele><time>2026-05-01T12:59:22.97Z</time></trkpt><trkpt lat="44.296565" lon="8.4575217"><ele>9.2</ele><time>2026-05-01T12:59:23.971Z</time></trkpt><trkpt lat="44.2965033" lon="8.4573983"><ele>8.8</ele><time>2026-05-01T12:59:24.97Z</time></trkpt><trkpt lat="44.2964533" lon="8.4572767"><ele>8.4</ele><time>2026-05-01T12:59:25.971Z</time></trkpt><trkpt lat="44.296425" lon="8.4571417"><ele>8.0</ele><time>2026-05-01T12:59:26.97Z</time></trkpt><trkpt lat="44.2964183" lon="8.456995"><ele>8.0</ele><time>2026-05-01T12:59:27.971Z</time></trkpt><trkpt lat="44.2964167" lon="8.45685"><ele>8.0</ele><time>2026-05-01T12:59:28.97Z</time></trkpt><trkpt lat="44.296405" lon="8.4567067"><ele>8.0</ele><time>2026-05-01T12:59:29.97Z</time></trkpt><trkpt lat="44.29638" lon="8.456565"><ele>8.0</ele><time>2026-05-01T12:59:30.97Z</time></trkpt><trkpt lat="44.2963317" lon="8.4564317"><ele>8.0</ele><time>2026-05-01T12:59:31.97Z</time></trkpt><trkpt lat="44.2962767" lon="8.4563083"><ele>7.999999999999999</ele><time>2026-05-01T12:59:32.97Z</time></trkpt><trkpt lat="44.2962133" lon="8.45622"><ele>8.0</ele><time>2026-05-01T12:59:33.971Z</time></trkpt><trkpt lat="44.2961483" lon="8.456195"><ele>8.0</ele><time>2026-05-01T12:59:34.97Z</time></trkpt><trkpt lat="44.296075" lon="8.4561917"><ele>8.0</ele><time>2026-05-01T12:59:35.971Z</time></trkpt><trkpt lat="44.2959883" lon="8.4562117"><ele>7.999999999999999</ele><time>2026-05-01T12:59:36.97Z</time></trkpt><trkpt lat="44.2959117" lon="8.4562117"><ele>8.0</ele><time>2026-05-01T12:59:37.97Z</time></trkpt><trkpt lat="44.2958317" lon="8.45618"><ele>8.0</ele><time>2026-05-01T12:59:38.971Z</time></trkpt><trkpt lat="44.2957533" lon="8.4561167"><ele>8.0</ele><time>2026-05-01T12:59:39.97Z</time></trkpt><trkpt lat="44.2956717" lon="8.4560133"><ele>8.0</ele><time>2026-05-01T12:59:40.97Z</time></trkpt><trkpt lat="44.2955917" lon="8.4558833"><ele>8.0</ele><time>2026-05-01T12:59:41.97Z</time></trkpt><trkpt lat="44.2955117" lon="8.455725"><ele>8.0</ele><time>2026-05-01T12:59:42.971Z</time></trkpt><trkpt lat="44.2954383" lon="8.4555983"><ele>8.0</ele><time>2026-05-01T12:59:43.971Z</time></trkpt><trkpt lat="44.29537" lon="8.455495"><ele>8.0</ele><time>2026-05-01T12:59:44.97Z</time></trkpt><trkpt lat="44.2953033" lon="8.455395"><ele>8.0</ele><time>2026-05-01T12:59:45.971Z</time></trkpt><trkpt lat="44.2952277" lon="8.4553188"><ele>8.0</ele><time>2026-05-01T12:59:46.97Z</time></trkpt><trkpt lat="44.2951545" lon="8.4552487"><ele>8.200000000000001</ele><time>2026-05-01T12:59:47.971Z</time></trkpt><trkpt lat="44.2950829" lon="8.455169"><ele>8.4</ele><time>2026-05-01T12:59:48.97Z</time></trkpt><trkpt lat="44.2950144" lon="8.4550733"><ele>8.600000000000001</ele><time>2026-05-01T12:59:49.97Z</time></trkpt><trkpt lat="44.2949507" lon="8.4549784"><ele>8.8</ele><time>2026-05-01T12:59:50.97Z</time></trkpt><trkpt lat="44.2948949" lon="8.4548891"><ele>9.0</ele><time>2026-05-01T12:59:51.971Z</time></trkpt><trkpt lat="44.2948399" lon="8.454797"><ele>9.0</ele><time>2026-05-01T12:59:52.97Z</time></trkpt><trkpt lat="44.2947811" lon="8.4546873"><ele>9.0</ele><time>2026-05-01T12:59:53.971Z</time></trkpt><trkpt lat="44.2947185" lon="8.4545713"><ele>9.0</ele><time>2026-05-01T12:59:54.97Z</time></trkpt><trkpt lat="44.2946521" lon="8.4544524"><ele>9.0</ele><time>2026-05-01T12:59:55.97Z</time></trkpt><trkpt lat="44.2945847" lon="8.454325"><ele>9.0</ele><time>2026-05-01T12:59:56.971Z</time></trkpt><trkpt lat="44.2945144" lon="8.4542056"><ele>9.0</ele><time>2026-05-01T12:59:57.97Z</time></trkpt><trkpt lat="44.2944508" lon="8.454095"><ele>9.0</ele><time>2026-05-01T12:59:58.97Z</time></trkpt><trkpt lat="44.2943973" lon="8.4539829"><ele>9.0</ele><time>2026-05-01T12:59:59.97Z</time></trkpt><trkpt lat="44.2943495" lon="8.4538632"><ele>9.0</ele><time>2026-05-01T13:00:00.97Z</time></trkpt><trkpt lat="44.2943051" lon="8.4537401"><ele>9.0</ele><time>2026-05-01T13:00:01.97Z</time></trkpt><trkpt lat="44.294258" lon="8.4536063"><ele>9.0</ele><time>2026-05-01T13:00:02.97Z</time></trkpt><trkpt lat="44.294203" lon="8.4534735"><ele>9.0</ele><time>2026-05-01T13:00:03.97Z</time></trkpt><trkpt lat="44.2941468" lon="8.4533428"><ele>9.0</ele><time>2026-05-01T13:00:04.97Z</time></trkpt><trkpt lat="44.2940926" lon="8.4532162"><ele>9.0</ele><time>2026-05-01T13:00:05.97Z</time></trkpt><trkpt lat="44.2940392" lon="8.4530896"><ele>9.0</ele><time>2026-05-01T13:00:06.971Z</time></trkpt><trkpt lat="44.2939861" lon="8.4529615"><ele>9.0</ele><time>2026-05-01T13:00:07.971Z</time></trkpt><trkpt lat="44.2939324" lon="8.4528218"><ele>9.0</ele><time>2026-05-01T13:00:08.97Z</time></trkpt><trkpt lat="44.2938789" lon="8.4526814"><ele>9.0</ele><time>2026-05-01T13:00:09.97Z</time></trkpt><trkpt lat="44.2938304" lon="8.452541"><ele>9.0</ele><time>2026-05-01T13:00:10.97Z</time></trkpt><trkpt lat="44.293772" lon="8.4523741"><ele>9.0</ele><time>2026-05-01T13:00:11.97Z</time></trkpt><trkpt lat="44.2937216" lon="8.4522225"><ele>9.0</ele><time>2026-05-01T13:00:12.971Z</time></trkpt><trkpt lat="44.2936719" lon="8.4520863"><ele>9.0</ele><time>2026-05-01T13:00:13.971Z</time></trkpt><trkpt lat="44.2936159" lon="8.4519549"><ele>9.0</ele><time>2026-05-01T13:00:14.97Z</time></trkpt><trkpt lat="44.2935471" lon="8.4518267"><ele>9.0</ele><time>2026-05-01T13:00:15.971Z</time></trkpt><trkpt lat="44.2934653" lon="8.4517044"><ele>9.0</ele><time>2026-05-01T13:00:16.97Z</time></trkpt><trkpt lat="44.2933765" lon="8.4515821"><ele>9.0</ele><time>2026-05-01T13:00:17.971Z</time></trkpt><trkpt lat="44.2932862" lon="8.4514606"><ele>9.0</ele><time>2026-05-01T13:00:18.97Z</time></trkpt><trkpt lat="44.2932004" lon="8.4513466"><ele>9.5</ele><time>2026-05-01T13:00:19.97Z</time></trkpt><trkpt lat="44.293111" lon="8.4512253"><ele>10.0</ele><time>2026-05-01T13:00:20.97Z</time></trkpt><trkpt lat="44.2930153" lon="8.4511135"><ele>10.5</ele><time>2026-05-01T13:00:21.97Z</time></trkpt><trkpt lat="44.2929116" lon="8.4510064"><ele>11.0</ele><time>2026-05-01T13:00:22.97Z</time></trkpt><trkpt lat="44.2928033" lon="8.4509067"><ele>11.0</ele><time>2026-05-01T13:00:23.971Z</time></trkpt><trkpt lat="44.2926914" lon="8.4508173"><ele>11.0</ele><time>2026-05-01T13:00:24.97Z</time></trkpt><trkpt lat="44.2925798" lon="8.4507299"><ele>11.0</ele><time>2026-05-01T13:00:25.971Z</time></trkpt><trkpt lat="44.2924635" lon="8.4506568"><ele>11.0</ele><time>2026-05-01T13:00:26.97Z</time></trkpt><trkpt lat="44.2923487" lon="8.4506025"><ele>11.5</ele><time>2026-05-01T13:00:27.971Z</time></trkpt><trkpt lat="44.2922356" lon="8.4505679"><ele>12.0</ele><time>2026-05-01T13:00:28.97Z</time></trkpt><trkpt lat="44.2921131" lon="8.4505446"><ele>12.5</ele><time>2026-05-01T13:00:29.971Z</time></trkpt><trkpt lat="44.2919846" lon="8.4505264"><ele>13.0</ele><time>2026-05-01T13:00:30.97Z</time></trkpt><trkpt lat="44.2918536" lon="8.4505106"><ele>13.0</ele><time>2026-05-01T13:00:31.971Z</time></trkpt><trkpt lat="44.2917258" lon="8.4504909"><ele>13.0</ele><time>2026-05-01T13:00:32.97Z</time></trkpt><trkpt lat="44.2916006" lon="8.4504763"><ele>13.0</ele><time>2026-05-01T13:00:33.97Z</time></trkpt><trkpt lat="44.2914822" lon="8.4504591"><ele>13.0</ele><time>2026-05-01T13:00:34.97Z</time></trkpt><trkpt lat="44.2913633" lon="8.4504417"><ele>15.5</ele><time>2026-05-01T13:00:35.971Z</time></trkpt><trkpt lat="44.2912466" lon="8.4504241"><ele>18.0</ele><time>2026-05-01T13:00:36.971Z</time></trkpt><trkpt lat="44.2911339" lon="8.4504006"><ele>20.5</ele><time>2026-05-01T13:00:37.97Z</time></trkpt><trkpt lat="44.2910232" lon="8.4503756"><ele>23.0</ele><time>2026-05-01T13:00:38.97Z</time></trkpt><trkpt lat="44.2909093" lon="8.4503479"><ele>23.0</ele><time>2026-05-01T13:00:39.97Z</time></trkpt><trkpt lat="44.2907955" lon="8.4503015"><ele>23.0</ele><time>2026-05-01T13:00:40.971Z</time></trkpt><trkpt lat="44.2906758" lon="8.4502385"><ele>23.0</ele><time>2026-05-01T13:00:41.971Z</time></trkpt><trkpt lat="44.2905581" lon="8.4501639"><ele>23.0</ele><time>2026-05-01T13:00:42.97Z</time></trkpt><trkpt lat="44.2904252" lon="8.4500656"><ele>20.25</ele><time>2026-05-01T13:00:43.97Z</time></trkpt><trkpt lat="44.2903026" lon="8.4499661"><ele>17.5</ele><time>2026-05-01T13:00:44.97Z</time></trkpt><trkpt lat="44.2901777" lon="8.4498581"><ele>14.75</ele><time>2026-05-01T13:00:45.971Z</time></trkpt><trkpt lat="44.2900596" lon="8.4497702"><ele>12.0</ele><time>2026-05-01T13:00:46.971Z</time></trkpt><trkpt lat="44.2899549" lon="8.4496841"><ele>12.25</ele><time>2026-05-01T13:00:47.97Z</time></trkpt><trkpt lat="44.2898427" lon="8.4495903"><ele>12.5</ele><time>2026-05-01T13:00:48.971Z</time></trkpt><trkpt lat="44.2897277" lon="8.449481"><ele>12.75</ele><time>2026-05-01T13:00:49.97Z</time></trkpt><trkpt lat="44.2896193" lon="8.4493603"><ele>13.0</ele><time>2026-05-01T13:00:50.971Z</time></trkpt><trkpt lat="44.2895126" lon="8.4492461"><ele>13.0</ele><time>2026-05-01T13:00:51.97Z</time></trkpt><trkpt lat="44.2894113" lon="8.4491289"><ele>13.0</ele><time>2026-05-01T13:00:52.97Z</time></trkpt><trkpt lat="44.2893066" lon="8.4490071"><ele>13.0</ele><time>2026-05-01T13:00:53.97Z</time></trkpt><trkpt lat="44.289205" lon="8.4488861"><ele>13.0</ele><time>2026-05-01T13:00:54.97Z</time></trkpt><trkpt lat="44.2891137" lon="8.4487658"><ele>13.5</ele><time>2026-05-01T13:00:55.97Z</time></trkpt><trkpt lat="44.2890217" lon="8.4486431"><ele>14.0</ele><time>2026-05-01T13:00:56.97Z</time></trkpt><trkpt lat="44.2889275" lon="8.4485185"><ele>14.5</ele><time>2026-05-01T13:00:57.971Z</time></trkpt><trkpt lat="44.2888305" lon="8.4483885"><ele>15.0</ele><time>2026-05-01T13:00:58.97Z</time></trkpt><trkpt lat="44.2887336" lon="8.448257"><ele>15.0</ele><time>2026-05-01T13:00:59.97Z</time></trkpt><trkpt lat="44.288636" lon="8.4481199"><ele>15.0</ele><time>2026-05-01T13:01:00.97Z</time></trkpt><trkpt lat="44.2885449" lon="8.4479703"><ele>15.0</ele><time>2026-05-01T13:01:01.97Z</time></trkpt><trkpt lat="44.288457" lon="8.4478234"><ele>15.0</ele><time>2026-05-01T13:01:02.971Z</time></trkpt><trkpt lat="44.2883698" lon="8.4476792"><ele>15.75</ele><time>2026-05-01T13:01:03.971Z</time></trkpt><trkpt lat="44.2882833" lon="8.4475262"><ele>16.5</ele><time>2026-05-01T13:01:04.97Z</time></trkpt><trkpt lat="44.2881979" lon="8.4473788"><ele>17.25</ele><time>2026-05-01T13:01:05.97Z</time></trkpt><trkpt lat="44.2881071" lon="8.4472347"><ele>18.0</ele><time>2026-05-01T13:01:06.971Z</time></trkpt><trkpt lat="44.2880146" lon="8.4470844"><ele>18.0</ele><time>2026-05-01T13:01:07.97Z</time></trkpt><trkpt lat="44.2879267" lon="8.4469449"><ele>18.0</ele><time>2026-05-01T13:01:08.971Z</time></trkpt><trkpt lat="44.2878462" lon="8.4468081"><ele>18.0</ele><time>2026-05-01T13:01:09.971Z</time></trkpt><trkpt lat="44.2877813" lon="8.4466694"><ele>18.0</ele><time>2026-05-01T13:01:10.97Z</time></trkpt><trkpt lat="44.2877263" lon="8.4465214"><ele>18.0</ele><time>2026-05-01T13:01:11.971Z</time></trkpt><trkpt lat="44.2876813" lon="8.4463639"><ele>18.0</ele><time>2026-05-01T13:01:12.97Z</time></trkpt><trkpt lat="44.2876363" lon="8.4462237"><ele>18.0</ele><time>2026-05-01T13:01:13.971Z</time></trkpt><trkpt lat="44.2875955" lon="8.4461022"><ele>18.0</ele><time>2026-05-01T13:01:14.97Z</time></trkpt><trkpt lat="44.2875597" lon="8.445994"><ele>18.0</ele><time>2026-05-01T13:01:15.97Z</time></trkpt><trkpt lat="44.2875303" lon="8.4459009"><ele>18.8</ele><time>2026-05-01T13:01:16.97Z</time></trkpt><trkpt lat="44.2874776" lon="8.4457632"><ele>19.6</ele><time>2026-05-01T13:01:18.97Z</time></trkpt><trkpt lat="44.2874264" lon="8.4456378"><ele>20.400000000000002</ele><time>2026-05-01T13:01:20.97Z</time></trkpt><trkpt lat="44.2874153" lon="8.4454722"><ele>21.200000000000003</ele><time>2026-05-01T13:01:22.97Z</time></trkpt><trkpt lat="44.2874379" lon="8.4453732"><ele>22.0</ele><time>2026-05-01T13:01:23.97Z</time></trkpt><trkpt lat="44.2874788" lon="8.4452687"><ele>22.5</ele><time>2026-05-01T13:01:24.97Z</time></trkpt><trkpt lat="44.2875398" lon="8.4451544"><ele>23.0</ele><time>2026-05-01T13:01:25.97Z</time></trkpt><trkpt lat="44.2876086" lon="8.4450267"><ele>23.5</ele><time>2026-05-01T13:01:26.97Z</time></trkpt><trkpt lat="44.2876825" lon="8.4448951"><ele>24.0</ele><time>2026-05-01T13:01:27.97Z</time></trkpt><trkpt lat="44.2877577" lon="8.4447529"><ele>24.5</ele><time>2026-05-01T13:01:28.97Z</time></trkpt><trkpt lat="44.287846" lon="8.4446041"><ele>25.0</ele><time>2026-05-01T13:01:29.97Z</time></trkpt><trkpt lat="44.2879337" lon="8.4444451"><ele>25.5</ele><time>2026-05-01T13:01:30.97Z</time></trkpt><trkpt lat="44.2880265" lon="8.4442753"><ele>26.0</ele><time>2026-05-01T13:01:31.971Z</time></trkpt><trkpt lat="44.2881154" lon="8.4440989"><ele>26.666666666666664</ele><time>2026-05-01T13:01:32.97Z</time></trkpt><trkpt lat="44.2882152" lon="8.4439186"><ele>27.333333333333336</ele><time>2026-05-01T13:01:33.97Z</time></trkpt><trkpt lat="44.288304" lon="8.4437297"><ele>28.0</ele><time>2026-05-01T13:01:34.971Z</time></trkpt><trkpt lat="44.2883735" lon="8.4435304"><ele>28.0</ele><time>2026-05-01T13:01:35.97Z</time></trkpt><trkpt lat="44.288428" lon="8.4433264"><ele>28.0</ele><time>2026-05-01T13:01:36.971Z</time></trkpt><trkpt lat="44.2884745" lon="8.4431264"><ele>28.0</ele><time>2026-05-01T13:01:37.97Z</time></trkpt><trkpt lat="44.2885154" lon="8.4429206"><ele>27.0</ele><time>2026-05-01T13:01:38.97Z</time></trkpt><trkpt lat="44.2885472" lon="8.4427514"><ele>26.0</ele><time>2026-05-01T13:01:39.97Z</time></trkpt><trkpt lat="44.2885648" lon="8.4425916"><ele>25.0</ele><time>2026-05-01T13:01:40.97Z</time></trkpt><trkpt lat="44.2885619" lon="8.4424297"><ele>24.0</ele><time>2026-05-01T13:01:41.97Z</time></trkpt><trkpt lat="44.2885306" lon="8.4422626"><ele>24.0</ele><time>2026-05-01T13:01:42.97Z</time></trkpt><trkpt lat="44.2884745" lon="8.4420973"><ele>24.0</ele><time>2026-05-01T13:01:43.971Z</time></trkpt><trkpt lat="44.2884172" lon="8.4419363"><ele>24.0</ele><time>2026-05-01T13:01:44.97Z</time></trkpt><trkpt lat="44.2883674" lon="8.4417931"><ele>24.0</ele><time>2026-05-01T13:01:45.97Z</time></trkpt><trkpt lat="44.2883228" lon="8.4416609"><ele>24.0</ele><time>2026-05-01T13:01:46.971Z</time></trkpt><trkpt lat="44.2882823" lon="8.4415359"><ele>24.0</ele><time>2026-05-01T13:01:47.97Z</time></trkpt><trkpt lat="44.2882349" lon="8.4414062"><ele>24.0</ele><time>2026-05-01T13:01:48.97Z</time></trkpt><trkpt lat="44.288179" lon="8.4412659"><ele>24.0</ele><time>2026-05-01T13:01:49.971Z</time></trkpt><trkpt lat="44.2881231" lon="8.4411195"><ele>24.0</ele><time>2026-05-01T13:01:50.971Z</time></trkpt><trkpt lat="44.2880612" lon="8.4409762"><ele>23.75</ele><time>2026-05-01T13:01:51.971Z</time></trkpt><trkpt lat="44.2880114" lon="8.4408224"><ele>23.5</ele><time>2026-05-01T13:01:52.971Z</time></trkpt><trkpt lat="44.2879578" lon="8.4406467"><ele>23.25</ele><time>2026-05-01T13:01:53.97Z</time></trkpt><trkpt lat="44.2879041" lon="8.4404573"><ele>23.0</ele><time>2026-05-01T13:01:54.97Z</time></trkpt><trkpt lat="44.2878466" lon="8.4402673"><ele>22.666666666666668</ele><time>2026-05-01T13:01:55.97Z</time></trkpt><trkpt lat="44.2877853" lon="8.4400645"><ele>22.333333333333332</ele><time>2026-05-01T13:01:56.97Z</time></trkpt><trkpt lat="44.2877191" lon="8.4398518"><ele>22.0</ele><time>2026-05-01T13:01:57.97Z</time></trkpt><trkpt lat="44.2876429" lon="8.4396465"><ele>22.333333333333332</ele><time>2026-05-01T13:01:58.971Z</time></trkpt><trkpt lat="44.2875641" lon="8.4394486"><ele>22.666666666666668</ele><time>2026-05-01T13:01:59.971Z</time></trkpt><trkpt lat="44.2874959" lon="8.4392559"><ele>23.0</ele><time>2026-05-01T13:02:00.97Z</time></trkpt><trkpt lat="44.2874148" lon="8.4390599"><ele>23.0</ele><time>2026-05-01T13:02:01.971Z</time></trkpt><trkpt lat="44.2873353" lon="8.4388573"><ele>23.0</ele><time>2026-05-01T13:02:02.971Z</time></trkpt><trkpt lat="44.2872539" lon="8.4386468"><ele>23.0</ele><time>2026-05-01T13:02:03.971Z</time></trkpt><trkpt lat="44.2871684" lon="8.4384378"><ele>20.666666666666668</ele><time>2026-05-01T13:02:04.971Z</time></trkpt><trkpt lat="44.2870842" lon="8.4382291"><ele>18.333333333333332</ele><time>2026-05-01T13:02:05.97Z</time></trkpt><trkpt lat="44.2869988" lon="8.4380507"><ele>16.0</ele><time>2026-05-01T13:02:06.97Z</time></trkpt><trkpt lat="44.2869054" lon="8.4378536"><ele>16.0</ele><time>2026-05-01T13:02:07.97Z</time></trkpt><trkpt lat="44.2868071" lon="8.437659"><ele>16.0</ele><time>2026-05-01T13:02:08.97Z</time></trkpt><trkpt lat="44.2867042" lon="8.4374579"><ele>16.0</ele><time>2026-05-01T13:02:09.97Z</time></trkpt><trkpt lat="44.2865997" lon="8.4372757"><ele>16.333333333333332</ele><time>2026-05-01T13:02:10.971Z</time></trkpt><trkpt lat="44.2864952" lon="8.4371142"><ele>16.666666666666668</ele><time>2026-05-01T13:02:11.969Z</time></trkpt><trkpt lat="44.2863898" lon="8.4369607"><ele>17.0</ele><time>2026-05-01T13:02:12.969Z</time></trkpt><trkpt lat="44.2862822" lon="8.4367983"><ele>15.0</ele><time>2026-05-01T13:02:13.969Z</time></trkpt><trkpt lat="44.2861728" lon="8.4366339"><ele>13.0</ele><time>2026-05-01T13:02:14.97Z</time></trkpt><trkpt lat="44.2860591" lon="8.4364854"><ele>11.0</ele><time>2026-05-01T13:02:15.969Z</time></trkpt><trkpt lat="44.2859431" lon="8.4363492"><ele>11.25</ele><time>2026-05-01T13:02:16.969Z</time></trkpt><trkpt lat="44.2858275" lon="8.4362134"><ele>11.5</ele><time>2026-05-01T13:02:17.969Z</time></trkpt><trkpt lat="44.2857113" lon="8.436095"><ele>11.75</ele><time>2026-05-01T13:02:18.969Z</time></trkpt><trkpt lat="44.2856005" lon="8.4360134"><ele>12.0</ele><time>2026-05-01T13:02:19.97Z</time></trkpt><trkpt lat="44.2855002" lon="8.4359347"><ele>11.4</ele><time>2026-05-01T13:02:20.969Z</time></trkpt><trkpt lat="44.2853919" lon="8.4358704"><ele>10.799999999999999</ele><time>2026-05-01T13:02:21.97Z</time></trkpt><trkpt lat="44.2853008" lon="8.4357918"><ele>10.2</ele><time>2026-05-01T13:02:22.969Z</time></trkpt><trkpt lat="44.2852156" lon="8.4357224"><ele>9.6</ele><time>2026-05-01T13:02:23.969Z</time></trkpt><trkpt lat="44.2851383" lon="8.4356524"><ele>9.0</ele><time>2026-05-01T13:02:24.969Z</time></trkpt><trkpt lat="44.2850692" lon="8.4355919"><ele>9.0</ele><time>2026-05-01T13:02:25.969Z</time></trkpt><trkpt lat="44.2850073" lon="8.4355374"><ele>9.0</ele><time>2026-05-01T13:02:26.969Z</time></trkpt><trkpt lat="44.2849502" lon="8.4354787"><ele>9.0</ele><time>2026-05-01T13:02:27.969Z</time></trkpt><trkpt lat="44.2848938" lon="8.4354245"><ele>9.0</ele><time>2026-05-01T13:02:28.969Z</time></trkpt><trkpt lat="44.2848339" lon="8.4353716"><ele>9.0</ele><time>2026-05-01T13:02:29.969Z</time></trkpt><trkpt lat="44.2847811" lon="8.4353203"><ele>9.0</ele><time>2026-05-01T13:02:30.969Z</time></trkpt><trkpt lat="44.2847048" lon="8.4352212"><ele>9.0</ele><time>2026-05-01T13:02:32.969Z</time></trkpt><trkpt lat="44.2846617" lon="8.4350679"><ele>9.0</ele><time>2026-05-01T13:02:34.97Z</time></trkpt><trkpt lat="44.2846711" lon="8.4349564"><ele>9.0</ele><time>2026-05-01T13:02:35.969Z</time></trkpt><trkpt lat="44.2847046" lon="8.4348278"><ele>9.0</ele><time>2026-05-01T13:02:36.97Z</time></trkpt><trkpt lat="44.2847697" lon="8.4347004"><ele>9.0</ele><time>2026-05-01T13:02:37.969Z</time></trkpt><trkpt lat="44.2848447" lon="8.4345729"><ele>9.0</ele><time>2026-05-01T13:02:38.97Z</time></trkpt><trkpt lat="44.2849254" lon="8.4344485"><ele>9.0</ele><time>2026-05-01T13:02:39.969Z</time></trkpt><trkpt lat="44.2850003" lon="8.4343205"><ele>9.0</ele><time>2026-05-01T13:02:40.969Z</time></trkpt><trkpt lat="44.2850814" lon="8.4341981"><ele>9.0</ele><time>2026-05-01T13:02:41.97Z</time></trkpt><trkpt lat="44.2851735" lon="8.4340775"><ele>9.0</ele><time>2026-05-01T13:02:42.969Z</time></trkpt><trkpt lat="44.2852708" lon="8.4339763"><ele>9.0</ele><time>2026-05-01T13:02:43.969Z</time></trkpt><trkpt lat="44.285371" lon="8.4338882"><ele>9.0</ele><time>2026-05-01T13:02:44.97Z</time></trkpt><trkpt lat="44.2854689" lon="8.4337963"><ele>9.0</ele><time>2026-05-01T13:02:45.97Z</time></trkpt><trkpt lat="44.2855623" lon="8.4337031"><ele>8.8</ele><time>2026-05-01T13:02:46.969Z</time></trkpt><trkpt lat="44.2856498" lon="8.4336083"><ele>8.600000000000001</ele><time>2026-05-01T13:02:47.97Z</time></trkpt><trkpt lat="44.2857369" lon="8.4335173"><ele>8.4</ele><time>2026-05-01T13:02:48.97Z</time></trkpt><trkpt lat="44.2858241" lon="8.4334384"><ele>8.200000000000001</ele><time>2026-05-01T13:02:49.969Z</time></trkpt><trkpt lat="44.2858971" lon="8.4333742"><ele>8.0</ele><time>2026-05-01T13:02:50.97Z</time></trkpt><trkpt lat="44.2859594" lon="8.4333228"><ele>8.0</ele><time>2026-05-01T13:02:51.97Z</time></trkpt><trkpt lat="44.286056" lon="8.4332367"><ele>8.0</ele><time>2026-05-01T13:02:53.969Z</time></trkpt><trkpt lat="44.2861504" lon="8.4331422"><ele>8.0</ele><time>2026-05-01T13:02:55.969Z</time></trkpt><trkpt lat="44.2861777" lon="8.432996"><ele>8.0</ele><time>2026-05-01T13:02:57.969Z</time></trkpt><trkpt lat="44.2860768" lon="8.4328756"><ele>7.999999999999999</ele><time>2026-05-01T13:02:59.969Z</time></trkpt><trkpt lat="44.2860049" lon="8.4328221"><ele>8.0</ele><time>2026-05-01T13:03:00.969Z</time></trkpt><trkpt lat="44.2859373" lon="8.432759"><ele>8.0</ele><time>2026-05-01T13:03:01.969Z</time></trkpt><trkpt lat="44.2858716" lon="8.4326873"><ele>8.0</ele><time>2026-05-01T13:03:02.969Z</time></trkpt><trkpt lat="44.2858086" lon="8.4326093"><ele>7.999999999999999</ele><time>2026-05-01T13:03:03.969Z</time></trkpt><trkpt lat="44.2857581" lon="8.4325328"><ele>8.0</ele><time>2026-05-01T13:03:04.969Z</time></trkpt><trkpt lat="44.2857111" lon="8.4324738"><ele>8.0</ele><time>2026-05-01T13:03:05.969Z</time></trkpt><trkpt lat="44.285608" lon="8.4324277"><ele>8.0</ele><time>2026-05-01T13:03:07.969Z</time></trkpt><trkpt lat="44.2854864" lon="8.4325087"><ele>8.0</ele><time>2026-05-01T13:03:09.969Z</time></trkpt><trkpt lat="44.2854058" lon="8.432625"><ele>8.0</ele><time>2026-05-01T13:03:10.969Z</time></trkpt><trkpt lat="44.2853142" lon="8.4327773"><ele>8.0</ele><time>2026-05-01T13:03:11.969Z</time></trkpt><trkpt lat="44.2851995" lon="8.4329528"><ele>8.0</ele><time>2026-05-01T13:03:12.97Z</time></trkpt><trkpt lat="44.2850497" lon="8.4331811"><ele>8.0</ele><time>2026-05-01T13:03:13.97Z</time></trkpt><trkpt lat="44.2848564" lon="8.4334792"><ele>8.0</ele><time>2026-05-01T13:03:14.969Z</time></trkpt><trkpt lat="44.2846678" lon="8.433761"><ele>8.0</ele><time>2026-05-01T13:03:15.97Z</time></trkpt><trkpt lat="44.2844834" lon="8.4340084"><ele>7.333333333333333</ele><time>2026-05-01T13:03:16.969Z</time></trkpt><trkpt lat="44.2843288" lon="8.4342015"><ele>6.666666666666666</ele><time>2026-05-01T13:03:17.97Z</time></trkpt><trkpt lat="44.2842219" lon="8.4343462"><ele>6.0</ele><time>2026-05-01T13:03:18.969Z</time></trkpt><trkpt lat="44.2841457" lon="8.4344618"><ele>6.0</ele><time>2026-05-01T13:03:19.969Z</time></trkpt><trkpt lat="44.2840759" lon="8.4345649"><ele>6.0</ele><time>2026-05-01T13:03:20.969Z</time></trkpt><trkpt lat="44.2840093" lon="8.4346531"><ele>6.0</ele><time>2026-05-01T13:03:21.969Z</time></trkpt><trkpt lat="44.2839575" lon="8.4347323"><ele>6.0</ele><time>2026-05-01T13:03:22.969Z</time></trkpt><trkpt lat="44.2839169" lon="8.4348016"><ele>6.0</ele><time>2026-05-01T13:03:23.969Z</time></trkpt><trkpt lat="44.2838446" lon="8.4349083"><ele>6.0</ele><time>2026-05-01T13:03:25.969Z</time></trkpt><trkpt lat="44.283779" lon="8.434979"><ele>5.999999999999999</ele><time>2026-05-01T13:03:27.97Z</time></trkpt><trkpt lat="44.2837105" lon="8.4349641"><ele>6.0</ele><time>2026-05-01T13:03:29.97Z</time></trkpt><trkpt lat="44.2836467" lon="8.4348673"><ele>6.0</ele><time>2026-05-01T13:03:31.969Z</time></trkpt><trkpt lat="44.2836101" lon="8.4347895"><ele>6.0</ele><time>2026-05-01T13:03:32.969Z</time></trkpt><trkpt lat="44.2835644" lon="8.4347073"><ele>6.0</ele><time>2026-05-01T13:03:33.97Z</time></trkpt><trkpt lat="44.2835228" lon="8.4346281"><ele>5.999999999999999</ele><time>2026-05-01T13:03:34.969Z</time></trkpt><trkpt lat="44.2834902" lon="8.4345488"><ele>6.0</ele><time>2026-05-01T13:03:35.969Z</time></trkpt><trkpt lat="44.2834612" lon="8.434465"><ele>6.0</ele><time>2026-05-01T13:03:36.97Z</time></trkpt><trkpt lat="44.2834144" lon="8.4343857"><ele>6.0</ele><time>2026-05-01T13:03:37.969Z</time></trkpt><trkpt lat="44.2833732" lon="8.4342919"><ele>6.0</ele><time>2026-05-01T13:03:38.969Z</time></trkpt><trkpt lat="44.2833332" lon="8.4341876"><ele>6.0</ele><time>2026-05-01T13:03:39.97Z</time></trkpt><trkpt lat="44.2832839" lon="8.4340833"><ele>6.0</ele><time>2026-05-01T13:03:40.969Z</time></trkpt><trkpt lat="44.2832289" lon="8.4339796"><ele>6.0</ele><time>2026-05-01T13:03:41.97Z</time></trkpt><trkpt lat="44.2831653" lon="8.4338834"><ele>6.166666666666667</ele><time>2026-05-01T13:03:42.969Z</time></trkpt><trkpt lat="44.283098" lon="8.433797"><ele>6.333333333333334</ele><time>2026-05-01T13:03:43.969Z</time></trkpt><trkpt lat="44.2830306" lon="8.4337191"><ele>6.5</ele><time>2026-05-01T13:03:44.969Z</time></trkpt><trkpt lat="44.2829639" lon="8.4336442"><ele>6.666666666666667</ele><time>2026-05-01T13:03:45.969Z</time></trkpt><trkpt lat="44.2829015" lon="8.4335739"><ele>6.833333333333334</ele><time>2026-05-01T13:03:46.97Z</time></trkpt><trkpt lat="44.2828441" lon="8.4335115"><ele>7.0</ele><time>2026-05-01T13:03:47.969Z</time></trkpt><trkpt lat="44.282792" lon="8.4334536"><ele>7.166666666666667</ele><time>2026-05-01T13:03:48.969Z</time></trkpt><trkpt lat="44.2827116" lon="8.4333598"><ele>7.333333333333334</ele><time>2026-05-01T13:03:50.969Z</time></trkpt><trkpt lat="44.2826427" lon="8.4333257"><ele>7.5</ele><time>2026-05-01T13:03:52.969Z</time></trkpt><trkpt lat="44.2825397" lon="8.4333756"><ele>7.666666666666666</ele><time>2026-05-01T13:03:55.969Z</time></trkpt><trkpt lat="44.282481" lon="8.4334113"><ele>7.833333333333333</ele><time>2026-05-01T13:03:56.969Z</time></trkpt><trkpt lat="44.2824217" lon="8.4334429"><ele>8.0</ele><time>2026-05-01T13:03:57.969Z</time></trkpt><trkpt lat="44.2823433" lon="8.433491"><ele>8.0</ele><time>2026-05-01T13:03:59.969Z</time></trkpt><trkpt lat="44.2823603" lon="8.4335812"><ele>8.0</ele><time>2026-05-01T13:04:49.969Z</time></trkpt><trkpt lat="44.28243" lon="8.433615"><ele>8.0</ele><time>2026-05-01T13:04:52.97Z</time></trkpt></trkseg></trk></gpx>